<?xml version='1.0' encoding='UTF-8'?><gpx version="1.1" creator="JPX - https://github.com/jenetics/jpx" xmlns="http://www.topografix.com/GPX/1/1"><trk><trkseg><trkpt lat="33.4406588" lon="9.0318431"><ele>70.0</ele><time>2026-04-18T08:06:04.378Z</time></trkpt><trkpt lat="33.440693" lon="9.0319117"><ele>70.0</ele><time>2026-04-18T08:06:05.389Z</time></trkpt><trkpt lat="33.4407372" lon="9.0320456"><ele>70.0</ele><time>2026-04-18T08:06:07.465Z</time></trkpt><trkpt lat="33.4407417" lon="9.0321541"><ele>70.0</ele><time>2026-04-18T08:06:09.375Z</time></trkpt><trkpt lat="33.4406794" lon="9.032229"><ele>70.0</ele><time>2026-04-18T08:06:12.373Z</time></trkpt><trkpt lat="33.4406021" lon="9.0321844"><ele>70.0</ele><time>2026-04-18T08:06:15.378Z</time></trkpt><trkpt lat="33.4405729" lon="9.0320817"><ele>70.0</ele><time>2026-04-18T08:06:17.381Z</time></trkpt><trkpt lat="33.4405367" lon="9.0319335"><ele>70.0</ele><time>2026-04-18T08:06:19.368Z</time></trkpt><trkpt lat="33.440512" lon="9.0318533"><ele>70.0</ele><time>2026-04-18T08:06:20.381Z</time></trkpt><trkpt lat="33.4404897" lon="9.0317731"><ele>70.0</ele><time>2026-04-18T08:06:21.378Z</time></trkpt><trkpt lat="33.4404591" lon="9.0316496"><ele>70.0</ele><time>2026-04-18T08:06:23.377Z</time></trkpt><trkpt lat="33.4404362" lon="9.0315705"><ele>70.0</ele><time>2026-04-18T08:06:25.382Z</time></trkpt><trkpt lat="33.4404186" lon="9.0314301"><ele>70.0</ele><time>2026-04-18T08:06:53.379Z</time></trkpt><trkpt lat="33.4404689" lon="9.0313421"><ele>70.0</ele><time>2026-04-18T08:06:55.374Z</time></trkpt><trkpt lat="33.4405308" lon="9.0313048"><ele>70.0</ele><time>2026-04-18T08:06:56.383Z</time></trkpt><trkpt lat="33.4406038" lon="9.0312614"><ele>70.0</ele><time>2026-04-18T08:06:57.373Z</time></trkpt><trkpt lat="33.4406964" lon="9.0312058"><ele>69.66666666666666</ele><time>2026-04-18T08:06:58.376Z</time></trkpt><trkpt lat="33.4408229" lon="9.031129"><ele>69.33333333333333</ele><time>2026-04-18T08:06:59.373Z</time></trkpt><trkpt lat="33.44096" lon="9.0310463"><ele>69.0</ele><time>2026-04-18T08:07:00.385Z</time></trkpt><trkpt lat="33.4411028" lon="9.0309572"><ele>69.0</ele><time>2026-04-18T08:07:01.379Z</time></trkpt><trkpt lat="33.4412464" lon="9.0308684"><ele>69.0</ele><time>2026-04-18T08:07:02.376Z</time></trkpt><trkpt lat="33.4413934" lon="9.0307779"><ele>69.0</ele><time>2026-04-18T08:07:03.375Z</time></trkpt><trkpt lat="33.4415411" lon="9.0306866"><ele>68.66666666666667</ele><time>2026-04-18T08:07:04.381Z</time></trkpt><trkpt lat="33.4416899" lon="9.0305918"><ele>68.33333333333334</ele><time>2026-04-18T08:07:05.375Z</time></trkpt><trkpt lat="33.4418415" lon="9.0304926"><ele>68.0</ele><time>2026-04-18T08:07:06.397Z</time></trkpt><trkpt lat="33.4419906" lon="9.030394"><ele>68.0</ele><time>2026-04-18T08:07:07.39Z</time></trkpt><trkpt lat="33.4421299" lon="9.0303016"><ele>68.0</ele><time>2026-04-18T08:07:08.411Z</time></trkpt><trkpt lat="33.4422545" lon="9.0302224"><ele>68.0</ele><time>2026-04-18T08:07:09.378Z</time></trkpt><trkpt lat="33.4423677" lon="9.0301502"><ele>68.0</ele><time>2026-04-18T08:07:10.38Z</time></trkpt><trkpt lat="33.4424798" lon="9.0300748"><ele>67.75</ele><time>2026-04-18T08:07:11.374Z</time></trkpt><trkpt lat="33.4425932" lon="9.0299974"><ele>67.5</ele><time>2026-04-18T08:07:12.375Z</time></trkpt><trkpt lat="33.4427023" lon="9.0299138"><ele>67.25</ele><time>2026-04-18T08:07:13.378Z</time></trkpt><trkpt lat="33.4427968" lon="9.0298129"><ele>67.0</ele><time>2026-04-18T08:07:14.377Z</time></trkpt><trkpt lat="33.4428744" lon="9.029689"><ele>67.0</ele><time>2026-04-18T08:07:15.376Z</time></trkpt><trkpt lat="33.4429394" lon="9.0295402"><ele>67.0</ele><time>2026-04-18T08:07:16.373Z</time></trkpt><trkpt lat="33.4429952" lon="9.0293788"><ele>67.0</ele><time>2026-04-18T08:07:17.369Z</time></trkpt><trkpt lat="33.4430479" lon="9.0292062"><ele>67.0</ele><time>2026-04-18T08:07:18.382Z</time></trkpt><trkpt lat="33.4430922" lon="9.0290243"><ele>67.0</ele><time>2026-04-18T08:07:19.368Z</time></trkpt><trkpt lat="33.4431286" lon="9.028851"><ele>67.0</ele><time>2026-04-18T08:07:20.375Z</time></trkpt><trkpt lat="33.4431574" lon="9.0286958"><ele>67.0</ele><time>2026-04-18T08:07:21.37Z</time></trkpt><trkpt lat="33.44318" lon="9.0285544"><ele>67.0</ele><time>2026-04-18T08:07:22.375Z</time></trkpt><trkpt lat="33.443207" lon="9.0284281"><ele>67.0</ele><time>2026-04-18T08:07:23.375Z</time></trkpt><trkpt lat="33.443242" lon="9.0283081"><ele>67.0</ele><time>2026-04-18T08:07:24.374Z</time></trkpt><trkpt lat="33.4433185" lon="9.0282046"><ele>67.0</ele><time>2026-04-18T08:07:25.378Z</time></trkpt><trkpt lat="33.4434308" lon="9.0280864"><ele>67.0</ele><time>2026-04-18T08:07:26.376Z</time></trkpt><trkpt lat="33.4435568" lon="9.027963"><ele>67.0</ele><time>2026-04-18T08:07:27.38Z</time></trkpt><trkpt lat="33.4436877" lon="9.027838"><ele>67.0</ele><time>2026-04-18T08:07:28.375Z</time></trkpt><trkpt lat="33.4438239" lon="9.0277042"><ele>67.0</ele><time>2026-04-18T08:07:29.375Z</time></trkpt><trkpt lat="33.4439595" lon="9.0275746"><ele>67.0</ele><time>2026-04-18T08:07:30.371Z</time></trkpt><trkpt lat="33.4440895" lon="9.0274503"><ele>67.0</ele><time>2026-04-18T08:07:31.38Z</time></trkpt><trkpt lat="33.4442063" lon="9.0273372"><ele>67.0</ele><time>2026-04-18T08:07:32.374Z</time></trkpt><trkpt lat="33.4443126" lon="9.0272343"><ele>67.0</ele><time>2026-04-18T08:07:33.383Z</time></trkpt><trkpt lat="33.4444093" lon="9.0271404"><ele>67.0</ele><time>2026-04-18T08:07:34.378Z</time></trkpt><trkpt lat="33.4445006" lon="9.0270501"><ele>67.0</ele><time>2026-04-18T08:07:35.376Z</time></trkpt><trkpt lat="33.4445918" lon="9.0269625"><ele>67.0</ele><time>2026-04-18T08:07:36.376Z</time></trkpt><trkpt lat="33.4446831" lon="9.0268759"><ele>67.0</ele><time>2026-04-18T08:07:37.376Z</time></trkpt><trkpt lat="33.4447794" lon="9.0267861"><ele>67.0</ele><time>2026-04-18T08:07:38.391Z</time></trkpt><trkpt lat="33.4448862" lon="9.026685"><ele>67.0</ele><time>2026-04-18T08:07:39.389Z</time></trkpt><trkpt lat="33.4449984" lon="9.0265778"><ele>67.0</ele><time>2026-04-18T08:07:40.374Z</time></trkpt><trkpt lat="33.4451165" lon="9.0264643"><ele>67.0</ele><time>2026-04-18T08:07:41.37Z</time></trkpt><trkpt lat="33.4452428" lon="9.0263456"><ele>67.0</ele><time>2026-04-18T08:07:42.376Z</time></trkpt><trkpt lat="33.445374" lon="9.0262234"><ele>67.0</ele><time>2026-04-18T08:07:43.386Z</time></trkpt><trkpt lat="33.4455107" lon="9.0260946"><ele>66.66666666666666</ele><time>2026-04-18T08:07:44.384Z</time></trkpt><trkpt lat="33.4456535" lon="9.0259626"><ele>66.33333333333333</ele><time>2026-04-18T08:07:45.376Z</time></trkpt><trkpt lat="33.4457879" lon="9.025834"><ele>66.0</ele><time>2026-04-18T08:07:46.389Z</time></trkpt><trkpt lat="33.4459124" lon="9.0257181"><ele>65.66666666666667</ele><time>2026-04-18T08:07:47.392Z</time></trkpt><trkpt lat="33.4460407" lon="9.0255958"><ele>65.33333333333334</ele><time>2026-04-18T08:07:48.381Z</time></trkpt><trkpt lat="33.446167" lon="9.025478"><ele>65.0</ele><time>2026-04-18T08:07:49.378Z</time></trkpt><trkpt lat="33.4462864" lon="9.0253654"><ele>64.25</ele><time>2026-04-18T08:07:50.381Z</time></trkpt><trkpt lat="33.4463992" lon="9.0252568"><ele>63.5</ele><time>2026-04-18T08:07:51.375Z</time></trkpt><trkpt lat="33.4465083" lon="9.025148"><ele>62.75</ele><time>2026-04-18T08:07:52.377Z</time></trkpt><trkpt lat="33.4466202" lon="9.0250404"><ele>62.0</ele><time>2026-04-18T08:07:53.381Z</time></trkpt><trkpt lat="33.4467388" lon="9.0249248"><ele>62.0</ele><time>2026-04-18T08:07:54.367Z</time></trkpt><trkpt lat="33.4468708" lon="9.0248015"><ele>62.0</ele><time>2026-04-18T08:07:55.375Z</time></trkpt><trkpt lat="33.4470048" lon="9.0246781"><ele>62.0</ele><time>2026-04-18T08:07:56.377Z</time></trkpt><trkpt lat="33.4471513" lon="9.0245464"><ele>62.0</ele><time>2026-04-18T08:07:57.378Z</time></trkpt><trkpt lat="33.4472804" lon="9.0244241"><ele>62.0</ele><time>2026-04-18T08:07:58.377Z</time></trkpt><trkpt lat="33.4474062" lon="9.0243043"><ele>62.0</ele><time>2026-04-18T08:07:59.379Z</time></trkpt><trkpt lat="33.447536" lon="9.0241806"><ele>62.0</ele><time>2026-04-18T08:08:00.381Z</time></trkpt><trkpt lat="33.4476613" lon="9.0240587"><ele>62.0</ele><time>2026-04-18T08:08:01.372Z</time></trkpt><trkpt lat="33.447783" lon="9.02394"><ele>62.0</ele><time>2026-04-18T08:08:02.374Z</time></trkpt><trkpt lat="33.447904" lon="9.0238228"><ele>62.66666666666667</ele><time>2026-04-18T08:08:03.384Z</time></trkpt><trkpt lat="33.4480239" lon="9.0237114"><ele>63.33333333333333</ele><time>2026-04-18T08:08:04.376Z</time></trkpt><trkpt lat="33.4481446" lon="9.023601"><ele>64.0</ele><time>2026-04-18T08:08:05.378Z</time></trkpt><trkpt lat="33.4482641" lon="9.0234912"><ele>64.0</ele><time>2026-04-18T08:08:06.38Z</time></trkpt><trkpt lat="33.4483824" lon="9.0233826"><ele>64.0</ele><time>2026-04-18T08:08:07.385Z</time></trkpt><trkpt lat="33.4485032" lon="9.0232669"><ele>64.0</ele><time>2026-04-18T08:08:08.383Z</time></trkpt><trkpt lat="33.4486347" lon="9.023141"><ele>64.0</ele><time>2026-04-18T08:08:09.383Z</time></trkpt><trkpt lat="33.4487745" lon="9.0230084"><ele>64.0</ele><time>2026-04-18T08:08:10.388Z</time></trkpt><trkpt lat="33.4489218" lon="9.0228684"><ele>64.0</ele><time>2026-04-18T08:08:11.384Z</time></trkpt><trkpt lat="33.4490756" lon="9.022724"><ele>64.0</ele><time>2026-04-18T08:08:12.373Z</time></trkpt><trkpt lat="33.4492329" lon="9.0225782"><ele>64.0</ele><time>2026-04-18T08:08:13.382Z</time></trkpt><trkpt lat="33.4493908" lon="9.0224331"><ele>64.0</ele><time>2026-04-18T08:08:14.379Z</time></trkpt><trkpt lat="33.449537" lon="9.0222972"><ele>64.66666666666666</ele><time>2026-04-18T08:08:15.377Z</time></trkpt><trkpt lat="33.4496722" lon="9.0221732"><ele>65.33333333333333</ele><time>2026-04-18T08:08:16.384Z</time></trkpt><trkpt lat="33.449796" lon="9.0220591"><ele>66.0</ele><time>2026-04-18T08:08:17.381Z</time></trkpt><trkpt lat="33.4499095" lon="9.0219523"><ele>66.0</ele><time>2026-04-18T08:08:18.374Z</time></trkpt><trkpt lat="33.450015" lon="9.0218554"><ele>66.0</ele><time>2026-04-18T08:08:19.38Z</time></trkpt><trkpt lat="33.4501143" lon="9.0217656"><ele>66.0</ele><time>2026-04-18T08:08:20.379Z</time></trkpt><trkpt lat="33.4502079" lon="9.0216846"><ele>66.0</ele><time>2026-04-18T08:08:21.378Z</time></trkpt><trkpt lat="33.4502944" lon="9.0216078"><ele>66.2</ele><time>2026-04-18T08:08:22.374Z</time></trkpt><trkpt lat="33.4503768" lon="9.021537"><ele>66.39999999999999</ele><time>2026-04-18T08:08:23.4Z</time></trkpt><trkpt lat="33.4504558" lon="9.0214702"><ele>66.6</ele><time>2026-04-18T08:08:24.385Z</time></trkpt><trkpt lat="33.4505429" lon="9.0213939"><ele>66.8</ele><time>2026-04-18T08:08:25.379Z</time></trkpt><trkpt lat="33.4506382" lon="9.021315"><ele>67.0</ele><time>2026-04-18T08:08:26.382Z</time></trkpt><trkpt lat="33.4507708" lon="9.0211911"><ele>68.0</ele><time>2026-04-18T08:08:27.377Z</time></trkpt><trkpt lat="33.4509038" lon="9.0210659"><ele>69.0</ele><time>2026-04-18T08:08:28.396Z</time></trkpt><trkpt lat="33.4510423" lon="9.020957"><ele>70.0</ele><time>2026-04-18T08:08:29.387Z</time></trkpt><trkpt lat="33.4512041" lon="9.0208647"><ele>70.33333333333333</ele><time>2026-04-18T08:08:30.407Z</time></trkpt><trkpt lat="33.4513764" lon="9.0207854"><ele>70.66666666666667</ele><time>2026-04-18T08:08:31.389Z</time></trkpt><trkpt lat="33.4515578" lon="9.0207052"><ele>71.0</ele><time>2026-04-18T08:08:32.388Z</time></trkpt><trkpt lat="33.4517364" lon="9.0206282"><ele>71.0</ele><time>2026-04-18T08:08:33.375Z</time></trkpt><trkpt lat="33.4518918" lon="9.020561"><ele>71.0</ele><time>2026-04-18T08:08:34.376Z</time></trkpt><trkpt lat="33.4520315" lon="9.0204982"><ele>71.0</ele><time>2026-04-18T08:08:35.388Z</time></trkpt><trkpt lat="33.4521623" lon="9.0204406"><ele>71.8</ele><time>2026-04-18T08:08:36.38Z</time></trkpt><trkpt lat="33.4522789" lon="9.0203961"><ele>72.6</ele><time>2026-04-18T08:08:37.388Z</time></trkpt><trkpt lat="33.452387" lon="9.0203574"><ele>73.4</ele><time>2026-04-18T08:08:38.376Z</time></trkpt><trkpt lat="33.4524796" lon="9.0203271"><ele>74.2</ele><time>2026-04-18T08:08:39.384Z</time></trkpt><trkpt lat="33.4525537" lon="9.0203031"><ele>75.0</ele><time>2026-04-18T08:08:40.381Z</time></trkpt><trkpt lat="33.4526411" lon="9.0202873"><ele>75.0</ele><time>2026-04-18T08:08:42.387Z</time></trkpt><trkpt lat="33.452703" lon="9.0203021"><ele>75.0</ele><time>2026-04-18T08:08:54.38Z</time></trkpt><trkpt lat="33.4527915" lon="9.0204027"><ele>75.0</ele><time>2026-04-18T08:08:56.371Z</time></trkpt><trkpt lat="33.4528286" lon="9.0204767"><ele>75.0</ele><time>2026-04-18T08:08:57.375Z</time></trkpt><trkpt lat="33.4528692" lon="9.020558"><ele>75.0</ele><time>2026-04-18T08:08:58.38Z</time></trkpt><trkpt lat="33.4529075" lon="9.0206361"><ele>75.0</ele><time>2026-04-18T08:08:59.378Z</time></trkpt><trkpt lat="33.4529405" lon="9.0207049"><ele>74.8</ele><time>2026-04-18T08:09:00.378Z</time></trkpt><trkpt lat="33.4529965" lon="9.0208286"><ele>74.6</ele><time>2026-04-18T08:09:02.381Z</time></trkpt><trkpt lat="33.4530489" lon="9.0209537"><ele>74.4</ele><time>2026-04-18T08:09:04.384Z</time></trkpt><trkpt lat="33.4530748" lon="9.0210228"><ele>74.2</ele><time>2026-04-18T08:09:05.377Z</time></trkpt><trkpt lat="33.4531303" lon="9.0211665"><ele>74.0</ele><time>2026-04-18T08:09:07.376Z</time></trkpt><trkpt lat="33.453164" lon="9.0212549"><ele>74.0</ele><time>2026-04-18T08:09:08.384Z</time></trkpt><trkpt lat="33.4532124" lon="9.021341"><ele>74.0</ele><time>2026-04-18T08:09:09.384Z</time></trkpt><trkpt lat="33.4532712" lon="9.0214229"><ele>74.0</ele><time>2026-04-18T08:09:10.377Z</time></trkpt><trkpt lat="33.4533298" lon="9.0215005"><ele>74.0</ele><time>2026-04-18T08:09:11.382Z</time></trkpt><trkpt lat="33.4533883" lon="9.0215776"><ele>74.0</ele><time>2026-04-18T08:09:12.385Z</time></trkpt><trkpt lat="33.4534432" lon="9.0216532"><ele>74.0</ele><time>2026-04-18T08:09:13.372Z</time></trkpt><trkpt lat="33.4534928" lon="9.0217217"><ele>73.60000000000001</ele><time>2026-04-18T08:09:14.385Z</time></trkpt><trkpt lat="33.4535429" lon="9.0217947"><ele>73.2</ele><time>2026-04-18T08:09:15.397Z</time></trkpt><trkpt lat="33.453598" lon="9.0218763"><ele>72.80000000000001</ele><time>2026-04-18T08:09:16.377Z</time></trkpt><trkpt lat="33.4536575" lon="9.0219634"><ele>72.4</ele><time>2026-04-18T08:09:17.379Z</time></trkpt><trkpt lat="33.453721" lon="9.0220578"><ele>72.0</ele><time>2026-04-18T08:09:18.386Z</time></trkpt><trkpt lat="33.4537874" lon="9.0221533"><ele>71.83333333333333</ele><time>2026-04-18T08:09:19.381Z</time></trkpt><trkpt lat="33.4538524" lon="9.0222443"><ele>71.66666666666667</ele><time>2026-04-18T08:09:20.378Z</time></trkpt><trkpt lat="33.4539131" lon="9.0223303"><ele>71.5</ele><time>2026-04-18T08:09:21.376Z</time></trkpt><trkpt lat="33.4539672" lon="9.0224085"><ele>71.33333333333334</ele><time>2026-04-18T08:09:22.384Z</time></trkpt><trkpt lat="33.4540186" lon="9.0224834"><ele>71.16666666666667</ele><time>2026-04-18T08:09:23.391Z</time></trkpt><trkpt lat="33.454069" lon="9.0225594"><ele>71.0</ele><time>2026-04-18T08:09:24.384Z</time></trkpt><trkpt lat="33.4541183" lon="9.0226332"><ele>71.0</ele><time>2026-04-18T08:09:25.387Z</time></trkpt><trkpt lat="33.4541684" lon="9.0227023"><ele>71.0</ele><time>2026-04-18T08:09:26.394Z</time></trkpt><trkpt lat="33.4542173" lon="9.022764"><ele>71.0</ele><time>2026-04-18T08:09:27.39Z</time></trkpt><trkpt lat="33.4542657" lon="9.0228213"><ele>71.0</ele><time>2026-04-18T08:09:28.375Z</time></trkpt><trkpt lat="33.4543191" lon="9.0228664"><ele>71.0</ele><time>2026-04-18T08:09:29.381Z</time></trkpt><trkpt lat="33.454379" lon="9.0228922"><ele>71.0</ele><time>2026-04-18T08:09:30.386Z</time></trkpt><trkpt lat="33.4544427" lon="9.0229055"><ele>71.0</ele><time>2026-04-18T08:09:31.379Z</time></trkpt><trkpt lat="33.4545267" lon="9.0228768"><ele>71.0</ele><time>2026-04-18T08:09:33.385Z</time></trkpt><trkpt lat="33.4546017" lon="9.022879"><ele>71.0</ele><time>2026-04-18T08:09:35.375Z</time></trkpt><trkpt lat="33.4547115" lon="9.0229201"><ele>71.0</ele><time>2026-04-18T08:09:53.392Z</time></trkpt><trkpt lat="33.4546512" lon="9.0228867"><ele>71.0</ele><time>2026-04-18T08:09:55.375Z</time></trkpt><trkpt lat="33.4545876" lon="9.0228606"><ele>71.0</ele><time>2026-04-18T08:09:56.375Z</time></trkpt><trkpt lat="33.4544995" lon="9.0228141"><ele>71.0</ele><time>2026-04-18T08:09:57.385Z</time></trkpt><trkpt lat="33.4544332" lon="9.0227745"><ele>71.0</ele><time>2026-04-18T08:09:58.382Z</time></trkpt><trkpt lat="33.4543554" lon="9.022733"><ele>71.0</ele><time>2026-04-18T08:09:59.388Z</time></trkpt><trkpt lat="33.4542842" lon="9.022694"><ele>71.0</ele><time>2026-04-18T08:10:00.38Z</time></trkpt><trkpt lat="33.4541958" lon="9.0226408"><ele>71.0</ele><time>2026-04-18T08:10:02.366Z</time></trkpt><trkpt lat="33.4541174" lon="9.0225844"><ele>71.0</ele><time>2026-04-18T08:10:04.388Z</time></trkpt><trkpt lat="33.4540561" lon="9.022509"><ele>71.0</ele><time>2026-04-18T08:10:06.379Z</time></trkpt><trkpt lat="33.4539999" lon="9.0224228"><ele>71.0</ele><time>2026-04-18T08:10:08.381Z</time></trkpt><trkpt lat="33.4539261" lon="9.0223174"><ele>71.0</ele><time>2026-04-18T08:10:10.386Z</time></trkpt><trkpt lat="33.4538618" lon="9.0222209"><ele>71.0</ele><time>2026-04-18T08:10:11.379Z</time></trkpt><trkpt lat="33.4537695" lon="9.0220804"><ele>71.0</ele><time>2026-04-18T08:10:12.395Z</time></trkpt><trkpt lat="33.453667" lon="9.0219229"><ele>71.25</ele><time>2026-04-18T08:10:13.387Z</time></trkpt><trkpt lat="33.4535703" lon="9.0217871"><ele>71.5</ele><time>2026-04-18T08:10:14.378Z</time></trkpt><trkpt lat="33.4534917" lon="9.0216769"><ele>71.75</ele><time>2026-04-18T08:10:15.389Z</time></trkpt><trkpt lat="33.4534219" lon="9.0215734"><ele>72.0</ele><time>2026-04-18T08:10:16.379Z</time></trkpt><trkpt lat="33.4533615" lon="9.0214875"><ele>72.33333333333333</ele><time>2026-04-18T08:10:17.383Z</time></trkpt><trkpt lat="33.4533301" lon="9.0214092"><ele>72.66666666666667</ele><time>2026-04-18T08:10:18.383Z</time></trkpt><trkpt lat="33.4533038" lon="9.0213383"><ele>73.0</ele><time>2026-04-18T08:10:19.378Z</time></trkpt><trkpt lat="33.4532675" lon="9.0212428"><ele>73.33333333333334</ele><time>2026-04-18T08:10:21.388Z</time></trkpt><trkpt lat="33.4532333" lon="9.0211469"><ele>73.66666666666667</ele><time>2026-04-18T08:10:25.388Z</time></trkpt><trkpt lat="33.4531623" lon="9.0210706"><ele>74.0</ele><time>2026-04-18T08:10:27.384Z</time></trkpt><trkpt lat="33.4531157" lon="9.0210064"><ele>74.0</ele><time>2026-04-18T08:10:28.379Z</time></trkpt><trkpt lat="33.4530733" lon="9.020917"><ele>74.0</ele><time>2026-04-18T08:10:29.376Z</time></trkpt><trkpt lat="33.4530323" lon="9.0208177"><ele>74.0</ele><time>2026-04-18T08:10:30.384Z</time></trkpt><trkpt lat="33.452986" lon="9.0207116"><ele>74.0</ele><time>2026-04-18T08:10:31.377Z</time></trkpt><trkpt lat="33.4529391" lon="9.0206117"><ele>74.0</ele><time>2026-04-18T08:10:32.378Z</time></trkpt><trkpt lat="33.4528914" lon="9.0205142"><ele>74.2</ele><time>2026-04-18T08:10:33.373Z</time></trkpt><trkpt lat="33.452847" lon="9.020408"><ele>74.4</ele><time>2026-04-18T08:10:34.393Z</time></trkpt><trkpt lat="33.452807" lon="9.0202988"><ele>74.6</ele><time>2026-04-18T08:10:35.375Z</time></trkpt><trkpt lat="33.4527723" lon="9.0201877"><ele>74.8</ele><time>2026-04-18T08:10:36.373Z</time></trkpt><trkpt lat="33.4527384" lon="9.0200775"><ele>75.0</ele><time>2026-04-18T08:10:37.377Z</time></trkpt><trkpt lat="33.4527046" lon="9.0199625"><ele>74.4</ele><time>2026-04-18T08:10:38.384Z</time></trkpt><trkpt lat="33.4526698" lon="9.0198426"><ele>73.8</ele><time>2026-04-18T08:10:39.38Z</time></trkpt><trkpt lat="33.452636" lon="9.0197206"><ele>73.2</ele><time>2026-04-18T08:10:40.373Z</time></trkpt><trkpt lat="33.4526019" lon="9.0196034"><ele>72.6</ele><time>2026-04-18T08:10:41.373Z</time></trkpt><trkpt lat="33.45257" lon="9.0194994"><ele>72.0</ele><time>2026-04-18T08:10:42.378Z</time></trkpt><trkpt lat="33.4525428" lon="9.0194054"><ele>72.0</ele><time>2026-04-18T08:10:43.375Z</time></trkpt><trkpt lat="33.4525214" lon="9.019326"><ele>72.0</ele><time>2026-04-18T08:10:44.38Z</time></trkpt><trkpt lat="33.4524898" lon="9.0191974"><ele>72.0</ele><time>2026-04-18T08:10:46.379Z</time></trkpt><trkpt lat="33.452468" lon="9.0190592"><ele>72.0</ele><time>2026-04-18T08:10:48.381Z</time></trkpt><trkpt lat="33.4524525" lon="9.0189813"><ele>72.0</ele><time>2026-04-18T08:10:49.387Z</time></trkpt><trkpt lat="33.4524432" lon="9.0188948"><ele>72.0</ele><time>2026-04-18T08:10:50.375Z</time></trkpt><trkpt lat="33.452435" lon="9.0188042"><ele>71.4</ele><time>2026-04-18T08:10:51.373Z</time></trkpt><trkpt lat="33.4524252" lon="9.0187098"><ele>70.80000000000001</ele><time>2026-04-18T08:10:52.375Z</time></trkpt><trkpt lat="33.4524165" lon="9.018613"><ele>70.2</ele><time>2026-04-18T08:10:53.372Z</time></trkpt><trkpt lat="33.4524082" lon="9.0185083"><ele>69.60000000000001</ele><time>2026-04-18T08:10:54.368Z</time></trkpt><trkpt lat="33.4523977" lon="9.0183934"><ele>69.0</ele><time>2026-04-18T08:10:55.375Z</time></trkpt><trkpt lat="33.4523856" lon="9.0182649"><ele>68.25</ele><time>2026-04-18T08:10:56.379Z</time></trkpt><trkpt lat="33.4523717" lon="9.018124"><ele>67.5</ele><time>2026-04-18T08:10:57.371Z</time></trkpt><trkpt lat="33.4523566" lon="9.0179706"><ele>66.75</ele><time>2026-04-18T08:10:58.376Z</time></trkpt><trkpt lat="33.4523405" lon="9.0178149"><ele>66.0</ele><time>2026-04-18T08:10:59.374Z</time></trkpt><trkpt lat="33.4523237" lon="9.0176644"><ele>66.0</ele><time>2026-04-18T08:11:00.37Z</time></trkpt><trkpt lat="33.4523047" lon="9.0175219"><ele>66.0</ele><time>2026-04-18T08:11:01.376Z</time></trkpt><trkpt lat="33.4522884" lon="9.0173828"><ele>66.0</ele><time>2026-04-18T08:11:02.371Z</time></trkpt><trkpt lat="33.4522734" lon="9.0172407"><ele>66.0</ele><time>2026-04-18T08:11:03.374Z</time></trkpt><trkpt lat="33.4522569" lon="9.0170974"><ele>65.2</ele><time>2026-04-18T08:11:04.373Z</time></trkpt><trkpt lat="33.4522377" lon="9.0169567"><ele>64.39999999999999</ele><time>2026-04-18T08:11:05.374Z</time></trkpt><trkpt lat="33.4522193" lon="9.0168224"><ele>63.6</ele><time>2026-04-18T08:11:06.377Z</time></trkpt><trkpt lat="33.452203" lon="9.0166957"><ele>62.8</ele><time>2026-04-18T08:11:07.406Z</time></trkpt><trkpt lat="33.4521871" lon="9.0165835"><ele>62.0</ele><time>2026-04-18T08:11:08.37Z</time></trkpt><trkpt lat="33.4521736" lon="9.016485"><ele>61.8</ele><time>2026-04-18T08:11:09.379Z</time></trkpt><trkpt lat="33.4521629" lon="9.016399"><ele>61.6</ele><time>2026-04-18T08:11:10.379Z</time></trkpt><trkpt lat="33.4521439" lon="9.0162733"><ele>61.39999999999999</ele><time>2026-04-18T08:11:12.379Z</time></trkpt><trkpt lat="33.4521308" lon="9.0161794"><ele>61.199999999999996</ele><time>2026-04-18T08:11:14.372Z</time></trkpt><trkpt lat="33.4521663" lon="9.0160958"><ele>61.0</ele><time>2026-04-18T08:11:16.376Z</time></trkpt><trkpt lat="33.4522957" lon="9.0160314"><ele>61.0</ele><time>2026-04-18T08:11:18.394Z</time></trkpt><trkpt lat="33.4523967" lon="9.0159871"><ele>61.0</ele><time>2026-04-18T08:11:19.375Z</time></trkpt><trkpt lat="33.452518" lon="9.0159306"><ele>61.0</ele><time>2026-04-18T08:11:20.371Z</time></trkpt><trkpt lat="33.4526572" lon="9.0158615"><ele>61.0</ele><time>2026-04-18T08:11:21.377Z</time></trkpt><trkpt lat="33.452802" lon="9.015786"><ele>60.666666666666664</ele><time>2026-04-18T08:11:22.376Z</time></trkpt><trkpt lat="33.4529515" lon="9.0157082"><ele>60.33333333333333</ele><time>2026-04-18T08:11:23.385Z</time></trkpt><trkpt lat="33.4531054" lon="9.0156211"><ele>60.0</ele><time>2026-04-18T08:11:24.378Z</time></trkpt><trkpt lat="33.4532609" lon="9.0155363"><ele>60.0</ele><time>2026-04-18T08:11:25.377Z</time></trkpt><trkpt lat="33.4534067" lon="9.0154593"><ele>60.0</ele><time>2026-04-18T08:11:26.379Z</time></trkpt><trkpt lat="33.4535486" lon="9.0153868"><ele>60.0</ele><time>2026-04-18T08:11:27.385Z</time></trkpt><trkpt lat="33.4536848" lon="9.0153055"><ele>59.25</ele><time>2026-04-18T08:11:28.377Z</time></trkpt><trkpt lat="33.4538192" lon="9.0152236"><ele>58.5</ele><time>2026-04-18T08:11:29.375Z</time></trkpt><trkpt lat="33.4539406" lon="9.0151443"><ele>57.75</ele><time>2026-04-18T08:11:30.394Z</time></trkpt><trkpt lat="33.4540505" lon="9.0150693"><ele>57.0</ele><time>2026-04-18T08:11:31.377Z</time></trkpt><trkpt lat="33.4541551" lon="9.0150025"><ele>56.75</ele><time>2026-04-18T08:11:32.374Z</time></trkpt><trkpt lat="33.4542614" lon="9.0149337"><ele>56.5</ele><time>2026-04-18T08:11:33.377Z</time></trkpt><trkpt lat="33.4543803" lon="9.014862"><ele>56.25</ele><time>2026-04-18T08:11:34.376Z</time></trkpt><trkpt lat="33.4544895" lon="9.0147819"><ele>56.0</ele><time>2026-04-18T08:11:35.373Z</time></trkpt><trkpt lat="33.4546063" lon="9.0147207"><ele>56.5</ele><time>2026-04-18T08:11:36.374Z</time></trkpt><trkpt lat="33.4547259" lon="9.0146647"><ele>57.0</ele><time>2026-04-18T08:11:37.38Z</time></trkpt><trkpt lat="33.4548448" lon="9.0146021"><ele>57.5</ele><time>2026-04-18T08:11:38.38Z</time></trkpt><trkpt lat="33.4549854" lon="9.0145361"><ele>58.0</ele><time>2026-04-18T08:11:39.369Z</time></trkpt><trkpt lat="33.4551238" lon="9.014478"><ele>58.0</ele><time>2026-04-18T08:11:40.381Z</time></trkpt><trkpt lat="33.4552647" lon="9.0144251"><ele>58.0</ele><time>2026-04-18T08:11:41.374Z</time></trkpt><trkpt lat="33.4554107" lon="9.0143709"><ele>58.0</ele><time>2026-04-18T08:11:42.379Z</time></trkpt><trkpt lat="33.4555501" lon="9.0143157"><ele>58.0</ele><time>2026-04-18T08:11:43.383Z</time></trkpt><trkpt lat="33.4556846" lon="9.0142558"><ele>58.0</ele><time>2026-04-18T08:11:44.367Z</time></trkpt><trkpt lat="33.4558214" lon="9.0141988"><ele>58.0</ele><time>2026-04-18T08:11:45.371Z</time></trkpt><trkpt lat="33.4559563" lon="9.0141421"><ele>58.0</ele><time>2026-04-18T08:11:46.374Z</time></trkpt><trkpt lat="33.4560852" lon="9.0140857"><ele>58.0</ele><time>2026-04-18T08:11:47.381Z</time></trkpt><trkpt lat="33.4562009" lon="9.0140284"><ele>58.2</ele><time>2026-04-18T08:11:48.377Z</time></trkpt><trkpt lat="33.4563038" lon="9.0139749"><ele>58.4</ele><time>2026-04-18T08:11:49.381Z</time></trkpt><trkpt lat="33.4563974" lon="9.0139254"><ele>58.60000000000001</ele><time>2026-04-18T08:11:50.375Z</time></trkpt><trkpt lat="33.4564827" lon="9.0138828"><ele>58.800000000000004</ele><time>2026-04-18T08:11:51.382Z</time></trkpt><trkpt lat="33.4565638" lon="9.0138462"><ele>59.0</ele><time>2026-04-18T08:11:52.372Z</time></trkpt><trkpt lat="33.4566355" lon="9.0138249"><ele>59.0</ele><time>2026-04-18T08:11:53.371Z</time></trkpt><trkpt lat="33.4567187" lon="9.0138144"><ele>59.00000000000001</ele><time>2026-04-18T08:11:55.374Z</time></trkpt><trkpt lat="33.4568224" lon="9.0137613"><ele>59.00000000000001</ele><time>2026-04-18T08:12:00.4Z</time></trkpt><trkpt lat="33.4568628" lon="9.0136799"><ele>59.0</ele><time>2026-04-18T08:12:01.366Z</time></trkpt><trkpt lat="33.4569182" lon="9.0135459"><ele>59.0</ele><time>2026-04-18T08:12:02.375Z</time></trkpt><trkpt lat="33.4569726" lon="9.0133907"><ele>58.6</ele><time>2026-04-18T08:12:03.371Z</time></trkpt><trkpt lat="33.4570029" lon="9.0132449"><ele>58.2</ele><time>2026-04-18T08:12:04.363Z</time></trkpt><trkpt lat="33.4570143" lon="9.0131173"><ele>57.800000000000004</ele><time>2026-04-18T08:12:05.374Z</time></trkpt><trkpt lat="33.4570131" lon="9.0130077"><ele>57.400000000000006</ele><time>2026-04-18T08:12:06.371Z</time></trkpt><trkpt lat="33.4570055" lon="9.0129126"><ele>57.0</ele><time>2026-04-18T08:12:07.368Z</time></trkpt><trkpt lat="33.4569957" lon="9.012828"><ele>57.0</ele><time>2026-04-18T08:12:08.369Z</time></trkpt><trkpt lat="33.4569852" lon="9.012748"><ele>57.0</ele><time>2026-04-18T08:12:09.37Z</time></trkpt><trkpt lat="33.4569702" lon="9.0126162"><ele>57.0</ele><time>2026-04-18T08:12:11.407Z</time></trkpt><trkpt lat="33.4569601" lon="9.01253"><ele>57.0</ele><time>2026-04-18T08:12:13.375Z</time></trkpt><trkpt lat="33.456947" lon="9.0124297"><ele>57.0</ele><time>2026-04-18T08:12:15.381Z</time></trkpt><trkpt lat="33.4569489" lon="9.0122759"><ele>56.666666666666664</ele><time>2026-04-18T08:12:17.374Z</time></trkpt><trkpt lat="33.4569468" lon="9.0121873"><ele>56.33333333333333</ele><time>2026-04-18T08:12:18.382Z</time></trkpt><trkpt lat="33.4569384" lon="9.0120921"><ele>56.0</ele><time>2026-04-18T08:12:19.364Z</time></trkpt><trkpt lat="33.4569309" lon="9.0119898"><ele>55.666666666666664</ele><time>2026-04-18T08:12:20.365Z</time></trkpt><trkpt lat="33.456925" lon="9.0118745"><ele>55.33333333333333</ele><time>2026-04-18T08:12:21.378Z</time></trkpt><trkpt lat="33.4569178" lon="9.0117606"><ele>55.0</ele><time>2026-04-18T08:12:22.368Z</time></trkpt><trkpt lat="33.4569121" lon="9.0116563"><ele>54.71428571428571</ele><time>2026-04-18T08:12:23.367Z</time></trkpt><trkpt lat="33.4569069" lon="9.0115573"><ele>54.42857142857143</ele><time>2026-04-18T08:12:24.381Z</time></trkpt><trkpt lat="33.4568993" lon="9.0114636"><ele>54.14285714285714</ele><time>2026-04-18T08:12:25.372Z</time></trkpt><trkpt lat="33.4568932" lon="9.0113759"><ele>53.857142857142854</ele><time>2026-04-18T08:12:26.38Z</time></trkpt><trkpt lat="33.4568887" lon="9.0112926"><ele>53.57142857142857</ele><time>2026-04-18T08:12:27.373Z</time></trkpt><trkpt lat="33.4568837" lon="9.0112131"><ele>53.285714285714285</ele><time>2026-04-18T08:12:28.37Z</time></trkpt><trkpt lat="33.4568794" lon="9.0111367"><ele>53.0</ele><time>2026-04-18T08:12:29.368Z</time></trkpt><trkpt lat="33.4568741" lon="9.0110611"><ele>53.00000000000001</ele><time>2026-04-18T08:12:30.382Z</time></trkpt><trkpt lat="33.4568688" lon="9.0109855"><ele>53.0</ele><time>2026-04-18T08:12:31.374Z</time></trkpt><trkpt lat="33.4568638" lon="9.0109097"><ele>53.0</ele><time>2026-04-18T08:12:32.394Z</time></trkpt><trkpt lat="33.4568588" lon="9.0108333"><ele>53.0</ele><time>2026-04-18T08:12:33.377Z</time></trkpt><trkpt lat="33.4568551" lon="9.0107568"><ele>53.00000000000001</ele><time>2026-04-18T08:12:34.374Z</time></trkpt><trkpt lat="33.4568451" lon="9.0106148"><ele>53.0</ele><time>2026-04-18T08:12:36.373Z</time></trkpt><trkpt lat="33.4568371" lon="9.0105015"><ele>53.00000000000001</ele><time>2026-04-18T08:12:38.372Z</time></trkpt><trkpt lat="33.4568318" lon="9.0103934"><ele>53.0</ele><time>2026-04-18T08:12:40.366Z</time></trkpt><trkpt lat="33.4568289" lon="9.0102483"><ele>53.0</ele><time>2026-04-18T08:12:42.368Z</time></trkpt><trkpt lat="33.4568304" lon="9.0101617"><ele>53.0</ele><time>2026-04-18T08:12:43.374Z</time></trkpt><trkpt lat="33.4568352" lon="9.0100726"><ele>53.00000000000001</ele><time>2026-04-18T08:12:44.372Z</time></trkpt><trkpt lat="33.4568444" lon="9.0099814"><ele>53.0</ele><time>2026-04-18T08:12:45.376Z</time></trkpt><trkpt lat="33.4568572" lon="9.0098851"><ele>52.75</ele><time>2026-04-18T08:12:46.381Z</time></trkpt><trkpt lat="33.4568764" lon="9.009777"><ele>52.5</ele><time>2026-04-18T08:12:47.381Z</time></trkpt><trkpt lat="33.4569068" lon="9.0096481"><ele>52.25</ele><time>2026-04-18T08:12:48.379Z</time></trkpt><trkpt lat="33.4569508" lon="9.0094967"><ele>52.0</ele><time>2026-04-18T08:12:49.384Z</time></trkpt><trkpt lat="33.4570116" lon="9.0093174"><ele>52.33333333333333</ele><time>2026-04-18T08:12:50.372Z</time></trkpt><trkpt lat="33.4570843" lon="9.0091251"><ele>52.66666666666667</ele><time>2026-04-18T08:12:51.378Z</time></trkpt><trkpt lat="33.4571669" lon="9.0089194"><ele>53.0</ele><time>2026-04-18T08:12:52.373Z</time></trkpt><trkpt lat="33.4572547" lon="9.0087114"><ele>53.333333333333336</ele><time>2026-04-18T08:12:53.377Z</time></trkpt><trkpt lat="33.457342" lon="9.0085124"><ele>53.66666666666667</ele><time>2026-04-18T08:12:54.369Z</time></trkpt><trkpt lat="33.457426" lon="9.0083218"><ele>54.0</ele><time>2026-04-18T08:12:55.371Z</time></trkpt><trkpt lat="33.4575099" lon="9.00813"><ele>53.33333333333333</ele><time>2026-04-18T08:12:56.382Z</time></trkpt><trkpt lat="33.457595" lon="9.007938"><ele>52.666666666666664</ele><time>2026-04-18T08:12:57.39Z</time></trkpt><trkpt lat="33.45768" lon="9.0077464"><ele>52.0</ele><time>2026-04-18T08:12:58.377Z</time></trkpt><trkpt lat="33.4577561" lon="9.0075708"><ele>52.0</ele><time>2026-04-18T08:12:59.371Z</time></trkpt><trkpt lat="33.457815" lon="9.0074369"><ele>52.0</ele><time>2026-04-18T08:13:00.371Z</time></trkpt><trkpt lat="33.457865" lon="9.0073291"><ele>52.0</ele><time>2026-04-18T08:13:01.381Z</time></trkpt><trkpt lat="33.4579094" lon="9.0072274"><ele>52.0</ele><time>2026-04-18T08:13:02.379Z</time></trkpt><trkpt lat="33.4579659" lon="9.0071111"><ele>52.0</ele><time>2026-04-18T08:13:03.376Z</time></trkpt><trkpt lat="33.4580326" lon="9.0069712"><ele>51.666666666666664</ele><time>2026-04-18T08:13:04.378Z</time></trkpt><trkpt lat="33.4580963" lon="9.0068236"><ele>51.33333333333333</ele><time>2026-04-18T08:13:05.386Z</time></trkpt><trkpt lat="33.4581659" lon="9.0066623"><ele>51.0</ele><time>2026-04-18T08:13:06.374Z</time></trkpt><trkpt lat="33.4582449" lon="9.0064827"><ele>51.0</ele><time>2026-04-18T08:13:07.38Z</time></trkpt><trkpt lat="33.4583314" lon="9.0062861"><ele>51.0</ele><time>2026-04-18T08:13:08.374Z</time></trkpt><trkpt lat="33.4584212" lon="9.0060813"><ele>51.0</ele><time>2026-04-18T08:13:09.368Z</time></trkpt><trkpt lat="33.458514" lon="9.0058719"><ele>51.0</ele><time>2026-04-18T08:13:10.371Z</time></trkpt><trkpt lat="33.4586163" lon="9.0056464"><ele>51.0</ele><time>2026-04-18T08:13:11.374Z</time></trkpt><trkpt lat="33.4587191" lon="9.0054176"><ele>51.0</ele><time>2026-04-18T08:13:12.372Z</time></trkpt><trkpt lat="33.4588179" lon="9.0051943"><ele>50.66666666666667</ele><time>2026-04-18T08:13:13.377Z</time></trkpt><trkpt lat="33.4589172" lon="9.0049702"><ele>50.333333333333336</ele><time>2026-04-18T08:13:14.375Z</time></trkpt><trkpt lat="33.4590137" lon="9.0047522"><ele>50.0</ele><time>2026-04-18T08:13:15.378Z</time></trkpt><trkpt lat="33.4591085" lon="9.0045379"><ele>50.0</ele><time>2026-04-18T08:13:16.371Z</time></trkpt><trkpt lat="33.4592013" lon="9.0043279"><ele>50.0</ele><time>2026-04-18T08:13:17.375Z</time></trkpt><trkpt lat="33.4592935" lon="9.0041183"><ele>50.0</ele><time>2026-04-18T08:13:18.372Z</time></trkpt><trkpt lat="33.4593872" lon="9.0039077"><ele>50.333333333333336</ele><time>2026-04-18T08:13:19.375Z</time></trkpt><trkpt lat="33.4594828" lon="9.0036927"><ele>50.66666666666667</ele><time>2026-04-18T08:13:20.378Z</time></trkpt><trkpt lat="33.4595782" lon="9.0034757"><ele>51.0</ele><time>2026-04-18T08:13:21.373Z</time></trkpt><trkpt lat="33.4596774" lon="9.0032521"><ele>50.33333333333333</ele><time>2026-04-18T08:13:22.375Z</time></trkpt><trkpt lat="33.4597806" lon="9.0030196"><ele>49.666666666666664</ele><time>2026-04-18T08:13:23.382Z</time></trkpt><trkpt lat="33.4598848" lon="9.0027765"><ele>49.0</ele><time>2026-04-18T08:13:24.37Z</time></trkpt><trkpt lat="33.4599884" lon="9.002523"><ele>49.0</ele><time>2026-04-18T08:13:25.371Z</time></trkpt><trkpt lat="33.460093" lon="9.0022615"><ele>49.0</ele><time>2026-04-18T08:13:26.373Z</time></trkpt><trkpt lat="33.4601992" lon="9.001991"><ele>49.0</ele><time>2026-04-18T08:13:27.38Z</time></trkpt><trkpt lat="33.4603069" lon="9.0017109"><ele>49.0</ele><time>2026-04-18T08:13:28.388Z</time></trkpt><trkpt lat="33.4604168" lon="9.0014212"><ele>49.0</ele><time>2026-04-18T08:13:29.368Z</time></trkpt><trkpt lat="33.4605286" lon="9.0011251"><ele>49.0</ele><time>2026-04-18T08:13:30.372Z</time></trkpt><trkpt lat="33.4606414" lon="9.0008251"><ele>49.0</ele><time>2026-04-18T08:13:31.376Z</time></trkpt><trkpt lat="33.4607509" lon="9.0005305"><ele>49.0</ele><time>2026-04-18T08:13:32.374Z</time></trkpt><trkpt lat="33.4608573" lon="9.0002456"><ele>49.0</ele><time>2026-04-18T08:13:33.372Z</time></trkpt><trkpt lat="33.4609626" lon="8.9999702"><ele>49.0</ele><time>2026-04-18T08:13:34.38Z</time></trkpt><trkpt lat="33.4610671" lon="8.9997011"><ele>49.0</ele><time>2026-04-18T08:13:35.379Z</time></trkpt><trkpt lat="33.4611688" lon="8.9994356"><ele>49.0</ele><time>2026-04-18T08:13:36.381Z</time></trkpt><trkpt lat="33.4612691" lon="8.9991691"><ele>49.5</ele><time>2026-04-18T08:13:37.368Z</time></trkpt><trkpt lat="33.461368" lon="8.9988954"><ele>50.0</ele><time>2026-04-18T08:13:38.382Z</time></trkpt><trkpt lat="33.4614616" lon="8.9986128"><ele>49.0</ele><time>2026-04-18T08:13:39.374Z</time></trkpt><trkpt lat="33.4615487" lon="8.9983218"><ele>48.0</ele><time>2026-04-18T08:13:40.367Z</time></trkpt><trkpt lat="33.4616314" lon="8.9980273"><ele>48.0</ele><time>2026-04-18T08:13:41.374Z</time></trkpt><trkpt lat="33.4617097" lon="8.997741"><ele>48.0</ele><time>2026-04-18T08:13:42.369Z</time></trkpt><trkpt lat="33.4617854" lon="8.997466"><ele>48.5</ele><time>2026-04-18T08:13:43.374Z</time></trkpt><trkpt lat="33.4618603" lon="8.9971975"><ele>49.0</ele><time>2026-04-18T08:13:44.383Z</time></trkpt><trkpt lat="33.4619336" lon="8.9969349"><ele>49.0</ele><time>2026-04-18T08:13:45.375Z</time></trkpt><trkpt lat="33.4620036" lon="8.9966827"><ele>49.0</ele><time>2026-04-18T08:13:46.376Z</time></trkpt><trkpt lat="33.4620683" lon="8.9964428"><ele>49.0</ele><time>2026-04-18T08:13:47.379Z</time></trkpt><trkpt lat="33.4621296" lon="8.9962062"><ele>49.0</ele><time>2026-04-18T08:13:48.376Z</time></trkpt><trkpt lat="33.4621919" lon="8.9959638"><ele>49.0</ele><time>2026-04-18T08:13:49.375Z</time></trkpt><trkpt lat="33.4622575" lon="8.9957147"><ele>49.0</ele><time>2026-04-18T08:13:50.374Z</time></trkpt><trkpt lat="33.4623285" lon="8.9954589"><ele>48.666666666666664</ele><time>2026-04-18T08:13:51.385Z</time></trkpt><trkpt lat="33.462405" lon="8.9952014"><ele>48.33333333333333</ele><time>2026-04-18T08:13:52.371Z</time></trkpt><trkpt lat="33.46248" lon="8.9949567"><ele>48.0</ele><time>2026-04-18T08:13:53.381Z</time></trkpt><trkpt lat="33.4625489" lon="8.9947287"><ele>47.333333333333336</ele><time>2026-04-18T08:13:54.378Z</time></trkpt><trkpt lat="33.4626125" lon="8.9945081"><ele>46.66666666666667</ele><time>2026-04-18T08:13:55.368Z</time></trkpt><trkpt lat="33.4626735" lon="8.994288"><ele>46.0</ele><time>2026-04-18T08:13:56.4Z</time></trkpt><trkpt lat="33.4627339" lon="8.9940667"><ele>46.0</ele><time>2026-04-18T08:13:57.375Z</time></trkpt><trkpt lat="33.4627943" lon="8.9938442"><ele>46.0</ele><time>2026-04-18T08:13:58.372Z</time></trkpt><trkpt lat="33.4628556" lon="8.9936208"><ele>46.0</ele><time>2026-04-18T08:13:59.375Z</time></trkpt><trkpt lat="33.4629177" lon="8.9933971"><ele>45.66666666666667</ele><time>2026-04-18T08:14:00.375Z</time></trkpt><trkpt lat="33.4629774" lon="8.9931772"><ele>45.333333333333336</ele><time>2026-04-18T08:14:01.376Z</time></trkpt><trkpt lat="33.4630365" lon="8.9929663"><ele>45.0</ele><time>2026-04-18T08:14:02.373Z</time></trkpt><trkpt lat="33.4630931" lon="8.9927668"><ele>45.0</ele><time>2026-04-18T08:14:03.372Z</time></trkpt><trkpt lat="33.4631474" lon="8.9925707"><ele>45.0</ele><time>2026-04-18T08:14:04.369Z</time></trkpt><trkpt lat="33.463202" lon="8.9923729"><ele>45.0</ele><time>2026-04-18T08:14:05.371Z</time></trkpt><trkpt lat="33.4632571" lon="8.9921735"><ele>45.0</ele><time>2026-04-18T08:14:06.368Z</time></trkpt><trkpt lat="33.4633161" lon="8.9919932"><ele>45.0</ele><time>2026-04-18T08:14:07.383Z</time></trkpt><trkpt lat="33.46337" lon="8.9917954"><ele>45.0</ele><time>2026-04-18T08:14:08.376Z</time></trkpt><trkpt lat="33.4634293" lon="8.9915824"><ele>45.333333333333336</ele><time>2026-04-18T08:14:09.368Z</time></trkpt><trkpt lat="33.4634905" lon="8.9913613"><ele>45.66666666666667</ele><time>2026-04-18T08:14:10.406Z</time></trkpt><trkpt lat="33.4635513" lon="8.9911416"><ele>46.0</ele><time>2026-04-18T08:14:11.375Z</time></trkpt><trkpt lat="33.4636161" lon="8.9909228"><ele>46.333333333333336</ele><time>2026-04-18T08:14:12.369Z</time></trkpt><trkpt lat="33.463685" lon="8.9907044"><ele>46.666666666666664</ele><time>2026-04-18T08:14:13.371Z</time></trkpt><trkpt lat="33.4637564" lon="8.9904874"><ele>47.0</ele><time>2026-04-18T08:14:14.37Z</time></trkpt><trkpt lat="33.4638305" lon="8.9902713"><ele>47.0</ele><time>2026-04-18T08:14:15.368Z</time></trkpt><trkpt lat="33.4639044" lon="8.9900703"><ele>47.0</ele><time>2026-04-18T08:14:16.373Z</time></trkpt><trkpt lat="33.4639775" lon="8.9898852"><ele>47.0</ele><time>2026-04-18T08:14:17.373Z</time></trkpt><trkpt lat="33.4640469" lon="8.9897137"><ele>47.0</ele><time>2026-04-18T08:14:18.371Z</time></trkpt><trkpt lat="33.4641163" lon="8.9895563"><ele>47.0</ele><time>2026-04-18T08:14:19.371Z</time></trkpt><trkpt lat="33.4641894" lon="8.9893989"><ele>47.0</ele><time>2026-04-18T08:14:20.365Z</time></trkpt><trkpt lat="33.4642703" lon="8.9892276"><ele>46.666666666666664</ele><time>2026-04-18T08:14:21.367Z</time></trkpt><trkpt lat="33.4643551" lon="8.9890437"><ele>46.333333333333336</ele><time>2026-04-18T08:14:22.372Z</time></trkpt><trkpt lat="33.4644411" lon="8.9888469"><ele>46.0</ele><time>2026-04-18T08:14:23.38Z</time></trkpt><trkpt lat="33.4645313" lon="8.9886436"><ele>45.333333333333336</ele><time>2026-04-18T08:14:24.369Z</time></trkpt><trkpt lat="33.4646254" lon="8.9884367"><ele>44.666666666666664</ele><time>2026-04-18T08:14:25.378Z</time></trkpt><trkpt lat="33.4647221" lon="8.9882258"><ele>44.0</ele><time>2026-04-18T08:14:26.371Z</time></trkpt><trkpt lat="33.4648201" lon="8.9880122"><ele>44.0</ele><time>2026-04-18T08:14:27.368Z</time></trkpt><trkpt lat="33.464923" lon="8.987799"><ele>44.0</ele><time>2026-04-18T08:14:28.37Z</time></trkpt><trkpt lat="33.4650263" lon="8.9875766"><ele>44.0</ele><time>2026-04-18T08:14:29.378Z</time></trkpt><trkpt lat="33.4651432" lon="8.9873319"><ele>44.5</ele><time>2026-04-18T08:14:30.382Z</time></trkpt><trkpt lat="33.4652615" lon="8.9870779"><ele>45.0</ele><time>2026-04-18T08:14:31.385Z</time></trkpt><trkpt lat="33.4653824" lon="8.986815"><ele>43.0</ele><time>2026-04-18T08:14:32.367Z</time></trkpt><trkpt lat="33.4655036" lon="8.9865478"><ele>41.0</ele><time>2026-04-18T08:14:33.389Z</time></trkpt><trkpt lat="33.4656198" lon="8.9862953"><ele>41.0</ele><time>2026-04-18T08:14:34.376Z</time></trkpt><trkpt lat="33.4657283" lon="8.9860535"><ele>41.0</ele><time>2026-04-18T08:14:35.376Z</time></trkpt><trkpt lat="33.4658335" lon="8.9858231"><ele>41.0</ele><time>2026-04-18T08:14:36.371Z</time></trkpt><trkpt lat="33.4659365" lon="8.9856007"><ele>41.33333333333333</ele><time>2026-04-18T08:14:37.382Z</time></trkpt><trkpt lat="33.4660374" lon="8.9853781"><ele>41.666666666666664</ele><time>2026-04-18T08:14:38.379Z</time></trkpt><trkpt lat="33.4661405" lon="8.9851495"><ele>42.0</ele><time>2026-04-18T08:14:39.371Z</time></trkpt><trkpt lat="33.4662464" lon="8.9849162"><ele>42.0</ele><time>2026-04-18T08:14:40.373Z</time></trkpt><trkpt lat="33.4663548" lon="8.9846802"><ele>42.0</ele><time>2026-04-18T08:14:41.379Z</time></trkpt><trkpt lat="33.4664649" lon="8.9844396"><ele>42.0</ele><time>2026-04-18T08:14:42.378Z</time></trkpt><trkpt lat="33.4665747" lon="8.9841958"><ele>42.0</ele><time>2026-04-18T08:14:43.392Z</time></trkpt><trkpt lat="33.4666852" lon="8.9839518"><ele>41.5</ele><time>2026-04-18T08:14:44.381Z</time></trkpt><trkpt lat="33.4667953" lon="8.9837098"><ele>41.0</ele><time>2026-04-18T08:14:45.375Z</time></trkpt><trkpt lat="33.4669055" lon="8.9834679"><ele>42.0</ele><time>2026-04-18T08:14:46.376Z</time></trkpt><trkpt lat="33.4670143" lon="8.9832274"><ele>43.0</ele><time>2026-04-18T08:14:47.373Z</time></trkpt><trkpt lat="33.4671228" lon="8.982989"><ele>43.0</ele><time>2026-04-18T08:14:48.371Z</time></trkpt><trkpt lat="33.4672299" lon="8.9827552"><ele>43.0</ele><time>2026-04-18T08:14:49.374Z</time></trkpt><trkpt lat="33.4673318" lon="8.9825278"><ele>43.0</ele><time>2026-04-18T08:14:50.371Z</time></trkpt><trkpt lat="33.4674333" lon="8.9823033"><ele>42.333333333333336</ele><time>2026-04-18T08:14:51.372Z</time></trkpt><trkpt lat="33.4675351" lon="8.9820806"><ele>41.666666666666664</ele><time>2026-04-18T08:14:52.372Z</time></trkpt><trkpt lat="33.4676357" lon="8.9818589"><ele>41.0</ele><time>2026-04-18T08:14:53.366Z</time></trkpt><trkpt lat="33.4677367" lon="8.9816369"><ele>41.0</ele><time>2026-04-18T08:14:54.375Z</time></trkpt><trkpt lat="33.4678379" lon="8.9814158"><ele>41.0</ele><time>2026-04-18T08:14:55.383Z</time></trkpt><trkpt lat="33.4679401" lon="8.981195"><ele>41.0</ele><time>2026-04-18T08:14:56.368Z</time></trkpt><trkpt lat="33.468043" lon="8.9809737"><ele>41.666666666666664</ele><time>2026-04-18T08:14:57.371Z</time></trkpt><trkpt lat="33.4681451" lon="8.9807516"><ele>42.333333333333336</ele><time>2026-04-18T08:14:58.371Z</time></trkpt><trkpt lat="33.4682466" lon="8.9805286"><ele>43.0</ele><time>2026-04-18T08:14:59.377Z</time></trkpt><trkpt lat="33.4683479" lon="8.9803062"><ele>43.0</ele><time>2026-04-18T08:15:00.373Z</time></trkpt><trkpt lat="33.4684496" lon="8.9800841"><ele>43.0</ele><time>2026-04-18T08:15:01.366Z</time></trkpt><trkpt lat="33.4685516" lon="8.9798628"><ele>43.0</ele><time>2026-04-18T08:15:02.367Z</time></trkpt><trkpt lat="33.4686531" lon="8.9796417"><ele>42.66666666666667</ele><time>2026-04-18T08:15:03.377Z</time></trkpt><trkpt lat="33.4687538" lon="8.9794198"><ele>42.333333333333336</ele><time>2026-04-18T08:15:04.379Z</time></trkpt><trkpt lat="33.4688549" lon="8.9791978"><ele>42.0</ele><time>2026-04-18T08:15:05.367Z</time></trkpt><trkpt lat="33.4689557" lon="8.9789757"><ele>42.0</ele><time>2026-04-18T08:15:06.37Z</time></trkpt><trkpt lat="33.4690566" lon="8.9787523"><ele>42.0</ele><time>2026-04-18T08:15:07.369Z</time></trkpt><trkpt lat="33.469158" lon="8.9785286"><ele>42.0</ele><time>2026-04-18T08:15:08.386Z</time></trkpt><trkpt lat="33.4692603" lon="8.9783048"><ele>42.0</ele><time>2026-04-18T08:15:09.381Z</time></trkpt><trkpt lat="33.4693627" lon="8.9780807"><ele>42.0</ele><time>2026-04-18T08:15:10.386Z</time></trkpt><trkpt lat="33.4694646" lon="8.9778562"><ele>42.0</ele><time>2026-04-18T08:15:11.376Z</time></trkpt><trkpt lat="33.4695668" lon="8.9776317"><ele>42.333333333333336</ele><time>2026-04-18T08:15:12.378Z</time></trkpt><trkpt lat="33.4696695" lon="8.9774095"><ele>42.66666666666667</ele><time>2026-04-18T08:15:13.372Z</time></trkpt><trkpt lat="33.4697747" lon="8.9771897"><ele>43.0</ele><time>2026-04-18T08:15:14.378Z</time></trkpt><trkpt lat="33.4698824" lon="8.9769726"><ele>43.0</ele><time>2026-04-18T08:15:15.376Z</time></trkpt><trkpt lat="33.4699919" lon="8.9767581"><ele>43.0</ele><time>2026-04-18T08:15:16.372Z</time></trkpt><trkpt lat="33.4701024" lon="8.976547"><ele>43.0</ele><time>2026-04-18T08:15:17.382Z</time></trkpt><trkpt lat="33.4702116" lon="8.9763413"><ele>43.0</ele><time>2026-04-18T08:15:18.381Z</time></trkpt><trkpt lat="33.4703203" lon="8.9761393"><ele>43.0</ele><time>2026-04-18T08:15:19.367Z</time></trkpt><trkpt lat="33.4704281" lon="8.9759399"><ele>43.0</ele><time>2026-04-18T08:15:20.372Z</time></trkpt><trkpt lat="33.470535" lon="8.9757442"><ele>43.0</ele><time>2026-04-18T08:15:21.377Z</time></trkpt><trkpt lat="33.470642" lon="8.9755454"><ele>43.0</ele><time>2026-04-18T08:15:22.373Z</time></trkpt><trkpt lat="33.4707457" lon="8.9753383"><ele>43.0</ele><time>2026-04-18T08:15:23.365Z</time></trkpt><trkpt lat="33.4708446" lon="8.9751235"><ele>43.66666666666667</ele><time>2026-04-18T08:15:24.372Z</time></trkpt><trkpt lat="33.4709381" lon="8.9749015"><ele>44.333333333333336</ele><time>2026-04-18T08:15:25.376Z</time></trkpt><trkpt lat="33.4710294" lon="8.9746744"><ele>45.0</ele><time>2026-04-18T08:15:26.372Z</time></trkpt><trkpt lat="33.4711223" lon="8.9744455"><ele>45.0</ele><time>2026-04-18T08:15:27.373Z</time></trkpt><trkpt lat="33.4712163" lon="8.9742145"><ele>45.0</ele><time>2026-04-18T08:15:28.37Z</time></trkpt><trkpt lat="33.4713069" lon="8.9739878"><ele>45.0</ele><time>2026-04-18T08:15:29.377Z</time></trkpt><trkpt lat="33.4713952" lon="8.9737664"><ele>45.0</ele><time>2026-04-18T08:15:30.369Z</time></trkpt><trkpt lat="33.471481" lon="8.9735501"><ele>45.0</ele><time>2026-04-18T08:15:31.369Z</time></trkpt><trkpt lat="33.471565" lon="8.9733389"><ele>45.0</ele><time>2026-04-18T08:15:32.363Z</time></trkpt><trkpt lat="33.4716476" lon="8.9731314"><ele>44.666666666666664</ele><time>2026-04-18T08:15:33.366Z</time></trkpt><trkpt lat="33.4717293" lon="8.9729257"><ele>44.33333333333333</ele><time>2026-04-18T08:15:34.371Z</time></trkpt><trkpt lat="33.4718122" lon="8.9727142"><ele>44.0</ele><time>2026-04-18T08:15:35.367Z</time></trkpt><trkpt lat="33.4718977" lon="8.9724943"><ele>43.666666666666664</ele><time>2026-04-18T08:15:36.363Z</time></trkpt><trkpt lat="33.4719861" lon="8.9722657"><ele>43.333333333333336</ele><time>2026-04-18T08:15:37.371Z</time></trkpt><trkpt lat="33.4720782" lon="8.972029"><ele>43.0</ele><time>2026-04-18T08:15:38.369Z</time></trkpt><trkpt lat="33.4721721" lon="8.9717859"><ele>44.0</ele><time>2026-04-18T08:15:39.379Z</time></trkpt><trkpt lat="33.4722669" lon="8.9715415"><ele>45.0</ele><time>2026-04-18T08:15:40.369Z</time></trkpt><trkpt lat="33.4723618" lon="8.9712955"><ele>45.0</ele><time>2026-04-18T08:15:41.367Z</time></trkpt><trkpt lat="33.4724557" lon="8.9710433"><ele>45.0</ele><time>2026-04-18T08:15:42.372Z</time></trkpt><trkpt lat="33.4725449" lon="8.9707819"><ele>44.5</ele><time>2026-04-18T08:15:43.379Z</time></trkpt><trkpt lat="33.472625" lon="8.9705138"><ele>44.0</ele><time>2026-04-18T08:15:44.377Z</time></trkpt><trkpt lat="33.4726942" lon="8.9702408"><ele>45.0</ele><time>2026-04-18T08:15:45.37Z</time></trkpt><trkpt lat="33.4727559" lon="8.9699667"><ele>46.0</ele><time>2026-04-18T08:15:46.363Z</time></trkpt><trkpt lat="33.4728142" lon="8.9696907"><ele>46.0</ele><time>2026-04-18T08:15:47.371Z</time></trkpt><trkpt lat="33.4728713" lon="8.9694169"><ele>46.0</ele><time>2026-04-18T08:15:48.371Z</time></trkpt><trkpt lat="33.4729276" lon="8.9691474"><ele>45.0</ele><time>2026-04-18T08:15:49.367Z</time></trkpt><trkpt lat="33.4729817" lon="8.9688815"><ele>44.0</ele><time>2026-04-18T08:15:50.37Z</time></trkpt><trkpt lat="33.4730329" lon="8.9686173"><ele>43.666666666666664</ele><time>2026-04-18T08:15:51.388Z</time></trkpt><trkpt lat="33.473083" lon="8.9683573"><ele>43.333333333333336</ele><time>2026-04-18T08:15:52.367Z</time></trkpt><trkpt lat="33.4731329" lon="8.9681019"><ele>43.0</ele><time>2026-04-18T08:15:53.365Z</time></trkpt><trkpt lat="33.4731835" lon="8.967851"><ele>43.0</ele><time>2026-04-18T08:15:54.373Z</time></trkpt><trkpt lat="33.4732343" lon="8.9676033"><ele>43.0</ele><time>2026-04-18T08:15:55.374Z</time></trkpt><trkpt lat="33.4732845" lon="8.9673587"><ele>43.0</ele><time>2026-04-18T08:15:56.368Z</time></trkpt><trkpt lat="33.4733349" lon="8.9671175"><ele>43.0</ele><time>2026-04-18T08:15:57.367Z</time></trkpt><trkpt lat="33.47339" lon="8.9668962"><ele>43.0</ele><time>2026-04-18T08:15:58.379Z</time></trkpt><trkpt lat="33.4734379" lon="8.9666576"><ele>43.0</ele><time>2026-04-18T08:15:59.374Z</time></trkpt><trkpt lat="33.4734916" lon="8.9664078"><ele>43.0</ele><time>2026-04-18T08:16:00.366Z</time></trkpt><trkpt lat="33.4735446" lon="8.9661557"><ele>43.0</ele><time>2026-04-18T08:16:01.385Z</time></trkpt><trkpt lat="33.4735977" lon="8.9658989"><ele>43.0</ele><time>2026-04-18T08:16:02.374Z</time></trkpt><trkpt lat="33.4736532" lon="8.9656382"><ele>43.0</ele><time>2026-04-18T08:16:03.387Z</time></trkpt><trkpt lat="33.473709" lon="8.9653739"><ele>43.0</ele><time>2026-04-18T08:16:04.368Z</time></trkpt><trkpt lat="33.4737636" lon="8.965105"><ele>42.5</ele><time>2026-04-18T08:16:05.371Z</time></trkpt><trkpt lat="33.4738169" lon="8.9648357"><ele>42.0</ele><time>2026-04-18T08:16:06.379Z</time></trkpt><trkpt lat="33.4738711" lon="8.9645654"><ele>42.0</ele><time>2026-04-18T08:16:07.377Z</time></trkpt><trkpt lat="33.4739271" lon="8.9642935"><ele>42.0</ele><time>2026-04-18T08:16:08.381Z</time></trkpt><trkpt lat="33.4739845" lon="8.9640194"><ele>42.5</ele><time>2026-04-18T08:16:09.387Z</time></trkpt><trkpt lat="33.4740432" lon="8.9637437"><ele>43.0</ele><time>2026-04-18T08:16:10.371Z</time></trkpt><trkpt lat="33.4741058" lon="8.9634673"><ele>43.0</ele><time>2026-04-18T08:16:11.375Z</time></trkpt><trkpt lat="33.4741726" lon="8.9631915"><ele>43.0</ele><time>2026-04-18T08:16:12.373Z</time></trkpt><trkpt lat="33.474241" lon="8.9629217"><ele>43.0</ele><time>2026-04-18T08:16:13.373Z</time></trkpt><trkpt lat="33.4743094" lon="8.9626603"><ele>43.0</ele><time>2026-04-18T08:16:14.379Z</time></trkpt><trkpt lat="33.4743781" lon="8.9624071"><ele>43.0</ele><time>2026-04-18T08:16:15.374Z</time></trkpt><trkpt lat="33.4744454" lon="8.9621565"><ele>43.0</ele><time>2026-04-18T08:16:16.371Z</time></trkpt><trkpt lat="33.4745149" lon="8.9619078"><ele>43.0</ele><time>2026-04-18T08:16:17.381Z</time></trkpt><trkpt lat="33.474589" lon="8.9616594"><ele>42.0</ele><time>2026-04-18T08:16:18.377Z</time></trkpt><trkpt lat="33.4746668" lon="8.9614122"><ele>41.0</ele><time>2026-04-18T08:16:19.374Z</time></trkpt><trkpt lat="33.4747466" lon="8.9611615"><ele>40.0</ele><time>2026-04-18T08:16:20.376Z</time></trkpt><trkpt lat="33.474826" lon="8.9609077"><ele>40.5</ele><time>2026-04-18T08:16:21.383Z</time></trkpt><trkpt lat="33.4749056" lon="8.9606517"><ele>41.0</ele><time>2026-04-18T08:16:22.383Z</time></trkpt><trkpt lat="33.4749866" lon="8.960395"><ele>41.0</ele><time>2026-04-18T08:16:23.379Z</time></trkpt><trkpt lat="33.475069" lon="8.9601366"><ele>41.0</ele><time>2026-04-18T08:16:24.378Z</time></trkpt><trkpt lat="33.4751519" lon="8.9598769"><ele>41.0</ele><time>2026-04-18T08:16:25.375Z</time></trkpt><trkpt lat="33.4752335" lon="8.9596194"><ele>41.0</ele><time>2026-04-18T08:16:26.377Z</time></trkpt><trkpt lat="33.4753141" lon="8.9593635"><ele>41.0</ele><time>2026-04-18T08:16:27.374Z</time></trkpt><trkpt lat="33.4753926" lon="8.9591063"><ele>41.0</ele><time>2026-04-18T08:16:28.382Z</time></trkpt><trkpt lat="33.4754683" lon="8.9588445"><ele>40.0</ele><time>2026-04-18T08:16:29.367Z</time></trkpt><trkpt lat="33.4755395" lon="8.9585781"><ele>39.0</ele><time>2026-04-18T08:16:30.376Z</time></trkpt><trkpt lat="33.4756061" lon="8.9583068"><ele>39.0</ele><time>2026-04-18T08:16:31.367Z</time></trkpt><trkpt lat="33.4756686" lon="8.9580344"><ele>39.0</ele><time>2026-04-18T08:16:32.376Z</time></trkpt><trkpt lat="33.4757233" lon="8.957777"><ele>39.0</ele><time>2026-04-18T08:16:33.371Z</time></trkpt><trkpt lat="33.4757719" lon="8.9575323"><ele>39.0</ele><time>2026-04-18T08:16:34.383Z</time></trkpt><trkpt lat="33.4758178" lon="8.9572942"><ele>39.0</ele><time>2026-04-18T08:16:35.374Z</time></trkpt><trkpt lat="33.4758616" lon="8.9570578"><ele>39.0</ele><time>2026-04-18T08:16:36.365Z</time></trkpt><trkpt lat="33.4759047" lon="8.9568202"><ele>39.0</ele><time>2026-04-18T08:16:37.371Z</time></trkpt><trkpt lat="33.4759491" lon="8.9565772"><ele>39.0</ele><time>2026-04-18T08:16:38.37Z</time></trkpt><trkpt lat="33.4759958" lon="8.9563286"><ele>38.666666666666664</ele><time>2026-04-18T08:16:39.366Z</time></trkpt><trkpt lat="33.476043" lon="8.9560753"><ele>38.33333333333333</ele><time>2026-04-18T08:16:40.369Z</time></trkpt><trkpt lat="33.4760894" lon="8.9558175"><ele>38.0</ele><time>2026-04-18T08:16:41.368Z</time></trkpt><trkpt lat="33.4761357" lon="8.9555591"><ele>38.666666666666664</ele><time>2026-04-18T08:16:42.363Z</time></trkpt><trkpt lat="33.4761829" lon="8.9553007"><ele>39.333333333333336</ele><time>2026-04-18T08:16:43.366Z</time></trkpt><trkpt lat="33.47623" lon="8.9550429"><ele>40.0</ele><time>2026-04-18T08:16:44.369Z</time></trkpt><trkpt lat="33.4762752" lon="8.9547914"><ele>40.0</ele><time>2026-04-18T08:16:45.367Z</time></trkpt><trkpt lat="33.4763161" lon="8.9545617"><ele>40.0</ele><time>2026-04-18T08:16:46.365Z</time></trkpt><trkpt lat="33.4763525" lon="8.9543635"><ele>40.0</ele><time>2026-04-18T08:16:47.372Z</time></trkpt><trkpt lat="33.476385" lon="8.954188"><ele>40.25</ele><time>2026-04-18T08:16:48.377Z</time></trkpt><trkpt lat="33.4764161" lon="8.9540247"><ele>40.5</ele><time>2026-04-18T08:16:49.374Z</time></trkpt><trkpt lat="33.4764477" lon="8.9538597"><ele>40.75</ele><time>2026-04-18T08:16:50.367Z</time></trkpt><trkpt lat="33.4764805" lon="8.9536859"><ele>41.0</ele><time>2026-04-18T08:16:51.367Z</time></trkpt><trkpt lat="33.4765124" lon="8.9535112"><ele>41.0</ele><time>2026-04-18T08:16:52.374Z</time></trkpt><trkpt lat="33.4765421" lon="8.9533506"><ele>41.0</ele><time>2026-04-18T08:16:53.376Z</time></trkpt><trkpt lat="33.4765693" lon="8.9532146"><ele>41.0</ele><time>2026-04-18T08:16:54.376Z</time></trkpt><trkpt lat="33.4765974" lon="8.9530931"><ele>41.0</ele><time>2026-04-18T08:16:55.37Z</time></trkpt><trkpt lat="33.4766262" lon="8.9529871"><ele>41.0</ele><time>2026-04-18T08:16:56.383Z</time></trkpt><trkpt lat="33.4766519" lon="8.9528891"><ele>41.0</ele><time>2026-04-18T08:16:57.383Z</time></trkpt><trkpt lat="33.4766702" lon="8.9527978"><ele>41.0</ele><time>2026-04-18T08:16:58.375Z</time></trkpt><trkpt lat="33.47667" lon="8.9527148"><ele>41.0</ele><time>2026-04-18T08:16:59.376Z</time></trkpt><trkpt lat="33.4766181" lon="8.9526049"><ele>41.0</ele><time>2026-04-18T08:17:01.387Z</time></trkpt><trkpt lat="33.476541" lon="8.9525611"><ele>41.0</ele><time>2026-04-18T08:17:03.373Z</time></trkpt><trkpt lat="33.4764747" lon="8.952516"><ele>40.599999999999994</ele><time>2026-04-18T08:17:05.389Z</time></trkpt><trkpt lat="33.4763583" lon="8.9524351"><ele>40.199999999999996</ele><time>2026-04-18T08:17:11.375Z</time></trkpt><trkpt lat="33.4762622" lon="8.9523841"><ele>39.8</ele><time>2026-04-18T08:17:13.381Z</time></trkpt><trkpt lat="33.4761872" lon="8.9523432"><ele>39.4</ele><time>2026-04-18T08:17:14.372Z</time></trkpt><trkpt lat="33.4760954" lon="8.9522875"><ele>39.0</ele><time>2026-04-18T08:17:15.376Z</time></trkpt><trkpt lat="33.4759924" lon="8.9522203"><ele>38.75</ele><time>2026-04-18T08:17:16.382Z</time></trkpt><trkpt lat="33.4758956" lon="8.9521491"><ele>38.5</ele><time>2026-04-18T08:17:17.371Z</time></trkpt><trkpt lat="33.4757971" lon="8.9520718"><ele>38.25</ele><time>2026-04-18T08:17:18.381Z</time></trkpt><trkpt lat="33.4756884" lon="8.9519872"><ele>38.0</ele><time>2026-04-18T08:17:19.381Z</time></trkpt><trkpt lat="33.4755756" lon="8.9518979"><ele>38.0</ele><time>2026-04-18T08:17:20.373Z</time></trkpt><trkpt lat="33.4754561" lon="8.9518021"><ele>38.0</ele><time>2026-04-18T08:17:21.369Z</time></trkpt><trkpt lat="33.4753288" lon="8.9516997"><ele>38.0</ele><time>2026-04-18T08:17:22.389Z</time></trkpt><trkpt lat="33.4751976" lon="8.9515941"><ele>38.0</ele><time>2026-04-18T08:17:23.382Z</time></trkpt><trkpt lat="33.4750748" lon="8.9514953"><ele>38.0</ele><time>2026-04-18T08:17:24.374Z</time></trkpt><trkpt lat="33.4749509" lon="8.9513953"><ele>38.0</ele><time>2026-04-18T08:17:25.375Z</time></trkpt><trkpt lat="33.4748237" lon="8.9512924"><ele>38.0</ele><time>2026-04-18T08:17:26.376Z</time></trkpt><trkpt lat="33.4746959" lon="8.9511884"><ele>38.0</ele><time>2026-04-18T08:17:27.376Z</time></trkpt><trkpt lat="33.4745692" lon="8.9510834"><ele>38.0</ele><time>2026-04-18T08:17:28.384Z</time></trkpt><trkpt lat="33.4744364" lon="8.9509762"><ele>38.0</ele><time>2026-04-18T08:17:29.372Z</time></trkpt><trkpt lat="33.4742999" lon="8.9508643"><ele>38.0</ele><time>2026-04-18T08:17:30.376Z</time></trkpt><trkpt lat="33.4741559" lon="8.9507444"><ele>38.0</ele><time>2026-04-18T08:17:31.375Z</time></trkpt><trkpt lat="33.474014" lon="8.9506297"><ele>38.0</ele><time>2026-04-18T08:17:32.374Z</time></trkpt><trkpt lat="33.4738903" lon="8.9505352"><ele>38.0</ele><time>2026-04-18T08:17:33.373Z</time></trkpt><trkpt lat="33.4737994" lon="8.9504629"><ele>38.0</ele><time>2026-04-18T08:17:34.374Z</time></trkpt><trkpt lat="33.4737259" lon="8.9503999"><ele>38.0</ele><time>2026-04-18T08:17:35.372Z</time></trkpt><trkpt lat="33.4736577" lon="8.9503401"><ele>38.0</ele><time>2026-04-18T08:17:36.376Z</time></trkpt><trkpt lat="33.4735924" lon="8.9502844"><ele>37.8</ele><time>2026-04-18T08:17:37.381Z</time></trkpt><trkpt lat="33.4735369" lon="8.9502375"><ele>37.599999999999994</ele><time>2026-04-18T08:17:38.38Z</time></trkpt><trkpt lat="33.4734525" lon="8.9501583"><ele>37.400000000000006</ele><time>2026-04-18T08:17:40.397Z</time></trkpt><trkpt lat="33.4733922" lon="8.9500931"><ele>37.2</ele><time>2026-04-18T08:17:42.385Z</time></trkpt><trkpt lat="33.473288" lon="8.9499952"><ele>37.0</ele><time>2026-04-18T08:18:12.385Z</time></trkpt><trkpt lat="33.4732248" lon="8.9499509"><ele>37.5</ele><time>2026-04-18T08:18:13.394Z</time></trkpt><trkpt lat="33.4731366" lon="8.9498891"><ele>38.0</ele><time>2026-04-18T08:18:14.378Z</time></trkpt><trkpt lat="33.4730312" lon="8.9498118"><ele>38.5</ele><time>2026-04-18T08:18:15.377Z</time></trkpt><trkpt lat="33.4729294" lon="8.9497336"><ele>39.0</ele><time>2026-04-18T08:18:16.382Z</time></trkpt><trkpt lat="33.4728248" lon="8.949648"><ele>39.333333333333336</ele><time>2026-04-18T08:18:17.369Z</time></trkpt><trkpt lat="33.472709" lon="8.9495512"><ele>39.66666666666667</ele><time>2026-04-18T08:18:18.38Z</time></trkpt><trkpt lat="33.4725809" lon="8.9494466"><ele>40.0</ele><time>2026-04-18T08:18:19.385Z</time></trkpt><trkpt lat="33.4724373" lon="8.9493298"><ele>40.0</ele><time>2026-04-18T08:18:20.382Z</time></trkpt><trkpt lat="33.472291" lon="8.9492116"><ele>40.0</ele><time>2026-04-18T08:18:21.371Z</time></trkpt><trkpt lat="33.4721394" lon="8.9490906"><ele>40.0</ele><time>2026-04-18T08:18:22.373Z</time></trkpt><trkpt lat="33.471985" lon="8.9489665"><ele>40.0</ele><time>2026-04-18T08:18:23.386Z</time></trkpt><trkpt lat="33.4718271" lon="8.9488369"><ele>40.0</ele><time>2026-04-18T08:18:24.39Z</time></trkpt><trkpt lat="33.4716646" lon="8.9487017"><ele>40.0</ele><time>2026-04-18T08:18:25.372Z</time></trkpt><trkpt lat="33.471499" lon="8.9485657"><ele>40.0</ele><time>2026-04-18T08:18:26.388Z</time></trkpt><trkpt lat="33.4713348" lon="8.9484341"><ele>40.0</ele><time>2026-04-18T08:18:27.386Z</time></trkpt><trkpt lat="33.471179" lon="8.9483086"><ele>40.0</ele><time>2026-04-18T08:18:28.385Z</time></trkpt><trkpt lat="33.4710297" lon="8.9481868"><ele>40.0</ele><time>2026-04-18T08:18:29.399Z</time></trkpt><trkpt lat="33.4708889" lon="8.9480734"><ele>40.0</ele><time>2026-04-18T08:18:30.379Z</time></trkpt><trkpt lat="33.4707503" lon="8.9479619"><ele>40.0</ele><time>2026-04-18T08:18:31.379Z</time></trkpt><trkpt lat="33.4706092" lon="8.9478454"><ele>40.0</ele><time>2026-04-18T08:18:32.382Z</time></trkpt><trkpt lat="33.470461" lon="8.9477216"><ele>40.0</ele><time>2026-04-18T08:18:33.392Z</time></trkpt><trkpt lat="33.4703041" lon="8.9475908"><ele>40.0</ele><time>2026-04-18T08:18:34.378Z</time></trkpt><trkpt lat="33.4701419" lon="8.9474557"><ele>39.333333333333336</ele><time>2026-04-18T08:18:35.37Z</time></trkpt><trkpt lat="33.4699784" lon="8.9473222"><ele>38.666666666666664</ele><time>2026-04-18T08:18:36.383Z</time></trkpt><trkpt lat="33.4698185" lon="8.9471936"><ele>38.0</ele><time>2026-04-18T08:18:37.377Z</time></trkpt><trkpt lat="33.469666" lon="8.9470711"><ele>37.666666666666664</ele><time>2026-04-18T08:18:38.382Z</time></trkpt><trkpt lat="33.469518" lon="8.9469512"><ele>37.333333333333336</ele><time>2026-04-18T08:18:39.378Z</time></trkpt><trkpt lat="33.4693679" lon="8.9468264"><ele>37.0</ele><time>2026-04-18T08:18:40.376Z</time></trkpt><trkpt lat="33.4692151" lon="8.9466971"><ele>37.0</ele><time>2026-04-18T08:18:41.392Z</time></trkpt><trkpt lat="33.4690632" lon="8.9465678"><ele>37.0</ele><time>2026-04-18T08:18:42.389Z</time></trkpt><trkpt lat="33.4689144" lon="8.9464387"><ele>37.0</ele><time>2026-04-18T08:18:43.372Z</time></trkpt><trkpt lat="33.4687703" lon="8.9463063"><ele>37.66666666666667</ele><time>2026-04-18T08:18:44.385Z</time></trkpt><trkpt lat="33.4686291" lon="8.9461613"><ele>38.333333333333336</ele><time>2026-04-18T08:18:45.382Z</time></trkpt><trkpt lat="33.4684929" lon="8.9460019"><ele>39.0</ele><time>2026-04-18T08:18:46.379Z</time></trkpt><trkpt lat="33.4683644" lon="8.9458296"><ele>39.333333333333336</ele><time>2026-04-18T08:18:47.378Z</time></trkpt><trkpt lat="33.4682421" lon="8.9456466"><ele>39.66666666666667</ele><time>2026-04-18T08:18:48.374Z</time></trkpt><trkpt lat="33.4681254" lon="8.9454608"><ele>40.0</ele><time>2026-04-18T08:18:49.375Z</time></trkpt><trkpt lat="33.4680129" lon="8.9452783"><ele>40.66666666666667</ele><time>2026-04-18T08:18:50.377Z</time></trkpt><trkpt lat="33.4679002" lon="8.9450981"><ele>41.333333333333336</ele><time>2026-04-18T08:18:51.375Z</time></trkpt><trkpt lat="33.4677888" lon="8.9449189"><ele>42.0</ele><time>2026-04-18T08:18:52.376Z</time></trkpt><trkpt lat="33.4676793" lon="8.9447404"><ele>42.0</ele><time>2026-04-18T08:18:53.382Z</time></trkpt><trkpt lat="33.4675699" lon="8.9445637"><ele>42.0</ele><time>2026-04-18T08:18:54.376Z</time></trkpt><trkpt lat="33.4674593" lon="8.9443874"><ele>42.0</ele><time>2026-04-18T08:18:55.381Z</time></trkpt><trkpt lat="33.4673482" lon="8.9442096"><ele>42.0</ele><time>2026-04-18T08:18:56.379Z</time></trkpt><trkpt lat="33.4672365" lon="8.9440294"><ele>42.0</ele><time>2026-04-18T08:18:57.38Z</time></trkpt><trkpt lat="33.4671238" lon="8.9438474"><ele>42.0</ele><time>2026-04-18T08:18:58.38Z</time></trkpt><trkpt lat="33.467011" lon="8.9436662"><ele>42.0</ele><time>2026-04-18T08:18:59.379Z</time></trkpt><trkpt lat="33.4668993" lon="8.9434866"><ele>42.0</ele><time>2026-04-18T08:19:00.377Z</time></trkpt><trkpt lat="33.4667875" lon="8.9433087"><ele>42.0</ele><time>2026-04-18T08:19:01.373Z</time></trkpt><trkpt lat="33.4666737" lon="8.9431336"><ele>41.0</ele><time>2026-04-18T08:19:02.374Z</time></trkpt><trkpt lat="33.4665556" lon="8.9429614"><ele>40.0</ele><time>2026-04-18T08:19:03.378Z</time></trkpt><trkpt lat="33.4664338" lon="8.9427912"><ele>39.0</ele><time>2026-04-18T08:19:04.382Z</time></trkpt><trkpt lat="33.466309" lon="8.9426221"><ele>38.666666666666664</ele><time>2026-04-18T08:19:05.383Z</time></trkpt><trkpt lat="33.4661807" lon="8.9424548"><ele>38.33333333333333</ele><time>2026-04-18T08:19:06.369Z</time></trkpt><trkpt lat="33.4660497" lon="8.9422903"><ele>38.0</ele><time>2026-04-18T08:19:07.379Z</time></trkpt><trkpt lat="33.4659181" lon="8.9421302"><ele>38.0</ele><time>2026-04-18T08:19:08.37Z</time></trkpt><trkpt lat="33.4657859" lon="8.9419732"><ele>38.0</ele><time>2026-04-18T08:19:09.374Z</time></trkpt><trkpt lat="33.4656525" lon="8.9418168"><ele>38.0</ele><time>2026-04-18T08:19:10.367Z</time></trkpt><trkpt lat="33.4655194" lon="8.9416596"><ele>37.666666666666664</ele><time>2026-04-18T08:19:11.379Z</time></trkpt><trkpt lat="33.4653858" lon="8.9415012"><ele>37.333333333333336</ele><time>2026-04-18T08:19:12.375Z</time></trkpt><trkpt lat="33.4652523" lon="8.9413427"><ele>37.0</ele><time>2026-04-18T08:19:13.378Z</time></trkpt><trkpt lat="33.4651204" lon="8.9411865"><ele>37.0</ele><time>2026-04-18T08:19:14.394Z</time></trkpt><trkpt lat="33.4649906" lon="8.9410344"><ele>37.0</ele><time>2026-04-18T08:19:15.389Z</time></trkpt><trkpt lat="33.4648636" lon="8.9408838"><ele>37.0</ele><time>2026-04-18T08:19:16.38Z</time></trkpt><trkpt lat="33.4647383" lon="8.9407332"><ele>37.333333333333336</ele><time>2026-04-18T08:19:17.373Z</time></trkpt><trkpt lat="33.464613" lon="8.9405833"><ele>37.666666666666664</ele><time>2026-04-18T08:19:18.384Z</time></trkpt><trkpt lat="33.4644869" lon="8.9404332"><ele>38.0</ele><time>2026-04-18T08:19:19.381Z</time></trkpt><trkpt lat="33.4643612" lon="8.9402836"><ele>37.666666666666664</ele><time>2026-04-18T08:19:20.367Z</time></trkpt><trkpt lat="33.4642367" lon="8.9401353"><ele>37.333333333333336</ele><time>2026-04-18T08:19:21.375Z</time></trkpt><trkpt lat="33.4641132" lon="8.939987"><ele>37.0</ele><time>2026-04-18T08:19:22.382Z</time></trkpt><trkpt lat="33.463989" lon="8.9398389"><ele>37.0</ele><time>2026-04-18T08:19:23.376Z</time></trkpt><trkpt lat="33.4638647" lon="8.9396912"><ele>37.0</ele><time>2026-04-18T08:19:24.373Z</time></trkpt><trkpt lat="33.4637422" lon="8.9395415"><ele>37.0</ele><time>2026-04-18T08:19:25.385Z</time></trkpt><trkpt lat="33.4636222" lon="8.9393871"><ele>37.0</ele><time>2026-04-18T08:19:26.377Z</time></trkpt><trkpt lat="33.4635073" lon="8.9392258"><ele>37.0</ele><time>2026-04-18T08:19:27.373Z</time></trkpt><trkpt lat="33.4633968" lon="8.9390587"><ele>37.0</ele><time>2026-04-18T08:19:28.379Z</time></trkpt><trkpt lat="33.4632889" lon="8.9388873"><ele>37.0</ele><time>2026-04-18T08:19:29.38Z</time></trkpt><trkpt lat="33.4631857" lon="8.9387119"><ele>37.0</ele><time>2026-04-18T08:19:30.37Z</time></trkpt><trkpt lat="33.4630899" lon="8.9385316"><ele>37.0</ele><time>2026-04-18T08:19:31.377Z</time></trkpt><trkpt lat="33.4630032" lon="8.9383472"><ele>37.66666666666667</ele><time>2026-04-18T08:19:32.376Z</time></trkpt><trkpt lat="33.4629238" lon="8.9381605"><ele>38.333333333333336</ele><time>2026-04-18T08:19:33.372Z</time></trkpt><trkpt lat="33.4628464" lon="8.9379683"><ele>39.0</ele><time>2026-04-18T08:19:34.376Z</time></trkpt><trkpt lat="33.4627712" lon="8.9377738"><ele>39.0</ele><time>2026-04-18T08:19:35.379Z</time></trkpt><trkpt lat="33.462699" lon="8.9375801"><ele>39.0</ele><time>2026-04-18T08:19:36.375Z</time></trkpt><trkpt lat="33.4626292" lon="8.9373875"><ele>39.0</ele><time>2026-04-18T08:19:37.373Z</time></trkpt><trkpt lat="33.46256" lon="8.9371941"><ele>38.0</ele><time>2026-04-18T08:19:38.378Z</time></trkpt><trkpt lat="33.4624881" lon="8.9369981"><ele>37.0</ele><time>2026-04-18T08:19:39.386Z</time></trkpt><trkpt lat="33.4624154" lon="8.9367985"><ele>36.0</ele><time>2026-04-18T08:19:40.377Z</time></trkpt><trkpt lat="33.4623432" lon="8.9365964"><ele>36.0</ele><time>2026-04-18T08:19:41.376Z</time></trkpt><trkpt lat="33.462271" lon="8.936393"><ele>36.0</ele><time>2026-04-18T08:19:42.38Z</time></trkpt><trkpt lat="33.4621975" lon="8.9361894"><ele>36.0</ele><time>2026-04-18T08:19:43.372Z</time></trkpt><trkpt lat="33.4621229" lon="8.9359848"><ele>36.333333333333336</ele><time>2026-04-18T08:19:44.369Z</time></trkpt><trkpt lat="33.4620482" lon="8.9357825"><ele>36.66666666666667</ele><time>2026-04-18T08:19:45.378Z</time></trkpt><trkpt lat="33.4619721" lon="8.9355809"><ele>37.0</ele><time>2026-04-18T08:19:46.373Z</time></trkpt><trkpt lat="33.4618958" lon="8.9353781"><ele>37.0</ele><time>2026-04-18T08:19:47.367Z</time></trkpt><trkpt lat="33.4618187" lon="8.9351715"><ele>37.0</ele><time>2026-04-18T08:19:48.373Z</time></trkpt><trkpt lat="33.4617399" lon="8.9349622"><ele>37.0</ele><time>2026-04-18T08:19:49.372Z</time></trkpt><trkpt lat="33.4616596" lon="8.9347582"><ele>37.0</ele><time>2026-04-18T08:19:50.381Z</time></trkpt><trkpt lat="33.4615753" lon="8.9345603"><ele>37.0</ele><time>2026-04-18T08:19:51.374Z</time></trkpt><trkpt lat="33.4614859" lon="8.9343642"><ele>37.0</ele><time>2026-04-18T08:19:52.37Z</time></trkpt><trkpt lat="33.4613941" lon="8.9341714"><ele>37.0</ele><time>2026-04-18T08:19:53.373Z</time></trkpt><trkpt lat="33.4612985" lon="8.9339836"><ele>37.0</ele><time>2026-04-18T08:19:54.371Z</time></trkpt><trkpt lat="33.4611958" lon="8.9337989"><ele>37.0</ele><time>2026-04-18T08:19:55.375Z</time></trkpt><trkpt lat="33.4610883" lon="8.9336163"><ele>37.0</ele><time>2026-04-18T08:19:56.375Z</time></trkpt><trkpt lat="33.4609773" lon="8.9334349"><ele>37.0</ele><time>2026-04-18T08:19:57.372Z</time></trkpt><trkpt lat="33.4608626" lon="8.9332552"><ele>37.0</ele><time>2026-04-18T08:19:58.376Z</time></trkpt><trkpt lat="33.4607468" lon="8.9330794"><ele>37.333333333333336</ele><time>2026-04-18T08:19:59.374Z</time></trkpt><trkpt lat="33.4606297" lon="8.9329062"><ele>37.666666666666664</ele><time>2026-04-18T08:20:00.38Z</time></trkpt><trkpt lat="33.4605113" lon="8.9327347"><ele>38.0</ele><time>2026-04-18T08:20:01.372Z</time></trkpt><trkpt lat="33.4603924" lon="8.9325646"><ele>38.666666666666664</ele><time>2026-04-18T08:20:02.372Z</time></trkpt><trkpt lat="33.4602741" lon="8.932395"><ele>39.333333333333336</ele><time>2026-04-18T08:20:03.372Z</time></trkpt><trkpt lat="33.4601575" lon="8.9322246"><ele>40.0</ele><time>2026-04-18T08:20:04.383Z</time></trkpt><trkpt lat="33.460042" lon="8.9320532"><ele>40.0</ele><time>2026-04-18T08:20:05.373Z</time></trkpt><trkpt lat="33.4599265" lon="8.9318813"><ele>40.0</ele><time>2026-04-18T08:20:06.377Z</time></trkpt><trkpt lat="33.4598103" lon="8.9317087"><ele>40.0</ele><time>2026-04-18T08:20:07.369Z</time></trkpt><trkpt lat="33.459693" lon="8.9315361"><ele>39.333333333333336</ele><time>2026-04-18T08:20:08.369Z</time></trkpt><trkpt lat="33.4595757" lon="8.9313634"><ele>38.666666666666664</ele><time>2026-04-18T08:20:09.378Z</time></trkpt><trkpt lat="33.4594589" lon="8.9311904"><ele>38.0</ele><time>2026-04-18T08:20:10.372Z</time></trkpt><trkpt lat="33.459343" lon="8.9310166"><ele>37.666666666666664</ele><time>2026-04-18T08:20:11.39Z</time></trkpt><trkpt lat="33.4592273" lon="8.9308412"><ele>37.333333333333336</ele><time>2026-04-18T08:20:12.372Z</time></trkpt><trkpt lat="33.4591109" lon="8.9306646"><ele>37.0</ele><time>2026-04-18T08:20:13.374Z</time></trkpt><trkpt lat="33.4589942" lon="8.9304874"><ele>37.0</ele><time>2026-04-18T08:20:14.383Z</time></trkpt><trkpt lat="33.4588764" lon="8.9303102"><ele>37.0</ele><time>2026-04-18T08:20:15.366Z</time></trkpt><trkpt lat="33.4587574" lon="8.9301329"><ele>37.0</ele><time>2026-04-18T08:20:16.388Z</time></trkpt><trkpt lat="33.4586385" lon="8.9299541"><ele>37.333333333333336</ele><time>2026-04-18T08:20:17.376Z</time></trkpt><trkpt lat="33.4585196" lon="8.9297738"><ele>37.666666666666664</ele><time>2026-04-18T08:20:18.369Z</time></trkpt><trkpt lat="33.4584019" lon="8.9295953"><ele>38.0</ele><time>2026-04-18T08:20:19.369Z</time></trkpt><trkpt lat="33.4582848" lon="8.9294192"><ele>38.0</ele><time>2026-04-18T08:20:20.365Z</time></trkpt><trkpt lat="33.4581676" lon="8.9292449"><ele>38.0</ele><time>2026-04-18T08:20:21.369Z</time></trkpt><trkpt lat="33.4580514" lon="8.9290704"><ele>38.0</ele><time>2026-04-18T08:20:22.367Z</time></trkpt><trkpt lat="33.4579358" lon="8.9288959"><ele>38.666666666666664</ele><time>2026-04-18T08:20:23.364Z</time></trkpt><trkpt lat="33.457822" lon="8.9287247"><ele>39.333333333333336</ele><time>2026-04-18T08:20:24.37Z</time></trkpt><trkpt lat="33.4577111" lon="8.9285592"><ele>40.0</ele><time>2026-04-18T08:20:25.373Z</time></trkpt><trkpt lat="33.4576027" lon="8.9283978"><ele>39.66666666666667</ele><time>2026-04-18T08:20:26.368Z</time></trkpt><trkpt lat="33.457498" lon="8.9282403"><ele>39.333333333333336</ele><time>2026-04-18T08:20:27.365Z</time></trkpt><trkpt lat="33.4573958" lon="8.9280836"><ele>39.0</ele><time>2026-04-18T08:20:28.373Z</time></trkpt><trkpt lat="33.457293" lon="8.9279264"><ele>39.0</ele><time>2026-04-18T08:20:29.376Z</time></trkpt><trkpt lat="33.4571861" lon="8.9277634"><ele>39.0</ele><time>2026-04-18T08:20:30.373Z</time></trkpt><trkpt lat="33.457073" lon="8.9275928"><ele>39.0</ele><time>2026-04-18T08:20:31.37Z</time></trkpt><trkpt lat="33.456956" lon="8.9274176"><ele>38.666666666666664</ele><time>2026-04-18T08:20:32.37Z</time></trkpt><trkpt lat="33.4568398" lon="8.9272441"><ele>38.33333333333333</ele><time>2026-04-18T08:20:33.374Z</time></trkpt><trkpt lat="33.456725" lon="8.9270715"><ele>38.0</ele><time>2026-04-18T08:20:34.368Z</time></trkpt><trkpt lat="33.4566087" lon="8.9268988"><ele>37.666666666666664</ele><time>2026-04-18T08:20:35.373Z</time></trkpt><trkpt lat="33.456492" lon="8.9267274"><ele>37.333333333333336</ele><time>2026-04-18T08:20:36.377Z</time></trkpt><trkpt lat="33.4563776" lon="8.9265598"><ele>37.0</ele><time>2026-04-18T08:20:37.375Z</time></trkpt><trkpt lat="33.4562641" lon="8.9263967"><ele>37.66666666666667</ele><time>2026-04-18T08:20:38.368Z</time></trkpt><trkpt lat="33.4561469" lon="8.9262387"><ele>38.333333333333336</ele><time>2026-04-18T08:20:39.37Z</time></trkpt><trkpt lat="33.4560205" lon="8.9260911"><ele>39.0</ele><time>2026-04-18T08:20:40.371Z</time></trkpt><trkpt lat="33.4558817" lon="8.9259614"><ele>39.333333333333336</ele><time>2026-04-18T08:20:41.368Z</time></trkpt><trkpt lat="33.4557274" lon="8.925853"><ele>39.66666666666667</ele><time>2026-04-18T08:20:42.375Z</time></trkpt><trkpt lat="33.4555588" lon="8.9257677"><ele>40.0</ele><time>2026-04-18T08:20:43.374Z</time></trkpt><trkpt lat="33.4553808" lon="8.9257074"><ele>40.0</ele><time>2026-04-18T08:20:44.374Z</time></trkpt><trkpt lat="33.4551993" lon="8.9256677"><ele>40.0</ele><time>2026-04-18T08:20:45.373Z</time></trkpt><trkpt lat="33.4550224" lon="8.9256394"><ele>40.0</ele><time>2026-04-18T08:20:46.374Z</time></trkpt><trkpt lat="33.4548482" lon="8.9256166"><ele>40.0</ele><time>2026-04-18T08:20:47.368Z</time></trkpt><trkpt lat="33.4546731" lon="8.9255956"><ele>40.0</ele><time>2026-04-18T08:20:48.37Z</time></trkpt><trkpt lat="33.4544969" lon="8.9255733"><ele>40.0</ele><time>2026-04-18T08:20:49.369Z</time></trkpt><trkpt lat="33.4543212" lon="8.9255516"><ele>40.333333333333336</ele><time>2026-04-18T08:20:50.374Z</time></trkpt><trkpt lat="33.454145" lon="8.925532"><ele>40.666666666666664</ele><time>2026-04-18T08:20:51.37Z</time></trkpt><trkpt lat="33.4539667" lon="8.9255139"><ele>41.0</ele><time>2026-04-18T08:20:52.372Z</time></trkpt><trkpt lat="33.4537898" lon="8.9254964"><ele>40.666666666666664</ele><time>2026-04-18T08:20:53.381Z</time></trkpt><trkpt lat="33.4536142" lon="8.9254778"><ele>40.333333333333336</ele><time>2026-04-18T08:20:54.372Z</time></trkpt><trkpt lat="33.453439" lon="8.9254596"><ele>40.0</ele><time>2026-04-18T08:20:55.376Z</time></trkpt><trkpt lat="33.4532643" lon="8.9254412"><ele>40.0</ele><time>2026-04-18T08:20:56.377Z</time></trkpt><trkpt lat="33.4530894" lon="8.9254223"><ele>40.0</ele><time>2026-04-18T08:20:57.371Z</time></trkpt><trkpt lat="33.4529148" lon="8.9254024"><ele>40.0</ele><time>2026-04-18T08:20:58.371Z</time></trkpt><trkpt lat="33.452742" lon="8.9253833"><ele>39.66666666666667</ele><time>2026-04-18T08:20:59.37Z</time></trkpt><trkpt lat="33.4525698" lon="8.9253655"><ele>39.333333333333336</ele><time>2026-04-18T08:21:00.376Z</time></trkpt><trkpt lat="33.4523974" lon="8.9253487"><ele>39.0</ele><time>2026-04-18T08:21:01.378Z</time></trkpt><trkpt lat="33.4522256" lon="8.9253306"><ele>38.0</ele><time>2026-04-18T08:21:02.382Z</time></trkpt><trkpt lat="33.4520551" lon="8.9253129"><ele>37.0</ele><time>2026-04-18T08:21:03.374Z</time></trkpt><trkpt lat="33.4518849" lon="8.9252958"><ele>36.0</ele><time>2026-04-18T08:21:04.368Z</time></trkpt><trkpt lat="33.4517159" lon="8.9252777"><ele>36.0</ele><time>2026-04-18T08:21:05.38Z</time></trkpt><trkpt lat="33.4515482" lon="8.9252597"><ele>36.0</ele><time>2026-04-18T08:21:06.372Z</time></trkpt><trkpt lat="33.4513871" lon="8.9252426"><ele>36.0</ele><time>2026-04-18T08:21:07.375Z</time></trkpt><trkpt lat="33.4512379" lon="8.9252264"><ele>36.75</ele><time>2026-04-18T08:21:08.385Z</time></trkpt><trkpt lat="33.4510978" lon="8.9252119"><ele>37.5</ele><time>2026-04-18T08:21:09.374Z</time></trkpt><trkpt lat="33.4509625" lon="8.9251997"><ele>38.25</ele><time>2026-04-18T08:21:10.371Z</time></trkpt><trkpt lat="33.4508349" lon="8.9251878"><ele>39.0</ele><time>2026-04-18T08:21:11.383Z</time></trkpt><trkpt lat="33.4507145" lon="8.9251778"><ele>39.0</ele><time>2026-04-18T08:21:12.376Z</time></trkpt><trkpt lat="33.4505898" lon="8.9251635"><ele>39.0</ele><time>2026-04-18T08:21:13.394Z</time></trkpt><trkpt lat="33.4504617" lon="8.9251475"><ele>39.0</ele><time>2026-04-18T08:21:14.375Z</time></trkpt><trkpt lat="33.4503351" lon="8.9251346"><ele>39.0</ele><time>2026-04-18T08:21:15.384Z</time></trkpt><trkpt lat="33.4502103" lon="8.925122"><ele>39.25</ele><time>2026-04-18T08:21:16.39Z</time></trkpt><trkpt lat="33.4500849" lon="8.9251091"><ele>39.5</ele><time>2026-04-18T08:21:17.37Z</time></trkpt><trkpt lat="33.4499576" lon="8.9250938"><ele>39.75</ele><time>2026-04-18T08:21:18.385Z</time></trkpt><trkpt lat="33.4498273" lon="8.9250804"><ele>40.0</ele><time>2026-04-18T08:21:19.382Z</time></trkpt><trkpt lat="33.4496948" lon="8.9250653"><ele>39.75</ele><time>2026-04-18T08:21:20.373Z</time></trkpt><trkpt lat="33.4495614" lon="8.9250489"><ele>39.5</ele><time>2026-04-18T08:21:21.373Z</time></trkpt><trkpt lat="33.4494355" lon="8.9250363"><ele>39.25</ele><time>2026-04-18T08:21:22.375Z</time></trkpt><trkpt lat="33.4493124" lon="8.9250222"><ele>39.0</ele><time>2026-04-18T08:21:23.368Z</time></trkpt><trkpt lat="33.4491903" lon="8.9250073"><ele>39.0</ele><time>2026-04-18T08:21:24.369Z</time></trkpt><trkpt lat="33.4490677" lon="8.9249932"><ele>39.0</ele><time>2026-04-18T08:21:25.371Z</time></trkpt><trkpt lat="33.4489459" lon="8.9249812"><ele>39.0</ele><time>2026-04-18T08:21:26.381Z</time></trkpt><trkpt lat="33.448831" lon="8.924971"><ele>39.0</ele><time>2026-04-18T08:21:27.366Z</time></trkpt><trkpt lat="33.4487218" lon="8.9249594"><ele>39.2</ele><time>2026-04-18T08:21:28.37Z</time></trkpt><trkpt lat="33.4486213" lon="8.924947"><ele>39.4</ele><time>2026-04-18T08:21:29.379Z</time></trkpt><trkpt lat="33.4485285" lon="8.9249368"><ele>39.6</ele><time>2026-04-18T08:21:30.371Z</time></trkpt><trkpt lat="33.4484409" lon="8.9249256"><ele>39.8</ele><time>2026-04-18T08:21:31.373Z</time></trkpt><trkpt lat="33.448347" lon="8.9249125"><ele>40.0</ele><time>2026-04-18T08:21:32.37Z</time></trkpt><trkpt lat="33.4482581" lon="8.9249011"><ele>40.0</ele><time>2026-04-18T08:21:33.383Z</time></trkpt><trkpt lat="33.4481761" lon="8.9248912"><ele>40.0</ele><time>2026-04-18T08:21:34.368Z</time></trkpt><trkpt lat="33.4480943" lon="8.9248835"><ele>40.0</ele><time>2026-04-18T08:21:35.376Z</time></trkpt><trkpt lat="33.4480129" lon="8.9248784"><ele>40.0</ele><time>2026-04-18T08:21:36.385Z</time></trkpt><trkpt lat="33.4479309" lon="8.9248742"><ele>40.0</ele><time>2026-04-18T08:21:37.371Z</time></trkpt><trkpt lat="33.4478491" lon="8.9248702"><ele>40.0</ele><time>2026-04-18T08:21:38.375Z</time></trkpt><trkpt lat="33.4477713" lon="8.9248621"><ele>40.0</ele><time>2026-04-18T08:21:39.381Z</time></trkpt><trkpt lat="33.4476943" lon="8.9248535"><ele>40.0</ele><time>2026-04-18T08:21:40.379Z</time></trkpt><trkpt lat="33.4476108" lon="8.9248448"><ele>40.0</ele><time>2026-04-18T08:21:41.375Z</time></trkpt><trkpt lat="33.4475217" lon="8.9248346"><ele>40.0</ele><time>2026-04-18T08:21:42.378Z</time></trkpt><trkpt lat="33.4474286" lon="8.9248261"><ele>40.0</ele><time>2026-04-18T08:21:43.378Z</time></trkpt><trkpt lat="33.4473362" lon="8.9248192"><ele>40.0</ele><time>2026-04-18T08:21:44.385Z</time></trkpt><trkpt lat="33.4472482" lon="8.9248114"><ele>40.0</ele><time>2026-04-18T08:21:45.375Z</time></trkpt><trkpt lat="33.4471615" lon="8.9248005"><ele>40.0</ele><time>2026-04-18T08:21:46.374Z</time></trkpt><trkpt lat="33.4470744" lon="8.9247883"><ele>40.0</ele><time>2026-04-18T08:21:47.381Z</time></trkpt><trkpt lat="33.4469867" lon="8.9247762"><ele>40.0</ele><time>2026-04-18T08:21:48.381Z</time></trkpt><trkpt lat="33.446899" lon="8.9247654"><ele>40.0</ele><time>2026-04-18T08:21:49.383Z</time></trkpt><trkpt lat="33.4468127" lon="8.9247545"><ele>40.0</ele><time>2026-04-18T08:21:50.38Z</time></trkpt><trkpt lat="33.4467286" lon="8.9247441"><ele>40.0</ele><time>2026-04-18T08:21:51.372Z</time></trkpt><trkpt lat="33.4466434" lon="8.9247362"><ele>40.0</ele><time>2026-04-18T08:21:52.392Z</time></trkpt><trkpt lat="33.4465568" lon="8.9247279"><ele>40.0</ele><time>2026-04-18T08:21:53.379Z</time></trkpt><trkpt lat="33.4464563" lon="8.9247411"><ele>40.0</ele><time>2026-04-18T08:21:54.377Z</time></trkpt><trkpt lat="33.4463659" lon="8.9247378"><ele>40.0</ele><time>2026-04-18T08:21:55.369Z</time></trkpt><trkpt lat="33.4462762" lon="8.9247303"><ele>39.8</ele><time>2026-04-18T08:21:56.377Z</time></trkpt><trkpt lat="33.4461817" lon="8.924723"><ele>39.6</ele><time>2026-04-18T08:21:57.378Z</time></trkpt><trkpt lat="33.4461038" lon="8.9247196"><ele>39.4</ele><time>2026-04-18T08:21:58.383Z</time></trkpt><trkpt lat="33.4460387" lon="8.9247161"><ele>39.2</ele><time>2026-04-18T08:21:59.376Z</time></trkpt><trkpt lat="33.4459287" lon="8.9247051"><ele>39.0</ele><time>2026-04-18T08:22:01.383Z</time></trkpt><trkpt lat="33.4458066" lon="8.9246916"><ele>39.0</ele><time>2026-04-18T08:22:03.376Z</time></trkpt><trkpt lat="33.4457402" lon="8.9246861"><ele>39.0</ele><time>2026-04-18T08:22:04.374Z</time></trkpt><trkpt lat="33.4456716" lon="8.9246721"><ele>39.0</ele><time>2026-04-18T08:22:05.381Z</time></trkpt><trkpt lat="33.4455943" lon="8.9246515"><ele>39.0</ele><time>2026-04-18T08:22:06.38Z</time></trkpt><trkpt lat="33.4455101" lon="8.9246255"><ele>39.0</ele><time>2026-04-18T08:22:07.377Z</time></trkpt><trkpt lat="33.4454161" lon="8.9245899"><ele>39.0</ele><time>2026-04-18T08:22:08.379Z</time></trkpt><trkpt lat="33.4453255" lon="8.9245511"><ele>39.0</ele><time>2026-04-18T08:22:09.378Z</time></trkpt><trkpt lat="33.4452387" lon="8.9245088"><ele>39.0</ele><time>2026-04-18T08:22:10.372Z</time></trkpt><trkpt lat="33.4451485" lon="8.9244586"><ele>39.0</ele><time>2026-04-18T08:22:11.373Z</time></trkpt><trkpt lat="33.4450491" lon="8.9243924"><ele>39.0</ele><time>2026-04-18T08:22:12.378Z</time></trkpt><trkpt lat="33.4449462" lon="8.9243095"><ele>39.0</ele><time>2026-04-18T08:22:13.378Z</time></trkpt><trkpt lat="33.4448473" lon="8.9242137"><ele>39.5</ele><time>2026-04-18T08:22:14.377Z</time></trkpt><trkpt lat="33.4447543" lon="8.924108"><ele>40.0</ele><time>2026-04-18T08:22:15.375Z</time></trkpt><trkpt lat="33.4446684" lon="8.9239989"><ele>40.5</ele><time>2026-04-18T08:22:16.374Z</time></trkpt><trkpt lat="33.4445918" lon="8.9238897"><ele>41.0</ele><time>2026-04-18T08:22:17.375Z</time></trkpt><trkpt lat="33.4445228" lon="8.9237765"><ele>41.5</ele><time>2026-04-18T08:22:18.367Z</time></trkpt><trkpt lat="33.444463" lon="8.9236538"><ele>42.0</ele><time>2026-04-18T08:22:19.37Z</time></trkpt><trkpt lat="33.4444094" lon="8.9235183"><ele>42.5</ele><time>2026-04-18T08:22:20.375Z</time></trkpt><trkpt lat="33.4443596" lon="8.92337"><ele>43.0</ele><time>2026-04-18T08:22:21.378Z</time></trkpt><trkpt lat="33.4443129" lon="8.9232177"><ele>43.0</ele><time>2026-04-18T08:22:22.37Z</time></trkpt><trkpt lat="33.4442683" lon="8.9230668"><ele>43.0</ele><time>2026-04-18T08:22:23.385Z</time></trkpt><trkpt lat="33.4442251" lon="8.9229222"><ele>43.0</ele><time>2026-04-18T08:22:24.383Z</time></trkpt><trkpt lat="33.4441842" lon="8.9227811"><ele>43.0</ele><time>2026-04-18T08:22:25.371Z</time></trkpt><trkpt lat="33.4441453" lon="8.9226438"><ele>43.0</ele><time>2026-04-18T08:22:26.381Z</time></trkpt><trkpt lat="33.444109" lon="8.9225167"><ele>43.0</ele><time>2026-04-18T08:22:27.377Z</time></trkpt><trkpt lat="33.4440743" lon="8.9224"><ele>43.0</ele><time>2026-04-18T08:22:28.37Z</time></trkpt><trkpt lat="33.444042" lon="8.9222943"><ele>43.0</ele><time>2026-04-18T08:22:29.372Z</time></trkpt><trkpt lat="33.4440136" lon="8.9221979"><ele>43.0</ele><time>2026-04-18T08:22:30.37Z</time></trkpt><trkpt lat="33.4439858" lon="8.9221088"><ele>43.0</ele><time>2026-04-18T08:22:31.387Z</time></trkpt><trkpt lat="33.4439596" lon="8.9220252"><ele>43.0</ele><time>2026-04-18T08:22:32.378Z</time></trkpt><trkpt lat="33.4439347" lon="8.9219473"><ele>43.0</ele><time>2026-04-18T08:22:33.378Z</time></trkpt><trkpt lat="33.4439094" lon="8.9218662"><ele>43.0</ele><time>2026-04-18T08:22:34.378Z</time></trkpt><trkpt lat="33.4438784" lon="8.921768"><ele>43.0</ele><time>2026-04-18T08:22:35.371Z</time></trkpt><trkpt lat="33.4438502" lon="8.9216668"><ele>43.0</ele><time>2026-04-18T08:22:36.368Z</time></trkpt><trkpt lat="33.4438229" lon="8.9215621"><ele>42.5</ele><time>2026-04-18T08:22:37.371Z</time></trkpt><trkpt lat="33.4437936" lon="8.9214474"><ele>42.0</ele><time>2026-04-18T08:22:38.377Z</time></trkpt><trkpt lat="33.4437579" lon="8.921321"><ele>41.5</ele><time>2026-04-18T08:22:39.372Z</time></trkpt><trkpt lat="33.4437195" lon="8.9211838"><ele>41.0</ele><time>2026-04-18T08:22:40.374Z</time></trkpt><trkpt lat="33.4436825" lon="8.9210442"><ele>41.0</ele><time>2026-04-18T08:22:41.379Z</time></trkpt><trkpt lat="33.4436452" lon="8.9209034"><ele>41.0</ele><time>2026-04-18T08:22:42.386Z</time></trkpt><trkpt lat="33.4436071" lon="8.9207634"><ele>41.0</ele><time>2026-04-18T08:22:43.382Z</time></trkpt><trkpt lat="33.4435706" lon="8.9206269"><ele>41.0</ele><time>2026-04-18T08:22:44.37Z</time></trkpt><trkpt lat="33.4435348" lon="8.9204945"><ele>41.8</ele><time>2026-04-18T08:22:45.378Z</time></trkpt><trkpt lat="33.4435005" lon="8.9203659"><ele>42.599999999999994</ele><time>2026-04-18T08:22:46.377Z</time></trkpt><trkpt lat="33.4434687" lon="8.9202394"><ele>43.4</ele><time>2026-04-18T08:22:47.387Z</time></trkpt><trkpt lat="33.4434383" lon="8.9201159"><ele>44.2</ele><time>2026-04-18T08:22:48.376Z</time></trkpt><trkpt lat="33.4434086" lon="8.9199958"><ele>45.0</ele><time>2026-04-18T08:22:49.371Z</time></trkpt><trkpt lat="33.4433795" lon="8.9198815"><ele>45.0</ele><time>2026-04-18T08:22:50.377Z</time></trkpt><trkpt lat="33.4433519" lon="8.9197766"><ele>45.0</ele><time>2026-04-18T08:22:51.367Z</time></trkpt><trkpt lat="33.4433274" lon="8.9196836"><ele>45.0</ele><time>2026-04-18T08:22:52.381Z</time></trkpt><trkpt lat="33.4433063" lon="8.919602"><ele>45.0</ele><time>2026-04-18T08:22:53.371Z</time></trkpt><trkpt lat="33.4432895" lon="8.919523"><ele>45.0</ele><time>2026-04-18T08:22:54.388Z</time></trkpt><trkpt lat="33.4432736" lon="8.9194411"><ele>45.0</ele><time>2026-04-18T08:22:55.379Z</time></trkpt><trkpt lat="33.4432541" lon="8.9193578"><ele>45.0</ele><time>2026-04-18T08:22:56.382Z</time></trkpt><trkpt lat="33.4432368" lon="8.9192817"><ele>45.0</ele><time>2026-04-18T08:22:57.387Z</time></trkpt><trkpt lat="33.4432025" lon="8.9191393"><ele>45.0</ele><time>2026-04-18T08:22:59.41Z</time></trkpt><trkpt lat="33.443186" lon="8.9190612"><ele>45.0</ele><time>2026-04-18T08:23:00.382Z</time></trkpt><trkpt lat="33.4431651" lon="8.9189751"><ele>45.0</ele><time>2026-04-18T08:23:01.386Z</time></trkpt><trkpt lat="33.4431459" lon="8.9188837"><ele>45.0</ele><time>2026-04-18T08:23:02.383Z</time></trkpt><trkpt lat="33.4431317" lon="8.9187885"><ele>45.166666666666664</ele><time>2026-04-18T08:23:03.382Z</time></trkpt><trkpt lat="33.4431225" lon="8.9186924"><ele>45.333333333333336</ele><time>2026-04-18T08:23:04.373Z</time></trkpt><trkpt lat="33.4431176" lon="8.9185975"><ele>45.5</ele><time>2026-04-18T08:23:05.383Z</time></trkpt><trkpt lat="33.4431153" lon="8.918503"><ele>45.66666666666667</ele><time>2026-04-18T08:23:06.371Z</time></trkpt><trkpt lat="33.4431162" lon="8.9184057"><ele>45.833333333333336</ele><time>2026-04-18T08:23:07.372Z</time></trkpt><trkpt lat="33.443122" lon="8.9183008"><ele>46.0</ele><time>2026-04-18T08:23:08.381Z</time></trkpt><trkpt lat="33.4431323" lon="8.9181915"><ele>46.5</ele><time>2026-04-18T08:23:09.378Z</time></trkpt><trkpt lat="33.4431465" lon="8.9180821"><ele>47.0</ele><time>2026-04-18T08:23:10.375Z</time></trkpt><trkpt lat="33.4431622" lon="8.9179753"><ele>47.5</ele><time>2026-04-18T08:23:11.372Z</time></trkpt><trkpt lat="33.4431799" lon="8.9178715"><ele>48.0</ele><time>2026-04-18T08:23:12.377Z</time></trkpt><trkpt lat="33.4432003" lon="8.9177708"><ele>48.49999999999999</ele><time>2026-04-18T08:23:13.375Z</time></trkpt><trkpt lat="33.4432245" lon="8.917677"><ele>49.0</ele><time>2026-04-18T08:23:14.373Z</time></trkpt><trkpt lat="33.4432523" lon="8.9175878"><ele>48.49999999999999</ele><time>2026-04-18T08:23:15.38Z</time></trkpt><trkpt lat="33.443282" lon="8.9174981"><ele>48.0</ele><time>2026-04-18T08:23:16.378Z</time></trkpt><trkpt lat="33.4433141" lon="8.9174064"><ele>47.5</ele><time>2026-04-18T08:23:17.381Z</time></trkpt><trkpt lat="33.4433487" lon="8.917311"><ele>47.0</ele><time>2026-04-18T08:23:18.37Z</time></trkpt><trkpt lat="33.443386" lon="8.9172128"><ele>46.5</ele><time>2026-04-18T08:23:19.373Z</time></trkpt><trkpt lat="33.4434241" lon="8.9171157"><ele>46.0</ele><time>2026-04-18T08:23:20.382Z</time></trkpt><trkpt lat="33.443465" lon="8.9170211"><ele>46.0</ele><time>2026-04-18T08:23:21.383Z</time></trkpt><trkpt lat="33.4435066" lon="8.9169304"><ele>46.0</ele><time>2026-04-18T08:23:22.372Z</time></trkpt><trkpt lat="33.4435461" lon="8.9168439"><ele>46.0</ele><time>2026-04-18T08:23:23.383Z</time></trkpt><trkpt lat="33.443584" lon="8.9167626"><ele>46.0</ele><time>2026-04-18T08:23:24.373Z</time></trkpt><trkpt lat="33.4436225" lon="8.9166848"><ele>46.0</ele><time>2026-04-18T08:23:25.372Z</time></trkpt><trkpt lat="33.4436587" lon="8.9166056"><ele>46.0</ele><time>2026-04-18T08:23:26.377Z</time></trkpt><trkpt lat="33.4436938" lon="8.9165224"><ele>46.0</ele><time>2026-04-18T08:23:27.379Z</time></trkpt><trkpt lat="33.4437306" lon="8.9164277"><ele>46.0</ele><time>2026-04-18T08:23:28.372Z</time></trkpt><trkpt lat="33.4437653" lon="8.9163128"><ele>46.0</ele><time>2026-04-18T08:23:29.377Z</time></trkpt><trkpt lat="33.4438036" lon="8.9161845"><ele>46.0</ele><time>2026-04-18T08:23:30.383Z</time></trkpt><trkpt lat="33.4438126" lon="8.9160279"><ele>46.0</ele><time>2026-04-18T08:23:31.37Z</time></trkpt><trkpt lat="33.4438104" lon="8.9158618"><ele>46.0</ele><time>2026-04-18T08:23:32.374Z</time></trkpt><trkpt lat="33.4438064" lon="8.9156864"><ele>46.0</ele><time>2026-04-18T08:23:33.381Z</time></trkpt><trkpt lat="33.4438" lon="8.9155165"><ele>46.0</ele><time>2026-04-18T08:23:34.388Z</time></trkpt><trkpt lat="33.4437852" lon="8.9153433"><ele>46.0</ele><time>2026-04-18T08:23:35.374Z</time></trkpt><trkpt lat="33.4437576" lon="8.9151579"><ele>45.66666666666667</ele><time>2026-04-18T08:23:36.369Z</time></trkpt><trkpt lat="33.4437211" lon="8.9149599"><ele>45.333333333333336</ele><time>2026-04-18T08:23:37.384Z</time></trkpt><trkpt lat="33.4436813" lon="8.9147552"><ele>45.0</ele><time>2026-04-18T08:23:38.377Z</time></trkpt><trkpt lat="33.4436399" lon="8.9145475"><ele>45.0</ele><time>2026-04-18T08:23:39.367Z</time></trkpt><trkpt lat="33.44359" lon="8.9143313"><ele>45.0</ele><time>2026-04-18T08:23:40.379Z</time></trkpt><trkpt lat="33.4435256" lon="8.9141111"><ele>45.0</ele><time>2026-04-18T08:23:41.392Z</time></trkpt><trkpt lat="33.4434463" lon="8.9138838"><ele>44.666666666666664</ele><time>2026-04-18T08:23:42.365Z</time></trkpt><trkpt lat="33.4433587" lon="8.9136575"><ele>44.33333333333333</ele><time>2026-04-18T08:23:43.369Z</time></trkpt><trkpt lat="33.4432794" lon="8.9134521"><ele>44.0</ele><time>2026-04-18T08:23:44.372Z</time></trkpt><trkpt lat="33.4432106" lon="8.913266"><ele>44.0</ele><time>2026-04-18T08:23:45.373Z</time></trkpt><trkpt lat="33.4431497" lon="8.913099"><ele>44.0</ele><time>2026-04-18T08:23:46.376Z</time></trkpt><trkpt lat="33.4430965" lon="8.912954"><ele>44.0</ele><time>2026-04-18T08:23:47.366Z</time></trkpt><trkpt lat="33.4430546" lon="8.9128374"><ele>44.0</ele><time>2026-04-18T08:23:48.38Z</time></trkpt><trkpt lat="33.4430185" lon="8.9127326"><ele>44.0</ele><time>2026-04-18T08:23:49.374Z</time></trkpt><trkpt lat="33.4429825" lon="8.9126295"><ele>44.0</ele><time>2026-04-18T08:23:50.389Z</time></trkpt><trkpt lat="33.4429423" lon="8.9125131"><ele>44.0</ele><time>2026-04-18T08:23:51.374Z</time></trkpt><trkpt lat="33.4428974" lon="8.9123835"><ele>44.0</ele><time>2026-04-18T08:23:52.376Z</time></trkpt><trkpt lat="33.4428498" lon="8.9122453"><ele>44.0</ele><time>2026-04-18T08:23:53.378Z</time></trkpt><trkpt lat="33.4428031" lon="8.9120996"><ele>43.5</ele><time>2026-04-18T08:23:54.374Z</time></trkpt><trkpt lat="33.4427563" lon="8.9119497"><ele>43.0</ele><time>2026-04-18T08:23:55.38Z</time></trkpt><trkpt lat="33.4427125" lon="8.9117916"><ele>42.5</ele><time>2026-04-18T08:23:56.377Z</time></trkpt><trkpt lat="33.4426711" lon="8.9116286"><ele>42.0</ele><time>2026-04-18T08:23:57.382Z</time></trkpt><trkpt lat="33.4426347" lon="8.9114698"><ele>41.5</ele><time>2026-04-18T08:23:58.383Z</time></trkpt><trkpt lat="33.4425998" lon="8.9113098"><ele>41.0</ele><time>2026-04-18T08:23:59.377Z</time></trkpt><trkpt lat="33.4425656" lon="8.9111438"><ele>40.5</ele><time>2026-04-18T08:24:00.375Z</time></trkpt><trkpt lat="33.4425323" lon="8.9109772"><ele>40.0</ele><time>2026-04-18T08:24:01.367Z</time></trkpt><trkpt lat="33.4425006" lon="8.9108162"><ele>40.0</ele><time>2026-04-18T08:24:02.382Z</time></trkpt><trkpt lat="33.4424723" lon="8.9106636"><ele>40.0</ele><time>2026-04-18T08:24:03.382Z</time></trkpt><trkpt lat="33.4424486" lon="8.910522"><ele>40.0</ele><time>2026-04-18T08:24:04.369Z</time></trkpt><trkpt lat="33.4424284" lon="8.9103923"><ele>40.0</ele><time>2026-04-18T08:24:05.37Z</time></trkpt><trkpt lat="33.4424121" lon="8.9102726"><ele>40.0</ele><time>2026-04-18T08:24:06.378Z</time></trkpt><trkpt lat="33.4423983" lon="8.9101544"><ele>40.0</ele><time>2026-04-18T08:24:07.385Z</time></trkpt><trkpt lat="33.4423871" lon="8.9100283"><ele>40.0</ele><time>2026-04-18T08:24:08.371Z</time></trkpt><trkpt lat="33.4423781" lon="8.9098944"><ele>40.0</ele><time>2026-04-18T08:24:09.384Z</time></trkpt><trkpt lat="33.4423749" lon="8.9097543"><ele>40.0</ele><time>2026-04-18T08:24:10.376Z</time></trkpt><trkpt lat="33.4423801" lon="8.9096035"><ele>40.0</ele><time>2026-04-18T08:24:11.372Z</time></trkpt><trkpt lat="33.442386" lon="8.9094535"><ele>40.0</ele><time>2026-04-18T08:24:12.369Z</time></trkpt><trkpt lat="33.442397" lon="8.909295"><ele>40.0</ele><time>2026-04-18T08:24:13.372Z</time></trkpt><trkpt lat="33.4424124" lon="8.9091354"><ele>40.0</ele><time>2026-04-18T08:24:14.374Z</time></trkpt><trkpt lat="33.4424292" lon="8.9089687"><ele>40.25</ele><time>2026-04-18T08:24:15.367Z</time></trkpt><trkpt lat="33.442448" lon="8.9088009"><ele>40.5</ele><time>2026-04-18T08:24:16.374Z</time></trkpt><trkpt lat="33.4424678" lon="8.9086253"><ele>40.75</ele><time>2026-04-18T08:24:17.379Z</time></trkpt><trkpt lat="33.4424902" lon="8.9084412"><ele>41.0</ele><time>2026-04-18T08:24:18.376Z</time></trkpt><trkpt lat="33.4425186" lon="8.9082534"><ele>40.33333333333333</ele><time>2026-04-18T08:24:19.37Z</time></trkpt><trkpt lat="33.4425484" lon="8.9080711"><ele>39.666666666666664</ele><time>2026-04-18T08:24:20.379Z</time></trkpt><trkpt lat="33.442582" lon="8.9078943"><ele>39.0</ele><time>2026-04-18T08:24:21.372Z</time></trkpt><trkpt lat="33.442616" lon="8.9077232"><ele>38.75</ele><time>2026-04-18T08:24:22.383Z</time></trkpt><trkpt lat="33.4426502" lon="8.9075606"><ele>38.5</ele><time>2026-04-18T08:24:23.367Z</time></trkpt><trkpt lat="33.4426867" lon="8.9074024"><ele>38.25</ele><time>2026-04-18T08:24:24.374Z</time></trkpt><trkpt lat="33.4427244" lon="8.9072438"><ele>38.0</ele><time>2026-04-18T08:24:25.374Z</time></trkpt><trkpt lat="33.4427608" lon="8.9070841"><ele>38.0</ele><time>2026-04-18T08:24:26.37Z</time></trkpt><trkpt lat="33.4427992" lon="8.906922"><ele>38.0</ele><time>2026-04-18T08:24:27.371Z</time></trkpt><trkpt lat="33.4428422" lon="8.9067527"><ele>38.0</ele><time>2026-04-18T08:24:28.369Z</time></trkpt><trkpt lat="33.4428887" lon="8.9065753"><ele>38.0</ele><time>2026-04-18T08:24:29.377Z</time></trkpt><trkpt lat="33.4429399" lon="8.9063901"><ele>38.0</ele><time>2026-04-18T08:24:30.374Z</time></trkpt><trkpt lat="33.4429961" lon="8.9062059"><ele>38.0</ele><time>2026-04-18T08:24:31.368Z</time></trkpt><trkpt lat="33.4430583" lon="8.9060179"><ele>38.0</ele><time>2026-04-18T08:24:32.367Z</time></trkpt><trkpt lat="33.4431261" lon="8.905825"><ele>38.0</ele><time>2026-04-18T08:24:33.374Z</time></trkpt><trkpt lat="33.4431959" lon="8.9056356"><ele>38.0</ele><time>2026-04-18T08:24:34.373Z</time></trkpt><trkpt lat="33.443269" lon="8.9054497"><ele>38.0</ele><time>2026-04-18T08:24:35.38Z</time></trkpt><trkpt lat="33.443343" lon="8.9052648"><ele>38.0</ele><time>2026-04-18T08:24:36.379Z</time></trkpt><trkpt lat="33.4434169" lon="8.9050826"><ele>38.0</ele><time>2026-04-18T08:24:37.374Z</time></trkpt><trkpt lat="33.4434933" lon="8.9049039"><ele>38.0</ele><time>2026-04-18T08:24:38.385Z</time></trkpt><trkpt lat="33.4435723" lon="8.9047281"><ele>38.0</ele><time>2026-04-18T08:24:39.369Z</time></trkpt><trkpt lat="33.4436502" lon="8.9045552"><ele>38.0</ele><time>2026-04-18T08:24:40.375Z</time></trkpt><trkpt lat="33.4437272" lon="8.9043883"><ele>38.0</ele><time>2026-04-18T08:24:41.384Z</time></trkpt><trkpt lat="33.4438035" lon="8.904226"><ele>38.0</ele><time>2026-04-18T08:24:42.384Z</time></trkpt><trkpt lat="33.4438814" lon="8.9040644"><ele>38.0</ele><time>2026-04-18T08:24:43.38Z</time></trkpt><trkpt lat="33.4439595" lon="8.9039"><ele>38.0</ele><time>2026-04-18T08:24:44.373Z</time></trkpt><trkpt lat="33.4440376" lon="8.903732"><ele>38.0</ele><time>2026-04-18T08:24:45.373Z</time></trkpt><trkpt lat="33.4441168" lon="8.903562"><ele>38.0</ele><time>2026-04-18T08:24:46.369Z</time></trkpt><trkpt lat="33.4441976" lon="8.9033895"><ele>38.0</ele><time>2026-04-18T08:24:47.376Z</time></trkpt><trkpt lat="33.4442794" lon="8.9032143"><ele>38.0</ele><time>2026-04-18T08:24:48.368Z</time></trkpt><trkpt lat="33.4443628" lon="8.9030357"><ele>38.0</ele><time>2026-04-18T08:24:49.374Z</time></trkpt><trkpt lat="33.4444491" lon="8.902853"><ele>38.0</ele><time>2026-04-18T08:24:50.379Z</time></trkpt><trkpt lat="33.4445374" lon="8.902666"><ele>38.0</ele><time>2026-04-18T08:24:51.374Z</time></trkpt><trkpt lat="33.4446272" lon="8.9024757"><ele>38.0</ele><time>2026-04-18T08:24:52.366Z</time></trkpt><trkpt lat="33.444719" lon="8.9022799"><ele>38.0</ele><time>2026-04-18T08:24:53.373Z</time></trkpt><trkpt lat="33.4448132" lon="8.9020776"><ele>38.0</ele><time>2026-04-18T08:24:54.373Z</time></trkpt><trkpt lat="33.4449082" lon="8.9018699"><ele>38.0</ele><time>2026-04-18T08:24:55.385Z</time></trkpt><trkpt lat="33.4450044" lon="8.9016576"><ele>38.0</ele><time>2026-04-18T08:24:56.37Z</time></trkpt><trkpt lat="33.4451016" lon="8.9014429"><ele>37.666666666666664</ele><time>2026-04-18T08:24:57.374Z</time></trkpt><trkpt lat="33.4451963" lon="8.901234"><ele>37.333333333333336</ele><time>2026-04-18T08:24:58.365Z</time></trkpt><trkpt lat="33.4452867" lon="8.9010346"><ele>37.0</ele><time>2026-04-18T08:24:59.372Z</time></trkpt><trkpt lat="33.4453758" lon="8.9008422"><ele>37.333333333333336</ele><time>2026-04-18T08:25:00.374Z</time></trkpt><trkpt lat="33.4454642" lon="8.9006527"><ele>37.666666666666664</ele><time>2026-04-18T08:25:01.374Z</time></trkpt><trkpt lat="33.4455523" lon="8.9004632"><ele>38.0</ele><time>2026-04-18T08:25:02.366Z</time></trkpt><trkpt lat="33.4456418" lon="8.9002728"><ele>37.666666666666664</ele><time>2026-04-18T08:25:03.373Z</time></trkpt><trkpt lat="33.4457318" lon="8.900081"><ele>37.333333333333336</ele><time>2026-04-18T08:25:04.376Z</time></trkpt><trkpt lat="33.445822" lon="8.8998875"><ele>37.0</ele><time>2026-04-18T08:25:05.371Z</time></trkpt><trkpt lat="33.4459119" lon="8.8996932"><ele>37.0</ele><time>2026-04-18T08:25:06.38Z</time></trkpt><trkpt lat="33.446" lon="8.8995027"><ele>37.0</ele><time>2026-04-18T08:25:07.383Z</time></trkpt><trkpt lat="33.4460878" lon="8.8993132"><ele>37.0</ele><time>2026-04-18T08:25:08.382Z</time></trkpt><trkpt lat="33.4461774" lon="8.8991203"><ele>36.66666666666667</ele><time>2026-04-18T08:25:09.374Z</time></trkpt><trkpt lat="33.4462685" lon="8.8989236"><ele>36.333333333333336</ele><time>2026-04-18T08:25:10.377Z</time></trkpt><trkpt lat="33.4463603" lon="8.8987232"><ele>36.0</ele><time>2026-04-18T08:25:11.375Z</time></trkpt><trkpt lat="33.4464541" lon="8.8985212"><ele>35.666666666666664</ele><time>2026-04-18T08:25:12.369Z</time></trkpt><trkpt lat="33.4465491" lon="8.8983183"><ele>35.33333333333333</ele><time>2026-04-18T08:25:13.375Z</time></trkpt><trkpt lat="33.4466449" lon="8.8981147"><ele>35.0</ele><time>2026-04-18T08:25:14.382Z</time></trkpt><trkpt lat="33.4467384" lon="8.8979132"><ele>35.0</ele><time>2026-04-18T08:25:15.374Z</time></trkpt><trkpt lat="33.4468305" lon="8.8977136"><ele>35.0</ele><time>2026-04-18T08:25:16.372Z</time></trkpt><trkpt lat="33.4469232" lon="8.8975126"><ele>35.0</ele><time>2026-04-18T08:25:17.377Z</time></trkpt><trkpt lat="33.4470173" lon="8.8973085"><ele>35.0</ele><time>2026-04-18T08:25:18.375Z</time></trkpt><trkpt lat="33.4471123" lon="8.8971015"><ele>35.0</ele><time>2026-04-18T08:25:19.38Z</time></trkpt><trkpt lat="33.4472081" lon="8.8968919"><ele>35.0</ele><time>2026-04-18T08:25:20.373Z</time></trkpt><trkpt lat="33.4473046" lon="8.8966815"><ele>33.666666666666664</ele><time>2026-04-18T08:25:21.368Z</time></trkpt><trkpt lat="33.4473958" lon="8.8964818"><ele>32.333333333333336</ele><time>2026-04-18T08:25:22.38Z</time></trkpt><trkpt lat="33.4474793" lon="8.8962948"><ele>31.0</ele><time>2026-04-18T08:25:23.373Z</time></trkpt><trkpt lat="33.4475569" lon="8.8961193"><ele>31.0</ele><time>2026-04-18T08:25:24.376Z</time></trkpt><trkpt lat="33.4476307" lon="8.8959552"><ele>31.0</ele><time>2026-04-18T08:25:25.374Z</time></trkpt><trkpt lat="33.4477027" lon="8.8957994"><ele>31.0</ele><time>2026-04-18T08:25:26.381Z</time></trkpt><trkpt lat="33.447773" lon="8.8956498"><ele>31.0</ele><time>2026-04-18T08:25:27.374Z</time></trkpt><trkpt lat="33.4478421" lon="8.8955031"><ele>31.5</ele><time>2026-04-18T08:25:28.378Z</time></trkpt><trkpt lat="33.44791" lon="8.8953566"><ele>32.0</ele><time>2026-04-18T08:25:29.373Z</time></trkpt><trkpt lat="33.4479775" lon="8.8952082"><ele>32.5</ele><time>2026-04-18T08:25:30.377Z</time></trkpt><trkpt lat="33.4480464" lon="8.8950583"><ele>33.0</ele><time>2026-04-18T08:25:31.377Z</time></trkpt><trkpt lat="33.4481156" lon="8.8949111"><ele>33.25</ele><time>2026-04-18T08:25:32.377Z</time></trkpt><trkpt lat="33.4481832" lon="8.8947666"><ele>33.5</ele><time>2026-04-18T08:25:33.385Z</time></trkpt><trkpt lat="33.4482487" lon="8.8946222"><ele>33.75</ele><time>2026-04-18T08:25:34.372Z</time></trkpt><trkpt lat="33.4483149" lon="8.894479"><ele>34.0</ele><time>2026-04-18T08:25:35.369Z</time></trkpt><trkpt lat="33.4483831" lon="8.8943365"><ele>34.25</ele><time>2026-04-18T08:25:36.374Z</time></trkpt><trkpt lat="33.4484535" lon="8.8941889"><ele>34.5</ele><time>2026-04-18T08:25:37.385Z</time></trkpt><trkpt lat="33.4485254" lon="8.8940366"><ele>34.75</ele><time>2026-04-18T08:25:38.376Z</time></trkpt><trkpt lat="33.4485967" lon="8.8938833"><ele>35.0</ele><time>2026-04-18T08:25:39.382Z</time></trkpt><trkpt lat="33.4486667" lon="8.8937305"><ele>35.0</ele><time>2026-04-18T08:25:40.381Z</time></trkpt><trkpt lat="33.4487368" lon="8.8935782"><ele>35.0</ele><time>2026-04-18T08:25:41.371Z</time></trkpt><trkpt lat="33.4488066" lon="8.8934245"><ele>35.0</ele><time>2026-04-18T08:25:42.386Z</time></trkpt><trkpt lat="33.4488773" lon="8.8932667"><ele>35.0</ele><time>2026-04-18T08:25:43.38Z</time></trkpt><trkpt lat="33.4489502" lon="8.8931053"><ele>34.0</ele><time>2026-04-18T08:25:44.369Z</time></trkpt><trkpt lat="33.4490266" lon="8.8929382"><ele>33.0</ele><time>2026-04-18T08:25:45.379Z</time></trkpt><trkpt lat="33.4491083" lon="8.8927604"><ele>32.0</ele><time>2026-04-18T08:25:46.371Z</time></trkpt><trkpt lat="33.4491955" lon="8.8925702"><ele>32.0</ele><time>2026-04-18T08:25:47.387Z</time></trkpt><trkpt lat="33.449289" lon="8.8923691"><ele>32.0</ele><time>2026-04-18T08:25:48.384Z</time></trkpt><trkpt lat="33.4493865" lon="8.8921603"><ele>32.0</ele><time>2026-04-18T08:25:49.376Z</time></trkpt><trkpt lat="33.4494847" lon="8.8919482"><ele>32.33333333333333</ele><time>2026-04-18T08:25:50.373Z</time></trkpt><trkpt lat="33.4495803" lon="8.8917392"><ele>32.666666666666664</ele><time>2026-04-18T08:25:51.371Z</time></trkpt><trkpt lat="33.4496748" lon="8.8915339"><ele>33.0</ele><time>2026-04-18T08:25:52.375Z</time></trkpt><trkpt lat="33.4497698" lon="8.8913288"><ele>33.0</ele><time>2026-04-18T08:25:53.37Z</time></trkpt><trkpt lat="33.4498665" lon="8.8911195"><ele>33.0</ele><time>2026-04-18T08:25:54.375Z</time></trkpt><trkpt lat="33.4499628" lon="8.8909084"><ele>33.0</ele><time>2026-04-18T08:25:55.374Z</time></trkpt><trkpt lat="33.4500577" lon="8.8906978"><ele>33.0</ele><time>2026-04-18T08:25:56.372Z</time></trkpt><trkpt lat="33.4501531" lon="8.8904873"><ele>33.0</ele><time>2026-04-18T08:25:57.373Z</time></trkpt><trkpt lat="33.4502515" lon="8.8902759"><ele>33.0</ele><time>2026-04-18T08:25:58.384Z</time></trkpt><trkpt lat="33.4503523" lon="8.8900642"><ele>33.0</ele><time>2026-04-18T08:25:59.374Z</time></trkpt><trkpt lat="33.4504542" lon="8.889855"><ele>33.0</ele><time>2026-04-18T08:26:00.373Z</time></trkpt><trkpt lat="33.4505583" lon="8.8896489"><ele>33.0</ele><time>2026-04-18T08:26:01.379Z</time></trkpt><trkpt lat="33.4506644" lon="8.8894459"><ele>32.333333333333336</ele><time>2026-04-18T08:26:02.369Z</time></trkpt><trkpt lat="33.4507693" lon="8.8892489"><ele>31.666666666666668</ele><time>2026-04-18T08:26:03.374Z</time></trkpt><trkpt lat="33.4508754" lon="8.8890545"><ele>31.0</ele><time>2026-04-18T08:26:04.373Z</time></trkpt><trkpt lat="33.4509815" lon="8.8888616"><ele>31.0</ele><time>2026-04-18T08:26:05.368Z</time></trkpt><trkpt lat="33.4510865" lon="8.8886697"><ele>31.0</ele><time>2026-04-18T08:26:06.372Z</time></trkpt><trkpt lat="33.4511918" lon="8.8884785"><ele>31.0</ele><time>2026-04-18T08:26:07.379Z</time></trkpt><trkpt lat="33.4512957" lon="8.8882913"><ele>31.0</ele><time>2026-04-18T08:26:08.384Z</time></trkpt><trkpt lat="33.4514" lon="8.8881069"><ele>31.0</ele><time>2026-04-18T08:26:09.378Z</time></trkpt><trkpt lat="33.4515037" lon="8.8879248"><ele>31.0</ele><time>2026-04-18T08:26:10.373Z</time></trkpt><trkpt lat="33.4516082" lon="8.8877426"><ele>31.333333333333336</ele><time>2026-04-18T08:26:11.375Z</time></trkpt><trkpt lat="33.4517122" lon="8.8875591"><ele>31.666666666666664</ele><time>2026-04-18T08:26:12.38Z</time></trkpt><trkpt lat="33.4518156" lon="8.8873742"><ele>32.0</ele><time>2026-04-18T08:26:13.377Z</time></trkpt><trkpt lat="33.4519189" lon="8.8871883"><ele>32.0</ele><time>2026-04-18T08:26:14.37Z</time></trkpt><trkpt lat="33.4520235" lon="8.8870011"><ele>32.0</ele><time>2026-04-18T08:26:15.384Z</time></trkpt><trkpt lat="33.4521298" lon="8.8868109"><ele>32.0</ele><time>2026-04-18T08:26:16.371Z</time></trkpt><trkpt lat="33.4522382" lon="8.8866173"><ele>32.33333333333333</ele><time>2026-04-18T08:26:17.372Z</time></trkpt><trkpt lat="33.452347" lon="8.8864236"><ele>32.666666666666664</ele><time>2026-04-18T08:26:18.373Z</time></trkpt><trkpt lat="33.4524571" lon="8.8862278"><ele>33.0</ele><time>2026-04-18T08:26:19.373Z</time></trkpt><trkpt lat="33.4525693" lon="8.8860299"><ele>33.0</ele><time>2026-04-18T08:26:20.373Z</time></trkpt><trkpt lat="33.4526817" lon="8.8858303"><ele>33.0</ele><time>2026-04-18T08:26:21.366Z</time></trkpt><trkpt lat="33.4527934" lon="8.8856308"><ele>33.0</ele><time>2026-04-18T08:26:22.371Z</time></trkpt><trkpt lat="33.4529044" lon="8.8854337"><ele>33.0</ele><time>2026-04-18T08:26:23.372Z</time></trkpt><trkpt lat="33.4530159" lon="8.8852375"><ele>33.0</ele><time>2026-04-18T08:26:24.377Z</time></trkpt><trkpt lat="33.4531245" lon="8.8850435"><ele>33.0</ele><time>2026-04-18T08:26:25.371Z</time></trkpt><trkpt lat="33.4532326" lon="8.8848493"><ele>33.333333333333336</ele><time>2026-04-18T08:26:26.376Z</time></trkpt><trkpt lat="33.4533414" lon="8.8846555"><ele>33.66666666666667</ele><time>2026-04-18T08:26:27.376Z</time></trkpt><trkpt lat="33.4534503" lon="8.8844612"><ele>34.0</ele><time>2026-04-18T08:26:28.373Z</time></trkpt><trkpt lat="33.4535599" lon="8.8842666"><ele>33.333333333333336</ele><time>2026-04-18T08:26:29.368Z</time></trkpt><trkpt lat="33.4536699" lon="8.8840727"><ele>32.666666666666664</ele><time>2026-04-18T08:26:30.373Z</time></trkpt><trkpt lat="33.4537796" lon="8.8838791"><ele>32.0</ele><time>2026-04-18T08:26:31.371Z</time></trkpt><trkpt lat="33.4538892" lon="8.8836845"><ele>31.666666666666664</ele><time>2026-04-18T08:26:32.364Z</time></trkpt><trkpt lat="33.4539985" lon="8.8834899"><ele>31.333333333333336</ele><time>2026-04-18T08:26:33.372Z</time></trkpt><trkpt lat="33.4541079" lon="8.8832959"><ele>31.0</ele><time>2026-04-18T08:26:34.363Z</time></trkpt><trkpt lat="33.4542166" lon="8.8831021"><ele>30.666666666666668</ele><time>2026-04-18T08:26:35.367Z</time></trkpt><trkpt lat="33.4543243" lon="8.8829087"><ele>30.333333333333336</ele><time>2026-04-18T08:26:36.37Z</time></trkpt><trkpt lat="33.4544308" lon="8.8827163"><ele>30.0</ele><time>2026-04-18T08:26:37.379Z</time></trkpt><trkpt lat="33.4545356" lon="8.8825252"><ele>29.666666666666664</ele><time>2026-04-18T08:26:38.368Z</time></trkpt><trkpt lat="33.4546389" lon="8.8823324"><ele>29.333333333333332</ele><time>2026-04-18T08:26:39.37Z</time></trkpt><trkpt lat="33.4547393" lon="8.8821359"><ele>29.0</ele><time>2026-04-18T08:26:40.37Z</time></trkpt><trkpt lat="33.4548357" lon="8.8819373"><ele>28.333333333333332</ele><time>2026-04-18T08:26:41.368Z</time></trkpt><trkpt lat="33.45493" lon="8.8817376"><ele>27.666666666666664</ele><time>2026-04-18T08:26:42.371Z</time></trkpt><trkpt lat="33.4550229" lon="8.8815348"><ele>27.0</ele><time>2026-04-18T08:26:43.371Z</time></trkpt><trkpt lat="33.4551083" lon="8.8813304"><ele>27.0</ele><time>2026-04-18T08:26:44.379Z</time></trkpt><trkpt lat="33.4551849" lon="8.8811242"><ele>27.0</ele><time>2026-04-18T08:26:45.376Z</time></trkpt><trkpt lat="33.4552535" lon="8.8809135"><ele>27.0</ele><time>2026-04-18T08:26:46.367Z</time></trkpt><trkpt lat="33.4553139" lon="8.8806957"><ele>27.333333333333336</ele><time>2026-04-18T08:26:47.371Z</time></trkpt><trkpt lat="33.4553661" lon="8.8804723"><ele>27.666666666666668</ele><time>2026-04-18T08:26:48.371Z</time></trkpt><trkpt lat="33.4554109" lon="8.8802445"><ele>28.0</ele><time>2026-04-18T08:26:49.372Z</time></trkpt><trkpt lat="33.4554504" lon="8.8800173"><ele>29.333333333333336</ele><time>2026-04-18T08:26:50.368Z</time></trkpt><trkpt lat="33.4554849" lon="8.8797902"><ele>30.666666666666664</ele><time>2026-04-18T08:26:51.367Z</time></trkpt><trkpt lat="33.4555127" lon="8.8795631"><ele>32.0</ele><time>2026-04-18T08:26:52.365Z</time></trkpt><trkpt lat="33.455532" lon="8.8793368"><ele>32.33333333333333</ele><time>2026-04-18T08:26:53.371Z</time></trkpt><trkpt lat="33.4555428" lon="8.879111"><ele>32.666666666666664</ele><time>2026-04-18T08:26:54.371Z</time></trkpt><trkpt lat="33.4555464" lon="8.8788861"><ele>33.0</ele><time>2026-04-18T08:26:55.375Z</time></trkpt><trkpt lat="33.455544" lon="8.8786629"><ele>33.0</ele><time>2026-04-18T08:26:56.368Z</time></trkpt><trkpt lat="33.4555358" lon="8.878441"><ele>33.0</ele><time>2026-04-18T08:26:57.37Z</time></trkpt><trkpt lat="33.4555216" lon="8.8782199"><ele>33.0</ele><time>2026-04-18T08:26:58.369Z</time></trkpt><trkpt lat="33.4555002" lon="8.8780002"><ele>32.666666666666664</ele><time>2026-04-18T08:26:59.37Z</time></trkpt><trkpt lat="33.4554709" lon="8.8777817"><ele>32.33333333333333</ele><time>2026-04-18T08:27:00.368Z</time></trkpt><trkpt lat="33.4554346" lon="8.877565"><ele>32.0</ele><time>2026-04-18T08:27:01.383Z</time></trkpt><trkpt lat="33.4553935" lon="8.8773494"><ele>32.0</ele><time>2026-04-18T08:27:02.37Z</time></trkpt><trkpt lat="33.4553493" lon="8.8771336"><ele>32.0</ele><time>2026-04-18T08:27:03.366Z</time></trkpt><trkpt lat="33.4553007" lon="8.8769175"><ele>32.0</ele><time>2026-04-18T08:27:04.367Z</time></trkpt><trkpt lat="33.4552453" lon="8.8767035"><ele>33.0</ele><time>2026-04-18T08:27:05.369Z</time></trkpt><trkpt lat="33.4551787" lon="8.8764935"><ele>34.0</ele><time>2026-04-18T08:27:06.367Z</time></trkpt><trkpt lat="33.4551025" lon="8.8762878"><ele>35.0</ele><time>2026-04-18T08:27:07.375Z</time></trkpt><trkpt lat="33.4550182" lon="8.876086"><ele>34.666666666666664</ele><time>2026-04-18T08:27:08.371Z</time></trkpt><trkpt lat="33.4549278" lon="8.8758868"><ele>34.333333333333336</ele><time>2026-04-18T08:27:09.374Z</time></trkpt><trkpt lat="33.4548345" lon="8.8756897"><ele>34.0</ele><time>2026-04-18T08:27:10.371Z</time></trkpt><trkpt lat="33.4547392" lon="8.8754948"><ele>34.0</ele><time>2026-04-18T08:27:11.38Z</time></trkpt><trkpt lat="33.454642" lon="8.8753014"><ele>34.0</ele><time>2026-04-18T08:27:12.378Z</time></trkpt><trkpt lat="33.4545432" lon="8.8751094"><ele>34.0</ele><time>2026-04-18T08:27:13.376Z</time></trkpt><trkpt lat="33.4544434" lon="8.8749192"><ele>34.0</ele><time>2026-04-18T08:27:14.37Z</time></trkpt><trkpt lat="33.454343" lon="8.8747295"><ele>34.0</ele><time>2026-04-18T08:27:15.372Z</time></trkpt><trkpt lat="33.4542432" lon="8.8745393"><ele>34.0</ele><time>2026-04-18T08:27:16.374Z</time></trkpt><trkpt lat="33.454143" lon="8.874349"><ele>34.66666666666667</ele><time>2026-04-18T08:27:17.372Z</time></trkpt><trkpt lat="33.4540419" lon="8.8741585"><ele>35.333333333333336</ele><time>2026-04-18T08:27:18.37Z</time></trkpt><trkpt lat="33.4539414" lon="8.8739675"><ele>36.0</ele><time>2026-04-18T08:27:19.376Z</time></trkpt><trkpt lat="33.4538432" lon="8.8737832"><ele>36.333333333333336</ele><time>2026-04-18T08:27:20.376Z</time></trkpt><trkpt lat="33.4537522" lon="8.8736166"><ele>36.66666666666667</ele><time>2026-04-18T08:27:21.385Z</time></trkpt><trkpt lat="33.4536679" lon="8.8734589"><ele>37.0</ele><time>2026-04-18T08:27:22.372Z</time></trkpt><trkpt lat="33.4535883" lon="8.8733065"><ele>36.333333333333336</ele><time>2026-04-18T08:27:23.369Z</time></trkpt><trkpt lat="33.4535077" lon="8.873152"><ele>35.666666666666664</ele><time>2026-04-18T08:27:24.376Z</time></trkpt><trkpt lat="33.4534224" lon="8.8729903"><ele>35.0</ele><time>2026-04-18T08:27:25.379Z</time></trkpt><trkpt lat="33.4533328" lon="8.872822"><ele>35.0</ele><time>2026-04-18T08:27:26.372Z</time></trkpt><trkpt lat="33.4532421" lon="8.8726522"><ele>35.0</ele><time>2026-04-18T08:27:27.377Z</time></trkpt><trkpt lat="33.4531523" lon="8.8724845"><ele>35.0</ele><time>2026-04-18T08:27:28.377Z</time></trkpt><trkpt lat="33.453063" lon="8.8723156"><ele>35.33333333333333</ele><time>2026-04-18T08:27:29.374Z</time></trkpt><trkpt lat="33.4529733" lon="8.8721451"><ele>35.666666666666664</ele><time>2026-04-18T08:27:30.369Z</time></trkpt><trkpt lat="33.4528816" lon="8.8719745"><ele>36.0</ele><time>2026-04-18T08:27:31.399Z</time></trkpt><trkpt lat="33.4527877" lon="8.8718034"><ele>36.666666666666664</ele><time>2026-04-18T08:27:32.375Z</time></trkpt><trkpt lat="33.4526921" lon="8.8716284"><ele>37.33333333333333</ele><time>2026-04-18T08:27:33.384Z</time></trkpt><trkpt lat="33.452596" lon="8.8714491"><ele>38.0</ele><time>2026-04-18T08:27:34.377Z</time></trkpt><trkpt lat="33.4525011" lon="8.8712708"><ele>38.0</ele><time>2026-04-18T08:27:35.38Z</time></trkpt><trkpt lat="33.4524054" lon="8.8710922"><ele>38.0</ele><time>2026-04-18T08:27:36.377Z</time></trkpt><trkpt lat="33.4523083" lon="8.8709107"><ele>38.0</ele><time>2026-04-18T08:27:37.383Z</time></trkpt><trkpt lat="33.4522096" lon="8.870728"><ele>38.33333333333333</ele><time>2026-04-18T08:27:38.374Z</time></trkpt><trkpt lat="33.4521103" lon="8.8705466"><ele>38.666666666666664</ele><time>2026-04-18T08:27:39.379Z</time></trkpt><trkpt lat="33.452011" lon="8.8703663"><ele>39.0</ele><time>2026-04-18T08:27:40.375Z</time></trkpt><trkpt lat="33.4519132" lon="8.8701874"><ele>38.0</ele><time>2026-04-18T08:27:41.369Z</time></trkpt><trkpt lat="33.4518168" lon="8.8700107"><ele>37.0</ele><time>2026-04-18T08:27:42.376Z</time></trkpt><trkpt lat="33.451721" lon="8.8698365"><ele>36.0</ele><time>2026-04-18T08:27:43.384Z</time></trkpt><trkpt lat="33.4516286" lon="8.8696645"><ele>36.0</ele><time>2026-04-18T08:27:44.378Z</time></trkpt><trkpt lat="33.4515391" lon="8.8694936"><ele>36.0</ele><time>2026-04-18T08:27:45.367Z</time></trkpt><trkpt lat="33.4514526" lon="8.8693247"><ele>36.0</ele><time>2026-04-18T08:27:46.382Z</time></trkpt><trkpt lat="33.4513675" lon="8.8691576"><ele>35.0</ele><time>2026-04-18T08:27:47.382Z</time></trkpt><trkpt lat="33.4512856" lon="8.8689914"><ele>34.0</ele><time>2026-04-18T08:27:48.374Z</time></trkpt><trkpt lat="33.4512094" lon="8.8688232"><ele>33.0</ele><time>2026-04-18T08:27:49.371Z</time></trkpt><trkpt lat="33.4511373" lon="8.8686524"><ele>33.0</ele><time>2026-04-18T08:27:50.377Z</time></trkpt><trkpt lat="33.4510654" lon="8.8684786"><ele>33.0</ele><time>2026-04-18T08:27:51.366Z</time></trkpt><trkpt lat="33.4509931" lon="8.8683016"><ele>33.0</ele><time>2026-04-18T08:27:52.37Z</time></trkpt><trkpt lat="33.4509207" lon="8.8681217"><ele>33.0</ele><time>2026-04-18T08:27:53.365Z</time></trkpt><trkpt lat="33.450847" lon="8.8679388"><ele>33.0</ele><time>2026-04-18T08:27:54.375Z</time></trkpt><trkpt lat="33.4507708" lon="8.8677514"><ele>33.0</ele><time>2026-04-18T08:27:55.38Z</time></trkpt><trkpt lat="33.4506912" lon="8.867557"><ele>32.666666666666664</ele><time>2026-04-18T08:27:56.378Z</time></trkpt><trkpt lat="33.4506103" lon="8.8673593"><ele>32.33333333333333</ele><time>2026-04-18T08:27:57.376Z</time></trkpt><trkpt lat="33.450529" lon="8.8671583"><ele>32.0</ele><time>2026-04-18T08:27:58.374Z</time></trkpt><trkpt lat="33.4504454" lon="8.8669537"><ele>32.33333333333333</ele><time>2026-04-18T08:27:59.379Z</time></trkpt><trkpt lat="33.4503615" lon="8.8667494"><ele>32.666666666666664</ele><time>2026-04-18T08:28:00.383Z</time></trkpt><trkpt lat="33.4502779" lon="8.8665476"><ele>33.0</ele><time>2026-04-18T08:28:01.384Z</time></trkpt><trkpt lat="33.450194" lon="8.8663475"><ele>33.0</ele><time>2026-04-18T08:28:02.366Z</time></trkpt><trkpt lat="33.4501112" lon="8.8661496"><ele>33.0</ele><time>2026-04-18T08:28:03.376Z</time></trkpt><trkpt lat="33.4500296" lon="8.8659556"><ele>33.0</ele><time>2026-04-18T08:28:04.371Z</time></trkpt><trkpt lat="33.4499489" lon="8.86576"><ele>32.333333333333336</ele><time>2026-04-18T08:28:05.372Z</time></trkpt><trkpt lat="33.4498689" lon="8.8655619"><ele>31.666666666666668</ele><time>2026-04-18T08:28:06.375Z</time></trkpt><trkpt lat="33.4497878" lon="8.8653614"><ele>31.0</ele><time>2026-04-18T08:28:07.383Z</time></trkpt><trkpt lat="33.4497056" lon="8.8651594"><ele>31.333333333333336</ele><time>2026-04-18T08:28:08.371Z</time></trkpt><trkpt lat="33.4496215" lon="8.8649559"><ele>31.666666666666664</ele><time>2026-04-18T08:28:09.385Z</time></trkpt><trkpt lat="33.4495382" lon="8.8647512"><ele>32.0</ele><time>2026-04-18T08:28:10.379Z</time></trkpt><trkpt lat="33.449455" lon="8.8645447"><ele>32.0</ele><time>2026-04-18T08:28:11.375Z</time></trkpt><trkpt lat="33.4493704" lon="8.8643377"><ele>32.0</ele><time>2026-04-18T08:28:12.37Z</time></trkpt><trkpt lat="33.4492856" lon="8.8641294"><ele>32.0</ele><time>2026-04-18T08:28:13.368Z</time></trkpt><trkpt lat="33.4491999" lon="8.8639202"><ele>32.0</ele><time>2026-04-18T08:28:14.369Z</time></trkpt><trkpt lat="33.4491127" lon="8.863712"><ele>32.0</ele><time>2026-04-18T08:28:15.369Z</time></trkpt><trkpt lat="33.4490256" lon="8.8635055"><ele>32.0</ele><time>2026-04-18T08:28:16.368Z</time></trkpt><trkpt lat="33.4489404" lon="8.8633011"><ele>32.0</ele><time>2026-04-18T08:28:17.371Z</time></trkpt><trkpt lat="33.4488576" lon="8.8630975"><ele>32.0</ele><time>2026-04-18T08:28:18.369Z</time></trkpt><trkpt lat="33.4487732" lon="8.8629273"><ele>32.0</ele><time>2026-04-18T08:28:19.375Z</time></trkpt><trkpt lat="33.4486917" lon="8.8627341"><ele>32.0</ele><time>2026-04-18T08:28:20.367Z</time></trkpt><trkpt lat="33.4486115" lon="8.8625369"><ele>32.0</ele><time>2026-04-18T08:28:21.383Z</time></trkpt><trkpt lat="33.4485303" lon="8.8623336"><ele>32.0</ele><time>2026-04-18T08:28:22.367Z</time></trkpt><trkpt lat="33.4484479" lon="8.8621278"><ele>32.0</ele><time>2026-04-18T08:28:23.379Z</time></trkpt><trkpt lat="33.4483638" lon="8.8619205"><ele>32.0</ele><time>2026-04-18T08:28:24.374Z</time></trkpt><trkpt lat="33.4482787" lon="8.8617127"><ele>32.0</ele><time>2026-04-18T08:28:25.371Z</time></trkpt><trkpt lat="33.4481928" lon="8.8615"><ele>31.666666666666664</ele><time>2026-04-18T08:28:26.373Z</time></trkpt><trkpt lat="33.4481064" lon="8.8612894"><ele>31.333333333333336</ele><time>2026-04-18T08:28:27.38Z</time></trkpt><trkpt lat="33.448022" lon="8.8610778"><ele>31.0</ele><time>2026-04-18T08:28:28.374Z</time></trkpt><trkpt lat="33.4479349" lon="8.8608649"><ele>31.0</ele><time>2026-04-18T08:28:29.374Z</time></trkpt><trkpt lat="33.4478482" lon="8.8606513"><ele>31.0</ele><time>2026-04-18T08:28:30.383Z</time></trkpt><trkpt lat="33.4477625" lon="8.8604399"><ele>31.0</ele><time>2026-04-18T08:28:31.365Z</time></trkpt><trkpt lat="33.4476768" lon="8.8602324"><ele>30.0</ele><time>2026-04-18T08:28:32.366Z</time></trkpt><trkpt lat="33.4475926" lon="8.8600276"><ele>29.0</ele><time>2026-04-18T08:28:33.379Z</time></trkpt><trkpt lat="33.4475081" lon="8.8598232"><ele>28.0</ele><time>2026-04-18T08:28:34.374Z</time></trkpt><trkpt lat="33.4474245" lon="8.8596191"><ele>28.0</ele><time>2026-04-18T08:28:35.373Z</time></trkpt><trkpt lat="33.4473398" lon="8.859412"><ele>28.0</ele><time>2026-04-18T08:28:36.377Z</time></trkpt><trkpt lat="33.4472587" lon="8.8592034"><ele>28.0</ele><time>2026-04-18T08:28:37.423Z</time></trkpt><trkpt lat="33.4471766" lon="8.8589974"><ele>28.0</ele><time>2026-04-18T08:28:38.44Z</time></trkpt><trkpt lat="33.4470942" lon="8.8587913"><ele>28.0</ele><time>2026-04-18T08:28:39.391Z</time></trkpt><trkpt lat="33.4470127" lon="8.8585863"><ele>28.0</ele><time>2026-04-18T08:28:40.415Z</time></trkpt><trkpt lat="33.4469312" lon="8.858383"><ele>27.666666666666668</ele><time>2026-04-18T08:28:41.38Z</time></trkpt><trkpt lat="33.4468505" lon="8.8581759"><ele>27.333333333333336</ele><time>2026-04-18T08:28:42.4Z</time></trkpt><trkpt lat="33.4467722" lon="8.8579641"><ele>27.0</ele><time>2026-04-18T08:28:43.401Z</time></trkpt><trkpt lat="33.4466957" lon="8.8577493"><ele>27.333333333333336</ele><time>2026-04-18T08:28:44.41Z</time></trkpt><trkpt lat="33.4466201" lon="8.8575394"><ele>27.666666666666668</ele><time>2026-04-18T08:28:45.402Z</time></trkpt><trkpt lat="33.4465495" lon="8.8573345"><ele>28.0</ele><time>2026-04-18T08:28:46.374Z</time></trkpt><trkpt lat="33.4464833" lon="8.8571318"><ele>28.0</ele><time>2026-04-18T08:28:47.371Z</time></trkpt><trkpt lat="33.4464171" lon="8.8569303"><ele>28.0</ele><time>2026-04-18T08:28:48.379Z</time></trkpt><trkpt lat="33.4463497" lon="8.8567317"><ele>28.0</ele><time>2026-04-18T08:28:49.378Z</time></trkpt><trkpt lat="33.4462808" lon="8.8565332"><ele>27.666666666666668</ele><time>2026-04-18T08:28:50.367Z</time></trkpt><trkpt lat="33.446207" lon="8.8563345"><ele>27.333333333333336</ele><time>2026-04-18T08:28:51.378Z</time></trkpt><trkpt lat="33.4461302" lon="8.8561392"><ele>27.0</ele><time>2026-04-18T08:28:52.369Z</time></trkpt><trkpt lat="33.446052" lon="8.8559512"><ele>27.666666666666664</ele><time>2026-04-18T08:28:53.371Z</time></trkpt><trkpt lat="33.4459682" lon="8.8557705"><ele>28.333333333333332</ele><time>2026-04-18T08:28:54.37Z</time></trkpt><trkpt lat="33.4458763" lon="8.8555957"><ele>29.0</ele><time>2026-04-18T08:28:55.375Z</time></trkpt><trkpt lat="33.4457742" lon="8.8554262"><ele>29.0</ele><time>2026-04-18T08:28:56.371Z</time></trkpt><trkpt lat="33.4456633" lon="8.855262"><ele>29.0</ele><time>2026-04-18T08:28:57.374Z</time></trkpt><trkpt lat="33.4455463" lon="8.8551026"><ele>29.0</ele><time>2026-04-18T08:28:58.375Z</time></trkpt><trkpt lat="33.4454283" lon="8.8549467"><ele>29.0</ele><time>2026-04-18T08:28:59.367Z</time></trkpt><trkpt lat="33.4453107" lon="8.854794"><ele>29.0</ele><time>2026-04-18T08:29:00.377Z</time></trkpt><trkpt lat="33.4451922" lon="8.8546442"><ele>29.0</ele><time>2026-04-18T08:29:01.375Z</time></trkpt><trkpt lat="33.4450699" lon="8.8544919"><ele>29.0</ele><time>2026-04-18T08:29:02.373Z</time></trkpt><trkpt lat="33.4449466" lon="8.8543369"><ele>29.0</ele><time>2026-04-18T08:29:03.377Z</time></trkpt><trkpt lat="33.444826" lon="8.8541841"><ele>29.0</ele><time>2026-04-18T08:29:04.368Z</time></trkpt><trkpt lat="33.4447072" lon="8.854033"><ele>29.666666666666664</ele><time>2026-04-18T08:29:05.373Z</time></trkpt><trkpt lat="33.4445906" lon="8.8538852"><ele>30.333333333333336</ele><time>2026-04-18T08:29:06.38Z</time></trkpt><trkpt lat="33.4444746" lon="8.8537381"><ele>31.0</ele><time>2026-04-18T08:29:07.378Z</time></trkpt><trkpt lat="33.4443602" lon="8.853591"><ele>29.0</ele><time>2026-04-18T08:29:08.37Z</time></trkpt><trkpt lat="33.4442476" lon="8.8534443"><ele>27.0</ele><time>2026-04-18T08:29:09.373Z</time></trkpt><trkpt lat="33.4441354" lon="8.8532999"><ele>25.0</ele><time>2026-04-18T08:29:10.377Z</time></trkpt><trkpt lat="33.4440244" lon="8.8531573"><ele>25.0</ele><time>2026-04-18T08:29:11.367Z</time></trkpt><trkpt lat="33.4439157" lon="8.8530145"><ele>25.0</ele><time>2026-04-18T08:29:12.376Z</time></trkpt><trkpt lat="33.4438076" lon="8.8528732"><ele>25.0</ele><time>2026-04-18T08:29:13.373Z</time></trkpt><trkpt lat="33.4436992" lon="8.8527294"><ele>25.666666666666668</ele><time>2026-04-18T08:29:14.371Z</time></trkpt><trkpt lat="33.4435886" lon="8.8525776"><ele>26.333333333333336</ele><time>2026-04-18T08:29:15.377Z</time></trkpt><trkpt lat="33.4434735" lon="8.8524165"><ele>27.0</ele><time>2026-04-18T08:29:16.378Z</time></trkpt><trkpt lat="33.4433545" lon="8.8522476"><ele>27.0</ele><time>2026-04-18T08:29:17.369Z</time></trkpt><trkpt lat="33.4432361" lon="8.8520733"><ele>27.0</ele><time>2026-04-18T08:29:18.371Z</time></trkpt><trkpt lat="33.4431172" lon="8.8518958"><ele>27.0</ele><time>2026-04-18T08:29:19.375Z</time></trkpt><trkpt lat="33.442999" lon="8.8517198"><ele>26.666666666666664</ele><time>2026-04-18T08:29:20.366Z</time></trkpt><trkpt lat="33.4428823" lon="8.8515446"><ele>26.333333333333332</ele><time>2026-04-18T08:29:21.369Z</time></trkpt><trkpt lat="33.4427677" lon="8.8513703"><ele>26.0</ele><time>2026-04-18T08:29:22.372Z</time></trkpt><trkpt lat="33.4426552" lon="8.8511994"><ele>26.0</ele><time>2026-04-18T08:29:23.376Z</time></trkpt><trkpt lat="33.4425445" lon="8.8510311"><ele>26.0</ele><time>2026-04-18T08:29:24.386Z</time></trkpt><trkpt lat="33.442435" lon="8.8508625"><ele>26.0</ele><time>2026-04-18T08:29:25.382Z</time></trkpt><trkpt lat="33.4423249" lon="8.8506919"><ele>26.0</ele><time>2026-04-18T08:29:26.376Z</time></trkpt><trkpt lat="33.4422124" lon="8.8505191"><ele>26.0</ele><time>2026-04-18T08:29:27.372Z</time></trkpt><trkpt lat="33.4420985" lon="8.8503426"><ele>26.0</ele><time>2026-04-18T08:29:28.377Z</time></trkpt><trkpt lat="33.4419838" lon="8.8501623"><ele>26.666666666666664</ele><time>2026-04-18T08:29:29.375Z</time></trkpt><trkpt lat="33.4418701" lon="8.8499772"><ele>27.333333333333336</ele><time>2026-04-18T08:29:30.375Z</time></trkpt><trkpt lat="33.4417556" lon="8.84979"><ele>28.0</ele><time>2026-04-18T08:29:31.372Z</time></trkpt><trkpt lat="33.4416408" lon="8.8496019"><ele>28.0</ele><time>2026-04-18T08:29:32.373Z</time></trkpt><trkpt lat="33.4415292" lon="8.8494126"><ele>28.0</ele><time>2026-04-18T08:29:33.368Z</time></trkpt><trkpt lat="33.4414221" lon="8.8492221"><ele>28.0</ele><time>2026-04-18T08:29:34.377Z</time></trkpt><trkpt lat="33.4413186" lon="8.8490311"><ele>27.666666666666668</ele><time>2026-04-18T08:29:35.376Z</time></trkpt><trkpt lat="33.441218" lon="8.8488422"><ele>27.333333333333336</ele><time>2026-04-18T08:29:36.368Z</time></trkpt><trkpt lat="33.4411194" lon="8.8486553"><ele>27.0</ele><time>2026-04-18T08:29:37.374Z</time></trkpt><trkpt lat="33.4410215" lon="8.8484679"><ele>27.0</ele><time>2026-04-18T08:29:38.374Z</time></trkpt><trkpt lat="33.4409237" lon="8.8482801"><ele>27.0</ele><time>2026-04-18T08:29:39.369Z</time></trkpt><trkpt lat="33.4408276" lon="8.8480934"><ele>27.0</ele><time>2026-04-18T08:29:40.378Z</time></trkpt><trkpt lat="33.4407329" lon="8.8479089"><ele>27.0</ele><time>2026-04-18T08:29:41.376Z</time></trkpt><trkpt lat="33.4406396" lon="8.8477257"><ele>27.0</ele><time>2026-04-18T08:29:42.37Z</time></trkpt><trkpt lat="33.4405476" lon="8.8475424"><ele>27.0</ele><time>2026-04-18T08:29:43.371Z</time></trkpt><trkpt lat="33.4404542" lon="8.8473593"><ele>27.0</ele><time>2026-04-18T08:29:44.363Z</time></trkpt><trkpt lat="33.4403607" lon="8.8471789"><ele>27.0</ele><time>2026-04-18T08:29:45.375Z</time></trkpt><trkpt lat="33.4402689" lon="8.8470011"><ele>27.0</ele><time>2026-04-18T08:29:46.375Z</time></trkpt><trkpt lat="33.4401791" lon="8.8468232"><ele>26.333333333333336</ele><time>2026-04-18T08:29:47.374Z</time></trkpt><trkpt lat="33.4400898" lon="8.846646"><ele>25.666666666666668</ele><time>2026-04-18T08:29:48.375Z</time></trkpt><trkpt lat="33.4400003" lon="8.8464696"><ele>25.0</ele><time>2026-04-18T08:29:49.382Z</time></trkpt><trkpt lat="33.4399083" lon="8.8462922"><ele>25.0</ele><time>2026-04-18T08:29:50.371Z</time></trkpt><trkpt lat="33.4398131" lon="8.846112"><ele>25.0</ele><time>2026-04-18T08:29:51.378Z</time></trkpt><trkpt lat="33.439716" lon="8.8459279"><ele>25.0</ele><time>2026-04-18T08:29:52.373Z</time></trkpt><trkpt lat="33.4396165" lon="8.8457411"><ele>25.666666666666668</ele><time>2026-04-18T08:29:53.367Z</time></trkpt><trkpt lat="33.439514" lon="8.8455529"><ele>26.333333333333336</ele><time>2026-04-18T08:29:54.374Z</time></trkpt><trkpt lat="33.4394066" lon="8.8453645"><ele>27.0</ele><time>2026-04-18T08:29:55.378Z</time></trkpt><trkpt lat="33.4392929" lon="8.8451784"><ele>27.0</ele><time>2026-04-18T08:29:56.367Z</time></trkpt><trkpt lat="33.439173" lon="8.8449946"><ele>27.0</ele><time>2026-04-18T08:29:57.377Z</time></trkpt><trkpt lat="33.4390496" lon="8.8448134"><ele>27.0</ele><time>2026-04-18T08:29:58.378Z</time></trkpt><trkpt lat="33.4389248" lon="8.8446358"><ele>27.0</ele><time>2026-04-18T08:29:59.374Z</time></trkpt><trkpt lat="33.4387992" lon="8.844462"><ele>27.0</ele><time>2026-04-18T08:30:00.367Z</time></trkpt><trkpt lat="33.438673" lon="8.8442915"><ele>27.0</ele><time>2026-04-18T08:30:01.366Z</time></trkpt><trkpt lat="33.4385478" lon="8.8441234"><ele>27.0</ele><time>2026-04-18T08:30:02.383Z</time></trkpt><trkpt lat="33.4384244" lon="8.8439587"><ele>27.0</ele><time>2026-04-18T08:30:03.366Z</time></trkpt><trkpt lat="33.4383026" lon="8.8437962"><ele>27.0</ele><time>2026-04-18T08:30:04.375Z</time></trkpt><trkpt lat="33.4381815" lon="8.8436348"><ele>27.0</ele><time>2026-04-18T08:30:05.374Z</time></trkpt><trkpt lat="33.4380601" lon="8.8434728"><ele>27.0</ele><time>2026-04-18T08:30:06.375Z</time></trkpt><trkpt lat="33.4379381" lon="8.8433114"><ele>27.0</ele><time>2026-04-18T08:30:07.37Z</time></trkpt><trkpt lat="33.4378167" lon="8.8431512"><ele>27.0</ele><time>2026-04-18T08:30:08.37Z</time></trkpt><trkpt lat="33.4376961" lon="8.8429916"><ele>27.0</ele><time>2026-04-18T08:30:09.375Z</time></trkpt><trkpt lat="33.4375764" lon="8.8428331"><ele>27.0</ele><time>2026-04-18T08:30:10.374Z</time></trkpt><trkpt lat="33.4374567" lon="8.842676"><ele>27.0</ele><time>2026-04-18T08:30:11.369Z</time></trkpt><trkpt lat="33.437337" lon="8.8425194"><ele>27.0</ele><time>2026-04-18T08:30:12.371Z</time></trkpt><trkpt lat="33.4372178" lon="8.8423627"><ele>27.0</ele><time>2026-04-18T08:30:13.373Z</time></trkpt><trkpt lat="33.4370989" lon="8.8422045"><ele>27.333333333333336</ele><time>2026-04-18T08:30:14.377Z</time></trkpt><trkpt lat="33.4369792" lon="8.8420455"><ele>27.666666666666668</ele><time>2026-04-18T08:30:15.371Z</time></trkpt><trkpt lat="33.4368591" lon="8.8418857"><ele>28.0</ele><time>2026-04-18T08:30:16.375Z</time></trkpt><trkpt lat="33.4367391" lon="8.8417243"><ele>28.0</ele><time>2026-04-18T08:30:17.373Z</time></trkpt><trkpt lat="33.4366191" lon="8.8415634"><ele>28.0</ele><time>2026-04-18T08:30:18.371Z</time></trkpt><trkpt lat="33.4364983" lon="8.8414045"><ele>28.0</ele><time>2026-04-18T08:30:19.377Z</time></trkpt><trkpt lat="33.4363784" lon="8.8412467"><ele>28.0</ele><time>2026-04-18T08:30:20.366Z</time></trkpt><trkpt lat="33.4362579" lon="8.8410909"><ele>28.0</ele><time>2026-04-18T08:30:21.367Z</time></trkpt><trkpt lat="33.4361381" lon="8.8409356"><ele>28.0</ele><time>2026-04-18T08:30:22.369Z</time></trkpt><trkpt lat="33.436019" lon="8.8407788"><ele>28.333333333333336</ele><time>2026-04-18T08:30:23.369Z</time></trkpt><trkpt lat="33.4358985" lon="8.8406207"><ele>28.666666666666664</ele><time>2026-04-18T08:30:24.366Z</time></trkpt><trkpt lat="33.4357781" lon="8.8404642"><ele>29.0</ele><time>2026-04-18T08:30:25.377Z</time></trkpt><trkpt lat="33.4356578" lon="8.8403078"><ele>29.0</ele><time>2026-04-18T08:30:26.369Z</time></trkpt><trkpt lat="33.435537" lon="8.8401502"><ele>29.0</ele><time>2026-04-18T08:30:27.376Z</time></trkpt><trkpt lat="33.435416" lon="8.8399917"><ele>29.0</ele><time>2026-04-18T08:30:28.37Z</time></trkpt><trkpt lat="33.4352956" lon="8.839834"><ele>28.666666666666664</ele><time>2026-04-18T08:30:29.369Z</time></trkpt><trkpt lat="33.4351765" lon="8.8396774"><ele>28.333333333333336</ele><time>2026-04-18T08:30:30.375Z</time></trkpt><trkpt lat="33.4350574" lon="8.8395225"><ele>28.0</ele><time>2026-04-18T08:30:31.365Z</time></trkpt><trkpt lat="33.434938" lon="8.8393688"><ele>28.333333333333336</ele><time>2026-04-18T08:30:32.369Z</time></trkpt><trkpt lat="33.4348185" lon="8.839216"><ele>28.666666666666664</ele><time>2026-04-18T08:30:33.371Z</time></trkpt><trkpt lat="33.4347" lon="8.8390628"><ele>29.0</ele><time>2026-04-18T08:30:34.368Z</time></trkpt><trkpt lat="33.4345827" lon="8.838909"><ele>29.0</ele><time>2026-04-18T08:30:35.373Z</time></trkpt><trkpt lat="33.4344646" lon="8.8387554"><ele>29.0</ele><time>2026-04-18T08:30:36.366Z</time></trkpt><trkpt lat="33.4343446" lon="8.8386002"><ele>29.0</ele><time>2026-04-18T08:30:37.375Z</time></trkpt><trkpt lat="33.4342231" lon="8.8384428"><ele>29.333333333333332</ele><time>2026-04-18T08:30:38.374Z</time></trkpt><trkpt lat="33.4341007" lon="8.8382826"><ele>29.666666666666664</ele><time>2026-04-18T08:30:39.371Z</time></trkpt><trkpt lat="33.4339777" lon="8.8381194"><ele>30.0</ele><time>2026-04-18T08:30:40.371Z</time></trkpt><trkpt lat="33.4338536" lon="8.8379546"><ele>29.333333333333336</ele><time>2026-04-18T08:30:41.383Z</time></trkpt><trkpt lat="33.433729" lon="8.8377911"><ele>28.666666666666668</ele><time>2026-04-18T08:30:42.366Z</time></trkpt><trkpt lat="33.4336069" lon="8.8376319"><ele>28.0</ele><time>2026-04-18T08:30:43.362Z</time></trkpt><trkpt lat="33.4334876" lon="8.8374764"><ele>28.0</ele><time>2026-04-18T08:30:44.365Z</time></trkpt><trkpt lat="33.4333704" lon="8.8373239"><ele>28.0</ele><time>2026-04-18T08:30:45.369Z</time></trkpt><trkpt lat="33.4332566" lon="8.837173"><ele>28.0</ele><time>2026-04-18T08:30:46.367Z</time></trkpt><trkpt lat="33.4331469" lon="8.837023"><ele>28.0</ele><time>2026-04-18T08:30:47.369Z</time></trkpt><trkpt lat="33.433043" lon="8.8368706"><ele>28.0</ele><time>2026-04-18T08:30:48.362Z</time></trkpt><trkpt lat="33.4329424" lon="8.8367153"><ele>28.0</ele><time>2026-04-18T08:30:49.37Z</time></trkpt><trkpt lat="33.4328432" lon="8.8365535"><ele>28.333333333333336</ele><time>2026-04-18T08:30:50.367Z</time></trkpt><trkpt lat="33.4327456" lon="8.8363844"><ele>28.666666666666664</ele><time>2026-04-18T08:30:51.371Z</time></trkpt><trkpt lat="33.4326497" lon="8.8362075"><ele>29.0</ele><time>2026-04-18T08:30:52.371Z</time></trkpt><trkpt lat="33.4325563" lon="8.8360238"><ele>29.0</ele><time>2026-04-18T08:30:53.37Z</time></trkpt><trkpt lat="33.4324677" lon="8.8358367"><ele>29.0</ele><time>2026-04-18T08:30:54.36Z</time></trkpt><trkpt lat="33.4323851" lon="8.8356424"><ele>29.0</ele><time>2026-04-18T08:30:55.364Z</time></trkpt><trkpt lat="33.4323072" lon="8.8354362"><ele>29.0</ele><time>2026-04-18T08:30:56.365Z</time></trkpt><trkpt lat="33.4322367" lon="8.8352293"><ele>29.0</ele><time>2026-04-18T08:30:57.369Z</time></trkpt><trkpt lat="33.4321765" lon="8.8350208"><ele>29.0</ele><time>2026-04-18T08:30:58.363Z</time></trkpt><trkpt lat="33.4321293" lon="8.8348072"><ele>29.0</ele><time>2026-04-18T08:30:59.368Z</time></trkpt><trkpt lat="33.4320957" lon="8.8345927"><ele>29.0</ele><time>2026-04-18T08:31:00.366Z</time></trkpt><trkpt lat="33.4320739" lon="8.8343766"><ele>29.0</ele><time>2026-04-18T08:31:01.368Z</time></trkpt><trkpt lat="33.4320603" lon="8.8341572"><ele>29.0</ele><time>2026-04-18T08:31:02.363Z</time></trkpt><trkpt lat="33.4320512" lon="8.8339387"><ele>29.0</ele><time>2026-04-18T08:31:03.367Z</time></trkpt><trkpt lat="33.4320458" lon="8.8337282"><ele>29.0</ele><time>2026-04-18T08:31:04.369Z</time></trkpt><trkpt lat="33.4320412" lon="8.8335234"><ele>30.0</ele><time>2026-04-18T08:31:05.362Z</time></trkpt><trkpt lat="33.4320359" lon="8.8333208"><ele>31.0</ele><time>2026-04-18T08:31:06.364Z</time></trkpt><trkpt lat="33.4320308" lon="8.8331195"><ele>32.0</ele><time>2026-04-18T08:31:07.371Z</time></trkpt><trkpt lat="33.4320254" lon="8.8329141"><ele>32.0</ele><time>2026-04-18T08:31:08.375Z</time></trkpt><trkpt lat="33.4320195" lon="8.8327018"><ele>32.0</ele><time>2026-04-18T08:31:09.364Z</time></trkpt><trkpt lat="33.4320139" lon="8.832483"><ele>32.0</ele><time>2026-04-18T08:31:10.365Z</time></trkpt><trkpt lat="33.4320098" lon="8.8322598"><ele>32.33333333333333</ele><time>2026-04-18T08:31:11.363Z</time></trkpt><trkpt lat="33.4320063" lon="8.8320335"><ele>32.666666666666664</ele><time>2026-04-18T08:31:12.365Z</time></trkpt><trkpt lat="33.4320019" lon="8.8318064"><ele>33.0</ele><time>2026-04-18T08:31:13.371Z</time></trkpt><trkpt lat="33.4319975" lon="8.8315831"><ele>33.666666666666664</ele><time>2026-04-18T08:31:14.365Z</time></trkpt><trkpt lat="33.431994" lon="8.8313621"><ele>34.33333333333333</ele><time>2026-04-18T08:31:15.366Z</time></trkpt><trkpt lat="33.4319893" lon="8.8311406"><ele>35.0</ele><time>2026-04-18T08:31:16.361Z</time></trkpt><trkpt lat="33.4319835" lon="8.830918"><ele>35.0</ele><time>2026-04-18T08:31:17.37Z</time></trkpt><trkpt lat="33.4319774" lon="8.8306942"><ele>35.0</ele><time>2026-04-18T08:31:18.368Z</time></trkpt><trkpt lat="33.4319719" lon="8.8304686"><ele>35.0</ele><time>2026-04-18T08:31:19.363Z</time></trkpt><trkpt lat="33.431965" lon="8.8302388"><ele>34.666666666666664</ele><time>2026-04-18T08:31:20.371Z</time></trkpt><trkpt lat="33.4319574" lon="8.8300077"><ele>34.333333333333336</ele><time>2026-04-18T08:31:21.368Z</time></trkpt><trkpt lat="33.4319499" lon="8.8297753"><ele>34.0</ele><time>2026-04-18T08:31:22.371Z</time></trkpt><trkpt lat="33.4319417" lon="8.8295419"><ele>34.0</ele><time>2026-04-18T08:31:23.368Z</time></trkpt><trkpt lat="33.4319335" lon="8.8293079"><ele>34.0</ele><time>2026-04-18T08:31:24.367Z</time></trkpt><trkpt lat="33.4319226" lon="8.8290704"><ele>34.0</ele><time>2026-04-18T08:31:25.375Z</time></trkpt><trkpt lat="33.43191" lon="8.8288301"><ele>34.0</ele><time>2026-04-18T08:31:26.365Z</time></trkpt><trkpt lat="33.4318976" lon="8.8285901"><ele>34.0</ele><time>2026-04-18T08:31:27.362Z</time></trkpt><trkpt lat="33.4318843" lon="8.8283511"><ele>34.0</ele><time>2026-04-18T08:31:28.363Z</time></trkpt><trkpt lat="33.4318699" lon="8.8281136"><ele>35.0</ele><time>2026-04-18T08:31:29.369Z</time></trkpt><trkpt lat="33.4318556" lon="8.8278872"><ele>36.0</ele><time>2026-04-18T08:31:30.359Z</time></trkpt><trkpt lat="33.4318427" lon="8.8276717"><ele>37.0</ele><time>2026-04-18T08:31:31.365Z</time></trkpt><trkpt lat="33.4318308" lon="8.82746"><ele>38.0</ele><time>2026-04-18T08:31:32.363Z</time></trkpt><trkpt lat="33.4318182" lon="8.8272475"><ele>39.0</ele><time>2026-04-18T08:31:33.364Z</time></trkpt><trkpt lat="33.4318071" lon="8.8270307"><ele>40.0</ele><time>2026-04-18T08:31:34.365Z</time></trkpt><trkpt lat="33.431797" lon="8.8268079"><ele>40.0</ele><time>2026-04-18T08:31:35.365Z</time></trkpt><trkpt lat="33.4317869" lon="8.8265847"><ele>40.0</ele><time>2026-04-18T08:31:36.372Z</time></trkpt><trkpt lat="33.4317765" lon="8.82636"><ele>40.0</ele><time>2026-04-18T08:31:37.362Z</time></trkpt><trkpt lat="33.4317657" lon="8.8261319"><ele>40.0</ele><time>2026-04-18T08:31:38.366Z</time></trkpt><trkpt lat="33.4317543" lon="8.8259014"><ele>40.0</ele><time>2026-04-18T08:31:39.365Z</time></trkpt><trkpt lat="33.4317424" lon="8.8256721"><ele>40.0</ele><time>2026-04-18T08:31:40.369Z</time></trkpt><trkpt lat="33.4317305" lon="8.8254429"><ele>40.0</ele><time>2026-04-18T08:31:41.362Z</time></trkpt><trkpt lat="33.4317184" lon="8.8252115"><ele>40.0</ele><time>2026-04-18T08:31:42.369Z</time></trkpt><trkpt lat="33.4317071" lon="8.8249756"><ele>40.0</ele><time>2026-04-18T08:31:43.376Z</time></trkpt><trkpt lat="33.4316958" lon="8.8247372"><ele>40.66666666666667</ele><time>2026-04-18T08:31:44.371Z</time></trkpt><trkpt lat="33.4316806" lon="8.8245267"><ele>41.333333333333336</ele><time>2026-04-18T08:31:45.37Z</time></trkpt><trkpt lat="33.4316605" lon="8.8243023"><ele>42.0</ele><time>2026-04-18T08:31:46.368Z</time></trkpt><trkpt lat="33.4316389" lon="8.8240663"><ele>42.333333333333336</ele><time>2026-04-18T08:31:47.368Z</time></trkpt><trkpt lat="33.431615" lon="8.8238303"><ele>42.66666666666667</ele><time>2026-04-18T08:31:48.369Z</time></trkpt><trkpt lat="33.4315898" lon="8.8235842"><ele>43.0</ele><time>2026-04-18T08:31:49.371Z</time></trkpt><trkpt lat="33.431559" lon="8.8233347"><ele>43.0</ele><time>2026-04-18T08:31:50.369Z</time></trkpt><trkpt lat="33.4315244" lon="8.8230757"><ele>43.0</ele><time>2026-04-18T08:31:51.374Z</time></trkpt><trkpt lat="33.4314898" lon="8.822809"><ele>43.0</ele><time>2026-04-18T08:31:52.376Z</time></trkpt><trkpt lat="33.4314573" lon="8.8225577"><ele>43.66666666666667</ele><time>2026-04-18T08:31:53.372Z</time></trkpt><trkpt lat="33.4314264" lon="8.8223088"><ele>44.333333333333336</ele><time>2026-04-18T08:31:54.368Z</time></trkpt><trkpt lat="33.4313965" lon="8.8220642"><ele>45.0</ele><time>2026-04-18T08:31:55.364Z</time></trkpt><trkpt lat="33.4313665" lon="8.8218244"><ele>44.666666666666664</ele><time>2026-04-18T08:31:56.371Z</time></trkpt><trkpt lat="33.4313362" lon="8.8215878"><ele>44.33333333333333</ele><time>2026-04-18T08:31:57.372Z</time></trkpt><trkpt lat="33.4313011" lon="8.8213458"><ele>44.0</ele><time>2026-04-18T08:31:58.37Z</time></trkpt><trkpt lat="33.4312755" lon="8.8211062"><ele>44.33333333333333</ele><time>2026-04-18T08:31:59.373Z</time></trkpt><trkpt lat="33.4312451" lon="8.8208657"><ele>44.666666666666664</ele><time>2026-04-18T08:32:00.374Z</time></trkpt><trkpt lat="33.4312132" lon="8.8206264"><ele>45.0</ele><time>2026-04-18T08:32:01.369Z</time></trkpt><trkpt lat="33.4311792" lon="8.8203875"><ele>44.333333333333336</ele><time>2026-04-18T08:32:02.369Z</time></trkpt><trkpt lat="33.4311473" lon="8.8201478"><ele>43.66666666666667</ele><time>2026-04-18T08:32:03.369Z</time></trkpt><trkpt lat="33.4311159" lon="8.8199039"><ele>43.0</ele><time>2026-04-18T08:32:04.363Z</time></trkpt><trkpt lat="33.431085" lon="8.8196582"><ele>43.0</ele><time>2026-04-18T08:32:05.372Z</time></trkpt><trkpt lat="33.431055" lon="8.819429"><ele>43.0</ele><time>2026-04-18T08:32:06.374Z</time></trkpt><trkpt lat="33.4310286" lon="8.8192113"><ele>43.0</ele><time>2026-04-18T08:32:07.371Z</time></trkpt><trkpt lat="33.4310025" lon="8.8189969"><ele>41.66666666666667</ele><time>2026-04-18T08:32:08.37Z</time></trkpt><trkpt lat="33.4309765" lon="8.818779"><ele>40.333333333333336</ele><time>2026-04-18T08:32:09.369Z</time></trkpt><trkpt lat="33.4309498" lon="8.8185676"><ele>39.0</ele><time>2026-04-18T08:32:10.376Z</time></trkpt><trkpt lat="33.4309226" lon="8.8183662"><ele>38.333333333333336</ele><time>2026-04-18T08:32:11.373Z</time></trkpt><trkpt lat="33.4308935" lon="8.8181724"><ele>37.66666666666667</ele><time>2026-04-18T08:32:12.37Z</time></trkpt><trkpt lat="33.4308617" lon="8.8179775"><ele>37.0</ele><time>2026-04-18T08:32:13.374Z</time></trkpt><trkpt lat="33.4308276" lon="8.8177828"><ele>37.333333333333336</ele><time>2026-04-18T08:32:14.371Z</time></trkpt><trkpt lat="33.4307902" lon="8.817585"><ele>37.666666666666664</ele><time>2026-04-18T08:32:15.368Z</time></trkpt><trkpt lat="33.43075" lon="8.8173875"><ele>38.0</ele><time>2026-04-18T08:32:16.366Z</time></trkpt><trkpt lat="33.4307086" lon="8.8171884"><ele>38.0</ele><time>2026-04-18T08:32:17.362Z</time></trkpt><trkpt lat="33.4306661" lon="8.8169915"><ele>38.0</ele><time>2026-04-18T08:32:18.369Z</time></trkpt><trkpt lat="33.4306246" lon="8.8167942"><ele>38.0</ele><time>2026-04-18T08:32:19.373Z</time></trkpt><trkpt lat="33.4305828" lon="8.8166025"><ele>37.666666666666664</ele><time>2026-04-18T08:32:20.368Z</time></trkpt><trkpt lat="33.4305387" lon="8.8164109"><ele>37.333333333333336</ele><time>2026-04-18T08:32:21.369Z</time></trkpt><trkpt lat="33.4305007" lon="8.8162263"><ele>37.0</ele><time>2026-04-18T08:32:22.368Z</time></trkpt><trkpt lat="33.4304618" lon="8.8160477"><ele>36.25</ele><time>2026-04-18T08:32:23.368Z</time></trkpt><trkpt lat="33.4304236" lon="8.8158814"><ele>35.5</ele><time>2026-04-18T08:32:24.374Z</time></trkpt><trkpt lat="33.4303874" lon="8.8157228"><ele>34.75</ele><time>2026-04-18T08:32:25.365Z</time></trkpt><trkpt lat="33.4303516" lon="8.8155691"><ele>34.0</ele><time>2026-04-18T08:32:26.371Z</time></trkpt><trkpt lat="33.4303195" lon="8.8154186"><ele>34.0</ele><time>2026-04-18T08:32:27.372Z</time></trkpt><trkpt lat="33.4302885" lon="8.8152716"><ele>34.0</ele><time>2026-04-18T08:32:28.375Z</time></trkpt><trkpt lat="33.4302581" lon="8.8151288"><ele>34.0</ele><time>2026-04-18T08:32:29.367Z</time></trkpt><trkpt lat="33.430226" lon="8.8149907"><ele>34.0</ele><time>2026-04-18T08:32:30.371Z</time></trkpt><trkpt lat="33.4301925" lon="8.8148565"><ele>33.5</ele><time>2026-04-18T08:32:31.369Z</time></trkpt><trkpt lat="33.4301648" lon="8.8147217"><ele>33.0</ele><time>2026-04-18T08:32:32.365Z</time></trkpt><trkpt lat="33.4301362" lon="8.8145896"><ele>32.5</ele><time>2026-04-18T08:32:33.371Z</time></trkpt><trkpt lat="33.430107" lon="8.8144579"><ele>32.0</ele><time>2026-04-18T08:32:34.369Z</time></trkpt><trkpt lat="33.430078" lon="8.8143246"><ele>32.0</ele><time>2026-04-18T08:32:35.371Z</time></trkpt><trkpt lat="33.4300501" lon="8.8141922"><ele>32.0</ele><time>2026-04-18T08:32:36.365Z</time></trkpt><trkpt lat="33.4300217" lon="8.8140656"><ele>32.0</ele><time>2026-04-18T08:32:37.378Z</time></trkpt><trkpt lat="33.4299953" lon="8.8139422"><ele>32.0</ele><time>2026-04-18T08:32:38.377Z</time></trkpt><trkpt lat="33.4299718" lon="8.8138216"><ele>32.0</ele><time>2026-04-18T08:32:39.372Z</time></trkpt><trkpt lat="33.4299496" lon="8.8137074"><ele>31.999999999999996</ele><time>2026-04-18T08:32:40.372Z</time></trkpt><trkpt lat="33.4299284" lon="8.8136092"><ele>32.0</ele><time>2026-04-18T08:32:41.377Z</time></trkpt><trkpt lat="33.4299097" lon="8.8135218"><ele>32.0</ele><time>2026-04-18T08:32:42.373Z</time></trkpt><trkpt lat="33.4298903" lon="8.8134448"><ele>32.0</ele><time>2026-04-18T08:32:43.38Z</time></trkpt><trkpt lat="33.4298741" lon="8.8133698"><ele>31.999999999999996</ele><time>2026-04-18T08:32:44.368Z</time></trkpt><trkpt lat="33.4298522" lon="8.8132796"><ele>32.0</ele><time>2026-04-18T08:32:45.394Z</time></trkpt><trkpt lat="33.4298321" lon="8.8131813"><ele>32.0</ele><time>2026-04-18T08:32:46.379Z</time></trkpt><trkpt lat="33.4298102" lon="8.8130753"><ele>32.0</ele><time>2026-04-18T08:32:47.379Z</time></trkpt><trkpt lat="33.4297871" lon="8.8129615"><ele>32.0</ele><time>2026-04-18T08:32:48.376Z</time></trkpt><trkpt lat="33.4297619" lon="8.8128439"><ele>32.0</ele><time>2026-04-18T08:32:49.376Z</time></trkpt><trkpt lat="33.4297376" lon="8.812726"><ele>32.0</ele><time>2026-04-18T08:32:50.375Z</time></trkpt><trkpt lat="33.4297137" lon="8.8126084"><ele>32.0</ele><time>2026-04-18T08:32:51.373Z</time></trkpt><trkpt lat="33.4296893" lon="8.8124858"><ele>32.0</ele><time>2026-04-18T08:32:52.371Z</time></trkpt><trkpt lat="33.4296594" lon="8.8123249"><ele>32.0</ele><time>2026-04-18T08:32:53.378Z</time></trkpt><trkpt lat="33.4296209" lon="8.8121658"><ele>32.0</ele><time>2026-04-18T08:32:54.367Z</time></trkpt><trkpt lat="33.4295883" lon="8.8119994"><ele>31.75</ele><time>2026-04-18T08:32:55.377Z</time></trkpt><trkpt lat="33.4295549" lon="8.8118329"><ele>31.5</ele><time>2026-04-18T08:32:56.377Z</time></trkpt><trkpt lat="33.4295206" lon="8.8116582"><ele>31.25</ele><time>2026-04-18T08:32:57.369Z</time></trkpt><trkpt lat="33.4294847" lon="8.8114825"><ele>31.0</ele><time>2026-04-18T08:32:58.374Z</time></trkpt><trkpt lat="33.4294516" lon="8.8113076"><ele>30.333333333333336</ele><time>2026-04-18T08:32:59.372Z</time></trkpt><trkpt lat="33.4294156" lon="8.811128"><ele>29.666666666666664</ele><time>2026-04-18T08:33:00.377Z</time></trkpt><trkpt lat="33.4293812" lon="8.810942"><ele>29.0</ele><time>2026-04-18T08:33:01.373Z</time></trkpt><trkpt lat="33.4293484" lon="8.8107505"><ele>29.0</ele><time>2026-04-18T08:33:02.37Z</time></trkpt><trkpt lat="33.4293126" lon="8.8105511"><ele>29.0</ele><time>2026-04-18T08:33:03.365Z</time></trkpt><trkpt lat="33.4292765" lon="8.8103423"><ele>29.0</ele><time>2026-04-18T08:33:04.369Z</time></trkpt><trkpt lat="33.4292419" lon="8.8101279"><ele>29.333333333333332</ele><time>2026-04-18T08:33:05.374Z</time></trkpt><trkpt lat="33.4292085" lon="8.8099134"><ele>29.666666666666664</ele><time>2026-04-18T08:33:06.372Z</time></trkpt><trkpt lat="33.4291726" lon="8.809699"><ele>30.0</ele><time>2026-04-18T08:33:07.37Z</time></trkpt><trkpt lat="33.429139" lon="8.8094848"><ele>29.666666666666664</ele><time>2026-04-18T08:33:08.372Z</time></trkpt><trkpt lat="33.4291079" lon="8.8092697"><ele>29.333333333333332</ele><time>2026-04-18T08:33:09.37Z</time></trkpt><trkpt lat="33.4290774" lon="8.8090553"><ele>29.0</ele><time>2026-04-18T08:33:10.374Z</time></trkpt><trkpt lat="33.429047" lon="8.8088453"><ele>29.0</ele><time>2026-04-18T08:33:11.368Z</time></trkpt><trkpt lat="33.4290177" lon="8.8086365"><ele>29.0</ele><time>2026-04-18T08:33:12.369Z</time></trkpt><trkpt lat="33.4289891" lon="8.8084307"><ele>29.0</ele><time>2026-04-18T08:33:13.374Z</time></trkpt><trkpt lat="33.4289625" lon="8.8082281"><ele>29.0</ele><time>2026-04-18T08:33:14.365Z</time></trkpt><trkpt lat="33.4289371" lon="8.8080278"><ele>29.0</ele><time>2026-04-18T08:33:15.372Z</time></trkpt><trkpt lat="33.4289114" lon="8.8078252"><ele>29.0</ele><time>2026-04-18T08:33:16.366Z</time></trkpt><trkpt lat="33.428883" lon="8.8076182"><ele>29.0</ele><time>2026-04-18T08:33:17.373Z</time></trkpt><trkpt lat="33.4288525" lon="8.8074076"><ele>29.0</ele><time>2026-04-18T08:33:18.37Z</time></trkpt><trkpt lat="33.4288214" lon="8.8071984"><ele>29.0</ele><time>2026-04-18T08:33:19.371Z</time></trkpt><trkpt lat="33.428788" lon="8.8069887"><ele>28.666666666666664</ele><time>2026-04-18T08:33:20.37Z</time></trkpt><trkpt lat="33.4287517" lon="8.8067799"><ele>28.333333333333336</ele><time>2026-04-18T08:33:21.376Z</time></trkpt><trkpt lat="33.4287121" lon="8.8065735"><ele>28.0</ele><time>2026-04-18T08:33:22.369Z</time></trkpt><trkpt lat="33.4286665" lon="8.8063691"><ele>28.0</ele><time>2026-04-18T08:33:23.369Z</time></trkpt><trkpt lat="33.4286153" lon="8.8061655"><ele>28.0</ele><time>2026-04-18T08:33:24.368Z</time></trkpt><trkpt lat="33.4285623" lon="8.8059619"><ele>28.0</ele><time>2026-04-18T08:33:25.374Z</time></trkpt><trkpt lat="33.4285081" lon="8.8057584"><ele>28.0</ele><time>2026-04-18T08:33:26.366Z</time></trkpt><trkpt lat="33.4284507" lon="8.8055555"><ele>28.0</ele><time>2026-04-18T08:33:27.377Z</time></trkpt><trkpt lat="33.4283952" lon="8.8053514"><ele>28.0</ele><time>2026-04-18T08:33:28.367Z</time></trkpt><trkpt lat="33.4283404" lon="8.8051452"><ele>28.333333333333336</ele><time>2026-04-18T08:33:29.372Z</time></trkpt><trkpt lat="33.4282829" lon="8.8049325"><ele>28.666666666666664</ele><time>2026-04-18T08:33:30.369Z</time></trkpt><trkpt lat="33.4282219" lon="8.8047119"><ele>29.0</ele><time>2026-04-18T08:33:31.375Z</time></trkpt><trkpt lat="33.4281603" lon="8.8044842"><ele>28.333333333333332</ele><time>2026-04-18T08:33:32.371Z</time></trkpt><trkpt lat="33.428096" lon="8.8042525"><ele>27.666666666666664</ele><time>2026-04-18T08:33:33.375Z</time></trkpt><trkpt lat="33.4280303" lon="8.804019"><ele>27.0</ele><time>2026-04-18T08:33:34.374Z</time></trkpt><trkpt lat="33.4279665" lon="8.8037904"><ele>26.666666666666664</ele><time>2026-04-18T08:33:35.37Z</time></trkpt><trkpt lat="33.4279043" lon="8.8035656"><ele>26.333333333333332</ele><time>2026-04-18T08:33:36.368Z</time></trkpt><trkpt lat="33.427845" lon="8.8033536"><ele>26.0</ele><time>2026-04-18T08:33:37.374Z</time></trkpt><trkpt lat="33.427791" lon="8.8031724"><ele>26.0</ele><time>2026-04-18T08:33:38.367Z</time></trkpt><trkpt lat="33.4277535" lon="8.8030224"><ele>26.0</ele><time>2026-04-18T08:33:39.376Z</time></trkpt><trkpt lat="33.4277142" lon="8.8028769"><ele>26.0</ele><time>2026-04-18T08:33:40.373Z</time></trkpt><trkpt lat="33.4276799" lon="8.8027393"><ele>26.0</ele><time>2026-04-18T08:33:41.367Z</time></trkpt><trkpt lat="33.4276459" lon="8.8026043"><ele>25.8</ele><time>2026-04-18T08:33:42.372Z</time></trkpt><trkpt lat="33.4276129" lon="8.8024768"><ele>25.6</ele><time>2026-04-18T08:33:43.374Z</time></trkpt><trkpt lat="33.427581" lon="8.8023532"><ele>25.4</ele><time>2026-04-18T08:33:44.378Z</time></trkpt><trkpt lat="33.4275476" lon="8.8022287"><ele>25.2</ele><time>2026-04-18T08:33:45.374Z</time></trkpt><trkpt lat="33.4275169" lon="8.8021048"><ele>25.0</ele><time>2026-04-18T08:33:46.375Z</time></trkpt><trkpt lat="33.4274845" lon="8.8019715"><ele>25.0</ele><time>2026-04-18T08:33:47.376Z</time></trkpt><trkpt lat="33.4274499" lon="8.801825"><ele>25.0</ele><time>2026-04-18T08:33:48.375Z</time></trkpt><trkpt lat="33.4274139" lon="8.8016745"><ele>25.0</ele><time>2026-04-18T08:33:49.367Z</time></trkpt><trkpt lat="33.4273757" lon="8.8015221"><ele>25.0</ele><time>2026-04-18T08:33:50.373Z</time></trkpt><trkpt lat="33.4273367" lon="8.801367"><ele>25.0</ele><time>2026-04-18T08:33:51.373Z</time></trkpt><trkpt lat="33.4272964" lon="8.8012094"><ele>25.0</ele><time>2026-04-18T08:33:52.368Z</time></trkpt><trkpt lat="33.427255" lon="8.8010463"><ele>25.0</ele><time>2026-04-18T08:33:53.369Z</time></trkpt><trkpt lat="33.4272091" lon="8.8008762"><ele>25.0</ele><time>2026-04-18T08:33:54.37Z</time></trkpt><trkpt lat="33.4271605" lon="8.8007066"><ele>24.6</ele><time>2026-04-18T08:33:55.371Z</time></trkpt><trkpt lat="33.4271159" lon="8.8005583"><ele>24.2</ele><time>2026-04-18T08:33:56.366Z</time></trkpt><trkpt lat="33.4270798" lon="8.8004331"><ele>23.799999999999997</ele><time>2026-04-18T08:33:57.367Z</time></trkpt><trkpt lat="33.4270531" lon="8.8003252"><ele>23.4</ele><time>2026-04-18T08:33:58.371Z</time></trkpt><trkpt lat="33.4270321" lon="8.8002317"><ele>23.0</ele><time>2026-04-18T08:33:59.379Z</time></trkpt><trkpt lat="33.4270136" lon="8.8001504"><ele>23.0</ele><time>2026-04-18T08:34:00.377Z</time></trkpt><trkpt lat="33.4269969" lon="8.800075"><ele>23.0</ele><time>2026-04-18T08:34:01.368Z</time></trkpt><trkpt lat="33.4269719" lon="8.7999569"><ele>23.0</ele><time>2026-04-18T08:34:03.37Z</time></trkpt><trkpt lat="33.4269473" lon="8.7998594"><ele>23.0</ele><time>2026-04-18T08:34:06.371Z</time></trkpt><trkpt lat="33.4269053" lon="8.799729"><ele>23.0</ele><time>2026-04-18T08:35:11.372Z</time></trkpt><trkpt lat="33.4268704" lon="8.7996119"><ele>23.0</ele><time>2026-04-18T08:35:12.373Z</time></trkpt><trkpt lat="33.4268273" lon="8.7994577"><ele>23.0</ele><time>2026-04-18T08:35:13.374Z</time></trkpt><trkpt lat="33.4267809" lon="8.7992884"><ele>23.0</ele><time>2026-04-18T08:35:14.367Z</time></trkpt><trkpt lat="33.4267273" lon="8.7990856"><ele>22.666666666666668</ele><time>2026-04-18T08:35:15.37Z</time></trkpt><trkpt lat="33.4266714" lon="8.7988775"><ele>22.333333333333332</ele><time>2026-04-18T08:35:16.378Z</time></trkpt><trkpt lat="33.4266129" lon="8.7986636"><ele>22.0</ele><time>2026-04-18T08:35:17.373Z</time></trkpt><trkpt lat="33.4265524" lon="8.7984438"><ele>21.666666666666664</ele><time>2026-04-18T08:35:18.385Z</time></trkpt><trkpt lat="33.4264904" lon="8.7982195"><ele>21.333333333333332</ele><time>2026-04-18T08:35:19.382Z</time></trkpt><trkpt lat="33.4264258" lon="8.7979925"><ele>21.0</ele><time>2026-04-18T08:35:20.369Z</time></trkpt><trkpt lat="33.4263584" lon="8.7977665"><ele>21.0</ele><time>2026-04-18T08:35:21.379Z</time></trkpt><trkpt lat="33.4262893" lon="8.7975443"><ele>21.0</ele><time>2026-04-18T08:35:22.371Z</time></trkpt><trkpt lat="33.4262188" lon="8.7973258"><ele>21.0</ele><time>2026-04-18T08:35:23.376Z</time></trkpt><trkpt lat="33.426147" lon="8.7971104"><ele>21.0</ele><time>2026-04-18T08:35:24.375Z</time></trkpt><trkpt lat="33.4260742" lon="8.7968969"><ele>21.0</ele><time>2026-04-18T08:35:25.383Z</time></trkpt><trkpt lat="33.4260013" lon="8.7966847"><ele>21.0</ele><time>2026-04-18T08:35:26.376Z</time></trkpt><trkpt lat="33.4259289" lon="8.7964719"><ele>21.0</ele><time>2026-04-18T08:35:27.385Z</time></trkpt><trkpt lat="33.4258566" lon="8.7962583"><ele>21.0</ele><time>2026-04-18T08:35:28.379Z</time></trkpt><trkpt lat="33.4257827" lon="8.7960418"><ele>21.0</ele><time>2026-04-18T08:35:29.374Z</time></trkpt><trkpt lat="33.425708" lon="8.7958251"><ele>20.666666666666668</ele><time>2026-04-18T08:35:30.376Z</time></trkpt><trkpt lat="33.4256329" lon="8.7956085"><ele>20.333333333333336</ele><time>2026-04-18T08:35:31.384Z</time></trkpt><trkpt lat="33.4255585" lon="8.7953915"><ele>20.0</ele><time>2026-04-18T08:35:32.377Z</time></trkpt><trkpt lat="33.4254876" lon="8.7951872"><ele>20.333333333333336</ele><time>2026-04-18T08:35:33.382Z</time></trkpt><trkpt lat="33.4254242" lon="8.7950077"><ele>20.666666666666668</ele><time>2026-04-18T08:35:34.372Z</time></trkpt><trkpt lat="33.4253642" lon="8.7948376"><ele>21.0</ele><time>2026-04-18T08:35:35.375Z</time></trkpt><trkpt lat="33.4253031" lon="8.794662"><ele>21.0</ele><time>2026-04-18T08:35:36.381Z</time></trkpt><trkpt lat="33.4252397" lon="8.79448"><ele>21.0</ele><time>2026-04-18T08:35:37.38Z</time></trkpt><trkpt lat="33.4251742" lon="8.7942911"><ele>21.0</ele><time>2026-04-18T08:35:38.379Z</time></trkpt><trkpt lat="33.4251064" lon="8.7940949"><ele>20.666666666666668</ele><time>2026-04-18T08:35:39.375Z</time></trkpt><trkpt lat="33.4250376" lon="8.7938931"><ele>20.333333333333336</ele><time>2026-04-18T08:35:40.376Z</time></trkpt><trkpt lat="33.4249679" lon="8.7936902"><ele>20.0</ele><time>2026-04-18T08:35:41.379Z</time></trkpt><trkpt lat="33.4248986" lon="8.7934908"><ele>19.666666666666668</ele><time>2026-04-18T08:35:42.374Z</time></trkpt><trkpt lat="33.4248309" lon="8.7932942"><ele>19.333333333333332</ele><time>2026-04-18T08:35:43.378Z</time></trkpt><trkpt lat="33.4247623" lon="8.7930953"><ele>19.0</ele><time>2026-04-18T08:35:44.378Z</time></trkpt><trkpt lat="33.4246925" lon="8.792892"><ele>20.0</ele><time>2026-04-18T08:35:45.373Z</time></trkpt><trkpt lat="33.4246214" lon="8.7926847"><ele>21.0</ele><time>2026-04-18T08:35:46.371Z</time></trkpt><trkpt lat="33.4245499" lon="8.7924736"><ele>22.0</ele><time>2026-04-18T08:35:47.376Z</time></trkpt><trkpt lat="33.4244763" lon="8.7922601"><ele>22.333333333333332</ele><time>2026-04-18T08:35:48.37Z</time></trkpt><trkpt lat="33.4244017" lon="8.7920479"><ele>22.666666666666668</ele><time>2026-04-18T08:35:49.376Z</time></trkpt><trkpt lat="33.4243258" lon="8.7918376"><ele>23.0</ele><time>2026-04-18T08:35:50.376Z</time></trkpt><trkpt lat="33.4242485" lon="8.7916297"><ele>22.333333333333336</ele><time>2026-04-18T08:35:51.378Z</time></trkpt><trkpt lat="33.4241689" lon="8.7914231"><ele>21.666666666666668</ele><time>2026-04-18T08:35:52.379Z</time></trkpt><trkpt lat="33.4240856" lon="8.7912152"><ele>21.0</ele><time>2026-04-18T08:35:53.369Z</time></trkpt><trkpt lat="33.4239983" lon="8.7910042"><ele>21.0</ele><time>2026-04-18T08:35:54.371Z</time></trkpt><trkpt lat="33.4239084" lon="8.7907897"><ele>21.0</ele><time>2026-04-18T08:35:55.379Z</time></trkpt><trkpt lat="33.4238163" lon="8.7905725"><ele>21.0</ele><time>2026-04-18T08:35:56.382Z</time></trkpt><trkpt lat="33.423724" lon="8.7903554"><ele>21.666666666666668</ele><time>2026-04-18T08:35:57.391Z</time></trkpt><trkpt lat="33.4236309" lon="8.7901397"><ele>22.333333333333336</ele><time>2026-04-18T08:35:58.378Z</time></trkpt><trkpt lat="33.4235393" lon="8.7899263"><ele>23.0</ele><time>2026-04-18T08:35:59.381Z</time></trkpt><trkpt lat="33.4234484" lon="8.7897131"><ele>23.0</ele><time>2026-04-18T08:36:00.379Z</time></trkpt><trkpt lat="33.4233576" lon="8.7894986"><ele>23.0</ele><time>2026-04-18T08:36:01.373Z</time></trkpt><trkpt lat="33.4232664" lon="8.7892828"><ele>23.0</ele><time>2026-04-18T08:36:02.377Z</time></trkpt><trkpt lat="33.4231745" lon="8.7890673"><ele>23.0</ele><time>2026-04-18T08:36:03.375Z</time></trkpt><trkpt lat="33.4230839" lon="8.7888546"><ele>23.0</ele><time>2026-04-18T08:36:04.378Z</time></trkpt><trkpt lat="33.4229933" lon="8.7886426"><ele>23.0</ele><time>2026-04-18T08:36:05.377Z</time></trkpt><trkpt lat="33.4229041" lon="8.7884309"><ele>22.333333333333336</ele><time>2026-04-18T08:36:06.377Z</time></trkpt><trkpt lat="33.4228144" lon="8.7882185"><ele>21.666666666666668</ele><time>2026-04-18T08:36:07.377Z</time></trkpt><trkpt lat="33.4227246" lon="8.7880063"><ele>21.0</ele><time>2026-04-18T08:36:08.375Z</time></trkpt><trkpt lat="33.4226356" lon="8.7877941"><ele>21.0</ele><time>2026-04-18T08:36:09.382Z</time></trkpt><trkpt lat="33.4225467" lon="8.7875806"><ele>21.0</ele><time>2026-04-18T08:36:10.38Z</time></trkpt><trkpt lat="33.4224557" lon="8.7873663"><ele>21.0</ele><time>2026-04-18T08:36:11.378Z</time></trkpt><trkpt lat="33.4223631" lon="8.7871512"><ele>21.0</ele><time>2026-04-18T08:36:12.372Z</time></trkpt><trkpt lat="33.4222709" lon="8.7869352"><ele>21.0</ele><time>2026-04-18T08:36:13.372Z</time></trkpt><trkpt lat="33.4221786" lon="8.7867189"><ele>21.0</ele><time>2026-04-18T08:36:14.374Z</time></trkpt><trkpt lat="33.4220873" lon="8.7865027"><ele>21.0</ele><time>2026-04-18T08:36:15.375Z</time></trkpt><trkpt lat="33.4219958" lon="8.7862874"><ele>21.0</ele><time>2026-04-18T08:36:16.377Z</time></trkpt><trkpt lat="33.4219039" lon="8.7860726"><ele>21.0</ele><time>2026-04-18T08:36:17.374Z</time></trkpt><trkpt lat="33.4218108" lon="8.7858581"><ele>21.0</ele><time>2026-04-18T08:36:18.379Z</time></trkpt><trkpt lat="33.4217189" lon="8.7856441"><ele>21.0</ele><time>2026-04-18T08:36:19.384Z</time></trkpt><trkpt lat="33.42163" lon="8.7854315"><ele>21.0</ele><time>2026-04-18T08:36:20.374Z</time></trkpt><trkpt lat="33.4215413" lon="8.7852196"><ele>21.0</ele><time>2026-04-18T08:36:21.374Z</time></trkpt><trkpt lat="33.4214509" lon="8.7850075"><ele>21.0</ele><time>2026-04-18T08:36:22.371Z</time></trkpt><trkpt lat="33.4213601" lon="8.7847947"><ele>21.0</ele><time>2026-04-18T08:36:23.378Z</time></trkpt><trkpt lat="33.4212693" lon="8.7845811"><ele>21.0</ele><time>2026-04-18T08:36:24.378Z</time></trkpt><trkpt lat="33.421178" lon="8.784367"><ele>21.0</ele><time>2026-04-18T08:36:25.374Z</time></trkpt><trkpt lat="33.4210864" lon="8.7841531"><ele>21.0</ele><time>2026-04-18T08:36:26.378Z</time></trkpt><trkpt lat="33.4209937" lon="8.7839387"><ele>21.0</ele><time>2026-04-18T08:36:27.372Z</time></trkpt><trkpt lat="33.4208997" lon="8.7837242"><ele>21.0</ele><time>2026-04-18T08:36:28.38Z</time></trkpt><trkpt lat="33.4208046" lon="8.78351"><ele>21.0</ele><time>2026-04-18T08:36:29.37Z</time></trkpt><trkpt lat="33.4207099" lon="8.7832955"><ele>20.666666666666668</ele><time>2026-04-18T08:36:30.383Z</time></trkpt><trkpt lat="33.420615" lon="8.7830802"><ele>20.333333333333336</ele><time>2026-04-18T08:36:31.373Z</time></trkpt><trkpt lat="33.4205176" lon="8.7828651"><ele>20.0</ele><time>2026-04-18T08:36:32.376Z</time></trkpt><trkpt lat="33.4204146" lon="8.7826517"><ele>19.333333333333336</ele><time>2026-04-18T08:36:33.372Z</time></trkpt><trkpt lat="33.4203052" lon="8.782441"><ele>18.666666666666668</ele><time>2026-04-18T08:36:34.378Z</time></trkpt><trkpt lat="33.4201904" lon="8.7822322"><ele>18.0</ele><time>2026-04-18T08:36:35.375Z</time></trkpt><trkpt lat="33.4200706" lon="8.7820242"><ele>18.333333333333332</ele><time>2026-04-18T08:36:36.385Z</time></trkpt><trkpt lat="33.4199453" lon="8.7818191"><ele>18.666666666666664</ele><time>2026-04-18T08:36:37.387Z</time></trkpt><trkpt lat="33.4198181" lon="8.781616"><ele>19.0</ele><time>2026-04-18T08:36:38.365Z</time></trkpt><trkpt lat="33.419691" lon="8.7814139"><ele>20.0</ele><time>2026-04-18T08:36:39.374Z</time></trkpt><trkpt lat="33.4195647" lon="8.7812128"><ele>21.0</ele><time>2026-04-18T08:36:40.377Z</time></trkpt><trkpt lat="33.4194399" lon="8.781018"><ele>22.0</ele><time>2026-04-18T08:36:41.373Z</time></trkpt><trkpt lat="33.4193249" lon="8.7808384"><ele>22.0</ele><time>2026-04-18T08:36:42.374Z</time></trkpt><trkpt lat="33.4192206" lon="8.7806744"><ele>22.0</ele><time>2026-04-18T08:36:43.367Z</time></trkpt><trkpt lat="33.4191268" lon="8.7805256"><ele>22.0</ele><time>2026-04-18T08:36:44.366Z</time></trkpt><trkpt lat="33.4190332" lon="8.7804095"><ele>22.0</ele><time>2026-04-18T08:36:45.37Z</time></trkpt><trkpt lat="33.4189503" lon="8.7802946"><ele>22.0</ele><time>2026-04-18T08:36:46.371Z</time></trkpt><trkpt lat="33.4188764" lon="8.7801708"><ele>22.0</ele><time>2026-04-18T08:36:47.377Z</time></trkpt><trkpt lat="33.418805" lon="8.7800474"><ele>22.0</ele><time>2026-04-18T08:36:48.373Z</time></trkpt><trkpt lat="33.4187309" lon="8.7799227"><ele>21.25</ele><time>2026-04-18T08:36:49.383Z</time></trkpt><trkpt lat="33.4186575" lon="8.7797987"><ele>20.5</ele><time>2026-04-18T08:36:50.367Z</time></trkpt><trkpt lat="33.4185821" lon="8.7796717"><ele>19.75</ele><time>2026-04-18T08:36:51.368Z</time></trkpt><trkpt lat="33.418506" lon="8.7795399"><ele>19.0</ele><time>2026-04-18T08:36:52.378Z</time></trkpt><trkpt lat="33.4184306" lon="8.7794073"><ele>19.25</ele><time>2026-04-18T08:36:53.372Z</time></trkpt><trkpt lat="33.4183569" lon="8.77927"><ele>19.5</ele><time>2026-04-18T08:36:54.372Z</time></trkpt><trkpt lat="33.4182853" lon="8.7791322"><ele>19.75</ele><time>2026-04-18T08:36:55.375Z</time></trkpt><trkpt lat="33.4182149" lon="8.7789923"><ele>20.0</ele><time>2026-04-18T08:36:56.367Z</time></trkpt><trkpt lat="33.4181451" lon="8.7788525"><ele>20.0</ele><time>2026-04-18T08:36:57.375Z</time></trkpt><trkpt lat="33.418073" lon="8.7787119"><ele>20.0</ele><time>2026-04-18T08:36:58.375Z</time></trkpt><trkpt lat="33.4180021" lon="8.7785688"><ele>20.0</ele><time>2026-04-18T08:36:59.37Z</time></trkpt><trkpt lat="33.4179299" lon="8.7784239"><ele>20.0</ele><time>2026-04-18T08:37:00.374Z</time></trkpt><trkpt lat="33.4178573" lon="8.7782783"><ele>20.0</ele><time>2026-04-18T08:37:01.371Z</time></trkpt><trkpt lat="33.417784" lon="8.7781312"><ele>20.0</ele><time>2026-04-18T08:37:02.369Z</time></trkpt><trkpt lat="33.4177113" lon="8.7779828"><ele>20.0</ele><time>2026-04-18T08:37:03.371Z</time></trkpt><trkpt lat="33.4176388" lon="8.7778345"><ele>20.0</ele><time>2026-04-18T08:37:04.379Z</time></trkpt><trkpt lat="33.4175648" lon="8.7776864"><ele>20.0</ele><time>2026-04-18T08:37:05.385Z</time></trkpt><trkpt lat="33.4174913" lon="8.777537"><ele>20.0</ele><time>2026-04-18T08:37:06.375Z</time></trkpt><trkpt lat="33.4174163" lon="8.7773857"><ele>20.0</ele><time>2026-04-18T08:37:07.374Z</time></trkpt><trkpt lat="33.4173401" lon="8.777235"><ele>20.0</ele><time>2026-04-18T08:37:08.37Z</time></trkpt><trkpt lat="33.4172631" lon="8.7770832"><ele>20.0</ele><time>2026-04-18T08:37:09.372Z</time></trkpt><trkpt lat="33.4171859" lon="8.77693"><ele>20.0</ele><time>2026-04-18T08:37:10.368Z</time></trkpt><trkpt lat="33.4171083" lon="8.7767763"><ele>20.0</ele><time>2026-04-18T08:37:11.379Z</time></trkpt><trkpt lat="33.4170305" lon="8.776623"><ele>20.0</ele><time>2026-04-18T08:37:12.372Z</time></trkpt><trkpt lat="33.4169521" lon="8.7764685"><ele>20.0</ele><time>2026-04-18T08:37:13.369Z</time></trkpt><trkpt lat="33.4168744" lon="8.7763138"><ele>20.0</ele><time>2026-04-18T08:37:14.372Z</time></trkpt><trkpt lat="33.4167974" lon="8.7761583"><ele>20.0</ele><time>2026-04-18T08:37:15.379Z</time></trkpt><trkpt lat="33.4167194" lon="8.776003"><ele>20.0</ele><time>2026-04-18T08:37:16.369Z</time></trkpt><trkpt lat="33.4166402" lon="8.7758483"><ele>20.0</ele><time>2026-04-18T08:37:17.373Z</time></trkpt><trkpt lat="33.4165617" lon="8.7756939"><ele>20.0</ele><time>2026-04-18T08:37:18.369Z</time></trkpt><trkpt lat="33.4164845" lon="8.7755397"><ele>20.0</ele><time>2026-04-18T08:37:19.37Z</time></trkpt><trkpt lat="33.4164055" lon="8.7753865"><ele>20.0</ele><time>2026-04-18T08:37:20.368Z</time></trkpt><trkpt lat="33.4163264" lon="8.7752333"><ele>20.0</ele><time>2026-04-18T08:37:21.37Z</time></trkpt><trkpt lat="33.4162485" lon="8.7750767"><ele>20.333333333333336</ele><time>2026-04-18T08:37:22.371Z</time></trkpt><trkpt lat="33.4161687" lon="8.7749126"><ele>20.666666666666668</ele><time>2026-04-18T08:37:23.371Z</time></trkpt><trkpt lat="33.4160827" lon="8.7747404"><ele>21.0</ele><time>2026-04-18T08:37:24.364Z</time></trkpt><trkpt lat="33.4159915" lon="8.7745583"><ele>21.0</ele><time>2026-04-18T08:37:25.371Z</time></trkpt><trkpt lat="33.4158945" lon="8.774367"><ele>21.0</ele><time>2026-04-18T08:37:26.364Z</time></trkpt><trkpt lat="33.4157929" lon="8.7741668"><ele>21.0</ele><time>2026-04-18T08:37:27.38Z</time></trkpt><trkpt lat="33.4156891" lon="8.7739568"><ele>21.0</ele><time>2026-04-18T08:37:28.378Z</time></trkpt><trkpt lat="33.4155844" lon="8.7737379"><ele>21.0</ele><time>2026-04-18T08:37:29.373Z</time></trkpt><trkpt lat="33.4154777" lon="8.7735112"><ele>21.0</ele><time>2026-04-18T08:37:30.37Z</time></trkpt><trkpt lat="33.4153719" lon="8.7732852"><ele>20.666666666666668</ele><time>2026-04-18T08:37:31.371Z</time></trkpt><trkpt lat="33.4152684" lon="8.7730617"><ele>20.333333333333336</ele><time>2026-04-18T08:37:32.377Z</time></trkpt><trkpt lat="33.4151659" lon="8.7728416"><ele>20.0</ele><time>2026-04-18T08:37:33.37Z</time></trkpt><trkpt lat="33.4150652" lon="8.7726238"><ele>20.666666666666668</ele><time>2026-04-18T08:37:34.37Z</time></trkpt><trkpt lat="33.4149676" lon="8.7724071"><ele>21.333333333333332</ele><time>2026-04-18T08:37:35.368Z</time></trkpt><trkpt lat="33.4148718" lon="8.7721935"><ele>22.0</ele><time>2026-04-18T08:37:36.379Z</time></trkpt><trkpt lat="33.4147767" lon="8.7719837"><ele>21.333333333333332</ele><time>2026-04-18T08:37:37.377Z</time></trkpt><trkpt lat="33.4146825" lon="8.7717769"><ele>20.666666666666668</ele><time>2026-04-18T08:37:38.368Z</time></trkpt><trkpt lat="33.4145887" lon="8.7715735"><ele>20.0</ele><time>2026-04-18T08:37:39.378Z</time></trkpt><trkpt lat="33.4144957" lon="8.7713733"><ele>20.0</ele><time>2026-04-18T08:37:40.365Z</time></trkpt><trkpt lat="33.4144039" lon="8.7711754"><ele>20.0</ele><time>2026-04-18T08:37:41.373Z</time></trkpt><trkpt lat="33.4143135" lon="8.7709796"><ele>20.0</ele><time>2026-04-18T08:37:42.367Z</time></trkpt><trkpt lat="33.4142254" lon="8.7707858"><ele>20.666666666666668</ele><time>2026-04-18T08:37:43.373Z</time></trkpt><trkpt lat="33.4141391" lon="8.7705928"><ele>21.333333333333332</ele><time>2026-04-18T08:37:44.369Z</time></trkpt><trkpt lat="33.4140521" lon="8.7704006"><ele>22.0</ele><time>2026-04-18T08:37:45.376Z</time></trkpt><trkpt lat="33.4139647" lon="8.7702096"><ele>21.666666666666664</ele><time>2026-04-18T08:37:46.368Z</time></trkpt><trkpt lat="33.4138775" lon="8.770019"><ele>21.333333333333332</ele><time>2026-04-18T08:37:47.375Z</time></trkpt><trkpt lat="33.4137914" lon="8.7698292"><ele>21.0</ele><time>2026-04-18T08:37:48.364Z</time></trkpt><trkpt lat="33.4137059" lon="8.7696423"><ele>21.0</ele><time>2026-04-18T08:37:49.376Z</time></trkpt><trkpt lat="33.4136209" lon="8.7694573"><ele>21.0</ele><time>2026-04-18T08:37:50.366Z</time></trkpt><trkpt lat="33.4135356" lon="8.7692738"><ele>21.0</ele><time>2026-04-18T08:37:51.374Z</time></trkpt><trkpt lat="33.4134508" lon="8.7690889"><ele>21.0</ele><time>2026-04-18T08:37:52.375Z</time></trkpt><trkpt lat="33.4133663" lon="8.7689001"><ele>21.0</ele><time>2026-04-18T08:37:53.374Z</time></trkpt><trkpt lat="33.4132807" lon="8.7687061"><ele>21.0</ele><time>2026-04-18T08:37:54.366Z</time></trkpt><trkpt lat="33.4131937" lon="8.7685075"><ele>21.0</ele><time>2026-04-18T08:37:55.372Z</time></trkpt><trkpt lat="33.4131054" lon="8.7683058"><ele>21.0</ele><time>2026-04-18T08:37:56.373Z</time></trkpt><trkpt lat="33.4130178" lon="8.7681042"><ele>21.0</ele><time>2026-04-18T08:37:57.372Z</time></trkpt><trkpt lat="33.4129332" lon="8.7679055"><ele>20.666666666666668</ele><time>2026-04-18T08:37:58.373Z</time></trkpt><trkpt lat="33.4128523" lon="8.767707"><ele>20.333333333333336</ele><time>2026-04-18T08:37:59.371Z</time></trkpt><trkpt lat="33.4127747" lon="8.7675081"><ele>20.0</ele><time>2026-04-18T08:38:00.372Z</time></trkpt><trkpt lat="33.4126994" lon="8.7673101"><ele>20.0</ele><time>2026-04-18T08:38:01.367Z</time></trkpt><trkpt lat="33.4126256" lon="8.7671123"><ele>20.0</ele><time>2026-04-18T08:38:02.37Z</time></trkpt><trkpt lat="33.4125531" lon="8.7669163"><ele>20.0</ele><time>2026-04-18T08:38:03.368Z</time></trkpt><trkpt lat="33.4124814" lon="8.7667221"><ele>19.666666666666668</ele><time>2026-04-18T08:38:04.375Z</time></trkpt><trkpt lat="33.4124105" lon="8.7665294"><ele>19.333333333333332</ele><time>2026-04-18T08:38:05.371Z</time></trkpt><trkpt lat="33.4123387" lon="8.7663391"><ele>19.0</ele><time>2026-04-18T08:38:06.371Z</time></trkpt><trkpt lat="33.4122667" lon="8.7661495"><ele>19.0</ele><time>2026-04-18T08:38:07.375Z</time></trkpt><trkpt lat="33.4121967" lon="8.7659596"><ele>19.0</ele><time>2026-04-18T08:38:08.373Z</time></trkpt><trkpt lat="33.4121276" lon="8.7657704"><ele>19.0</ele><time>2026-04-18T08:38:09.369Z</time></trkpt><trkpt lat="33.4120591" lon="8.7655813"><ele>19.0</ele><time>2026-04-18T08:38:10.375Z</time></trkpt><trkpt lat="33.4119894" lon="8.7653924"><ele>19.0</ele><time>2026-04-18T08:38:11.366Z</time></trkpt><trkpt lat="33.4119187" lon="8.7652035"><ele>19.0</ele><time>2026-04-18T08:38:12.373Z</time></trkpt><trkpt lat="33.4118484" lon="8.7650138"><ele>19.666666666666664</ele><time>2026-04-18T08:38:13.369Z</time></trkpt><trkpt lat="33.4117782" lon="8.7648242"><ele>20.333333333333332</ele><time>2026-04-18T08:38:14.369Z</time></trkpt><trkpt lat="33.4117077" lon="8.7646343"><ele>21.0</ele><time>2026-04-18T08:38:15.369Z</time></trkpt><trkpt lat="33.4116373" lon="8.7644441"><ele>20.666666666666668</ele><time>2026-04-18T08:38:16.365Z</time></trkpt><trkpt lat="33.4115663" lon="8.7642542"><ele>20.333333333333336</ele><time>2026-04-18T08:38:17.369Z</time></trkpt><trkpt lat="33.4114953" lon="8.7640648"><ele>20.0</ele><time>2026-04-18T08:38:18.374Z</time></trkpt><trkpt lat="33.411425" lon="8.7638747"><ele>20.0</ele><time>2026-04-18T08:38:19.372Z</time></trkpt><trkpt lat="33.4113556" lon="8.7636839"><ele>20.0</ele><time>2026-04-18T08:38:20.366Z</time></trkpt><trkpt lat="33.4112863" lon="8.7634921"><ele>20.0</ele><time>2026-04-18T08:38:21.376Z</time></trkpt><trkpt lat="33.4112147" lon="8.7632954"><ele>20.333333333333336</ele><time>2026-04-18T08:38:22.375Z</time></trkpt><trkpt lat="33.4111402" lon="8.7630933"><ele>20.666666666666668</ele><time>2026-04-18T08:38:23.371Z</time></trkpt><trkpt lat="33.411063" lon="8.7628868"><ele>21.0</ele><time>2026-04-18T08:38:24.375Z</time></trkpt><trkpt lat="33.4109845" lon="8.7626764"><ele>21.333333333333332</ele><time>2026-04-18T08:38:25.372Z</time></trkpt><trkpt lat="33.410904" lon="8.7624624"><ele>21.666666666666664</ele><time>2026-04-18T08:38:26.37Z</time></trkpt><trkpt lat="33.4108219" lon="8.762245"><ele>22.0</ele><time>2026-04-18T08:38:27.377Z</time></trkpt><trkpt lat="33.4107405" lon="8.7620274"><ele>22.0</ele><time>2026-04-18T08:38:28.374Z</time></trkpt><trkpt lat="33.41066" lon="8.7618125"><ele>22.0</ele><time>2026-04-18T08:38:29.383Z</time></trkpt><trkpt lat="33.4105789" lon="8.761599"><ele>22.0</ele><time>2026-04-18T08:38:30.37Z</time></trkpt><trkpt lat="33.4104971" lon="8.761385"><ele>22.0</ele><time>2026-04-18T08:38:31.362Z</time></trkpt><trkpt lat="33.4104147" lon="8.7611726"><ele>22.0</ele><time>2026-04-18T08:38:32.364Z</time></trkpt><trkpt lat="33.4103305" lon="8.7609632"><ele>22.0</ele><time>2026-04-18T08:38:33.366Z</time></trkpt><trkpt lat="33.4102448" lon="8.7607584"><ele>21.666666666666664</ele><time>2026-04-18T08:38:34.373Z</time></trkpt><trkpt lat="33.410158" lon="8.7605567"><ele>21.333333333333332</ele><time>2026-04-18T08:38:35.373Z</time></trkpt><trkpt lat="33.4100694" lon="8.7603585"><ele>21.0</ele><time>2026-04-18T08:38:36.368Z</time></trkpt><trkpt lat="33.4099788" lon="8.7601638"><ele>21.0</ele><time>2026-04-18T08:38:37.375Z</time></trkpt><trkpt lat="33.409887" lon="8.7599719"><ele>21.0</ele><time>2026-04-18T08:38:38.375Z</time></trkpt><trkpt lat="33.4097937" lon="8.7597818"><ele>21.0</ele><time>2026-04-18T08:38:39.378Z</time></trkpt><trkpt lat="33.4096993" lon="8.7595917"><ele>21.0</ele><time>2026-04-18T08:38:40.373Z</time></trkpt><trkpt lat="33.409604" lon="8.7594005"><ele>21.0</ele><time>2026-04-18T08:38:41.373Z</time></trkpt><trkpt lat="33.4095077" lon="8.7592083"><ele>21.0</ele><time>2026-04-18T08:38:42.373Z</time></trkpt><trkpt lat="33.4094111" lon="8.7590149"><ele>21.0</ele><time>2026-04-18T08:38:43.367Z</time></trkpt><trkpt lat="33.4093145" lon="8.7588201"><ele>21.0</ele><time>2026-04-18T08:38:44.373Z</time></trkpt><trkpt lat="33.4092168" lon="8.7586246"><ele>21.0</ele><time>2026-04-18T08:38:45.373Z</time></trkpt><trkpt lat="33.4091176" lon="8.7584295"><ele>21.0</ele><time>2026-04-18T08:38:46.361Z</time></trkpt><trkpt lat="33.40902" lon="8.7582353"><ele>21.0</ele><time>2026-04-18T08:38:47.377Z</time></trkpt><trkpt lat="33.4089241" lon="8.7580447"><ele>21.0</ele><time>2026-04-18T08:38:48.372Z</time></trkpt><trkpt lat="33.4088293" lon="8.757857"><ele>21.0</ele><time>2026-04-18T08:38:49.377Z</time></trkpt><trkpt lat="33.4087348" lon="8.7576703"><ele>21.0</ele><time>2026-04-18T08:38:50.364Z</time></trkpt><trkpt lat="33.4086408" lon="8.7574826"><ele>21.0</ele><time>2026-04-18T08:38:51.362Z</time></trkpt><trkpt lat="33.4085465" lon="8.757293"><ele>21.0</ele><time>2026-04-18T08:38:52.368Z</time></trkpt><trkpt lat="33.4084515" lon="8.7571033"><ele>21.0</ele><time>2026-04-18T08:38:53.37Z</time></trkpt><trkpt lat="33.4083579" lon="8.7569154"><ele>21.0</ele><time>2026-04-18T08:38:54.364Z</time></trkpt><trkpt lat="33.4082647" lon="8.7567298"><ele>21.666666666666668</ele><time>2026-04-18T08:38:55.365Z</time></trkpt><trkpt lat="33.4081691" lon="8.7565426"><ele>22.333333333333336</ele><time>2026-04-18T08:38:56.363Z</time></trkpt><trkpt lat="33.4080701" lon="8.7563554"><ele>23.0</ele><time>2026-04-18T08:38:57.37Z</time></trkpt><trkpt lat="33.4079693" lon="8.7561718"><ele>23.0</ele><time>2026-04-18T08:38:58.367Z</time></trkpt><trkpt lat="33.4078683" lon="8.7559913"><ele>23.0</ele><time>2026-04-18T08:38:59.367Z</time></trkpt><trkpt lat="33.4077669" lon="8.7558119"><ele>23.0</ele><time>2026-04-18T08:39:00.368Z</time></trkpt><trkpt lat="33.4076648" lon="8.7556313"><ele>23.0</ele><time>2026-04-18T08:39:01.372Z</time></trkpt><trkpt lat="33.4075603" lon="8.7554482"><ele>23.0</ele><time>2026-04-18T08:39:02.362Z</time></trkpt><trkpt lat="33.407454" lon="8.7552648"><ele>23.0</ele><time>2026-04-18T08:39:03.362Z</time></trkpt><trkpt lat="33.4073493" lon="8.7550829"><ele>22.666666666666668</ele><time>2026-04-18T08:39:04.36Z</time></trkpt><trkpt lat="33.4072456" lon="8.7549021"><ele>22.333333333333332</ele><time>2026-04-18T08:39:05.371Z</time></trkpt><trkpt lat="33.4071404" lon="8.7547213"><ele>22.0</ele><time>2026-04-18T08:39:06.365Z</time></trkpt><trkpt lat="33.4070338" lon="8.7545377"><ele>22.0</ele><time>2026-04-18T08:39:07.367Z</time></trkpt><trkpt lat="33.4069268" lon="8.7543502"><ele>22.0</ele><time>2026-04-18T08:39:08.366Z</time></trkpt><trkpt lat="33.4068183" lon="8.7541601"><ele>22.0</ele><time>2026-04-18T08:39:09.363Z</time></trkpt><trkpt lat="33.4067083" lon="8.7539677"><ele>22.0</ele><time>2026-04-18T08:39:10.362Z</time></trkpt><trkpt lat="33.4065977" lon="8.7537742"><ele>22.0</ele><time>2026-04-18T08:39:11.373Z</time></trkpt><trkpt lat="33.4064875" lon="8.7535821"><ele>22.0</ele><time>2026-04-18T08:39:12.367Z</time></trkpt><trkpt lat="33.4063785" lon="8.753393"><ele>22.333333333333332</ele><time>2026-04-18T08:39:13.374Z</time></trkpt><trkpt lat="33.40627" lon="8.7532051"><ele>22.666666666666668</ele><time>2026-04-18T08:39:14.366Z</time></trkpt><trkpt lat="33.4061608" lon="8.7530185"><ele>23.0</ele><time>2026-04-18T08:39:15.365Z</time></trkpt><trkpt lat="33.4060503" lon="8.7528326"><ele>22.666666666666668</ele><time>2026-04-18T08:39:16.369Z</time></trkpt><trkpt lat="33.4059361" lon="8.7526487"><ele>22.333333333333332</ele><time>2026-04-18T08:39:17.367Z</time></trkpt><trkpt lat="33.4058162" lon="8.7524674"><ele>22.0</ele><time>2026-04-18T08:39:18.37Z</time></trkpt><trkpt lat="33.4056913" lon="8.7522883"><ele>22.0</ele><time>2026-04-18T08:39:19.369Z</time></trkpt><trkpt lat="33.4055614" lon="8.7521098"><ele>22.0</ele><time>2026-04-18T08:39:20.363Z</time></trkpt><trkpt lat="33.405429" lon="8.751936"><ele>22.0</ele><time>2026-04-18T08:39:21.366Z</time></trkpt><trkpt lat="33.4052952" lon="8.7517666"><ele>22.666666666666664</ele><time>2026-04-18T08:39:22.366Z</time></trkpt><trkpt lat="33.405157" lon="8.7515974"><ele>23.333333333333332</ele><time>2026-04-18T08:39:23.37Z</time></trkpt><trkpt lat="33.405018" lon="8.7514302"><ele>24.0</ele><time>2026-04-18T08:39:24.368Z</time></trkpt><trkpt lat="33.4048803" lon="8.7512644"><ele>24.0</ele><time>2026-04-18T08:39:25.368Z</time></trkpt><trkpt lat="33.4047436" lon="8.7511001"><ele>24.0</ele><time>2026-04-18T08:39:26.366Z</time></trkpt><trkpt lat="33.4046073" lon="8.7509363"><ele>24.0</ele><time>2026-04-18T08:39:27.367Z</time></trkpt><trkpt lat="33.4044698" lon="8.7507721"><ele>24.0</ele><time>2026-04-18T08:39:28.363Z</time></trkpt><trkpt lat="33.4043305" lon="8.7506089"><ele>24.0</ele><time>2026-04-18T08:39:29.366Z</time></trkpt><trkpt lat="33.4041932" lon="8.7504478"><ele>24.0</ele><time>2026-04-18T08:39:30.364Z</time></trkpt><trkpt lat="33.4040593" lon="8.7502898"><ele>23.666666666666668</ele><time>2026-04-18T08:39:31.371Z</time></trkpt><trkpt lat="33.4039286" lon="8.7501339"><ele>23.333333333333336</ele><time>2026-04-18T08:39:32.368Z</time></trkpt><trkpt lat="33.4037999" lon="8.7499797"><ele>23.0</ele><time>2026-04-18T08:39:33.365Z</time></trkpt><trkpt lat="33.4036718" lon="8.7498255"><ele>24.0</ele><time>2026-04-18T08:39:34.362Z</time></trkpt><trkpt lat="33.4035427" lon="8.7496721"><ele>25.0</ele><time>2026-04-18T08:39:35.369Z</time></trkpt><trkpt lat="33.4034144" lon="8.7495177"><ele>26.0</ele><time>2026-04-18T08:39:36.371Z</time></trkpt><trkpt lat="33.4032851" lon="8.7493641"><ele>26.0</ele><time>2026-04-18T08:39:37.367Z</time></trkpt><trkpt lat="33.4031559" lon="8.7492106"><ele>26.0</ele><time>2026-04-18T08:39:38.367Z</time></trkpt><trkpt lat="33.4030263" lon="8.7490577"><ele>26.0</ele><time>2026-04-18T08:39:39.362Z</time></trkpt><trkpt lat="33.4028971" lon="8.7489044"><ele>25.666666666666664</ele><time>2026-04-18T08:39:40.362Z</time></trkpt><trkpt lat="33.4027672" lon="8.7487515"><ele>25.333333333333336</ele><time>2026-04-18T08:39:41.366Z</time></trkpt><trkpt lat="33.4026385" lon="8.7486011"><ele>25.0</ele><time>2026-04-18T08:39:42.37Z</time></trkpt><trkpt lat="33.4025102" lon="8.7484539"><ele>24.666666666666668</ele><time>2026-04-18T08:39:43.365Z</time></trkpt><trkpt lat="33.4023782" lon="8.7483081"><ele>24.333333333333336</ele><time>2026-04-18T08:39:44.361Z</time></trkpt><trkpt lat="33.4022412" lon="8.7481666"><ele>24.0</ele><time>2026-04-18T08:39:45.365Z</time></trkpt><trkpt lat="33.4021008" lon="8.7480327"><ele>24.666666666666664</ele><time>2026-04-18T08:39:46.363Z</time></trkpt><trkpt lat="33.4019564" lon="8.7479027"><ele>25.333333333333332</ele><time>2026-04-18T08:39:47.363Z</time></trkpt><trkpt lat="33.4018101" lon="8.7477721"><ele>26.0</ele><time>2026-04-18T08:39:48.361Z</time></trkpt><trkpt lat="33.4016597" lon="8.7476389"><ele>26.0</ele><time>2026-04-18T08:39:49.365Z</time></trkpt><trkpt lat="33.4015063" lon="8.7475063"><ele>26.0</ele><time>2026-04-18T08:39:50.368Z</time></trkpt><trkpt lat="33.4013528" lon="8.7473759"><ele>26.0</ele><time>2026-04-18T08:39:51.365Z</time></trkpt><trkpt lat="33.401201" lon="8.7472485"><ele>26.333333333333332</ele><time>2026-04-18T08:39:52.364Z</time></trkpt><trkpt lat="33.4010524" lon="8.7471232"><ele>26.666666666666664</ele><time>2026-04-18T08:39:53.365Z</time></trkpt><trkpt lat="33.4009059" lon="8.7470002"><ele>27.0</ele><time>2026-04-18T08:39:54.368Z</time></trkpt><trkpt lat="33.4007603" lon="8.7468793"><ele>27.0</ele><time>2026-04-18T08:39:55.373Z</time></trkpt><trkpt lat="33.4006153" lon="8.7467598"><ele>27.0</ele><time>2026-04-18T08:39:56.365Z</time></trkpt><trkpt lat="33.4004688" lon="8.7466456"><ele>27.0</ele><time>2026-04-18T08:39:57.364Z</time></trkpt><trkpt lat="33.4003227" lon="8.7465402"><ele>28.0</ele><time>2026-04-18T08:39:58.366Z</time></trkpt><trkpt lat="33.4001773" lon="8.7464445"><ele>29.0</ele><time>2026-04-18T08:39:59.363Z</time></trkpt><trkpt lat="33.4000284" lon="8.746359"><ele>30.0</ele><time>2026-04-18T08:40:00.365Z</time></trkpt><trkpt lat="33.3998735" lon="8.7462858"><ele>30.0</ele><time>2026-04-18T08:40:01.366Z</time></trkpt><trkpt lat="33.3997111" lon="8.7462228"><ele>30.0</ele><time>2026-04-18T08:40:02.367Z</time></trkpt><trkpt lat="33.3995414" lon="8.7461666"><ele>30.0</ele><time>2026-04-18T08:40:03.365Z</time></trkpt><trkpt lat="33.3993662" lon="8.7461163"><ele>30.333333333333336</ele><time>2026-04-18T08:40:04.36Z</time></trkpt><trkpt lat="33.3991861" lon="8.7460702"><ele>30.666666666666668</ele><time>2026-04-18T08:40:05.366Z</time></trkpt><trkpt lat="33.3990017" lon="8.746026"><ele>31.0</ele><time>2026-04-18T08:40:06.364Z</time></trkpt><trkpt lat="33.3988183" lon="8.7459809"><ele>31.0</ele><time>2026-04-18T08:40:07.377Z</time></trkpt><trkpt lat="33.3986374" lon="8.7459342"><ele>31.0</ele><time>2026-04-18T08:40:08.362Z</time></trkpt><trkpt lat="33.3984606" lon="8.7458888"><ele>31.0</ele><time>2026-04-18T08:40:09.363Z</time></trkpt><trkpt lat="33.3982886" lon="8.7458449"><ele>31.0</ele><time>2026-04-18T08:40:10.363Z</time></trkpt><trkpt lat="33.3981207" lon="8.7457996"><ele>31.0</ele><time>2026-04-18T08:40:11.363Z</time></trkpt><trkpt lat="33.3979527" lon="8.7457508"><ele>31.0</ele><time>2026-04-18T08:40:12.362Z</time></trkpt><trkpt lat="33.3977852" lon="8.7456975"><ele>31.333333333333336</ele><time>2026-04-18T08:40:13.361Z</time></trkpt><trkpt lat="33.3976197" lon="8.7456409"><ele>31.666666666666664</ele><time>2026-04-18T08:40:14.371Z</time></trkpt><trkpt lat="33.397455" lon="8.7455783"><ele>32.0</ele><time>2026-04-18T08:40:15.374Z</time></trkpt><trkpt lat="33.3972907" lon="8.7455089"><ele>31.333333333333332</ele><time>2026-04-18T08:40:16.362Z</time></trkpt><trkpt lat="33.3971316" lon="8.7454327"><ele>30.666666666666664</ele><time>2026-04-18T08:40:17.363Z</time></trkpt><trkpt lat="33.3969773" lon="8.7453513"><ele>30.0</ele><time>2026-04-18T08:40:18.368Z</time></trkpt><trkpt lat="33.3968256" lon="8.7452674"><ele>31.0</ele><time>2026-04-18T08:40:19.367Z</time></trkpt><trkpt lat="33.3966757" lon="8.7451821"><ele>32.0</ele><time>2026-04-18T08:40:20.369Z</time></trkpt><trkpt lat="33.3965286" lon="8.7450972"><ele>33.0</ele><time>2026-04-18T08:40:21.369Z</time></trkpt><trkpt lat="33.3963882" lon="8.7450149"><ele>32.333333333333336</ele><time>2026-04-18T08:40:22.366Z</time></trkpt><trkpt lat="33.3962509" lon="8.7449349"><ele>31.666666666666668</ele><time>2026-04-18T08:40:23.364Z</time></trkpt><trkpt lat="33.396111" lon="8.7448539"><ele>31.0</ele><time>2026-04-18T08:40:24.368Z</time></trkpt><trkpt lat="33.3959674" lon="8.7447698"><ele>31.0</ele><time>2026-04-18T08:40:25.37Z</time></trkpt><trkpt lat="33.395818" lon="8.7446813"><ele>31.0</ele><time>2026-04-18T08:40:26.378Z</time></trkpt><trkpt lat="33.3956632" lon="8.7445904"><ele>31.0</ele><time>2026-04-18T08:40:27.37Z</time></trkpt><trkpt lat="33.395508" lon="8.744501"><ele>31.333333333333336</ele><time>2026-04-18T08:40:28.366Z</time></trkpt><trkpt lat="33.3953559" lon="8.744414"><ele>31.666666666666664</ele><time>2026-04-18T08:40:29.365Z</time></trkpt><trkpt lat="33.3952074" lon="8.744328"><ele>32.0</ele><time>2026-04-18T08:40:30.365Z</time></trkpt><trkpt lat="33.3950632" lon="8.7442434"><ele>32.33333333333333</ele><time>2026-04-18T08:40:31.373Z</time></trkpt><trkpt lat="33.3949227" lon="8.7441597"><ele>32.666666666666664</ele><time>2026-04-18T08:40:32.367Z</time></trkpt><trkpt lat="33.3947843" lon="8.7440791"><ele>33.0</ele><time>2026-04-18T08:40:33.368Z</time></trkpt><trkpt lat="33.3946486" lon="8.7440013"><ele>33.0</ele><time>2026-04-18T08:40:34.374Z</time></trkpt><trkpt lat="33.3945114" lon="8.7439213"><ele>33.0</ele><time>2026-04-18T08:40:35.367Z</time></trkpt><trkpt lat="33.3943695" lon="8.7438389"><ele>33.0</ele><time>2026-04-18T08:40:36.363Z</time></trkpt><trkpt lat="33.3942301" lon="8.7437577"><ele>33.0</ele><time>2026-04-18T08:40:37.375Z</time></trkpt><trkpt lat="33.3940871" lon="8.7436745"><ele>33.0</ele><time>2026-04-18T08:40:38.364Z</time></trkpt><trkpt lat="33.3939396" lon="8.7435884"><ele>33.0</ele><time>2026-04-18T08:40:39.372Z</time></trkpt><trkpt lat="33.3937891" lon="8.7435012"><ele>34.333333333333336</ele><time>2026-04-18T08:40:40.367Z</time></trkpt><trkpt lat="33.3936386" lon="8.7434125"><ele>35.66666666666667</ele><time>2026-04-18T08:40:41.369Z</time></trkpt><trkpt lat="33.3934862" lon="8.7433228"><ele>37.0</ele><time>2026-04-18T08:40:42.368Z</time></trkpt><trkpt lat="33.3933299" lon="8.7432309"><ele>37.0</ele><time>2026-04-18T08:40:43.372Z</time></trkpt><trkpt lat="33.3931692" lon="8.7431359"><ele>37.0</ele><time>2026-04-18T08:40:44.373Z</time></trkpt><trkpt lat="33.3930024" lon="8.7430374"><ele>37.0</ele><time>2026-04-18T08:40:45.367Z</time></trkpt><trkpt lat="33.3928341" lon="8.7429382"><ele>37.0</ele><time>2026-04-18T08:40:46.371Z</time></trkpt><trkpt lat="33.3926715" lon="8.7428428"><ele>37.0</ele><time>2026-04-18T08:40:47.372Z</time></trkpt><trkpt lat="33.3925105" lon="8.7427505"><ele>37.0</ele><time>2026-04-18T08:40:48.367Z</time></trkpt><trkpt lat="33.3923487" lon="8.7426584"><ele>37.0</ele><time>2026-04-18T08:40:49.366Z</time></trkpt><trkpt lat="33.3921861" lon="8.7425658"><ele>37.0</ele><time>2026-04-18T08:40:50.375Z</time></trkpt><trkpt lat="33.3920226" lon="8.7424726"><ele>37.0</ele><time>2026-04-18T08:40:51.369Z</time></trkpt><trkpt lat="33.3918572" lon="8.7423801"><ele>37.0</ele><time>2026-04-18T08:40:52.366Z</time></trkpt><trkpt lat="33.39169" lon="8.7422891"><ele>37.0</ele><time>2026-04-18T08:40:53.368Z</time></trkpt><trkpt lat="33.3915203" lon="8.7422009"><ele>37.0</ele><time>2026-04-18T08:40:54.369Z</time></trkpt><trkpt lat="33.391349" lon="8.7421144"><ele>37.333333333333336</ele><time>2026-04-18T08:40:55.369Z</time></trkpt><trkpt lat="33.3911755" lon="8.7420296"><ele>37.666666666666664</ele><time>2026-04-18T08:40:56.363Z</time></trkpt><trkpt lat="33.3909992" lon="8.7419486"><ele>38.0</ele><time>2026-04-18T08:40:57.365Z</time></trkpt><trkpt lat="33.3908236" lon="8.7418725"><ele>38.0</ele><time>2026-04-18T08:40:58.369Z</time></trkpt><trkpt lat="33.3906499" lon="8.7417986"><ele>38.0</ele><time>2026-04-18T08:40:59.365Z</time></trkpt><trkpt lat="33.3904771" lon="8.7417274"><ele>38.0</ele><time>2026-04-18T08:41:00.359Z</time></trkpt><trkpt lat="33.3903052" lon="8.7416585"><ele>38.0</ele><time>2026-04-18T08:41:01.364Z</time></trkpt><trkpt lat="33.3901335" lon="8.7415911"><ele>38.0</ele><time>2026-04-18T08:41:02.369Z</time></trkpt><trkpt lat="33.3899612" lon="8.741524"><ele>38.0</ele><time>2026-04-18T08:41:03.366Z</time></trkpt><trkpt lat="33.3897881" lon="8.741456"><ele>38.33333333333333</ele><time>2026-04-18T08:41:04.363Z</time></trkpt><trkpt lat="33.3896165" lon="8.7413882"><ele>38.666666666666664</ele><time>2026-04-18T08:41:05.362Z</time></trkpt><trkpt lat="33.3894478" lon="8.7413199"><ele>39.0</ele><time>2026-04-18T08:41:06.366Z</time></trkpt><trkpt lat="33.3892807" lon="8.7412516"><ele>39.0</ele><time>2026-04-18T08:41:07.365Z</time></trkpt><trkpt lat="33.3891133" lon="8.7411844"><ele>39.0</ele><time>2026-04-18T08:41:08.369Z</time></trkpt><trkpt lat="33.3889434" lon="8.741118"><ele>39.0</ele><time>2026-04-18T08:41:09.371Z</time></trkpt><trkpt lat="33.3887745" lon="8.7410519"><ele>39.333333333333336</ele><time>2026-04-18T08:41:10.392Z</time></trkpt><trkpt lat="33.3886066" lon="8.7409858"><ele>39.66666666666667</ele><time>2026-04-18T08:41:11.377Z</time></trkpt><trkpt lat="33.3884395" lon="8.7409191"><ele>40.0</ele><time>2026-04-18T08:41:12.38Z</time></trkpt><trkpt lat="33.3882719" lon="8.7408517"><ele>40.0</ele><time>2026-04-18T08:41:13.366Z</time></trkpt><trkpt lat="33.3881037" lon="8.7407843"><ele>40.0</ele><time>2026-04-18T08:41:14.372Z</time></trkpt><trkpt lat="33.3879347" lon="8.7407169"><ele>40.0</ele><time>2026-04-18T08:41:15.37Z</time></trkpt><trkpt lat="33.3877644" lon="8.7406498"><ele>40.0</ele><time>2026-04-18T08:41:16.366Z</time></trkpt><trkpt lat="33.3875936" lon="8.7405838"><ele>40.0</ele><time>2026-04-18T08:41:17.365Z</time></trkpt><trkpt lat="33.3874227" lon="8.7405186"><ele>40.0</ele><time>2026-04-18T08:41:18.361Z</time></trkpt><trkpt lat="33.3872532" lon="8.7404533"><ele>40.333333333333336</ele><time>2026-04-18T08:41:19.365Z</time></trkpt><trkpt lat="33.3870839" lon="8.7403869"><ele>40.666666666666664</ele><time>2026-04-18T08:41:20.361Z</time></trkpt><trkpt lat="33.3869137" lon="8.7403201"><ele>41.0</ele><time>2026-04-18T08:41:21.38Z</time></trkpt><trkpt lat="33.3867429" lon="8.7402534"><ele>41.33333333333333</ele><time>2026-04-18T08:41:22.376Z</time></trkpt><trkpt lat="33.3865709" lon="8.7401864"><ele>41.666666666666664</ele><time>2026-04-18T08:41:23.362Z</time></trkpt><trkpt lat="33.3863971" lon="8.7401197"><ele>42.0</ele><time>2026-04-18T08:41:24.367Z</time></trkpt><trkpt lat="33.3862233" lon="8.7400531"><ele>42.0</ele><time>2026-04-18T08:41:25.365Z</time></trkpt><trkpt lat="33.386051" lon="8.7399887"><ele>42.0</ele><time>2026-04-18T08:41:26.366Z</time></trkpt><trkpt lat="33.3858794" lon="8.7399246"><ele>42.0</ele><time>2026-04-18T08:41:27.366Z</time></trkpt><trkpt lat="33.3857077" lon="8.7398608"><ele>42.0</ele><time>2026-04-18T08:41:28.363Z</time></trkpt><trkpt lat="33.3855339" lon="8.7397972"><ele>42.0</ele><time>2026-04-18T08:41:29.362Z</time></trkpt><trkpt lat="33.3853583" lon="8.7397336"><ele>42.0</ele><time>2026-04-18T08:41:30.369Z</time></trkpt><trkpt lat="33.3851832" lon="8.73967"><ele>42.333333333333336</ele><time>2026-04-18T08:41:31.364Z</time></trkpt><trkpt lat="33.3850111" lon="8.7396085"><ele>42.66666666666667</ele><time>2026-04-18T08:41:32.358Z</time></trkpt><trkpt lat="33.3848431" lon="8.7395487"><ele>43.0</ele><time>2026-04-18T08:41:33.365Z</time></trkpt><trkpt lat="33.3846778" lon="8.7394894"><ele>43.0</ele><time>2026-04-18T08:41:34.364Z</time></trkpt><trkpt lat="33.3845121" lon="8.7394313"><ele>43.0</ele><time>2026-04-18T08:41:35.361Z</time></trkpt><trkpt lat="33.384346" lon="8.7393724"><ele>43.0</ele><time>2026-04-18T08:41:36.364Z</time></trkpt><trkpt lat="33.384178" lon="8.7393112"><ele>43.0</ele><time>2026-04-18T08:41:37.367Z</time></trkpt><trkpt lat="33.3840056" lon="8.739246"><ele>43.0</ele><time>2026-04-18T08:41:38.366Z</time></trkpt><trkpt lat="33.3838289" lon="8.7391787"><ele>43.0</ele><time>2026-04-18T08:41:39.372Z</time></trkpt><trkpt lat="33.383649" lon="8.7391109"><ele>43.0</ele><time>2026-04-18T08:41:40.374Z</time></trkpt><trkpt lat="33.3834634" lon="8.7390426"><ele>43.0</ele><time>2026-04-18T08:41:41.36Z</time></trkpt><trkpt lat="33.3832733" lon="8.7389734"><ele>43.0</ele><time>2026-04-18T08:41:42.367Z</time></trkpt><trkpt lat="33.3830848" lon="8.738906"><ele>43.333333333333336</ele><time>2026-04-18T08:41:43.364Z</time></trkpt><trkpt lat="33.3829033" lon="8.7388426"><ele>43.666666666666664</ele><time>2026-04-18T08:41:44.362Z</time></trkpt><trkpt lat="33.3827288" lon="8.7387816"><ele>44.0</ele><time>2026-04-18T08:41:45.371Z</time></trkpt><trkpt lat="33.3825564" lon="8.7387208"><ele>44.0</ele><time>2026-04-18T08:41:46.37Z</time></trkpt><trkpt lat="33.3823867" lon="8.7386584"><ele>44.0</ele><time>2026-04-18T08:41:47.364Z</time></trkpt><trkpt lat="33.3822193" lon="8.738595"><ele>44.0</ele><time>2026-04-18T08:41:48.37Z</time></trkpt><trkpt lat="33.3820524" lon="8.7385336"><ele>44.0</ele><time>2026-04-18T08:41:49.372Z</time></trkpt><trkpt lat="33.381884" lon="8.7384712"><ele>44.0</ele><time>2026-04-18T08:41:50.361Z</time></trkpt><trkpt lat="33.3817143" lon="8.7384081"><ele>44.0</ele><time>2026-04-18T08:41:51.369Z</time></trkpt><trkpt lat="33.3815432" lon="8.7383447"><ele>44.0</ele><time>2026-04-18T08:41:52.366Z</time></trkpt><trkpt lat="33.3813715" lon="8.7382809"><ele>44.0</ele><time>2026-04-18T08:41:53.367Z</time></trkpt><trkpt lat="33.3811992" lon="8.7382182"><ele>44.0</ele><time>2026-04-18T08:41:54.366Z</time></trkpt><trkpt lat="33.3810261" lon="8.7381578"><ele>44.0</ele><time>2026-04-18T08:41:55.37Z</time></trkpt><trkpt lat="33.380853" lon="8.7380972"><ele>44.0</ele><time>2026-04-18T08:41:56.363Z</time></trkpt><trkpt lat="33.3806804" lon="8.7380356"><ele>44.0</ele><time>2026-04-18T08:41:57.373Z</time></trkpt><trkpt lat="33.3805115" lon="8.7379745"><ele>44.33333333333333</ele><time>2026-04-18T08:41:58.367Z</time></trkpt><trkpt lat="33.3803485" lon="8.7379146"><ele>44.666666666666664</ele><time>2026-04-18T08:41:59.362Z</time></trkpt><trkpt lat="33.380188" lon="8.7378551"><ele>45.0</ele><time>2026-04-18T08:42:00.366Z</time></trkpt><trkpt lat="33.3800278" lon="8.7377963"><ele>45.0</ele><time>2026-04-18T08:42:01.371Z</time></trkpt><trkpt lat="33.3798676" lon="8.7377379"><ele>45.0</ele><time>2026-04-18T08:42:02.363Z</time></trkpt><trkpt lat="33.3797074" lon="8.7376781"><ele>45.0</ele><time>2026-04-18T08:42:03.363Z</time></trkpt><trkpt lat="33.3795462" lon="8.7376168"><ele>44.666666666666664</ele><time>2026-04-18T08:42:04.366Z</time></trkpt><trkpt lat="33.3793837" lon="8.7375556"><ele>44.33333333333333</ele><time>2026-04-18T08:42:05.373Z</time></trkpt><trkpt lat="33.3792214" lon="8.7374926"><ele>44.0</ele><time>2026-04-18T08:42:06.358Z</time></trkpt><trkpt lat="33.3790593" lon="8.7374263"><ele>44.0</ele><time>2026-04-18T08:42:07.363Z</time></trkpt><trkpt lat="33.378896" lon="8.7373573"><ele>44.0</ele><time>2026-04-18T08:42:08.367Z</time></trkpt><trkpt lat="33.3787318" lon="8.7372841"><ele>44.0</ele><time>2026-04-18T08:42:09.365Z</time></trkpt><trkpt lat="33.3785673" lon="8.7372067"><ele>43.666666666666664</ele><time>2026-04-18T08:42:10.37Z</time></trkpt><trkpt lat="33.3784034" lon="8.7371277"><ele>43.333333333333336</ele><time>2026-04-18T08:42:11.368Z</time></trkpt><trkpt lat="33.3782419" lon="8.7370498"><ele>43.0</ele><time>2026-04-18T08:42:12.363Z</time></trkpt><trkpt lat="33.378082" lon="8.7369716"><ele>42.66666666666667</ele><time>2026-04-18T08:42:13.36Z</time></trkpt><trkpt lat="33.3779226" lon="8.7368918"><ele>42.333333333333336</ele><time>2026-04-18T08:42:14.364Z</time></trkpt><trkpt lat="33.3777628" lon="8.7368116"><ele>42.0</ele><time>2026-04-18T08:42:15.371Z</time></trkpt><trkpt lat="33.3776057" lon="8.7367299"><ele>42.666666666666664</ele><time>2026-04-18T08:42:16.369Z</time></trkpt><trkpt lat="33.3774474" lon="8.7366463"><ele>43.33333333333333</ele><time>2026-04-18T08:42:17.358Z</time></trkpt><trkpt lat="33.3772881" lon="8.736563"><ele>44.0</ele><time>2026-04-18T08:42:18.361Z</time></trkpt><trkpt lat="33.3771263" lon="8.7364775"><ele>44.666666666666664</ele><time>2026-04-18T08:42:19.37Z</time></trkpt><trkpt lat="33.3769615" lon="8.73639"><ele>45.333333333333336</ele><time>2026-04-18T08:42:20.366Z</time></trkpt><trkpt lat="33.3767928" lon="8.7362988"><ele>46.0</ele><time>2026-04-18T08:42:21.364Z</time></trkpt><trkpt lat="33.3766203" lon="8.7362023"><ele>46.0</ele><time>2026-04-18T08:42:22.364Z</time></trkpt><trkpt lat="33.3764476" lon="8.7361035"><ele>46.0</ele><time>2026-04-18T08:42:23.367Z</time></trkpt><trkpt lat="33.3762774" lon="8.7360038"><ele>46.0</ele><time>2026-04-18T08:42:24.372Z</time></trkpt><trkpt lat="33.3761077" lon="8.7359044"><ele>44.333333333333336</ele><time>2026-04-18T08:42:25.367Z</time></trkpt><trkpt lat="33.3759391" lon="8.735804"><ele>42.666666666666664</ele><time>2026-04-18T08:42:26.363Z</time></trkpt><trkpt lat="33.3757741" lon="8.7357006"><ele>41.0</ele><time>2026-04-18T08:42:27.368Z</time></trkpt><trkpt lat="33.3756119" lon="8.7355941"><ele>41.33333333333333</ele><time>2026-04-18T08:42:28.364Z</time></trkpt><trkpt lat="33.3754521" lon="8.7354854"><ele>41.666666666666664</ele><time>2026-04-18T08:42:29.367Z</time></trkpt><trkpt lat="33.3752946" lon="8.7353748"><ele>42.0</ele><time>2026-04-18T08:42:30.367Z</time></trkpt><trkpt lat="33.3751387" lon="8.7352629"><ele>42.333333333333336</ele><time>2026-04-18T08:42:31.361Z</time></trkpt><trkpt lat="33.374984" lon="8.7351504"><ele>42.66666666666667</ele><time>2026-04-18T08:42:32.361Z</time></trkpt><trkpt lat="33.3748307" lon="8.7350361"><ele>43.0</ele><time>2026-04-18T08:42:33.365Z</time></trkpt><trkpt lat="33.3746786" lon="8.73492"><ele>43.0</ele><time>2026-04-18T08:42:34.367Z</time></trkpt><trkpt lat="33.3745275" lon="8.7348019"><ele>43.0</ele><time>2026-04-18T08:42:35.365Z</time></trkpt><trkpt lat="33.3743776" lon="8.7346827"><ele>43.0</ele><time>2026-04-18T08:42:36.367Z</time></trkpt><trkpt lat="33.3742289" lon="8.7345625"><ele>43.0</ele><time>2026-04-18T08:42:37.369Z</time></trkpt><trkpt lat="33.3740809" lon="8.7344426"><ele>43.0</ele><time>2026-04-18T08:42:38.364Z</time></trkpt><trkpt lat="33.3739336" lon="8.7343231"><ele>43.0</ele><time>2026-04-18T08:42:39.364Z</time></trkpt><trkpt lat="33.3737877" lon="8.7342037"><ele>43.333333333333336</ele><time>2026-04-18T08:42:40.366Z</time></trkpt><trkpt lat="33.3736434" lon="8.7340844"><ele>43.666666666666664</ele><time>2026-04-18T08:42:41.369Z</time></trkpt><trkpt lat="33.373501" lon="8.7339655"><ele>44.0</ele><time>2026-04-18T08:42:42.365Z</time></trkpt><trkpt lat="33.3733636" lon="8.73385"><ele>44.0</ele><time>2026-04-18T08:42:43.364Z</time></trkpt><trkpt lat="33.3732308" lon="8.7337376"><ele>44.0</ele><time>2026-04-18T08:42:44.363Z</time></trkpt><trkpt lat="33.3731" lon="8.7336261"><ele>44.0</ele><time>2026-04-18T08:42:45.363Z</time></trkpt><trkpt lat="33.3729704" lon="8.7335149"><ele>43.666666666666664</ele><time>2026-04-18T08:42:46.376Z</time></trkpt><trkpt lat="33.3728401" lon="8.7334002"><ele>43.333333333333336</ele><time>2026-04-18T08:42:47.364Z</time></trkpt><trkpt lat="33.37271" lon="8.7332808"><ele>43.0</ele><time>2026-04-18T08:42:48.364Z</time></trkpt><trkpt lat="33.3725808" lon="8.7331578"><ele>43.0</ele><time>2026-04-18T08:42:49.363Z</time></trkpt><trkpt lat="33.3724543" lon="8.7330356"><ele>43.0</ele><time>2026-04-18T08:42:50.373Z</time></trkpt><trkpt lat="33.3723294" lon="8.7329126"><ele>43.0</ele><time>2026-04-18T08:42:51.373Z</time></trkpt><trkpt lat="33.3722037" lon="8.7327872"><ele>42.333333333333336</ele><time>2026-04-18T08:42:52.371Z</time></trkpt><trkpt lat="33.3720774" lon="8.7326596"><ele>41.666666666666664</ele><time>2026-04-18T08:42:53.365Z</time></trkpt><trkpt lat="33.37195" lon="8.7325301"><ele>41.0</ele><time>2026-04-18T08:42:54.377Z</time></trkpt><trkpt lat="33.3718215" lon="8.7323991"><ele>41.0</ele><time>2026-04-18T08:42:55.376Z</time></trkpt><trkpt lat="33.3716932" lon="8.7322658"><ele>41.0</ele><time>2026-04-18T08:42:56.365Z</time></trkpt><trkpt lat="33.3715654" lon="8.7321306"><ele>41.0</ele><time>2026-04-18T08:42:57.368Z</time></trkpt><trkpt lat="33.371438" lon="8.7319939"><ele>41.33333333333333</ele><time>2026-04-18T08:42:58.372Z</time></trkpt><trkpt lat="33.3713115" lon="8.7318562"><ele>41.666666666666664</ele><time>2026-04-18T08:42:59.37Z</time></trkpt><trkpt lat="33.3711842" lon="8.7317191"><ele>42.0</ele><time>2026-04-18T08:43:00.372Z</time></trkpt><trkpt lat="33.3710566" lon="8.7315833"><ele>42.0</ele><time>2026-04-18T08:43:01.358Z</time></trkpt><trkpt lat="33.3709298" lon="8.7314486"><ele>42.0</ele><time>2026-04-18T08:43:02.368Z</time></trkpt><trkpt lat="33.3708039" lon="8.7313146"><ele>42.0</ele><time>2026-04-18T08:43:03.366Z</time></trkpt><trkpt lat="33.3706785" lon="8.7311818"><ele>42.0</ele><time>2026-04-18T08:43:04.361Z</time></trkpt><trkpt lat="33.3705538" lon="8.7310499"><ele>42.0</ele><time>2026-04-18T08:43:05.373Z</time></trkpt><trkpt lat="33.37043" lon="8.7309182"><ele>42.0</ele><time>2026-04-18T08:43:06.365Z</time></trkpt><trkpt lat="33.370307" lon="8.7307892"><ele>41.666666666666664</ele><time>2026-04-18T08:43:07.362Z</time></trkpt><trkpt lat="33.3701851" lon="8.7306636"><ele>41.33333333333333</ele><time>2026-04-18T08:43:08.37Z</time></trkpt><trkpt lat="33.3700673" lon="8.730541"><ele>41.0</ele><time>2026-04-18T08:43:09.366Z</time></trkpt><trkpt lat="33.3699532" lon="8.7304216"><ele>41.0</ele><time>2026-04-18T08:43:10.361Z</time></trkpt><trkpt lat="33.3698409" lon="8.7303035"><ele>41.0</ele><time>2026-04-18T08:43:11.368Z</time></trkpt><trkpt lat="33.3697287" lon="8.7301854"><ele>41.0</ele><time>2026-04-18T08:43:12.359Z</time></trkpt><trkpt lat="33.3696127" lon="8.7300627"><ele>41.666666666666664</ele><time>2026-04-18T08:43:13.365Z</time></trkpt><trkpt lat="33.3694941" lon="8.7299374"><ele>42.333333333333336</ele><time>2026-04-18T08:43:14.365Z</time></trkpt><trkpt lat="33.3693771" lon="8.7298125"><ele>43.0</ele><time>2026-04-18T08:43:15.367Z</time></trkpt><trkpt lat="33.3692625" lon="8.729689"><ele>43.0</ele><time>2026-04-18T08:43:16.359Z</time></trkpt><trkpt lat="33.3691487" lon="8.7295676"><ele>43.0</ele><time>2026-04-18T08:43:17.361Z</time></trkpt><trkpt lat="33.3690365" lon="8.7294465"><ele>43.0</ele><time>2026-04-18T08:43:18.369Z</time></trkpt><trkpt lat="33.3689235" lon="8.7293229"><ele>43.333333333333336</ele><time>2026-04-18T08:43:19.369Z</time></trkpt><trkpt lat="33.3688077" lon="8.7291972"><ele>43.666666666666664</ele><time>2026-04-18T08:43:20.366Z</time></trkpt><trkpt lat="33.3686895" lon="8.7290706"><ele>44.0</ele><time>2026-04-18T08:43:21.363Z</time></trkpt><trkpt lat="33.3685727" lon="8.7289456"><ele>44.0</ele><time>2026-04-18T08:43:22.374Z</time></trkpt><trkpt lat="33.3684571" lon="8.7288216"><ele>44.0</ele><time>2026-04-18T08:43:23.37Z</time></trkpt><trkpt lat="33.368342" lon="8.7286991"><ele>44.0</ele><time>2026-04-18T08:43:24.364Z</time></trkpt><trkpt lat="33.3682297" lon="8.7285801"><ele>44.0</ele><time>2026-04-18T08:43:25.361Z</time></trkpt><trkpt lat="33.368122" lon="8.7284654"><ele>44.0</ele><time>2026-04-18T08:43:26.365Z</time></trkpt><trkpt lat="33.3680181" lon="8.7283543"><ele>44.0</ele><time>2026-04-18T08:43:27.373Z</time></trkpt><trkpt lat="33.3679178" lon="8.728245"><ele>44.0</ele><time>2026-04-18T08:43:28.366Z</time></trkpt><trkpt lat="33.3678212" lon="8.7281371"><ele>44.0</ele><time>2026-04-18T08:43:29.376Z</time></trkpt><trkpt lat="33.3677267" lon="8.7280304"><ele>44.0</ele><time>2026-04-18T08:43:30.363Z</time></trkpt><trkpt lat="33.3676268" lon="8.7279174"><ele>44.0</ele><time>2026-04-18T08:43:31.364Z</time></trkpt><trkpt lat="33.3675241" lon="8.7278042"><ele>44.0</ele><time>2026-04-18T08:43:32.367Z</time></trkpt><trkpt lat="33.3674167" lon="8.7276848"><ele>44.33333333333333</ele><time>2026-04-18T08:43:33.366Z</time></trkpt><trkpt lat="33.3673053" lon="8.7275489"><ele>44.666666666666664</ele><time>2026-04-18T08:43:34.362Z</time></trkpt><trkpt lat="33.3671879" lon="8.7273878"><ele>45.0</ele><time>2026-04-18T08:43:35.372Z</time></trkpt><trkpt lat="33.3670731" lon="8.7272075"><ele>46.0</ele><time>2026-04-18T08:43:36.374Z</time></trkpt><trkpt lat="33.3669752" lon="8.727032"><ele>47.0</ele><time>2026-04-18T08:43:37.37Z</time></trkpt><trkpt lat="33.3668791" lon="8.7268432"><ele>48.0</ele><time>2026-04-18T08:43:38.373Z</time></trkpt><trkpt lat="33.3667799" lon="8.7266411"><ele>48.0</ele><time>2026-04-18T08:43:39.369Z</time></trkpt><trkpt lat="33.3666892" lon="8.7264491"><ele>48.0</ele><time>2026-04-18T08:43:40.368Z</time></trkpt><trkpt lat="33.3666041" lon="8.7262623"><ele>48.0</ele><time>2026-04-18T08:43:41.366Z</time></trkpt><trkpt lat="33.3665178" lon="8.7260701"><ele>48.0</ele><time>2026-04-18T08:43:42.37Z</time></trkpt><trkpt lat="33.3664299" lon="8.7258708"><ele>48.0</ele><time>2026-04-18T08:43:43.369Z</time></trkpt><trkpt lat="33.3663407" lon="8.7256634"><ele>48.0</ele><time>2026-04-18T08:43:44.367Z</time></trkpt><trkpt lat="33.366257" lon="8.7254583"><ele>47.333333333333336</ele><time>2026-04-18T08:43:45.368Z</time></trkpt><trkpt lat="33.3661764" lon="8.7252553"><ele>46.66666666666667</ele><time>2026-04-18T08:43:46.362Z</time></trkpt><trkpt lat="33.3660963" lon="8.7250507"><ele>46.0</ele><time>2026-04-18T08:43:47.368Z</time></trkpt><trkpt lat="33.3660172" lon="8.7248387"><ele>46.0</ele><time>2026-04-18T08:43:48.363Z</time></trkpt><trkpt lat="33.3659411" lon="8.7246276"><ele>46.0</ele><time>2026-04-18T08:43:49.374Z</time></trkpt><trkpt lat="33.3658684" lon="8.7244223"><ele>46.0</ele><time>2026-04-18T08:43:50.368Z</time></trkpt><trkpt lat="33.3657992" lon="8.7242229"><ele>45.333333333333336</ele><time>2026-04-18T08:43:51.367Z</time></trkpt><trkpt lat="33.3657325" lon="8.7240312"><ele>44.666666666666664</ele><time>2026-04-18T08:43:52.362Z</time></trkpt><trkpt lat="33.3656671" lon="8.7238466"><ele>44.0</ele><time>2026-04-18T08:43:53.368Z</time></trkpt><trkpt lat="33.3656031" lon="8.7236672"><ele>44.0</ele><time>2026-04-18T08:43:54.366Z</time></trkpt><trkpt lat="33.3655397" lon="8.7234932"><ele>44.0</ele><time>2026-04-18T08:43:55.371Z</time></trkpt><trkpt lat="33.3654743" lon="8.7233198"><ele>44.0</ele><time>2026-04-18T08:43:56.363Z</time></trkpt><trkpt lat="33.3654039" lon="8.7231492"><ele>44.33333333333333</ele><time>2026-04-18T08:43:57.368Z</time></trkpt><trkpt lat="33.3653287" lon="8.7229832"><ele>44.666666666666664</ele><time>2026-04-18T08:43:58.361Z</time></trkpt><trkpt lat="33.3652504" lon="8.7228233"><ele>45.0</ele><time>2026-04-18T08:43:59.367Z</time></trkpt><trkpt lat="33.3651714" lon="8.7226731"><ele>45.333333333333336</ele><time>2026-04-18T08:44:00.363Z</time></trkpt><trkpt lat="33.3650891" lon="8.7225316"><ele>45.66666666666667</ele><time>2026-04-18T08:44:01.365Z</time></trkpt><trkpt lat="33.3649972" lon="8.7223878"><ele>46.0</ele><time>2026-04-18T08:44:02.363Z</time></trkpt><trkpt lat="33.3648941" lon="8.7222399"><ele>46.0</ele><time>2026-04-18T08:44:03.365Z</time></trkpt><trkpt lat="33.3647804" lon="8.7220988"><ele>46.0</ele><time>2026-04-18T08:44:04.364Z</time></trkpt><trkpt lat="33.3646569" lon="8.7219591"><ele>46.0</ele><time>2026-04-18T08:44:05.369Z</time></trkpt><trkpt lat="33.3645274" lon="8.7218201"><ele>46.0</ele><time>2026-04-18T08:44:06.365Z</time></trkpt><trkpt lat="33.3643953" lon="8.7216813"><ele>46.0</ele><time>2026-04-18T08:44:07.369Z</time></trkpt><trkpt lat="33.3642648" lon="8.7215429"><ele>46.0</ele><time>2026-04-18T08:44:08.366Z</time></trkpt><trkpt lat="33.3641322" lon="8.7214055"><ele>46.0</ele><time>2026-04-18T08:44:09.363Z</time></trkpt><trkpt lat="33.3639979" lon="8.7212661"><ele>46.0</ele><time>2026-04-18T08:44:10.368Z</time></trkpt><trkpt lat="33.3638634" lon="8.7211254"><ele>46.0</ele><time>2026-04-18T08:44:11.364Z</time></trkpt><trkpt lat="33.3637281" lon="8.7209864"><ele>46.66666666666667</ele><time>2026-04-18T08:44:12.371Z</time></trkpt><trkpt lat="33.3635943" lon="8.7208483"><ele>47.333333333333336</ele><time>2026-04-18T08:44:13.367Z</time></trkpt><trkpt lat="33.3634626" lon="8.7207075"><ele>48.0</ele><time>2026-04-18T08:44:14.362Z</time></trkpt><trkpt lat="33.3633305" lon="8.7205644"><ele>48.0</ele><time>2026-04-18T08:44:15.366Z</time></trkpt><trkpt lat="33.3631966" lon="8.7204205"><ele>48.0</ele><time>2026-04-18T08:44:16.36Z</time></trkpt><trkpt lat="33.363061" lon="8.7202766"><ele>48.0</ele><time>2026-04-18T08:44:17.365Z</time></trkpt><trkpt lat="33.3629234" lon="8.7201321"><ele>48.33333333333333</ele><time>2026-04-18T08:44:18.37Z</time></trkpt><trkpt lat="33.3627853" lon="8.7199864"><ele>48.666666666666664</ele><time>2026-04-18T08:44:19.364Z</time></trkpt><trkpt lat="33.362649" lon="8.7198407"><ele>49.0</ele><time>2026-04-18T08:44:20.365Z</time></trkpt><trkpt lat="33.3625124" lon="8.7196938"><ele>49.0</ele><time>2026-04-18T08:44:21.365Z</time></trkpt><trkpt lat="33.3623754" lon="8.7195462"><ele>49.0</ele><time>2026-04-18T08:44:22.363Z</time></trkpt><trkpt lat="33.3622402" lon="8.7193988"><ele>49.0</ele><time>2026-04-18T08:44:23.371Z</time></trkpt><trkpt lat="33.362107" lon="8.7192514"><ele>48.666666666666664</ele><time>2026-04-18T08:44:24.371Z</time></trkpt><trkpt lat="33.3619755" lon="8.7191022"><ele>48.33333333333333</ele><time>2026-04-18T08:44:25.365Z</time></trkpt><trkpt lat="33.3618463" lon="8.71895"><ele>48.0</ele><time>2026-04-18T08:44:26.364Z</time></trkpt><trkpt lat="33.3617209" lon="8.7187954"><ele>48.0</ele><time>2026-04-18T08:44:27.361Z</time></trkpt><trkpt lat="33.3616008" lon="8.71864"><ele>48.0</ele><time>2026-04-18T08:44:28.361Z</time></trkpt><trkpt lat="33.3614843" lon="8.7184856"><ele>48.0</ele><time>2026-04-18T08:44:29.37Z</time></trkpt><trkpt lat="33.3613723" lon="8.7183335"><ele>49.33333333333333</ele><time>2026-04-18T08:44:30.364Z</time></trkpt><trkpt lat="33.3612648" lon="8.7181845"><ele>50.666666666666664</ele><time>2026-04-18T08:44:31.362Z</time></trkpt><trkpt lat="33.3611326" lon="8.7180753"><ele>52.0</ele><time>2026-04-18T08:44:32.366Z</time></trkpt><trkpt lat="33.3610192" lon="8.7179407"><ele>52.0</ele><time>2026-04-18T08:44:33.367Z</time></trkpt><trkpt lat="33.3609158" lon="8.7177986"><ele>52.0</ele><time>2026-04-18T08:44:34.366Z</time></trkpt><trkpt lat="33.3608138" lon="8.7176587"><ele>52.0</ele><time>2026-04-18T08:44:35.368Z</time></trkpt><trkpt lat="33.3607102" lon="8.7175129"><ele>51.0</ele><time>2026-04-18T08:44:36.367Z</time></trkpt><trkpt lat="33.3605985" lon="8.717362"><ele>50.0</ele><time>2026-04-18T08:44:37.367Z</time></trkpt><trkpt lat="33.3604868" lon="8.7171987"><ele>49.0</ele><time>2026-04-18T08:44:38.372Z</time></trkpt><trkpt lat="33.3603716" lon="8.7170284"><ele>48.0</ele><time>2026-04-18T08:44:39.363Z</time></trkpt><trkpt lat="33.3602526" lon="8.7168537"><ele>47.0</ele><time>2026-04-18T08:44:40.367Z</time></trkpt><trkpt lat="33.3601317" lon="8.7166772"><ele>46.0</ele><time>2026-04-18T08:44:41.365Z</time></trkpt><trkpt lat="33.3600131" lon="8.7165019"><ele>46.0</ele><time>2026-04-18T08:44:42.37Z</time></trkpt><trkpt lat="33.3598979" lon="8.7163284"><ele>46.0</ele><time>2026-04-18T08:44:43.37Z</time></trkpt><trkpt lat="33.3597852" lon="8.7161567"><ele>46.0</ele><time>2026-04-18T08:44:44.37Z</time></trkpt><trkpt lat="33.3596759" lon="8.7159851"><ele>46.333333333333336</ele><time>2026-04-18T08:44:45.361Z</time></trkpt><trkpt lat="33.3595754" lon="8.7158104"><ele>46.666666666666664</ele><time>2026-04-18T08:44:46.361Z</time></trkpt><trkpt lat="33.3594821" lon="8.7156292"><ele>47.0</ele><time>2026-04-18T08:44:47.376Z</time></trkpt><trkpt lat="33.3593923" lon="8.7154431"><ele>47.0</ele><time>2026-04-18T08:44:48.362Z</time></trkpt><trkpt lat="33.3593061" lon="8.7152518"><ele>47.0</ele><time>2026-04-18T08:44:49.371Z</time></trkpt><trkpt lat="33.3592256" lon="8.7150548"><ele>47.0</ele><time>2026-04-18T08:44:50.365Z</time></trkpt><trkpt lat="33.3591502" lon="8.7148535"><ele>46.666666666666664</ele><time>2026-04-18T08:44:51.362Z</time></trkpt><trkpt lat="33.3590797" lon="8.7146483"><ele>46.333333333333336</ele><time>2026-04-18T08:44:52.362Z</time></trkpt><trkpt lat="33.3590117" lon="8.714443"><ele>46.0</ele><time>2026-04-18T08:44:53.371Z</time></trkpt><trkpt lat="33.3589577" lon="8.7142294"><ele>45.66666666666667</ele><time>2026-04-18T08:44:54.355Z</time></trkpt><trkpt lat="33.3589076" lon="8.7140168"><ele>45.333333333333336</ele><time>2026-04-18T08:44:55.366Z</time></trkpt><trkpt lat="33.3588678" lon="8.713801"><ele>45.0</ele><time>2026-04-18T08:44:56.365Z</time></trkpt><trkpt lat="33.3588318" lon="8.7135742"><ele>46.0</ele><time>2026-04-18T08:44:57.365Z</time></trkpt><trkpt lat="33.3588045" lon="8.7133367"><ele>47.0</ele><time>2026-04-18T08:44:58.362Z</time></trkpt><trkpt lat="33.3587876" lon="8.713095"><ele>48.0</ele><time>2026-04-18T08:44:59.366Z</time></trkpt><trkpt lat="33.3587772" lon="8.7128523"><ele>47.666666666666664</ele><time>2026-04-18T08:45:00.368Z</time></trkpt><trkpt lat="33.3587771" lon="8.7126055"><ele>47.33333333333333</ele><time>2026-04-18T08:45:01.364Z</time></trkpt><trkpt lat="33.3587838" lon="8.7123609"><ele>47.0</ele><time>2026-04-18T08:45:02.365Z</time></trkpt><trkpt lat="33.3587994" lon="8.7121159"><ele>47.666666666666664</ele><time>2026-04-18T08:45:03.365Z</time></trkpt><trkpt lat="33.358821" lon="8.7118693"><ele>48.33333333333333</ele><time>2026-04-18T08:45:04.366Z</time></trkpt><trkpt lat="33.3588477" lon="8.7116178"><ele>49.0</ele><time>2026-04-18T08:45:05.365Z</time></trkpt><trkpt lat="33.3588815" lon="8.7113653"><ele>49.0</ele><time>2026-04-18T08:45:06.361Z</time></trkpt><trkpt lat="33.3589204" lon="8.7111061"><ele>49.0</ele><time>2026-04-18T08:45:07.367Z</time></trkpt><trkpt lat="33.3589585" lon="8.7108517"><ele>49.0</ele><time>2026-04-18T08:45:08.376Z</time></trkpt><trkpt lat="33.3589947" lon="8.7105957"><ele>49.0</ele><time>2026-04-18T08:45:09.374Z</time></trkpt><trkpt lat="33.3590329" lon="8.7103409"><ele>49.0</ele><time>2026-04-18T08:45:10.365Z</time></trkpt><trkpt lat="33.3590718" lon="8.7100872"><ele>49.0</ele><time>2026-04-18T08:45:11.364Z</time></trkpt><trkpt lat="33.3591107" lon="8.7098356"><ele>49.0</ele><time>2026-04-18T08:45:12.371Z</time></trkpt><trkpt lat="33.3591478" lon="8.7095863"><ele>49.0</ele><time>2026-04-18T08:45:13.364Z</time></trkpt><trkpt lat="33.359186" lon="8.7093394"><ele>49.0</ele><time>2026-04-18T08:45:14.366Z</time></trkpt><trkpt lat="33.3592245" lon="8.7090945"><ele>49.0</ele><time>2026-04-18T08:45:15.366Z</time></trkpt><trkpt lat="33.3592629" lon="8.7088509"><ele>49.0</ele><time>2026-04-18T08:45:16.361Z</time></trkpt><trkpt lat="33.3593027" lon="8.7086051"><ele>49.0</ele><time>2026-04-18T08:45:17.363Z</time></trkpt><trkpt lat="33.3593432" lon="8.7083572"><ele>48.666666666666664</ele><time>2026-04-18T08:45:18.364Z</time></trkpt><trkpt lat="33.3593826" lon="8.7081086"><ele>48.33333333333333</ele><time>2026-04-18T08:45:19.365Z</time></trkpt><trkpt lat="33.3594218" lon="8.7078604"><ele>48.0</ele><time>2026-04-18T08:45:20.368Z</time></trkpt><trkpt lat="33.35946" lon="8.7076214"><ele>48.0</ele><time>2026-04-18T08:45:21.365Z</time></trkpt><trkpt lat="33.3594931" lon="8.7074066"><ele>48.0</ele><time>2026-04-18T08:45:22.371Z</time></trkpt><trkpt lat="33.3595252" lon="8.7072104"><ele>48.0</ele><time>2026-04-18T08:45:23.364Z</time></trkpt><trkpt lat="33.3595567" lon="8.7070225"><ele>47.333333333333336</ele><time>2026-04-18T08:45:24.367Z</time></trkpt><trkpt lat="33.359587" lon="8.7068356"><ele>46.66666666666667</ele><time>2026-04-18T08:45:25.363Z</time></trkpt><trkpt lat="33.3596169" lon="8.7066453"><ele>46.0</ele><time>2026-04-18T08:45:26.369Z</time></trkpt><trkpt lat="33.3596486" lon="8.7064494"><ele>46.0</ele><time>2026-04-18T08:45:27.37Z</time></trkpt><trkpt lat="33.3596807" lon="8.7062548"><ele>46.0</ele><time>2026-04-18T08:45:28.367Z</time></trkpt><trkpt lat="33.3597144" lon="8.7060557"><ele>46.0</ele><time>2026-04-18T08:45:29.369Z</time></trkpt><trkpt lat="33.3597498" lon="8.7058478"><ele>46.66666666666667</ele><time>2026-04-18T08:45:30.365Z</time></trkpt><trkpt lat="33.3597858" lon="8.705632"><ele>47.333333333333336</ele><time>2026-04-18T08:45:31.367Z</time></trkpt><trkpt lat="33.3598215" lon="8.7054102"><ele>48.0</ele><time>2026-04-18T08:45:32.367Z</time></trkpt><trkpt lat="33.3598573" lon="8.7051852"><ele>48.0</ele><time>2026-04-18T08:45:33.365Z</time></trkpt><trkpt lat="33.3598939" lon="8.7049582"><ele>48.0</ele><time>2026-04-18T08:45:34.367Z</time></trkpt><trkpt lat="33.3599312" lon="8.7047265"><ele>48.0</ele><time>2026-04-18T08:45:35.363Z</time></trkpt><trkpt lat="33.3599686" lon="8.7044892"><ele>47.666666666666664</ele><time>2026-04-18T08:45:36.364Z</time></trkpt><trkpt lat="33.3600049" lon="8.704249"><ele>47.33333333333333</ele><time>2026-04-18T08:45:37.362Z</time></trkpt><trkpt lat="33.3600419" lon="8.7040101"><ele>47.0</ele><time>2026-04-18T08:45:38.365Z</time></trkpt><trkpt lat="33.3600798" lon="8.7037756"><ele>46.33333333333333</ele><time>2026-04-18T08:45:39.367Z</time></trkpt><trkpt lat="33.3601172" lon="8.7035437"><ele>45.666666666666664</ele><time>2026-04-18T08:45:40.358Z</time></trkpt><trkpt lat="33.3601535" lon="8.7033128"><ele>45.0</ele><time>2026-04-18T08:45:41.361Z</time></trkpt><trkpt lat="33.3601898" lon="8.7030831"><ele>45.0</ele><time>2026-04-18T08:45:42.366Z</time></trkpt><trkpt lat="33.3602273" lon="8.7028534"><ele>45.0</ele><time>2026-04-18T08:45:43.37Z</time></trkpt><trkpt lat="33.3602651" lon="8.7026239"><ele>45.0</ele><time>2026-04-18T08:45:44.367Z</time></trkpt><trkpt lat="33.3603019" lon="8.7023945"><ele>46.33333333333333</ele><time>2026-04-18T08:45:45.36Z</time></trkpt><trkpt lat="33.3603374" lon="8.7021677"><ele>47.666666666666664</ele><time>2026-04-18T08:45:46.365Z</time></trkpt><trkpt lat="33.3603724" lon="8.7019452"><ele>49.0</ele><time>2026-04-18T08:45:47.365Z</time></trkpt><trkpt lat="33.3604072" lon="8.7017259"><ele>49.0</ele><time>2026-04-18T08:45:48.358Z</time></trkpt><trkpt lat="33.3604407" lon="8.7015058"><ele>49.0</ele><time>2026-04-18T08:45:49.363Z</time></trkpt><trkpt lat="33.3604744" lon="8.7012842"><ele>49.0</ele><time>2026-04-18T08:45:50.359Z</time></trkpt><trkpt lat="33.3605084" lon="8.7010625"><ele>49.0</ele><time>2026-04-18T08:45:51.356Z</time></trkpt><trkpt lat="33.3605428" lon="8.700841"><ele>49.0</ele><time>2026-04-18T08:45:52.358Z</time></trkpt><trkpt lat="33.3605784" lon="8.7006184"><ele>49.0</ele><time>2026-04-18T08:45:53.358Z</time></trkpt><trkpt lat="33.3606144" lon="8.7003935"><ele>49.33333333333333</ele><time>2026-04-18T08:45:54.363Z</time></trkpt><trkpt lat="33.3606508" lon="8.7001662"><ele>49.66666666666667</ele><time>2026-04-18T08:45:55.36Z</time></trkpt><trkpt lat="33.3606876" lon="8.6999362"><ele>50.0</ele><time>2026-04-18T08:45:56.367Z</time></trkpt><trkpt lat="33.360724" lon="8.6997041"><ele>50.0</ele><time>2026-04-18T08:45:57.364Z</time></trkpt><trkpt lat="33.3607603" lon="8.69947"><ele>50.0</ele><time>2026-04-18T08:45:58.362Z</time></trkpt><trkpt lat="33.3607971" lon="8.6992342"><ele>50.0</ele><time>2026-04-18T08:45:59.358Z</time></trkpt><trkpt lat="33.3608345" lon="8.6989977"><ele>50.333333333333336</ele><time>2026-04-18T08:46:00.364Z</time></trkpt><trkpt lat="33.3608708" lon="8.6987614"><ele>50.66666666666667</ele><time>2026-04-18T08:46:01.366Z</time></trkpt><trkpt lat="33.3609063" lon="8.6985255"><ele>51.0</ele><time>2026-04-18T08:46:02.363Z</time></trkpt><trkpt lat="33.3609421" lon="8.6982906"><ele>51.33333333333333</ele><time>2026-04-18T08:46:03.361Z</time></trkpt><trkpt lat="33.3609783" lon="8.698056"><ele>51.666666666666664</ele><time>2026-04-18T08:46:04.365Z</time></trkpt><trkpt lat="33.3610137" lon="8.6978221"><ele>52.0</ele><time>2026-04-18T08:46:05.362Z</time></trkpt><trkpt lat="33.361049" lon="8.6975901"><ele>52.0</ele><time>2026-04-18T08:46:06.365Z</time></trkpt><trkpt lat="33.3610856" lon="8.6973591"><ele>52.0</ele><time>2026-04-18T08:46:07.364Z</time></trkpt><trkpt lat="33.3611215" lon="8.6971267"><ele>52.0</ele><time>2026-04-18T08:46:08.361Z</time></trkpt><trkpt lat="33.3611566" lon="8.6968903"><ele>51.666666666666664</ele><time>2026-04-18T08:46:09.361Z</time></trkpt><trkpt lat="33.3611937" lon="8.6966533"><ele>51.33333333333333</ele><time>2026-04-18T08:46:10.361Z</time></trkpt><trkpt lat="33.3612334" lon="8.6964148"><ele>51.0</ele><time>2026-04-18T08:46:11.36Z</time></trkpt><trkpt lat="33.3612737" lon="8.6961908"><ele>51.33333333333333</ele><time>2026-04-18T08:46:12.356Z</time></trkpt><trkpt lat="33.3613125" lon="8.6959508"><ele>51.666666666666664</ele><time>2026-04-18T08:46:13.362Z</time></trkpt><trkpt lat="33.3613484" lon="8.6957088"><ele>52.0</ele><time>2026-04-18T08:46:14.359Z</time></trkpt><trkpt lat="33.3613877" lon="8.6954659"><ele>52.33333333333333</ele><time>2026-04-18T08:46:15.358Z</time></trkpt><trkpt lat="33.3614255" lon="8.6952237"><ele>52.66666666666667</ele><time>2026-04-18T08:46:16.363Z</time></trkpt><trkpt lat="33.3614598" lon="8.6949841"><ele>53.0</ele><time>2026-04-18T08:46:17.367Z</time></trkpt><trkpt lat="33.3614972" lon="8.6947437"><ele>53.0</ele><time>2026-04-18T08:46:18.363Z</time></trkpt><trkpt lat="33.3615355" lon="8.6945055"><ele>53.0</ele><time>2026-04-18T08:46:19.361Z</time></trkpt><trkpt lat="33.361573" lon="8.694268"><ele>53.0</ele><time>2026-04-18T08:46:20.358Z</time></trkpt><trkpt lat="33.3616124" lon="8.6940325"><ele>53.333333333333336</ele><time>2026-04-18T08:46:21.362Z</time></trkpt><trkpt lat="33.3616524" lon="8.6937986"><ele>53.66666666666667</ele><time>2026-04-18T08:46:22.362Z</time></trkpt><trkpt lat="33.3616914" lon="8.6935644"><ele>54.0</ele><time>2026-04-18T08:46:23.366Z</time></trkpt><trkpt lat="33.361728" lon="8.6933298"><ele>54.0</ele><time>2026-04-18T08:46:24.382Z</time></trkpt><trkpt lat="33.3617638" lon="8.6930953"><ele>54.0</ele><time>2026-04-18T08:46:25.363Z</time></trkpt><trkpt lat="33.3617994" lon="8.6928602"><ele>54.0</ele><time>2026-04-18T08:46:26.359Z</time></trkpt><trkpt lat="33.3618326" lon="8.6926262"><ele>53.66666666666667</ele><time>2026-04-18T08:46:27.359Z</time></trkpt><trkpt lat="33.3618642" lon="8.6923907"><ele>53.333333333333336</ele><time>2026-04-18T08:46:28.364Z</time></trkpt><trkpt lat="33.3618951" lon="8.6921569"><ele>53.0</ele><time>2026-04-18T08:46:29.364Z</time></trkpt><trkpt lat="33.361926" lon="8.6919241"><ele>53.333333333333336</ele><time>2026-04-18T08:46:30.365Z</time></trkpt><trkpt lat="33.3619546" lon="8.6916919"><ele>53.66666666666667</ele><time>2026-04-18T08:46:31.37Z</time></trkpt><trkpt lat="33.3619819" lon="8.6914603"><ele>54.0</ele><time>2026-04-18T08:46:32.362Z</time></trkpt><trkpt lat="33.3620082" lon="8.6912305"><ele>54.33333333333333</ele><time>2026-04-18T08:46:33.362Z</time></trkpt><trkpt lat="33.3620344" lon="8.6910016"><ele>54.666666666666664</ele><time>2026-04-18T08:46:34.36Z</time></trkpt><trkpt lat="33.3620605" lon="8.6907743"><ele>55.0</ele><time>2026-04-18T08:46:35.364Z</time></trkpt><trkpt lat="33.3620862" lon="8.6905463"><ele>55.0</ele><time>2026-04-18T08:46:36.361Z</time></trkpt><trkpt lat="33.3621091" lon="8.6903171"><ele>55.0</ele><time>2026-04-18T08:46:37.368Z</time></trkpt><trkpt lat="33.3621306" lon="8.6900874"><ele>55.0</ele><time>2026-04-18T08:46:38.365Z</time></trkpt><trkpt lat="33.36215" lon="8.6898585"><ele>55.33333333333333</ele><time>2026-04-18T08:46:39.355Z</time></trkpt><trkpt lat="33.362165" lon="8.6896331"><ele>55.66666666666667</ele><time>2026-04-18T08:46:40.355Z</time></trkpt><trkpt lat="33.362175" lon="8.6894122"><ele>56.0</ele><time>2026-04-18T08:46:41.354Z</time></trkpt><trkpt lat="33.3621814" lon="8.6891961"><ele>56.0</ele><time>2026-04-18T08:46:42.359Z</time></trkpt><trkpt lat="33.3621876" lon="8.6889852"><ele>56.0</ele><time>2026-04-18T08:46:43.354Z</time></trkpt><trkpt lat="33.3621909" lon="8.6887785"><ele>56.0</ele><time>2026-04-18T08:46:44.359Z</time></trkpt><trkpt lat="33.3621885" lon="8.6885759"><ele>56.0</ele><time>2026-04-18T08:46:45.358Z</time></trkpt><trkpt lat="33.3621807" lon="8.6883766"><ele>56.0</ele><time>2026-04-18T08:46:46.359Z</time></trkpt><trkpt lat="33.3621692" lon="8.688176"><ele>56.0</ele><time>2026-04-18T08:46:47.36Z</time></trkpt><trkpt lat="33.3621577" lon="8.6879724"><ele>56.0</ele><time>2026-04-18T08:46:48.363Z</time></trkpt><trkpt lat="33.3621465" lon="8.6877652"><ele>56.0</ele><time>2026-04-18T08:46:49.362Z</time></trkpt><trkpt lat="33.3621373" lon="8.6875664"><ele>56.0</ele><time>2026-04-18T08:46:50.363Z</time></trkpt><trkpt lat="33.3621205" lon="8.6873673"><ele>56.333333333333336</ele><time>2026-04-18T08:46:51.36Z</time></trkpt><trkpt lat="33.3621087" lon="8.6871696"><ele>56.66666666666667</ele><time>2026-04-18T08:46:52.361Z</time></trkpt><trkpt lat="33.3621007" lon="8.6869755"><ele>57.0</ele><time>2026-04-18T08:46:53.359Z</time></trkpt><trkpt lat="33.3620917" lon="8.6867839"><ele>57.0</ele><time>2026-04-18T08:46:54.361Z</time></trkpt><trkpt lat="33.3620816" lon="8.6865959"><ele>57.0</ele><time>2026-04-18T08:46:55.355Z</time></trkpt><trkpt lat="33.3620709" lon="8.6864036"><ele>57.0</ele><time>2026-04-18T08:46:56.358Z</time></trkpt><trkpt lat="33.3620583" lon="8.6862096"><ele>57.33333333333333</ele><time>2026-04-18T08:46:57.354Z</time></trkpt><trkpt lat="33.362045" lon="8.6860182"><ele>57.666666666666664</ele><time>2026-04-18T08:46:58.356Z</time></trkpt><trkpt lat="33.3620309" lon="8.6858333"><ele>58.0</ele><time>2026-04-18T08:46:59.361Z</time></trkpt><trkpt lat="33.3620182" lon="8.6856554"><ele>58.0</ele><time>2026-04-18T08:47:00.35Z</time></trkpt><trkpt lat="33.3620048" lon="8.6854835"><ele>58.0</ele><time>2026-04-18T08:47:01.356Z</time></trkpt><trkpt lat="33.3619933" lon="8.6853217"><ele>58.0</ele><time>2026-04-18T08:47:02.356Z</time></trkpt><trkpt lat="33.361982" lon="8.6851728"><ele>58.0</ele><time>2026-04-18T08:47:03.361Z</time></trkpt><trkpt lat="33.3619723" lon="8.6850374"><ele>57.666666666666664</ele><time>2026-04-18T08:47:04.359Z</time></trkpt><trkpt lat="33.3619618" lon="8.684912"><ele>57.33333333333333</ele><time>2026-04-18T08:47:05.362Z</time></trkpt><trkpt lat="33.3619518" lon="8.684795"><ele>57.0</ele><time>2026-04-18T08:47:06.361Z</time></trkpt><trkpt lat="33.3619425" lon="8.6846848"><ele>56.66666666666667</ele><time>2026-04-18T08:47:07.366Z</time></trkpt><trkpt lat="33.3619353" lon="8.6845877"><ele>56.333333333333336</ele><time>2026-04-18T08:47:08.367Z</time></trkpt><trkpt lat="33.3619275" lon="8.6845063"><ele>56.0</ele><time>2026-04-18T08:47:09.36Z</time></trkpt><trkpt lat="33.3619209" lon="8.6844262"><ele>55.4</ele><time>2026-04-18T08:47:10.363Z</time></trkpt><trkpt lat="33.3619144" lon="8.6843342"><ele>54.8</ele><time>2026-04-18T08:47:11.367Z</time></trkpt><trkpt lat="33.3619061" lon="8.6842084"><ele>54.199999999999996</ele><time>2026-04-18T08:47:12.368Z</time></trkpt><trkpt lat="33.36189" lon="8.6840685"><ele>53.599999999999994</ele><time>2026-04-18T08:47:13.362Z</time></trkpt><trkpt lat="33.3618791" lon="8.683933"><ele>53.0</ele><time>2026-04-18T08:47:14.37Z</time></trkpt><trkpt lat="33.3618662" lon="8.6837927"><ele>53.0</ele><time>2026-04-18T08:47:15.368Z</time></trkpt><trkpt lat="33.3618556" lon="8.6836615"><ele>53.0</ele><time>2026-04-18T08:47:16.363Z</time></trkpt><trkpt lat="33.3618459" lon="8.6835322"><ele>53.0</ele><time>2026-04-18T08:47:17.365Z</time></trkpt><trkpt lat="33.3618391" lon="8.6834042"><ele>53.0</ele><time>2026-04-18T08:47:18.37Z</time></trkpt><trkpt lat="33.3618316" lon="8.683274"><ele>53.0</ele><time>2026-04-18T08:47:19.367Z</time></trkpt><trkpt lat="33.3618165" lon="8.6831389"><ele>53.0</ele><time>2026-04-18T08:47:20.367Z</time></trkpt><trkpt lat="33.3617947" lon="8.6829981"><ele>53.0</ele><time>2026-04-18T08:47:21.362Z</time></trkpt><trkpt lat="33.3617658" lon="8.6828581"><ele>53.0</ele><time>2026-04-18T08:47:22.371Z</time></trkpt><trkpt lat="33.3617223" lon="8.6827225"><ele>53.0</ele><time>2026-04-18T08:47:23.364Z</time></trkpt><trkpt lat="33.3616685" lon="8.6825966"><ele>53.0</ele><time>2026-04-18T08:47:24.365Z</time></trkpt><trkpt lat="33.3616038" lon="8.6824707"><ele>53.0</ele><time>2026-04-18T08:47:25.363Z</time></trkpt><trkpt lat="33.3615255" lon="8.6823452"><ele>53.0</ele><time>2026-04-18T08:47:26.367Z</time></trkpt><trkpt lat="33.3614378" lon="8.6822272"><ele>53.0</ele><time>2026-04-18T08:47:27.364Z</time></trkpt><trkpt lat="33.3613399" lon="8.6821182"><ele>53.0</ele><time>2026-04-18T08:47:28.362Z</time></trkpt><trkpt lat="33.3612312" lon="8.6820173"><ele>53.0</ele><time>2026-04-18T08:47:29.365Z</time></trkpt><trkpt lat="33.3611152" lon="8.68193"><ele>53.0</ele><time>2026-04-18T08:47:30.37Z</time></trkpt><trkpt lat="33.3609949" lon="8.6818542"><ele>53.0</ele><time>2026-04-18T08:47:31.366Z</time></trkpt><trkpt lat="33.3608835" lon="8.681786"><ele>53.0</ele><time>2026-04-18T08:47:32.37Z</time></trkpt><trkpt lat="33.3607756" lon="8.6817235"><ele>53.0</ele><time>2026-04-18T08:47:33.367Z</time></trkpt><trkpt lat="33.3606647" lon="8.6816633"><ele>53.0</ele><time>2026-04-18T08:47:34.365Z</time></trkpt><trkpt lat="33.3605632" lon="8.6816007"><ele>53.0</ele><time>2026-04-18T08:47:35.369Z</time></trkpt><trkpt lat="33.3604569" lon="8.6815373"><ele>52.75</ele><time>2026-04-18T08:47:36.373Z</time></trkpt><trkpt lat="33.3603507" lon="8.6814693"><ele>52.5</ele><time>2026-04-18T08:47:37.374Z</time></trkpt><trkpt lat="33.3602464" lon="8.6814079"><ele>52.25</ele><time>2026-04-18T08:47:38.365Z</time></trkpt><trkpt lat="33.3601345" lon="8.6813397"><ele>52.0</ele><time>2026-04-18T08:47:39.368Z</time></trkpt><trkpt lat="33.3600226" lon="8.6812678"><ele>52.0</ele><time>2026-04-18T08:47:40.362Z</time></trkpt><trkpt lat="33.3599114" lon="8.6811925"><ele>52.0</ele><time>2026-04-18T08:47:41.363Z</time></trkpt><trkpt lat="33.3598024" lon="8.6811122"><ele>52.0</ele><time>2026-04-18T08:47:42.371Z</time></trkpt><trkpt lat="33.3596946" lon="8.681028"><ele>52.0</ele><time>2026-04-18T08:47:43.362Z</time></trkpt><trkpt lat="33.3595854" lon="8.6809444"><ele>52.0</ele><time>2026-04-18T08:47:44.368Z</time></trkpt><trkpt lat="33.359486" lon="8.6808634"><ele>52.0</ele><time>2026-04-18T08:47:45.36Z</time></trkpt><trkpt lat="33.3593912" lon="8.6807831"><ele>52.0</ele><time>2026-04-18T08:47:46.362Z</time></trkpt><trkpt lat="33.3592977" lon="8.6807068"><ele>52.0</ele><time>2026-04-18T08:47:47.359Z</time></trkpt><trkpt lat="33.3592093" lon="8.6806279"><ele>52.0</ele><time>2026-04-18T08:47:48.365Z</time></trkpt><trkpt lat="33.3591195" lon="8.680548"><ele>52.0</ele><time>2026-04-18T08:47:49.37Z</time></trkpt><trkpt lat="33.3590302" lon="8.6804735"><ele>52.0</ele><time>2026-04-18T08:47:50.366Z</time></trkpt><trkpt lat="33.3589362" lon="8.6803994"><ele>52.0</ele><time>2026-04-18T08:47:51.362Z</time></trkpt><trkpt lat="33.358837" lon="8.6803247"><ele>52.0</ele><time>2026-04-18T08:47:52.364Z</time></trkpt><trkpt lat="33.3587388" lon="8.6802499"><ele>52.0</ele><time>2026-04-18T08:47:53.364Z</time></trkpt><trkpt lat="33.3586357" lon="8.6801729"><ele>52.0</ele><time>2026-04-18T08:47:54.359Z</time></trkpt><trkpt lat="33.3585315" lon="8.6800938"><ele>52.0</ele><time>2026-04-18T08:47:55.361Z</time></trkpt><trkpt lat="33.3584281" lon="8.6800101"><ele>52.0</ele><time>2026-04-18T08:47:56.361Z</time></trkpt><trkpt lat="33.3583247" lon="8.6799224"><ele>52.0</ele><time>2026-04-18T08:47:57.371Z</time></trkpt><trkpt lat="33.3582222" lon="8.6798306"><ele>52.0</ele><time>2026-04-18T08:47:58.363Z</time></trkpt><trkpt lat="33.3581225" lon="8.6797357"><ele>52.0</ele><time>2026-04-18T08:47:59.37Z</time></trkpt><trkpt lat="33.3580283" lon="8.6796438"><ele>51.75</ele><time>2026-04-18T08:48:00.365Z</time></trkpt><trkpt lat="33.3579386" lon="8.679552"><ele>51.5</ele><time>2026-04-18T08:48:01.365Z</time></trkpt><trkpt lat="33.357853" lon="8.6794569"><ele>51.25</ele><time>2026-04-18T08:48:02.367Z</time></trkpt><trkpt lat="33.357767" lon="8.679354"><ele>51.0</ele><time>2026-04-18T08:48:03.368Z</time></trkpt><trkpt lat="33.3576813" lon="8.679243"><ele>51.0</ele><time>2026-04-18T08:48:04.359Z</time></trkpt><trkpt lat="33.3575964" lon="8.6791247"><ele>51.0</ele><time>2026-04-18T08:48:05.371Z</time></trkpt><trkpt lat="33.3575177" lon="8.6790128"><ele>51.0</ele><time>2026-04-18T08:48:06.366Z</time></trkpt><trkpt lat="33.3574463" lon="8.678911"><ele>51.0</ele><time>2026-04-18T08:48:07.357Z</time></trkpt><trkpt lat="33.3573833" lon="8.6788157"><ele>51.0</ele><time>2026-04-18T08:48:08.371Z</time></trkpt><trkpt lat="33.3573284" lon="8.6787245"><ele>51.0</ele><time>2026-04-18T08:48:09.363Z</time></trkpt><trkpt lat="33.3572813" lon="8.6786424"><ele>51.0</ele><time>2026-04-18T08:48:10.368Z</time></trkpt><trkpt lat="33.3572392" lon="8.6785661"><ele>51.0</ele><time>2026-04-18T08:48:11.368Z</time></trkpt><trkpt lat="33.3572015" lon="8.6784891"><ele>51.0</ele><time>2026-04-18T08:48:12.375Z</time></trkpt><trkpt lat="33.3571651" lon="8.6784143"><ele>51.0</ele><time>2026-04-18T08:48:13.362Z</time></trkpt><trkpt lat="33.3571278" lon="8.6783411"><ele>51.0</ele><time>2026-04-18T08:48:14.365Z</time></trkpt><trkpt lat="33.3570914" lon="8.6782672"><ele>51.0</ele><time>2026-04-18T08:48:15.359Z</time></trkpt><trkpt lat="33.357056" lon="8.67819"><ele>51.0</ele><time>2026-04-18T08:48:16.365Z</time></trkpt><trkpt lat="33.3570172" lon="8.6781081"><ele>51.0</ele><time>2026-04-18T08:48:17.362Z</time></trkpt><trkpt lat="33.3569765" lon="8.6780219"><ele>51.0</ele><time>2026-04-18T08:48:18.359Z</time></trkpt><trkpt lat="33.3569327" lon="8.6779313"><ele>51.0</ele><time>2026-04-18T08:48:19.364Z</time></trkpt><trkpt lat="33.3568863" lon="8.6778364"><ele>51.0</ele><time>2026-04-18T08:48:20.357Z</time></trkpt><trkpt lat="33.3568379" lon="8.6777364"><ele>51.0</ele><time>2026-04-18T08:48:21.368Z</time></trkpt><trkpt lat="33.3567871" lon="8.6776325"><ele>51.0</ele><time>2026-04-18T08:48:22.363Z</time></trkpt><trkpt lat="33.3567326" lon="8.6775257"><ele>51.0</ele><time>2026-04-18T08:48:23.363Z</time></trkpt><trkpt lat="33.3566762" lon="8.6774171"><ele>51.0</ele><time>2026-04-18T08:48:24.368Z</time></trkpt><trkpt lat="33.3566215" lon="8.6773063"><ele>51.0</ele><time>2026-04-18T08:48:25.372Z</time></trkpt><trkpt lat="33.3565695" lon="8.6772001"><ele>51.0</ele><time>2026-04-18T08:48:26.37Z</time></trkpt><trkpt lat="33.3565202" lon="8.6770979"><ele>51.0</ele><time>2026-04-18T08:48:27.368Z</time></trkpt><trkpt lat="33.3564751" lon="8.6770021"><ele>51.0</ele><time>2026-04-18T08:48:28.363Z</time></trkpt><trkpt lat="33.3564309" lon="8.6769118"><ele>51.0</ele><time>2026-04-18T08:48:29.362Z</time></trkpt><trkpt lat="33.3563888" lon="8.6768278"><ele>50.8</ele><time>2026-04-18T08:48:30.369Z</time></trkpt><trkpt lat="33.3563438" lon="8.6767423"><ele>50.599999999999994</ele><time>2026-04-18T08:48:31.364Z</time></trkpt><trkpt lat="33.3562929" lon="8.6766479"><ele>50.4</ele><time>2026-04-18T08:48:32.367Z</time></trkpt><trkpt lat="33.3562376" lon="8.6765518"><ele>50.2</ele><time>2026-04-18T08:48:33.362Z</time></trkpt><trkpt lat="33.3561736" lon="8.6764504"><ele>50.0</ele><time>2026-04-18T08:48:34.371Z</time></trkpt><trkpt lat="33.3561085" lon="8.6763445"><ele>50.0</ele><time>2026-04-18T08:48:35.36Z</time></trkpt><trkpt lat="33.3560446" lon="8.6762306"><ele>50.0</ele><time>2026-04-18T08:48:36.364Z</time></trkpt><trkpt lat="33.3559776" lon="8.6761101"><ele>50.0</ele><time>2026-04-18T08:48:37.364Z</time></trkpt><trkpt lat="33.3559091" lon="8.6759831"><ele>50.0</ele><time>2026-04-18T08:48:38.365Z</time></trkpt><trkpt lat="33.3558474" lon="8.6758647"><ele>50.2</ele><time>2026-04-18T08:48:39.365Z</time></trkpt><trkpt lat="33.3557949" lon="8.6757624"><ele>50.4</ele><time>2026-04-18T08:48:40.371Z</time></trkpt><trkpt lat="33.3557493" lon="8.6756691"><ele>50.599999999999994</ele><time>2026-04-18T08:48:41.375Z</time></trkpt><trkpt lat="33.3557069" lon="8.6755785"><ele>50.8</ele><time>2026-04-18T08:48:42.361Z</time></trkpt><trkpt lat="33.3556593" lon="8.6754946"><ele>51.0</ele><time>2026-04-18T08:48:43.371Z</time></trkpt><trkpt lat="33.3556023" lon="8.6753936"><ele>51.0</ele><time>2026-04-18T08:48:44.369Z</time></trkpt><trkpt lat="33.355555" lon="8.6752832"><ele>51.0</ele><time>2026-04-18T08:48:45.365Z</time></trkpt><trkpt lat="33.3555274" lon="8.6751656"><ele>51.0</ele><time>2026-04-18T08:48:46.368Z</time></trkpt><trkpt lat="33.3555012" lon="8.6750403"><ele>51.0</ele><time>2026-04-18T08:48:47.362Z</time></trkpt><trkpt lat="33.3554745" lon="8.6749179"><ele>51.0</ele><time>2026-04-18T08:48:48.365Z</time></trkpt><trkpt lat="33.3554551" lon="8.6747922"><ele>50.8</ele><time>2026-04-18T08:48:49.365Z</time></trkpt><trkpt lat="33.3554467" lon="8.6746672"><ele>50.599999999999994</ele><time>2026-04-18T08:48:50.362Z</time></trkpt><trkpt lat="33.3554481" lon="8.6745391"><ele>50.4</ele><time>2026-04-18T08:48:51.362Z</time></trkpt><trkpt lat="33.3554599" lon="8.6744136"><ele>50.2</ele><time>2026-04-18T08:48:52.366Z</time></trkpt><trkpt lat="33.3554843" lon="8.6742936"><ele>50.0</ele><time>2026-04-18T08:48:53.364Z</time></trkpt><trkpt lat="33.3555214" lon="8.6741846"><ele>50.4</ele><time>2026-04-18T08:48:54.367Z</time></trkpt><trkpt lat="33.3555671" lon="8.674083"><ele>50.8</ele><time>2026-04-18T08:48:55.362Z</time></trkpt><trkpt lat="33.3556179" lon="8.673989"><ele>51.2</ele><time>2026-04-18T08:48:56.37Z</time></trkpt><trkpt lat="33.3556707" lon="8.6738994"><ele>51.6</ele><time>2026-04-18T08:48:57.37Z</time></trkpt><trkpt lat="33.3557271" lon="8.6738098"><ele>52.0</ele><time>2026-04-18T08:48:58.368Z</time></trkpt><trkpt lat="33.3557903" lon="8.6737172"><ele>52.0</ele><time>2026-04-18T08:48:59.371Z</time></trkpt><trkpt lat="33.3558594" lon="8.6736235"><ele>52.0</ele><time>2026-04-18T08:49:00.377Z</time></trkpt><trkpt lat="33.3559374" lon="8.6735226"><ele>52.0</ele><time>2026-04-18T08:49:01.362Z</time></trkpt><trkpt lat="33.3560209" lon="8.6734123"><ele>52.0</ele><time>2026-04-18T08:49:02.368Z</time></trkpt><trkpt lat="33.3561113" lon="8.6732927"><ele>51.5</ele><time>2026-04-18T08:49:03.371Z</time></trkpt><trkpt lat="33.3562054" lon="8.6731697"><ele>51.0</ele><time>2026-04-18T08:49:04.363Z</time></trkpt><trkpt lat="33.3562999" lon="8.673045"><ele>50.5</ele><time>2026-04-18T08:49:05.379Z</time></trkpt><trkpt lat="33.3563901" lon="8.6729244"><ele>50.0</ele><time>2026-04-18T08:49:06.377Z</time></trkpt><trkpt lat="33.3564789" lon="8.6728056"><ele>49.5</ele><time>2026-04-18T08:49:07.372Z</time></trkpt><trkpt lat="33.356566" lon="8.6726865"><ele>49.0</ele><time>2026-04-18T08:49:08.377Z</time></trkpt><trkpt lat="33.3566475" lon="8.6725732"><ele>48.5</ele><time>2026-04-18T08:49:09.377Z</time></trkpt><trkpt lat="33.3567232" lon="8.6724684"><ele>48.0</ele><time>2026-04-18T08:49:10.386Z</time></trkpt><trkpt lat="33.3567972" lon="8.6723682"><ele>48.0</ele><time>2026-04-18T08:49:11.371Z</time></trkpt><trkpt lat="33.3568742" lon="8.6722611"><ele>48.0</ele><time>2026-04-18T08:49:12.369Z</time></trkpt><trkpt lat="33.356953" lon="8.6721525"><ele>48.0</ele><time>2026-04-18T08:49:13.377Z</time></trkpt><trkpt lat="33.3570309" lon="8.6720466"><ele>48.0</ele><time>2026-04-18T08:49:14.38Z</time></trkpt><trkpt lat="33.3571078" lon="8.671945"><ele>47.8</ele><time>2026-04-18T08:49:15.362Z</time></trkpt><trkpt lat="33.3571818" lon="8.6718461"><ele>47.599999999999994</ele><time>2026-04-18T08:49:16.369Z</time></trkpt><trkpt lat="33.3572548" lon="8.6717475"><ele>47.400000000000006</ele><time>2026-04-18T08:49:17.363Z</time></trkpt><trkpt lat="33.3573263" lon="8.6716499"><ele>47.2</ele><time>2026-04-18T08:49:18.379Z</time></trkpt><trkpt lat="33.3573962" lon="8.6715512"><ele>47.0</ele><time>2026-04-18T08:49:19.369Z</time></trkpt><trkpt lat="33.3574645" lon="8.6714529"><ele>47.0</ele><time>2026-04-18T08:49:20.365Z</time></trkpt><trkpt lat="33.3575328" lon="8.6713566"><ele>47.0</ele><time>2026-04-18T08:49:21.368Z</time></trkpt><trkpt lat="33.3576025" lon="8.6712604"><ele>47.0</ele><time>2026-04-18T08:49:22.36Z</time></trkpt><trkpt lat="33.3576741" lon="8.6711636"><ele>47.0</ele><time>2026-04-18T08:49:23.365Z</time></trkpt><trkpt lat="33.3577492" lon="8.6710646"><ele>47.0</ele><time>2026-04-18T08:49:24.365Z</time></trkpt><trkpt lat="33.3578247" lon="8.6709638"><ele>47.25</ele><time>2026-04-18T08:49:25.363Z</time></trkpt><trkpt lat="33.3578991" lon="8.6708633"><ele>47.5</ele><time>2026-04-18T08:49:26.36Z</time></trkpt><trkpt lat="33.3579745" lon="8.6707613"><ele>47.75</ele><time>2026-04-18T08:49:27.368Z</time></trkpt><trkpt lat="33.3580516" lon="8.670659"><ele>48.0</ele><time>2026-04-18T08:49:28.372Z</time></trkpt><trkpt lat="33.3581331" lon="8.6705538"><ele>48.0</ele><time>2026-04-18T08:49:29.364Z</time></trkpt><trkpt lat="33.358216" lon="8.6704503"><ele>48.0</ele><time>2026-04-18T08:49:30.366Z</time></trkpt><trkpt lat="33.3583004" lon="8.6703482"><ele>48.0</ele><time>2026-04-18T08:49:31.365Z</time></trkpt><trkpt lat="33.3583838" lon="8.6702427"><ele>48.0</ele><time>2026-04-18T08:49:32.366Z</time></trkpt><trkpt lat="33.3584658" lon="8.6701366"><ele>47.75</ele><time>2026-04-18T08:49:33.362Z</time></trkpt><trkpt lat="33.3585482" lon="8.6700276"><ele>47.5</ele><time>2026-04-18T08:49:34.366Z</time></trkpt><trkpt lat="33.3586328" lon="8.6699197"><ele>47.25</ele><time>2026-04-18T08:49:35.371Z</time></trkpt><trkpt lat="33.3587198" lon="8.6698173"><ele>47.0</ele><time>2026-04-18T08:49:36.366Z</time></trkpt><trkpt lat="33.3587988" lon="8.6697239"><ele>47.0</ele><time>2026-04-18T08:49:37.367Z</time></trkpt><trkpt lat="33.3588789" lon="8.6696317"><ele>47.0</ele><time>2026-04-18T08:49:38.37Z</time></trkpt><trkpt lat="33.3589674" lon="8.6695323"><ele>47.0</ele><time>2026-04-18T08:49:39.369Z</time></trkpt><trkpt lat="33.3590646" lon="8.6694239"><ele>47.0</ele><time>2026-04-18T08:49:40.369Z</time></trkpt><trkpt lat="33.3591758" lon="8.6693047"><ele>47.0</ele><time>2026-04-18T08:49:41.36Z</time></trkpt><trkpt lat="33.359296" lon="8.6691865"><ele>47.0</ele><time>2026-04-18T08:49:42.36Z</time></trkpt><trkpt lat="33.3594167" lon="8.6690743"><ele>47.0</ele><time>2026-04-18T08:49:43.356Z</time></trkpt><trkpt lat="33.3595341" lon="8.6689721"><ele>47.0</ele><time>2026-04-18T08:49:44.361Z</time></trkpt><trkpt lat="33.3596508" lon="8.6688754"><ele>47.0</ele><time>2026-04-18T08:49:45.365Z</time></trkpt><trkpt lat="33.3597686" lon="8.6687797"><ele>47.0</ele><time>2026-04-18T08:49:46.358Z</time></trkpt><trkpt lat="33.3598877" lon="8.6686811"><ele>47.0</ele><time>2026-04-18T08:49:47.37Z</time></trkpt><trkpt lat="33.3600122" lon="8.6685788"><ele>46.666666666666664</ele><time>2026-04-18T08:49:48.362Z</time></trkpt><trkpt lat="33.3601426" lon="8.6684706"><ele>46.333333333333336</ele><time>2026-04-18T08:49:49.365Z</time></trkpt><trkpt lat="33.3602725" lon="8.6683637"><ele>46.0</ele><time>2026-04-18T08:49:50.361Z</time></trkpt><trkpt lat="33.3604008" lon="8.6682592"><ele>46.0</ele><time>2026-04-18T08:49:51.367Z</time></trkpt><trkpt lat="33.3605276" lon="8.6681536"><ele>46.0</ele><time>2026-04-18T08:49:52.361Z</time></trkpt><trkpt lat="33.3606514" lon="8.6680476"><ele>46.0</ele><time>2026-04-18T08:49:53.358Z</time></trkpt><trkpt lat="33.3607736" lon="8.6679442"><ele>45.66666666666667</ele><time>2026-04-18T08:49:54.361Z</time></trkpt><trkpt lat="33.3608934" lon="8.6678435"><ele>45.333333333333336</ele><time>2026-04-18T08:49:55.368Z</time></trkpt><trkpt lat="33.3610184" lon="8.6677366"><ele>45.0</ele><time>2026-04-18T08:49:56.358Z</time></trkpt><trkpt lat="33.3611559" lon="8.6676189"><ele>45.0</ele><time>2026-04-18T08:49:57.37Z</time></trkpt><trkpt lat="33.3612786" lon="8.6675144"><ele>45.0</ele><time>2026-04-18T08:49:58.367Z</time></trkpt><trkpt lat="33.3613881" lon="8.6674232"><ele>45.0</ele><time>2026-04-18T08:49:59.363Z</time></trkpt><trkpt lat="33.3614905" lon="8.6673369"><ele>45.0</ele><time>2026-04-18T08:50:00.361Z</time></trkpt><trkpt lat="33.3615927" lon="8.6672479"><ele>45.0</ele><time>2026-04-18T08:50:01.367Z</time></trkpt><trkpt lat="33.3617016" lon="8.6671559"><ele>45.0</ele><time>2026-04-18T08:50:02.363Z</time></trkpt><trkpt lat="33.3618158" lon="8.6670627"><ele>45.0</ele><time>2026-04-18T08:50:03.361Z</time></trkpt><trkpt lat="33.3619347" lon="8.6669653"><ele>45.0</ele><time>2026-04-18T08:50:04.36Z</time></trkpt><trkpt lat="33.3620535" lon="8.6668683"><ele>44.666666666666664</ele><time>2026-04-18T08:50:05.366Z</time></trkpt><trkpt lat="33.3621752" lon="8.6667673"><ele>44.33333333333333</ele><time>2026-04-18T08:50:06.363Z</time></trkpt><trkpt lat="33.3622979" lon="8.666665"><ele>44.0</ele><time>2026-04-18T08:50:07.38Z</time></trkpt><trkpt lat="33.3624219" lon="8.6665592"><ele>43.666666666666664</ele><time>2026-04-18T08:50:08.357Z</time></trkpt><trkpt lat="33.3625524" lon="8.6664506"><ele>43.333333333333336</ele><time>2026-04-18T08:50:09.361Z</time></trkpt><trkpt lat="33.3626911" lon="8.6663372"><ele>43.0</ele><time>2026-04-18T08:50:10.374Z</time></trkpt><trkpt lat="33.3628297" lon="8.6662234"><ele>42.0</ele><time>2026-04-18T08:50:11.367Z</time></trkpt><trkpt lat="33.3629756" lon="8.666102"><ele>41.0</ele><time>2026-04-18T08:50:12.358Z</time></trkpt><trkpt lat="33.3631269" lon="8.6659751"><ele>40.0</ele><time>2026-04-18T08:50:13.36Z</time></trkpt><trkpt lat="33.363281" lon="8.6658455"><ele>40.0</ele><time>2026-04-18T08:50:14.359Z</time></trkpt><trkpt lat="33.3634345" lon="8.6657166"><ele>40.0</ele><time>2026-04-18T08:50:15.362Z</time></trkpt><trkpt lat="33.3635869" lon="8.6655886"><ele>40.0</ele><time>2026-04-18T08:50:16.368Z</time></trkpt><trkpt lat="33.3637402" lon="8.6654613"><ele>40.333333333333336</ele><time>2026-04-18T08:50:17.364Z</time></trkpt><trkpt lat="33.3638919" lon="8.6653332"><ele>40.666666666666664</ele><time>2026-04-18T08:50:18.369Z</time></trkpt><trkpt lat="33.3640412" lon="8.6652013"><ele>41.0</ele><time>2026-04-18T08:50:19.384Z</time></trkpt><trkpt lat="33.3641892" lon="8.6650656"><ele>41.0</ele><time>2026-04-18T08:50:20.365Z</time></trkpt><trkpt lat="33.3643357" lon="8.6649299"><ele>41.0</ele><time>2026-04-18T08:50:21.362Z</time></trkpt><trkpt lat="33.364481" lon="8.6647942"><ele>41.0</ele><time>2026-04-18T08:50:22.362Z</time></trkpt><trkpt lat="33.3646228" lon="8.6646557"><ele>41.0</ele><time>2026-04-18T08:50:23.358Z</time></trkpt><trkpt lat="33.3647613" lon="8.6645109"><ele>41.0</ele><time>2026-04-18T08:50:24.367Z</time></trkpt><trkpt lat="33.3648945" lon="8.664358"><ele>41.0</ele><time>2026-04-18T08:50:25.364Z</time></trkpt><trkpt lat="33.3650241" lon="8.6641964"><ele>41.0</ele><time>2026-04-18T08:50:26.365Z</time></trkpt><trkpt lat="33.3651508" lon="8.6640293"><ele>41.0</ele><time>2026-04-18T08:50:27.362Z</time></trkpt><trkpt lat="33.3652723" lon="8.6638587"><ele>41.0</ele><time>2026-04-18T08:50:28.361Z</time></trkpt><trkpt lat="33.3653884" lon="8.6636853"><ele>40.666666666666664</ele><time>2026-04-18T08:50:29.362Z</time></trkpt><trkpt lat="33.365501" lon="8.6635089"><ele>40.333333333333336</ele><time>2026-04-18T08:50:30.37Z</time></trkpt><trkpt lat="33.3656095" lon="8.6633319"><ele>40.0</ele><time>2026-04-18T08:50:31.361Z</time></trkpt><trkpt lat="33.3657117" lon="8.6631545"><ele>39.66666666666667</ele><time>2026-04-18T08:50:32.361Z</time></trkpt><trkpt lat="33.3658059" lon="8.6629739"><ele>39.333333333333336</ele><time>2026-04-18T08:50:33.364Z</time></trkpt><trkpt lat="33.3658901" lon="8.6627951"><ele>39.0</ele><time>2026-04-18T08:50:34.362Z</time></trkpt><trkpt lat="33.3659668" lon="8.6626123"><ele>38.333333333333336</ele><time>2026-04-18T08:50:35.363Z</time></trkpt><trkpt lat="33.3660388" lon="8.6624222"><ele>37.66666666666667</ele><time>2026-04-18T08:50:36.367Z</time></trkpt><trkpt lat="33.366108" lon="8.6622316"><ele>37.0</ele><time>2026-04-18T08:50:37.37Z</time></trkpt><trkpt lat="33.3661737" lon="8.6620398"><ele>37.333333333333336</ele><time>2026-04-18T08:50:38.369Z</time></trkpt><trkpt lat="33.3662351" lon="8.6618472"><ele>37.666666666666664</ele><time>2026-04-18T08:50:39.369Z</time></trkpt><trkpt lat="33.3662922" lon="8.6616545"><ele>38.0</ele><time>2026-04-18T08:50:40.362Z</time></trkpt><trkpt lat="33.3663435" lon="8.661469"><ele>38.0</ele><time>2026-04-18T08:50:41.37Z</time></trkpt><trkpt lat="33.3663888" lon="8.661295"><ele>38.0</ele><time>2026-04-18T08:50:42.365Z</time></trkpt><trkpt lat="33.3664329" lon="8.6611157"><ele>38.0</ele><time>2026-04-18T08:50:43.36Z</time></trkpt><trkpt lat="33.3664819" lon="8.6609367"><ele>38.0</ele><time>2026-04-18T08:50:44.366Z</time></trkpt><trkpt lat="33.3665239" lon="8.6607507"><ele>38.0</ele><time>2026-04-18T08:50:45.369Z</time></trkpt><trkpt lat="33.3665633" lon="8.6605933"><ele>38.0</ele><time>2026-04-18T08:50:46.361Z</time></trkpt><trkpt lat="33.36659" lon="8.6604648"><ele>38.0</ele><time>2026-04-18T08:50:47.366Z</time></trkpt><trkpt lat="33.3666096" lon="8.6603669"><ele>37.8</ele><time>2026-04-18T08:50:48.364Z</time></trkpt><trkpt lat="33.3666344" lon="8.6602498"><ele>37.599999999999994</ele><time>2026-04-18T08:50:50.367Z</time></trkpt><trkpt lat="33.3666722" lon="8.6601662"><ele>37.400000000000006</ele><time>2026-04-18T08:51:17.374Z</time></trkpt><trkpt lat="33.3667092" lon="8.6600367"><ele>37.2</ele><time>2026-04-18T08:51:19.363Z</time></trkpt><trkpt lat="33.3667348" lon="8.6599165"><ele>37.0</ele><time>2026-04-18T08:51:20.364Z</time></trkpt><trkpt lat="33.3667668" lon="8.6597705"><ele>37.0</ele><time>2026-04-18T08:51:21.368Z</time></trkpt><trkpt lat="33.3668013" lon="8.6596133"><ele>37.0</ele><time>2026-04-18T08:51:22.366Z</time></trkpt><trkpt lat="33.366836" lon="8.6594525"><ele>37.0</ele><time>2026-04-18T08:51:23.373Z</time></trkpt><trkpt lat="33.3668678" lon="8.6592906"><ele>37.0</ele><time>2026-04-18T08:51:24.37Z</time></trkpt><trkpt lat="33.3668972" lon="8.6591275"><ele>36.75</ele><time>2026-04-18T08:51:25.362Z</time></trkpt><trkpt lat="33.3669288" lon="8.6589637"><ele>36.5</ele><time>2026-04-18T08:51:26.366Z</time></trkpt><trkpt lat="33.3669605" lon="8.6587987"><ele>36.25</ele><time>2026-04-18T08:51:27.375Z</time></trkpt><trkpt lat="33.3669913" lon="8.6586321"><ele>36.0</ele><time>2026-04-18T08:51:28.369Z</time></trkpt><trkpt lat="33.3670218" lon="8.658464"><ele>36.0</ele><time>2026-04-18T08:51:29.362Z</time></trkpt><trkpt lat="33.3670523" lon="8.6582942"><ele>36.0</ele><time>2026-04-18T08:51:30.37Z</time></trkpt><trkpt lat="33.3670838" lon="8.6581107"><ele>36.0</ele><time>2026-04-18T08:51:31.367Z</time></trkpt><trkpt lat="33.367117" lon="8.6579132"><ele>36.0</ele><time>2026-04-18T08:51:32.365Z</time></trkpt><trkpt lat="33.3671512" lon="8.6577018"><ele>36.0</ele><time>2026-04-18T08:51:33.372Z</time></trkpt><trkpt lat="33.3671822" lon="8.6575"><ele>36.0</ele><time>2026-04-18T08:51:34.367Z</time></trkpt><trkpt lat="33.3672124" lon="8.6573047"><ele>36.0</ele><time>2026-04-18T08:51:35.362Z</time></trkpt><trkpt lat="33.36724" lon="8.6570997"><ele>36.0</ele><time>2026-04-18T08:51:36.36Z</time></trkpt><trkpt lat="33.3672715" lon="8.656891"><ele>36.0</ele><time>2026-04-18T08:51:37.364Z</time></trkpt><trkpt lat="33.3673016" lon="8.6566835"><ele>36.0</ele><time>2026-04-18T08:51:38.368Z</time></trkpt><trkpt lat="33.3673288" lon="8.6564846"><ele>36.0</ele><time>2026-04-18T08:51:39.362Z</time></trkpt><trkpt lat="33.3673567" lon="8.6562919"><ele>36.0</ele><time>2026-04-18T08:51:40.365Z</time></trkpt><trkpt lat="33.3673852" lon="8.6561055"><ele>36.0</ele><time>2026-04-18T08:51:41.366Z</time></trkpt><trkpt lat="33.3674111" lon="8.6559124"><ele>36.0</ele><time>2026-04-18T08:51:42.369Z</time></trkpt><trkpt lat="33.3674331" lon="8.6557119"><ele>36.0</ele><time>2026-04-18T08:51:43.37Z</time></trkpt><trkpt lat="33.3674542" lon="8.6555104"><ele>36.0</ele><time>2026-04-18T08:51:44.369Z</time></trkpt><trkpt lat="33.3674761" lon="8.6553101"><ele>36.0</ele><time>2026-04-18T08:51:45.374Z</time></trkpt><trkpt lat="33.3674987" lon="8.6551081"><ele>36.0</ele><time>2026-04-18T08:51:46.358Z</time></trkpt><trkpt lat="33.3675207" lon="8.654902"><ele>35.666666666666664</ele><time>2026-04-18T08:51:47.378Z</time></trkpt><trkpt lat="33.3675435" lon="8.6546918"><ele>35.33333333333333</ele><time>2026-04-18T08:51:48.369Z</time></trkpt><trkpt lat="33.3675651" lon="8.6544777"><ele>35.0</ele><time>2026-04-18T08:51:49.373Z</time></trkpt><trkpt lat="33.3675856" lon="8.6542625"><ele>35.0</ele><time>2026-04-18T08:51:50.361Z</time></trkpt><trkpt lat="33.367606" lon="8.6540487"><ele>35.0</ele><time>2026-04-18T08:51:51.364Z</time></trkpt><trkpt lat="33.3676246" lon="8.6538297"><ele>35.0</ele><time>2026-04-18T08:51:52.367Z</time></trkpt><trkpt lat="33.367642" lon="8.653606"><ele>35.0</ele><time>2026-04-18T08:51:53.362Z</time></trkpt><trkpt lat="33.3676561" lon="8.6533802"><ele>35.0</ele><time>2026-04-18T08:51:54.365Z</time></trkpt><trkpt lat="33.3676676" lon="8.6531556"><ele>35.0</ele><time>2026-04-18T08:51:55.366Z</time></trkpt><trkpt lat="33.3676765" lon="8.6529342"><ele>34.666666666666664</ele><time>2026-04-18T08:51:56.367Z</time></trkpt><trkpt lat="33.3676827" lon="8.6527154"><ele>34.333333333333336</ele><time>2026-04-18T08:51:57.364Z</time></trkpt><trkpt lat="33.3676877" lon="8.6524983"><ele>34.0</ele><time>2026-04-18T08:51:58.361Z</time></trkpt><trkpt lat="33.3676934" lon="8.6522841"><ele>34.0</ele><time>2026-04-18T08:51:59.367Z</time></trkpt><trkpt lat="33.367699" lon="8.6520735"><ele>34.0</ele><time>2026-04-18T08:52:00.362Z</time></trkpt><trkpt lat="33.3677038" lon="8.6518674"><ele>34.0</ele><time>2026-04-18T08:52:01.365Z</time></trkpt><trkpt lat="33.3677103" lon="8.6516627"><ele>34.0</ele><time>2026-04-18T08:52:02.363Z</time></trkpt><trkpt lat="33.3677192" lon="8.6514608"><ele>34.0</ele><time>2026-04-18T08:52:03.365Z</time></trkpt><trkpt lat="33.3677268" lon="8.6512599"><ele>34.0</ele><time>2026-04-18T08:52:04.363Z</time></trkpt><trkpt lat="33.3677329" lon="8.6510579"><ele>34.0</ele><time>2026-04-18T08:52:05.364Z</time></trkpt><trkpt lat="33.3677385" lon="8.6508545"><ele>34.0</ele><time>2026-04-18T08:52:06.365Z</time></trkpt><trkpt lat="33.3677432" lon="8.6506512"><ele>34.0</ele><time>2026-04-18T08:52:07.37Z</time></trkpt><trkpt lat="33.3677506" lon="8.6504475"><ele>33.66666666666667</ele><time>2026-04-18T08:52:08.363Z</time></trkpt><trkpt lat="33.367758" lon="8.6502452"><ele>33.333333333333336</ele><time>2026-04-18T08:52:09.362Z</time></trkpt><trkpt lat="33.3677642" lon="8.6500452"><ele>33.0</ele><time>2026-04-18T08:52:10.361Z</time></trkpt><trkpt lat="33.3677683" lon="8.6498461"><ele>33.0</ele><time>2026-04-18T08:52:11.358Z</time></trkpt><trkpt lat="33.3677707" lon="8.6496484"><ele>33.0</ele><time>2026-04-18T08:52:12.363Z</time></trkpt><trkpt lat="33.3677699" lon="8.6494567"><ele>33.0</ele><time>2026-04-18T08:52:13.369Z</time></trkpt><trkpt lat="33.367768" lon="8.6492731"><ele>32.5</ele><time>2026-04-18T08:52:14.359Z</time></trkpt><trkpt lat="33.3677662" lon="8.6490997"><ele>32.0</ele><time>2026-04-18T08:52:15.361Z</time></trkpt><trkpt lat="33.367765" lon="8.6489286"><ele>31.5</ele><time>2026-04-18T08:52:16.364Z</time></trkpt><trkpt lat="33.3677664" lon="8.648756"><ele>31.0</ele><time>2026-04-18T08:52:17.369Z</time></trkpt><trkpt lat="33.3677718" lon="8.6485784"><ele>30.75</ele><time>2026-04-18T08:52:18.362Z</time></trkpt><trkpt lat="33.3677788" lon="8.6484018"><ele>30.5</ele><time>2026-04-18T08:52:19.368Z</time></trkpt><trkpt lat="33.3677865" lon="8.6482252"><ele>30.25</ele><time>2026-04-18T08:52:20.363Z</time></trkpt><trkpt lat="33.3677934" lon="8.6480463"><ele>30.0</ele><time>2026-04-18T08:52:21.362Z</time></trkpt><trkpt lat="33.3677974" lon="8.6478673"><ele>30.75</ele><time>2026-04-18T08:52:22.36Z</time></trkpt><trkpt lat="33.3677987" lon="8.6476917"><ele>31.5</ele><time>2026-04-18T08:52:23.365Z</time></trkpt><trkpt lat="33.3677968" lon="8.6475183"><ele>32.25</ele><time>2026-04-18T08:52:24.362Z</time></trkpt><trkpt lat="33.3677928" lon="8.6473462"><ele>33.0</ele><time>2026-04-18T08:52:25.366Z</time></trkpt><trkpt lat="33.3677882" lon="8.6471753"><ele>33.0</ele><time>2026-04-18T08:52:26.36Z</time></trkpt><trkpt lat="33.3677829" lon="8.6470075"><ele>33.0</ele><time>2026-04-18T08:52:27.363Z</time></trkpt><trkpt lat="33.3677768" lon="8.6468421"><ele>33.0</ele><time>2026-04-18T08:52:28.365Z</time></trkpt><trkpt lat="33.3677715" lon="8.6466762"><ele>33.0</ele><time>2026-04-18T08:52:29.368Z</time></trkpt><trkpt lat="33.3677683" lon="8.6465088"><ele>32.75</ele><time>2026-04-18T08:52:30.36Z</time></trkpt><trkpt lat="33.3677672" lon="8.6463384"><ele>32.5</ele><time>2026-04-18T08:52:31.364Z</time></trkpt><trkpt lat="33.3677661" lon="8.6461656"><ele>32.25</ele><time>2026-04-18T08:52:32.36Z</time></trkpt><trkpt lat="33.3677653" lon="8.6459878"><ele>32.0</ele><time>2026-04-18T08:52:33.37Z</time></trkpt><trkpt lat="33.3677645" lon="8.6458082"><ele>32.0</ele><time>2026-04-18T08:52:34.36Z</time></trkpt><trkpt lat="33.3677633" lon="8.6456294"><ele>32.0</ele><time>2026-04-18T08:52:35.365Z</time></trkpt><trkpt lat="33.3677623" lon="8.6454501"><ele>32.0</ele><time>2026-04-18T08:52:36.369Z</time></trkpt><trkpt lat="33.3677638" lon="8.6452664"><ele>32.0</ele><time>2026-04-18T08:52:37.367Z</time></trkpt><trkpt lat="33.3677649" lon="8.6450776"><ele>32.0</ele><time>2026-04-18T08:52:38.361Z</time></trkpt><trkpt lat="33.3677648" lon="8.6448826"><ele>32.0</ele><time>2026-04-18T08:52:39.367Z</time></trkpt><trkpt lat="33.3677641" lon="8.6446751"><ele>32.33333333333333</ele><time>2026-04-18T08:52:40.369Z</time></trkpt><trkpt lat="33.3677647" lon="8.6444584"><ele>32.666666666666664</ele><time>2026-04-18T08:52:41.361Z</time></trkpt><trkpt lat="33.3677676" lon="8.6442427"><ele>33.0</ele><time>2026-04-18T08:52:42.369Z</time></trkpt><trkpt lat="33.3677741" lon="8.6440285"><ele>33.0</ele><time>2026-04-18T08:52:43.363Z</time></trkpt><trkpt lat="33.3677844" lon="8.6438134"><ele>33.0</ele><time>2026-04-18T08:52:44.361Z</time></trkpt><trkpt lat="33.3678004" lon="8.6435969"><ele>33.0</ele><time>2026-04-18T08:52:45.358Z</time></trkpt><trkpt lat="33.3678196" lon="8.6433774"><ele>33.0</ele><time>2026-04-18T08:52:46.362Z</time></trkpt><trkpt lat="33.3678403" lon="8.643156"><ele>33.0</ele><time>2026-04-18T08:52:47.361Z</time></trkpt><trkpt lat="33.3678618" lon="8.6429361"><ele>33.0</ele><time>2026-04-18T08:52:48.36Z</time></trkpt><trkpt lat="33.3678829" lon="8.6427129"><ele>33.333333333333336</ele><time>2026-04-18T08:52:49.36Z</time></trkpt><trkpt lat="33.3679026" lon="8.6424906"><ele>33.66666666666667</ele><time>2026-04-18T08:52:50.364Z</time></trkpt><trkpt lat="33.3679201" lon="8.6422736"><ele>34.0</ele><time>2026-04-18T08:52:51.361Z</time></trkpt><trkpt lat="33.3679374" lon="8.6420614"><ele>35.0</ele><time>2026-04-18T08:52:52.359Z</time></trkpt><trkpt lat="33.3679557" lon="8.641854"><ele>36.0</ele><time>2026-04-18T08:52:53.362Z</time></trkpt><trkpt lat="33.3679771" lon="8.6416504"><ele>37.0</ele><time>2026-04-18T08:52:54.36Z</time></trkpt><trkpt lat="33.3680013" lon="8.6414507"><ele>37.0</ele><time>2026-04-18T08:52:55.36Z</time></trkpt><trkpt lat="33.3680244" lon="8.6412597"><ele>37.0</ele><time>2026-04-18T08:52:56.359Z</time></trkpt><trkpt lat="33.3680494" lon="8.6410731"><ele>37.0</ele><time>2026-04-18T08:52:57.361Z</time></trkpt><trkpt lat="33.368078" lon="8.6408842"><ele>34.66666666666667</ele><time>2026-04-18T08:52:58.359Z</time></trkpt><trkpt lat="33.3681099" lon="8.6406922"><ele>32.333333333333336</ele><time>2026-04-18T08:52:59.364Z</time></trkpt><trkpt lat="33.3681464" lon="8.6404999"><ele>30.0</ele><time>2026-04-18T08:53:00.364Z</time></trkpt><trkpt lat="33.3681861" lon="8.6403125"><ele>29.666666666666664</ele><time>2026-04-18T08:53:01.364Z</time></trkpt><trkpt lat="33.3682254" lon="8.6401292"><ele>29.333333333333332</ele><time>2026-04-18T08:53:02.368Z</time></trkpt><trkpt lat="33.3682635" lon="8.6399481"><ele>29.0</ele><time>2026-04-18T08:53:03.365Z</time></trkpt><trkpt lat="33.3683034" lon="8.6397699"><ele>29.0</ele><time>2026-04-18T08:53:04.365Z</time></trkpt><trkpt lat="33.3683442" lon="8.6396042"><ele>29.0</ele><time>2026-04-18T08:53:05.373Z</time></trkpt><trkpt lat="33.3683849" lon="8.6394573"><ele>29.0</ele><time>2026-04-18T08:53:06.366Z</time></trkpt><trkpt lat="33.3684304" lon="8.6393282"><ele>29.0</ele><time>2026-04-18T08:53:07.366Z</time></trkpt><trkpt lat="33.3684838" lon="8.6392081"><ele>29.0</ele><time>2026-04-18T08:53:08.367Z</time></trkpt><trkpt lat="33.3685379" lon="8.6390947"><ele>29.0</ele><time>2026-04-18T08:53:09.362Z</time></trkpt><trkpt lat="33.3685892" lon="8.6389899"><ele>29.0</ele><time>2026-04-18T08:53:10.369Z</time></trkpt><trkpt lat="33.3686397" lon="8.6388935"><ele>29.0</ele><time>2026-04-18T08:53:11.368Z</time></trkpt><trkpt lat="33.3686915" lon="8.6388007"><ele>29.0</ele><time>2026-04-18T08:53:12.367Z</time></trkpt><trkpt lat="33.3687445" lon="8.6387112"><ele>29.0</ele><time>2026-04-18T08:53:13.361Z</time></trkpt><trkpt lat="33.3687979" lon="8.6386238"><ele>29.0</ele><time>2026-04-18T08:53:14.367Z</time></trkpt><trkpt lat="33.3688504" lon="8.6385375"><ele>29.0</ele><time>2026-04-18T08:53:15.369Z</time></trkpt><trkpt lat="33.368902" lon="8.6384495"><ele>29.0</ele><time>2026-04-18T08:53:16.368Z</time></trkpt><trkpt lat="33.368958" lon="8.6383577"><ele>29.0</ele><time>2026-04-18T08:53:17.371Z</time></trkpt><trkpt lat="33.3690197" lon="8.6382582"><ele>28.5</ele><time>2026-04-18T08:53:18.366Z</time></trkpt><trkpt lat="33.369086" lon="8.6381527"><ele>28.0</ele><time>2026-04-18T08:53:19.365Z</time></trkpt><trkpt lat="33.3691587" lon="8.6380428"><ele>27.5</ele><time>2026-04-18T08:53:20.366Z</time></trkpt><trkpt lat="33.3692375" lon="8.6379268"><ele>27.0</ele><time>2026-04-18T08:53:21.366Z</time></trkpt><trkpt lat="33.3693266" lon="8.6378007"><ele>26.666666666666664</ele><time>2026-04-18T08:53:22.363Z</time></trkpt><trkpt lat="33.3694238" lon="8.6376651"><ele>26.333333333333332</ele><time>2026-04-18T08:53:23.368Z</time></trkpt><trkpt lat="33.3695277" lon="8.6375201"><ele>26.0</ele><time>2026-04-18T08:53:24.365Z</time></trkpt><trkpt lat="33.3696355" lon="8.6373704"><ele>26.333333333333332</ele><time>2026-04-18T08:53:25.364Z</time></trkpt><trkpt lat="33.3697463" lon="8.637217"><ele>26.666666666666664</ele><time>2026-04-18T08:53:26.369Z</time></trkpt><trkpt lat="33.3698607" lon="8.6370565"><ele>27.0</ele><time>2026-04-18T08:53:27.367Z</time></trkpt><trkpt lat="33.3699737" lon="8.6368939"><ele>27.0</ele><time>2026-04-18T08:53:28.364Z</time></trkpt><trkpt lat="33.3700852" lon="8.6367328"><ele>27.0</ele><time>2026-04-18T08:53:29.359Z</time></trkpt><trkpt lat="33.3701976" lon="8.6365718"><ele>27.0</ele><time>2026-04-18T08:53:30.363Z</time></trkpt><trkpt lat="33.3703089" lon="8.6364125"><ele>27.0</ele><time>2026-04-18T08:53:31.368Z</time></trkpt><trkpt lat="33.3704214" lon="8.6362504"><ele>27.0</ele><time>2026-04-18T08:53:32.365Z</time></trkpt><trkpt lat="33.3705343" lon="8.636085"><ele>27.0</ele><time>2026-04-18T08:53:33.366Z</time></trkpt><trkpt lat="33.3706455" lon="8.6359219"><ele>27.0</ele><time>2026-04-18T08:53:34.366Z</time></trkpt><trkpt lat="33.370757" lon="8.6357588"><ele>27.0</ele><time>2026-04-18T08:53:35.366Z</time></trkpt><trkpt lat="33.3708688" lon="8.6355952"><ele>27.0</ele><time>2026-04-18T08:53:36.365Z</time></trkpt><trkpt lat="33.3709801" lon="8.6354333"><ele>26.666666666666664</ele><time>2026-04-18T08:53:37.364Z</time></trkpt><trkpt lat="33.3710899" lon="8.6352753"><ele>26.333333333333332</ele><time>2026-04-18T08:53:38.366Z</time></trkpt><trkpt lat="33.371197" lon="8.6351181"><ele>26.0</ele><time>2026-04-18T08:53:39.365Z</time></trkpt><trkpt lat="33.3713016" lon="8.6349652"><ele>26.666666666666664</ele><time>2026-04-18T08:53:40.362Z</time></trkpt><trkpt lat="33.3714046" lon="8.6348158"><ele>27.333333333333336</ele><time>2026-04-18T08:53:41.369Z</time></trkpt><trkpt lat="33.3715056" lon="8.6346691"><ele>28.0</ele><time>2026-04-18T08:53:42.372Z</time></trkpt><trkpt lat="33.3716072" lon="8.6345216"><ele>27.0</ele><time>2026-04-18T08:53:43.37Z</time></trkpt><trkpt lat="33.3717115" lon="8.6343882"><ele>26.0</ele><time>2026-04-18T08:53:44.363Z</time></trkpt><trkpt lat="33.3718145" lon="8.6342434"><ele>25.0</ele><time>2026-04-18T08:53:45.363Z</time></trkpt><trkpt lat="33.3719216" lon="8.6340956"><ele>25.0</ele><time>2026-04-18T08:53:46.365Z</time></trkpt><trkpt lat="33.3720245" lon="8.6339472"><ele>25.0</ele><time>2026-04-18T08:53:47.364Z</time></trkpt><trkpt lat="33.3721292" lon="8.6337941"><ele>25.0</ele><time>2026-04-18T08:53:48.378Z</time></trkpt><trkpt lat="33.3722368" lon="8.63364"><ele>24.666666666666668</ele><time>2026-04-18T08:53:49.366Z</time></trkpt><trkpt lat="33.3723449" lon="8.6334864"><ele>24.333333333333336</ele><time>2026-04-18T08:53:50.372Z</time></trkpt><trkpt lat="33.372455" lon="8.6333283"><ele>24.0</ele><time>2026-04-18T08:53:51.361Z</time></trkpt><trkpt lat="33.3725657" lon="8.6331685"><ele>24.0</ele><time>2026-04-18T08:53:52.36Z</time></trkpt><trkpt lat="33.3726769" lon="8.633006"><ele>24.0</ele><time>2026-04-18T08:53:53.361Z</time></trkpt><trkpt lat="33.3727858" lon="8.6328484"><ele>24.0</ele><time>2026-04-18T08:53:54.361Z</time></trkpt><trkpt lat="33.3728887" lon="8.632697"><ele>24.333333333333336</ele><time>2026-04-18T08:53:55.372Z</time></trkpt><trkpt lat="33.3729922" lon="8.632549"><ele>24.666666666666668</ele><time>2026-04-18T08:53:56.361Z</time></trkpt><trkpt lat="33.3730931" lon="8.6324023"><ele>25.0</ele><time>2026-04-18T08:53:57.363Z</time></trkpt><trkpt lat="33.3731951" lon="8.632256"><ele>25.0</ele><time>2026-04-18T08:53:58.372Z</time></trkpt><trkpt lat="33.373288" lon="8.6321183"><ele>25.0</ele><time>2026-04-18T08:53:59.38Z</time></trkpt><trkpt lat="33.373378" lon="8.6319874"><ele>25.0</ele><time>2026-04-18T08:54:00.368Z</time></trkpt><trkpt lat="33.3734636" lon="8.6318648"><ele>25.0</ele><time>2026-04-18T08:54:01.37Z</time></trkpt><trkpt lat="33.373546" lon="8.6317459"><ele>24.0</ele><time>2026-04-18T08:54:02.37Z</time></trkpt><trkpt lat="33.3736227" lon="8.6316326"><ele>23.0</ele><time>2026-04-18T08:54:03.366Z</time></trkpt><trkpt lat="33.3736968" lon="8.6315228"><ele>22.0</ele><time>2026-04-18T08:54:04.37Z</time></trkpt><trkpt lat="33.3737709" lon="8.6314149"><ele>21.0</ele><time>2026-04-18T08:54:05.369Z</time></trkpt><trkpt lat="33.3738457" lon="8.6313048"><ele>21.0</ele><time>2026-04-18T08:54:06.371Z</time></trkpt><trkpt lat="33.3739282" lon="8.6311838"><ele>21.0</ele><time>2026-04-18T08:54:07.371Z</time></trkpt><trkpt lat="33.374013" lon="8.6310583"><ele>21.0</ele><time>2026-04-18T08:54:08.369Z</time></trkpt><trkpt lat="33.3741017" lon="8.6309271"><ele>21.0</ele><time>2026-04-18T08:54:09.378Z</time></trkpt><trkpt lat="33.3741857" lon="8.6307997"><ele>21.0</ele><time>2026-04-18T08:54:10.369Z</time></trkpt><trkpt lat="33.3742687" lon="8.6306772"><ele>21.0</ele><time>2026-04-18T08:54:11.368Z</time></trkpt><trkpt lat="33.3743509" lon="8.6305557"><ele>21.0</ele><time>2026-04-18T08:54:12.368Z</time></trkpt><trkpt lat="33.3744319" lon="8.6304373"><ele>21.0</ele><time>2026-04-18T08:54:13.361Z</time></trkpt><trkpt lat="33.3745094" lon="8.6303255"><ele>21.200000000000003</ele><time>2026-04-18T08:54:14.361Z</time></trkpt><trkpt lat="33.3745831" lon="8.6302185"><ele>21.400000000000002</ele><time>2026-04-18T08:54:15.371Z</time></trkpt><trkpt lat="33.3746533" lon="8.6301151"><ele>21.6</ele><time>2026-04-18T08:54:16.366Z</time></trkpt><trkpt lat="33.3747209" lon="8.6300172"><ele>21.8</ele><time>2026-04-18T08:54:17.369Z</time></trkpt><trkpt lat="33.3747866" lon="8.6299246"><ele>22.0</ele><time>2026-04-18T08:54:18.378Z</time></trkpt><trkpt lat="33.3748493" lon="8.6298351"><ele>21.8</ele><time>2026-04-18T08:54:19.376Z</time></trkpt><trkpt lat="33.3749115" lon="8.6297447"><ele>21.6</ele><time>2026-04-18T08:54:20.374Z</time></trkpt><trkpt lat="33.3749735" lon="8.6296539"><ele>21.400000000000002</ele><time>2026-04-18T08:54:21.368Z</time></trkpt><trkpt lat="33.3750358" lon="8.6295653"><ele>21.200000000000003</ele><time>2026-04-18T08:54:22.361Z</time></trkpt><trkpt lat="33.3750988" lon="8.6294748"><ele>21.0</ele><time>2026-04-18T08:54:23.385Z</time></trkpt><trkpt lat="33.375165" lon="8.6293795"><ele>21.0</ele><time>2026-04-18T08:54:24.375Z</time></trkpt><trkpt lat="33.3752332" lon="8.6292848"><ele>21.0</ele><time>2026-04-18T08:54:25.358Z</time></trkpt><trkpt lat="33.3753005" lon="8.6291916"><ele>21.0</ele><time>2026-04-18T08:54:26.362Z</time></trkpt><trkpt lat="33.3753667" lon="8.6290971"><ele>21.0</ele><time>2026-04-18T08:54:27.371Z</time></trkpt><trkpt lat="33.3754295" lon="8.6290049"><ele>21.0</ele><time>2026-04-18T08:54:28.372Z</time></trkpt><trkpt lat="33.3754841" lon="8.6289158"><ele>20.833333333333332</ele><time>2026-04-18T08:54:29.376Z</time></trkpt><trkpt lat="33.3755268" lon="8.6288253"><ele>20.666666666666668</ele><time>2026-04-18T08:54:30.369Z</time></trkpt><trkpt lat="33.375556" lon="8.6287349"><ele>20.5</ele><time>2026-04-18T08:54:31.372Z</time></trkpt><trkpt lat="33.3755737" lon="8.6286436"><ele>20.333333333333336</ele><time>2026-04-18T08:54:32.37Z</time></trkpt><trkpt lat="33.3755827" lon="8.6285494"><ele>20.166666666666668</ele><time>2026-04-18T08:54:33.371Z</time></trkpt><trkpt lat="33.3755848" lon="8.6284479"><ele>20.0</ele><time>2026-04-18T08:54:34.368Z</time></trkpt><trkpt lat="33.3755838" lon="8.6283503"><ele>20.0</ele><time>2026-04-18T08:54:35.378Z</time></trkpt><trkpt lat="33.375581" lon="8.6282691"><ele>20.0</ele><time>2026-04-18T08:54:36.359Z</time></trkpt><trkpt lat="33.3755772" lon="8.6281751"><ele>20.0</ele><time>2026-04-18T08:54:38.361Z</time></trkpt><trkpt lat="33.3756015" lon="8.628046"><ele>20.0</ele><time>2026-04-18T08:55:14.366Z</time></trkpt><trkpt lat="33.3755478" lon="8.6279965"><ele>20.0</ele><time>2026-04-18T08:55:18.366Z</time></trkpt><trkpt lat="33.3755512" lon="8.6281324"><ele>20.0</ele><time>2026-04-18T08:55:21.364Z</time></trkpt><trkpt lat="33.3755662" lon="8.6282245"><ele>20.0</ele><time>2026-04-18T08:55:22.362Z</time></trkpt><trkpt lat="33.3755774" lon="8.6283251"><ele>20.0</ele><time>2026-04-18T08:55:23.362Z</time></trkpt><trkpt lat="33.3755849" lon="8.6284056"><ele>20.0</ele><time>2026-04-18T08:55:24.373Z</time></trkpt><trkpt lat="33.3756029" lon="8.6285269"><ele>20.0</ele><time>2026-04-18T08:55:26.364Z</time></trkpt><trkpt lat="33.3756921" lon="8.6286408"><ele>20.0</ele><time>2026-04-18T08:55:33.36Z</time></trkpt><trkpt lat="33.3757852" lon="8.6285827"><ele>20.0</ele><time>2026-04-18T08:55:35.378Z</time></trkpt><trkpt lat="33.3758378" lon="8.6285206"><ele>20.0</ele><time>2026-04-18T08:55:36.361Z</time></trkpt><trkpt lat="33.3758871" lon="8.6284444"><ele>20.0</ele><time>2026-04-18T08:55:37.371Z</time></trkpt><trkpt lat="33.3759334" lon="8.6283565"><ele>20.0</ele><time>2026-04-18T08:55:38.368Z</time></trkpt><trkpt lat="33.3759718" lon="8.6282587"><ele>20.0</ele><time>2026-04-18T08:55:39.365Z</time></trkpt><trkpt lat="33.3760028" lon="8.6281455"><ele>20.0</ele><time>2026-04-18T08:55:40.362Z</time></trkpt><trkpt lat="33.376031" lon="8.6280159"><ele>20.0</ele><time>2026-04-18T08:55:41.364Z</time></trkpt><trkpt lat="33.3760632" lon="8.6278685"><ele>20.0</ele><time>2026-04-18T08:55:42.363Z</time></trkpt><trkpt lat="33.3760992" lon="8.6277146"><ele>20.0</ele><time>2026-04-18T08:55:43.368Z</time></trkpt><trkpt lat="33.3761417" lon="8.6275565"><ele>20.0</ele><time>2026-04-18T08:55:44.368Z</time></trkpt><trkpt lat="33.3761899" lon="8.6273882"><ele>20.333333333333336</ele><time>2026-04-18T08:55:45.362Z</time></trkpt><trkpt lat="33.3762354" lon="8.6272158"><ele>20.666666666666668</ele><time>2026-04-18T08:55:46.367Z</time></trkpt><trkpt lat="33.3762786" lon="8.627037"><ele>21.0</ele><time>2026-04-18T08:55:47.368Z</time></trkpt><trkpt lat="33.3763196" lon="8.6268528"><ele>21.0</ele><time>2026-04-18T08:55:48.364Z</time></trkpt><trkpt lat="33.3763568" lon="8.6266607"><ele>21.0</ele><time>2026-04-18T08:55:49.365Z</time></trkpt><trkpt lat="33.3763907" lon="8.6264639"><ele>21.0</ele><time>2026-04-18T08:55:50.361Z</time></trkpt><trkpt lat="33.3764215" lon="8.6262686"><ele>20.666666666666668</ele><time>2026-04-18T08:55:51.362Z</time></trkpt><trkpt lat="33.3764492" lon="8.6260745"><ele>20.333333333333336</ele><time>2026-04-18T08:55:52.367Z</time></trkpt><trkpt lat="33.3764733" lon="8.6258836"><ele>20.0</ele><time>2026-04-18T08:55:53.371Z</time></trkpt><trkpt lat="33.3764958" lon="8.6256869"><ele>20.0</ele><time>2026-04-18T08:55:54.363Z</time></trkpt><trkpt lat="33.3765189" lon="8.6254801"><ele>20.0</ele><time>2026-04-18T08:55:55.363Z</time></trkpt><trkpt lat="33.3765423" lon="8.6252686"><ele>20.0</ele><time>2026-04-18T08:55:56.373Z</time></trkpt><trkpt lat="33.3765657" lon="8.6250555"><ele>20.0</ele><time>2026-04-18T08:55:57.369Z</time></trkpt><trkpt lat="33.3765899" lon="8.6248426"><ele>20.0</ele><time>2026-04-18T08:55:58.362Z</time></trkpt><trkpt lat="33.3766152" lon="8.6246327"><ele>20.0</ele><time>2026-04-18T08:55:59.365Z</time></trkpt><trkpt lat="33.3766419" lon="8.6244209"><ele>20.0</ele><time>2026-04-18T08:56:00.367Z</time></trkpt><trkpt lat="33.3766703" lon="8.6242069"><ele>20.0</ele><time>2026-04-18T08:56:01.361Z</time></trkpt><trkpt lat="33.3767019" lon="8.6239906"><ele>20.0</ele><time>2026-04-18T08:56:02.367Z</time></trkpt><trkpt lat="33.3767358" lon="8.6237723"><ele>20.0</ele><time>2026-04-18T08:56:03.371Z</time></trkpt><trkpt lat="33.3767719" lon="8.6235544"><ele>20.0</ele><time>2026-04-18T08:56:04.389Z</time></trkpt><trkpt lat="33.37681" lon="8.6233375"><ele>20.0</ele><time>2026-04-18T08:56:05.37Z</time></trkpt><trkpt lat="33.3768501" lon="8.6231191"><ele>20.0</ele><time>2026-04-18T08:56:06.371Z</time></trkpt><trkpt lat="33.3768918" lon="8.6228987"><ele>20.0</ele><time>2026-04-18T08:56:07.364Z</time></trkpt><trkpt lat="33.376935" lon="8.6226765"><ele>20.0</ele><time>2026-04-18T08:56:08.363Z</time></trkpt><trkpt lat="33.376979" lon="8.6224516"><ele>20.0</ele><time>2026-04-18T08:56:09.367Z</time></trkpt><trkpt lat="33.3770226" lon="8.622226"><ele>20.0</ele><time>2026-04-18T08:56:10.366Z</time></trkpt><trkpt lat="33.3770662" lon="8.6220015"><ele>20.0</ele><time>2026-04-18T08:56:11.37Z</time></trkpt><trkpt lat="33.3771098" lon="8.6217766"><ele>20.0</ele><time>2026-04-18T08:56:12.365Z</time></trkpt><trkpt lat="33.3771532" lon="8.6215555"><ele>20.0</ele><time>2026-04-18T08:56:13.362Z</time></trkpt><trkpt lat="33.3771957" lon="8.6213397"><ele>20.0</ele><time>2026-04-18T08:56:14.364Z</time></trkpt><trkpt lat="33.3772368" lon="8.6211295"><ele>20.333333333333336</ele><time>2026-04-18T08:56:15.369Z</time></trkpt><trkpt lat="33.3772764" lon="8.6209222"><ele>20.666666666666668</ele><time>2026-04-18T08:56:16.365Z</time></trkpt><trkpt lat="33.377316" lon="8.6207144"><ele>21.0</ele><time>2026-04-18T08:56:17.368Z</time></trkpt><trkpt lat="33.3773568" lon="8.6205108"><ele>20.666666666666668</ele><time>2026-04-18T08:56:18.362Z</time></trkpt><trkpt lat="33.3773987" lon="8.6203152"><ele>20.333333333333336</ele><time>2026-04-18T08:56:19.359Z</time></trkpt><trkpt lat="33.3774411" lon="8.6201251"><ele>20.0</ele><time>2026-04-18T08:56:20.36Z</time></trkpt><trkpt lat="33.377484" lon="8.6199389"><ele>20.0</ele><time>2026-04-18T08:56:21.369Z</time></trkpt><trkpt lat="33.3775279" lon="8.6197527"><ele>20.0</ele><time>2026-04-18T08:56:22.36Z</time></trkpt><trkpt lat="33.3775729" lon="8.6195634"><ele>20.0</ele><time>2026-04-18T08:56:23.361Z</time></trkpt><trkpt lat="33.3776189" lon="8.6193735"><ele>19.333333333333336</ele><time>2026-04-18T08:56:24.367Z</time></trkpt><trkpt lat="33.3776652" lon="8.6191817"><ele>18.666666666666668</ele><time>2026-04-18T08:56:25.364Z</time></trkpt><trkpt lat="33.3777112" lon="8.6189891"><ele>18.0</ele><time>2026-04-18T08:56:26.366Z</time></trkpt><trkpt lat="33.3777586" lon="8.6187899"><ele>18.333333333333332</ele><time>2026-04-18T08:56:27.375Z</time></trkpt><trkpt lat="33.3778093" lon="8.6185885"><ele>18.666666666666664</ele><time>2026-04-18T08:56:28.357Z</time></trkpt><trkpt lat="33.3778634" lon="8.6183839"><ele>19.0</ele><time>2026-04-18T08:56:29.362Z</time></trkpt><trkpt lat="33.3779197" lon="8.618179"><ele>19.0</ele><time>2026-04-18T08:56:30.359Z</time></trkpt><trkpt lat="33.3779774" lon="8.6179712"><ele>19.0</ele><time>2026-04-18T08:56:31.363Z</time></trkpt><trkpt lat="33.3780376" lon="8.6177623"><ele>19.0</ele><time>2026-04-18T08:56:32.361Z</time></trkpt><trkpt lat="33.3781023" lon="8.6175678"><ele>18.666666666666664</ele><time>2026-04-18T08:56:33.365Z</time></trkpt><trkpt lat="33.3781673" lon="8.6173673"><ele>18.333333333333332</ele><time>2026-04-18T08:56:34.364Z</time></trkpt><trkpt lat="33.3782256" lon="8.6171678"><ele>18.0</ele><time>2026-04-18T08:56:35.366Z</time></trkpt><trkpt lat="33.3782897" lon="8.6169676"><ele>18.666666666666668</ele><time>2026-04-18T08:56:36.366Z</time></trkpt><trkpt lat="33.3783535" lon="8.6167632"><ele>19.333333333333336</ele><time>2026-04-18T08:56:37.375Z</time></trkpt><trkpt lat="33.3784153" lon="8.6165635"><ele>20.0</ele><time>2026-04-18T08:56:38.365Z</time></trkpt><trkpt lat="33.378473" lon="8.6163714"><ele>20.0</ele><time>2026-04-18T08:56:39.371Z</time></trkpt><trkpt lat="33.37853" lon="8.6161774"><ele>20.0</ele><time>2026-04-18T08:56:40.361Z</time></trkpt><trkpt lat="33.3785856" lon="8.6159829"><ele>20.0</ele><time>2026-04-18T08:56:41.365Z</time></trkpt><trkpt lat="33.3786394" lon="8.6157857"><ele>20.333333333333336</ele><time>2026-04-18T08:56:42.373Z</time></trkpt><trkpt lat="33.3786889" lon="8.6155833"><ele>20.666666666666668</ele><time>2026-04-18T08:56:43.366Z</time></trkpt><trkpt lat="33.378736" lon="8.6153748"><ele>21.0</ele><time>2026-04-18T08:56:44.36Z</time></trkpt><trkpt lat="33.3787808" lon="8.615164"><ele>20.0</ele><time>2026-04-18T08:56:45.357Z</time></trkpt><trkpt lat="33.3788218" lon="8.6149525"><ele>19.0</ele><time>2026-04-18T08:56:46.363Z</time></trkpt><trkpt lat="33.3788598" lon="8.6147378"><ele>18.0</ele><time>2026-04-18T08:56:47.368Z</time></trkpt><trkpt lat="33.3788916" lon="8.6145221"><ele>18.333333333333332</ele><time>2026-04-18T08:56:48.365Z</time></trkpt><trkpt lat="33.3789199" lon="8.6143028"><ele>18.666666666666664</ele><time>2026-04-18T08:56:49.365Z</time></trkpt><trkpt lat="33.3789469" lon="8.6140821"><ele>19.0</ele><time>2026-04-18T08:56:50.366Z</time></trkpt><trkpt lat="33.3789722" lon="8.6138596"><ele>19.333333333333332</ele><time>2026-04-18T08:56:51.364Z</time></trkpt><trkpt lat="33.3789955" lon="8.6136365"><ele>19.666666666666668</ele><time>2026-04-18T08:56:52.361Z</time></trkpt><trkpt lat="33.3790163" lon="8.6134119"><ele>20.0</ele><time>2026-04-18T08:56:53.365Z</time></trkpt><trkpt lat="33.3790362" lon="8.6131882"><ele>20.0</ele><time>2026-04-18T08:56:54.362Z</time></trkpt><trkpt lat="33.3790557" lon="8.6129653"><ele>20.0</ele><time>2026-04-18T08:56:55.362Z</time></trkpt><trkpt lat="33.3790762" lon="8.6127451"><ele>20.0</ele><time>2026-04-18T08:56:56.364Z</time></trkpt><trkpt lat="33.3790993" lon="8.6125282"><ele>20.333333333333336</ele><time>2026-04-18T08:56:57.364Z</time></trkpt><trkpt lat="33.3791244" lon="8.6123157"><ele>20.666666666666668</ele><time>2026-04-18T08:56:58.367Z</time></trkpt><trkpt lat="33.3791517" lon="8.6121051"><ele>21.0</ele><time>2026-04-18T08:56:59.361Z</time></trkpt><trkpt lat="33.3791815" lon="8.611893"><ele>21.0</ele><time>2026-04-18T08:57:00.367Z</time></trkpt><trkpt lat="33.3792145" lon="8.611678"><ele>21.0</ele><time>2026-04-18T08:57:01.366Z</time></trkpt><trkpt lat="33.3792506" lon="8.6114609"><ele>21.0</ele><time>2026-04-18T08:57:02.366Z</time></trkpt><trkpt lat="33.3792905" lon="8.6112451"><ele>21.0</ele><time>2026-04-18T08:57:03.366Z</time></trkpt><trkpt lat="33.3793333" lon="8.6110339"><ele>21.0</ele><time>2026-04-18T08:57:04.365Z</time></trkpt><trkpt lat="33.3793781" lon="8.6108241"><ele>21.0</ele><time>2026-04-18T08:57:05.364Z</time></trkpt><trkpt lat="33.3794214" lon="8.6106141"><ele>21.0</ele><time>2026-04-18T08:57:06.367Z</time></trkpt><trkpt lat="33.3794588" lon="8.6104014"><ele>21.0</ele><time>2026-04-18T08:57:07.367Z</time></trkpt><trkpt lat="33.3794875" lon="8.6101874"><ele>21.0</ele><time>2026-04-18T08:57:08.365Z</time></trkpt><trkpt lat="33.3795064" lon="8.6099693"><ele>22.0</ele><time>2026-04-18T08:57:09.364Z</time></trkpt><trkpt lat="33.3795162" lon="8.6097497"><ele>23.0</ele><time>2026-04-18T08:57:10.365Z</time></trkpt><trkpt lat="33.3795182" lon="8.6095295"><ele>24.0</ele><time>2026-04-18T08:57:11.361Z</time></trkpt><trkpt lat="33.3795145" lon="8.6093076"><ele>24.0</ele><time>2026-04-18T08:57:12.363Z</time></trkpt><trkpt lat="33.3795103" lon="8.6090856"><ele>24.0</ele><time>2026-04-18T08:57:13.367Z</time></trkpt><trkpt lat="33.3795052" lon="8.6088665"><ele>24.0</ele><time>2026-04-18T08:57:14.364Z</time></trkpt><trkpt lat="33.3795011" lon="8.6086479"><ele>23.0</ele><time>2026-04-18T08:57:15.365Z</time></trkpt><trkpt lat="33.3794988" lon="8.6084312"><ele>22.0</ele><time>2026-04-18T08:57:16.361Z</time></trkpt><trkpt lat="33.3795" lon="8.6082152"><ele>21.0</ele><time>2026-04-18T08:57:17.366Z</time></trkpt><trkpt lat="33.3795052" lon="8.6079939"><ele>20.666666666666668</ele><time>2026-04-18T08:57:18.364Z</time></trkpt><trkpt lat="33.3795147" lon="8.6077678"><ele>20.333333333333336</ele><time>2026-04-18T08:57:19.367Z</time></trkpt><trkpt lat="33.3795273" lon="8.6075387"><ele>20.0</ele><time>2026-04-18T08:57:20.366Z</time></trkpt><trkpt lat="33.3795406" lon="8.6073083"><ele>20.0</ele><time>2026-04-18T08:57:21.368Z</time></trkpt><trkpt lat="33.3795565" lon="8.6070781"><ele>20.0</ele><time>2026-04-18T08:57:22.358Z</time></trkpt><trkpt lat="33.3795716" lon="8.6068468"><ele>20.0</ele><time>2026-04-18T08:57:23.368Z</time></trkpt><trkpt lat="33.379584" lon="8.6066136"><ele>20.333333333333336</ele><time>2026-04-18T08:57:24.366Z</time></trkpt><trkpt lat="33.3795929" lon="8.6063792"><ele>20.666666666666668</ele><time>2026-04-18T08:57:25.365Z</time></trkpt><trkpt lat="33.3795997" lon="8.6061434"><ele>21.0</ele><time>2026-04-18T08:57:26.36Z</time></trkpt><trkpt lat="33.379605" lon="8.6059074"><ele>21.0</ele><time>2026-04-18T08:57:27.368Z</time></trkpt><trkpt lat="33.3796094" lon="8.6056713"><ele>21.0</ele><time>2026-04-18T08:57:28.363Z</time></trkpt><trkpt lat="33.3796102" lon="8.6054353"><ele>21.0</ele><time>2026-04-18T08:57:29.367Z</time></trkpt><trkpt lat="33.3796067" lon="8.6051979"><ele>21.0</ele><time>2026-04-18T08:57:30.369Z</time></trkpt><trkpt lat="33.3796013" lon="8.6049575"><ele>21.0</ele><time>2026-04-18T08:57:31.359Z</time></trkpt><trkpt lat="33.3795933" lon="8.6047123"><ele>21.0</ele><time>2026-04-18T08:57:32.36Z</time></trkpt><trkpt lat="33.3795819" lon="8.6044615"><ele>20.666666666666668</ele><time>2026-04-18T08:57:33.361Z</time></trkpt><trkpt lat="33.3795664" lon="8.6042073"><ele>20.333333333333336</ele><time>2026-04-18T08:57:34.358Z</time></trkpt><trkpt lat="33.3795495" lon="8.6039447"><ele>20.0</ele><time>2026-04-18T08:57:35.362Z</time></trkpt><trkpt lat="33.3795312" lon="8.603685"><ele>19.666666666666668</ele><time>2026-04-18T08:57:36.359Z</time></trkpt><trkpt lat="33.3795137" lon="8.6034269"><ele>19.333333333333332</ele><time>2026-04-18T08:57:37.362Z</time></trkpt><trkpt lat="33.3794967" lon="8.603174"><ele>19.0</ele><time>2026-04-18T08:57:38.368Z</time></trkpt><trkpt lat="33.3794787" lon="8.6029319"><ele>19.666666666666664</ele><time>2026-04-18T08:57:39.36Z</time></trkpt><trkpt lat="33.3794606" lon="8.6026989"><ele>20.333333333333332</ele><time>2026-04-18T08:57:40.366Z</time></trkpt><trkpt lat="33.3794422" lon="8.6024732"><ele>21.0</ele><time>2026-04-18T08:57:41.364Z</time></trkpt><trkpt lat="33.379425" lon="8.6022575"><ele>21.0</ele><time>2026-04-18T08:57:42.368Z</time></trkpt><trkpt lat="33.3794097" lon="8.6020472"><ele>21.0</ele><time>2026-04-18T08:57:43.357Z</time></trkpt><trkpt lat="33.3793953" lon="8.6018346"><ele>21.0</ele><time>2026-04-18T08:57:44.356Z</time></trkpt><trkpt lat="33.3793832" lon="8.6016316"><ele>20.666666666666668</ele><time>2026-04-18T08:57:45.359Z</time></trkpt><trkpt lat="33.3793726" lon="8.6014317"><ele>20.333333333333336</ele><time>2026-04-18T08:57:46.356Z</time></trkpt><trkpt lat="33.3793655" lon="8.6012334"><ele>20.0</ele><time>2026-04-18T08:57:47.366Z</time></trkpt><trkpt lat="33.3793616" lon="8.6010369"><ele>20.666666666666668</ele><time>2026-04-18T08:57:48.36Z</time></trkpt><trkpt lat="33.3793613" lon="8.6008448"><ele>21.333333333333332</ele><time>2026-04-18T08:57:49.357Z</time></trkpt><trkpt lat="33.379365" lon="8.6006557"><ele>22.0</ele><time>2026-04-18T08:57:50.361Z</time></trkpt><trkpt lat="33.3793739" lon="8.6004674"><ele>22.0</ele><time>2026-04-18T08:57:51.362Z</time></trkpt><trkpt lat="33.3793881" lon="8.6002787"><ele>22.0</ele><time>2026-04-18T08:57:52.357Z</time></trkpt><trkpt lat="33.379406" lon="8.6000889"><ele>22.0</ele><time>2026-04-18T08:57:53.364Z</time></trkpt><trkpt lat="33.3794244" lon="8.5998983"><ele>22.0</ele><time>2026-04-18T08:57:54.36Z</time></trkpt><trkpt lat="33.3794437" lon="8.5997065"><ele>22.0</ele><time>2026-04-18T08:57:55.357Z</time></trkpt><trkpt lat="33.379465" lon="8.599527"><ele>22.0</ele><time>2026-04-18T08:57:56.355Z</time></trkpt><trkpt lat="33.3794922" lon="8.5993379"><ele>21.0</ele><time>2026-04-18T08:57:57.359Z</time></trkpt><trkpt lat="33.3795162" lon="8.5991428"><ele>20.0</ele><time>2026-04-18T08:57:58.358Z</time></trkpt><trkpt lat="33.3795458" lon="8.5989463"><ele>19.0</ele><time>2026-04-18T08:57:59.371Z</time></trkpt><trkpt lat="33.3795756" lon="8.5987444"><ele>20.0</ele><time>2026-04-18T08:58:00.366Z</time></trkpt><trkpt lat="33.3796062" lon="8.5985411"><ele>21.0</ele><time>2026-04-18T08:58:01.362Z</time></trkpt><trkpt lat="33.3796413" lon="8.598336"><ele>22.0</ele><time>2026-04-18T08:58:02.373Z</time></trkpt><trkpt lat="33.3796782" lon="8.5981325"><ele>19.666666666666664</ele><time>2026-04-18T08:58:03.363Z</time></trkpt><trkpt lat="33.3797173" lon="8.597928"><ele>17.333333333333332</ele><time>2026-04-18T08:58:04.361Z</time></trkpt><trkpt lat="33.3797579" lon="8.5977235"><ele>15.0</ele><time>2026-04-18T08:58:05.359Z</time></trkpt><trkpt lat="33.3797967" lon="8.5975192"><ele>15.0</ele><time>2026-04-18T08:58:06.361Z</time></trkpt><trkpt lat="33.3798353" lon="8.5973134"><ele>15.0</ele><time>2026-04-18T08:58:07.361Z</time></trkpt><trkpt lat="33.3798704" lon="8.5971062"><ele>15.0</ele><time>2026-04-18T08:58:08.364Z</time></trkpt><trkpt lat="33.3799047" lon="8.5969023"><ele>16.666666666666668</ele><time>2026-04-18T08:58:09.362Z</time></trkpt><trkpt lat="33.3799392" lon="8.5966993"><ele>18.333333333333336</ele><time>2026-04-18T08:58:10.367Z</time></trkpt><trkpt lat="33.3799779" lon="8.5964948"><ele>20.0</ele><time>2026-04-18T08:58:11.36Z</time></trkpt><trkpt lat="33.3800194" lon="8.5962947"><ele>20.333333333333336</ele><time>2026-04-18T08:58:12.359Z</time></trkpt><trkpt lat="33.3800622" lon="8.5960953"><ele>20.666666666666668</ele><time>2026-04-18T08:58:13.361Z</time></trkpt><trkpt lat="33.3801056" lon="8.5958963"><ele>21.0</ele><time>2026-04-18T08:58:14.367Z</time></trkpt><trkpt lat="33.3801503" lon="8.5956978"><ele>21.0</ele><time>2026-04-18T08:58:15.363Z</time></trkpt><trkpt lat="33.3801953" lon="8.5955007"><ele>21.0</ele><time>2026-04-18T08:58:16.361Z</time></trkpt><trkpt lat="33.3802396" lon="8.5953019"><ele>21.0</ele><time>2026-04-18T08:58:17.363Z</time></trkpt><trkpt lat="33.3802835" lon="8.5950998"><ele>21.0</ele><time>2026-04-18T08:58:18.362Z</time></trkpt><trkpt lat="33.3803298" lon="8.5948924"><ele>21.0</ele><time>2026-04-18T08:58:19.363Z</time></trkpt><trkpt lat="33.3803765" lon="8.5946801"><ele>21.0</ele><time>2026-04-18T08:58:20.36Z</time></trkpt><trkpt lat="33.3804225" lon="8.5944656"><ele>21.0</ele><time>2026-04-18T08:58:21.361Z</time></trkpt><trkpt lat="33.380467" lon="8.5942493"><ele>21.0</ele><time>2026-04-18T08:58:22.361Z</time></trkpt><trkpt lat="33.3805098" lon="8.5940302"><ele>21.0</ele><time>2026-04-18T08:58:23.363Z</time></trkpt><trkpt lat="33.3805528" lon="8.5938091"><ele>20.333333333333332</ele><time>2026-04-18T08:58:24.361Z</time></trkpt><trkpt lat="33.3805947" lon="8.593585"><ele>19.666666666666664</ele><time>2026-04-18T08:58:25.358Z</time></trkpt><trkpt lat="33.3806353" lon="8.5933594"><ele>19.0</ele><time>2026-04-18T08:58:26.367Z</time></trkpt><trkpt lat="33.380675" lon="8.593134"><ele>19.0</ele><time>2026-04-18T08:58:27.363Z</time></trkpt><trkpt lat="33.3807123" lon="8.5929051"><ele>19.0</ele><time>2026-04-18T08:58:28.364Z</time></trkpt><trkpt lat="33.3807478" lon="8.5926713"><ele>19.0</ele><time>2026-04-18T08:58:29.363Z</time></trkpt><trkpt lat="33.3807813" lon="8.592432"><ele>18.0</ele><time>2026-04-18T08:58:30.369Z</time></trkpt><trkpt lat="33.3808127" lon="8.5921884"><ele>17.0</ele><time>2026-04-18T08:58:31.361Z</time></trkpt><trkpt lat="33.3808427" lon="8.5919392"><ele>16.0</ele><time>2026-04-18T08:58:32.359Z</time></trkpt><trkpt lat="33.3808709" lon="8.5916865"><ele>16.0</ele><time>2026-04-18T08:58:33.36Z</time></trkpt><trkpt lat="33.3808982" lon="8.5914358"><ele>16.0</ele><time>2026-04-18T08:58:34.367Z</time></trkpt><trkpt lat="33.3809249" lon="8.5911942"><ele>16.0</ele><time>2026-04-18T08:58:35.364Z</time></trkpt><trkpt lat="33.3809528" lon="8.5909583"><ele>16.666666666666664</ele><time>2026-04-18T08:58:36.361Z</time></trkpt><trkpt lat="33.3809807" lon="8.5907278"><ele>17.333333333333332</ele><time>2026-04-18T08:58:37.363Z</time></trkpt><trkpt lat="33.3810101" lon="8.590501"><ele>18.0</ele><time>2026-04-18T08:58:38.371Z</time></trkpt><trkpt lat="33.3810408" lon="8.5902753"><ele>18.0</ele><time>2026-04-18T08:58:39.373Z</time></trkpt><trkpt lat="33.3810747" lon="8.5900533"><ele>18.0</ele><time>2026-04-18T08:58:40.359Z</time></trkpt><trkpt lat="33.3811115" lon="8.5898335"><ele>18.0</ele><time>2026-04-18T08:58:41.362Z</time></trkpt><trkpt lat="33.3811512" lon="8.589613"><ele>20.0</ele><time>2026-04-18T08:58:42.359Z</time></trkpt><trkpt lat="33.3811955" lon="8.5893968"><ele>22.0</ele><time>2026-04-18T08:58:43.361Z</time></trkpt><trkpt lat="33.3812439" lon="8.5891865"><ele>24.0</ele><time>2026-04-18T08:58:44.363Z</time></trkpt><trkpt lat="33.3812962" lon="8.5889801"><ele>22.666666666666668</ele><time>2026-04-18T08:58:45.36Z</time></trkpt><trkpt lat="33.3813499" lon="8.5887733"><ele>21.333333333333336</ele><time>2026-04-18T08:58:46.358Z</time></trkpt><trkpt lat="33.3814067" lon="8.5885667"><ele>20.0</ele><time>2026-04-18T08:58:47.364Z</time></trkpt><trkpt lat="33.3814682" lon="8.5883582"><ele>20.0</ele><time>2026-04-18T08:58:48.361Z</time></trkpt><trkpt lat="33.3815316" lon="8.5881507"><ele>20.0</ele><time>2026-04-18T08:58:49.36Z</time></trkpt><trkpt lat="33.3815961" lon="8.5879419"><ele>20.0</ele><time>2026-04-18T08:58:50.367Z</time></trkpt><trkpt lat="33.3816618" lon="8.5877286"><ele>21.0</ele><time>2026-04-18T08:58:51.369Z</time></trkpt><trkpt lat="33.3817289" lon="8.5875113"><ele>22.0</ele><time>2026-04-18T08:58:52.367Z</time></trkpt><trkpt lat="33.3817988" lon="8.5872887"><ele>23.0</ele><time>2026-04-18T08:58:53.362Z</time></trkpt><trkpt lat="33.3818698" lon="8.5870645"><ele>23.0</ele><time>2026-04-18T08:58:54.363Z</time></trkpt><trkpt lat="33.3819415" lon="8.5868409"><ele>23.0</ele><time>2026-04-18T08:58:55.361Z</time></trkpt><trkpt lat="33.3820135" lon="8.5866195"><ele>23.0</ele><time>2026-04-18T08:58:56.358Z</time></trkpt><trkpt lat="33.3820878" lon="8.586397"><ele>21.333333333333336</ele><time>2026-04-18T08:58:57.364Z</time></trkpt><trkpt lat="33.382164" lon="8.5861732"><ele>19.666666666666668</ele><time>2026-04-18T08:58:58.366Z</time></trkpt><trkpt lat="33.3822423" lon="8.5859487"><ele>18.0</ele><time>2026-04-18T08:58:59.367Z</time></trkpt><trkpt lat="33.3823233" lon="8.5857247"><ele>18.0</ele><time>2026-04-18T08:59:00.369Z</time></trkpt><trkpt lat="33.3824058" lon="8.5855019"><ele>18.0</ele><time>2026-04-18T08:59:01.367Z</time></trkpt><trkpt lat="33.3824908" lon="8.5852811"><ele>18.0</ele><time>2026-04-18T08:59:02.366Z</time></trkpt><trkpt lat="33.3825754" lon="8.5850598"><ele>18.0</ele><time>2026-04-18T08:59:03.367Z</time></trkpt><trkpt lat="33.3826615" lon="8.5848334"><ele>18.0</ele><time>2026-04-18T08:59:04.366Z</time></trkpt><trkpt lat="33.3827505" lon="8.5846034"><ele>18.0</ele><time>2026-04-18T08:59:05.362Z</time></trkpt><trkpt lat="33.3828392" lon="8.5843766"><ele>18.0</ele><time>2026-04-18T08:59:06.369Z</time></trkpt><trkpt lat="33.3829328" lon="8.5841529"><ele>18.0</ele><time>2026-04-18T08:59:07.369Z</time></trkpt><trkpt lat="33.3830333" lon="8.5839283"><ele>18.0</ele><time>2026-04-18T08:59:08.367Z</time></trkpt><trkpt lat="33.3831393" lon="8.5837013"><ele>18.0</ele><time>2026-04-18T08:59:09.36Z</time></trkpt><trkpt lat="33.3832496" lon="8.5834738"><ele>18.0</ele><time>2026-04-18T08:59:10.365Z</time></trkpt><trkpt lat="33.3833605" lon="8.5832533"><ele>18.0</ele><time>2026-04-18T08:59:11.368Z</time></trkpt><trkpt lat="33.3834723" lon="8.5830424"><ele>18.333333333333332</ele><time>2026-04-18T08:59:12.362Z</time></trkpt><trkpt lat="33.3835875" lon="8.5828353"><ele>18.666666666666664</ele><time>2026-04-18T08:59:13.371Z</time></trkpt><trkpt lat="33.3837063" lon="8.5826296"><ele>19.0</ele><time>2026-04-18T08:59:14.363Z</time></trkpt><trkpt lat="33.3838228" lon="8.5824338"><ele>20.0</ele><time>2026-04-18T08:59:15.363Z</time></trkpt><trkpt lat="33.3839351" lon="8.5822511"><ele>21.0</ele><time>2026-04-18T08:59:16.366Z</time></trkpt><trkpt lat="33.384042" lon="8.5820777"><ele>22.0</ele><time>2026-04-18T08:59:17.365Z</time></trkpt><trkpt lat="33.3841456" lon="8.5819117"><ele>22.0</ele><time>2026-04-18T08:59:18.367Z</time></trkpt><trkpt lat="33.3842517" lon="8.5817446"><ele>22.0</ele><time>2026-04-18T08:59:19.366Z</time></trkpt><trkpt lat="33.3843606" lon="8.5815706"><ele>22.0</ele><time>2026-04-18T08:59:20.369Z</time></trkpt><trkpt lat="33.3844712" lon="8.5813887"><ele>22.0</ele><time>2026-04-18T08:59:21.37Z</time></trkpt><trkpt lat="33.3845842" lon="8.5812003"><ele>22.0</ele><time>2026-04-18T08:59:22.372Z</time></trkpt><trkpt lat="33.3846955" lon="8.581012"><ele>22.0</ele><time>2026-04-18T08:59:23.363Z</time></trkpt><trkpt lat="33.3848027" lon="8.5808249"><ele>21.333333333333332</ele><time>2026-04-18T08:59:24.366Z</time></trkpt><trkpt lat="33.3849096" lon="8.5806326"><ele>20.666666666666668</ele><time>2026-04-18T08:59:25.364Z</time></trkpt><trkpt lat="33.3850165" lon="8.5804347"><ele>20.0</ele><time>2026-04-18T08:59:26.365Z</time></trkpt><trkpt lat="33.3851253" lon="8.5802314"><ele>19.0</ele><time>2026-04-18T08:59:27.37Z</time></trkpt><trkpt lat="33.3852343" lon="8.580025"><ele>18.0</ele><time>2026-04-18T08:59:28.362Z</time></trkpt><trkpt lat="33.3853417" lon="8.5798213"><ele>17.0</ele><time>2026-04-18T08:59:29.367Z</time></trkpt><trkpt lat="33.3854487" lon="8.5796217"><ele>18.333333333333336</ele><time>2026-04-18T08:59:30.367Z</time></trkpt><trkpt lat="33.3855529" lon="8.5794257"><ele>19.666666666666668</ele><time>2026-04-18T08:59:31.368Z</time></trkpt><trkpt lat="33.3856569" lon="8.5792283"><ele>21.0</ele><time>2026-04-18T08:59:32.361Z</time></trkpt><trkpt lat="33.3857603" lon="8.5790319"><ele>21.0</ele><time>2026-04-18T08:59:33.369Z</time></trkpt><trkpt lat="33.3858637" lon="8.5788385"><ele>21.0</ele><time>2026-04-18T08:59:34.369Z</time></trkpt><trkpt lat="33.3859669" lon="8.5786472"><ele>21.0</ele><time>2026-04-18T08:59:35.366Z</time></trkpt><trkpt lat="33.3860708" lon="8.5784553"><ele>20.333333333333332</ele><time>2026-04-18T08:59:36.364Z</time></trkpt><trkpt lat="33.3861732" lon="8.5782631"><ele>19.666666666666664</ele><time>2026-04-18T08:59:37.369Z</time></trkpt><trkpt lat="33.3862752" lon="8.5780732"><ele>19.0</ele><time>2026-04-18T08:59:38.384Z</time></trkpt><trkpt lat="33.3863776" lon="8.5778851"><ele>18.0</ele><time>2026-04-18T08:59:39.365Z</time></trkpt><trkpt lat="33.3864797" lon="8.5776979"><ele>17.0</ele><time>2026-04-18T08:59:40.363Z</time></trkpt><trkpt lat="33.3865832" lon="8.5775066"><ele>16.0</ele><time>2026-04-18T08:59:41.37Z</time></trkpt><trkpt lat="33.3866865" lon="8.5773154"><ele>16.0</ele><time>2026-04-18T08:59:42.369Z</time></trkpt><trkpt lat="33.3867884" lon="8.5771259"><ele>16.0</ele><time>2026-04-18T08:59:43.365Z</time></trkpt><trkpt lat="33.3868877" lon="8.5769406"><ele>16.0</ele><time>2026-04-18T08:59:44.372Z</time></trkpt><trkpt lat="33.3869816" lon="8.5767621"><ele>17.0</ele><time>2026-04-18T08:59:45.37Z</time></trkpt><trkpt lat="33.3870741" lon="8.5765861"><ele>18.0</ele><time>2026-04-18T08:59:46.368Z</time></trkpt><trkpt lat="33.3871642" lon="8.5764141"><ele>19.0</ele><time>2026-04-18T08:59:47.371Z</time></trkpt><trkpt lat="33.3872532" lon="8.576244"><ele>19.333333333333332</ele><time>2026-04-18T08:59:48.36Z</time></trkpt><trkpt lat="33.3873421" lon="8.5760706"><ele>19.666666666666668</ele><time>2026-04-18T08:59:49.363Z</time></trkpt><trkpt lat="33.38743" lon="8.5758971"><ele>20.0</ele><time>2026-04-18T08:59:50.367Z</time></trkpt><trkpt lat="33.3875168" lon="8.5757277"><ele>20.0</ele><time>2026-04-18T08:59:51.363Z</time></trkpt><trkpt lat="33.3875988" lon="8.5755653"><ele>20.0</ele><time>2026-04-18T08:59:52.368Z</time></trkpt><trkpt lat="33.3876776" lon="8.5754094"><ele>20.0</ele><time>2026-04-18T08:59:53.364Z</time></trkpt><trkpt lat="33.3877514" lon="8.5752579"><ele>19.5</ele><time>2026-04-18T08:59:54.367Z</time></trkpt><trkpt lat="33.38782" lon="8.5751054"><ele>19.0</ele><time>2026-04-18T08:59:55.373Z</time></trkpt><trkpt lat="33.387883" lon="8.57495"><ele>18.5</ele><time>2026-04-18T08:59:56.374Z</time></trkpt><trkpt lat="33.387941" lon="8.5747925"><ele>18.0</ele><time>2026-04-18T08:59:57.363Z</time></trkpt><trkpt lat="33.3879925" lon="8.5746335"><ele>17.75</ele><time>2026-04-18T08:59:58.367Z</time></trkpt><trkpt lat="33.3880351" lon="8.5744775"><ele>17.5</ele><time>2026-04-18T08:59:59.369Z</time></trkpt><trkpt lat="33.3880709" lon="8.5743208"><ele>17.25</ele><time>2026-04-18T09:00:00.365Z</time></trkpt><trkpt lat="33.3881006" lon="8.5741602"><ele>17.0</ele><time>2026-04-18T09:00:01.362Z</time></trkpt><trkpt lat="33.3881251" lon="8.5739937"><ele>17.0</ele><time>2026-04-18T09:00:02.366Z</time></trkpt><trkpt lat="33.3881438" lon="8.5738197"><ele>17.0</ele><time>2026-04-18T09:00:03.366Z</time></trkpt><trkpt lat="33.3881562" lon="8.5736396"><ele>17.0</ele><time>2026-04-18T09:00:04.366Z</time></trkpt><trkpt lat="33.388162" lon="8.5734529"><ele>17.333333333333336</ele><time>2026-04-18T09:00:05.361Z</time></trkpt><trkpt lat="33.3881598" lon="8.5732552"><ele>17.666666666666668</ele><time>2026-04-18T09:00:06.364Z</time></trkpt><trkpt lat="33.38815" lon="8.5730447"><ele>18.0</ele><time>2026-04-18T09:00:07.364Z</time></trkpt><trkpt lat="33.3881355" lon="8.5728263"><ele>18.333333333333332</ele><time>2026-04-18T09:00:08.368Z</time></trkpt><trkpt lat="33.3881198" lon="8.5726115"><ele>18.666666666666664</ele><time>2026-04-18T09:00:09.368Z</time></trkpt><trkpt lat="33.3881024" lon="8.5723923"><ele>19.0</ele><time>2026-04-18T09:00:10.381Z</time></trkpt><trkpt lat="33.3880829" lon="8.5721693"><ele>19.666666666666664</ele><time>2026-04-18T09:00:11.37Z</time></trkpt><trkpt lat="33.3880606" lon="8.5719423"><ele>20.333333333333332</ele><time>2026-04-18T09:00:12.363Z</time></trkpt><trkpt lat="33.3880368" lon="8.5717135"><ele>21.0</ele><time>2026-04-18T09:00:13.363Z</time></trkpt><trkpt lat="33.3880125" lon="8.5714844"><ele>20.666666666666668</ele><time>2026-04-18T09:00:14.367Z</time></trkpt><trkpt lat="33.3879883" lon="8.5712546"><ele>20.333333333333336</ele><time>2026-04-18T09:00:15.371Z</time></trkpt><trkpt lat="33.3879657" lon="8.5710212"><ele>20.0</ele><time>2026-04-18T09:00:16.367Z</time></trkpt><trkpt lat="33.3879445" lon="8.570784"><ele>20.0</ele><time>2026-04-18T09:00:17.365Z</time></trkpt><trkpt lat="33.3879249" lon="8.5705427"><ele>20.0</ele><time>2026-04-18T09:00:18.369Z</time></trkpt><trkpt lat="33.387908" lon="8.5703036"><ele>20.0</ele><time>2026-04-18T09:00:19.372Z</time></trkpt><trkpt lat="33.3878947" lon="8.5700665"><ele>20.0</ele><time>2026-04-18T09:00:20.363Z</time></trkpt><trkpt lat="33.3878851" lon="8.5698268"><ele>20.0</ele><time>2026-04-18T09:00:21.368Z</time></trkpt><trkpt lat="33.3878808" lon="8.5695842"><ele>20.0</ele><time>2026-04-18T09:00:22.363Z</time></trkpt><trkpt lat="33.3878827" lon="8.5693406"><ele>20.0</ele><time>2026-04-18T09:00:23.369Z</time></trkpt><trkpt lat="33.3878901" lon="8.5690993"><ele>20.0</ele><time>2026-04-18T09:00:24.364Z</time></trkpt><trkpt lat="33.387903" lon="8.5688614"><ele>20.0</ele><time>2026-04-18T09:00:25.375Z</time></trkpt><trkpt lat="33.3879196" lon="8.5686275"><ele>20.0</ele><time>2026-04-18T09:00:26.368Z</time></trkpt><trkpt lat="33.3879377" lon="8.5683948"><ele>20.0</ele><time>2026-04-18T09:00:27.362Z</time></trkpt><trkpt lat="33.3879558" lon="8.5681664"><ele>20.0</ele><time>2026-04-18T09:00:28.369Z</time></trkpt><trkpt lat="33.3879732" lon="8.5679405"><ele>20.0</ele><time>2026-04-18T09:00:29.371Z</time></trkpt><trkpt lat="33.387992" lon="8.5677168"><ele>20.0</ele><time>2026-04-18T09:00:30.367Z</time></trkpt><trkpt lat="33.3880119" lon="8.5674993"><ele>20.0</ele><time>2026-04-18T09:00:31.375Z</time></trkpt><trkpt lat="33.3880329" lon="8.5672858"><ele>19.333333333333336</ele><time>2026-04-18T09:00:32.375Z</time></trkpt><trkpt lat="33.3880541" lon="8.5670761"><ele>18.666666666666668</ele><time>2026-04-18T09:00:33.365Z</time></trkpt><trkpt lat="33.3880745" lon="8.5668699"><ele>18.0</ele><time>2026-04-18T09:00:34.364Z</time></trkpt><trkpt lat="33.3880956" lon="8.566662"><ele>18.0</ele><time>2026-04-18T09:00:35.387Z</time></trkpt><trkpt lat="33.3881156" lon="8.5664521"><ele>18.0</ele><time>2026-04-18T09:00:36.369Z</time></trkpt><trkpt lat="33.3881325" lon="8.5662386"><ele>18.0</ele><time>2026-04-18T09:00:37.366Z</time></trkpt><trkpt lat="33.3881451" lon="8.5660251"><ele>18.333333333333332</ele><time>2026-04-18T09:00:38.373Z</time></trkpt><trkpt lat="33.3881513" lon="8.5658114"><ele>18.666666666666664</ele><time>2026-04-18T09:00:39.38Z</time></trkpt><trkpt lat="33.3881475" lon="8.5655944"><ele>19.0</ele><time>2026-04-18T09:00:40.376Z</time></trkpt><trkpt lat="33.3881354" lon="8.5653743"><ele>19.0</ele><time>2026-04-18T09:00:41.363Z</time></trkpt><trkpt lat="33.3881179" lon="8.5651547"><ele>19.0</ele><time>2026-04-18T09:00:42.368Z</time></trkpt><trkpt lat="33.3880943" lon="8.5649337"><ele>19.0</ele><time>2026-04-18T09:00:43.372Z</time></trkpt><trkpt lat="33.388065" lon="8.5647089"><ele>19.0</ele><time>2026-04-18T09:00:44.377Z</time></trkpt><trkpt lat="33.388031" lon="8.5644821"><ele>19.0</ele><time>2026-04-18T09:00:45.365Z</time></trkpt><trkpt lat="33.3879961" lon="8.5642511"><ele>19.0</ele><time>2026-04-18T09:00:46.363Z</time></trkpt><trkpt lat="33.3879636" lon="8.5640165"><ele>19.333333333333332</ele><time>2026-04-18T09:00:47.365Z</time></trkpt><trkpt lat="33.3879334" lon="8.5637784"><ele>19.666666666666668</ele><time>2026-04-18T09:00:48.372Z</time></trkpt><trkpt lat="33.3879083" lon="8.5635403"><ele>20.0</ele><time>2026-04-18T09:00:49.365Z</time></trkpt><trkpt lat="33.3878904" lon="8.5632998"><ele>20.333333333333336</ele><time>2026-04-18T09:00:50.357Z</time></trkpt><trkpt lat="33.3878804" lon="8.5630617"><ele>20.666666666666668</ele><time>2026-04-18T09:00:51.365Z</time></trkpt><trkpt lat="33.3878774" lon="8.5628315"><ele>21.0</ele><time>2026-04-18T09:00:52.37Z</time></trkpt><trkpt lat="33.3878814" lon="8.5626078"><ele>20.333333333333332</ele><time>2026-04-18T09:00:53.366Z</time></trkpt><trkpt lat="33.3878912" lon="8.5623869"><ele>19.666666666666664</ele><time>2026-04-18T09:00:54.361Z</time></trkpt><trkpt lat="33.3879035" lon="8.5621699"><ele>19.0</ele><time>2026-04-18T09:00:55.365Z</time></trkpt><trkpt lat="33.3879174" lon="8.5619553"><ele>19.0</ele><time>2026-04-18T09:00:56.365Z</time></trkpt><trkpt lat="33.3879315" lon="8.5617399"><ele>19.0</ele><time>2026-04-18T09:00:57.366Z</time></trkpt><trkpt lat="33.3879441" lon="8.5615228"><ele>19.0</ele><time>2026-04-18T09:00:58.371Z</time></trkpt><trkpt lat="33.3879537" lon="8.5613047"><ele>19.333333333333332</ele><time>2026-04-18T09:00:59.367Z</time></trkpt><trkpt lat="33.3879617" lon="8.561086"><ele>19.666666666666668</ele><time>2026-04-18T09:01:00.361Z</time></trkpt><trkpt lat="33.3879688" lon="8.5608684"><ele>20.0</ele><time>2026-04-18T09:01:01.365Z</time></trkpt><trkpt lat="33.387974" lon="8.5606522"><ele>20.0</ele><time>2026-04-18T09:01:02.362Z</time></trkpt><trkpt lat="33.3879779" lon="8.5604344"><ele>20.0</ele><time>2026-04-18T09:01:03.366Z</time></trkpt><trkpt lat="33.387981" lon="8.5602145"><ele>20.0</ele><time>2026-04-18T09:01:04.359Z</time></trkpt><trkpt lat="33.3879843" lon="8.5599943"><ele>19.666666666666668</ele><time>2026-04-18T09:01:05.362Z</time></trkpt><trkpt lat="33.3879884" lon="8.5597715"><ele>19.333333333333332</ele><time>2026-04-18T09:01:06.366Z</time></trkpt><trkpt lat="33.3879937" lon="8.5595472"><ele>19.0</ele><time>2026-04-18T09:01:07.365Z</time></trkpt><trkpt lat="33.388001" lon="8.5593227"><ele>19.333333333333332</ele><time>2026-04-18T09:01:08.366Z</time></trkpt><trkpt lat="33.3880125" lon="8.5591002"><ele>19.666666666666668</ele><time>2026-04-18T09:01:09.362Z</time></trkpt><trkpt lat="33.3880274" lon="8.5588812"><ele>20.0</ele><time>2026-04-18T09:01:10.369Z</time></trkpt><trkpt lat="33.3880433" lon="8.5586684"><ele>19.333333333333336</ele><time>2026-04-18T09:01:11.363Z</time></trkpt><trkpt lat="33.3880589" lon="8.5584567"><ele>18.666666666666668</ele><time>2026-04-18T09:01:12.365Z</time></trkpt><trkpt lat="33.3880721" lon="8.5582445"><ele>18.0</ele><time>2026-04-18T09:01:13.361Z</time></trkpt><trkpt lat="33.3880819" lon="8.5580349"><ele>18.0</ele><time>2026-04-18T09:01:14.366Z</time></trkpt><trkpt lat="33.3880908" lon="8.5578233"><ele>18.0</ele><time>2026-04-18T09:01:15.369Z</time></trkpt><trkpt lat="33.3880996" lon="8.5576102"><ele>18.0</ele><time>2026-04-18T09:01:16.359Z</time></trkpt><trkpt lat="33.3881082" lon="8.5573941"><ele>18.0</ele><time>2026-04-18T09:01:17.369Z</time></trkpt><trkpt lat="33.3881162" lon="8.5571789"><ele>18.0</ele><time>2026-04-18T09:01:18.367Z</time></trkpt><trkpt lat="33.3881231" lon="8.5569642"><ele>18.0</ele><time>2026-04-18T09:01:19.365Z</time></trkpt><trkpt lat="33.3881291" lon="8.5567528"><ele>18.333333333333332</ele><time>2026-04-18T09:01:20.367Z</time></trkpt><trkpt lat="33.3881342" lon="8.5565469"><ele>18.666666666666664</ele><time>2026-04-18T09:01:21.362Z</time></trkpt><trkpt lat="33.3881379" lon="8.5563397"><ele>19.0</ele><time>2026-04-18T09:01:22.366Z</time></trkpt><trkpt lat="33.3881418" lon="8.556132"><ele>19.0</ele><time>2026-04-18T09:01:23.363Z</time></trkpt><trkpt lat="33.388149" lon="8.5559252"><ele>19.0</ele><time>2026-04-18T09:01:24.364Z</time></trkpt><trkpt lat="33.3881618" lon="8.5557178"><ele>19.0</ele><time>2026-04-18T09:01:25.372Z</time></trkpt><trkpt lat="33.3881799" lon="8.5555073"><ele>19.0</ele><time>2026-04-18T09:01:26.369Z</time></trkpt><trkpt lat="33.3882011" lon="8.5552984"><ele>19.0</ele><time>2026-04-18T09:01:27.364Z</time></trkpt><trkpt lat="33.3882238" lon="8.5550908"><ele>19.0</ele><time>2026-04-18T09:01:28.365Z</time></trkpt><trkpt lat="33.3882449" lon="8.554877"><ele>19.0</ele><time>2026-04-18T09:01:29.37Z</time></trkpt><trkpt lat="33.3882635" lon="8.554657"><ele>19.0</ele><time>2026-04-18T09:01:30.365Z</time></trkpt><trkpt lat="33.3882806" lon="8.5544336"><ele>19.0</ele><time>2026-04-18T09:01:31.362Z</time></trkpt><trkpt lat="33.3882949" lon="8.5542109"><ele>19.0</ele><time>2026-04-18T09:01:32.365Z</time></trkpt><trkpt lat="33.3883069" lon="8.5539873"><ele>19.0</ele><time>2026-04-18T09:01:33.372Z</time></trkpt><trkpt lat="33.3883189" lon="8.5537649"><ele>19.0</ele><time>2026-04-18T09:01:34.366Z</time></trkpt><trkpt lat="33.3883319" lon="8.55355"><ele>19.0</ele><time>2026-04-18T09:01:35.363Z</time></trkpt><trkpt lat="33.3883463" lon="8.5533398"><ele>19.0</ele><time>2026-04-18T09:01:36.362Z</time></trkpt><trkpt lat="33.3883613" lon="8.5531311"><ele>19.0</ele><time>2026-04-18T09:01:37.366Z</time></trkpt><trkpt lat="33.388376" lon="8.5529241"><ele>19.0</ele><time>2026-04-18T09:01:38.366Z</time></trkpt><trkpt lat="33.3883905" lon="8.5527183"><ele>19.0</ele><time>2026-04-18T09:01:39.368Z</time></trkpt><trkpt lat="33.3884074" lon="8.5525135"><ele>19.0</ele><time>2026-04-18T09:01:40.369Z</time></trkpt><trkpt lat="33.388427" lon="8.552307"><ele>19.0</ele><time>2026-04-18T09:01:41.359Z</time></trkpt><trkpt lat="33.3884487" lon="8.5520976"><ele>19.0</ele><time>2026-04-18T09:01:42.369Z</time></trkpt><trkpt lat="33.3884712" lon="8.5518885"><ele>19.0</ele><time>2026-04-18T09:01:43.37Z</time></trkpt><trkpt lat="33.3884915" lon="8.5516808"><ele>19.0</ele><time>2026-04-18T09:01:44.366Z</time></trkpt><trkpt lat="33.3885103" lon="8.5514713"><ele>19.0</ele><time>2026-04-18T09:01:45.365Z</time></trkpt><trkpt lat="33.3885285" lon="8.5512616"><ele>19.0</ele><time>2026-04-18T09:01:46.368Z</time></trkpt><trkpt lat="33.388547" lon="8.5510471"><ele>19.0</ele><time>2026-04-18T09:01:47.37Z</time></trkpt><trkpt lat="33.3885675" lon="8.5508289"><ele>19.0</ele><time>2026-04-18T09:01:48.369Z</time></trkpt><trkpt lat="33.3885899" lon="8.5506114"><ele>19.0</ele><time>2026-04-18T09:01:49.369Z</time></trkpt><trkpt lat="33.3886132" lon="8.5503953"><ele>19.333333333333332</ele><time>2026-04-18T09:01:50.369Z</time></trkpt><trkpt lat="33.3886371" lon="8.5501791"><ele>19.666666666666668</ele><time>2026-04-18T09:01:51.37Z</time></trkpt><trkpt lat="33.3886624" lon="8.5499608"><ele>20.0</ele><time>2026-04-18T09:01:52.372Z</time></trkpt><trkpt lat="33.3886894" lon="8.5497391"><ele>20.0</ele><time>2026-04-18T09:01:53.373Z</time></trkpt><trkpt lat="33.388718" lon="8.5495167"><ele>20.0</ele><time>2026-04-18T09:01:54.366Z</time></trkpt><trkpt lat="33.3887481" lon="8.5492958"><ele>20.0</ele><time>2026-04-18T09:01:55.378Z</time></trkpt><trkpt lat="33.3887776" lon="8.5490772"><ele>20.0</ele><time>2026-04-18T09:01:56.365Z</time></trkpt><trkpt lat="33.3888046" lon="8.5488645"><ele>20.0</ele><time>2026-04-18T09:01:57.372Z</time></trkpt><trkpt lat="33.3888296" lon="8.5486568"><ele>20.0</ele><time>2026-04-18T09:01:58.379Z</time></trkpt><trkpt lat="33.3888548" lon="8.5484489"><ele>19.666666666666668</ele><time>2026-04-18T09:01:59.365Z</time></trkpt><trkpt lat="33.3888827" lon="8.5482409"><ele>19.333333333333332</ele><time>2026-04-18T09:02:00.363Z</time></trkpt><trkpt lat="33.3889144" lon="8.5480321"><ele>19.0</ele><time>2026-04-18T09:02:01.367Z</time></trkpt><trkpt lat="33.388952" lon="8.5478205"><ele>19.0</ele><time>2026-04-18T09:02:02.364Z</time></trkpt><trkpt lat="33.3889944" lon="8.547603"><ele>19.0</ele><time>2026-04-18T09:02:03.369Z</time></trkpt><trkpt lat="33.3890407" lon="8.5473836"><ele>19.0</ele><time>2026-04-18T09:02:04.36Z</time></trkpt><trkpt lat="33.3890882" lon="8.5471667"><ele>19.0</ele><time>2026-04-18T09:02:05.362Z</time></trkpt><trkpt lat="33.3891331" lon="8.5469497"><ele>19.0</ele><time>2026-04-18T09:02:06.363Z</time></trkpt><trkpt lat="33.3891716" lon="8.5467299"><ele>19.0</ele><time>2026-04-18T09:02:07.372Z</time></trkpt><trkpt lat="33.3892033" lon="8.5465056"><ele>19.0</ele><time>2026-04-18T09:02:08.367Z</time></trkpt><trkpt lat="33.3892266" lon="8.5462769"><ele>19.0</ele><time>2026-04-18T09:02:09.369Z</time></trkpt><trkpt lat="33.3892414" lon="8.5460456"><ele>19.0</ele><time>2026-04-18T09:02:10.359Z</time></trkpt><trkpt lat="33.3892519" lon="8.5458122"><ele>19.0</ele><time>2026-04-18T09:02:11.358Z</time></trkpt><trkpt lat="33.3892652" lon="8.54558"><ele>19.0</ele><time>2026-04-18T09:02:12.371Z</time></trkpt><trkpt lat="33.3892849" lon="8.5453494"><ele>19.0</ele><time>2026-04-18T09:02:13.37Z</time></trkpt><trkpt lat="33.3893085" lon="8.5451231"><ele>19.0</ele><time>2026-04-18T09:02:14.369Z</time></trkpt><trkpt lat="33.3893337" lon="8.5449007"><ele>19.0</ele><time>2026-04-18T09:02:15.371Z</time></trkpt><trkpt lat="33.3893593" lon="8.5446788"><ele>19.0</ele><time>2026-04-18T09:02:16.366Z</time></trkpt><trkpt lat="33.3893856" lon="8.544455"><ele>19.333333333333332</ele><time>2026-04-18T09:02:17.364Z</time></trkpt><trkpt lat="33.3894109" lon="8.5442298"><ele>19.666666666666668</ele><time>2026-04-18T09:02:18.363Z</time></trkpt><trkpt lat="33.3894354" lon="8.5440081"><ele>20.0</ele><time>2026-04-18T09:02:19.371Z</time></trkpt><trkpt lat="33.3894605" lon="8.5437873"><ele>19.666666666666668</ele><time>2026-04-18T09:02:20.37Z</time></trkpt><trkpt lat="33.3894872" lon="8.5435701"><ele>19.333333333333332</ele><time>2026-04-18T09:02:21.371Z</time></trkpt><trkpt lat="33.3895154" lon="8.5433571"><ele>19.0</ele><time>2026-04-18T09:02:22.368Z</time></trkpt><trkpt lat="33.3895439" lon="8.5431509"><ele>19.0</ele><time>2026-04-18T09:02:23.371Z</time></trkpt><trkpt lat="33.3895717" lon="8.5429573"><ele>19.0</ele><time>2026-04-18T09:02:24.366Z</time></trkpt><trkpt lat="33.3895971" lon="8.5427748"><ele>19.0</ele><time>2026-04-18T09:02:25.368Z</time></trkpt><trkpt lat="33.38962" lon="8.5425975"><ele>19.0</ele><time>2026-04-18T09:02:26.368Z</time></trkpt><trkpt lat="33.3896377" lon="8.5424228"><ele>19.0</ele><time>2026-04-18T09:02:27.366Z</time></trkpt><trkpt lat="33.3896498" lon="8.5422505"><ele>19.0</ele><time>2026-04-18T09:02:28.37Z</time></trkpt><trkpt lat="33.3896571" lon="8.5420817"><ele>19.0</ele><time>2026-04-18T09:02:29.368Z</time></trkpt><trkpt lat="33.3896584" lon="8.5419222"><ele>19.0</ele><time>2026-04-18T09:02:30.373Z</time></trkpt><trkpt lat="33.3896556" lon="8.5417879"><ele>19.0</ele><time>2026-04-18T09:02:31.374Z</time></trkpt><trkpt lat="33.3896536" lon="8.5416868"><ele>19.0</ele><time>2026-04-18T09:02:32.368Z</time></trkpt><trkpt lat="33.389664" lon="8.5415699"><ele>19.0</ele><time>2026-04-18T09:02:34.369Z</time></trkpt><trkpt lat="33.3897056" lon="8.5414795"><ele>19.0</ele><time>2026-04-18T09:02:37.365Z</time></trkpt><trkpt lat="33.3897623" lon="8.5413825"><ele>19.0</ele><time>2026-04-18T09:02:40.379Z</time></trkpt><trkpt lat="33.3898352" lon="8.5412882"><ele>19.0</ele><time>2026-04-18T09:02:42.362Z</time></trkpt><trkpt lat="33.3898869" lon="8.5412323"><ele>19.0</ele><time>2026-04-18T09:02:43.362Z</time></trkpt><trkpt lat="33.389946" lon="8.5411705"><ele>19.0</ele><time>2026-04-18T09:02:44.369Z</time></trkpt><trkpt lat="33.3900119" lon="8.5411026"><ele>19.0</ele><time>2026-04-18T09:02:45.364Z</time></trkpt><trkpt lat="33.3900858" lon="8.5410288"><ele>19.0</ele><time>2026-04-18T09:02:46.362Z</time></trkpt><trkpt lat="33.3901735" lon="8.5409439"><ele>19.0</ele><time>2026-04-18T09:02:47.371Z</time></trkpt><trkpt lat="33.3902783" lon="8.5408503"><ele>19.0</ele><time>2026-04-18T09:02:48.369Z</time></trkpt><trkpt lat="33.3904051" lon="8.5407428"><ele>19.0</ele><time>2026-04-18T09:02:49.371Z</time></trkpt><trkpt lat="33.390555" lon="8.5406558"><ele>19.0</ele><time>2026-04-18T09:02:50.375Z</time></trkpt><trkpt lat="33.3907194" lon="8.5405232"><ele>19.0</ele><time>2026-04-18T09:02:51.365Z</time></trkpt><trkpt lat="33.3908898" lon="8.5403737"><ele>19.0</ele><time>2026-04-18T09:02:52.373Z</time></trkpt><trkpt lat="33.3910607" lon="8.5402139"><ele>19.0</ele><time>2026-04-18T09:02:53.373Z</time></trkpt><trkpt lat="33.3912321" lon="8.5400551"><ele>19.0</ele><time>2026-04-18T09:02:54.364Z</time></trkpt><trkpt lat="33.3913912" lon="8.5399048"><ele>19.0</ele><time>2026-04-18T09:02:55.367Z</time></trkpt><trkpt lat="33.3915404" lon="8.5397611"><ele>19.0</ele><time>2026-04-18T09:02:56.37Z</time></trkpt><trkpt lat="33.3916895" lon="8.53962"><ele>19.0</ele><time>2026-04-18T09:02:57.372Z</time></trkpt><trkpt lat="33.3918334" lon="8.5394825"><ele>19.0</ele><time>2026-04-18T09:02:58.37Z</time></trkpt><trkpt lat="33.391976" lon="8.5393486"><ele>19.333333333333332</ele><time>2026-04-18T09:02:59.372Z</time></trkpt><trkpt lat="33.3921185" lon="8.5392158"><ele>19.666666666666668</ele><time>2026-04-18T09:03:00.37Z</time></trkpt><trkpt lat="33.392259" lon="8.539083"><ele>20.0</ele><time>2026-04-18T09:03:01.371Z</time></trkpt><trkpt lat="33.3923977" lon="8.5389508"><ele>20.0</ele><time>2026-04-18T09:03:02.371Z</time></trkpt><trkpt lat="33.3925369" lon="8.5388185"><ele>20.0</ele><time>2026-04-18T09:03:03.37Z</time></trkpt><trkpt lat="33.3926784" lon="8.5386833"><ele>20.0</ele><time>2026-04-18T09:03:04.369Z</time></trkpt><trkpt lat="33.3928243" lon="8.5385437"><ele>20.0</ele><time>2026-04-18T09:03:05.377Z</time></trkpt><trkpt lat="33.3929752" lon="8.5384001"><ele>20.0</ele><time>2026-04-18T09:03:06.372Z</time></trkpt><trkpt lat="33.3931319" lon="8.5382523"><ele>20.0</ele><time>2026-04-18T09:03:07.38Z</time></trkpt><trkpt lat="33.3932927" lon="8.5380998"><ele>19.666666666666668</ele><time>2026-04-18T09:03:08.367Z</time></trkpt><trkpt lat="33.3934552" lon="8.5379418"><ele>19.333333333333332</ele><time>2026-04-18T09:03:09.364Z</time></trkpt><trkpt lat="33.39362" lon="8.5377829"><ele>19.0</ele><time>2026-04-18T09:03:10.364Z</time></trkpt><trkpt lat="33.3937862" lon="8.5376218"><ele>19.0</ele><time>2026-04-18T09:03:11.368Z</time></trkpt><trkpt lat="33.3939535" lon="8.5374575"><ele>19.0</ele><time>2026-04-18T09:03:12.371Z</time></trkpt><trkpt lat="33.3941214" lon="8.5372941"><ele>19.0</ele><time>2026-04-18T09:03:13.363Z</time></trkpt><trkpt lat="33.3942898" lon="8.5371346"><ele>19.0</ele><time>2026-04-18T09:03:14.363Z</time></trkpt><trkpt lat="33.3944624" lon="8.5369736"><ele>19.0</ele><time>2026-04-18T09:03:15.363Z</time></trkpt><trkpt lat="33.3946368" lon="8.5368101"><ele>19.0</ele><time>2026-04-18T09:03:16.365Z</time></trkpt><trkpt lat="33.3948108" lon="8.5366447"><ele>19.0</ele><time>2026-04-18T09:03:17.362Z</time></trkpt><trkpt lat="33.3949834" lon="8.5364804"><ele>19.0</ele><time>2026-04-18T09:03:18.375Z</time></trkpt><trkpt lat="33.395159" lon="8.5363157"><ele>19.0</ele><time>2026-04-18T09:03:19.367Z</time></trkpt><trkpt lat="33.3953329" lon="8.5361513"><ele>18.5</ele><time>2026-04-18T09:03:20.363Z</time></trkpt><trkpt lat="33.3955093" lon="8.5359824"><ele>18.0</ele><time>2026-04-18T09:03:21.369Z</time></trkpt><trkpt lat="33.3956846" lon="8.5358136"><ele>18.0</ele><time>2026-04-18T09:03:22.361Z</time></trkpt><trkpt lat="33.3958558" lon="8.5356503"><ele>18.0</ele><time>2026-04-18T09:03:23.372Z</time></trkpt><trkpt lat="33.396025" lon="8.535487"><ele>18.0</ele><time>2026-04-18T09:03:24.365Z</time></trkpt><trkpt lat="33.396195" lon="8.5353238"><ele>18.666666666666668</ele><time>2026-04-18T09:03:25.371Z</time></trkpt><trkpt lat="33.3963633" lon="8.5351617"><ele>19.333333333333336</ele><time>2026-04-18T09:03:26.372Z</time></trkpt><trkpt lat="33.3965285" lon="8.5350032"><ele>20.0</ele><time>2026-04-18T09:03:27.372Z</time></trkpt><trkpt lat="33.3966921" lon="8.5348453"><ele>20.0</ele><time>2026-04-18T09:03:28.374Z</time></trkpt><trkpt lat="33.3968533" lon="8.5346911"><ele>20.0</ele><time>2026-04-18T09:03:29.373Z</time></trkpt><trkpt lat="33.3970103" lon="8.5345413"><ele>20.0</ele><time>2026-04-18T09:03:30.378Z</time></trkpt><trkpt lat="33.397163" lon="8.5343981"><ele>19.666666666666668</ele><time>2026-04-18T09:03:31.375Z</time></trkpt><trkpt lat="33.3973119" lon="8.5342628"><ele>19.333333333333332</ele><time>2026-04-18T09:03:32.364Z</time></trkpt><trkpt lat="33.3974563" lon="8.5341311"><ele>19.0</ele><time>2026-04-18T09:03:33.37Z</time></trkpt><trkpt lat="33.3975989" lon="8.5339983"><ele>19.0</ele><time>2026-04-18T09:03:34.372Z</time></trkpt><trkpt lat="33.3977426" lon="8.5338636"><ele>19.0</ele><time>2026-04-18T09:03:35.366Z</time></trkpt><trkpt lat="33.3978878" lon="8.5337267"><ele>19.0</ele><time>2026-04-18T09:03:36.362Z</time></trkpt><trkpt lat="33.3980293" lon="8.5335927"><ele>18.666666666666664</ele><time>2026-04-18T09:03:37.374Z</time></trkpt><trkpt lat="33.3981673" lon="8.5334624"><ele>18.333333333333332</ele><time>2026-04-18T09:03:38.366Z</time></trkpt><trkpt lat="33.3983082" lon="8.533329"><ele>18.0</ele><time>2026-04-18T09:03:39.375Z</time></trkpt><trkpt lat="33.3984505" lon="8.5331907"><ele>18.0</ele><time>2026-04-18T09:03:40.377Z</time></trkpt><trkpt lat="33.3985925" lon="8.5330507"><ele>18.0</ele><time>2026-04-18T09:03:41.373Z</time></trkpt><trkpt lat="33.3987343" lon="8.5329094"><ele>18.0</ele><time>2026-04-18T09:03:42.378Z</time></trkpt><trkpt lat="33.3988748" lon="8.5327708"><ele>18.666666666666668</ele><time>2026-04-18T09:03:43.383Z</time></trkpt><trkpt lat="33.399016" lon="8.5326364"><ele>19.333333333333336</ele><time>2026-04-18T09:03:44.366Z</time></trkpt><trkpt lat="33.3991593" lon="8.5325025"><ele>20.0</ele><time>2026-04-18T09:03:45.367Z</time></trkpt><trkpt lat="33.3993036" lon="8.5323675"><ele>20.0</ele><time>2026-04-18T09:03:46.372Z</time></trkpt><trkpt lat="33.3994508" lon="8.532228"><ele>20.0</ele><time>2026-04-18T09:03:47.367Z</time></trkpt><trkpt lat="33.3996006" lon="8.5320877"><ele>20.0</ele><time>2026-04-18T09:03:48.372Z</time></trkpt><trkpt lat="33.3997482" lon="8.5319473"><ele>19.666666666666668</ele><time>2026-04-18T09:03:49.37Z</time></trkpt><trkpt lat="33.3998937" lon="8.5318095"><ele>19.333333333333332</ele><time>2026-04-18T09:03:50.371Z</time></trkpt><trkpt lat="33.4000391" lon="8.5316721"><ele>19.0</ele><time>2026-04-18T09:03:51.37Z</time></trkpt><trkpt lat="33.4001832" lon="8.5315357"><ele>19.0</ele><time>2026-04-18T09:03:52.372Z</time></trkpt><trkpt lat="33.4003298" lon="8.5313974"><ele>19.0</ele><time>2026-04-18T09:03:53.372Z</time></trkpt><trkpt lat="33.4004757" lon="8.5312598"><ele>19.0</ele><time>2026-04-18T09:03:54.371Z</time></trkpt><trkpt lat="33.4006241" lon="8.5311174"><ele>19.0</ele><time>2026-04-18T09:03:55.371Z</time></trkpt><trkpt lat="33.4007753" lon="8.5309713"><ele>19.0</ele><time>2026-04-18T09:03:56.37Z</time></trkpt><trkpt lat="33.4009265" lon="8.530827"><ele>19.0</ele><time>2026-04-18T09:03:57.367Z</time></trkpt><trkpt lat="33.4010789" lon="8.5306827"><ele>19.0</ele><time>2026-04-18T09:03:58.359Z</time></trkpt><trkpt lat="33.4012347" lon="8.5305358"><ele>19.0</ele><time>2026-04-18T09:03:59.366Z</time></trkpt><trkpt lat="33.4013928" lon="8.5303886"><ele>19.0</ele><time>2026-04-18T09:04:00.37Z</time></trkpt><trkpt lat="33.4015534" lon="8.5302385"><ele>19.0</ele><time>2026-04-18T09:04:01.37Z</time></trkpt><trkpt lat="33.4017163" lon="8.5300835"><ele>19.0</ele><time>2026-04-18T09:04:02.374Z</time></trkpt><trkpt lat="33.4018856" lon="8.5299216"><ele>19.0</ele><time>2026-04-18T09:04:03.369Z</time></trkpt><trkpt lat="33.4020621" lon="8.5297544"><ele>19.0</ele><time>2026-04-18T09:04:04.371Z</time></trkpt><trkpt lat="33.4022456" lon="8.5295803"><ele>19.0</ele><time>2026-04-18T09:04:05.366Z</time></trkpt><trkpt lat="33.4024215" lon="8.5294157"><ele>19.0</ele><time>2026-04-18T09:04:06.362Z</time></trkpt><trkpt lat="33.4025891" lon="8.529261"><ele>19.0</ele><time>2026-04-18T09:04:07.363Z</time></trkpt><trkpt lat="33.4027495" lon="8.5291106"><ele>19.0</ele><time>2026-04-18T09:04:08.371Z</time></trkpt><trkpt lat="33.4029051" lon="8.5289619"><ele>19.0</ele><time>2026-04-18T09:04:09.369Z</time></trkpt><trkpt lat="33.4030574" lon="8.5288155"><ele>19.0</ele><time>2026-04-18T09:04:10.374Z</time></trkpt><trkpt lat="33.4032119" lon="8.5286669"><ele>19.0</ele><time>2026-04-18T09:04:11.367Z</time></trkpt><trkpt lat="33.4033701" lon="8.5285149"><ele>19.0</ele><time>2026-04-18T09:04:12.362Z</time></trkpt><trkpt lat="33.4035299" lon="8.5283631"><ele>19.0</ele><time>2026-04-18T09:04:13.362Z</time></trkpt><trkpt lat="33.4036946" lon="8.5282043"><ele>19.0</ele><time>2026-04-18T09:04:14.37Z</time></trkpt><trkpt lat="33.4038684" lon="8.5280374"><ele>19.0</ele><time>2026-04-18T09:04:15.369Z</time></trkpt><trkpt lat="33.4040484" lon="8.5278689"><ele>19.0</ele><time>2026-04-18T09:04:16.372Z</time></trkpt><trkpt lat="33.404224" lon="8.5277061"><ele>19.0</ele><time>2026-04-18T09:04:17.367Z</time></trkpt><trkpt lat="33.4043938" lon="8.5275461"><ele>19.0</ele><time>2026-04-18T09:04:18.374Z</time></trkpt><trkpt lat="33.4045598" lon="8.5273879"><ele>19.0</ele><time>2026-04-18T09:04:19.372Z</time></trkpt><trkpt lat="33.4047205" lon="8.5272324"><ele>19.0</ele><time>2026-04-18T09:04:20.365Z</time></trkpt><trkpt lat="33.4048788" lon="8.5270794"><ele>19.0</ele><time>2026-04-18T09:04:21.37Z</time></trkpt><trkpt lat="33.4050372" lon="8.5269266"><ele>19.0</ele><time>2026-04-18T09:04:22.369Z</time></trkpt><trkpt lat="33.4051949" lon="8.5267758"><ele>19.0</ele><time>2026-04-18T09:04:23.363Z</time></trkpt><trkpt lat="33.4053524" lon="8.5266254"><ele>19.0</ele><time>2026-04-18T09:04:24.363Z</time></trkpt><trkpt lat="33.4055134" lon="8.5264737"><ele>19.0</ele><time>2026-04-18T09:04:25.373Z</time></trkpt><trkpt lat="33.4056729" lon="8.526323"><ele>19.0</ele><time>2026-04-18T09:04:26.363Z</time></trkpt><trkpt lat="33.4058318" lon="8.5261756"><ele>19.0</ele><time>2026-04-18T09:04:27.361Z</time></trkpt><trkpt lat="33.4059854" lon="8.5260327"><ele>19.0</ele><time>2026-04-18T09:04:28.369Z</time></trkpt><trkpt lat="33.4061267" lon="8.5259001"><ele>19.0</ele><time>2026-04-18T09:04:29.373Z</time></trkpt><trkpt lat="33.4062565" lon="8.5257778"><ele>19.0</ele><time>2026-04-18T09:04:30.371Z</time></trkpt><trkpt lat="33.406373" lon="8.5256684"><ele>19.0</ele><time>2026-04-18T09:04:31.377Z</time></trkpt><trkpt lat="33.4064736" lon="8.5255698"><ele>19.0</ele><time>2026-04-18T09:04:32.374Z</time></trkpt><trkpt lat="33.4065561" lon="8.5254861"><ele>19.0</ele><time>2026-04-18T09:04:33.372Z</time></trkpt><trkpt lat="33.4066229" lon="8.5254177"><ele>19.0</ele><time>2026-04-18T09:04:34.374Z</time></trkpt><trkpt lat="33.4066857" lon="8.5253561"><ele>19.0</ele><time>2026-04-18T09:04:35.371Z</time></trkpt><trkpt lat="33.4067446" lon="8.525302"><ele>19.0</ele><time>2026-04-18T09:04:36.374Z</time></trkpt><trkpt lat="33.4067983" lon="8.5252509"><ele>19.0</ele><time>2026-04-18T09:04:37.366Z</time></trkpt><trkpt lat="33.4068482" lon="8.5252021"><ele>19.0</ele><time>2026-04-18T09:04:38.368Z</time></trkpt><trkpt lat="33.4069391" lon="8.5251059"><ele>19.0</ele><time>2026-04-18T09:04:40.377Z</time></trkpt><trkpt lat="33.4070085" lon="8.5250036"><ele>19.0</ele><time>2026-04-18T09:04:42.369Z</time></trkpt><trkpt lat="33.407036" lon="8.5248803"><ele>19.0</ele><time>2026-04-18T09:04:44.378Z</time></trkpt><trkpt lat="33.4070191" lon="8.524759"><ele>19.0</ele><time>2026-04-18T09:04:46.377Z</time></trkpt><trkpt lat="33.4069782" lon="8.5246591"><ele>19.0</ele><time>2026-04-18T09:04:48.371Z</time></trkpt><trkpt lat="33.4069296" lon="8.5245743"><ele>19.4</ele><time>2026-04-18T09:04:50.375Z</time></trkpt><trkpt lat="33.4068793" lon="8.5244941"><ele>19.799999999999997</ele><time>2026-04-18T09:04:52.366Z</time></trkpt><trkpt lat="33.4068223" lon="8.5244078"><ele>20.200000000000003</ele><time>2026-04-18T09:04:54.368Z</time></trkpt><trkpt lat="33.4067535" lon="8.5243152"><ele>20.6</ele><time>2026-04-18T09:04:56.367Z</time></trkpt><trkpt lat="33.4066822" lon="8.5242154"><ele>21.0</ele><time>2026-04-18T09:04:58.359Z</time></trkpt><trkpt lat="33.4066035" lon="8.5241161"><ele>21.0</ele><time>2026-04-18T09:05:00.373Z</time></trkpt><trkpt lat="33.406519" lon="8.5240126"><ele>21.0</ele><time>2026-04-18T09:05:02.363Z</time></trkpt><trkpt lat="33.4064702" lon="8.5239569"><ele>21.0</ele><time>2026-04-18T09:05:03.365Z</time></trkpt><trkpt lat="33.4064186" lon="8.523898"><ele>21.0</ele><time>2026-04-18T09:05:04.37Z</time></trkpt><trkpt lat="33.4063647" lon="8.5238376"><ele>21.0</ele><time>2026-04-18T09:05:05.37Z</time></trkpt><trkpt lat="33.4063043" lon="8.5237737"><ele>21.0</ele><time>2026-04-18T09:05:06.365Z</time></trkpt><trkpt lat="33.4062338" lon="8.5237022"><ele>21.0</ele><time>2026-04-18T09:05:07.371Z</time></trkpt><trkpt lat="33.4061471" lon="8.5236074"><ele>21.0</ele><time>2026-04-18T09:05:08.366Z</time></trkpt><trkpt lat="33.4060452" lon="8.5234863"><ele>21.0</ele><time>2026-04-18T09:05:09.368Z</time></trkpt><trkpt lat="33.4059405" lon="8.52335"><ele>21.0</ele><time>2026-04-18T09:05:10.372Z</time></trkpt><trkpt lat="33.4058369" lon="8.5231967"><ele>21.0</ele><time>2026-04-18T09:05:11.371Z</time></trkpt><trkpt lat="33.4057346" lon="8.5230223"><ele>21.0</ele><time>2026-04-18T09:05:12.372Z</time></trkpt><trkpt lat="33.4056362" lon="8.5228284"><ele>21.0</ele><time>2026-04-18T09:05:13.369Z</time></trkpt><trkpt lat="33.4055457" lon="8.5226186"><ele>21.333333333333332</ele><time>2026-04-18T09:05:14.372Z</time></trkpt><trkpt lat="33.4054653" lon="8.5223927"><ele>21.666666666666664</ele><time>2026-04-18T09:05:15.368Z</time></trkpt><trkpt lat="33.4053998" lon="8.5221593"><ele>22.0</ele><time>2026-04-18T09:05:16.372Z</time></trkpt><trkpt lat="33.4053497" lon="8.5219144"><ele>22.0</ele><time>2026-04-18T09:05:17.368Z</time></trkpt><trkpt lat="33.4053125" lon="8.5216493"><ele>22.0</ele><time>2026-04-18T09:05:18.369Z</time></trkpt><trkpt lat="33.4052861" lon="8.5213599"><ele>23.0</ele><time>2026-04-18T09:05:19.374Z</time></trkpt><trkpt lat="33.4052662" lon="8.5210791"><ele>24.0</ele><time>2026-04-18T09:05:20.373Z</time></trkpt><trkpt lat="33.4052483" lon="8.5208164"><ele>24.0</ele><time>2026-04-18T09:05:21.365Z</time></trkpt><trkpt lat="33.4052348" lon="8.5205805"><ele>24.0</ele><time>2026-04-18T09:05:22.367Z</time></trkpt><trkpt lat="33.4052261" lon="8.520373"><ele>24.0</ele><time>2026-04-18T09:05:23.368Z</time></trkpt><trkpt lat="33.4052201" lon="8.5201857"><ele>25.0</ele><time>2026-04-18T09:05:24.362Z</time></trkpt><trkpt lat="33.4052114" lon="8.5200028"><ele>26.0</ele><time>2026-04-18T09:05:25.367Z</time></trkpt><trkpt lat="33.4051976" lon="8.5198133"><ele>27.0</ele><time>2026-04-18T09:05:26.37Z</time></trkpt><trkpt lat="33.4051836" lon="8.5196349"><ele>25.75</ele><time>2026-04-18T09:05:27.363Z</time></trkpt><trkpt lat="33.4051734" lon="8.5194715"><ele>24.5</ele><time>2026-04-18T09:05:28.362Z</time></trkpt><trkpt lat="33.4051679" lon="8.5193157"><ele>23.25</ele><time>2026-04-18T09:05:29.359Z</time></trkpt><trkpt lat="33.4051602" lon="8.5191634"><ele>22.0</ele><time>2026-04-18T09:05:30.372Z</time></trkpt><trkpt lat="33.4051459" lon="8.519018"><ele>22.0</ele><time>2026-04-18T09:05:31.366Z</time></trkpt><trkpt lat="33.4051215" lon="8.5188733"><ele>22.0</ele><time>2026-04-18T09:05:32.362Z</time></trkpt><trkpt lat="33.4050921" lon="8.5187335"><ele>22.0</ele><time>2026-04-18T09:05:33.369Z</time></trkpt><trkpt lat="33.4050516" lon="8.5185889"><ele>22.0</ele><time>2026-04-18T09:05:34.375Z</time></trkpt><trkpt lat="33.4050036" lon="8.5184339"><ele>22.5</ele><time>2026-04-18T09:05:35.367Z</time></trkpt><trkpt lat="33.4049578" lon="8.5182869"><ele>23.0</ele><time>2026-04-18T09:05:36.376Z</time></trkpt><trkpt lat="33.4049128" lon="8.518152"><ele>23.5</ele><time>2026-04-18T09:05:37.373Z</time></trkpt><trkpt lat="33.4048728" lon="8.5180302"><ele>24.0</ele><time>2026-04-18T09:05:38.369Z</time></trkpt><trkpt lat="33.4048322" lon="8.5179139"><ele>24.25</ele><time>2026-04-18T09:05:39.374Z</time></trkpt><trkpt lat="33.4047972" lon="8.5177945"><ele>24.5</ele><time>2026-04-18T09:05:40.366Z</time></trkpt><trkpt lat="33.4047755" lon="8.5176632"><ele>24.75</ele><time>2026-04-18T09:05:41.361Z</time></trkpt><trkpt lat="33.4047678" lon="8.5175156"><ele>25.0</ele><time>2026-04-18T09:05:42.363Z</time></trkpt><trkpt lat="33.4047743" lon="8.5173516"><ele>25.0</ele><time>2026-04-18T09:05:43.361Z</time></trkpt><trkpt lat="33.4047926" lon="8.5171762"><ele>25.0</ele><time>2026-04-18T09:05:44.371Z</time></trkpt><trkpt lat="33.4048164" lon="8.5170061"><ele>25.0</ele><time>2026-04-18T09:05:45.373Z</time></trkpt><trkpt lat="33.4048427" lon="8.5168352"><ele>25.0</ele><time>2026-04-18T09:05:46.357Z</time></trkpt><trkpt lat="33.4048671" lon="8.5166639"><ele>24.0</ele><time>2026-04-18T09:05:47.364Z</time></trkpt><trkpt lat="33.4048913" lon="8.5164902"><ele>23.0</ele><time>2026-04-18T09:05:48.365Z</time></trkpt><trkpt lat="33.4049112" lon="8.5163007"><ele>22.0</ele><time>2026-04-18T09:05:49.366Z</time></trkpt><trkpt lat="33.404919" lon="8.5161062"><ele>21.666666666666664</ele><time>2026-04-18T09:05:50.37Z</time></trkpt><trkpt lat="33.4049144" lon="8.5159117"><ele>21.333333333333332</ele><time>2026-04-18T09:05:51.365Z</time></trkpt><trkpt lat="33.4048991" lon="8.5157278"><ele>21.0</ele><time>2026-04-18T09:05:52.37Z</time></trkpt><trkpt lat="33.4048744" lon="8.5155437"><ele>20.666666666666668</ele><time>2026-04-18T09:05:53.366Z</time></trkpt><trkpt lat="33.4048397" lon="8.5153566"><ele>20.333333333333336</ele><time>2026-04-18T09:05:54.366Z</time></trkpt><trkpt lat="33.4047918" lon="8.515164"><ele>20.0</ele><time>2026-04-18T09:05:55.365Z</time></trkpt><trkpt lat="33.4047317" lon="8.5149648"><ele>20.0</ele><time>2026-04-18T09:05:56.366Z</time></trkpt><trkpt lat="33.4046632" lon="8.5147618"><ele>20.0</ele><time>2026-04-18T09:05:57.362Z</time></trkpt><trkpt lat="33.4045897" lon="8.5145811"><ele>20.0</ele><time>2026-04-18T09:05:58.361Z</time></trkpt><trkpt lat="33.4045004" lon="8.5143917"><ele>21.0</ele><time>2026-04-18T09:05:59.361Z</time></trkpt><trkpt lat="33.4044087" lon="8.5142032"><ele>22.0</ele><time>2026-04-18T09:06:00.361Z</time></trkpt><trkpt lat="33.4043218" lon="8.5140163"><ele>23.0</ele><time>2026-04-18T09:06:01.376Z</time></trkpt><trkpt lat="33.4042444" lon="8.5138374"><ele>22.666666666666668</ele><time>2026-04-18T09:06:02.367Z</time></trkpt><trkpt lat="33.4041765" lon="8.5136622"><ele>22.333333333333332</ele><time>2026-04-18T09:06:03.362Z</time></trkpt><trkpt lat="33.4041182" lon="8.5134863"><ele>22.0</ele><time>2026-04-18T09:06:04.363Z</time></trkpt><trkpt lat="33.4040742" lon="8.5133076"><ele>22.0</ele><time>2026-04-18T09:06:05.364Z</time></trkpt><trkpt lat="33.4040448" lon="8.5131176"><ele>22.0</ele><time>2026-04-18T09:06:06.371Z</time></trkpt><trkpt lat="33.4040262" lon="8.5129169"><ele>22.0</ele><time>2026-04-18T09:06:07.361Z</time></trkpt><trkpt lat="33.4040143" lon="8.5127138"><ele>21.333333333333332</ele><time>2026-04-18T09:06:08.366Z</time></trkpt><trkpt lat="33.4039986" lon="8.5125092"><ele>20.666666666666668</ele><time>2026-04-18T09:06:09.363Z</time></trkpt><trkpt lat="33.4039755" lon="8.5123138"><ele>20.0</ele><time>2026-04-18T09:06:10.365Z</time></trkpt><trkpt lat="33.40394" lon="8.5121247"><ele>20.666666666666668</ele><time>2026-04-18T09:06:11.371Z</time></trkpt><trkpt lat="33.4038922" lon="8.5119327"><ele>21.333333333333332</ele><time>2026-04-18T09:06:12.366Z</time></trkpt><trkpt lat="33.4038318" lon="8.5117401"><ele>22.0</ele><time>2026-04-18T09:06:13.378Z</time></trkpt><trkpt lat="33.403767" lon="8.5115581"><ele>22.333333333333332</ele><time>2026-04-18T09:06:14.365Z</time></trkpt><trkpt lat="33.4036972" lon="8.5113803"><ele>22.666666666666668</ele><time>2026-04-18T09:06:15.373Z</time></trkpt><trkpt lat="33.4036148" lon="8.5112038"><ele>23.0</ele><time>2026-04-18T09:06:16.369Z</time></trkpt><trkpt lat="33.4035206" lon="8.5110268"><ele>22.333333333333336</ele><time>2026-04-18T09:06:17.361Z</time></trkpt><trkpt lat="33.4034339" lon="8.5108559"><ele>21.666666666666668</ele><time>2026-04-18T09:06:18.372Z</time></trkpt><trkpt lat="33.4033596" lon="8.5106854"><ele>21.0</ele><time>2026-04-18T09:06:19.373Z</time></trkpt><trkpt lat="33.4032988" lon="8.510517"><ele>21.666666666666668</ele><time>2026-04-18T09:06:20.37Z</time></trkpt><trkpt lat="33.4032472" lon="8.510346"><ele>22.333333333333336</ele><time>2026-04-18T09:06:21.371Z</time></trkpt><trkpt lat="33.4032064" lon="8.5101727"><ele>23.0</ele><time>2026-04-18T09:06:22.369Z</time></trkpt><trkpt lat="33.4031689" lon="8.509999"><ele>23.0</ele><time>2026-04-18T09:06:23.369Z</time></trkpt><trkpt lat="33.4031458" lon="8.509806"><ele>23.0</ele><time>2026-04-18T09:06:24.367Z</time></trkpt><trkpt lat="33.4031285" lon="8.5096092"><ele>23.0</ele><time>2026-04-18T09:06:25.368Z</time></trkpt><trkpt lat="33.4031189" lon="8.5094231"><ele>23.0</ele><time>2026-04-18T09:06:26.363Z</time></trkpt><trkpt lat="33.4031099" lon="8.5092571"><ele>23.0</ele><time>2026-04-18T09:06:27.375Z</time></trkpt><trkpt lat="33.4031064" lon="8.5090843"><ele>23.0</ele><time>2026-04-18T09:06:28.371Z</time></trkpt><trkpt lat="33.4031131" lon="8.508913"><ele>23.0</ele><time>2026-04-18T09:06:29.363Z</time></trkpt><trkpt lat="33.403133" lon="8.5087353"><ele>23.5</ele><time>2026-04-18T09:06:30.364Z</time></trkpt><trkpt lat="33.403159" lon="8.5085584"><ele>24.0</ele><time>2026-04-18T09:06:31.366Z</time></trkpt><trkpt lat="33.4031854" lon="8.5083929"><ele>24.5</ele><time>2026-04-18T09:06:32.37Z</time></trkpt><trkpt lat="33.403203" lon="8.5082424"><ele>25.0</ele><time>2026-04-18T09:06:33.363Z</time></trkpt><trkpt lat="33.4032136" lon="8.5080944"><ele>25.0</ele><time>2026-04-18T09:06:34.371Z</time></trkpt><trkpt lat="33.4032088" lon="8.5079389"><ele>25.0</ele><time>2026-04-18T09:06:35.364Z</time></trkpt><trkpt lat="33.403192" lon="8.5077937"><ele>25.0</ele><time>2026-04-18T09:06:36.371Z</time></trkpt><trkpt lat="33.4031756" lon="8.5076619"><ele>25.0</ele><time>2026-04-18T09:06:37.367Z</time></trkpt><trkpt lat="33.4031683" lon="8.5075342"><ele>25.0</ele><time>2026-04-18T09:06:38.363Z</time></trkpt><trkpt lat="33.4031757" lon="8.5074029"><ele>25.0</ele><time>2026-04-18T09:06:39.368Z</time></trkpt><trkpt lat="33.4031963" lon="8.5072599"><ele>25.0</ele><time>2026-04-18T09:06:40.371Z</time></trkpt><trkpt lat="33.4032258" lon="8.5071199"><ele>25.0</ele><time>2026-04-18T09:06:41.367Z</time></trkpt><trkpt lat="33.4032536" lon="8.5069764"><ele>24.75</ele><time>2026-04-18T09:06:42.378Z</time></trkpt><trkpt lat="33.4032687" lon="8.5068339"><ele>24.5</ele><time>2026-04-18T09:06:43.364Z</time></trkpt><trkpt lat="33.4032826" lon="8.5066828"><ele>24.25</ele><time>2026-04-18T09:06:44.363Z</time></trkpt><trkpt lat="33.403272" lon="8.5065264"><ele>24.0</ele><time>2026-04-18T09:06:45.371Z</time></trkpt><trkpt lat="33.4032581" lon="8.5063701"><ele>23.75</ele><time>2026-04-18T09:06:46.361Z</time></trkpt><trkpt lat="33.4032441" lon="8.5062243"><ele>23.5</ele><time>2026-04-18T09:06:47.366Z</time></trkpt><trkpt lat="33.4032299" lon="8.5060813"><ele>23.25</ele><time>2026-04-18T09:06:48.369Z</time></trkpt><trkpt lat="33.4032063" lon="8.5059428"><ele>23.0</ele><time>2026-04-18T09:06:49.363Z</time></trkpt><trkpt lat="33.4031754" lon="8.5058135"><ele>23.0</ele><time>2026-04-18T09:06:50.362Z</time></trkpt><trkpt lat="33.4031453" lon="8.5056973"><ele>23.0</ele><time>2026-04-18T09:06:51.376Z</time></trkpt><trkpt lat="33.4031262" lon="8.5055724"><ele>23.0</ele><time>2026-04-18T09:06:52.375Z</time></trkpt><trkpt lat="33.4031059" lon="8.5054501"><ele>23.0</ele><time>2026-04-18T09:06:53.376Z</time></trkpt><trkpt lat="33.4030872" lon="8.5053328"><ele>23.0</ele><time>2026-04-18T09:06:54.368Z</time></trkpt><trkpt lat="33.4030867" lon="8.5052272"><ele>23.5</ele><time>2026-04-18T09:06:55.365Z</time></trkpt><trkpt lat="33.4030986" lon="8.5051369"><ele>24.0</ele><time>2026-04-18T09:06:56.367Z</time></trkpt><trkpt lat="33.4031204" lon="8.5050544"><ele>24.5</ele><time>2026-04-18T09:06:57.365Z</time></trkpt><trkpt lat="33.4031535" lon="8.5049575"><ele>25.0</ele><time>2026-04-18T09:06:58.361Z</time></trkpt><trkpt lat="33.4031955" lon="8.5048507"><ele>25.499999999999996</ele><time>2026-04-18T09:06:59.365Z</time></trkpt><trkpt lat="33.4032297" lon="8.5047326"><ele>26.0</ele><time>2026-04-18T09:07:00.369Z</time></trkpt><trkpt lat="33.4032551" lon="8.5046"><ele>25.8</ele><time>2026-04-18T09:07:01.367Z</time></trkpt><trkpt lat="33.4032777" lon="8.5044654"><ele>25.6</ele><time>2026-04-18T09:07:02.371Z</time></trkpt><trkpt lat="33.4032823" lon="8.5043351"><ele>25.4</ele><time>2026-04-18T09:07:03.37Z</time></trkpt><trkpt lat="33.4032698" lon="8.5042149"><ele>25.2</ele><time>2026-04-18T09:07:04.369Z</time></trkpt><trkpt lat="33.4032482" lon="8.5040817"><ele>25.0</ele><time>2026-04-18T09:07:05.362Z</time></trkpt><trkpt lat="33.4032103" lon="8.503947"><ele>25.0</ele><time>2026-04-18T09:07:06.363Z</time></trkpt><trkpt lat="33.4031665" lon="8.5038146"><ele>25.0</ele><time>2026-04-18T09:07:07.365Z</time></trkpt><trkpt lat="33.4031284" lon="8.503696"><ele>25.0</ele><time>2026-04-18T09:07:08.365Z</time></trkpt><trkpt lat="33.4030962" lon="8.5035876"><ele>25.0</ele><time>2026-04-18T09:07:09.366Z</time></trkpt><trkpt lat="33.4030762" lon="8.5034817"><ele>25.0</ele><time>2026-04-18T09:07:10.366Z</time></trkpt><trkpt lat="33.4030692" lon="8.5033672"><ele>24.2</ele><time>2026-04-18T09:07:11.367Z</time></trkpt><trkpt lat="33.4030731" lon="8.5032494"><ele>23.4</ele><time>2026-04-18T09:07:12.368Z</time></trkpt><trkpt lat="33.4030846" lon="8.5031239"><ele>22.6</ele><time>2026-04-18T09:07:13.366Z</time></trkpt><trkpt lat="33.4030959" lon="8.5030043"><ele>21.8</ele><time>2026-04-18T09:07:14.368Z</time></trkpt><trkpt lat="33.4030988" lon="8.5028839"><ele>21.0</ele><time>2026-04-18T09:07:15.365Z</time></trkpt><trkpt lat="33.4030874" lon="8.5027534"><ele>21.0</ele><time>2026-04-18T09:07:16.365Z</time></trkpt><trkpt lat="33.4030606" lon="8.5026147"><ele>21.0</ele><time>2026-04-18T09:07:17.364Z</time></trkpt><trkpt lat="33.4030282" lon="8.5024562"><ele>21.0</ele><time>2026-04-18T09:07:18.368Z</time></trkpt><trkpt lat="33.4029902" lon="8.5022833"><ele>21.0</ele><time>2026-04-18T09:07:19.369Z</time></trkpt><trkpt lat="33.4029466" lon="8.5020943"><ele>21.0</ele><time>2026-04-18T09:07:20.364Z</time></trkpt><trkpt lat="33.402906" lon="8.501907"><ele>21.0</ele><time>2026-04-18T09:07:21.366Z</time></trkpt><trkpt lat="33.4028689" lon="8.5017143"><ele>21.0</ele><time>2026-04-18T09:07:22.365Z</time></trkpt><trkpt lat="33.402835" lon="8.5015101"><ele>21.0</ele><time>2026-04-18T09:07:23.363Z</time></trkpt><trkpt lat="33.4028017" lon="8.5013084"><ele>21.0</ele><time>2026-04-18T09:07:24.367Z</time></trkpt><trkpt lat="33.4027725" lon="8.5011212"><ele>21.0</ele><time>2026-04-18T09:07:25.373Z</time></trkpt><trkpt lat="33.4027464" lon="8.5009501"><ele>20.8</ele><time>2026-04-18T09:07:26.362Z</time></trkpt><trkpt lat="33.4027216" lon="8.5007964"><ele>20.6</ele><time>2026-04-18T09:07:27.364Z</time></trkpt><trkpt lat="33.402702" lon="8.5006613"><ele>20.4</ele><time>2026-04-18T09:07:28.366Z</time></trkpt><trkpt lat="33.402687" lon="8.5005469"><ele>20.2</ele><time>2026-04-18T09:07:29.369Z</time></trkpt><trkpt lat="33.4026752" lon="8.5004514"><ele>20.0</ele><time>2026-04-18T09:07:30.361Z</time></trkpt><trkpt lat="33.4026681" lon="8.5003727"><ele>20.4</ele><time>2026-04-18T09:07:31.362Z</time></trkpt><trkpt lat="33.4026565" lon="8.5002317"><ele>20.8</ele><time>2026-04-18T09:07:33.365Z</time></trkpt><trkpt lat="33.4026474" lon="8.5001026"><ele>21.200000000000003</ele><time>2026-04-18T09:07:35.37Z</time></trkpt><trkpt lat="33.4026364" lon="8.4999871"><ele>21.6</ele><time>2026-04-18T09:07:37.367Z</time></trkpt><trkpt lat="33.402634" lon="8.4998867"><ele>22.0</ele><time>2026-04-18T09:07:39.371Z</time></trkpt><trkpt lat="33.4026392" lon="8.4998084"><ele>22.0</ele><time>2026-04-18T09:07:41.362Z</time></trkpt><trkpt lat="33.4026378" lon="8.4997041"><ele>22.0</ele><time>2026-04-18T09:07:49.37Z</time></trkpt><trkpt lat="33.4026354" lon="8.4996097"><ele>22.0</ele><time>2026-04-18T09:07:50.366Z</time></trkpt><trkpt lat="33.4026355" lon="8.4994648"><ele>22.0</ele><time>2026-04-18T09:07:51.356Z</time></trkpt><trkpt lat="33.4026356" lon="8.4992937"><ele>22.0</ele><time>2026-04-18T09:07:52.37Z</time></trkpt><trkpt lat="33.4026368" lon="8.4990747"><ele>21.666666666666664</ele><time>2026-04-18T09:07:53.366Z</time></trkpt><trkpt lat="33.4026398" lon="8.4988362"><ele>21.333333333333332</ele><time>2026-04-18T09:07:54.364Z</time></trkpt><trkpt lat="33.4026441" lon="8.4985891"><ele>21.0</ele><time>2026-04-18T09:07:55.363Z</time></trkpt><trkpt lat="33.4026494" lon="8.4983336"><ele>20.333333333333332</ele><time>2026-04-18T09:07:56.358Z</time></trkpt><trkpt lat="33.4026555" lon="8.4980821"><ele>19.666666666666664</ele><time>2026-04-18T09:07:57.361Z</time></trkpt><trkpt lat="33.4026632" lon="8.4978377"><ele>19.0</ele><time>2026-04-18T09:07:58.364Z</time></trkpt><trkpt lat="33.4026718" lon="8.4975947"><ele>19.0</ele><time>2026-04-18T09:07:59.363Z</time></trkpt><trkpt lat="33.4026792" lon="8.4973557"><ele>19.0</ele><time>2026-04-18T09:08:00.366Z</time></trkpt><trkpt lat="33.4026844" lon="8.4971196"><ele>19.0</ele><time>2026-04-18T09:08:01.361Z</time></trkpt><trkpt lat="33.4026873" lon="8.4968897"><ele>19.666666666666664</ele><time>2026-04-18T09:08:02.361Z</time></trkpt><trkpt lat="33.4026886" lon="8.4966622"><ele>20.333333333333332</ele><time>2026-04-18T09:08:03.361Z</time></trkpt><trkpt lat="33.4026887" lon="8.496438"><ele>21.0</ele><time>2026-04-18T09:08:04.368Z</time></trkpt><trkpt lat="33.402688" lon="8.4962148"><ele>21.0</ele><time>2026-04-18T09:08:05.362Z</time></trkpt><trkpt lat="33.4026875" lon="8.4959913"><ele>21.0</ele><time>2026-04-18T09:08:06.367Z</time></trkpt><trkpt lat="33.4026845" lon="8.4957686"><ele>21.0</ele><time>2026-04-18T09:08:07.368Z</time></trkpt><trkpt lat="33.4026796" lon="8.495547"><ele>21.0</ele><time>2026-04-18T09:08:08.377Z</time></trkpt><trkpt lat="33.4026715" lon="8.4953269"><ele>21.0</ele><time>2026-04-18T09:08:09.364Z</time></trkpt><trkpt lat="33.4026585" lon="8.4951071"><ele>21.0</ele><time>2026-04-18T09:08:10.367Z</time></trkpt><trkpt lat="33.4026391" lon="8.4948879"><ele>21.0</ele><time>2026-04-18T09:08:11.369Z</time></trkpt><trkpt lat="33.4026133" lon="8.4946664"><ele>21.0</ele><time>2026-04-18T09:08:12.37Z</time></trkpt><trkpt lat="33.4025846" lon="8.4944463"><ele>21.0</ele><time>2026-04-18T09:08:13.371Z</time></trkpt><trkpt lat="33.402559" lon="8.4942263"><ele>21.333333333333332</ele><time>2026-04-18T09:08:14.369Z</time></trkpt><trkpt lat="33.4025396" lon="8.4940015"><ele>21.666666666666664</ele><time>2026-04-18T09:08:15.365Z</time></trkpt><trkpt lat="33.4025232" lon="8.4937701"><ele>22.0</ele><time>2026-04-18T09:08:16.367Z</time></trkpt><trkpt lat="33.4025084" lon="8.493535"><ele>22.0</ele><time>2026-04-18T09:08:17.37Z</time></trkpt><trkpt lat="33.40249" lon="8.4932957"><ele>22.0</ele><time>2026-04-18T09:08:18.369Z</time></trkpt><trkpt lat="33.4024656" lon="8.4930524"><ele>22.0</ele><time>2026-04-18T09:08:19.369Z</time></trkpt><trkpt lat="33.4024396" lon="8.4928043"><ele>22.0</ele><time>2026-04-18T09:08:20.362Z</time></trkpt><trkpt lat="33.4024175" lon="8.4925564"><ele>22.0</ele><time>2026-04-18T09:08:21.366Z</time></trkpt><trkpt lat="33.4023997" lon="8.4923088"><ele>22.0</ele><time>2026-04-18T09:08:22.37Z</time></trkpt><trkpt lat="33.4023832" lon="8.4920601"><ele>21.333333333333332</ele><time>2026-04-18T09:08:23.365Z</time></trkpt><trkpt lat="33.4023701" lon="8.4918098"><ele>20.666666666666668</ele><time>2026-04-18T09:08:24.369Z</time></trkpt><trkpt lat="33.4023604" lon="8.4915595"><ele>20.0</ele><time>2026-04-18T09:08:25.361Z</time></trkpt><trkpt lat="33.402353" lon="8.4913102"><ele>19.666666666666668</ele><time>2026-04-18T09:08:26.372Z</time></trkpt><trkpt lat="33.4023469" lon="8.4910589"><ele>19.333333333333332</ele><time>2026-04-18T09:08:27.36Z</time></trkpt><trkpt lat="33.4023414" lon="8.4908093"><ele>19.0</ele><time>2026-04-18T09:08:28.366Z</time></trkpt><trkpt lat="33.4023357" lon="8.490562"><ele>19.666666666666664</ele><time>2026-04-18T09:08:29.371Z</time></trkpt><trkpt lat="33.4023288" lon="8.4903172"><ele>20.333333333333332</ele><time>2026-04-18T09:08:30.366Z</time></trkpt><trkpt lat="33.4023212" lon="8.4900757"><ele>21.0</ele><time>2026-04-18T09:08:31.376Z</time></trkpt><trkpt lat="33.4023138" lon="8.4898385"><ele>21.0</ele><time>2026-04-18T09:08:32.361Z</time></trkpt><trkpt lat="33.4023046" lon="8.4896061"><ele>21.0</ele><time>2026-04-18T09:08:33.367Z</time></trkpt><trkpt lat="33.4022968" lon="8.4893752"><ele>21.0</ele><time>2026-04-18T09:08:34.361Z</time></trkpt><trkpt lat="33.4022912" lon="8.4891457"><ele>21.0</ele><time>2026-04-18T09:08:35.364Z</time></trkpt><trkpt lat="33.4022911" lon="8.4889194"><ele>21.0</ele><time>2026-04-18T09:08:36.365Z</time></trkpt><trkpt lat="33.4022981" lon="8.4886911"><ele>21.0</ele><time>2026-04-18T09:08:37.362Z</time></trkpt><trkpt lat="33.4023123" lon="8.4884634"><ele>21.0</ele><time>2026-04-18T09:08:38.365Z</time></trkpt><trkpt lat="33.4023293" lon="8.488241"><ele>21.0</ele><time>2026-04-18T09:08:39.367Z</time></trkpt><trkpt lat="33.4023414" lon="8.4880296"><ele>21.0</ele><time>2026-04-18T09:08:40.365Z</time></trkpt><trkpt lat="33.4023435" lon="8.4878285"><ele>21.333333333333332</ele><time>2026-04-18T09:08:41.367Z</time></trkpt><trkpt lat="33.4023348" lon="8.4876178"><ele>21.666666666666664</ele><time>2026-04-18T09:08:42.36Z</time></trkpt><trkpt lat="33.4023175" lon="8.4873918"><ele>22.0</ele><time>2026-04-18T09:08:43.363Z</time></trkpt><trkpt lat="33.4022936" lon="8.4871534"><ele>22.666666666666664</ele><time>2026-04-18T09:08:44.365Z</time></trkpt><trkpt lat="33.4022657" lon="8.486905"><ele>23.333333333333332</ele><time>2026-04-18T09:08:45.372Z</time></trkpt><trkpt lat="33.4022353" lon="8.486649"><ele>24.0</ele><time>2026-04-18T09:08:46.365Z</time></trkpt><trkpt lat="33.4022033" lon="8.4863924"><ele>24.0</ele><time>2026-04-18T09:08:47.365Z</time></trkpt><trkpt lat="33.4021701" lon="8.4861469"><ele>24.0</ele><time>2026-04-18T09:08:48.368Z</time></trkpt><trkpt lat="33.4021387" lon="8.4859195"><ele>24.0</ele><time>2026-04-18T09:08:49.364Z</time></trkpt><trkpt lat="33.40211" lon="8.4857086"><ele>23.0</ele><time>2026-04-18T09:08:50.366Z</time></trkpt><trkpt lat="33.4020839" lon="8.4855124"><ele>22.0</ele><time>2026-04-18T09:08:51.371Z</time></trkpt><trkpt lat="33.4020606" lon="8.4853299"><ele>21.0</ele><time>2026-04-18T09:08:52.371Z</time></trkpt><trkpt lat="33.4020397" lon="8.4851608"><ele>21.0</ele><time>2026-04-18T09:08:53.371Z</time></trkpt><trkpt lat="33.4020211" lon="8.4850023"><ele>21.0</ele><time>2026-04-18T09:08:54.366Z</time></trkpt><trkpt lat="33.402006" lon="8.4848535"><ele>21.0</ele><time>2026-04-18T09:08:55.375Z</time></trkpt><trkpt lat="33.401992" lon="8.484713"><ele>21.0</ele><time>2026-04-18T09:08:56.365Z</time></trkpt><trkpt lat="33.4019775" lon="8.4845799"><ele>21.6</ele><time>2026-04-18T09:08:57.365Z</time></trkpt><trkpt lat="33.4019628" lon="8.4844539"><ele>22.200000000000003</ele><time>2026-04-18T09:08:58.365Z</time></trkpt><trkpt lat="33.4019486" lon="8.484332"><ele>22.799999999999997</ele><time>2026-04-18T09:08:59.375Z</time></trkpt><trkpt lat="33.4019352" lon="8.4842023"><ele>23.4</ele><time>2026-04-18T09:09:00.37Z</time></trkpt><trkpt lat="33.4019237" lon="8.4840618"><ele>24.0</ele><time>2026-04-18T09:09:01.362Z</time></trkpt><trkpt lat="33.4019163" lon="8.4839144"><ele>24.0</ele><time>2026-04-18T09:09:02.367Z</time></trkpt><trkpt lat="33.4019094" lon="8.483751"><ele>24.0</ele><time>2026-04-18T09:09:03.365Z</time></trkpt><trkpt lat="33.4019015" lon="8.4835766"><ele>24.0</ele><time>2026-04-18T09:09:04.367Z</time></trkpt><trkpt lat="33.4018895" lon="8.4833961"><ele>24.0</ele><time>2026-04-18T09:09:05.37Z</time></trkpt><trkpt lat="33.4018749" lon="8.4832155"><ele>24.0</ele><time>2026-04-18T09:09:06.361Z</time></trkpt><trkpt lat="33.4018607" lon="8.4830341"><ele>24.0</ele><time>2026-04-18T09:09:07.362Z</time></trkpt><trkpt lat="33.401852" lon="8.4828475"><ele>24.0</ele><time>2026-04-18T09:09:08.365Z</time></trkpt><trkpt lat="33.4018446" lon="8.4826565"><ele>24.0</ele><time>2026-04-18T09:09:09.362Z</time></trkpt><trkpt lat="33.4018359" lon="8.4824592"><ele>24.0</ele><time>2026-04-18T09:09:10.358Z</time></trkpt><trkpt lat="33.4018259" lon="8.4822581"><ele>24.0</ele><time>2026-04-18T09:09:11.368Z</time></trkpt><trkpt lat="33.4018217" lon="8.482056"><ele>22.666666666666668</ele><time>2026-04-18T09:09:12.361Z</time></trkpt><trkpt lat="33.4018253" lon="8.4818558"><ele>21.333333333333336</ele><time>2026-04-18T09:09:13.361Z</time></trkpt><trkpt lat="33.4018336" lon="8.4816664"><ele>20.0</ele><time>2026-04-18T09:09:14.363Z</time></trkpt><trkpt lat="33.4018424" lon="8.4814897"><ele>20.0</ele><time>2026-04-18T09:09:15.366Z</time></trkpt><trkpt lat="33.4018542" lon="8.4813207"><ele>20.0</ele><time>2026-04-18T09:09:16.362Z</time></trkpt><trkpt lat="33.4018666" lon="8.4811498"><ele>20.0</ele><time>2026-04-18T09:09:17.372Z</time></trkpt><trkpt lat="33.401876" lon="8.4809856"><ele>20.0</ele><time>2026-04-18T09:09:18.365Z</time></trkpt><trkpt lat="33.4018831" lon="8.4808385"><ele>20.0</ele><time>2026-04-18T09:09:19.359Z</time></trkpt><trkpt lat="33.4018874" lon="8.4807043"><ele>20.0</ele><time>2026-04-18T09:09:20.362Z</time></trkpt><trkpt lat="33.4018927" lon="8.4805858"><ele>20.0</ele><time>2026-04-18T09:09:21.372Z</time></trkpt><trkpt lat="33.4018986" lon="8.4804808"><ele>20.0</ele><time>2026-04-18T09:09:22.362Z</time></trkpt><trkpt lat="33.4019045" lon="8.4803844"><ele>20.0</ele><time>2026-04-18T09:09:23.364Z</time></trkpt><trkpt lat="33.4019094" lon="8.4802941"><ele>20.0</ele><time>2026-04-18T09:09:24.367Z</time></trkpt><trkpt lat="33.4019131" lon="8.480208"><ele>20.0</ele><time>2026-04-18T09:09:25.37Z</time></trkpt><trkpt lat="33.401918" lon="8.4801263"><ele>20.0</ele><time>2026-04-18T09:09:26.367Z</time></trkpt><trkpt lat="33.4019221" lon="8.4800485"><ele>20.0</ele><time>2026-04-18T09:09:27.365Z</time></trkpt><trkpt lat="33.4019301" lon="8.4799048"><ele>20.0</ele><time>2026-04-18T09:09:29.364Z</time></trkpt><trkpt lat="33.401941" lon="8.4797795"><ele>20.0</ele><time>2026-04-18T09:09:31.359Z</time></trkpt><trkpt lat="33.4019525" lon="8.4797033"><ele>20.0</ele><time>2026-04-18T09:11:14.374Z</time></trkpt><trkpt lat="33.4019654" lon="8.4796081"><ele>20.0</ele><time>2026-04-18T09:11:16.371Z</time></trkpt><trkpt lat="33.4019662" lon="8.4795004"><ele>20.0</ele><time>2026-04-18T09:11:18.366Z</time></trkpt><trkpt lat="33.4019593" lon="8.4793298"><ele>20.0</ele><time>2026-04-18T09:11:20.363Z</time></trkpt><trkpt lat="33.4019629" lon="8.4792161"><ele>20.0</ele><time>2026-04-18T09:11:21.366Z</time></trkpt><trkpt lat="33.4019705" lon="8.4791066"><ele>20.2</ele><time>2026-04-18T09:11:22.373Z</time></trkpt><trkpt lat="33.4019802" lon="8.478994"><ele>20.4</ele><time>2026-04-18T09:11:23.362Z</time></trkpt><trkpt lat="33.4019921" lon="8.4788747"><ele>20.6</ele><time>2026-04-18T09:11:24.364Z</time></trkpt><trkpt lat="33.4020065" lon="8.4787538"><ele>20.8</ele><time>2026-04-18T09:11:25.377Z</time></trkpt><trkpt lat="33.4020238" lon="8.4786346"><ele>21.0</ele><time>2026-04-18T09:11:26.367Z</time></trkpt><trkpt lat="33.4020415" lon="8.4785138"><ele>20.25</ele><time>2026-04-18T09:11:27.366Z</time></trkpt><trkpt lat="33.4020636" lon="8.4783861"><ele>19.5</ele><time>2026-04-18T09:11:28.357Z</time></trkpt><trkpt lat="33.4020835" lon="8.4782638"><ele>18.75</ele><time>2026-04-18T09:11:29.361Z</time></trkpt><trkpt lat="33.4021036" lon="8.4781291"><ele>18.0</ele><time>2026-04-18T09:11:30.364Z</time></trkpt><trkpt lat="33.4021269" lon="8.477984"><ele>18.75</ele><time>2026-04-18T09:11:31.372Z</time></trkpt><trkpt lat="33.4021487" lon="8.4778229"><ele>19.5</ele><time>2026-04-18T09:11:32.369Z</time></trkpt><trkpt lat="33.4021673" lon="8.4776533"><ele>20.25</ele><time>2026-04-18T09:11:33.372Z</time></trkpt><trkpt lat="33.4021802" lon="8.4774795"><ele>21.0</ele><time>2026-04-18T09:11:34.371Z</time></trkpt><trkpt lat="33.4021911" lon="8.477294"><ele>21.0</ele><time>2026-04-18T09:11:35.367Z</time></trkpt><trkpt lat="33.4022013" lon="8.477094"><ele>21.0</ele><time>2026-04-18T09:11:36.368Z</time></trkpt><trkpt lat="33.402211" lon="8.4768795"><ele>21.0</ele><time>2026-04-18T09:11:37.375Z</time></trkpt><trkpt lat="33.4022206" lon="8.4766638"><ele>21.0</ele><time>2026-04-18T09:11:38.366Z</time></trkpt><trkpt lat="33.4022337" lon="8.4764395"><ele>21.0</ele><time>2026-04-18T09:11:39.362Z</time></trkpt><trkpt lat="33.4022413" lon="8.4762186"><ele>21.0</ele><time>2026-04-18T09:11:40.364Z</time></trkpt><trkpt lat="33.4022469" lon="8.4759872"><ele>21.0</ele><time>2026-04-18T09:11:41.369Z</time></trkpt><trkpt lat="33.4022498" lon="8.4757572"><ele>21.0</ele><time>2026-04-18T09:11:42.362Z</time></trkpt><trkpt lat="33.4022446" lon="8.475539"><ele>21.0</ele><time>2026-04-18T09:11:43.368Z</time></trkpt><trkpt lat="33.4022335" lon="8.4753103"><ele>21.0</ele><time>2026-04-18T09:11:44.373Z</time></trkpt><trkpt lat="33.4022165" lon="8.4750798"><ele>21.0</ele><time>2026-04-18T09:11:45.358Z</time></trkpt><trkpt lat="33.402201" lon="8.4748561"><ele>21.0</ele><time>2026-04-18T09:11:46.366Z</time></trkpt><trkpt lat="33.4021834" lon="8.47464"><ele>21.0</ele><time>2026-04-18T09:11:47.356Z</time></trkpt><trkpt lat="33.4021676" lon="8.4744262"><ele>21.0</ele><time>2026-04-18T09:11:48.361Z</time></trkpt><trkpt lat="33.4021591" lon="8.4742148"><ele>21.0</ele><time>2026-04-18T09:11:49.362Z</time></trkpt><trkpt lat="33.4021478" lon="8.4739996"><ele>21.0</ele><time>2026-04-18T09:11:50.361Z</time></trkpt><trkpt lat="33.4021369" lon="8.4737811"><ele>21.0</ele><time>2026-04-18T09:11:51.364Z</time></trkpt><trkpt lat="33.4021254" lon="8.4735678"><ele>21.0</ele><time>2026-04-18T09:11:52.361Z</time></trkpt><trkpt lat="33.402115" lon="8.4733597"><ele>21.333333333333332</ele><time>2026-04-18T09:11:53.358Z</time></trkpt><trkpt lat="33.4021064" lon="8.4731542"><ele>21.666666666666664</ele><time>2026-04-18T09:11:54.364Z</time></trkpt><trkpt lat="33.4021" lon="8.4729489"><ele>22.0</ele><time>2026-04-18T09:11:55.374Z</time></trkpt><trkpt lat="33.4020998" lon="8.4727428"><ele>22.0</ele><time>2026-04-18T09:11:56.365Z</time></trkpt><trkpt lat="33.4021047" lon="8.4725405"><ele>22.0</ele><time>2026-04-18T09:11:57.366Z</time></trkpt><trkpt lat="33.4021134" lon="8.4723376"><ele>22.0</ele><time>2026-04-18T09:11:58.362Z</time></trkpt><trkpt lat="33.4021244" lon="8.4721357"><ele>22.0</ele><time>2026-04-18T09:11:59.368Z</time></trkpt><trkpt lat="33.4021364" lon="8.4719391"><ele>22.0</ele><time>2026-04-18T09:12:00.366Z</time></trkpt><trkpt lat="33.4021498" lon="8.4717484"><ele>22.0</ele><time>2026-04-18T09:12:01.369Z</time></trkpt><trkpt lat="33.4021696" lon="8.4715664"><ele>22.0</ele><time>2026-04-18T09:12:02.362Z</time></trkpt><trkpt lat="33.4021997" lon="8.4713913"><ele>22.0</ele><time>2026-04-18T09:12:03.359Z</time></trkpt><trkpt lat="33.4022409" lon="8.4712241"><ele>22.0</ele><time>2026-04-18T09:12:04.364Z</time></trkpt><trkpt lat="33.4022905" lon="8.4710628"><ele>22.0</ele><time>2026-04-18T09:12:05.36Z</time></trkpt><trkpt lat="33.402345" lon="8.4709087"><ele>21.75</ele><time>2026-04-18T09:12:06.364Z</time></trkpt><trkpt lat="33.4024022" lon="8.4707654"><ele>21.5</ele><time>2026-04-18T09:12:07.367Z</time></trkpt><trkpt lat="33.4024593" lon="8.4706343"><ele>21.25</ele><time>2026-04-18T09:12:08.362Z</time></trkpt><trkpt lat="33.4025183" lon="8.4705058"><ele>21.0</ele><time>2026-04-18T09:12:09.362Z</time></trkpt><trkpt lat="33.4025844" lon="8.4703672"><ele>21.0</ele><time>2026-04-18T09:12:10.36Z</time></trkpt><trkpt lat="33.4026597" lon="8.470226"><ele>21.0</ele><time>2026-04-18T09:12:11.363Z</time></trkpt><trkpt lat="33.4027464" lon="8.4700775"><ele>21.0</ele><time>2026-04-18T09:12:12.359Z</time></trkpt><trkpt lat="33.4028376" lon="8.4699152"><ele>21.0</ele><time>2026-04-18T09:12:13.372Z</time></trkpt><trkpt lat="33.4029254" lon="8.4697483"><ele>21.0</ele><time>2026-04-18T09:12:14.368Z</time></trkpt><trkpt lat="33.403014" lon="8.4695737"><ele>21.0</ele><time>2026-04-18T09:12:15.369Z</time></trkpt><trkpt lat="33.4031024" lon="8.4693958"><ele>20.666666666666668</ele><time>2026-04-18T09:12:16.366Z</time></trkpt><trkpt lat="33.4031916" lon="8.4692115"><ele>20.333333333333336</ele><time>2026-04-18T09:12:17.372Z</time></trkpt><trkpt lat="33.4032768" lon="8.469023"><ele>20.0</ele><time>2026-04-18T09:12:18.362Z</time></trkpt><trkpt lat="33.4033542" lon="8.4688313"><ele>20.333333333333336</ele><time>2026-04-18T09:12:19.373Z</time></trkpt><trkpt lat="33.4034224" lon="8.4686364"><ele>20.666666666666668</ele><time>2026-04-18T09:12:20.366Z</time></trkpt><trkpt lat="33.4034816" lon="8.4684321"><ele>21.0</ele><time>2026-04-18T09:12:21.367Z</time></trkpt><trkpt lat="33.403532" lon="8.4682197"><ele>21.0</ele><time>2026-04-18T09:12:22.371Z</time></trkpt><trkpt lat="33.4035773" lon="8.4680023"><ele>21.0</ele><time>2026-04-18T09:12:23.366Z</time></trkpt><trkpt lat="33.4036209" lon="8.4677826"><ele>21.0</ele><time>2026-04-18T09:12:24.37Z</time></trkpt><trkpt lat="33.4036657" lon="8.4675615"><ele>21.666666666666668</ele><time>2026-04-18T09:12:25.368Z</time></trkpt><trkpt lat="33.4037103" lon="8.4673366"><ele>22.333333333333336</ele><time>2026-04-18T09:12:26.364Z</time></trkpt><trkpt lat="33.4037584" lon="8.4671149"><ele>23.0</ele><time>2026-04-18T09:12:27.367Z</time></trkpt><trkpt lat="33.4038089" lon="8.4668966"><ele>23.333333333333336</ele><time>2026-04-18T09:12:28.366Z</time></trkpt><trkpt lat="33.4038586" lon="8.4666725"><ele>23.666666666666668</ele><time>2026-04-18T09:12:29.378Z</time></trkpt><trkpt lat="33.4039065" lon="8.4664406"><ele>24.0</ele><time>2026-04-18T09:12:30.361Z</time></trkpt><trkpt lat="33.4039532" lon="8.4662146"><ele>23.333333333333332</ele><time>2026-04-18T09:12:31.366Z</time></trkpt><trkpt lat="33.4039985" lon="8.4659983"><ele>22.666666666666664</ele><time>2026-04-18T09:12:32.366Z</time></trkpt><trkpt lat="33.4040426" lon="8.4657901"><ele>22.0</ele><time>2026-04-18T09:12:33.366Z</time></trkpt><trkpt lat="33.4040849" lon="8.4655899"><ele>22.25</ele><time>2026-04-18T09:12:34.378Z</time></trkpt><trkpt lat="33.4041226" lon="8.4653991"><ele>22.5</ele><time>2026-04-18T09:12:35.37Z</time></trkpt><trkpt lat="33.4041578" lon="8.4652227"><ele>22.75</ele><time>2026-04-18T09:12:36.38Z</time></trkpt><trkpt lat="33.4041909" lon="8.4650693"><ele>23.0</ele><time>2026-04-18T09:12:37.378Z</time></trkpt><trkpt lat="33.4042193" lon="8.4649402"><ele>23.0</ele><time>2026-04-18T09:12:38.377Z</time></trkpt><trkpt lat="33.4042458" lon="8.4648386"><ele>23.0</ele><time>2026-04-18T09:12:39.371Z</time></trkpt><trkpt lat="33.4042712" lon="8.4647529"><ele>23.0</ele><time>2026-04-18T09:12:40.366Z</time></trkpt><trkpt lat="33.4042961" lon="8.4646708"><ele>23.0</ele><time>2026-04-18T09:12:41.37Z</time></trkpt><trkpt lat="33.4043178" lon="8.4645847"><ele>23.0</ele><time>2026-04-18T09:12:42.377Z</time></trkpt><trkpt lat="33.4043323" lon="8.4644878"><ele>23.0</ele><time>2026-04-18T09:12:43.365Z</time></trkpt><trkpt lat="33.4043361" lon="8.4643858"><ele>23.25</ele><time>2026-04-18T09:12:44.366Z</time></trkpt><trkpt lat="33.4043334" lon="8.4642824"><ele>23.5</ele><time>2026-04-18T09:12:45.37Z</time></trkpt><trkpt lat="33.4043297" lon="8.4641627"><ele>23.75</ele><time>2026-04-18T09:12:46.363Z</time></trkpt><trkpt lat="33.4043248" lon="8.4640227"><ele>24.0</ele><time>2026-04-18T09:12:47.369Z</time></trkpt><trkpt lat="33.4043169" lon="8.4638381"><ele>24.333333333333336</ele><time>2026-04-18T09:12:48.372Z</time></trkpt><trkpt lat="33.4043055" lon="8.4635924"><ele>24.666666666666668</ele><time>2026-04-18T09:12:49.365Z</time></trkpt><trkpt lat="33.4042906" lon="8.4633318"><ele>25.0</ele><time>2026-04-18T09:12:50.363Z</time></trkpt><trkpt lat="33.4042867" lon="8.4630712"><ele>25.0</ele><time>2026-04-18T09:12:51.364Z</time></trkpt><trkpt lat="33.4042846" lon="8.4627883"><ele>25.0</ele><time>2026-04-18T09:12:52.37Z</time></trkpt><trkpt lat="33.4042786" lon="8.4625075"><ele>25.0</ele><time>2026-04-18T09:12:53.366Z</time></trkpt><trkpt lat="33.4042764" lon="8.4622502"><ele>25.0</ele><time>2026-04-18T09:12:54.358Z</time></trkpt><trkpt lat="33.4042576" lon="8.4619955"><ele>25.0</ele><time>2026-04-18T09:12:55.363Z</time></trkpt><trkpt lat="33.4042436" lon="8.4617458"><ele>25.666666666666668</ele><time>2026-04-18T09:12:56.362Z</time></trkpt><trkpt lat="33.4042215" lon="8.4615047"><ele>26.333333333333336</ele><time>2026-04-18T09:12:57.363Z</time></trkpt><trkpt lat="33.4041908" lon="8.4612714"><ele>27.0</ele><time>2026-04-18T09:12:58.362Z</time></trkpt><trkpt lat="33.4041514" lon="8.4610425"><ele>27.0</ele><time>2026-04-18T09:12:59.36Z</time></trkpt><trkpt lat="33.404104" lon="8.4608109"><ele>27.0</ele><time>2026-04-18T09:13:00.36Z</time></trkpt><trkpt lat="33.4040528" lon="8.460576"><ele>27.0</ele><time>2026-04-18T09:13:01.364Z</time></trkpt><trkpt lat="33.4040025" lon="8.4603414"><ele>26.666666666666664</ele><time>2026-04-18T09:13:02.364Z</time></trkpt><trkpt lat="33.4039519" lon="8.4601036"><ele>26.333333333333332</ele><time>2026-04-18T09:13:03.36Z</time></trkpt><trkpt lat="33.4039025" lon="8.4598663"><ele>26.0</ele><time>2026-04-18T09:13:04.368Z</time></trkpt><trkpt lat="33.4038533" lon="8.4596309"><ele>26.0</ele><time>2026-04-18T09:13:05.361Z</time></trkpt><trkpt lat="33.4038044" lon="8.4594005"><ele>26.0</ele><time>2026-04-18T09:13:06.364Z</time></trkpt><trkpt lat="33.4037555" lon="8.4591739"><ele>26.0</ele><time>2026-04-18T09:13:07.369Z</time></trkpt><trkpt lat="33.4037051" lon="8.4589463"><ele>25.666666666666664</ele><time>2026-04-18T09:13:08.357Z</time></trkpt><trkpt lat="33.4036543" lon="8.4587183"><ele>25.333333333333336</ele><time>2026-04-18T09:13:09.357Z</time></trkpt><trkpt lat="33.4036033" lon="8.4584881"><ele>25.0</ele><time>2026-04-18T09:13:10.366Z</time></trkpt><trkpt lat="33.4035514" lon="8.458255"><ele>25.0</ele><time>2026-04-18T09:13:11.373Z</time></trkpt><trkpt lat="33.4034981" lon="8.4580186"><ele>25.0</ele><time>2026-04-18T09:13:12.359Z</time></trkpt><trkpt lat="33.4034437" lon="8.4577782"><ele>25.0</ele><time>2026-04-18T09:13:13.371Z</time></trkpt><trkpt lat="33.4033895" lon="8.4575342"><ele>24.0</ele><time>2026-04-18T09:13:14.368Z</time></trkpt><trkpt lat="33.4033351" lon="8.4572861"><ele>23.0</ele><time>2026-04-18T09:13:15.359Z</time></trkpt><trkpt lat="33.4032792" lon="8.4570339"><ele>22.0</ele><time>2026-04-18T09:13:16.365Z</time></trkpt><trkpt lat="33.4032225" lon="8.4567848"><ele>22.0</ele><time>2026-04-18T09:13:17.361Z</time></trkpt><trkpt lat="33.4031641" lon="8.4565297"><ele>22.0</ele><time>2026-04-18T09:13:18.366Z</time></trkpt><trkpt lat="33.4031073" lon="8.4562717"><ele>22.0</ele><time>2026-04-18T09:13:19.37Z</time></trkpt><trkpt lat="33.40305" lon="8.4560101"><ele>21.5</ele><time>2026-04-18T09:13:20.364Z</time></trkpt><trkpt lat="33.4029916" lon="8.4557454"><ele>21.0</ele><time>2026-04-18T09:13:21.366Z</time></trkpt><trkpt lat="33.4029314" lon="8.4554784"><ele>21.0</ele><time>2026-04-18T09:13:22.364Z</time></trkpt><trkpt lat="33.4028708" lon="8.4552076"><ele>21.0</ele><time>2026-04-18T09:13:23.369Z</time></trkpt><trkpt lat="33.4028105" lon="8.4549347"><ele>21.0</ele><time>2026-04-18T09:13:24.374Z</time></trkpt><trkpt lat="33.4027507" lon="8.4546592"><ele>21.0</ele><time>2026-04-18T09:13:25.373Z</time></trkpt><trkpt lat="33.4026913" lon="8.4543826"><ele>21.0</ele><time>2026-04-18T09:13:26.363Z</time></trkpt><trkpt lat="33.4026328" lon="8.4541059"><ele>21.0</ele><time>2026-04-18T09:13:27.368Z</time></trkpt><trkpt lat="33.4025749" lon="8.4538343"><ele>21.5</ele><time>2026-04-18T09:13:28.366Z</time></trkpt><trkpt lat="33.4025178" lon="8.4535682"><ele>22.0</ele><time>2026-04-18T09:13:29.36Z</time></trkpt><trkpt lat="33.4024621" lon="8.4533057"><ele>22.0</ele><time>2026-04-18T09:13:30.363Z</time></trkpt><trkpt lat="33.4024065" lon="8.4530443"><ele>22.0</ele><time>2026-04-18T09:13:31.361Z</time></trkpt><trkpt lat="33.4023522" lon="8.4527843"><ele>22.0</ele><time>2026-04-18T09:13:32.375Z</time></trkpt><trkpt lat="33.4022998" lon="8.4525261"><ele>22.0</ele><time>2026-04-18T09:13:33.367Z</time></trkpt><trkpt lat="33.402248" lon="8.4522723"><ele>22.0</ele><time>2026-04-18T09:13:34.36Z</time></trkpt><trkpt lat="33.4021962" lon="8.4520218"><ele>22.0</ele><time>2026-04-18T09:13:35.362Z</time></trkpt><trkpt lat="33.4021439" lon="8.451774"><ele>22.0</ele><time>2026-04-18T09:13:36.366Z</time></trkpt><trkpt lat="33.4020925" lon="8.451527"><ele>22.0</ele><time>2026-04-18T09:13:37.362Z</time></trkpt><trkpt lat="33.4020401" lon="8.4512779"><ele>22.0</ele><time>2026-04-18T09:13:38.361Z</time></trkpt><trkpt lat="33.4019866" lon="8.4510268"><ele>22.0</ele><time>2026-04-18T09:13:39.355Z</time></trkpt><trkpt lat="33.4019305" lon="8.450774"><ele>22.0</ele><time>2026-04-18T09:13:40.358Z</time></trkpt><trkpt lat="33.4018696" lon="8.4505248"><ele>22.0</ele><time>2026-04-18T09:13:41.374Z</time></trkpt><trkpt lat="33.4018029" lon="8.4502768"><ele>22.333333333333332</ele><time>2026-04-18T09:13:42.365Z</time></trkpt><trkpt lat="33.4017322" lon="8.4500285"><ele>22.666666666666668</ele><time>2026-04-18T09:13:43.367Z</time></trkpt><trkpt lat="33.4016604" lon="8.4497793"><ele>23.0</ele><time>2026-04-18T09:13:44.37Z</time></trkpt><trkpt lat="33.4015912" lon="8.4495284"><ele>23.333333333333336</ele><time>2026-04-18T09:13:45.369Z</time></trkpt><trkpt lat="33.4015288" lon="8.4492753"><ele>23.666666666666668</ele><time>2026-04-18T09:13:46.366Z</time></trkpt><trkpt lat="33.4014717" lon="8.4490181"><ele>24.0</ele><time>2026-04-18T09:13:47.361Z</time></trkpt><trkpt lat="33.4014186" lon="8.4487559"><ele>24.5</ele><time>2026-04-18T09:13:48.366Z</time></trkpt><trkpt lat="33.4013677" lon="8.4484892"><ele>25.0</ele><time>2026-04-18T09:13:49.371Z</time></trkpt><trkpt lat="33.4013182" lon="8.4482178"><ele>23.5</ele><time>2026-04-18T09:13:50.367Z</time></trkpt><trkpt lat="33.4012683" lon="8.4479427"><ele>22.0</ele><time>2026-04-18T09:13:51.363Z</time></trkpt><trkpt lat="33.4012178" lon="8.4476656"><ele>22.0</ele><time>2026-04-18T09:13:52.363Z</time></trkpt><trkpt lat="33.4011665" lon="8.4473879"><ele>22.0</ele><time>2026-04-18T09:13:53.367Z</time></trkpt><trkpt lat="33.4011141" lon="8.4471115"><ele>21.5</ele><time>2026-04-18T09:13:54.371Z</time></trkpt><trkpt lat="33.4010602" lon="8.4468359"><ele>21.0</ele><time>2026-04-18T09:13:55.374Z</time></trkpt><trkpt lat="33.4010065" lon="8.4465632"><ele>21.0</ele><time>2026-04-18T09:13:56.369Z</time></trkpt><trkpt lat="33.4009522" lon="8.4462917"><ele>21.0</ele><time>2026-04-18T09:13:57.37Z</time></trkpt><trkpt lat="33.4008983" lon="8.4460213"><ele>21.0</ele><time>2026-04-18T09:13:58.368Z</time></trkpt><trkpt lat="33.4008441" lon="8.4457521"><ele>21.0</ele><time>2026-04-18T09:13:59.37Z</time></trkpt><trkpt lat="33.4007889" lon="8.4454823"><ele>20.5</ele><time>2026-04-18T09:14:00.365Z</time></trkpt><trkpt lat="33.4007319" lon="8.4452113"><ele>20.0</ele><time>2026-04-18T09:14:01.358Z</time></trkpt><trkpt lat="33.4006734" lon="8.4449402"><ele>20.0</ele><time>2026-04-18T09:14:02.371Z</time></trkpt><trkpt lat="33.4006137" lon="8.444668"><ele>20.0</ele><time>2026-04-18T09:14:03.368Z</time></trkpt><trkpt lat="33.400555" lon="8.444395"><ele>21.0</ele><time>2026-04-18T09:14:04.367Z</time></trkpt><trkpt lat="33.4004956" lon="8.4441216"><ele>22.0</ele><time>2026-04-18T09:14:05.37Z</time></trkpt><trkpt lat="33.4004353" lon="8.443849"><ele>21.5</ele><time>2026-04-18T09:14:06.361Z</time></trkpt><trkpt lat="33.400375" lon="8.4435767"><ele>21.0</ele><time>2026-04-18T09:14:07.365Z</time></trkpt><trkpt lat="33.4003154" lon="8.4433076"><ele>21.0</ele><time>2026-04-18T09:14:08.367Z</time></trkpt><trkpt lat="33.4002568" lon="8.4430421"><ele>21.0</ele><time>2026-04-18T09:14:09.367Z</time></trkpt><trkpt lat="33.4001988" lon="8.442777"><ele>21.5</ele><time>2026-04-18T09:14:10.368Z</time></trkpt><trkpt lat="33.400142" lon="8.4425106"><ele>22.0</ele><time>2026-04-18T09:14:11.367Z</time></trkpt><trkpt lat="33.4000859" lon="8.4422432"><ele>21.5</ele><time>2026-04-18T09:14:12.365Z</time></trkpt><trkpt lat="33.4000289" lon="8.4419749"><ele>21.0</ele><time>2026-04-18T09:14:13.363Z</time></trkpt><trkpt lat="33.3999713" lon="8.4417059"><ele>21.0</ele><time>2026-04-18T09:14:14.369Z</time></trkpt><trkpt lat="33.3999133" lon="8.4414367"><ele>21.0</ele><time>2026-04-18T09:14:15.367Z</time></trkpt><trkpt lat="33.3998561" lon="8.4411676"><ele>20.5</ele><time>2026-04-18T09:14:16.366Z</time></trkpt><trkpt lat="33.3997985" lon="8.4408996"><ele>20.0</ele><time>2026-04-18T09:14:17.367Z</time></trkpt><trkpt lat="33.3997414" lon="8.4406323"><ele>19.5</ele><time>2026-04-18T09:14:18.366Z</time></trkpt><trkpt lat="33.3996844" lon="8.440365"><ele>19.0</ele><time>2026-04-18T09:14:19.364Z</time></trkpt><trkpt lat="33.3996269" lon="8.4400981"><ele>21.0</ele><time>2026-04-18T09:14:20.362Z</time></trkpt><trkpt lat="33.3995698" lon="8.4398309"><ele>23.0</ele><time>2026-04-18T09:14:21.367Z</time></trkpt><trkpt lat="33.3995146" lon="8.4395651"><ele>23.5</ele><time>2026-04-18T09:14:22.364Z</time></trkpt><trkpt lat="33.3994597" lon="8.4392994"><ele>24.0</ele><time>2026-04-18T09:14:23.363Z</time></trkpt><trkpt lat="33.3994049" lon="8.4390346"><ele>24.5</ele><time>2026-04-18T09:14:24.364Z</time></trkpt><trkpt lat="33.3993502" lon="8.43877"><ele>25.0</ele><time>2026-04-18T09:14:25.359Z</time></trkpt><trkpt lat="33.3992956" lon="8.4385067"><ele>25.0</ele><time>2026-04-18T09:14:26.36Z</time></trkpt><trkpt lat="33.3992409" lon="8.4382449"><ele>25.0</ele><time>2026-04-18T09:14:27.369Z</time></trkpt><trkpt lat="33.3991852" lon="8.4379841"><ele>24.0</ele><time>2026-04-18T09:14:28.364Z</time></trkpt><trkpt lat="33.3991285" lon="8.4377245"><ele>23.0</ele><time>2026-04-18T09:14:29.366Z</time></trkpt><trkpt lat="33.399071" lon="8.4374669"><ele>22.0</ele><time>2026-04-18T09:14:30.367Z</time></trkpt><trkpt lat="33.3990134" lon="8.4372104"><ele>21.333333333333332</ele><time>2026-04-18T09:14:31.377Z</time></trkpt><trkpt lat="33.3989562" lon="8.4369539"><ele>20.666666666666668</ele><time>2026-04-18T09:14:32.367Z</time></trkpt><trkpt lat="33.398899" lon="8.436701"><ele>20.0</ele><time>2026-04-18T09:14:33.362Z</time></trkpt><trkpt lat="33.3988442" lon="8.4364535"><ele>22.333333333333336</ele><time>2026-04-18T09:14:34.367Z</time></trkpt><trkpt lat="33.3987899" lon="8.4362089"><ele>24.666666666666668</ele><time>2026-04-18T09:14:35.37Z</time></trkpt><trkpt lat="33.3987351" lon="8.4359652"><ele>27.0</ele><time>2026-04-18T09:14:36.367Z</time></trkpt><trkpt lat="33.3986786" lon="8.4357225"><ele>27.0</ele><time>2026-04-18T09:14:37.371Z</time></trkpt><trkpt lat="33.3986229" lon="8.4354817"><ele>27.0</ele><time>2026-04-18T09:14:38.363Z</time></trkpt><trkpt lat="33.3985683" lon="8.4352418"><ele>27.0</ele><time>2026-04-18T09:14:39.361Z</time></trkpt><trkpt lat="33.3985133" lon="8.4350031"><ele>25.333333333333332</ele><time>2026-04-18T09:14:40.36Z</time></trkpt><trkpt lat="33.3984585" lon="8.4347637"><ele>23.666666666666664</ele><time>2026-04-18T09:14:41.365Z</time></trkpt><trkpt lat="33.3984049" lon="8.4345257"><ele>22.0</ele><time>2026-04-18T09:14:42.371Z</time></trkpt><trkpt lat="33.3983519" lon="8.4342902"><ele>22.0</ele><time>2026-04-18T09:14:43.365Z</time></trkpt><trkpt lat="33.3982988" lon="8.4340551"><ele>22.0</ele><time>2026-04-18T09:14:44.369Z</time></trkpt><trkpt lat="33.3982455" lon="8.4338189"><ele>22.0</ele><time>2026-04-18T09:14:45.369Z</time></trkpt><trkpt lat="33.3981926" lon="8.4335827"><ele>21.666666666666664</ele><time>2026-04-18T09:14:46.366Z</time></trkpt><trkpt lat="33.3981406" lon="8.433345"><ele>21.333333333333332</ele><time>2026-04-18T09:14:47.368Z</time></trkpt><trkpt lat="33.3980888" lon="8.4331056"><ele>21.0</ele><time>2026-04-18T09:14:48.364Z</time></trkpt><trkpt lat="33.3980369" lon="8.4328648"><ele>21.0</ele><time>2026-04-18T09:14:49.363Z</time></trkpt><trkpt lat="33.3979838" lon="8.4326238"><ele>21.0</ele><time>2026-04-18T09:14:50.359Z</time></trkpt><trkpt lat="33.3979294" lon="8.4323832"><ele>21.0</ele><time>2026-04-18T09:14:51.364Z</time></trkpt><trkpt lat="33.3978745" lon="8.4321421"><ele>21.333333333333332</ele><time>2026-04-18T09:14:52.359Z</time></trkpt><trkpt lat="33.3978196" lon="8.4319006"><ele>21.666666666666664</ele><time>2026-04-18T09:14:53.363Z</time></trkpt><trkpt lat="33.3977647" lon="8.4316599"><ele>22.0</ele><time>2026-04-18T09:14:54.364Z</time></trkpt><trkpt lat="33.3977096" lon="8.4314205"><ele>22.0</ele><time>2026-04-18T09:14:55.367Z</time></trkpt><trkpt lat="33.3976535" lon="8.4311831"><ele>22.0</ele><time>2026-04-18T09:14:56.36Z</time></trkpt><trkpt lat="33.3975967" lon="8.4309466"><ele>22.0</ele><time>2026-04-18T09:14:57.367Z</time></trkpt><trkpt lat="33.3975401" lon="8.4307101"><ele>22.0</ele><time>2026-04-18T09:14:58.361Z</time></trkpt><trkpt lat="33.3974837" lon="8.4304759"><ele>22.0</ele><time>2026-04-18T09:14:59.36Z</time></trkpt><trkpt lat="33.3974286" lon="8.4302427"><ele>22.0</ele><time>2026-04-18T09:15:00.362Z</time></trkpt><trkpt lat="33.3973752" lon="8.4300116"><ele>22.0</ele><time>2026-04-18T09:15:01.367Z</time></trkpt><trkpt lat="33.3973234" lon="8.4297811"><ele>22.0</ele><time>2026-04-18T09:15:02.366Z</time></trkpt><trkpt lat="33.3972716" lon="8.429549"><ele>22.0</ele><time>2026-04-18T09:15:03.36Z</time></trkpt><trkpt lat="33.3972212" lon="8.4293165"><ele>22.0</ele><time>2026-04-18T09:15:04.361Z</time></trkpt><trkpt lat="33.397173" lon="8.4290825"><ele>22.0</ele><time>2026-04-18T09:15:05.361Z</time></trkpt><trkpt lat="33.397127" lon="8.4288477"><ele>22.0</ele><time>2026-04-18T09:15:06.358Z</time></trkpt><trkpt lat="33.3970846" lon="8.4286117"><ele>22.0</ele><time>2026-04-18T09:15:07.358Z</time></trkpt><trkpt lat="33.3970498" lon="8.4283745"><ele>22.0</ele><time>2026-04-18T09:15:08.357Z</time></trkpt><trkpt lat="33.3970263" lon="8.4281354"><ele>22.0</ele><time>2026-04-18T09:15:09.36Z</time></trkpt><trkpt lat="33.3970181" lon="8.427895"><ele>22.0</ele><time>2026-04-18T09:15:10.36Z</time></trkpt><trkpt lat="33.3970247" lon="8.4276553"><ele>22.0</ele><time>2026-04-18T09:15:11.361Z</time></trkpt><trkpt lat="33.3970395" lon="8.4274153"><ele>22.0</ele><time>2026-04-18T09:15:12.361Z</time></trkpt><trkpt lat="33.3970564" lon="8.427175"><ele>22.666666666666664</ele><time>2026-04-18T09:15:13.359Z</time></trkpt><trkpt lat="33.3970747" lon="8.4269359"><ele>23.333333333333332</ele><time>2026-04-18T09:15:14.371Z</time></trkpt><trkpt lat="33.3970919" lon="8.426702"><ele>24.0</ele><time>2026-04-18T09:15:15.361Z</time></trkpt><trkpt lat="33.3971083" lon="8.4264731"><ele>23.666666666666668</ele><time>2026-04-18T09:15:16.357Z</time></trkpt><trkpt lat="33.3971229" lon="8.4262491"><ele>23.333333333333336</ele><time>2026-04-18T09:15:17.364Z</time></trkpt><trkpt lat="33.3971363" lon="8.4260288"><ele>23.0</ele><time>2026-04-18T09:15:18.361Z</time></trkpt><trkpt lat="33.3971491" lon="8.4258106"><ele>23.0</ele><time>2026-04-18T09:15:19.356Z</time></trkpt><trkpt lat="33.3971621" lon="8.4255944"><ele>23.0</ele><time>2026-04-18T09:15:20.359Z</time></trkpt><trkpt lat="33.3971762" lon="8.4253855"><ele>23.0</ele><time>2026-04-18T09:15:21.358Z</time></trkpt><trkpt lat="33.3971903" lon="8.4251764"><ele>22.666666666666668</ele><time>2026-04-18T09:15:22.361Z</time></trkpt><trkpt lat="33.3972054" lon="8.4249656"><ele>22.333333333333332</ele><time>2026-04-18T09:15:23.356Z</time></trkpt><trkpt lat="33.3972214" lon="8.4247536"><ele>22.0</ele><time>2026-04-18T09:15:24.363Z</time></trkpt><trkpt lat="33.3972364" lon="8.4245387"><ele>22.0</ele><time>2026-04-18T09:15:25.365Z</time></trkpt><trkpt lat="33.3972525" lon="8.4243176"><ele>22.0</ele><time>2026-04-18T09:15:26.361Z</time></trkpt><trkpt lat="33.3972698" lon="8.4240924"><ele>22.0</ele><time>2026-04-18T09:15:27.355Z</time></trkpt><trkpt lat="33.3972871" lon="8.4238609"><ele>22.0</ele><time>2026-04-18T09:15:28.362Z</time></trkpt><trkpt lat="33.3973054" lon="8.4236235"><ele>22.0</ele><time>2026-04-18T09:15:29.361Z</time></trkpt><trkpt lat="33.3973242" lon="8.42338"><ele>22.0</ele><time>2026-04-18T09:15:30.367Z</time></trkpt><trkpt lat="33.3973432" lon="8.4231335"><ele>22.0</ele><time>2026-04-18T09:15:31.361Z</time></trkpt><trkpt lat="33.3973617" lon="8.4228873"><ele>22.0</ele><time>2026-04-18T09:15:32.358Z</time></trkpt><trkpt lat="33.3973802" lon="8.4226405"><ele>22.0</ele><time>2026-04-18T09:15:33.362Z</time></trkpt><trkpt lat="33.3973989" lon="8.4223925"><ele>22.333333333333332</ele><time>2026-04-18T09:15:34.364Z</time></trkpt><trkpt lat="33.3974171" lon="8.4221444"><ele>22.666666666666668</ele><time>2026-04-18T09:15:35.365Z</time></trkpt><trkpt lat="33.3974348" lon="8.421898"><ele>23.0</ele><time>2026-04-18T09:15:36.359Z</time></trkpt><trkpt lat="33.3974527" lon="8.4216506"><ele>23.0</ele><time>2026-04-18T09:15:37.36Z</time></trkpt><trkpt lat="33.3974717" lon="8.4214079"><ele>23.0</ele><time>2026-04-18T09:15:38.359Z</time></trkpt><trkpt lat="33.3974914" lon="8.421168"><ele>23.0</ele><time>2026-04-18T09:15:39.359Z</time></trkpt><trkpt lat="33.3975107" lon="8.4209286"><ele>24.333333333333336</ele><time>2026-04-18T09:15:40.366Z</time></trkpt><trkpt lat="33.3975292" lon="8.4206894"><ele>25.666666666666668</ele><time>2026-04-18T09:15:41.365Z</time></trkpt><trkpt lat="33.3975466" lon="8.4204484"><ele>27.0</ele><time>2026-04-18T09:15:42.365Z</time></trkpt><trkpt lat="33.3975633" lon="8.4202058"><ele>27.0</ele><time>2026-04-18T09:15:43.362Z</time></trkpt><trkpt lat="33.3975797" lon="8.4199633"><ele>27.0</ele><time>2026-04-18T09:15:44.369Z</time></trkpt><trkpt lat="33.3975965" lon="8.4197238"><ele>27.0</ele><time>2026-04-18T09:15:45.36Z</time></trkpt><trkpt lat="33.3976147" lon="8.4194873"><ele>27.0</ele><time>2026-04-18T09:15:46.356Z</time></trkpt><trkpt lat="33.3976321" lon="8.4192533"><ele>27.0</ele><time>2026-04-18T09:15:47.363Z</time></trkpt><trkpt lat="33.3976491" lon="8.4190225"><ele>27.0</ele><time>2026-04-18T09:15:48.364Z</time></trkpt><trkpt lat="33.397666" lon="8.4187946"><ele>27.0</ele><time>2026-04-18T09:15:49.367Z</time></trkpt><trkpt lat="33.3976825" lon="8.4185692"><ele>27.0</ele><time>2026-04-18T09:15:50.362Z</time></trkpt><trkpt lat="33.3976973" lon="8.4183453"><ele>27.0</ele><time>2026-04-18T09:15:51.362Z</time></trkpt><trkpt lat="33.3977113" lon="8.4181242"><ele>27.0</ele><time>2026-04-18T09:15:52.358Z</time></trkpt><trkpt lat="33.397725" lon="8.4179009"><ele>27.0</ele><time>2026-04-18T09:15:53.357Z</time></trkpt><trkpt lat="33.3977388" lon="8.4176748"><ele>27.0</ele><time>2026-04-18T09:15:54.356Z</time></trkpt><trkpt lat="33.397755" lon="8.4174457"><ele>27.0</ele><time>2026-04-18T09:15:55.364Z</time></trkpt><trkpt lat="33.3977719" lon="8.417213"><ele>27.0</ele><time>2026-04-18T09:15:56.355Z</time></trkpt><trkpt lat="33.3977889" lon="8.4169773"><ele>27.0</ele><time>2026-04-18T09:15:57.358Z</time></trkpt><trkpt lat="33.3978066" lon="8.4167401"><ele>26.666666666666664</ele><time>2026-04-18T09:15:58.359Z</time></trkpt><trkpt lat="33.3978244" lon="8.4165024"><ele>26.333333333333332</ele><time>2026-04-18T09:15:59.358Z</time></trkpt><trkpt lat="33.397842" lon="8.416262"><ele>26.0</ele><time>2026-04-18T09:16:00.356Z</time></trkpt><trkpt lat="33.3978596" lon="8.4160215"><ele>26.0</ele><time>2026-04-18T09:16:01.359Z</time></trkpt><trkpt lat="33.3978774" lon="8.4157793"><ele>26.0</ele><time>2026-04-18T09:16:02.361Z</time></trkpt><trkpt lat="33.3978946" lon="8.4155359"><ele>26.0</ele><time>2026-04-18T09:16:03.365Z</time></trkpt><trkpt lat="33.397912" lon="8.4152916"><ele>26.666666666666664</ele><time>2026-04-18T09:16:04.361Z</time></trkpt><trkpt lat="33.3979295" lon="8.4150456"><ele>27.333333333333336</ele><time>2026-04-18T09:16:05.365Z</time></trkpt><trkpt lat="33.3979472" lon="8.4148004"><ele>28.0</ele><time>2026-04-18T09:16:06.356Z</time></trkpt><trkpt lat="33.3979651" lon="8.4145536"><ele>28.333333333333336</ele><time>2026-04-18T09:16:07.359Z</time></trkpt><trkpt lat="33.3979827" lon="8.4143063"><ele>28.666666666666664</ele><time>2026-04-18T09:16:08.361Z</time></trkpt><trkpt lat="33.3979998" lon="8.4140564"><ele>29.0</ele><time>2026-04-18T09:16:09.357Z</time></trkpt><trkpt lat="33.398017" lon="8.4138067"><ele>27.666666666666664</ele><time>2026-04-18T09:16:10.354Z</time></trkpt><trkpt lat="33.3980348" lon="8.4135556"><ele>26.333333333333336</ele><time>2026-04-18T09:16:11.358Z</time></trkpt><trkpt lat="33.398052" lon="8.4133025"><ele>25.0</ele><time>2026-04-18T09:16:12.36Z</time></trkpt><trkpt lat="33.3980681" lon="8.4130489"><ele>25.666666666666668</ele><time>2026-04-18T09:16:13.365Z</time></trkpt><trkpt lat="33.3980847" lon="8.4127968"><ele>26.333333333333336</ele><time>2026-04-18T09:16:14.36Z</time></trkpt><trkpt lat="33.398101" lon="8.4125467"><ele>27.0</ele><time>2026-04-18T09:16:15.358Z</time></trkpt><trkpt lat="33.3981166" lon="8.4122977"><ele>26.666666666666664</ele><time>2026-04-18T09:16:16.363Z</time></trkpt><trkpt lat="33.3981334" lon="8.4120505"><ele>26.333333333333332</ele><time>2026-04-18T09:16:17.364Z</time></trkpt><trkpt lat="33.3981518" lon="8.4118089"><ele>26.0</ele><time>2026-04-18T09:16:18.36Z</time></trkpt><trkpt lat="33.3981717" lon="8.4115687"><ele>26.0</ele><time>2026-04-18T09:16:19.361Z</time></trkpt><trkpt lat="33.3981909" lon="8.4113313"><ele>26.0</ele><time>2026-04-18T09:16:20.357Z</time></trkpt><trkpt lat="33.3982094" lon="8.411095"><ele>26.0</ele><time>2026-04-18T09:16:21.359Z</time></trkpt><trkpt lat="33.398227" lon="8.4108574"><ele>25.666666666666664</ele><time>2026-04-18T09:16:22.362Z</time></trkpt><trkpt lat="33.3982442" lon="8.4106211"><ele>25.333333333333336</ele><time>2026-04-18T09:16:23.36Z</time></trkpt><trkpt lat="33.3982629" lon="8.4103846"><ele>25.0</ele><time>2026-04-18T09:16:24.361Z</time></trkpt><trkpt lat="33.3982811" lon="8.4101488"><ele>25.0</ele><time>2026-04-18T09:16:25.365Z</time></trkpt><trkpt lat="33.3982997" lon="8.4099134"><ele>25.0</ele><time>2026-04-18T09:16:26.356Z</time></trkpt><trkpt lat="33.3983185" lon="8.4096783"><ele>25.0</ele><time>2026-04-18T09:16:27.359Z</time></trkpt><trkpt lat="33.3983379" lon="8.409442"><ele>24.666666666666668</ele><time>2026-04-18T09:16:28.359Z</time></trkpt><trkpt lat="33.3983572" lon="8.4092051"><ele>24.333333333333336</ele><time>2026-04-18T09:16:29.358Z</time></trkpt><trkpt lat="33.3983761" lon="8.4089674"><ele>24.0</ele><time>2026-04-18T09:16:30.357Z</time></trkpt><trkpt lat="33.398394" lon="8.408729"><ele>24.0</ele><time>2026-04-18T09:16:31.363Z</time></trkpt><trkpt lat="33.3984115" lon="8.4084903"><ele>24.0</ele><time>2026-04-18T09:16:32.359Z</time></trkpt><trkpt lat="33.3984296" lon="8.4082517"><ele>24.0</ele><time>2026-04-18T09:16:33.366Z</time></trkpt><trkpt lat="33.3984485" lon="8.4080146"><ele>24.333333333333336</ele><time>2026-04-18T09:16:34.362Z</time></trkpt><trkpt lat="33.3984659" lon="8.4077779"><ele>24.666666666666668</ele><time>2026-04-18T09:16:35.36Z</time></trkpt><trkpt lat="33.3984828" lon="8.4075406"><ele>25.0</ele><time>2026-04-18T09:16:36.36Z</time></trkpt><trkpt lat="33.3984987" lon="8.4073033"><ele>24.666666666666668</ele><time>2026-04-18T09:16:37.357Z</time></trkpt><trkpt lat="33.3985147" lon="8.4070668"><ele>24.333333333333336</ele><time>2026-04-18T09:16:38.359Z</time></trkpt><trkpt lat="33.3985308" lon="8.4068269"><ele>24.0</ele><time>2026-04-18T09:16:39.364Z</time></trkpt><trkpt lat="33.3985458" lon="8.4065866"><ele>24.0</ele><time>2026-04-18T09:16:40.363Z</time></trkpt><trkpt lat="33.3985588" lon="8.4063555"><ele>24.0</ele><time>2026-04-18T09:16:41.359Z</time></trkpt><trkpt lat="33.3985684" lon="8.4061356"><ele>24.0</ele><time>2026-04-18T09:16:42.359Z</time></trkpt><trkpt lat="33.3985786" lon="8.4059264"><ele>23.666666666666668</ele><time>2026-04-18T09:16:43.36Z</time></trkpt><trkpt lat="33.3985942" lon="8.4057246"><ele>23.333333333333336</ele><time>2026-04-18T09:16:44.361Z</time></trkpt><trkpt lat="33.398614" lon="8.4055205"><ele>23.0</ele><time>2026-04-18T09:16:45.359Z</time></trkpt><trkpt lat="33.3986318" lon="8.4053123"><ele>24.0</ele><time>2026-04-18T09:16:46.362Z</time></trkpt><trkpt lat="33.3986478" lon="8.4051005"><ele>25.0</ele><time>2026-04-18T09:16:47.361Z</time></trkpt><trkpt lat="33.3986638" lon="8.4048883"><ele>26.0</ele><time>2026-04-18T09:16:48.36Z</time></trkpt><trkpt lat="33.3986788" lon="8.4046878"><ele>26.0</ele><time>2026-04-18T09:16:49.362Z</time></trkpt><trkpt lat="33.398692" lon="8.4045011"><ele>26.0</ele><time>2026-04-18T09:16:50.358Z</time></trkpt><trkpt lat="33.3987052" lon="8.4043295"><ele>26.0</ele><time>2026-04-18T09:16:51.358Z</time></trkpt><trkpt lat="33.398718" lon="8.4041726"><ele>26.0</ele><time>2026-04-18T09:16:52.362Z</time></trkpt><trkpt lat="33.3987286" lon="8.4040409"><ele>25.999999999999996</ele><time>2026-04-18T09:16:53.361Z</time></trkpt><trkpt lat="33.3987364" lon="8.4039302"><ele>26.0</ele><time>2026-04-18T09:16:54.361Z</time></trkpt><trkpt lat="33.3987424" lon="8.4038313"><ele>26.0</ele><time>2026-04-18T09:16:55.367Z</time></trkpt><trkpt lat="33.3987505" lon="8.4037393"><ele>26.0</ele><time>2026-04-18T09:16:56.362Z</time></trkpt><trkpt lat="33.3987607" lon="8.4036515"><ele>25.999999999999996</ele><time>2026-04-18T09:16:57.366Z</time></trkpt><trkpt lat="33.3987709" lon="8.4035669"><ele>26.0</ele><time>2026-04-18T09:16:58.368Z</time></trkpt><trkpt lat="33.3987795" lon="8.4034873"><ele>25.6</ele><time>2026-04-18T09:16:59.365Z</time></trkpt><trkpt lat="33.3987895" lon="8.4033748"><ele>25.200000000000003</ele><time>2026-04-18T09:17:01.36Z</time></trkpt><trkpt lat="33.3987955" lon="8.4032764"><ele>24.799999999999997</ele><time>2026-04-18T09:17:37.368Z</time></trkpt><trkpt lat="33.3987999" lon="8.4031783"><ele>24.4</ele><time>2026-04-18T09:17:38.366Z</time></trkpt><trkpt lat="33.3988071" lon="8.4030279"><ele>24.0</ele><time>2026-04-18T09:17:39.366Z</time></trkpt><trkpt lat="33.3988204" lon="8.4028181"><ele>23.5</ele><time>2026-04-18T09:17:40.363Z</time></trkpt><trkpt lat="33.3988376" lon="8.4025671"><ele>23.0</ele><time>2026-04-18T09:17:41.372Z</time></trkpt><trkpt lat="33.3988577" lon="8.402272"><ele>23.0</ele><time>2026-04-18T09:17:42.369Z</time></trkpt><trkpt lat="33.3988761" lon="8.4019781"><ele>23.0</ele><time>2026-04-18T09:17:43.366Z</time></trkpt><trkpt lat="33.3988923" lon="8.401706"><ele>23.0</ele><time>2026-04-18T09:17:44.363Z</time></trkpt><trkpt lat="33.3989067" lon="8.4014547"><ele>23.0</ele><time>2026-04-18T09:17:45.367Z</time></trkpt><trkpt lat="33.3989202" lon="8.4012205"><ele>23.0</ele><time>2026-04-18T09:17:46.364Z</time></trkpt><trkpt lat="33.3989332" lon="8.4010024"><ele>23.333333333333336</ele><time>2026-04-18T09:17:47.36Z</time></trkpt><trkpt lat="33.3989469" lon="8.4007979"><ele>23.666666666666668</ele><time>2026-04-18T09:17:48.366Z</time></trkpt><trkpt lat="33.3989606" lon="8.4006021"><ele>24.0</ele><time>2026-04-18T09:17:49.367Z</time></trkpt><trkpt lat="33.398974" lon="8.4004141"><ele>24.0</ele><time>2026-04-18T09:17:50.372Z</time></trkpt><trkpt lat="33.3989869" lon="8.4002306"><ele>24.0</ele><time>2026-04-18T09:17:51.372Z</time></trkpt><trkpt lat="33.3989997" lon="8.4000484"><ele>24.0</ele><time>2026-04-18T09:17:52.362Z</time></trkpt><trkpt lat="33.3990117" lon="8.399868"><ele>24.0</ele><time>2026-04-18T09:17:53.371Z</time></trkpt><trkpt lat="33.3990242" lon="8.3996906"><ele>24.0</ele><time>2026-04-18T09:17:54.368Z</time></trkpt><trkpt lat="33.3990368" lon="8.3995094"><ele>24.0</ele><time>2026-04-18T09:17:55.373Z</time></trkpt><trkpt lat="33.3990501" lon="8.3993232"><ele>24.0</ele><time>2026-04-18T09:17:56.366Z</time></trkpt><trkpt lat="33.3990637" lon="8.3991343"><ele>24.0</ele><time>2026-04-18T09:17:57.37Z</time></trkpt><trkpt lat="33.399079" lon="8.3989419"><ele>24.0</ele><time>2026-04-18T09:17:58.362Z</time></trkpt><trkpt lat="33.3990953" lon="8.3987432"><ele>23.666666666666668</ele><time>2026-04-18T09:17:59.369Z</time></trkpt><trkpt lat="33.3991122" lon="8.3985364"><ele>23.333333333333336</ele><time>2026-04-18T09:18:00.366Z</time></trkpt><trkpt lat="33.3991295" lon="8.3983231"><ele>23.0</ele><time>2026-04-18T09:18:01.364Z</time></trkpt><trkpt lat="33.3991449" lon="8.3981087"><ele>23.333333333333336</ele><time>2026-04-18T09:18:02.37Z</time></trkpt><trkpt lat="33.3991589" lon="8.3978927"><ele>23.666666666666668</ele><time>2026-04-18T09:18:03.365Z</time></trkpt><trkpt lat="33.3991729" lon="8.3976759"><ele>24.0</ele><time>2026-04-18T09:18:04.38Z</time></trkpt><trkpt lat="33.3991874" lon="8.3974558"><ele>24.0</ele><time>2026-04-18T09:18:05.368Z</time></trkpt><trkpt lat="33.3992027" lon="8.3972336"><ele>24.0</ele><time>2026-04-18T09:18:06.359Z</time></trkpt><trkpt lat="33.3992184" lon="8.3970089"><ele>24.0</ele><time>2026-04-18T09:18:07.378Z</time></trkpt><trkpt lat="33.3992332" lon="8.3967826"><ele>24.0</ele><time>2026-04-18T09:18:08.374Z</time></trkpt><trkpt lat="33.3992467" lon="8.396555"><ele>24.0</ele><time>2026-04-18T09:18:09.367Z</time></trkpt><trkpt lat="33.3992602" lon="8.3963262"><ele>24.0</ele><time>2026-04-18T09:18:10.363Z</time></trkpt><trkpt lat="33.3992731" lon="8.3960983"><ele>24.0</ele><time>2026-04-18T09:18:11.371Z</time></trkpt><trkpt lat="33.3992857" lon="8.395871"><ele>24.0</ele><time>2026-04-18T09:18:12.365Z</time></trkpt><trkpt lat="33.3992995" lon="8.3956432"><ele>24.0</ele><time>2026-04-18T09:18:13.365Z</time></trkpt><trkpt lat="33.399314" lon="8.395415"><ele>24.333333333333336</ele><time>2026-04-18T09:18:14.369Z</time></trkpt><trkpt lat="33.3993299" lon="8.3951874"><ele>24.666666666666668</ele><time>2026-04-18T09:18:15.368Z</time></trkpt><trkpt lat="33.399346" lon="8.3949602"><ele>25.0</ele><time>2026-04-18T09:18:16.361Z</time></trkpt><trkpt lat="33.3993611" lon="8.3947327"><ele>25.0</ele><time>2026-04-18T09:18:17.363Z</time></trkpt><trkpt lat="33.3993744" lon="8.3945038"><ele>25.0</ele><time>2026-04-18T09:18:18.356Z</time></trkpt><trkpt lat="33.3993885" lon="8.3942749"><ele>25.0</ele><time>2026-04-18T09:18:19.365Z</time></trkpt><trkpt lat="33.3994036" lon="8.3940477"><ele>24.666666666666668</ele><time>2026-04-18T09:18:20.368Z</time></trkpt><trkpt lat="33.39942" lon="8.3938249"><ele>24.333333333333336</ele><time>2026-04-18T09:18:21.365Z</time></trkpt><trkpt lat="33.3994369" lon="8.393606"><ele>24.0</ele><time>2026-04-18T09:18:22.369Z</time></trkpt><trkpt lat="33.3994534" lon="8.3933878"><ele>24.0</ele><time>2026-04-18T09:18:23.363Z</time></trkpt><trkpt lat="33.3994712" lon="8.3931628"><ele>24.0</ele><time>2026-04-18T09:18:24.367Z</time></trkpt><trkpt lat="33.3994903" lon="8.3929312"><ele>24.0</ele><time>2026-04-18T09:18:25.37Z</time></trkpt><trkpt lat="33.3995101" lon="8.3926949"><ele>23.666666666666668</ele><time>2026-04-18T09:18:26.361Z</time></trkpt><trkpt lat="33.3995285" lon="8.3924575"><ele>23.333333333333336</ele><time>2026-04-18T09:18:27.368Z</time></trkpt><trkpt lat="33.3995463" lon="8.3922226"><ele>23.0</ele><time>2026-04-18T09:18:28.365Z</time></trkpt><trkpt lat="33.399564" lon="8.3919941"><ele>23.0</ele><time>2026-04-18T09:18:29.368Z</time></trkpt><trkpt lat="33.3995811" lon="8.3917671"><ele>23.0</ele><time>2026-04-18T09:18:30.367Z</time></trkpt><trkpt lat="33.3995969" lon="8.3915411"><ele>23.0</ele><time>2026-04-18T09:18:31.367Z</time></trkpt><trkpt lat="33.3996134" lon="8.3913217"><ele>23.333333333333336</ele><time>2026-04-18T09:18:32.366Z</time></trkpt><trkpt lat="33.3996294" lon="8.3911064"><ele>23.666666666666668</ele><time>2026-04-18T09:18:33.365Z</time></trkpt><trkpt lat="33.3996439" lon="8.3908939"><ele>24.0</ele><time>2026-04-18T09:18:34.37Z</time></trkpt><trkpt lat="33.3996594" lon="8.3906826"><ele>23.333333333333332</ele><time>2026-04-18T09:18:35.363Z</time></trkpt><trkpt lat="33.3996754" lon="8.3904745"><ele>22.666666666666664</ele><time>2026-04-18T09:18:36.37Z</time></trkpt><trkpt lat="33.3996899" lon="8.3902697"><ele>22.0</ele><time>2026-04-18T09:18:37.369Z</time></trkpt><trkpt lat="33.3997029" lon="8.3900688"><ele>22.0</ele><time>2026-04-18T09:18:38.368Z</time></trkpt><trkpt lat="33.3997159" lon="8.389874"><ele>22.0</ele><time>2026-04-18T09:18:39.359Z</time></trkpt><trkpt lat="33.3997281" lon="8.3896808"><ele>22.0</ele><time>2026-04-18T09:18:40.359Z</time></trkpt><trkpt lat="33.3997416" lon="8.3894813"><ele>22.333333333333332</ele><time>2026-04-18T09:18:41.365Z</time></trkpt><trkpt lat="33.3997572" lon="8.389277"><ele>22.666666666666668</ele><time>2026-04-18T09:18:42.364Z</time></trkpt><trkpt lat="33.3997731" lon="8.3890669"><ele>23.0</ele><time>2026-04-18T09:18:43.36Z</time></trkpt><trkpt lat="33.3997895" lon="8.3888509"><ele>23.0</ele><time>2026-04-18T09:18:44.365Z</time></trkpt><trkpt lat="33.3998058" lon="8.3886295"><ele>23.0</ele><time>2026-04-18T09:18:45.366Z</time></trkpt><trkpt lat="33.3998217" lon="8.3884037"><ele>23.0</ele><time>2026-04-18T09:18:46.361Z</time></trkpt><trkpt lat="33.399838" lon="8.3881738"><ele>22.666666666666668</ele><time>2026-04-18T09:18:47.361Z</time></trkpt><trkpt lat="33.3998545" lon="8.3879409"><ele>22.333333333333332</ele><time>2026-04-18T09:18:48.37Z</time></trkpt><trkpt lat="33.3998703" lon="8.3877084"><ele>22.0</ele><time>2026-04-18T09:18:49.36Z</time></trkpt><trkpt lat="33.3998851" lon="8.3874764"><ele>22.0</ele><time>2026-04-18T09:18:50.371Z</time></trkpt><trkpt lat="33.3999" lon="8.3872445"><ele>22.0</ele><time>2026-04-18T09:18:51.368Z</time></trkpt><trkpt lat="33.3999162" lon="8.3870144"><ele>22.0</ele><time>2026-04-18T09:18:52.372Z</time></trkpt><trkpt lat="33.3999322" lon="8.3867866"><ele>22.0</ele><time>2026-04-18T09:18:53.369Z</time></trkpt><trkpt lat="33.3999478" lon="8.3865612"><ele>22.0</ele><time>2026-04-18T09:18:54.367Z</time></trkpt><trkpt lat="33.399964" lon="8.3863393"><ele>22.0</ele><time>2026-04-18T09:18:55.366Z</time></trkpt><trkpt lat="33.3999801" lon="8.3861221"><ele>22.0</ele><time>2026-04-18T09:18:56.368Z</time></trkpt><trkpt lat="33.3999959" lon="8.3859078"><ele>22.0</ele><time>2026-04-18T09:18:57.368Z</time></trkpt><trkpt lat="33.4000116" lon="8.3856942"><ele>22.0</ele><time>2026-04-18T09:18:58.367Z</time></trkpt><trkpt lat="33.4000268" lon="8.3854776"><ele>22.666666666666664</ele><time>2026-04-18T09:18:59.37Z</time></trkpt><trkpt lat="33.4000417" lon="8.3852555"><ele>23.333333333333332</ele><time>2026-04-18T09:19:00.364Z</time></trkpt><trkpt lat="33.4000584" lon="8.3850226"><ele>24.0</ele><time>2026-04-18T09:19:01.362Z</time></trkpt><trkpt lat="33.4000772" lon="8.3847799"><ele>23.666666666666668</ele><time>2026-04-18T09:19:02.368Z</time></trkpt><trkpt lat="33.4000972" lon="8.3845302"><ele>23.333333333333336</ele><time>2026-04-18T09:19:03.368Z</time></trkpt><trkpt lat="33.4001171" lon="8.3842745"><ele>23.0</ele><time>2026-04-18T09:19:04.364Z</time></trkpt><trkpt lat="33.4001365" lon="8.3840121"><ele>23.0</ele><time>2026-04-18T09:19:05.368Z</time></trkpt><trkpt lat="33.4001558" lon="8.3837409"><ele>23.0</ele><time>2026-04-18T09:19:06.366Z</time></trkpt><trkpt lat="33.4001765" lon="8.3834564"><ele>23.0</ele><time>2026-04-18T09:19:07.374Z</time></trkpt><trkpt lat="33.4001974" lon="8.383166"><ele>23.0</ele><time>2026-04-18T09:19:08.362Z</time></trkpt><trkpt lat="33.400217" lon="8.3828936"><ele>23.0</ele><time>2026-04-18T09:19:09.372Z</time></trkpt><trkpt lat="33.4002361" lon="8.3826352"><ele>23.0</ele><time>2026-04-18T09:19:10.372Z</time></trkpt><trkpt lat="33.4002557" lon="8.382383"><ele>23.0</ele><time>2026-04-18T09:19:11.368Z</time></trkpt><trkpt lat="33.400275" lon="8.3821374"><ele>23.0</ele><time>2026-04-18T09:19:12.365Z</time></trkpt><trkpt lat="33.4002929" lon="8.3818946"><ele>23.0</ele><time>2026-04-18T09:19:13.365Z</time></trkpt><trkpt lat="33.4003119" lon="8.381651"><ele>23.0</ele><time>2026-04-18T09:19:14.359Z</time></trkpt><trkpt lat="33.4003321" lon="8.3814053"><ele>23.0</ele><time>2026-04-18T09:19:15.367Z</time></trkpt><trkpt lat="33.4003524" lon="8.3811603"><ele>23.0</ele><time>2026-04-18T09:19:16.366Z</time></trkpt><trkpt lat="33.4003719" lon="8.3809153"><ele>23.0</ele><time>2026-04-18T09:19:17.36Z</time></trkpt><trkpt lat="33.4003901" lon="8.3806714"><ele>22.666666666666668</ele><time>2026-04-18T09:19:18.364Z</time></trkpt><trkpt lat="33.4004067" lon="8.3804293"><ele>22.333333333333332</ele><time>2026-04-18T09:19:19.368Z</time></trkpt><trkpt lat="33.4004219" lon="8.380187"><ele>22.0</ele><time>2026-04-18T09:19:20.362Z</time></trkpt><trkpt lat="33.4004375" lon="8.3799457"><ele>22.0</ele><time>2026-04-18T09:19:21.369Z</time></trkpt><trkpt lat="33.4004539" lon="8.3797046"><ele>22.0</ele><time>2026-04-18T09:19:22.358Z</time></trkpt><trkpt lat="33.400471" lon="8.3794639"><ele>22.0</ele><time>2026-04-18T09:19:23.364Z</time></trkpt><trkpt lat="33.4004881" lon="8.3792238"><ele>22.0</ele><time>2026-04-18T09:19:24.36Z</time></trkpt><trkpt lat="33.400505" lon="8.3789865"><ele>22.0</ele><time>2026-04-18T09:19:25.368Z</time></trkpt><trkpt lat="33.4005205" lon="8.3787515"><ele>22.0</ele><time>2026-04-18T09:19:26.37Z</time></trkpt><trkpt lat="33.4005348" lon="8.3785179"><ele>22.0</ele><time>2026-04-18T09:19:27.372Z</time></trkpt><trkpt lat="33.4005497" lon="8.3782872"><ele>22.0</ele><time>2026-04-18T09:19:28.367Z</time></trkpt><trkpt lat="33.4005661" lon="8.3780616"><ele>22.0</ele><time>2026-04-18T09:19:29.366Z</time></trkpt><trkpt lat="33.4005826" lon="8.3778398"><ele>22.0</ele><time>2026-04-18T09:19:30.37Z</time></trkpt><trkpt lat="33.4005977" lon="8.3776175"><ele>22.0</ele><time>2026-04-18T09:19:31.366Z</time></trkpt><trkpt lat="33.4006123" lon="8.3773944"><ele>22.0</ele><time>2026-04-18T09:19:32.362Z</time></trkpt><trkpt lat="33.4006274" lon="8.3771703"><ele>22.0</ele><time>2026-04-18T09:19:33.373Z</time></trkpt><trkpt lat="33.400643" lon="8.3769421"><ele>22.0</ele><time>2026-04-18T09:19:34.369Z</time></trkpt><trkpt lat="33.4006585" lon="8.376711"><ele>22.0</ele><time>2026-04-18T09:19:35.368Z</time></trkpt><trkpt lat="33.4006745" lon="8.3764795"><ele>23.333333333333332</ele><time>2026-04-18T09:19:36.364Z</time></trkpt><trkpt lat="33.4006913" lon="8.3762489"><ele>24.666666666666664</ele><time>2026-04-18T09:19:37.368Z</time></trkpt><trkpt lat="33.4007075" lon="8.3760192"><ele>26.0</ele><time>2026-04-18T09:19:38.367Z</time></trkpt><trkpt lat="33.4007244" lon="8.3757926"><ele>26.0</ele><time>2026-04-18T09:19:39.369Z</time></trkpt><trkpt lat="33.4007418" lon="8.3755692"><ele>26.0</ele><time>2026-04-18T09:19:40.359Z</time></trkpt><trkpt lat="33.4007585" lon="8.3753503"><ele>26.0</ele><time>2026-04-18T09:19:41.363Z</time></trkpt><trkpt lat="33.400775" lon="8.3751373"><ele>26.0</ele><time>2026-04-18T09:19:42.361Z</time></trkpt><trkpt lat="33.4007905" lon="8.3749318"><ele>26.0</ele><time>2026-04-18T09:19:43.361Z</time></trkpt><trkpt lat="33.4008053" lon="8.374726"><ele>26.0</ele><time>2026-04-18T09:19:44.366Z</time></trkpt><trkpt lat="33.4008171" lon="8.3745258"><ele>24.666666666666664</ele><time>2026-04-18T09:19:45.361Z</time></trkpt><trkpt lat="33.4008272" lon="8.3743295"><ele>23.333333333333332</ele><time>2026-04-18T09:19:46.358Z</time></trkpt><trkpt lat="33.4008379" lon="8.3741346"><ele>22.0</ele><time>2026-04-18T09:19:47.359Z</time></trkpt><trkpt lat="33.4008505" lon="8.3739386"><ele>22.666666666666664</ele><time>2026-04-18T09:19:48.372Z</time></trkpt><trkpt lat="33.4008661" lon="8.3737393"><ele>23.333333333333332</ele><time>2026-04-18T09:19:49.359Z</time></trkpt><trkpt lat="33.4008824" lon="8.3735334"><ele>24.0</ele><time>2026-04-18T09:19:50.366Z</time></trkpt><trkpt lat="33.4008979" lon="8.3733211"><ele>24.0</ele><time>2026-04-18T09:19:51.365Z</time></trkpt><trkpt lat="33.4009153" lon="8.3731038"><ele>24.0</ele><time>2026-04-18T09:19:52.367Z</time></trkpt><trkpt lat="33.4009318" lon="8.3728838"><ele>24.0</ele><time>2026-04-18T09:19:53.363Z</time></trkpt><trkpt lat="33.4009472" lon="8.3726594"><ele>25.0</ele><time>2026-04-18T09:19:54.363Z</time></trkpt><trkpt lat="33.4009616" lon="8.3724312"><ele>26.0</ele><time>2026-04-18T09:19:55.36Z</time></trkpt><trkpt lat="33.4009761" lon="8.3721998"><ele>27.0</ele><time>2026-04-18T09:19:56.369Z</time></trkpt><trkpt lat="33.4009918" lon="8.37197"><ele>27.333333333333336</ele><time>2026-04-18T09:19:57.365Z</time></trkpt><trkpt lat="33.4010084" lon="8.3717419"><ele>27.666666666666668</ele><time>2026-04-18T09:19:58.355Z</time></trkpt><trkpt lat="33.4010248" lon="8.3715133"><ele>28.0</ele><time>2026-04-18T09:19:59.359Z</time></trkpt><trkpt lat="33.4010419" lon="8.3712882"><ele>27.0</ele><time>2026-04-18T09:20:00.366Z</time></trkpt><trkpt lat="33.4010594" lon="8.3710625"><ele>26.0</ele><time>2026-04-18T09:20:01.36Z</time></trkpt><trkpt lat="33.401077" lon="8.3708349"><ele>25.0</ele><time>2026-04-18T09:20:02.358Z</time></trkpt><trkpt lat="33.4010947" lon="8.3706067"><ele>25.0</ele><time>2026-04-18T09:20:03.361Z</time></trkpt><trkpt lat="33.4011125" lon="8.3703788"><ele>25.0</ele><time>2026-04-18T09:20:04.359Z</time></trkpt><trkpt lat="33.4011301" lon="8.3701512"><ele>25.0</ele><time>2026-04-18T09:20:05.36Z</time></trkpt><trkpt lat="33.4011469" lon="8.369924"><ele>25.0</ele><time>2026-04-18T09:20:06.367Z</time></trkpt><trkpt lat="33.4011641" lon="8.3696965"><ele>25.0</ele><time>2026-04-18T09:20:07.359Z</time></trkpt><trkpt lat="33.4011814" lon="8.3694697"><ele>25.0</ele><time>2026-04-18T09:20:08.358Z</time></trkpt><trkpt lat="33.4011974" lon="8.3692428"><ele>24.666666666666668</ele><time>2026-04-18T09:20:09.362Z</time></trkpt><trkpt lat="33.4012124" lon="8.3690148"><ele>24.333333333333336</ele><time>2026-04-18T09:20:10.365Z</time></trkpt><trkpt lat="33.4012273" lon="8.3687836"><ele>24.0</ele><time>2026-04-18T09:20:11.357Z</time></trkpt><trkpt lat="33.4012417" lon="8.3685532"><ele>24.0</ele><time>2026-04-18T09:20:12.367Z</time></trkpt><trkpt lat="33.4012551" lon="8.3683335"><ele>24.0</ele><time>2026-04-18T09:20:13.36Z</time></trkpt><trkpt lat="33.4012686" lon="8.3681205"><ele>24.0</ele><time>2026-04-18T09:20:14.369Z</time></trkpt><trkpt lat="33.4012846" lon="8.3679063"><ele>24.0</ele><time>2026-04-18T09:20:15.364Z</time></trkpt><trkpt lat="33.4013025" lon="8.3676904"><ele>24.0</ele><time>2026-04-18T09:20:16.367Z</time></trkpt><trkpt lat="33.4013206" lon="8.3674679"><ele>24.0</ele><time>2026-04-18T09:20:17.361Z</time></trkpt><trkpt lat="33.4013375" lon="8.3672372"><ele>24.333333333333336</ele><time>2026-04-18T09:20:18.359Z</time></trkpt><trkpt lat="33.4013537" lon="8.3670025"><ele>24.666666666666668</ele><time>2026-04-18T09:20:19.361Z</time></trkpt><trkpt lat="33.4013706" lon="8.3667668"><ele>25.0</ele><time>2026-04-18T09:20:20.362Z</time></trkpt><trkpt lat="33.4013868" lon="8.3665308"><ele>24.666666666666668</ele><time>2026-04-18T09:20:21.359Z</time></trkpt><trkpt lat="33.4014016" lon="8.3662952"><ele>24.333333333333336</ele><time>2026-04-18T09:20:22.359Z</time></trkpt><trkpt lat="33.4014174" lon="8.3660599"><ele>24.0</ele><time>2026-04-18T09:20:23.36Z</time></trkpt><trkpt lat="33.401435" lon="8.365824"><ele>24.0</ele><time>2026-04-18T09:20:24.358Z</time></trkpt><trkpt lat="33.4014526" lon="8.3655896"><ele>24.0</ele><time>2026-04-18T09:20:25.357Z</time></trkpt><trkpt lat="33.4014692" lon="8.3653589"><ele>24.0</ele><time>2026-04-18T09:20:26.363Z</time></trkpt><trkpt lat="33.4014858" lon="8.3651274"><ele>23.333333333333332</ele><time>2026-04-18T09:20:27.364Z</time></trkpt><trkpt lat="33.4015026" lon="8.3648949"><ele>22.666666666666664</ele><time>2026-04-18T09:20:28.356Z</time></trkpt><trkpt lat="33.4015193" lon="8.3646602"><ele>22.0</ele><time>2026-04-18T09:20:29.357Z</time></trkpt><trkpt lat="33.401535" lon="8.3644233"><ele>22.0</ele><time>2026-04-18T09:20:30.356Z</time></trkpt><trkpt lat="33.4015504" lon="8.3641851"><ele>22.0</ele><time>2026-04-18T09:20:31.358Z</time></trkpt><trkpt lat="33.4015669" lon="8.3639479"><ele>22.0</ele><time>2026-04-18T09:20:32.358Z</time></trkpt><trkpt lat="33.4015847" lon="8.3637112"><ele>22.333333333333332</ele><time>2026-04-18T09:20:33.359Z</time></trkpt><trkpt lat="33.401603" lon="8.3634741"><ele>22.666666666666668</ele><time>2026-04-18T09:20:34.359Z</time></trkpt><trkpt lat="33.4016209" lon="8.3632377"><ele>23.0</ele><time>2026-04-18T09:20:35.358Z</time></trkpt><trkpt lat="33.4016384" lon="8.3630045"><ele>23.0</ele><time>2026-04-18T09:20:36.362Z</time></trkpt><trkpt lat="33.401656" lon="8.3627737"><ele>23.0</ele><time>2026-04-18T09:20:37.366Z</time></trkpt><trkpt lat="33.4016737" lon="8.362547"><ele>23.0</ele><time>2026-04-18T09:20:38.361Z</time></trkpt><trkpt lat="33.4016912" lon="8.3623221"><ele>22.666666666666668</ele><time>2026-04-18T09:20:39.357Z</time></trkpt><trkpt lat="33.4017084" lon="8.3620961"><ele>22.333333333333332</ele><time>2026-04-18T09:20:40.363Z</time></trkpt><trkpt lat="33.4017256" lon="8.3618686"><ele>22.0</ele><time>2026-04-18T09:20:41.366Z</time></trkpt><trkpt lat="33.4017436" lon="8.3616387"><ele>22.0</ele><time>2026-04-18T09:20:42.359Z</time></trkpt><trkpt lat="33.4017601" lon="8.3614075"><ele>22.0</ele><time>2026-04-18T09:20:43.368Z</time></trkpt><trkpt lat="33.401776" lon="8.3611757"><ele>22.0</ele><time>2026-04-18T09:20:44.369Z</time></trkpt><trkpt lat="33.4017915" lon="8.3609455"><ele>22.666666666666664</ele><time>2026-04-18T09:20:45.366Z</time></trkpt><trkpt lat="33.4018069" lon="8.3607138"><ele>23.333333333333332</ele><time>2026-04-18T09:20:46.361Z</time></trkpt><trkpt lat="33.401822" lon="8.3604804"><ele>24.0</ele><time>2026-04-18T09:20:47.364Z</time></trkpt><trkpt lat="33.4018383" lon="8.3602438"><ele>24.0</ele><time>2026-04-18T09:20:48.364Z</time></trkpt><trkpt lat="33.4018563" lon="8.3600054"><ele>24.0</ele><time>2026-04-18T09:20:49.359Z</time></trkpt><trkpt lat="33.4018747" lon="8.359768"><ele>24.0</ele><time>2026-04-18T09:20:50.361Z</time></trkpt><trkpt lat="33.4018927" lon="8.3595309"><ele>24.0</ele><time>2026-04-18T09:20:51.358Z</time></trkpt><trkpt lat="33.4019103" lon="8.3592968"><ele>24.0</ele><time>2026-04-18T09:20:52.362Z</time></trkpt><trkpt lat="33.4019269" lon="8.3590613"><ele>24.0</ele><time>2026-04-18T09:20:53.362Z</time></trkpt><trkpt lat="33.401943" lon="8.3588209"><ele>24.333333333333336</ele><time>2026-04-18T09:20:54.362Z</time></trkpt><trkpt lat="33.401961" lon="8.3585766"><ele>24.666666666666668</ele><time>2026-04-18T09:20:55.366Z</time></trkpt><trkpt lat="33.4019796" lon="8.3583326"><ele>25.0</ele><time>2026-04-18T09:20:56.362Z</time></trkpt><trkpt lat="33.4019989" lon="8.3580885"><ele>24.666666666666668</ele><time>2026-04-18T09:20:57.359Z</time></trkpt><trkpt lat="33.4020186" lon="8.357846"><ele>24.333333333333336</ele><time>2026-04-18T09:20:58.373Z</time></trkpt><trkpt lat="33.4020376" lon="8.357604"><ele>24.0</ele><time>2026-04-18T09:20:59.375Z</time></trkpt><trkpt lat="33.4020566" lon="8.3573594"><ele>24.0</ele><time>2026-04-18T09:21:00.375Z</time></trkpt><trkpt lat="33.402076" lon="8.35712"><ele>24.0</ele><time>2026-04-18T09:21:01.364Z</time></trkpt><trkpt lat="33.4020951" lon="8.3568765"><ele>24.0</ele><time>2026-04-18T09:21:02.364Z</time></trkpt><trkpt lat="33.4021138" lon="8.3566264"><ele>24.0</ele><time>2026-04-18T09:21:03.362Z</time></trkpt><trkpt lat="33.402133" lon="8.3563758"><ele>24.0</ele><time>2026-04-18T09:21:04.36Z</time></trkpt><trkpt lat="33.402151" lon="8.3561292"><ele>24.0</ele><time>2026-04-18T09:21:05.373Z</time></trkpt><trkpt lat="33.4021677" lon="8.3558853"><ele>24.0</ele><time>2026-04-18T09:21:06.361Z</time></trkpt><trkpt lat="33.4021843" lon="8.3556443"><ele>24.0</ele><time>2026-04-18T09:21:07.365Z</time></trkpt><trkpt lat="33.4022003" lon="8.3554053"><ele>24.0</ele><time>2026-04-18T09:21:08.362Z</time></trkpt><trkpt lat="33.4022167" lon="8.3551663"><ele>24.0</ele><time>2026-04-18T09:21:09.364Z</time></trkpt><trkpt lat="33.4022349" lon="8.3549269"><ele>24.0</ele><time>2026-04-18T09:21:10.37Z</time></trkpt><trkpt lat="33.4022543" lon="8.3546874"><ele>24.0</ele><time>2026-04-18T09:21:11.362Z</time></trkpt><trkpt lat="33.402272" lon="8.3544473"><ele>24.0</ele><time>2026-04-18T09:21:12.363Z</time></trkpt><trkpt lat="33.4022894" lon="8.3542073"><ele>24.0</ele><time>2026-04-18T09:21:13.362Z</time></trkpt><trkpt lat="33.4023063" lon="8.3539694"><ele>24.0</ele><time>2026-04-18T09:21:14.361Z</time></trkpt><trkpt lat="33.4023223" lon="8.3537316"><ele>24.0</ele><time>2026-04-18T09:21:15.364Z</time></trkpt><trkpt lat="33.4023381" lon="8.3534941"><ele>24.0</ele><time>2026-04-18T09:21:16.361Z</time></trkpt><trkpt lat="33.4023539" lon="8.3532588"><ele>24.0</ele><time>2026-04-18T09:21:17.358Z</time></trkpt><trkpt lat="33.4023697" lon="8.3530295"><ele>24.0</ele><time>2026-04-18T09:21:18.361Z</time></trkpt><trkpt lat="33.4023853" lon="8.3528064"><ele>24.0</ele><time>2026-04-18T09:21:19.364Z</time></trkpt><trkpt lat="33.4024001" lon="8.3525848"><ele>24.0</ele><time>2026-04-18T09:21:20.366Z</time></trkpt><trkpt lat="33.4024142" lon="8.3523602"><ele>24.0</ele><time>2026-04-18T09:21:21.359Z</time></trkpt><trkpt lat="33.4024279" lon="8.3521398"><ele>24.0</ele><time>2026-04-18T09:21:22.36Z</time></trkpt><trkpt lat="33.4024422" lon="8.3519107"><ele>24.0</ele><time>2026-04-18T09:21:23.361Z</time></trkpt><trkpt lat="33.402458" lon="8.3516729"><ele>24.0</ele><time>2026-04-18T09:21:24.364Z</time></trkpt><trkpt lat="33.4024738" lon="8.351432"><ele>24.0</ele><time>2026-04-18T09:21:25.359Z</time></trkpt><trkpt lat="33.4024887" lon="8.3511948"><ele>24.0</ele><time>2026-04-18T09:21:26.364Z</time></trkpt><trkpt lat="33.4025032" lon="8.3509673"><ele>23.666666666666668</ele><time>2026-04-18T09:21:27.362Z</time></trkpt><trkpt lat="33.4025165" lon="8.3507435"><ele>23.333333333333336</ele><time>2026-04-18T09:21:28.357Z</time></trkpt><trkpt lat="33.4025296" lon="8.3505215"><ele>23.0</ele><time>2026-04-18T09:21:29.359Z</time></trkpt><trkpt lat="33.4025433" lon="8.3502998"><ele>23.0</ele><time>2026-04-18T09:21:30.363Z</time></trkpt><trkpt lat="33.4025581" lon="8.350078"><ele>23.0</ele><time>2026-04-18T09:21:31.36Z</time></trkpt><trkpt lat="33.4025738" lon="8.3498562"><ele>23.0</ele><time>2026-04-18T09:21:32.361Z</time></trkpt><trkpt lat="33.4025897" lon="8.3496356"><ele>23.0</ele><time>2026-04-18T09:21:33.36Z</time></trkpt><trkpt lat="33.4026044" lon="8.3494176"><ele>23.0</ele><time>2026-04-18T09:21:34.363Z</time></trkpt><trkpt lat="33.4026184" lon="8.3492031"><ele>23.0</ele><time>2026-04-18T09:21:35.359Z</time></trkpt><trkpt lat="33.4026333" lon="8.3489901"><ele>23.0</ele><time>2026-04-18T09:21:36.356Z</time></trkpt><trkpt lat="33.4026498" lon="8.3487755"><ele>23.0</ele><time>2026-04-18T09:21:37.361Z</time></trkpt><trkpt lat="33.4026667" lon="8.3485571"><ele>23.0</ele><time>2026-04-18T09:21:38.361Z</time></trkpt><trkpt lat="33.402683" lon="8.3483346"><ele>23.0</ele><time>2026-04-18T09:21:39.36Z</time></trkpt><trkpt lat="33.4026996" lon="8.3481094"><ele>23.0</ele><time>2026-04-18T09:21:40.367Z</time></trkpt><trkpt lat="33.4027174" lon="8.3478792"><ele>23.0</ele><time>2026-04-18T09:21:41.359Z</time></trkpt><trkpt lat="33.402735" lon="8.3476435"><ele>23.0</ele><time>2026-04-18T09:21:42.357Z</time></trkpt><trkpt lat="33.4027515" lon="8.347407"><ele>23.0</ele><time>2026-04-18T09:21:43.36Z</time></trkpt><trkpt lat="33.4027672" lon="8.3471732"><ele>23.0</ele><time>2026-04-18T09:21:44.357Z</time></trkpt><trkpt lat="33.4027831" lon="8.3469424"><ele>23.0</ele><time>2026-04-18T09:21:45.363Z</time></trkpt><trkpt lat="33.4027987" lon="8.3467154"><ele>23.0</ele><time>2026-04-18T09:21:46.364Z</time></trkpt><trkpt lat="33.4028136" lon="8.346492"><ele>23.0</ele><time>2026-04-18T09:21:47.362Z</time></trkpt><trkpt lat="33.4028292" lon="8.3462729"><ele>23.666666666666668</ele><time>2026-04-18T09:21:48.36Z</time></trkpt><trkpt lat="33.4028466" lon="8.3460579"><ele>24.333333333333336</ele><time>2026-04-18T09:21:49.367Z</time></trkpt><trkpt lat="33.4028648" lon="8.3458435"><ele>25.0</ele><time>2026-04-18T09:21:50.363Z</time></trkpt><trkpt lat="33.4028824" lon="8.3456301"><ele>24.666666666666668</ele><time>2026-04-18T09:21:51.37Z</time></trkpt><trkpt lat="33.4028994" lon="8.3454163"><ele>24.333333333333336</ele><time>2026-04-18T09:21:52.359Z</time></trkpt><trkpt lat="33.4029158" lon="8.3452005"><ele>24.0</ele><time>2026-04-18T09:21:53.354Z</time></trkpt><trkpt lat="33.402932" lon="8.3449836"><ele>24.0</ele><time>2026-04-18T09:21:54.362Z</time></trkpt><trkpt lat="33.4029491" lon="8.3447657"><ele>24.0</ele><time>2026-04-18T09:21:55.357Z</time></trkpt><trkpt lat="33.4029666" lon="8.3445458"><ele>24.0</ele><time>2026-04-18T09:21:56.362Z</time></trkpt><trkpt lat="33.402983" lon="8.3443213"><ele>23.666666666666668</ele><time>2026-04-18T09:21:57.359Z</time></trkpt><trkpt lat="33.4029988" lon="8.3440965"><ele>23.333333333333336</ele><time>2026-04-18T09:21:58.358Z</time></trkpt><trkpt lat="33.4030158" lon="8.3438732"><ele>23.0</ele><time>2026-04-18T09:21:59.356Z</time></trkpt><trkpt lat="33.4030327" lon="8.343651"><ele>23.666666666666668</ele><time>2026-04-18T09:22:00.359Z</time></trkpt><trkpt lat="33.4030499" lon="8.3434279"><ele>24.333333333333336</ele><time>2026-04-18T09:22:01.358Z</time></trkpt><trkpt lat="33.4030661" lon="8.3432034"><ele>25.0</ele><time>2026-04-18T09:22:02.357Z</time></trkpt><trkpt lat="33.4030809" lon="8.3429767"><ele>25.0</ele><time>2026-04-18T09:22:03.358Z</time></trkpt><trkpt lat="33.4030961" lon="8.3427473"><ele>25.0</ele><time>2026-04-18T09:22:04.362Z</time></trkpt><trkpt lat="33.403112" lon="8.3425199"><ele>25.0</ele><time>2026-04-18T09:22:05.361Z</time></trkpt><trkpt lat="33.4031283" lon="8.3422936"><ele>25.333333333333336</ele><time>2026-04-18T09:22:06.361Z</time></trkpt><trkpt lat="33.4031448" lon="8.3420656"><ele>25.666666666666664</ele><time>2026-04-18T09:22:07.363Z</time></trkpt><trkpt lat="33.403161" lon="8.3418369"><ele>26.0</ele><time>2026-04-18T09:22:08.364Z</time></trkpt><trkpt lat="33.4031771" lon="8.3416044"><ele>25.666666666666664</ele><time>2026-04-18T09:22:09.362Z</time></trkpt><trkpt lat="33.4031929" lon="8.341369"><ele>25.333333333333336</ele><time>2026-04-18T09:22:10.358Z</time></trkpt><trkpt lat="33.403209" lon="8.3411324"><ele>25.0</ele><time>2026-04-18T09:22:11.359Z</time></trkpt><trkpt lat="33.4032262" lon="8.3408959"><ele>25.0</ele><time>2026-04-18T09:22:12.358Z</time></trkpt><trkpt lat="33.4032443" lon="8.3406594"><ele>25.0</ele><time>2026-04-18T09:22:13.356Z</time></trkpt><trkpt lat="33.4032623" lon="8.3404258"><ele>25.0</ele><time>2026-04-18T09:22:14.359Z</time></trkpt><trkpt lat="33.4032792" lon="8.3401941"><ele>25.0</ele><time>2026-04-18T09:22:15.365Z</time></trkpt><trkpt lat="33.4032948" lon="8.339963"><ele>25.0</ele><time>2026-04-18T09:22:16.361Z</time></trkpt><trkpt lat="33.4033104" lon="8.3397316"><ele>25.0</ele><time>2026-04-18T09:22:17.377Z</time></trkpt><trkpt lat="33.4033261" lon="8.3394967"><ele>25.0</ele><time>2026-04-18T09:22:18.362Z</time></trkpt><trkpt lat="33.4033418" lon="8.3392511"><ele>25.0</ele><time>2026-04-18T09:22:19.365Z</time></trkpt><trkpt lat="33.4033587" lon="8.3389962"><ele>25.0</ele><time>2026-04-18T09:22:20.363Z</time></trkpt><trkpt lat="33.4033785" lon="8.3387475"><ele>25.0</ele><time>2026-04-18T09:22:21.353Z</time></trkpt><trkpt lat="33.403398" lon="8.3385023"><ele>25.0</ele><time>2026-04-18T09:22:22.373Z</time></trkpt><trkpt lat="33.4034155" lon="8.338264"><ele>25.0</ele><time>2026-04-18T09:22:23.365Z</time></trkpt><trkpt lat="33.4034326" lon="8.3380283"><ele>25.333333333333336</ele><time>2026-04-18T09:22:24.359Z</time></trkpt><trkpt lat="33.4034496" lon="8.3377946"><ele>25.666666666666664</ele><time>2026-04-18T09:22:25.357Z</time></trkpt><trkpt lat="33.4034659" lon="8.3375621"><ele>26.0</ele><time>2026-04-18T09:22:26.358Z</time></trkpt><trkpt lat="33.4034818" lon="8.3373286"><ele>26.333333333333332</ele><time>2026-04-18T09:22:27.362Z</time></trkpt><trkpt lat="33.4034972" lon="8.3370902"><ele>26.666666666666664</ele><time>2026-04-18T09:22:28.361Z</time></trkpt><trkpt lat="33.4035121" lon="8.3368502"><ele>27.0</ele><time>2026-04-18T09:22:29.362Z</time></trkpt><trkpt lat="33.403527" lon="8.3366264"><ele>27.0</ele><time>2026-04-18T09:22:30.357Z</time></trkpt><trkpt lat="33.4035433" lon="8.3364097"><ele>27.0</ele><time>2026-04-18T09:22:31.363Z</time></trkpt><trkpt lat="33.4035606" lon="8.3361927"><ele>27.0</ele><time>2026-04-18T09:22:32.361Z</time></trkpt><trkpt lat="33.4035778" lon="8.3359733"><ele>26.666666666666664</ele><time>2026-04-18T09:22:33.361Z</time></trkpt><trkpt lat="33.4035941" lon="8.3357489"><ele>26.333333333333332</ele><time>2026-04-18T09:22:34.358Z</time></trkpt><trkpt lat="33.4036097" lon="8.3355209"><ele>26.0</ele><time>2026-04-18T09:22:35.36Z</time></trkpt><trkpt lat="33.4036248" lon="8.3352902"><ele>26.0</ele><time>2026-04-18T09:22:36.357Z</time></trkpt><trkpt lat="33.4036396" lon="8.3350578"><ele>26.0</ele><time>2026-04-18T09:22:37.363Z</time></trkpt><trkpt lat="33.403654" lon="8.3348249"><ele>26.0</ele><time>2026-04-18T09:22:38.36Z</time></trkpt><trkpt lat="33.4036683" lon="8.3345943"><ele>25.666666666666664</ele><time>2026-04-18T09:22:39.369Z</time></trkpt><trkpt lat="33.4036824" lon="8.3343673"><ele>25.333333333333336</ele><time>2026-04-18T09:22:40.355Z</time></trkpt><trkpt lat="33.4036972" lon="8.3341453"><ele>25.0</ele><time>2026-04-18T09:22:41.363Z</time></trkpt><trkpt lat="33.403714" lon="8.333921"><ele>24.666666666666668</ele><time>2026-04-18T09:22:42.357Z</time></trkpt><trkpt lat="33.4037318" lon="8.3336893"><ele>24.333333333333336</ele><time>2026-04-18T09:22:43.356Z</time></trkpt><trkpt lat="33.4037499" lon="8.3334515"><ele>24.0</ele><time>2026-04-18T09:22:44.361Z</time></trkpt><trkpt lat="33.4037679" lon="8.3332101"><ele>24.333333333333336</ele><time>2026-04-18T09:22:45.362Z</time></trkpt><trkpt lat="33.403786" lon="8.33297"><ele>24.666666666666668</ele><time>2026-04-18T09:22:46.364Z</time></trkpt><trkpt lat="33.4038045" lon="8.3327354"><ele>25.0</ele><time>2026-04-18T09:22:47.359Z</time></trkpt><trkpt lat="33.4038218" lon="8.3325023"><ele>24.333333333333336</ele><time>2026-04-18T09:22:48.36Z</time></trkpt><trkpt lat="33.4038369" lon="8.332269"><ele>23.666666666666668</ele><time>2026-04-18T09:22:49.36Z</time></trkpt><trkpt lat="33.4038502" lon="8.3320391"><ele>23.0</ele><time>2026-04-18T09:22:50.357Z</time></trkpt><trkpt lat="33.4038637" lon="8.3318115"><ele>23.0</ele><time>2026-04-18T09:22:51.359Z</time></trkpt><trkpt lat="33.403879" lon="8.331584"><ele>23.0</ele><time>2026-04-18T09:22:52.366Z</time></trkpt><trkpt lat="33.4038957" lon="8.3313568"><ele>23.0</ele><time>2026-04-18T09:22:53.358Z</time></trkpt><trkpt lat="33.4039126" lon="8.3311305"><ele>23.0</ele><time>2026-04-18T09:22:54.356Z</time></trkpt><trkpt lat="33.4039288" lon="8.3309022"><ele>23.0</ele><time>2026-04-18T09:22:55.358Z</time></trkpt><trkpt lat="33.4039456" lon="8.3306713"><ele>23.0</ele><time>2026-04-18T09:22:56.352Z</time></trkpt><trkpt lat="33.4039622" lon="8.3304398"><ele>23.333333333333336</ele><time>2026-04-18T09:22:57.361Z</time></trkpt><trkpt lat="33.4039789" lon="8.3302099"><ele>23.666666666666668</ele><time>2026-04-18T09:22:58.361Z</time></trkpt><trkpt lat="33.4039958" lon="8.329984"><ele>24.0</ele><time>2026-04-18T09:22:59.363Z</time></trkpt><trkpt lat="33.4040118" lon="8.3297611"><ele>24.666666666666664</ele><time>2026-04-18T09:23:00.361Z</time></trkpt><trkpt lat="33.4040268" lon="8.3295407"><ele>25.333333333333332</ele><time>2026-04-18T09:23:01.363Z</time></trkpt><trkpt lat="33.4040414" lon="8.3293223"><ele>26.0</ele><time>2026-04-18T09:23:02.357Z</time></trkpt><trkpt lat="33.4040565" lon="8.3291069"><ele>26.0</ele><time>2026-04-18T09:23:03.364Z</time></trkpt><trkpt lat="33.4040733" lon="8.3288941"><ele>26.0</ele><time>2026-04-18T09:23:04.357Z</time></trkpt><trkpt lat="33.4040915" lon="8.3286765"><ele>26.0</ele><time>2026-04-18T09:23:05.359Z</time></trkpt><trkpt lat="33.4041102" lon="8.3284522"><ele>26.333333333333332</ele><time>2026-04-18T09:23:06.361Z</time></trkpt><trkpt lat="33.4041289" lon="8.3282283"><ele>26.666666666666664</ele><time>2026-04-18T09:23:07.365Z</time></trkpt><trkpt lat="33.4041467" lon="8.3280026"><ele>27.0</ele><time>2026-04-18T09:23:08.361Z</time></trkpt><trkpt lat="33.4041636" lon="8.3277772"><ele>26.333333333333336</ele><time>2026-04-18T09:23:09.374Z</time></trkpt><trkpt lat="33.4041798" lon="8.3275548"><ele>25.666666666666668</ele><time>2026-04-18T09:23:10.354Z</time></trkpt><trkpt lat="33.4041954" lon="8.3273375"><ele>25.0</ele><time>2026-04-18T09:23:11.363Z</time></trkpt><trkpt lat="33.4042104" lon="8.327125"><ele>25.0</ele><time>2026-04-18T09:23:12.359Z</time></trkpt><trkpt lat="33.4042254" lon="8.3269134"><ele>25.0</ele><time>2026-04-18T09:23:13.357Z</time></trkpt><trkpt lat="33.4042408" lon="8.3267037"><ele>25.0</ele><time>2026-04-18T09:23:14.367Z</time></trkpt><trkpt lat="33.4042572" lon="8.3264929"><ele>25.666666666666668</ele><time>2026-04-18T09:23:15.358Z</time></trkpt><trkpt lat="33.404273" lon="8.3262781"><ele>26.333333333333336</ele><time>2026-04-18T09:23:16.353Z</time></trkpt><trkpt lat="33.4042876" lon="8.3260604"><ele>27.0</ele><time>2026-04-18T09:23:17.362Z</time></trkpt><trkpt lat="33.4043014" lon="8.3258386"><ele>27.0</ele><time>2026-04-18T09:23:18.361Z</time></trkpt><trkpt lat="33.4043151" lon="8.3256125"><ele>27.0</ele><time>2026-04-18T09:23:19.36Z</time></trkpt><trkpt lat="33.4043289" lon="8.3253847"><ele>27.0</ele><time>2026-04-18T09:23:20.364Z</time></trkpt><trkpt lat="33.404344" lon="8.3251583"><ele>27.0</ele><time>2026-04-18T09:23:21.361Z</time></trkpt><trkpt lat="33.4043609" lon="8.3249329"><ele>27.0</ele><time>2026-04-18T09:23:22.363Z</time></trkpt><trkpt lat="33.4043779" lon="8.3247079"><ele>27.0</ele><time>2026-04-18T09:23:23.361Z</time></trkpt><trkpt lat="33.4043952" lon="8.3244803"><ele>27.0</ele><time>2026-04-18T09:23:24.358Z</time></trkpt><trkpt lat="33.4044126" lon="8.3242489"><ele>27.0</ele><time>2026-04-18T09:23:25.366Z</time></trkpt><trkpt lat="33.4044313" lon="8.3240133"><ele>27.0</ele><time>2026-04-18T09:23:26.358Z</time></trkpt><trkpt lat="33.4044494" lon="8.3237754"><ele>26.0</ele><time>2026-04-18T09:23:27.356Z</time></trkpt><trkpt lat="33.4044658" lon="8.3235333"><ele>25.0</ele><time>2026-04-18T09:23:28.365Z</time></trkpt><trkpt lat="33.4044813" lon="8.3232893"><ele>24.0</ele><time>2026-04-18T09:23:29.367Z</time></trkpt><trkpt lat="33.4044964" lon="8.3230469"><ele>24.0</ele><time>2026-04-18T09:23:30.359Z</time></trkpt><trkpt lat="33.4045125" lon="8.3228091"><ele>24.0</ele><time>2026-04-18T09:23:31.364Z</time></trkpt><trkpt lat="33.4045297" lon="8.3225713"><ele>24.0</ele><time>2026-04-18T09:23:32.362Z</time></trkpt><trkpt lat="33.4045475" lon="8.3223331"><ele>24.666666666666664</ele><time>2026-04-18T09:23:33.359Z</time></trkpt><trkpt lat="33.4045645" lon="8.3220951"><ele>25.333333333333332</ele><time>2026-04-18T09:23:34.358Z</time></trkpt><trkpt lat="33.4045809" lon="8.3218571"><ele>26.0</ele><time>2026-04-18T09:23:35.362Z</time></trkpt><trkpt lat="33.4045973" lon="8.3216181"><ele>25.333333333333332</ele><time>2026-04-18T09:23:36.359Z</time></trkpt><trkpt lat="33.4046134" lon="8.3213784"><ele>24.666666666666664</ele><time>2026-04-18T09:23:37.358Z</time></trkpt><trkpt lat="33.4046293" lon="8.3211424"><ele>24.0</ele><time>2026-04-18T09:23:38.363Z</time></trkpt><trkpt lat="33.4046446" lon="8.3209105"><ele>24.0</ele><time>2026-04-18T09:23:39.363Z</time></trkpt><trkpt lat="33.4046587" lon="8.3206807"><ele>24.0</ele><time>2026-04-18T09:23:40.359Z</time></trkpt><trkpt lat="33.4046735" lon="8.3204523"><ele>24.0</ele><time>2026-04-18T09:23:41.358Z</time></trkpt><trkpt lat="33.40469" lon="8.3202233"><ele>23.666666666666668</ele><time>2026-04-18T09:23:42.362Z</time></trkpt><trkpt lat="33.404707" lon="8.3199931"><ele>23.333333333333336</ele><time>2026-04-18T09:23:43.353Z</time></trkpt><trkpt lat="33.4047237" lon="8.319765"><ele>23.0</ele><time>2026-04-18T09:23:44.353Z</time></trkpt><trkpt lat="33.4047403" lon="8.3195371"><ele>23.333333333333336</ele><time>2026-04-18T09:23:45.364Z</time></trkpt><trkpt lat="33.4047568" lon="8.319307"><ele>23.666666666666668</ele><time>2026-04-18T09:23:46.355Z</time></trkpt><trkpt lat="33.4047729" lon="8.3190813"><ele>24.0</ele><time>2026-04-18T09:23:47.361Z</time></trkpt><trkpt lat="33.4047878" lon="8.3188648"><ele>24.0</ele><time>2026-04-18T09:23:48.358Z</time></trkpt><trkpt lat="33.4048011" lon="8.3186531"><ele>24.0</ele><time>2026-04-18T09:23:49.359Z</time></trkpt><trkpt lat="33.4048143" lon="8.3184423"><ele>24.0</ele><time>2026-04-18T09:23:50.36Z</time></trkpt><trkpt lat="33.4048298" lon="8.3182265"><ele>24.0</ele><time>2026-04-18T09:23:51.359Z</time></trkpt><trkpt lat="33.4048481" lon="8.3180051"><ele>24.0</ele><time>2026-04-18T09:23:52.361Z</time></trkpt><trkpt lat="33.4048664" lon="8.3177775"><ele>24.0</ele><time>2026-04-18T09:23:53.362Z</time></trkpt><trkpt lat="33.4048842" lon="8.317545"><ele>24.0</ele><time>2026-04-18T09:23:54.356Z</time></trkpt><trkpt lat="33.4049017" lon="8.3173111"><ele>24.0</ele><time>2026-04-18T09:23:55.358Z</time></trkpt><trkpt lat="33.4049194" lon="8.3170737"><ele>24.0</ele><time>2026-04-18T09:23:56.361Z</time></trkpt><trkpt lat="33.4049367" lon="8.3168345"><ele>23.666666666666668</ele><time>2026-04-18T09:23:57.358Z</time></trkpt><trkpt lat="33.4049531" lon="8.3165952"><ele>23.333333333333336</ele><time>2026-04-18T09:23:58.363Z</time></trkpt><trkpt lat="33.4049688" lon="8.3163546"><ele>23.0</ele><time>2026-04-18T09:23:59.367Z</time></trkpt><trkpt lat="33.4049857" lon="8.3161158"><ele>23.0</ele><time>2026-04-18T09:24:00.354Z</time></trkpt><trkpt lat="33.4050031" lon="8.3158812"><ele>23.0</ele><time>2026-04-18T09:24:01.366Z</time></trkpt><trkpt lat="33.4050212" lon="8.3156516"><ele>23.0</ele><time>2026-04-18T09:24:02.358Z</time></trkpt><trkpt lat="33.4050395" lon="8.3154245"><ele>24.0</ele><time>2026-04-18T09:24:03.364Z</time></trkpt><trkpt lat="33.4050559" lon="8.3152014"><ele>25.0</ele><time>2026-04-18T09:24:04.362Z</time></trkpt><trkpt lat="33.4050716" lon="8.3149818"><ele>26.0</ele><time>2026-04-18T09:24:05.368Z</time></trkpt><trkpt lat="33.4050875" lon="8.3147657"><ele>25.333333333333332</ele><time>2026-04-18T09:24:06.361Z</time></trkpt><trkpt lat="33.4051042" lon="8.3145494"><ele>24.666666666666664</ele><time>2026-04-18T09:24:07.364Z</time></trkpt><trkpt lat="33.4051207" lon="8.3143309"><ele>24.0</ele><time>2026-04-18T09:24:08.353Z</time></trkpt><trkpt lat="33.4051382" lon="8.3141114"><ele>23.666666666666668</ele><time>2026-04-18T09:24:09.357Z</time></trkpt><trkpt lat="33.405157" lon="8.3138932"><ele>23.333333333333336</ele><time>2026-04-18T09:24:10.357Z</time></trkpt><trkpt lat="33.4051758" lon="8.3136717"><ele>23.0</ele><time>2026-04-18T09:24:11.366Z</time></trkpt><trkpt lat="33.4051936" lon="8.3134454"><ele>23.0</ele><time>2026-04-18T09:24:12.36Z</time></trkpt><trkpt lat="33.4052117" lon="8.3132143"><ele>23.0</ele><time>2026-04-18T09:24:13.362Z</time></trkpt><trkpt lat="33.40523" lon="8.3129803"><ele>23.0</ele><time>2026-04-18T09:24:14.361Z</time></trkpt><trkpt lat="33.4052476" lon="8.3127451"><ele>23.666666666666668</ele><time>2026-04-18T09:24:15.359Z</time></trkpt><trkpt lat="33.4052632" lon="8.3125068"><ele>24.333333333333336</ele><time>2026-04-18T09:24:16.364Z</time></trkpt><trkpt lat="33.405279" lon="8.3122659"><ele>25.0</ele><time>2026-04-18T09:24:17.36Z</time></trkpt><trkpt lat="33.405297" lon="8.3120327"><ele>25.0</ele><time>2026-04-18T09:24:18.358Z</time></trkpt><trkpt lat="33.4053146" lon="8.3118074"><ele>25.0</ele><time>2026-04-18T09:24:19.366Z</time></trkpt><trkpt lat="33.405328" lon="8.3115835"><ele>25.0</ele><time>2026-04-18T09:24:20.357Z</time></trkpt><trkpt lat="33.4053385" lon="8.3113586"><ele>24.0</ele><time>2026-04-18T09:24:21.371Z</time></trkpt><trkpt lat="33.4053479" lon="8.3111339"><ele>23.0</ele><time>2026-04-18T09:24:22.363Z</time></trkpt><trkpt lat="33.4053581" lon="8.3109093"><ele>22.0</ele><time>2026-04-18T09:24:23.364Z</time></trkpt><trkpt lat="33.40537" lon="8.310686"><ele>23.0</ele><time>2026-04-18T09:24:24.366Z</time></trkpt><trkpt lat="33.4053831" lon="8.31046"><ele>24.0</ele><time>2026-04-18T09:24:25.361Z</time></trkpt><trkpt lat="33.4053976" lon="8.3102327"><ele>25.0</ele><time>2026-04-18T09:24:26.365Z</time></trkpt><trkpt lat="33.4054144" lon="8.3100074"><ele>25.0</ele><time>2026-04-18T09:24:27.363Z</time></trkpt><trkpt lat="33.4054323" lon="8.30978"><ele>25.0</ele><time>2026-04-18T09:24:28.357Z</time></trkpt><trkpt lat="33.40545" lon="8.3095542"><ele>25.0</ele><time>2026-04-18T09:24:29.357Z</time></trkpt><trkpt lat="33.4054691" lon="8.309331"><ele>24.333333333333336</ele><time>2026-04-18T09:24:30.358Z</time></trkpt><trkpt lat="33.4054878" lon="8.3091094"><ele>23.666666666666668</ele><time>2026-04-18T09:24:31.362Z</time></trkpt><trkpt lat="33.4055052" lon="8.308889"><ele>23.0</ele><time>2026-04-18T09:24:32.357Z</time></trkpt><trkpt lat="33.4055211" lon="8.3086706"><ele>23.0</ele><time>2026-04-18T09:24:33.361Z</time></trkpt><trkpt lat="33.4055377" lon="8.308455"><ele>23.0</ele><time>2026-04-18T09:24:34.358Z</time></trkpt><trkpt lat="33.4055563" lon="8.3082417"><ele>23.0</ele><time>2026-04-18T09:24:35.357Z</time></trkpt><trkpt lat="33.4055744" lon="8.3080304"><ele>22.666666666666668</ele><time>2026-04-18T09:24:36.356Z</time></trkpt><trkpt lat="33.4055892" lon="8.3078224"><ele>22.333333333333332</ele><time>2026-04-18T09:24:37.362Z</time></trkpt><trkpt lat="33.4056024" lon="8.3076151"><ele>22.0</ele><time>2026-04-18T09:24:38.36Z</time></trkpt><trkpt lat="33.4056156" lon="8.3074068"><ele>22.333333333333332</ele><time>2026-04-18T09:24:39.363Z</time></trkpt><trkpt lat="33.4056279" lon="8.3071981"><ele>22.666666666666668</ele><time>2026-04-18T09:24:40.356Z</time></trkpt><trkpt lat="33.4056415" lon="8.3069904"><ele>23.0</ele><time>2026-04-18T09:24:41.356Z</time></trkpt><trkpt lat="33.4056557" lon="8.3067826"><ele>23.0</ele><time>2026-04-18T09:24:42.357Z</time></trkpt><trkpt lat="33.4056697" lon="8.3065737"><ele>23.0</ele><time>2026-04-18T09:24:43.363Z</time></trkpt><trkpt lat="33.405685" lon="8.3063624"><ele>23.0</ele><time>2026-04-18T09:24:44.36Z</time></trkpt><trkpt lat="33.4057006" lon="8.3061465"><ele>23.0</ele><time>2026-04-18T09:24:45.351Z</time></trkpt><trkpt lat="33.4057175" lon="8.3059224"><ele>23.0</ele><time>2026-04-18T09:24:46.364Z</time></trkpt><trkpt lat="33.4057338" lon="8.3056922"><ele>23.0</ele><time>2026-04-18T09:24:47.359Z</time></trkpt><trkpt lat="33.4057497" lon="8.3054604"><ele>23.0</ele><time>2026-04-18T09:24:48.353Z</time></trkpt><trkpt lat="33.4057659" lon="8.3052302"><ele>23.0</ele><time>2026-04-18T09:24:49.357Z</time></trkpt><trkpt lat="33.4057821" lon="8.3050037"><ele>23.0</ele><time>2026-04-18T09:24:50.359Z</time></trkpt><trkpt lat="33.4057971" lon="8.3047797"><ele>23.333333333333336</ele><time>2026-04-18T09:24:51.361Z</time></trkpt><trkpt lat="33.405812" lon="8.3045575"><ele>23.666666666666668</ele><time>2026-04-18T09:24:52.355Z</time></trkpt><trkpt lat="33.4058288" lon="8.3043384"><ele>24.0</ele><time>2026-04-18T09:24:53.367Z</time></trkpt><trkpt lat="33.4058465" lon="8.3041183"><ele>24.333333333333336</ele><time>2026-04-18T09:24:54.363Z</time></trkpt><trkpt lat="33.4058623" lon="8.3038937"><ele>24.666666666666668</ele><time>2026-04-18T09:24:55.359Z</time></trkpt><trkpt lat="33.4058775" lon="8.303668"><ele>25.0</ele><time>2026-04-18T09:24:56.359Z</time></trkpt><trkpt lat="33.4058936" lon="8.3034396"><ele>25.0</ele><time>2026-04-18T09:24:57.357Z</time></trkpt><trkpt lat="33.4059106" lon="8.3032098"><ele>25.0</ele><time>2026-04-18T09:24:58.361Z</time></trkpt><trkpt lat="33.4059275" lon="8.3029817"><ele>25.0</ele><time>2026-04-18T09:24:59.367Z</time></trkpt><trkpt lat="33.4059438" lon="8.3027526"><ele>25.333333333333336</ele><time>2026-04-18T09:25:00.36Z</time></trkpt><trkpt lat="33.405959" lon="8.3025204"><ele>25.666666666666664</ele><time>2026-04-18T09:25:01.358Z</time></trkpt><trkpt lat="33.4059734" lon="8.302287"><ele>26.0</ele><time>2026-04-18T09:25:02.357Z</time></trkpt><trkpt lat="33.4059871" lon="8.3020568"><ele>26.0</ele><time>2026-04-18T09:25:03.36Z</time></trkpt><trkpt lat="33.4060012" lon="8.3018297"><ele>26.0</ele><time>2026-04-18T09:25:04.361Z</time></trkpt><trkpt lat="33.4060153" lon="8.3016082"><ele>26.0</ele><time>2026-04-18T09:25:05.357Z</time></trkpt><trkpt lat="33.4060295" lon="8.3013889"><ele>26.0</ele><time>2026-04-18T09:25:06.355Z</time></trkpt><trkpt lat="33.4060444" lon="8.3011712"><ele>26.0</ele><time>2026-04-18T09:25:07.364Z</time></trkpt><trkpt lat="33.4060591" lon="8.3009556"><ele>26.0</ele><time>2026-04-18T09:25:08.358Z</time></trkpt><trkpt lat="33.406074" lon="8.300739"><ele>26.0</ele><time>2026-04-18T09:25:09.363Z</time></trkpt><trkpt lat="33.4060889" lon="8.3005233"><ele>26.0</ele><time>2026-04-18T09:25:10.369Z</time></trkpt><trkpt lat="33.406104" lon="8.300307"><ele>26.0</ele><time>2026-04-18T09:25:11.363Z</time></trkpt><trkpt lat="33.40612" lon="8.3000906"><ele>26.0</ele><time>2026-04-18T09:25:12.353Z</time></trkpt><trkpt lat="33.4061372" lon="8.2998752"><ele>26.0</ele><time>2026-04-18T09:25:13.36Z</time></trkpt><trkpt lat="33.4061552" lon="8.2996614"><ele>26.0</ele><time>2026-04-18T09:25:14.356Z</time></trkpt><trkpt lat="33.4061724" lon="8.2994463"><ele>25.666666666666664</ele><time>2026-04-18T09:25:15.355Z</time></trkpt><trkpt lat="33.4061895" lon="8.2992305"><ele>25.333333333333336</ele><time>2026-04-18T09:25:16.359Z</time></trkpt><trkpt lat="33.406207" lon="8.299014"><ele>25.0</ele><time>2026-04-18T09:25:17.358Z</time></trkpt><trkpt lat="33.4062235" lon="8.2987938"><ele>24.666666666666668</ele><time>2026-04-18T09:25:18.355Z</time></trkpt><trkpt lat="33.4062394" lon="8.2985727"><ele>24.333333333333336</ele><time>2026-04-18T09:25:19.358Z</time></trkpt><trkpt lat="33.4062551" lon="8.2983481"><ele>24.0</ele><time>2026-04-18T09:25:20.361Z</time></trkpt><trkpt lat="33.4062699" lon="8.2981198"><ele>24.0</ele><time>2026-04-18T09:25:21.361Z</time></trkpt><trkpt lat="33.4062863" lon="8.2978914"><ele>24.0</ele><time>2026-04-18T09:25:22.359Z</time></trkpt><trkpt lat="33.4063037" lon="8.29766"><ele>24.0</ele><time>2026-04-18T09:25:23.362Z</time></trkpt><trkpt lat="33.4063206" lon="8.2974258"><ele>24.333333333333336</ele><time>2026-04-18T09:25:24.361Z</time></trkpt><trkpt lat="33.406337" lon="8.2971912"><ele>24.666666666666668</ele><time>2026-04-18T09:25:25.359Z</time></trkpt><trkpt lat="33.4063527" lon="8.2969564"><ele>25.0</ele><time>2026-04-18T09:25:26.362Z</time></trkpt><trkpt lat="33.406368" lon="8.296725"><ele>25.0</ele><time>2026-04-18T09:25:27.363Z</time></trkpt><trkpt lat="33.4063829" lon="8.2964982"><ele>25.0</ele><time>2026-04-18T09:25:28.358Z</time></trkpt><trkpt lat="33.4063973" lon="8.2962745"><ele>25.0</ele><time>2026-04-18T09:25:29.361Z</time></trkpt><trkpt lat="33.4064108" lon="8.2960521"><ele>25.0</ele><time>2026-04-18T09:25:30.363Z</time></trkpt><trkpt lat="33.4064246" lon="8.2958316"><ele>25.0</ele><time>2026-04-18T09:25:31.358Z</time></trkpt><trkpt lat="33.406438" lon="8.2956114"><ele>25.0</ele><time>2026-04-18T09:25:32.361Z</time></trkpt><trkpt lat="33.4064504" lon="8.2953888"><ele>25.333333333333336</ele><time>2026-04-18T09:25:33.362Z</time></trkpt><trkpt lat="33.406463" lon="8.2951651"><ele>25.666666666666664</ele><time>2026-04-18T09:25:34.356Z</time></trkpt><trkpt lat="33.4064767" lon="8.2949409"><ele>26.0</ele><time>2026-04-18T09:25:35.361Z</time></trkpt><trkpt lat="33.406492" lon="8.2947177"><ele>25.333333333333332</ele><time>2026-04-18T09:25:36.367Z</time></trkpt><trkpt lat="33.4065068" lon="8.2944935"><ele>24.666666666666664</ele><time>2026-04-18T09:25:37.359Z</time></trkpt><trkpt lat="33.4065216" lon="8.2942701"><ele>24.0</ele><time>2026-04-18T09:25:38.357Z</time></trkpt><trkpt lat="33.4065368" lon="8.2940474"><ele>23.666666666666668</ele><time>2026-04-18T09:25:39.365Z</time></trkpt><trkpt lat="33.4065527" lon="8.2938238"><ele>23.333333333333336</ele><time>2026-04-18T09:25:40.359Z</time></trkpt><trkpt lat="33.4065688" lon="8.2935999"><ele>23.0</ele><time>2026-04-18T09:25:41.361Z</time></trkpt><trkpt lat="33.4065839" lon="8.2933774"><ele>23.0</ele><time>2026-04-18T09:25:42.362Z</time></trkpt><trkpt lat="33.4065987" lon="8.2931539"><ele>23.0</ele><time>2026-04-18T09:25:43.361Z</time></trkpt><trkpt lat="33.4066147" lon="8.2929325"><ele>23.0</ele><time>2026-04-18T09:25:44.368Z</time></trkpt><trkpt lat="33.4066316" lon="8.292714"><ele>23.333333333333336</ele><time>2026-04-18T09:25:45.359Z</time></trkpt><trkpt lat="33.406648" lon="8.2924971"><ele>23.666666666666668</ele><time>2026-04-18T09:25:46.363Z</time></trkpt><trkpt lat="33.4066642" lon="8.2922832"><ele>24.0</ele><time>2026-04-18T09:25:47.368Z</time></trkpt><trkpt lat="33.4066798" lon="8.2920713"><ele>24.666666666666664</ele><time>2026-04-18T09:25:48.361Z</time></trkpt><trkpt lat="33.4066947" lon="8.2918591"><ele>25.333333333333332</ele><time>2026-04-18T09:25:49.374Z</time></trkpt><trkpt lat="33.4067101" lon="8.2916471"><ele>26.0</ele><time>2026-04-18T09:25:50.357Z</time></trkpt><trkpt lat="33.4067261" lon="8.2914342"><ele>25.666666666666664</ele><time>2026-04-18T09:25:51.361Z</time></trkpt><trkpt lat="33.4067417" lon="8.2912213"><ele>25.333333333333336</ele><time>2026-04-18T09:25:52.355Z</time></trkpt><trkpt lat="33.4067555" lon="8.2910081"><ele>25.0</ele><time>2026-04-18T09:25:53.363Z</time></trkpt><trkpt lat="33.4067678" lon="8.2907941"><ele>24.666666666666668</ele><time>2026-04-18T09:25:54.36Z</time></trkpt><trkpt lat="33.4067797" lon="8.2905768"><ele>24.333333333333336</ele><time>2026-04-18T09:25:55.361Z</time></trkpt><trkpt lat="33.4067918" lon="8.290359"><ele>24.0</ele><time>2026-04-18T09:25:56.361Z</time></trkpt><trkpt lat="33.4068042" lon="8.2901389"><ele>24.0</ele><time>2026-04-18T09:25:57.36Z</time></trkpt><trkpt lat="33.4068176" lon="8.2899178"><ele>24.0</ele><time>2026-04-18T09:25:58.359Z</time></trkpt><trkpt lat="33.4068331" lon="8.2896969"><ele>24.0</ele><time>2026-04-18T09:25:59.36Z</time></trkpt><trkpt lat="33.4068494" lon="8.2894763"><ele>24.333333333333336</ele><time>2026-04-18T09:26:00.363Z</time></trkpt><trkpt lat="33.4068653" lon="8.2892555"><ele>24.666666666666668</ele><time>2026-04-18T09:26:01.359Z</time></trkpt><trkpt lat="33.4068794" lon="8.2890349"><ele>25.0</ele><time>2026-04-18T09:26:02.354Z</time></trkpt><trkpt lat="33.4068927" lon="8.288814"><ele>25.0</ele><time>2026-04-18T09:26:03.362Z</time></trkpt><trkpt lat="33.4069063" lon="8.2885928"><ele>25.0</ele><time>2026-04-18T09:26:04.36Z</time></trkpt><trkpt lat="33.4069219" lon="8.2883723"><ele>25.0</ele><time>2026-04-18T09:26:05.36Z</time></trkpt><trkpt lat="33.4069398" lon="8.288156"><ele>24.333333333333336</ele><time>2026-04-18T09:26:06.361Z</time></trkpt><trkpt lat="33.4069585" lon="8.2879383"><ele>23.666666666666668</ele><time>2026-04-18T09:26:07.361Z</time></trkpt><trkpt lat="33.4069772" lon="8.2877174"><ele>23.0</ele><time>2026-04-18T09:26:08.359Z</time></trkpt><trkpt lat="33.4069972" lon="8.2874938"><ele>23.0</ele><time>2026-04-18T09:26:09.358Z</time></trkpt><trkpt lat="33.4070167" lon="8.2872684"><ele>23.0</ele><time>2026-04-18T09:26:10.363Z</time></trkpt><trkpt lat="33.4070338" lon="8.2870392"><ele>23.0</ele><time>2026-04-18T09:26:11.363Z</time></trkpt><trkpt lat="33.4070484" lon="8.2868018"><ele>23.333333333333336</ele><time>2026-04-18T09:26:12.36Z</time></trkpt><trkpt lat="33.407064" lon="8.2865646"><ele>23.666666666666668</ele><time>2026-04-18T09:26:13.362Z</time></trkpt><trkpt lat="33.4070819" lon="8.2863292"><ele>24.0</ele><time>2026-04-18T09:26:14.36Z</time></trkpt><trkpt lat="33.4071009" lon="8.286094"><ele>25.333333333333336</ele><time>2026-04-18T09:26:15.358Z</time></trkpt><trkpt lat="33.4071202" lon="8.2858568"><ele>26.666666666666668</ele><time>2026-04-18T09:26:16.359Z</time></trkpt><trkpt lat="33.40714" lon="8.2856186"><ele>28.0</ele><time>2026-04-18T09:26:17.358Z</time></trkpt><trkpt lat="33.4071597" lon="8.2853788"><ele>27.666666666666668</ele><time>2026-04-18T09:26:18.357Z</time></trkpt><trkpt lat="33.4071791" lon="8.2851383"><ele>27.333333333333336</ele><time>2026-04-18T09:26:19.359Z</time></trkpt><trkpt lat="33.4071979" lon="8.2848971"><ele>27.0</ele><time>2026-04-18T09:26:20.358Z</time></trkpt><trkpt lat="33.407216" lon="8.2846577"><ele>27.666666666666664</ele><time>2026-04-18T09:26:21.36Z</time></trkpt><trkpt lat="33.4072339" lon="8.2844197"><ele>28.333333333333332</ele><time>2026-04-18T09:26:22.362Z</time></trkpt><trkpt lat="33.407251" lon="8.2841869"><ele>29.0</ele><time>2026-04-18T09:26:23.358Z</time></trkpt><trkpt lat="33.4072667" lon="8.2839575"><ele>28.333333333333332</ele><time>2026-04-18T09:26:24.356Z</time></trkpt><trkpt lat="33.4072816" lon="8.2837288"><ele>27.666666666666664</ele><time>2026-04-18T09:26:25.359Z</time></trkpt><trkpt lat="33.4072967" lon="8.2834998"><ele>27.0</ele><time>2026-04-18T09:26:26.362Z</time></trkpt><trkpt lat="33.4073112" lon="8.2832709"><ele>27.333333333333336</ele><time>2026-04-18T09:26:27.361Z</time></trkpt><trkpt lat="33.4073265" lon="8.2830426"><ele>27.666666666666668</ele><time>2026-04-18T09:26:28.362Z</time></trkpt><trkpt lat="33.4073429" lon="8.2828147"><ele>28.0</ele><time>2026-04-18T09:26:29.358Z</time></trkpt><trkpt lat="33.4073595" lon="8.2825878"><ele>28.0</ele><time>2026-04-18T09:26:30.356Z</time></trkpt><trkpt lat="33.4073766" lon="8.2823654"><ele>28.0</ele><time>2026-04-18T09:26:31.364Z</time></trkpt><trkpt lat="33.407393" lon="8.2821472"><ele>28.0</ele><time>2026-04-18T09:26:32.362Z</time></trkpt><trkpt lat="33.4074078" lon="8.2819302"><ele>28.0</ele><time>2026-04-18T09:26:33.363Z</time></trkpt><trkpt lat="33.4074206" lon="8.2817118"><ele>28.0</ele><time>2026-04-18T09:26:34.356Z</time></trkpt><trkpt lat="33.407433" lon="8.2814921"><ele>28.0</ele><time>2026-04-18T09:26:35.362Z</time></trkpt><trkpt lat="33.4074457" lon="8.2812719"><ele>28.333333333333336</ele><time>2026-04-18T09:26:36.357Z</time></trkpt><trkpt lat="33.4074603" lon="8.2810519"><ele>28.666666666666664</ele><time>2026-04-18T09:26:37.361Z</time></trkpt><trkpt lat="33.4074767" lon="8.2808351"><ele>29.0</ele><time>2026-04-18T09:26:38.357Z</time></trkpt><trkpt lat="33.4074932" lon="8.2806198"><ele>29.333333333333332</ele><time>2026-04-18T09:26:39.36Z</time></trkpt><trkpt lat="33.4075102" lon="8.2804062"><ele>29.666666666666664</ele><time>2026-04-18T09:26:40.357Z</time></trkpt><trkpt lat="33.4075271" lon="8.2801924"><ele>30.0</ele><time>2026-04-18T09:26:41.357Z</time></trkpt><trkpt lat="33.4075437" lon="8.2799779"><ele>29.666666666666664</ele><time>2026-04-18T09:26:42.359Z</time></trkpt><trkpt lat="33.4075606" lon="8.2797604"><ele>29.333333333333332</ele><time>2026-04-18T09:26:43.359Z</time></trkpt><trkpt lat="33.4075764" lon="8.2795414"><ele>29.0</ele><time>2026-04-18T09:26:44.358Z</time></trkpt><trkpt lat="33.4075912" lon="8.2793232"><ele>29.0</ele><time>2026-04-18T09:26:45.362Z</time></trkpt><trkpt lat="33.4076055" lon="8.2791054"><ele>29.0</ele><time>2026-04-18T09:26:46.361Z</time></trkpt><trkpt lat="33.4076202" lon="8.2788852"><ele>29.0</ele><time>2026-04-18T09:26:47.361Z</time></trkpt><trkpt lat="33.4076363" lon="8.2786573"><ele>28.666666666666664</ele><time>2026-04-18T09:26:48.36Z</time></trkpt><trkpt lat="33.4076524" lon="8.2784249"><ele>28.333333333333336</ele><time>2026-04-18T09:26:49.36Z</time></trkpt><trkpt lat="33.4076675" lon="8.2781903"><ele>28.0</ele><time>2026-04-18T09:26:50.359Z</time></trkpt><trkpt lat="33.4076823" lon="8.2779581"><ele>28.0</ele><time>2026-04-18T09:26:51.36Z</time></trkpt><trkpt lat="33.407696" lon="8.2777286"><ele>28.0</ele><time>2026-04-18T09:26:52.359Z</time></trkpt><trkpt lat="33.4077096" lon="8.2775021"><ele>28.0</ele><time>2026-04-18T09:26:53.361Z</time></trkpt><trkpt lat="33.407724" lon="8.2772794"><ele>27.666666666666668</ele><time>2026-04-18T09:26:54.365Z</time></trkpt><trkpt lat="33.4077371" lon="8.2770583"><ele>27.333333333333336</ele><time>2026-04-18T09:26:55.357Z</time></trkpt><trkpt lat="33.4077491" lon="8.2768373"><ele>27.0</ele><time>2026-04-18T09:26:56.358Z</time></trkpt><trkpt lat="33.4077641" lon="8.2766159"><ele>26.666666666666664</ele><time>2026-04-18T09:26:57.36Z</time></trkpt><trkpt lat="33.407782" lon="8.2763905"><ele>26.333333333333332</ele><time>2026-04-18T09:26:58.359Z</time></trkpt><trkpt lat="33.4078012" lon="8.2761645"><ele>26.0</ele><time>2026-04-18T09:26:59.365Z</time></trkpt><trkpt lat="33.40782" lon="8.2759381"><ele>26.0</ele><time>2026-04-18T09:27:00.362Z</time></trkpt><trkpt lat="33.4078382" lon="8.2757113"><ele>26.0</ele><time>2026-04-18T09:27:01.361Z</time></trkpt><trkpt lat="33.4078548" lon="8.275482"><ele>26.0</ele><time>2026-04-18T09:27:02.369Z</time></trkpt><trkpt lat="33.4078718" lon="8.2752521"><ele>26.666666666666664</ele><time>2026-04-18T09:27:03.357Z</time></trkpt><trkpt lat="33.4078884" lon="8.275027"><ele>27.333333333333336</ele><time>2026-04-18T09:27:04.359Z</time></trkpt><trkpt lat="33.4079036" lon="8.2748032"><ele>28.0</ele><time>2026-04-18T09:27:05.356Z</time></trkpt><trkpt lat="33.4079181" lon="8.2745793"><ele>28.0</ele><time>2026-04-18T09:27:06.362Z</time></trkpt><trkpt lat="33.4079327" lon="8.2743567"><ele>28.0</ele><time>2026-04-18T09:27:07.36Z</time></trkpt><trkpt lat="33.407946" lon="8.2741324"><ele>28.0</ele><time>2026-04-18T09:27:08.359Z</time></trkpt><trkpt lat="33.4079586" lon="8.2739073"><ele>28.0</ele><time>2026-04-18T09:27:09.363Z</time></trkpt><trkpt lat="33.4079716" lon="8.2736835"><ele>28.0</ele><time>2026-04-18T09:27:10.358Z</time></trkpt><trkpt lat="33.4079856" lon="8.2734608"><ele>28.0</ele><time>2026-04-18T09:27:11.373Z</time></trkpt><trkpt lat="33.4080001" lon="8.2732371"><ele>28.0</ele><time>2026-04-18T09:27:12.358Z</time></trkpt><trkpt lat="33.4080151" lon="8.2730103"><ele>28.0</ele><time>2026-04-18T09:27:13.362Z</time></trkpt><trkpt lat="33.4080314" lon="8.2727801"><ele>28.0</ele><time>2026-04-18T09:27:14.355Z</time></trkpt><trkpt lat="33.4080488" lon="8.2725467"><ele>28.0</ele><time>2026-04-18T09:27:15.362Z</time></trkpt><trkpt lat="33.4080669" lon="8.2723139"><ele>28.0</ele><time>2026-04-18T09:27:16.364Z</time></trkpt><trkpt lat="33.4080878" lon="8.2720805"><ele>28.0</ele><time>2026-04-18T09:27:17.356Z</time></trkpt><trkpt lat="33.4081093" lon="8.2718522"><ele>28.666666666666668</ele><time>2026-04-18T09:27:18.362Z</time></trkpt><trkpt lat="33.4081285" lon="8.2716371"><ele>29.333333333333336</ele><time>2026-04-18T09:27:19.369Z</time></trkpt><trkpt lat="33.4081461" lon="8.271421"><ele>30.0</ele><time>2026-04-18T09:27:20.363Z</time></trkpt><trkpt lat="33.4081585" lon="8.2711945"><ele>30.0</ele><time>2026-04-18T09:27:21.356Z</time></trkpt><trkpt lat="33.4081673" lon="8.2709798"><ele>30.0</ele><time>2026-04-18T09:27:22.362Z</time></trkpt><trkpt lat="33.4081759" lon="8.270778"><ele>30.0</ele><time>2026-04-18T09:27:23.363Z</time></trkpt><trkpt lat="33.4081882" lon="8.2705739"><ele>30.0</ele><time>2026-04-18T09:27:24.362Z</time></trkpt><trkpt lat="33.4082048" lon="8.2703686"><ele>30.0</ele><time>2026-04-18T09:27:25.359Z</time></trkpt><trkpt lat="33.4082245" lon="8.2701561"><ele>30.0</ele><time>2026-04-18T09:27:26.368Z</time></trkpt><trkpt lat="33.4082459" lon="8.2699381"><ele>29.333333333333336</ele><time>2026-04-18T09:27:27.366Z</time></trkpt><trkpt lat="33.4082672" lon="8.2697199"><ele>28.666666666666668</ele><time>2026-04-18T09:27:28.372Z</time></trkpt><trkpt lat="33.4082864" lon="8.2695044"><ele>28.0</ele><time>2026-04-18T09:27:29.362Z</time></trkpt><trkpt lat="33.4083039" lon="8.2692857"><ele>28.0</ele><time>2026-04-18T09:27:30.365Z</time></trkpt><trkpt lat="33.4083206" lon="8.2690648"><ele>28.0</ele><time>2026-04-18T09:27:31.361Z</time></trkpt><trkpt lat="33.4083395" lon="8.2688408"><ele>28.0</ele><time>2026-04-18T09:27:32.355Z</time></trkpt><trkpt lat="33.4083592" lon="8.2686137"><ele>28.333333333333336</ele><time>2026-04-18T09:27:33.363Z</time></trkpt><trkpt lat="33.4083771" lon="8.2683877"><ele>28.666666666666664</ele><time>2026-04-18T09:27:34.36Z</time></trkpt><trkpt lat="33.4083937" lon="8.2681605"><ele>29.0</ele><time>2026-04-18T09:27:35.37Z</time></trkpt><trkpt lat="33.408408" lon="8.2679316"><ele>29.0</ele><time>2026-04-18T09:27:36.358Z</time></trkpt><trkpt lat="33.4084219" lon="8.2677071"><ele>29.0</ele><time>2026-04-18T09:27:37.361Z</time></trkpt><trkpt lat="33.4084357" lon="8.2674865"><ele>29.0</ele><time>2026-04-18T09:27:38.36Z</time></trkpt><trkpt lat="33.4084494" lon="8.2672694"><ele>28.666666666666664</ele><time>2026-04-18T09:27:39.359Z</time></trkpt><trkpt lat="33.4084646" lon="8.2670515"><ele>28.333333333333336</ele><time>2026-04-18T09:27:40.367Z</time></trkpt><trkpt lat="33.4084822" lon="8.2668337"><ele>28.0</ele><time>2026-04-18T09:27:41.361Z</time></trkpt><trkpt lat="33.4085" lon="8.2666144"><ele>27.333333333333336</ele><time>2026-04-18T09:27:42.36Z</time></trkpt><trkpt lat="33.4085163" lon="8.2663931"><ele>26.666666666666664</ele><time>2026-04-18T09:27:43.359Z</time></trkpt><trkpt lat="33.4085306" lon="8.2661733"><ele>26.0</ele><time>2026-04-18T09:27:44.361Z</time></trkpt><trkpt lat="33.4085437" lon="8.265954"><ele>26.0</ele><time>2026-04-18T09:27:45.362Z</time></trkpt><trkpt lat="33.408558" lon="8.2657364"><ele>26.0</ele><time>2026-04-18T09:27:46.358Z</time></trkpt><trkpt lat="33.4085728" lon="8.2655199"><ele>26.0</ele><time>2026-04-18T09:27:47.363Z</time></trkpt><trkpt lat="33.408588" lon="8.265306"><ele>26.0</ele><time>2026-04-18T09:27:48.361Z</time></trkpt><trkpt lat="33.408604" lon="8.2650943"><ele>26.0</ele><time>2026-04-18T09:27:49.36Z</time></trkpt><trkpt lat="33.4086202" lon="8.264883"><ele>26.0</ele><time>2026-04-18T09:27:50.36Z</time></trkpt><trkpt lat="33.4086352" lon="8.2646719"><ele>26.333333333333332</ele><time>2026-04-18T09:27:51.359Z</time></trkpt><trkpt lat="33.4086489" lon="8.2644613"><ele>26.666666666666664</ele><time>2026-04-18T09:27:52.362Z</time></trkpt><trkpt lat="33.4086611" lon="8.2642525"><ele>27.0</ele><time>2026-04-18T09:27:53.365Z</time></trkpt><trkpt lat="33.408674" lon="8.2640438"><ele>26.333333333333336</ele><time>2026-04-18T09:27:54.361Z</time></trkpt><trkpt lat="33.408688" lon="8.2638334"><ele>25.666666666666668</ele><time>2026-04-18T09:27:55.366Z</time></trkpt><trkpt lat="33.4087029" lon="8.2636172"><ele>25.0</ele><time>2026-04-18T09:27:56.365Z</time></trkpt><trkpt lat="33.408719" lon="8.2633964"><ele>25.0</ele><time>2026-04-18T09:27:57.357Z</time></trkpt><trkpt lat="33.4087347" lon="8.2631726"><ele>25.0</ele><time>2026-04-18T09:27:58.363Z</time></trkpt><trkpt lat="33.4087526" lon="8.2630214"><ele>25.0</ele><time>2026-04-18T09:27:59.358Z</time></trkpt><trkpt lat="33.4087658" lon="8.2628174"><ele>25.0</ele><time>2026-04-18T09:28:00.359Z</time></trkpt><trkpt lat="33.4087815" lon="8.2626099"><ele>25.0</ele><time>2026-04-18T09:28:01.367Z</time></trkpt><trkpt lat="33.4087989" lon="8.2623974"><ele>25.0</ele><time>2026-04-18T09:28:02.359Z</time></trkpt><trkpt lat="33.4088135" lon="8.2621904"><ele>25.0</ele><time>2026-04-18T09:28:03.365Z</time></trkpt><trkpt lat="33.4088299" lon="8.2619909"><ele>25.0</ele><time>2026-04-18T09:28:04.357Z</time></trkpt><trkpt lat="33.408844" lon="8.2617889"><ele>25.0</ele><time>2026-04-18T09:28:05.363Z</time></trkpt><trkpt lat="33.4088614" lon="8.2615848"><ele>25.666666666666668</ele><time>2026-04-18T09:28:06.36Z</time></trkpt><trkpt lat="33.4088801" lon="8.2613765"><ele>26.333333333333336</ele><time>2026-04-18T09:28:07.362Z</time></trkpt><trkpt lat="33.4088991" lon="8.2611654"><ele>27.0</ele><time>2026-04-18T09:28:08.363Z</time></trkpt><trkpt lat="33.4089168" lon="8.260953"><ele>27.0</ele><time>2026-04-18T09:28:09.357Z</time></trkpt><trkpt lat="33.4089345" lon="8.2607396"><ele>27.0</ele><time>2026-04-18T09:28:10.357Z</time></trkpt><trkpt lat="33.4089524" lon="8.2605256"><ele>27.0</ele><time>2026-04-18T09:28:11.359Z</time></trkpt><trkpt lat="33.4089675" lon="8.2603097"><ele>27.333333333333336</ele><time>2026-04-18T09:28:12.361Z</time></trkpt><trkpt lat="33.4089818" lon="8.2600901"><ele>27.666666666666668</ele><time>2026-04-18T09:28:13.362Z</time></trkpt><trkpt lat="33.408996" lon="8.2598656"><ele>28.0</ele><time>2026-04-18T09:28:14.358Z</time></trkpt><trkpt lat="33.4090114" lon="8.2596369"><ele>28.0</ele><time>2026-04-18T09:28:15.36Z</time></trkpt><trkpt lat="33.4090276" lon="8.2594023"><ele>28.0</ele><time>2026-04-18T09:28:16.367Z</time></trkpt><trkpt lat="33.4090438" lon="8.2591625"><ele>28.0</ele><time>2026-04-18T09:28:17.362Z</time></trkpt><trkpt lat="33.4090603" lon="8.2589183"><ele>28.0</ele><time>2026-04-18T09:28:18.358Z</time></trkpt><trkpt lat="33.4090775" lon="8.2586672"><ele>28.0</ele><time>2026-04-18T09:28:19.356Z</time></trkpt><trkpt lat="33.4090957" lon="8.2584133"><ele>28.0</ele><time>2026-04-18T09:28:20.357Z</time></trkpt><trkpt lat="33.4091131" lon="8.2581668"><ele>27.666666666666668</ele><time>2026-04-18T09:28:21.359Z</time></trkpt><trkpt lat="33.4091268" lon="8.2579192"><ele>27.333333333333336</ele><time>2026-04-18T09:28:22.356Z</time></trkpt><trkpt lat="33.4091404" lon="8.2576668"><ele>27.0</ele><time>2026-04-18T09:28:23.358Z</time></trkpt><trkpt lat="33.4091545" lon="8.2574096"><ele>27.666666666666664</ele><time>2026-04-18T09:28:24.356Z</time></trkpt><trkpt lat="33.4091698" lon="8.2571581"><ele>28.333333333333332</ele><time>2026-04-18T09:28:25.366Z</time></trkpt><trkpt lat="33.409188" lon="8.2569123"><ele>29.0</ele><time>2026-04-18T09:28:26.361Z</time></trkpt><trkpt lat="33.4092059" lon="8.2566646"><ele>28.333333333333332</ele><time>2026-04-18T09:28:27.361Z</time></trkpt><trkpt lat="33.409222" lon="8.2564155"><ele>27.666666666666664</ele><time>2026-04-18T09:28:28.359Z</time></trkpt><trkpt lat="33.4092378" lon="8.2561715"><ele>27.0</ele><time>2026-04-18T09:28:29.365Z</time></trkpt><trkpt lat="33.4092538" lon="8.2559316"><ele>27.0</ele><time>2026-04-18T09:28:30.355Z</time></trkpt><trkpt lat="33.4092693" lon="8.2556944"><ele>27.0</ele><time>2026-04-18T09:28:31.357Z</time></trkpt><trkpt lat="33.4092839" lon="8.2554618"><ele>27.0</ele><time>2026-04-18T09:28:32.359Z</time></trkpt><trkpt lat="33.4092998" lon="8.2552348"><ele>27.0</ele><time>2026-04-18T09:28:33.353Z</time></trkpt><trkpt lat="33.4093181" lon="8.255011"><ele>27.0</ele><time>2026-04-18T09:28:34.357Z</time></trkpt><trkpt lat="33.4093374" lon="8.2547804"><ele>27.0</ele><time>2026-04-18T09:28:35.358Z</time></trkpt><trkpt lat="33.4093566" lon="8.2545465"><ele>27.0</ele><time>2026-04-18T09:28:36.361Z</time></trkpt><trkpt lat="33.4093758" lon="8.2543107"><ele>27.0</ele><time>2026-04-18T09:28:37.359Z</time></trkpt><trkpt lat="33.4093938" lon="8.2540758"><ele>27.0</ele><time>2026-04-18T09:28:38.362Z</time></trkpt><trkpt lat="33.40941" lon="8.2538439"><ele>27.0</ele><time>2026-04-18T09:28:39.364Z</time></trkpt><trkpt lat="33.4094257" lon="8.2536147"><ele>27.0</ele><time>2026-04-18T09:28:40.363Z</time></trkpt><trkpt lat="33.4094412" lon="8.2533871"><ele>27.0</ele><time>2026-04-18T09:28:41.359Z</time></trkpt><trkpt lat="33.4094567" lon="8.253159"><ele>27.0</ele><time>2026-04-18T09:28:42.357Z</time></trkpt><trkpt lat="33.4094733" lon="8.2529287"><ele>27.0</ele><time>2026-04-18T09:28:43.362Z</time></trkpt><trkpt lat="33.4094901" lon="8.2526976"><ele>27.0</ele><time>2026-04-18T09:28:44.363Z</time></trkpt><trkpt lat="33.4095062" lon="8.2524681"><ele>26.666666666666664</ele><time>2026-04-18T09:28:45.358Z</time></trkpt><trkpt lat="33.4095211" lon="8.2522421"><ele>26.333333333333332</ele><time>2026-04-18T09:28:46.357Z</time></trkpt><trkpt lat="33.4095355" lon="8.2520177"><ele>26.0</ele><time>2026-04-18T09:28:47.356Z</time></trkpt><trkpt lat="33.4095499" lon="8.2517957"><ele>26.0</ele><time>2026-04-18T09:28:48.357Z</time></trkpt><trkpt lat="33.4095637" lon="8.2515793"><ele>26.0</ele><time>2026-04-18T09:28:49.358Z</time></trkpt><trkpt lat="33.4095792" lon="8.2513705"><ele>26.0</ele><time>2026-04-18T09:28:50.354Z</time></trkpt><trkpt lat="33.4095968" lon="8.2511631"><ele>25.333333333333332</ele><time>2026-04-18T09:28:51.356Z</time></trkpt><trkpt lat="33.4096156" lon="8.250948"><ele>24.666666666666664</ele><time>2026-04-18T09:28:52.357Z</time></trkpt><trkpt lat="33.4096335" lon="8.2507216"><ele>24.0</ele><time>2026-04-18T09:28:53.363Z</time></trkpt><trkpt lat="33.4096524" lon="8.2504896"><ele>25.0</ele><time>2026-04-18T09:28:54.357Z</time></trkpt><trkpt lat="33.4096718" lon="8.2502549"><ele>26.0</ele><time>2026-04-18T09:28:55.358Z</time></trkpt><trkpt lat="33.4096917" lon="8.2500224"><ele>27.0</ele><time>2026-04-18T09:28:56.362Z</time></trkpt><trkpt lat="33.4097103" lon="8.2497929"><ele>27.666666666666664</ele><time>2026-04-18T09:28:57.357Z</time></trkpt><trkpt lat="33.4097266" lon="8.249566"><ele>28.333333333333332</ele><time>2026-04-18T09:28:58.353Z</time></trkpt><trkpt lat="33.4097409" lon="8.2493403"><ele>29.0</ele><time>2026-04-18T09:28:59.364Z</time></trkpt><trkpt lat="33.4097544" lon="8.2491155"><ele>28.333333333333332</ele><time>2026-04-18T09:29:00.355Z</time></trkpt><trkpt lat="33.409768" lon="8.2488919"><ele>27.666666666666664</ele><time>2026-04-18T09:29:01.359Z</time></trkpt><trkpt lat="33.409783" lon="8.2486676"><ele>27.0</ele><time>2026-04-18T09:29:02.359Z</time></trkpt><trkpt lat="33.4097992" lon="8.2484426"><ele>27.0</ele><time>2026-04-18T09:29:03.364Z</time></trkpt><trkpt lat="33.4098176" lon="8.2482155"><ele>27.0</ele><time>2026-04-18T09:29:04.368Z</time></trkpt><trkpt lat="33.4098371" lon="8.2479872"><ele>27.0</ele><time>2026-04-18T09:29:05.362Z</time></trkpt><trkpt lat="33.4098556" lon="8.2477568"><ele>27.0</ele><time>2026-04-18T09:29:06.361Z</time></trkpt><trkpt lat="33.4098729" lon="8.247526"><ele>27.0</ele><time>2026-04-18T09:29:07.361Z</time></trkpt><trkpt lat="33.4098895" lon="8.2472961"><ele>27.0</ele><time>2026-04-18T09:29:08.359Z</time></trkpt><trkpt lat="33.4099064" lon="8.2470676"><ele>27.0</ele><time>2026-04-18T09:29:09.355Z</time></trkpt><trkpt lat="33.4099239" lon="8.2468395"><ele>27.0</ele><time>2026-04-18T09:29:10.364Z</time></trkpt><trkpt lat="33.4099425" lon="8.2466128"><ele>27.0</ele><time>2026-04-18T09:29:11.363Z</time></trkpt><trkpt lat="33.40996" lon="8.2463846"><ele>27.333333333333336</ele><time>2026-04-18T09:29:12.353Z</time></trkpt><trkpt lat="33.4099755" lon="8.2461527"><ele>27.666666666666668</ele><time>2026-04-18T09:29:13.359Z</time></trkpt><trkpt lat="33.4099901" lon="8.2459202"><ele>28.0</ele><time>2026-04-18T09:29:14.359Z</time></trkpt><trkpt lat="33.4100066" lon="8.2456901"><ele>28.666666666666668</ele><time>2026-04-18T09:29:15.364Z</time></trkpt><trkpt lat="33.4100247" lon="8.2454629"><ele>29.333333333333336</ele><time>2026-04-18T09:29:16.364Z</time></trkpt><trkpt lat="33.410042" lon="8.245235"><ele>30.0</ele><time>2026-04-18T09:29:17.357Z</time></trkpt><trkpt lat="33.4100579" lon="8.245008"><ele>28.666666666666664</ele><time>2026-04-18T09:29:18.362Z</time></trkpt><trkpt lat="33.4100736" lon="8.2447832"><ele>27.333333333333332</ele><time>2026-04-18T09:29:19.359Z</time></trkpt><trkpt lat="33.4100902" lon="8.2445597"><ele>26.0</ele><time>2026-04-18T09:29:20.358Z</time></trkpt><trkpt lat="33.4101074" lon="8.2443363"><ele>26.0</ele><time>2026-04-18T09:29:21.361Z</time></trkpt><trkpt lat="33.4101249" lon="8.2441135"><ele>26.0</ele><time>2026-04-18T09:29:22.361Z</time></trkpt><trkpt lat="33.4101422" lon="8.2438926"><ele>26.0</ele><time>2026-04-18T09:29:23.357Z</time></trkpt><trkpt lat="33.4101589" lon="8.2436727"><ele>26.666666666666664</ele><time>2026-04-18T09:29:24.36Z</time></trkpt><trkpt lat="33.4101752" lon="8.2434532"><ele>27.333333333333336</ele><time>2026-04-18T09:29:25.353Z</time></trkpt><trkpt lat="33.4101911" lon="8.2432327"><ele>28.0</ele><time>2026-04-18T09:29:26.355Z</time></trkpt><trkpt lat="33.4102076" lon="8.2430117"><ele>28.666666666666668</ele><time>2026-04-18T09:29:27.359Z</time></trkpt><trkpt lat="33.4102247" lon="8.2427923"><ele>29.333333333333336</ele><time>2026-04-18T09:29:28.358Z</time></trkpt><trkpt lat="33.4102427" lon="8.2425792"><ele>30.0</ele><time>2026-04-18T09:29:29.363Z</time></trkpt><trkpt lat="33.4102612" lon="8.2423714"><ele>30.0</ele><time>2026-04-18T09:29:30.358Z</time></trkpt><trkpt lat="33.4102801" lon="8.2421669"><ele>30.0</ele><time>2026-04-18T09:29:31.354Z</time></trkpt><trkpt lat="33.4102981" lon="8.2419658"><ele>30.0</ele><time>2026-04-18T09:29:32.354Z</time></trkpt><trkpt lat="33.4103139" lon="8.2417657"><ele>30.0</ele><time>2026-04-18T09:29:33.361Z</time></trkpt><trkpt lat="33.4103295" lon="8.2415575"><ele>30.0</ele><time>2026-04-18T09:29:34.36Z</time></trkpt><trkpt lat="33.4103448" lon="8.2413476"><ele>30.0</ele><time>2026-04-18T09:29:35.356Z</time></trkpt><trkpt lat="33.4103595" lon="8.24114"><ele>29.0</ele><time>2026-04-18T09:29:36.355Z</time></trkpt><trkpt lat="33.4103757" lon="8.240936"><ele>28.0</ele><time>2026-04-18T09:29:37.361Z</time></trkpt><trkpt lat="33.4103907" lon="8.2407277"><ele>27.0</ele><time>2026-04-18T09:29:38.359Z</time></trkpt><trkpt lat="33.4104053" lon="8.2405186"><ele>26.666666666666664</ele><time>2026-04-18T09:29:39.361Z</time></trkpt><trkpt lat="33.4104219" lon="8.2403072"><ele>26.333333333333332</ele><time>2026-04-18T09:29:40.358Z</time></trkpt><trkpt lat="33.4104388" lon="8.2400883"><ele>26.0</ele><time>2026-04-18T09:29:41.359Z</time></trkpt><trkpt lat="33.4104549" lon="8.2398637"><ele>26.666666666666664</ele><time>2026-04-18T09:29:42.361Z</time></trkpt><trkpt lat="33.4104708" lon="8.2396339"><ele>27.333333333333336</ele><time>2026-04-18T09:29:43.361Z</time></trkpt><trkpt lat="33.4104863" lon="8.2394017"><ele>28.0</ele><time>2026-04-18T09:29:44.357Z</time></trkpt><trkpt lat="33.4105005" lon="8.239168"><ele>28.333333333333336</ele><time>2026-04-18T09:29:45.363Z</time></trkpt><trkpt lat="33.4105139" lon="8.238936"><ele>28.666666666666664</ele><time>2026-04-18T09:29:46.358Z</time></trkpt><trkpt lat="33.4105284" lon="8.2387065"><ele>29.0</ele><time>2026-04-18T09:29:47.367Z</time></trkpt><trkpt lat="33.4105434" lon="8.2384792"><ele>29.0</ele><time>2026-04-18T09:29:48.36Z</time></trkpt><trkpt lat="33.4105592" lon="8.238251"><ele>29.0</ele><time>2026-04-18T09:29:49.364Z</time></trkpt><trkpt lat="33.410576" lon="8.2380231"><ele>29.0</ele><time>2026-04-18T09:29:50.357Z</time></trkpt><trkpt lat="33.4105955" lon="8.237795"><ele>29.0</ele><time>2026-04-18T09:29:51.36Z</time></trkpt><trkpt lat="33.4106146" lon="8.2375664"><ele>29.0</ele><time>2026-04-18T09:29:52.357Z</time></trkpt><trkpt lat="33.4106323" lon="8.2373364"><ele>29.0</ele><time>2026-04-18T09:29:53.362Z</time></trkpt><trkpt lat="33.4106497" lon="8.237106"><ele>29.0</ele><time>2026-04-18T09:29:54.359Z</time></trkpt><trkpt lat="33.4106683" lon="8.2368761"><ele>29.0</ele><time>2026-04-18T09:29:55.358Z</time></trkpt><trkpt lat="33.4106862" lon="8.2366494"><ele>29.0</ele><time>2026-04-18T09:29:56.356Z</time></trkpt><trkpt lat="33.4107025" lon="8.2364226"><ele>28.333333333333332</ele><time>2026-04-18T09:29:57.363Z</time></trkpt><trkpt lat="33.4107181" lon="8.2361968"><ele>27.666666666666664</ele><time>2026-04-18T09:29:58.358Z</time></trkpt><trkpt lat="33.4107341" lon="8.2359736"><ele>27.0</ele><time>2026-04-18T09:29:59.358Z</time></trkpt><trkpt lat="33.4107503" lon="8.235755"><ele>27.0</ele><time>2026-04-18T09:30:00.365Z</time></trkpt><trkpt lat="33.4107672" lon="8.2355351"><ele>27.0</ele><time>2026-04-18T09:30:01.358Z</time></trkpt><trkpt lat="33.4107843" lon="8.2353146"><ele>27.0</ele><time>2026-04-18T09:30:02.362Z</time></trkpt><trkpt lat="33.4108015" lon="8.235091"><ele>27.0</ele><time>2026-04-18T09:30:03.358Z</time></trkpt><trkpt lat="33.4108194" lon="8.2348665"><ele>27.0</ele><time>2026-04-18T09:30:04.367Z</time></trkpt><trkpt lat="33.4108379" lon="8.2346411"><ele>27.0</ele><time>2026-04-18T09:30:05.356Z</time></trkpt><trkpt lat="33.4108554" lon="8.2344151"><ele>27.666666666666664</ele><time>2026-04-18T09:30:06.357Z</time></trkpt><trkpt lat="33.4108724" lon="8.2341823"><ele>28.333333333333332</ele><time>2026-04-18T09:30:07.364Z</time></trkpt><trkpt lat="33.4108903" lon="8.2339451"><ele>29.0</ele><time>2026-04-18T09:30:08.357Z</time></trkpt><trkpt lat="33.4109084" lon="8.2337066"><ele>29.333333333333332</ele><time>2026-04-18T09:30:09.363Z</time></trkpt><trkpt lat="33.4109247" lon="8.233469"><ele>29.666666666666664</ele><time>2026-04-18T09:30:10.357Z</time></trkpt><trkpt lat="33.4109404" lon="8.2332279"><ele>30.0</ele><time>2026-04-18T09:30:11.355Z</time></trkpt><trkpt lat="33.4109565" lon="8.2329847"><ele>30.0</ele><time>2026-04-18T09:30:12.361Z</time></trkpt><trkpt lat="33.4109722" lon="8.232744"><ele>30.0</ele><time>2026-04-18T09:30:13.362Z</time></trkpt><trkpt lat="33.4109864" lon="8.2325033"><ele>30.0</ele><time>2026-04-18T09:30:14.361Z</time></trkpt><trkpt lat="33.4110012" lon="8.232263"><ele>29.666666666666664</ele><time>2026-04-18T09:30:15.362Z</time></trkpt><trkpt lat="33.4110193" lon="8.2320245"><ele>29.333333333333332</ele><time>2026-04-18T09:30:16.354Z</time></trkpt><trkpt lat="33.411041" lon="8.2317911"><ele>29.0</ele><time>2026-04-18T09:30:17.36Z</time></trkpt><trkpt lat="33.4110638" lon="8.2315609"><ele>28.666666666666664</ele><time>2026-04-18T09:30:18.366Z</time></trkpt><trkpt lat="33.4110854" lon="8.2313309"><ele>28.333333333333336</ele><time>2026-04-18T09:30:19.363Z</time></trkpt><trkpt lat="33.4111027" lon="8.2311034"><ele>28.0</ele><time>2026-04-18T09:30:20.362Z</time></trkpt><trkpt lat="33.4111185" lon="8.2308765"><ele>28.0</ele><time>2026-04-18T09:30:21.364Z</time></trkpt><trkpt lat="33.4111351" lon="8.2306487"><ele>28.0</ele><time>2026-04-18T09:30:22.366Z</time></trkpt><trkpt lat="33.4111524" lon="8.2304231"><ele>28.0</ele><time>2026-04-18T09:30:23.361Z</time></trkpt><trkpt lat="33.4111688" lon="8.230204"><ele>29.0</ele><time>2026-04-18T09:30:24.363Z</time></trkpt><trkpt lat="33.4111835" lon="8.2299859"><ele>30.0</ele><time>2026-04-18T09:30:25.359Z</time></trkpt><trkpt lat="33.4111978" lon="8.2297707"><ele>31.0</ele><time>2026-04-18T09:30:26.36Z</time></trkpt><trkpt lat="33.4112126" lon="8.2295623"><ele>30.666666666666668</ele><time>2026-04-18T09:30:27.365Z</time></trkpt><trkpt lat="33.4112279" lon="8.2293556"><ele>30.333333333333336</ele><time>2026-04-18T09:30:28.359Z</time></trkpt><trkpt lat="33.411243" lon="8.2291501"><ele>30.0</ele><time>2026-04-18T09:30:29.353Z</time></trkpt><trkpt lat="33.411258" lon="8.2289401"><ele>30.0</ele><time>2026-04-18T09:30:30.36Z</time></trkpt><trkpt lat="33.4112734" lon="8.2287254"><ele>30.0</ele><time>2026-04-18T09:30:31.363Z</time></trkpt><trkpt lat="33.4112874" lon="8.2285091"><ele>30.0</ele><time>2026-04-18T09:30:32.359Z</time></trkpt><trkpt lat="33.4113016" lon="8.2282901"><ele>30.0</ele><time>2026-04-18T09:30:33.361Z</time></trkpt><trkpt lat="33.4113167" lon="8.2280695"><ele>30.0</ele><time>2026-04-18T09:30:34.352Z</time></trkpt><trkpt lat="33.4113312" lon="8.2278484"><ele>30.0</ele><time>2026-04-18T09:30:35.357Z</time></trkpt><trkpt lat="33.4113456" lon="8.2276264"><ele>29.666666666666664</ele><time>2026-04-18T09:30:36.357Z</time></trkpt><trkpt lat="33.4113616" lon="8.2274051"><ele>29.333333333333332</ele><time>2026-04-18T09:30:37.354Z</time></trkpt><trkpt lat="33.4113774" lon="8.2271831"><ele>29.0</ele><time>2026-04-18T09:30:38.365Z</time></trkpt><trkpt lat="33.4113893" lon="8.226961"><ele>29.0</ele><time>2026-04-18T09:30:39.361Z</time></trkpt><trkpt lat="33.4114028" lon="8.2267366"><ele>29.0</ele><time>2026-04-18T09:30:40.358Z</time></trkpt><trkpt lat="33.4114183" lon="8.2265111"><ele>29.0</ele><time>2026-04-18T09:30:41.357Z</time></trkpt><trkpt lat="33.411434" lon="8.2262879"><ele>28.333333333333332</ele><time>2026-04-18T09:30:42.363Z</time></trkpt><trkpt lat="33.4114489" lon="8.226064"><ele>27.666666666666664</ele><time>2026-04-18T09:30:43.365Z</time></trkpt><trkpt lat="33.4114619" lon="8.2258378"><ele>27.0</ele><time>2026-04-18T09:30:44.355Z</time></trkpt><trkpt lat="33.4114743" lon="8.2256087"><ele>26.0</ele><time>2026-04-18T09:30:45.354Z</time></trkpt><trkpt lat="33.4114887" lon="8.2253816"><ele>25.0</ele><time>2026-04-18T09:30:46.362Z</time></trkpt><trkpt lat="33.411504" lon="8.2251546"><ele>24.0</ele><time>2026-04-18T09:30:47.357Z</time></trkpt><trkpt lat="33.41152" lon="8.2249255"><ele>25.0</ele><time>2026-04-18T09:30:48.356Z</time></trkpt><trkpt lat="33.4115402" lon="8.2246937"><ele>26.0</ele><time>2026-04-18T09:30:49.362Z</time></trkpt><trkpt lat="33.4115613" lon="8.2244604"><ele>27.0</ele><time>2026-04-18T09:30:50.361Z</time></trkpt><trkpt lat="33.4115801" lon="8.2242266"><ele>27.0</ele><time>2026-04-18T09:30:51.356Z</time></trkpt><trkpt lat="33.4115954" lon="8.2239924"><ele>27.0</ele><time>2026-04-18T09:30:52.367Z</time></trkpt><trkpt lat="33.4116086" lon="8.2237554"><ele>27.0</ele><time>2026-04-18T09:30:53.359Z</time></trkpt><trkpt lat="33.4116248" lon="8.2235173"><ele>27.333333333333336</ele><time>2026-04-18T09:30:54.36Z</time></trkpt><trkpt lat="33.4116427" lon="8.2232818"><ele>27.666666666666668</ele><time>2026-04-18T09:30:55.356Z</time></trkpt><trkpt lat="33.4116613" lon="8.2230514"><ele>28.0</ele><time>2026-04-18T09:30:56.358Z</time></trkpt><trkpt lat="33.4116783" lon="8.2228248"><ele>28.0</ele><time>2026-04-18T09:30:57.358Z</time></trkpt><trkpt lat="33.4116943" lon="8.2226019"><ele>28.0</ele><time>2026-04-18T09:30:58.355Z</time></trkpt><trkpt lat="33.4117101" lon="8.2223811"><ele>28.0</ele><time>2026-04-18T09:30:59.359Z</time></trkpt><trkpt lat="33.4117243" lon="8.222162"><ele>27.333333333333336</ele><time>2026-04-18T09:31:00.359Z</time></trkpt><trkpt lat="33.4117379" lon="8.2219409"><ele>26.666666666666664</ele><time>2026-04-18T09:31:01.362Z</time></trkpt><trkpt lat="33.4117524" lon="8.2217171"><ele>26.0</ele><time>2026-04-18T09:31:02.359Z</time></trkpt><trkpt lat="33.4117682" lon="8.2214904"><ele>26.333333333333332</ele><time>2026-04-18T09:31:03.36Z</time></trkpt><trkpt lat="33.4117851" lon="8.2212584"><ele>26.666666666666664</ele><time>2026-04-18T09:31:04.358Z</time></trkpt><trkpt lat="33.4118035" lon="8.2210238"><ele>27.0</ele><time>2026-04-18T09:31:05.358Z</time></trkpt><trkpt lat="33.4118223" lon="8.2207858"><ele>27.333333333333336</ele><time>2026-04-18T09:31:06.36Z</time></trkpt><trkpt lat="33.4118404" lon="8.2205427"><ele>27.666666666666668</ele><time>2026-04-18T09:31:07.361Z</time></trkpt><trkpt lat="33.4118573" lon="8.2202936"><ele>28.0</ele><time>2026-04-18T09:31:08.359Z</time></trkpt><trkpt lat="33.4118756" lon="8.2200432"><ele>27.0</ele><time>2026-04-18T09:31:09.357Z</time></trkpt><trkpt lat="33.4118944" lon="8.2197951"><ele>26.0</ele><time>2026-04-18T09:31:10.357Z</time></trkpt><trkpt lat="33.4119122" lon="8.2195496"><ele>25.0</ele><time>2026-04-18T09:31:11.363Z</time></trkpt><trkpt lat="33.4119271" lon="8.2193144"><ele>25.0</ele><time>2026-04-18T09:31:12.362Z</time></trkpt><trkpt lat="33.4119401" lon="8.2190831"><ele>25.0</ele><time>2026-04-18T09:31:13.36Z</time></trkpt><trkpt lat="33.4119527" lon="8.2188529"><ele>25.0</ele><time>2026-04-18T09:31:14.368Z</time></trkpt><trkpt lat="33.4119667" lon="8.2186227"><ele>25.0</ele><time>2026-04-18T09:31:15.366Z</time></trkpt><trkpt lat="33.4119833" lon="8.2183937"><ele>25.0</ele><time>2026-04-18T09:31:16.362Z</time></trkpt><trkpt lat="33.4120041" lon="8.2181696"><ele>25.0</ele><time>2026-04-18T09:31:17.367Z</time></trkpt><trkpt lat="33.4120293" lon="8.217988"><ele>25.666666666666668</ele><time>2026-04-18T09:31:18.37Z</time></trkpt><trkpt lat="33.4120413" lon="8.2177923"><ele>26.333333333333336</ele><time>2026-04-18T09:31:19.362Z</time></trkpt><trkpt lat="33.4120508" lon="8.2175973"><ele>27.0</ele><time>2026-04-18T09:31:20.361Z</time></trkpt><trkpt lat="33.4120645" lon="8.2174007"><ele>26.666666666666664</ele><time>2026-04-18T09:31:21.362Z</time></trkpt><trkpt lat="33.4120788" lon="8.2171992"><ele>26.333333333333332</ele><time>2026-04-18T09:31:22.364Z</time></trkpt><trkpt lat="33.4120934" lon="8.2169973"><ele>26.0</ele><time>2026-04-18T09:31:23.361Z</time></trkpt><trkpt lat="33.4121048" lon="8.216795"><ele>26.0</ele><time>2026-04-18T09:31:24.368Z</time></trkpt><trkpt lat="33.4121127" lon="8.2166048"><ele>26.0</ele><time>2026-04-18T09:31:25.369Z</time></trkpt><trkpt lat="33.412113" lon="8.2164331"><ele>26.0</ele><time>2026-04-18T09:31:26.368Z</time></trkpt><trkpt lat="33.4121127" lon="8.216275"><ele>26.0</ele><time>2026-04-18T09:31:27.357Z</time></trkpt><trkpt lat="33.4121079" lon="8.216124"><ele>26.200000000000003</ele><time>2026-04-18T09:31:28.365Z</time></trkpt><trkpt lat="33.4120992" lon="8.21598"><ele>26.400000000000002</ele><time>2026-04-18T09:31:29.36Z</time></trkpt><trkpt lat="33.4120888" lon="8.2158472"><ele>26.6</ele><time>2026-04-18T09:31:30.357Z</time></trkpt><trkpt lat="33.4120732" lon="8.2157286"><ele>26.8</ele><time>2026-04-18T09:31:31.362Z</time></trkpt><trkpt lat="33.4120548" lon="8.215622"><ele>27.0</ele><time>2026-04-18T09:31:32.368Z</time></trkpt><trkpt lat="33.4120376" lon="8.2155363"><ele>27.200000000000003</ele><time>2026-04-18T09:31:33.363Z</time></trkpt><trkpt lat="33.4120218" lon="8.2154174"><ele>27.400000000000002</ele><time>2026-04-18T09:31:35.364Z</time></trkpt><trkpt lat="33.4120349" lon="8.2153353"><ele>27.599999999999998</ele><time>2026-04-18T09:31:37.364Z</time></trkpt><trkpt lat="33.4120787" lon="8.2152358"><ele>27.799999999999997</ele><time>2026-04-18T09:31:39.366Z</time></trkpt><trkpt lat="33.4121438" lon="8.2151033"><ele>28.0</ele><time>2026-04-18T09:31:41.379Z</time></trkpt><trkpt lat="33.4121983" lon="8.2149703"><ele>28.2</ele><time>2026-04-18T09:31:43.375Z</time></trkpt><trkpt lat="33.4122368" lon="8.2148297"><ele>28.4</ele><time>2026-04-18T09:31:45.363Z</time></trkpt><trkpt lat="33.4122534" lon="8.2147414"><ele>28.599999999999998</ele><time>2026-04-18T09:31:46.366Z</time></trkpt><trkpt lat="33.4122707" lon="8.2146311"><ele>28.799999999999997</ele><time>2026-04-18T09:31:47.361Z</time></trkpt><trkpt lat="33.4122872" lon="8.2145162"><ele>29.0</ele><time>2026-04-18T09:31:48.361Z</time></trkpt><trkpt lat="33.4123021" lon="8.2144034"><ele>29.0</ele><time>2026-04-18T09:31:49.367Z</time></trkpt><trkpt lat="33.4123156" lon="8.2142921"><ele>29.0</ele><time>2026-04-18T09:31:50.363Z</time></trkpt><trkpt lat="33.4123282" lon="8.2141838"><ele>29.0</ele><time>2026-04-18T09:31:51.367Z</time></trkpt><trkpt lat="33.4123375" lon="8.2140755"><ele>29.0</ele><time>2026-04-18T09:31:52.364Z</time></trkpt><trkpt lat="33.4123433" lon="8.2139666"><ele>29.0</ele><time>2026-04-18T09:31:53.372Z</time></trkpt><trkpt lat="33.4123472" lon="8.2138552"><ele>29.0</ele><time>2026-04-18T09:31:54.363Z</time></trkpt><trkpt lat="33.4123456" lon="8.2137423"><ele>29.0</ele><time>2026-04-18T09:31:55.363Z</time></trkpt><trkpt lat="33.412339" lon="8.2136313"><ele>29.0</ele><time>2026-04-18T09:31:56.363Z</time></trkpt><trkpt lat="33.4123383" lon="8.2135207"><ele>29.0</ele><time>2026-04-18T09:31:57.358Z</time></trkpt><trkpt lat="33.4123439" lon="8.2134104"><ele>29.0</ele><time>2026-04-18T09:31:58.359Z</time></trkpt><trkpt lat="33.4123549" lon="8.2132942"><ele>29.0</ele><time>2026-04-18T09:31:59.361Z</time></trkpt><trkpt lat="33.4123733" lon="8.2131706"><ele>29.0</ele><time>2026-04-18T09:32:00.36Z</time></trkpt><trkpt lat="33.412392" lon="8.2130389"><ele>29.0</ele><time>2026-04-18T09:32:01.358Z</time></trkpt><trkpt lat="33.4124055" lon="8.2129073"><ele>29.0</ele><time>2026-04-18T09:32:02.368Z</time></trkpt><trkpt lat="33.412412" lon="8.2127773"><ele>29.0</ele><time>2026-04-18T09:32:03.365Z</time></trkpt><trkpt lat="33.4124189" lon="8.2126423"><ele>29.0</ele><time>2026-04-18T09:32:04.366Z</time></trkpt><trkpt lat="33.4124292" lon="8.2125077"><ele>29.0</ele><time>2026-04-18T09:32:05.368Z</time></trkpt><trkpt lat="33.4124407" lon="8.212373"><ele>29.0</ele><time>2026-04-18T09:32:06.361Z</time></trkpt><trkpt lat="33.4124492" lon="8.2122346"><ele>29.0</ele><time>2026-04-18T09:32:07.361Z</time></trkpt><trkpt lat="33.4124592" lon="8.2120922"><ele>29.5</ele><time>2026-04-18T09:32:08.357Z</time></trkpt><trkpt lat="33.412468" lon="8.2119514"><ele>30.0</ele><time>2026-04-18T09:32:09.362Z</time></trkpt><trkpt lat="33.4124802" lon="8.2118079"><ele>30.5</ele><time>2026-04-18T09:32:10.365Z</time></trkpt><trkpt lat="33.4124932" lon="8.2116663"><ele>31.0</ele><time>2026-04-18T09:32:11.363Z</time></trkpt><trkpt lat="33.412508" lon="8.2115286"><ele>31.200000000000003</ele><time>2026-04-18T09:32:12.363Z</time></trkpt><trkpt lat="33.4125214" lon="8.2113965"><ele>31.400000000000002</ele><time>2026-04-18T09:32:13.366Z</time></trkpt><trkpt lat="33.4125307" lon="8.2112687"><ele>31.6</ele><time>2026-04-18T09:32:14.359Z</time></trkpt><trkpt lat="33.4125371" lon="8.2111339"><ele>31.8</ele><time>2026-04-18T09:32:15.371Z</time></trkpt><trkpt lat="33.4125443" lon="8.2109946"><ele>32.0</ele><time>2026-04-18T09:32:16.357Z</time></trkpt><trkpt lat="33.4125519" lon="8.2108565"><ele>32.0</ele><time>2026-04-18T09:32:17.362Z</time></trkpt><trkpt lat="33.4125602" lon="8.2107238"><ele>32.0</ele><time>2026-04-18T09:32:18.355Z</time></trkpt><trkpt lat="33.4125716" lon="8.2105867"><ele>32.0</ele><time>2026-04-18T09:32:19.359Z</time></trkpt><trkpt lat="33.4125798" lon="8.2104639"><ele>32.0</ele><time>2026-04-18T09:32:20.358Z</time></trkpt><trkpt lat="33.4125863" lon="8.2103576"><ele>32.0</ele><time>2026-04-18T09:32:21.362Z</time></trkpt><trkpt lat="33.4125902" lon="8.2102722"><ele>32.0</ele><time>2026-04-18T09:32:22.361Z</time></trkpt><trkpt lat="33.4126015" lon="8.2101422"><ele>32.0</ele><time>2026-04-18T09:32:24.366Z</time></trkpt><trkpt lat="33.4126168" lon="8.209995"><ele>32.0</ele><time>2026-04-18T09:32:26.358Z</time></trkpt><trkpt lat="33.412624" lon="8.2099133"><ele>32.0</ele><time>2026-04-18T09:32:27.359Z</time></trkpt><trkpt lat="33.412629" lon="8.2098262"><ele>32.0</ele><time>2026-04-18T09:32:28.357Z</time></trkpt><trkpt lat="33.4126332" lon="8.2097349"><ele>31.999999999999996</ele><time>2026-04-18T09:32:29.357Z</time></trkpt><trkpt lat="33.4126378" lon="8.2096419"><ele>32.0</ele><time>2026-04-18T09:32:30.361Z</time></trkpt><trkpt lat="33.4126449" lon="8.2095478"><ele>32.0</ele><time>2026-04-18T09:32:31.361Z</time></trkpt><trkpt lat="33.412651" lon="8.2094507"><ele>32.0</ele><time>2026-04-18T09:32:32.358Z</time></trkpt><trkpt lat="33.412652" lon="8.209352"><ele>31.999999999999996</ele><time>2026-04-18T09:32:33.358Z</time></trkpt><trkpt lat="33.4126545" lon="8.209254"><ele>32.0</ele><time>2026-04-18T09:32:34.358Z</time></trkpt><trkpt lat="33.4126595" lon="8.2091483"><ele>32.0</ele><time>2026-04-18T09:32:35.367Z</time></trkpt><trkpt lat="33.412665" lon="8.2090337"><ele>32.0</ele><time>2026-04-18T09:32:36.369Z</time></trkpt><trkpt lat="33.4126711" lon="8.2089147"><ele>32.0</ele><time>2026-04-18T09:32:37.368Z</time></trkpt><trkpt lat="33.4126792" lon="8.2087944"><ele>32.0</ele><time>2026-04-18T09:32:38.366Z</time></trkpt><trkpt lat="33.412681" lon="8.2086921"><ele>32.0</ele><time>2026-04-18T09:32:39.367Z</time></trkpt><trkpt lat="33.4126849" lon="8.2086027"><ele>31.833333333333332</ele><time>2026-04-18T09:32:40.361Z</time></trkpt><trkpt lat="33.4126997" lon="8.2085128"><ele>31.666666666666664</ele><time>2026-04-18T09:32:41.358Z</time></trkpt><trkpt lat="33.4127153" lon="8.2084167"><ele>31.5</ele><time>2026-04-18T09:32:42.363Z</time></trkpt><trkpt lat="33.4127261" lon="8.2083132"><ele>31.333333333333336</ele><time>2026-04-18T09:32:43.359Z</time></trkpt><trkpt lat="33.4127339" lon="8.2082014"><ele>31.166666666666668</ele><time>2026-04-18T09:32:44.358Z</time></trkpt><trkpt lat="33.4127429" lon="8.2080816"><ele>31.0</ele><time>2026-04-18T09:32:45.363Z</time></trkpt><trkpt lat="33.4127527" lon="8.2079536"><ele>30.6</ele><time>2026-04-18T09:32:46.362Z</time></trkpt><trkpt lat="33.4127639" lon="8.2078213"><ele>30.200000000000003</ele><time>2026-04-18T09:32:47.364Z</time></trkpt><trkpt lat="33.412776" lon="8.2076805"><ele>29.799999999999997</ele><time>2026-04-18T09:32:48.365Z</time></trkpt><trkpt lat="33.4127928" lon="8.2075469"><ele>29.4</ele><time>2026-04-18T09:32:49.364Z</time></trkpt><trkpt lat="33.4128133" lon="8.2074236"><ele>29.0</ele><time>2026-04-18T09:32:50.358Z</time></trkpt><trkpt lat="33.412833" lon="8.2073132"><ele>29.0</ele><time>2026-04-18T09:32:51.358Z</time></trkpt><trkpt lat="33.4128481" lon="8.2072072"><ele>29.0</ele><time>2026-04-18T09:32:52.355Z</time></trkpt><trkpt lat="33.4128546" lon="8.2071038"><ele>29.0</ele><time>2026-04-18T09:32:53.363Z</time></trkpt><trkpt lat="33.4128524" lon="8.2069871"><ele>29.0</ele><time>2026-04-18T09:32:54.355Z</time></trkpt><trkpt lat="33.4128494" lon="8.2068532"><ele>29.0</ele><time>2026-04-18T09:32:55.357Z</time></trkpt><trkpt lat="33.4128514" lon="8.2067153"><ele>29.0</ele><time>2026-04-18T09:32:56.359Z</time></trkpt><trkpt lat="33.4128579" lon="8.206569"><ele>29.0</ele><time>2026-04-18T09:32:57.36Z</time></trkpt><trkpt lat="33.4128664" lon="8.2064161"><ele>29.0</ele><time>2026-04-18T09:32:58.366Z</time></trkpt><trkpt lat="33.4128747" lon="8.2062535"><ele>29.0</ele><time>2026-04-18T09:32:59.361Z</time></trkpt><trkpt lat="33.4128851" lon="8.2060919"><ele>30.25</ele><time>2026-04-18T09:33:00.368Z</time></trkpt><trkpt lat="33.4128967" lon="8.2059247"><ele>31.5</ele><time>2026-04-18T09:33:01.36Z</time></trkpt><trkpt lat="33.4129071" lon="8.2057587"><ele>32.75</ele><time>2026-04-18T09:33:02.365Z</time></trkpt><trkpt lat="33.4129188" lon="8.2055895"><ele>34.0</ele><time>2026-04-18T09:33:03.366Z</time></trkpt><trkpt lat="33.4129315" lon="8.2054117"><ele>34.0</ele><time>2026-04-18T09:33:04.357Z</time></trkpt><trkpt lat="33.412943" lon="8.2052303"><ele>34.0</ele><time>2026-04-18T09:33:05.363Z</time></trkpt><trkpt lat="33.4129535" lon="8.2050513"><ele>34.0</ele><time>2026-04-18T09:33:06.369Z</time></trkpt><trkpt lat="33.4129633" lon="8.2048769"><ele>34.0</ele><time>2026-04-18T09:33:07.358Z</time></trkpt><trkpt lat="33.4129743" lon="8.2047"><ele>33.333333333333336</ele><time>2026-04-18T09:33:08.366Z</time></trkpt><trkpt lat="33.4129837" lon="8.204519"><ele>32.666666666666664</ele><time>2026-04-18T09:33:09.366Z</time></trkpt><trkpt lat="33.4129943" lon="8.2043323"><ele>32.0</ele><time>2026-04-18T09:33:10.366Z</time></trkpt><trkpt lat="33.413008" lon="8.2041407"><ele>31.333333333333332</ele><time>2026-04-18T09:33:11.363Z</time></trkpt><trkpt lat="33.4130251" lon="8.2039507"><ele>30.666666666666664</ele><time>2026-04-18T09:33:12.368Z</time></trkpt><trkpt lat="33.4130436" lon="8.2037636"><ele>30.0</ele><time>2026-04-18T09:33:13.362Z</time></trkpt><trkpt lat="33.4130606" lon="8.2035915"><ele>30.0</ele><time>2026-04-18T09:33:14.363Z</time></trkpt><trkpt lat="33.4130711" lon="8.20342"><ele>30.0</ele><time>2026-04-18T09:33:15.36Z</time></trkpt><trkpt lat="33.4130835" lon="8.2032422"><ele>30.0</ele><time>2026-04-18T09:33:16.37Z</time></trkpt><trkpt lat="33.413095" lon="8.2030652"><ele>30.0</ele><time>2026-04-18T09:33:17.363Z</time></trkpt><trkpt lat="33.4131094" lon="8.2028783"><ele>29.666666666666664</ele><time>2026-04-18T09:33:18.363Z</time></trkpt><trkpt lat="33.4131215" lon="8.2026827"><ele>29.333333333333332</ele><time>2026-04-18T09:33:19.361Z</time></trkpt><trkpt lat="33.4131307" lon="8.2024948"><ele>29.0</ele><time>2026-04-18T09:33:20.362Z</time></trkpt><trkpt lat="33.413141" lon="8.2023063"><ele>29.0</ele><time>2026-04-18T09:33:21.362Z</time></trkpt><trkpt lat="33.4131595" lon="8.20212"><ele>29.0</ele><time>2026-04-18T09:33:22.36Z</time></trkpt><trkpt lat="33.4131759" lon="8.2019379"><ele>29.0</ele><time>2026-04-18T09:33:23.368Z</time></trkpt><trkpt lat="33.4131937" lon="8.2017569"><ele>29.0</ele><time>2026-04-18T09:33:24.365Z</time></trkpt><trkpt lat="33.413209" lon="8.2015863"><ele>29.0</ele><time>2026-04-18T09:33:25.368Z</time></trkpt><trkpt lat="33.4132218" lon="8.2014191"><ele>29.0</ele><time>2026-04-18T09:33:26.372Z</time></trkpt><trkpt lat="33.413236" lon="8.2012468"><ele>29.0</ele><time>2026-04-18T09:33:27.363Z</time></trkpt><trkpt lat="33.4132472" lon="8.201069"><ele>29.333333333333332</ele><time>2026-04-18T09:33:28.36Z</time></trkpt><trkpt lat="33.4132555" lon="8.2008798"><ele>29.666666666666664</ele><time>2026-04-18T09:33:29.37Z</time></trkpt><trkpt lat="33.413265" lon="8.2006911"><ele>30.0</ele><time>2026-04-18T09:33:30.366Z</time></trkpt><trkpt lat="33.4132749" lon="8.200504"><ele>28.0</ele><time>2026-04-18T09:33:31.363Z</time></trkpt><trkpt lat="33.4132891" lon="8.2003169"><ele>26.0</ele><time>2026-04-18T09:33:32.362Z</time></trkpt><trkpt lat="33.4133063" lon="8.2001257"><ele>24.0</ele><time>2026-04-18T09:33:33.366Z</time></trkpt><trkpt lat="33.4133247" lon="8.1999356"><ele>25.0</ele><time>2026-04-18T09:33:34.365Z</time></trkpt><trkpt lat="33.4133405" lon="8.1997507"><ele>26.0</ele><time>2026-04-18T09:33:35.365Z</time></trkpt><trkpt lat="33.4133541" lon="8.1995741"><ele>27.0</ele><time>2026-04-18T09:33:36.362Z</time></trkpt><trkpt lat="33.4133679" lon="8.1993998"><ele>28.0</ele><time>2026-04-18T09:33:37.364Z</time></trkpt><trkpt lat="33.4133779" lon="8.1992287"><ele>28.0</ele><time>2026-04-18T09:33:38.363Z</time></trkpt><trkpt lat="33.4133766" lon="8.1990711"><ele>28.0</ele><time>2026-04-18T09:33:39.366Z</time></trkpt><trkpt lat="33.4133786" lon="8.1989253"><ele>28.0</ele><time>2026-04-18T09:33:40.37Z</time></trkpt><trkpt lat="33.4133828" lon="8.1987897"><ele>28.0</ele><time>2026-04-18T09:33:41.369Z</time></trkpt><trkpt lat="33.4133899" lon="8.1986646"><ele>28.4</ele><time>2026-04-18T09:33:42.362Z</time></trkpt><trkpt lat="33.4133982" lon="8.198541"><ele>28.799999999999997</ele><time>2026-04-18T09:33:43.37Z</time></trkpt><trkpt lat="33.4134071" lon="8.1984162"><ele>29.2</ele><time>2026-04-18T09:33:44.367Z</time></trkpt><trkpt lat="33.4134158" lon="8.1982772"><ele>29.6</ele><time>2026-04-18T09:33:45.368Z</time></trkpt><trkpt lat="33.4134206" lon="8.1981366"><ele>30.0</ele><time>2026-04-18T09:33:46.374Z</time></trkpt><trkpt lat="33.4134327" lon="8.1980129"><ele>30.2</ele><time>2026-04-18T09:33:47.366Z</time></trkpt><trkpt lat="33.4134465" lon="8.1979026"><ele>30.4</ele><time>2026-04-18T09:33:48.366Z</time></trkpt><trkpt lat="33.4134629" lon="8.19779"><ele>30.6</ele><time>2026-04-18T09:33:49.371Z</time></trkpt><trkpt lat="33.4134699" lon="8.1976531"><ele>30.8</ele><time>2026-04-18T09:33:50.373Z</time></trkpt><trkpt lat="33.4134857" lon="8.1975032"><ele>31.0</ele><time>2026-04-18T09:33:51.363Z</time></trkpt><trkpt lat="33.4134951" lon="8.1973507"><ele>30.75</ele><time>2026-04-18T09:33:52.379Z</time></trkpt><trkpt lat="33.4135063" lon="8.1971899"><ele>30.5</ele><time>2026-04-18T09:33:53.369Z</time></trkpt><trkpt lat="33.4135145" lon="8.1970215"><ele>30.25</ele><time>2026-04-18T09:33:54.366Z</time></trkpt><trkpt lat="33.4135239" lon="8.1968561"><ele>30.0</ele><time>2026-04-18T09:33:55.369Z</time></trkpt><trkpt lat="33.413527" lon="8.1966955"><ele>30.0</ele><time>2026-04-18T09:33:56.365Z</time></trkpt><trkpt lat="33.4135326" lon="8.1965405"><ele>30.0</ele><time>2026-04-18T09:33:57.365Z</time></trkpt><trkpt lat="33.4135391" lon="8.1963917"><ele>30.0</ele><time>2026-04-18T09:33:58.366Z</time></trkpt><trkpt lat="33.4135474" lon="8.1962522"><ele>30.0</ele><time>2026-04-18T09:33:59.367Z</time></trkpt><trkpt lat="33.4135552" lon="8.1961195"><ele>30.0</ele><time>2026-04-18T09:34:00.365Z</time></trkpt><trkpt lat="33.4135584" lon="8.1959921"><ele>30.0</ele><time>2026-04-18T09:34:01.361Z</time></trkpt><trkpt lat="33.4135576" lon="8.1958708"><ele>30.0</ele><time>2026-04-18T09:34:02.376Z</time></trkpt><trkpt lat="33.4135587" lon="8.1957616"><ele>30.0</ele><time>2026-04-18T09:34:03.365Z</time></trkpt><trkpt lat="33.4135598" lon="8.1956542"><ele>30.0</ele><time>2026-04-18T09:34:04.364Z</time></trkpt><trkpt lat="33.4135696" lon="8.1955527"><ele>30.0</ele><time>2026-04-18T09:34:05.365Z</time></trkpt><trkpt lat="33.4135969" lon="8.195451"><ele>30.0</ele><time>2026-04-18T09:34:06.372Z</time></trkpt><trkpt lat="33.4136424" lon="8.1953541"><ele>30.0</ele><time>2026-04-18T09:34:07.366Z</time></trkpt><trkpt lat="33.4137004" lon="8.1952656"><ele>30.0</ele><time>2026-04-18T09:34:08.362Z</time></trkpt><trkpt lat="33.4137704" lon="8.1951904"><ele>30.0</ele><time>2026-04-18T09:34:09.365Z</time></trkpt><trkpt lat="33.4138439" lon="8.1951308"><ele>30.0</ele><time>2026-04-18T09:34:10.358Z</time></trkpt><trkpt lat="33.4139109" lon="8.1950778"><ele>30.0</ele><time>2026-04-18T09:34:11.358Z</time></trkpt><trkpt lat="33.4139719" lon="8.1950268"><ele>30.0</ele><time>2026-04-18T09:34:12.37Z</time></trkpt><trkpt lat="33.4140319" lon="8.1949763"><ele>30.0</ele><time>2026-04-18T09:34:13.363Z</time></trkpt><trkpt lat="33.4140885" lon="8.1949192"><ele>30.0</ele><time>2026-04-18T09:34:14.367Z</time></trkpt><trkpt lat="33.4141378" lon="8.1948519"><ele>30.0</ele><time>2026-04-18T09:34:15.361Z</time></trkpt><trkpt lat="33.4141774" lon="8.1947812"><ele>30.0</ele><time>2026-04-18T09:34:16.362Z</time></trkpt><trkpt lat="33.4142117" lon="8.194712"><ele>30.166666666666668</ele><time>2026-04-18T09:34:17.359Z</time></trkpt><trkpt lat="33.4142494" lon="8.1946411"><ele>30.333333333333336</ele><time>2026-04-18T09:34:18.371Z</time></trkpt><trkpt lat="33.4142925" lon="8.1945771"><ele>30.5</ele><time>2026-04-18T09:34:19.364Z</time></trkpt><trkpt lat="33.4143379" lon="8.1945194"><ele>30.666666666666668</ele><time>2026-04-18T09:34:20.359Z</time></trkpt><trkpt lat="33.4143781" lon="8.1944608"><ele>30.833333333333336</ele><time>2026-04-18T09:34:21.367Z</time></trkpt><trkpt lat="33.4144221" lon="8.1943346"><ele>31.0</ele><time>2026-04-18T09:34:23.359Z</time></trkpt><trkpt lat="33.4144021" lon="8.1941902"><ele>31.0</ele><time>2026-04-18T09:34:25.366Z</time></trkpt><trkpt lat="33.4143667" lon="8.1940983"><ele>31.0</ele><time>2026-04-18T09:34:26.36Z</time></trkpt><trkpt lat="33.4143244" lon="8.1939945"><ele>31.0</ele><time>2026-04-18T09:34:27.362Z</time></trkpt><trkpt lat="33.4142808" lon="8.1938817"><ele>31.0</ele><time>2026-04-18T09:34:28.364Z</time></trkpt><trkpt lat="33.4142328" lon="8.1937637"><ele>31.0</ele><time>2026-04-18T09:34:29.36Z</time></trkpt><trkpt lat="33.4141805" lon="8.1936433"><ele>30.5</ele><time>2026-04-18T09:34:30.36Z</time></trkpt><trkpt lat="33.4141321" lon="8.1935125"><ele>30.0</ele><time>2026-04-18T09:34:31.36Z</time></trkpt><trkpt lat="33.4140779" lon="8.1933809"><ele>29.5</ele><time>2026-04-18T09:34:32.36Z</time></trkpt><trkpt lat="33.4140296" lon="8.1932505"><ele>29.0</ele><time>2026-04-18T09:34:33.372Z</time></trkpt><trkpt lat="33.4139851" lon="8.1931196"><ele>29.0</ele><time>2026-04-18T09:34:34.362Z</time></trkpt><trkpt lat="33.4139423" lon="8.192991"><ele>29.0</ele><time>2026-04-18T09:34:35.366Z</time></trkpt><trkpt lat="33.4139063" lon="8.192863"><ele>29.0</ele><time>2026-04-18T09:34:36.356Z</time></trkpt><trkpt lat="33.4138793" lon="8.1927367"><ele>29.0</ele><time>2026-04-18T09:34:37.363Z</time></trkpt><trkpt lat="33.4138597" lon="8.1926127"><ele>29.0</ele><time>2026-04-18T09:34:38.368Z</time></trkpt><trkpt lat="33.4138526" lon="8.1924934"><ele>29.0</ele><time>2026-04-18T09:34:39.36Z</time></trkpt><trkpt lat="33.4138534" lon="8.1923733"><ele>29.0</ele><time>2026-04-18T09:34:40.363Z</time></trkpt><trkpt lat="33.4138589" lon="8.1922452"><ele>29.0</ele><time>2026-04-18T09:34:41.368Z</time></trkpt><trkpt lat="33.413869" lon="8.1921036"><ele>29.0</ele><time>2026-04-18T09:34:42.369Z</time></trkpt><trkpt lat="33.4138782" lon="8.1919549"><ele>30.0</ele><time>2026-04-18T09:34:43.367Z</time></trkpt><trkpt lat="33.4138878" lon="8.191804"><ele>31.0</ele><time>2026-04-18T09:34:44.365Z</time></trkpt><trkpt lat="33.4138962" lon="8.1916586"><ele>32.0</ele><time>2026-04-18T09:34:45.362Z</time></trkpt><trkpt lat="33.4138989" lon="8.1915197"><ele>33.0</ele><time>2026-04-18T09:34:46.368Z</time></trkpt><trkpt lat="33.4138932" lon="8.1913874"><ele>33.199999999999996</ele><time>2026-04-18T09:34:47.366Z</time></trkpt><trkpt lat="33.4138903" lon="8.1912603"><ele>33.4</ele><time>2026-04-18T09:34:48.366Z</time></trkpt><trkpt lat="33.4138995" lon="8.1911377"><ele>33.599999999999994</ele><time>2026-04-18T09:34:49.362Z</time></trkpt><trkpt lat="33.4139262" lon="8.1910252"><ele>33.8</ele><time>2026-04-18T09:34:50.364Z</time></trkpt><trkpt lat="33.4139612" lon="8.1909233"><ele>34.0</ele><time>2026-04-18T09:34:51.365Z</time></trkpt><trkpt lat="33.4139905" lon="8.1908337"><ele>34.0</ele><time>2026-04-18T09:34:52.363Z</time></trkpt><trkpt lat="33.4140064" lon="8.1907557"><ele>34.0</ele><time>2026-04-18T09:34:53.36Z</time></trkpt><trkpt lat="33.4140124" lon="8.1906661"><ele>34.0</ele><time>2026-04-18T09:34:54.361Z</time></trkpt><trkpt lat="33.4140048" lon="8.1905566"><ele>34.0</ele><time>2026-04-18T09:34:55.364Z</time></trkpt><trkpt lat="33.4139923" lon="8.1904405"><ele>34.0</ele><time>2026-04-18T09:34:56.364Z</time></trkpt><trkpt lat="33.4139812" lon="8.190317"><ele>34.0</ele><time>2026-04-18T09:34:57.366Z</time></trkpt><trkpt lat="33.4139704" lon="8.1901986"><ele>34.0</ele><time>2026-04-18T09:34:58.364Z</time></trkpt><trkpt lat="33.41397" lon="8.1900912"><ele>34.0</ele><time>2026-04-18T09:34:59.364Z</time></trkpt><trkpt lat="33.4139785" lon="8.1899747"><ele>34.0</ele><time>2026-04-18T09:35:00.365Z</time></trkpt><trkpt lat="33.4139816" lon="8.189857"><ele>34.0</ele><time>2026-04-18T09:35:01.37Z</time></trkpt><trkpt lat="33.4139704" lon="8.189746"><ele>34.0</ele><time>2026-04-18T09:35:02.363Z</time></trkpt><trkpt lat="33.4139485" lon="8.1896437"><ele>33.833333333333336</ele><time>2026-04-18T09:35:03.356Z</time></trkpt><trkpt lat="33.4139252" lon="8.1895364"><ele>33.66666666666667</ele><time>2026-04-18T09:35:04.366Z</time></trkpt><trkpt lat="33.4139042" lon="8.1894276"><ele>33.5</ele><time>2026-04-18T09:35:05.357Z</time></trkpt><trkpt lat="33.413892" lon="8.1893225"><ele>33.333333333333336</ele><time>2026-04-18T09:35:06.362Z</time></trkpt><trkpt lat="33.4138852" lon="8.1892214"><ele>33.166666666666664</ele><time>2026-04-18T09:35:07.369Z</time></trkpt><trkpt lat="33.4138849" lon="8.1891366"><ele>33.0</ele><time>2026-04-18T09:35:08.362Z</time></trkpt><trkpt lat="33.4138924" lon="8.189059"><ele>33.166666666666664</ele><time>2026-04-18T09:35:09.361Z</time></trkpt><trkpt lat="33.4139151" lon="8.1889816"><ele>33.333333333333336</ele><time>2026-04-18T09:35:10.359Z</time></trkpt><trkpt lat="33.4139563" lon="8.1889038"><ele>33.5</ele><time>2026-04-18T09:35:11.362Z</time></trkpt><trkpt lat="33.4140109" lon="8.1888227"><ele>33.66666666666667</ele><time>2026-04-18T09:35:12.363Z</time></trkpt><trkpt lat="33.4140644" lon="8.1887432"><ele>33.833333333333336</ele><time>2026-04-18T09:35:13.361Z</time></trkpt><trkpt lat="33.4141077" lon="8.1886617"><ele>34.0</ele><time>2026-04-18T09:35:14.358Z</time></trkpt><trkpt lat="33.4141403" lon="8.1885727"><ele>34.0</ele><time>2026-04-18T09:35:15.364Z</time></trkpt><trkpt lat="33.4141602" lon="8.1884811"><ele>34.0</ele><time>2026-04-18T09:35:16.359Z</time></trkpt><trkpt lat="33.4141634" lon="8.1883811"><ele>34.0</ele><time>2026-04-18T09:35:17.364Z</time></trkpt><trkpt lat="33.4141584" lon="8.1882706"><ele>34.0</ele><time>2026-04-18T09:35:18.36Z</time></trkpt><trkpt lat="33.414153" lon="8.1881497"><ele>34.0</ele><time>2026-04-18T09:35:19.362Z</time></trkpt><trkpt lat="33.4141551" lon="8.1880364"><ele>34.0</ele><time>2026-04-18T09:35:20.362Z</time></trkpt><trkpt lat="33.4141694" lon="8.1879225"><ele>34.0</ele><time>2026-04-18T09:35:21.366Z</time></trkpt><trkpt lat="33.4141848" lon="8.1878299"><ele>34.0</ele><time>2026-04-18T09:35:22.376Z</time></trkpt><trkpt lat="33.4142009" lon="8.1877366"><ele>34.0</ele><time>2026-04-18T09:35:23.363Z</time></trkpt><trkpt lat="33.4142229" lon="8.1876497"><ele>34.0</ele><time>2026-04-18T09:35:24.365Z</time></trkpt><trkpt lat="33.4142529" lon="8.1875589"><ele>34.0</ele><time>2026-04-18T09:35:25.365Z</time></trkpt><trkpt lat="33.4142783" lon="8.1874672"><ele>34.0</ele><time>2026-04-18T09:35:26.368Z</time></trkpt><trkpt lat="33.4142931" lon="8.1873674"><ele>34.0</ele><time>2026-04-18T09:35:27.362Z</time></trkpt><trkpt lat="33.4143011" lon="8.1872563"><ele>34.0</ele><time>2026-04-18T09:35:28.366Z</time></trkpt><trkpt lat="33.4142937" lon="8.1871276"><ele>34.0</ele><time>2026-04-18T09:35:29.365Z</time></trkpt><trkpt lat="33.4142924" lon="8.1870026"><ele>34.0</ele><time>2026-04-18T09:35:30.362Z</time></trkpt><trkpt lat="33.4142935" lon="8.1868824"><ele>34.2</ele><time>2026-04-18T09:35:31.363Z</time></trkpt><trkpt lat="33.4142921" lon="8.1867607"><ele>34.4</ele><time>2026-04-18T09:35:32.373Z</time></trkpt><trkpt lat="33.4143005" lon="8.1866556"><ele>34.6</ele><time>2026-04-18T09:35:33.366Z</time></trkpt><trkpt lat="33.4143123" lon="8.1865579"><ele>34.8</ele><time>2026-04-18T09:35:34.371Z</time></trkpt><trkpt lat="33.4143194" lon="8.1864484"><ele>35.0</ele><time>2026-04-18T09:35:35.363Z</time></trkpt><trkpt lat="33.4143213" lon="8.1863411"><ele>34.666666666666664</ele><time>2026-04-18T09:35:36.356Z</time></trkpt><trkpt lat="33.4143234" lon="8.186229"><ele>34.33333333333333</ele><time>2026-04-18T09:35:37.366Z</time></trkpt><trkpt lat="33.4143285" lon="8.1861213"><ele>34.0</ele><time>2026-04-18T09:35:38.365Z</time></trkpt><trkpt lat="33.4143379" lon="8.1860185"><ele>33.666666666666664</ele><time>2026-04-18T09:35:39.361Z</time></trkpt><trkpt lat="33.4143423" lon="8.1859289"><ele>33.333333333333336</ele><time>2026-04-18T09:35:40.366Z</time></trkpt><trkpt lat="33.4143443" lon="8.1858444"><ele>33.0</ele><time>2026-04-18T09:35:41.365Z</time></trkpt><trkpt lat="33.4143466" lon="8.1857633"><ele>33.0</ele><time>2026-04-18T09:35:42.364Z</time></trkpt><trkpt lat="33.414344" lon="8.185683"><ele>33.0</ele><time>2026-04-18T09:35:43.368Z</time></trkpt><trkpt lat="33.4143427" lon="8.1855978"><ele>33.0</ele><time>2026-04-18T09:35:44.369Z</time></trkpt><trkpt lat="33.4143393" lon="8.185514"><ele>33.0</ele><time>2026-04-18T09:35:45.361Z</time></trkpt><trkpt lat="33.4143348" lon="8.1854331"><ele>33.0</ele><time>2026-04-18T09:35:46.36Z</time></trkpt><trkpt lat="33.41433" lon="8.1853564"><ele>33.0</ele><time>2026-04-18T09:35:47.358Z</time></trkpt><trkpt lat="33.4143086" lon="8.1852155"><ele>33.199999999999996</ele><time>2026-04-18T09:35:49.361Z</time></trkpt><trkpt lat="33.41428" lon="8.1850808"><ele>33.4</ele><time>2026-04-18T09:35:51.358Z</time></trkpt><trkpt lat="33.4142629" lon="8.1849756"><ele>33.599999999999994</ele><time>2026-04-18T09:35:53.363Z</time></trkpt><trkpt lat="33.4142584" lon="8.1848924"><ele>33.8</ele><time>2026-04-18T09:46:11.328Z</time></trkpt><trkpt lat="33.4142846" lon="8.1847337"><ele>34.0</ele><time>2026-04-18T09:46:14.358Z</time></trkpt><trkpt lat="33.4142806" lon="8.1846391"><ele>33.4</ele><time>2026-04-18T09:46:15.367Z</time></trkpt><trkpt lat="33.414241" lon="8.1845338"><ele>32.8</ele><time>2026-04-18T09:46:16.366Z</time></trkpt><trkpt lat="33.4141987" lon="8.1844261"><ele>32.2</ele><time>2026-04-18T09:46:17.357Z</time></trkpt><trkpt lat="33.4141692" lon="8.184318"><ele>31.6</ele><time>2026-04-18T09:46:18.356Z</time></trkpt><trkpt lat="33.4141528" lon="8.1841976"><ele>31.0</ele><time>2026-04-18T09:46:19.361Z</time></trkpt><trkpt lat="33.4141475" lon="8.1840783"><ele>30.6</ele><time>2026-04-18T09:46:20.357Z</time></trkpt><trkpt lat="33.4141524" lon="8.1839464"><ele>30.200000000000003</ele><time>2026-04-18T09:46:21.363Z</time></trkpt><trkpt lat="33.4141632" lon="8.183807"><ele>29.799999999999997</ele><time>2026-04-18T09:46:22.364Z</time></trkpt><trkpt lat="33.4141754" lon="8.1836733"><ele>29.4</ele><time>2026-04-18T09:46:23.363Z</time></trkpt><trkpt lat="33.4141976" lon="8.1835537"><ele>29.0</ele><time>2026-04-18T09:46:24.361Z</time></trkpt><trkpt lat="33.4142282" lon="8.183448"><ele>28.999999999999996</ele><time>2026-04-18T09:46:25.371Z</time></trkpt><trkpt lat="33.4142677" lon="8.1833634"><ele>29.0</ele><time>2026-04-18T09:46:26.363Z</time></trkpt><trkpt lat="33.4143241" lon="8.1832766"><ele>29.0</ele><time>2026-04-18T09:46:27.363Z</time></trkpt><trkpt lat="33.414391" lon="8.1831886"><ele>29.0</ele><time>2026-04-18T09:46:28.36Z</time></trkpt><trkpt lat="33.4144541" lon="8.1831093"><ele>28.999999999999996</ele><time>2026-04-18T09:46:29.362Z</time></trkpt><trkpt lat="33.4144984" lon="8.1830229"><ele>29.0</ele><time>2026-04-18T09:46:30.365Z</time></trkpt><trkpt lat="33.4145299" lon="8.1829356"><ele>28.166666666666664</ele><time>2026-04-18T09:46:31.364Z</time></trkpt><trkpt lat="33.4145529" lon="8.1828527"><ele>27.333333333333332</ele><time>2026-04-18T09:46:32.363Z</time></trkpt><trkpt lat="33.414566" lon="8.1827723"><ele>26.5</ele><time>2026-04-18T09:46:33.363Z</time></trkpt><trkpt lat="33.4145681" lon="8.1826888"><ele>25.666666666666664</ele><time>2026-04-18T09:46:34.365Z</time></trkpt><trkpt lat="33.4145664" lon="8.1826018"><ele>24.833333333333332</ele><time>2026-04-18T09:46:35.368Z</time></trkpt><trkpt lat="33.4145653" lon="8.1824997"><ele>24.0</ele><time>2026-04-18T09:46:36.36Z</time></trkpt><trkpt lat="33.4145699" lon="8.1823909"><ele>23.799999999999997</ele><time>2026-04-18T09:46:37.359Z</time></trkpt><trkpt lat="33.4145771" lon="8.1822876"><ele>23.599999999999998</ele><time>2026-04-18T09:46:38.361Z</time></trkpt><trkpt lat="33.4145852" lon="8.182178"><ele>23.4</ele><time>2026-04-18T09:46:39.365Z</time></trkpt><trkpt lat="33.4145961" lon="8.182062"><ele>23.2</ele><time>2026-04-18T09:46:40.363Z</time></trkpt><trkpt lat="33.4146059" lon="8.1819468"><ele>23.0</ele><time>2026-04-18T09:46:41.36Z</time></trkpt><trkpt lat="33.4146163" lon="8.181827"><ele>23.0</ele><time>2026-04-18T09:46:42.368Z</time></trkpt><trkpt lat="33.4146269" lon="8.1817122"><ele>23.0</ele><time>2026-04-18T09:46:43.365Z</time></trkpt><trkpt lat="33.4146357" lon="8.1816058"><ele>23.0</ele><time>2026-04-18T09:46:44.362Z</time></trkpt><trkpt lat="33.4146428" lon="8.1815025"><ele>23.0</ele><time>2026-04-18T09:46:45.363Z</time></trkpt><trkpt lat="33.4146456" lon="8.1813979"><ele>23.0</ele><time>2026-04-18T09:46:46.369Z</time></trkpt><trkpt lat="33.4146465" lon="8.1812991"><ele>23.0</ele><time>2026-04-18T09:46:47.36Z</time></trkpt><trkpt lat="33.4146485" lon="8.1812163"><ele>23.4</ele><time>2026-04-18T09:46:48.362Z</time></trkpt><trkpt lat="33.4146524" lon="8.1810904"><ele>23.799999999999997</ele><time>2026-04-18T09:46:50.363Z</time></trkpt><trkpt lat="33.4146589" lon="8.1809989"><ele>24.2</ele><time>2026-04-18T09:46:52.365Z</time></trkpt><trkpt lat="33.4146694" lon="8.1809047"><ele>24.6</ele><time>2026-04-18T09:46:54.361Z</time></trkpt><trkpt lat="33.4146793" lon="8.1807869"><ele>25.0</ele><time>2026-04-18T09:46:56.359Z</time></trkpt><trkpt lat="33.4146888" lon="8.1806266"><ele>25.333333333333336</ele><time>2026-04-18T09:46:58.363Z</time></trkpt><trkpt lat="33.4146926" lon="8.1805398"><ele>25.666666666666668</ele><time>2026-04-18T09:46:59.367Z</time></trkpt><trkpt lat="33.4146958" lon="8.1804634"><ele>26.0</ele><time>2026-04-18T09:47:00.363Z</time></trkpt><trkpt lat="33.4147074" lon="8.1803281"><ele>26.333333333333336</ele><time>2026-04-18T09:47:02.36Z</time></trkpt><trkpt lat="33.4147141" lon="8.1802353"><ele>26.666666666666668</ele><time>2026-04-18T09:47:04.362Z</time></trkpt><trkpt lat="33.4147312" lon="8.1801007"><ele>27.0</ele><time>2026-04-18T09:47:34.369Z</time></trkpt><trkpt lat="33.4147456" lon="8.1799552"><ele>27.0</ele><time>2026-04-18T09:47:36.367Z</time></trkpt><trkpt lat="33.4147521" lon="8.1798735"><ele>27.0</ele><time>2026-04-18T09:47:37.357Z</time></trkpt><trkpt lat="33.414761" lon="8.1797876"><ele>27.0</ele><time>2026-04-18T09:47:38.361Z</time></trkpt><trkpt lat="33.4147698" lon="8.1796985"><ele>27.0</ele><time>2026-04-18T09:47:39.368Z</time></trkpt><trkpt lat="33.4147788" lon="8.1796041"><ele>27.0</ele><time>2026-04-18T09:47:40.357Z</time></trkpt><trkpt lat="33.4147863" lon="8.1795019"><ele>27.0</ele><time>2026-04-18T09:47:41.357Z</time></trkpt><trkpt lat="33.4147934" lon="8.1794054"><ele>27.200000000000003</ele><time>2026-04-18T09:47:42.355Z</time></trkpt><trkpt lat="33.4147997" lon="8.1793211"><ele>27.400000000000002</ele><time>2026-04-18T09:47:43.359Z</time></trkpt><trkpt lat="33.4148084" lon="8.179196"><ele>27.599999999999998</ele><time>2026-04-18T09:47:45.356Z</time></trkpt><trkpt lat="33.4148141" lon="8.1791115"><ele>27.799999999999997</ele><time>2026-04-18T09:47:50.411Z</time></trkpt><trkpt lat="33.4148228" lon="8.1789785"><ele>28.0</ele><time>2026-04-18T09:47:52.367Z</time></trkpt><trkpt lat="33.4148313" lon="8.1788646"><ele>28.0</ele><time>2026-04-18T09:47:53.373Z</time></trkpt><trkpt lat="33.4148416" lon="8.1787292"><ele>28.0</ele><time>2026-04-18T09:47:54.367Z</time></trkpt><trkpt lat="33.4148536" lon="8.1785827"><ele>28.0</ele><time>2026-04-18T09:47:55.369Z</time></trkpt><trkpt lat="33.4148661" lon="8.1784238"><ele>28.0</ele><time>2026-04-18T09:47:56.362Z</time></trkpt><trkpt lat="33.414878" lon="8.1782555"><ele>28.25</ele><time>2026-04-18T09:47:57.368Z</time></trkpt><trkpt lat="33.4148894" lon="8.1780862"><ele>28.5</ele><time>2026-04-18T09:47:58.36Z</time></trkpt><trkpt lat="33.4149" lon="8.1779194"><ele>28.75</ele><time>2026-04-18T09:47:59.363Z</time></trkpt><trkpt lat="33.4149124" lon="8.1777524"><ele>29.0</ele><time>2026-04-18T09:48:00.368Z</time></trkpt><trkpt lat="33.4149249" lon="8.1775826"><ele>29.0</ele><time>2026-04-18T09:48:01.369Z</time></trkpt><trkpt lat="33.4149376" lon="8.1774126"><ele>29.0</ele><time>2026-04-18T09:48:02.368Z</time></trkpt><trkpt lat="33.4149486" lon="8.1772482"><ele>29.0</ele><time>2026-04-18T09:48:03.365Z</time></trkpt><trkpt lat="33.4149604" lon="8.1770963"><ele>29.0</ele><time>2026-04-18T09:48:04.361Z</time></trkpt><trkpt lat="33.4149679" lon="8.1769533"><ele>29.0</ele><time>2026-04-18T09:48:05.364Z</time></trkpt><trkpt lat="33.4149697" lon="8.1768059"><ele>29.0</ele><time>2026-04-18T09:48:06.361Z</time></trkpt><trkpt lat="33.414974" lon="8.1766459"><ele>29.0</ele><time>2026-04-18T09:48:07.368Z</time></trkpt><trkpt lat="33.4149866" lon="8.1764829"><ele>29.0</ele><time>2026-04-18T09:48:08.367Z</time></trkpt><trkpt lat="33.4150006" lon="8.176316"><ele>29.0</ele><time>2026-04-18T09:48:09.363Z</time></trkpt><trkpt lat="33.4150153" lon="8.1761457"><ele>29.0</ele><time>2026-04-18T09:48:10.359Z</time></trkpt><trkpt lat="33.4150299" lon="8.1759752"><ele>29.0</ele><time>2026-04-18T09:48:11.365Z</time></trkpt><trkpt lat="33.4150444" lon="8.1758043"><ele>29.0</ele><time>2026-04-18T09:48:12.361Z</time></trkpt><trkpt lat="33.4150572" lon="8.175635"><ele>28.75</ele><time>2026-04-18T09:48:13.36Z</time></trkpt><trkpt lat="33.4150696" lon="8.1754648"><ele>28.5</ele><time>2026-04-18T09:48:14.374Z</time></trkpt><trkpt lat="33.4150821" lon="8.1752926"><ele>28.25</ele><time>2026-04-18T09:48:15.362Z</time></trkpt><trkpt lat="33.4150955" lon="8.1751201"><ele>28.0</ele><time>2026-04-18T09:48:16.364Z</time></trkpt><trkpt lat="33.4151071" lon="8.1749496"><ele>28.75</ele><time>2026-04-18T09:48:17.365Z</time></trkpt><trkpt lat="33.4151208" lon="8.1747791"><ele>29.5</ele><time>2026-04-18T09:48:18.364Z</time></trkpt><trkpt lat="33.4151346" lon="8.1746045"><ele>30.25</ele><time>2026-04-18T09:48:19.365Z</time></trkpt><trkpt lat="33.4151481" lon="8.1744281"><ele>31.0</ele><time>2026-04-18T09:48:20.37Z</time></trkpt><trkpt lat="33.4151619" lon="8.1742519"><ele>31.0</ele><time>2026-04-18T09:48:21.372Z</time></trkpt><trkpt lat="33.4151746" lon="8.1740768"><ele>31.0</ele><time>2026-04-18T09:48:22.363Z</time></trkpt><trkpt lat="33.4151879" lon="8.1738988"><ele>31.0</ele><time>2026-04-18T09:48:23.362Z</time></trkpt><trkpt lat="33.4152008" lon="8.1737255"><ele>31.0</ele><time>2026-04-18T09:48:24.362Z</time></trkpt><trkpt lat="33.415213" lon="8.1735569"><ele>30.5</ele><time>2026-04-18T09:48:25.361Z</time></trkpt><trkpt lat="33.4152263" lon="8.1733896"><ele>30.0</ele><time>2026-04-18T09:48:26.362Z</time></trkpt><trkpt lat="33.4152404" lon="8.1732216"><ele>29.5</ele><time>2026-04-18T09:48:27.362Z</time></trkpt><trkpt lat="33.4152516" lon="8.1730529"><ele>29.0</ele><time>2026-04-18T09:48:28.36Z</time></trkpt><trkpt lat="33.4152626" lon="8.1728853"><ele>28.5</ele><time>2026-04-18T09:48:29.366Z</time></trkpt><trkpt lat="33.4152729" lon="8.1727179"><ele>28.0</ele><time>2026-04-18T09:48:30.368Z</time></trkpt><trkpt lat="33.4152809" lon="8.1725524"><ele>27.5</ele><time>2026-04-18T09:48:31.37Z</time></trkpt><trkpt lat="33.4152896" lon="8.1723937"><ele>27.0</ele><time>2026-04-18T09:48:32.359Z</time></trkpt><trkpt lat="33.4152975" lon="8.1722424"><ele>26.75</ele><time>2026-04-18T09:48:33.361Z</time></trkpt><trkpt lat="33.4153034" lon="8.1720918"><ele>26.5</ele><time>2026-04-18T09:48:34.354Z</time></trkpt><trkpt lat="33.4153082" lon="8.1719369"><ele>26.25</ele><time>2026-04-18T09:48:35.359Z</time></trkpt><trkpt lat="33.4153211" lon="8.171784"><ele>26.0</ele><time>2026-04-18T09:48:36.359Z</time></trkpt><trkpt lat="33.4153418" lon="8.1716329"><ele>26.75</ele><time>2026-04-18T09:48:37.365Z</time></trkpt><trkpt lat="33.4153616" lon="8.1714711"><ele>27.5</ele><time>2026-04-18T09:48:38.365Z</time></trkpt><trkpt lat="33.4153787" lon="8.1713112"><ele>28.25</ele><time>2026-04-18T09:48:39.365Z</time></trkpt><trkpt lat="33.4153937" lon="8.1711568"><ele>29.0</ele><time>2026-04-18T09:48:40.367Z</time></trkpt><trkpt lat="33.4154068" lon="8.1709992"><ele>29.0</ele><time>2026-04-18T09:48:41.364Z</time></trkpt><trkpt lat="33.415417" lon="8.1708427"><ele>29.0</ele><time>2026-04-18T09:48:42.363Z</time></trkpt><trkpt lat="33.4154224" lon="8.1706884"><ele>29.0</ele><time>2026-04-18T09:48:43.367Z</time></trkpt><trkpt lat="33.4154323" lon="8.1705317"><ele>29.0</ele><time>2026-04-18T09:48:44.359Z</time></trkpt><trkpt lat="33.4154378" lon="8.1703707"><ele>29.25</ele><time>2026-04-18T09:48:45.381Z</time></trkpt><trkpt lat="33.4154415" lon="8.1702107"><ele>29.5</ele><time>2026-04-18T09:48:46.363Z</time></trkpt><trkpt lat="33.4154452" lon="8.1700644"><ele>29.75</ele><time>2026-04-18T09:48:47.365Z</time></trkpt><trkpt lat="33.415448" lon="8.1699202"><ele>30.0</ele><time>2026-04-18T09:48:48.364Z</time></trkpt><trkpt lat="33.415455" lon="8.1697925"><ele>30.0</ele><time>2026-04-18T09:48:49.363Z</time></trkpt><trkpt lat="33.4154623" lon="8.1696764"><ele>30.0</ele><time>2026-04-18T09:48:50.363Z</time></trkpt><trkpt lat="33.4154848" lon="8.1695701"><ele>30.0</ele><time>2026-04-18T09:48:51.364Z</time></trkpt><trkpt lat="33.4155148" lon="8.1694641"><ele>30.0</ele><time>2026-04-18T09:48:52.364Z</time></trkpt><trkpt lat="33.4155326" lon="8.1693568"><ele>30.0</ele><time>2026-04-18T09:48:53.362Z</time></trkpt><trkpt lat="33.4155403" lon="8.1692281"><ele>30.25</ele><time>2026-04-18T09:48:54.364Z</time></trkpt><trkpt lat="33.415547" lon="8.1690926"><ele>30.5</ele><time>2026-04-18T09:48:55.357Z</time></trkpt><trkpt lat="33.4155482" lon="8.1689623"><ele>30.75</ele><time>2026-04-18T09:48:56.365Z</time></trkpt><trkpt lat="33.415553" lon="8.1688287"><ele>31.0</ele><time>2026-04-18T09:48:57.36Z</time></trkpt><trkpt lat="33.4155657" lon="8.1686882"><ele>31.0</ele><time>2026-04-18T09:48:58.359Z</time></trkpt><trkpt lat="33.4155828" lon="8.1685314"><ele>31.0</ele><time>2026-04-18T09:48:59.364Z</time></trkpt><trkpt lat="33.4155983" lon="8.1683601"><ele>31.0</ele><time>2026-04-18T09:49:00.359Z</time></trkpt><trkpt lat="33.4156143" lon="8.1681788"><ele>31.0</ele><time>2026-04-18T09:49:01.368Z</time></trkpt><trkpt lat="33.4156279" lon="8.1679943"><ele>31.0</ele><time>2026-04-18T09:49:02.357Z</time></trkpt><trkpt lat="33.4156413" lon="8.1678093"><ele>31.0</ele><time>2026-04-18T09:49:03.368Z</time></trkpt><trkpt lat="33.415655" lon="8.1676233"><ele>31.0</ele><time>2026-04-18T09:49:04.366Z</time></trkpt><trkpt lat="33.4156669" lon="8.1674376"><ele>30.5</ele><time>2026-04-18T09:49:05.369Z</time></trkpt><trkpt lat="33.4156785" lon="8.1672631"><ele>30.0</ele><time>2026-04-18T09:49:06.365Z</time></trkpt><trkpt lat="33.4156893" lon="8.1670947"><ele>29.5</ele><time>2026-04-18T09:49:07.361Z</time></trkpt><trkpt lat="33.4157003" lon="8.1669263"><ele>29.0</ele><time>2026-04-18T09:49:08.365Z</time></trkpt><trkpt lat="33.4157085" lon="8.1667653"><ele>29.0</ele><time>2026-04-18T09:49:09.358Z</time></trkpt><trkpt lat="33.4157114" lon="8.1666197"><ele>29.0</ele><time>2026-04-18T09:49:10.365Z</time></trkpt><trkpt lat="33.4157072" lon="8.1664903"><ele>29.0</ele><time>2026-04-18T09:49:11.365Z</time></trkpt><trkpt lat="33.4156951" lon="8.1663716"><ele>29.0</ele><time>2026-04-18T09:49:12.364Z</time></trkpt><trkpt lat="33.4156776" lon="8.1662636"><ele>29.0</ele><time>2026-04-18T09:49:13.364Z</time></trkpt><trkpt lat="33.4156698" lon="8.1661768"><ele>28.999999999999996</ele><time>2026-04-18T09:49:14.359Z</time></trkpt><trkpt lat="33.4156782" lon="8.166102"><ele>29.0</ele><time>2026-04-18T09:49:15.368Z</time></trkpt><trkpt lat="33.4156981" lon="8.1660295"><ele>29.0</ele><time>2026-04-18T09:49:16.36Z</time></trkpt><trkpt lat="33.4157303" lon="8.1659313"><ele>29.0</ele><time>2026-04-18T09:49:17.357Z</time></trkpt><trkpt lat="33.4157583" lon="8.1658171"><ele>28.999999999999996</ele><time>2026-04-18T09:49:18.359Z</time></trkpt><trkpt lat="33.415778" lon="8.1656858"><ele>29.0</ele><time>2026-04-18T09:49:19.367Z</time></trkpt><trkpt lat="33.4157963" lon="8.1655367"><ele>28.75</ele><time>2026-04-18T09:49:20.364Z</time></trkpt><trkpt lat="33.4158119" lon="8.1653798"><ele>28.5</ele><time>2026-04-18T09:49:21.365Z</time></trkpt><trkpt lat="33.4158222" lon="8.1652277"><ele>28.25</ele><time>2026-04-18T09:49:22.366Z</time></trkpt><trkpt lat="33.4158238" lon="8.1650761"><ele>28.0</ele><time>2026-04-18T09:49:23.365Z</time></trkpt><trkpt lat="33.4158255" lon="8.1649279"><ele>28.25</ele><time>2026-04-18T09:49:24.357Z</time></trkpt><trkpt lat="33.4158349" lon="8.1647873"><ele>28.5</ele><time>2026-04-18T09:49:25.366Z</time></trkpt><trkpt lat="33.4158495" lon="8.1646477"><ele>28.75</ele><time>2026-04-18T09:49:26.358Z</time></trkpt><trkpt lat="33.4158647" lon="8.1645076"><ele>29.0</ele><time>2026-04-18T09:49:27.357Z</time></trkpt><trkpt lat="33.4158813" lon="8.1643613"><ele>29.0</ele><time>2026-04-18T09:49:28.363Z</time></trkpt><trkpt lat="33.4158988" lon="8.1642033"><ele>29.0</ele><time>2026-04-18T09:49:29.367Z</time></trkpt><trkpt lat="33.4159097" lon="8.1640358"><ele>29.0</ele><time>2026-04-18T09:49:30.359Z</time></trkpt><trkpt lat="33.4159144" lon="8.1638614"><ele>29.0</ele><time>2026-04-18T09:49:31.358Z</time></trkpt><trkpt lat="33.4159228" lon="8.163694"><ele>30.0</ele><time>2026-04-18T09:49:32.361Z</time></trkpt><trkpt lat="33.4159353" lon="8.1635426"><ele>31.0</ele><time>2026-04-18T09:49:33.363Z</time></trkpt><trkpt lat="33.4159489" lon="8.1634004"><ele>32.0</ele><time>2026-04-18T09:49:34.365Z</time></trkpt><trkpt lat="33.4159646" lon="8.163256"><ele>33.0</ele><time>2026-04-18T09:49:35.37Z</time></trkpt><trkpt lat="33.4159827" lon="8.163117"><ele>33.0</ele><time>2026-04-18T09:49:36.367Z</time></trkpt><trkpt lat="33.416003" lon="8.1629817"><ele>33.0</ele><time>2026-04-18T09:49:37.364Z</time></trkpt><trkpt lat="33.4160182" lon="8.1628432"><ele>33.0</ele><time>2026-04-18T09:49:38.367Z</time></trkpt><trkpt lat="33.416027" lon="8.1627035"><ele>33.0</ele><time>2026-04-18T09:49:39.361Z</time></trkpt><trkpt lat="33.4160383" lon="8.1625561"><ele>33.0</ele><time>2026-04-18T09:49:40.363Z</time></trkpt><trkpt lat="33.4160522" lon="8.1624055"><ele>33.0</ele><time>2026-04-18T09:49:41.362Z</time></trkpt><trkpt lat="33.4160624" lon="8.1622482"><ele>33.0</ele><time>2026-04-18T09:49:42.356Z</time></trkpt><trkpt lat="33.4160685" lon="8.1620882"><ele>33.0</ele><time>2026-04-18T09:49:43.361Z</time></trkpt><trkpt lat="33.4160751" lon="8.1619212"><ele>32.0</ele><time>2026-04-18T09:49:44.353Z</time></trkpt><trkpt lat="33.4160839" lon="8.1617496"><ele>31.0</ele><time>2026-04-18T09:49:45.366Z</time></trkpt><trkpt lat="33.416095" lon="8.1615826"><ele>30.0</ele><time>2026-04-18T09:49:46.362Z</time></trkpt><trkpt lat="33.4161026" lon="8.1614227"><ele>29.0</ele><time>2026-04-18T09:49:47.358Z</time></trkpt><trkpt lat="33.4161096" lon="8.1612767"><ele>29.0</ele><time>2026-04-18T09:49:48.367Z</time></trkpt><trkpt lat="33.4161223" lon="8.1611379"><ele>29.0</ele><time>2026-04-18T09:49:49.366Z</time></trkpt><trkpt lat="33.4161339" lon="8.1610035"><ele>29.0</ele><time>2026-04-18T09:49:50.367Z</time></trkpt><trkpt lat="33.4161501" lon="8.1608618"><ele>29.0</ele><time>2026-04-18T09:49:51.366Z</time></trkpt><trkpt lat="33.41616" lon="8.1607225"><ele>29.75</ele><time>2026-04-18T09:49:52.366Z</time></trkpt><trkpt lat="33.416168" lon="8.1605797"><ele>30.5</ele><time>2026-04-18T09:49:53.367Z</time></trkpt><trkpt lat="33.416175" lon="8.1604432"><ele>31.25</ele><time>2026-04-18T09:49:54.362Z</time></trkpt><trkpt lat="33.4161872" lon="8.1603114"><ele>32.0</ele><time>2026-04-18T09:49:55.364Z</time></trkpt><trkpt lat="33.416196" lon="8.1601828"><ele>32.0</ele><time>2026-04-18T09:49:56.365Z</time></trkpt><trkpt lat="33.4162018" lon="8.1600625"><ele>32.0</ele><time>2026-04-18T09:49:57.365Z</time></trkpt><trkpt lat="33.4162123" lon="8.1599382"><ele>32.0</ele><time>2026-04-18T09:49:58.365Z</time></trkpt><trkpt lat="33.4162236" lon="8.1598176"><ele>32.0</ele><time>2026-04-18T09:49:59.362Z</time></trkpt><trkpt lat="33.4162307" lon="8.1597039"><ele>32.0</ele><time>2026-04-18T09:50:00.367Z</time></trkpt><trkpt lat="33.4162384" lon="8.1596018"><ele>31.75</ele><time>2026-04-18T09:50:01.359Z</time></trkpt><trkpt lat="33.4162469" lon="8.1594768"><ele>31.5</ele><time>2026-04-18T09:50:02.359Z</time></trkpt><trkpt lat="33.4162631" lon="8.1593316"><ele>31.25</ele><time>2026-04-18T09:50:03.367Z</time></trkpt><trkpt lat="33.4162827" lon="8.1591808"><ele>31.0</ele><time>2026-04-18T09:50:04.367Z</time></trkpt><trkpt lat="33.4162989" lon="8.1590251"><ele>31.0</ele><time>2026-04-18T09:50:05.366Z</time></trkpt><trkpt lat="33.4163106" lon="8.1588629"><ele>31.0</ele><time>2026-04-18T09:50:06.359Z</time></trkpt><trkpt lat="33.4163221" lon="8.158709"><ele>31.0</ele><time>2026-04-18T09:50:07.362Z</time></trkpt><trkpt lat="33.41633" lon="8.1585665"><ele>31.0</ele><time>2026-04-18T09:50:08.366Z</time></trkpt><trkpt lat="33.4163361" lon="8.1584229"><ele>31.200000000000003</ele><time>2026-04-18T09:50:09.362Z</time></trkpt><trkpt lat="33.4163435" lon="8.1582824"><ele>31.400000000000002</ele><time>2026-04-18T09:50:10.369Z</time></trkpt><trkpt lat="33.416352" lon="8.1581498"><ele>31.6</ele><time>2026-04-18T09:50:11.369Z</time></trkpt><trkpt lat="33.416358" lon="8.158021"><ele>31.8</ele><time>2026-04-18T09:50:12.363Z</time></trkpt><trkpt lat="33.4163679" lon="8.1579002"><ele>32.0</ele><time>2026-04-18T09:50:13.363Z</time></trkpt><trkpt lat="33.4163863" lon="8.1577885"><ele>31.999999999999996</ele><time>2026-04-18T09:50:14.366Z</time></trkpt><trkpt lat="33.4164115" lon="8.1576955"><ele>32.0</ele><time>2026-04-18T09:50:15.362Z</time></trkpt><trkpt lat="33.4164448" lon="8.1576097"><ele>32.0</ele><time>2026-04-18T09:50:16.367Z</time></trkpt><trkpt lat="33.4164856" lon="8.1575196"><ele>32.0</ele><time>2026-04-18T09:50:17.362Z</time></trkpt><trkpt lat="33.4165174" lon="8.157423"><ele>31.999999999999996</ele><time>2026-04-18T09:50:18.367Z</time></trkpt><trkpt lat="33.4165309" lon="8.157315"><ele>32.0</ele><time>2026-04-18T09:50:19.368Z</time></trkpt><trkpt lat="33.4165259" lon="8.1571969"><ele>32.0</ele><time>2026-04-18T09:50:20.36Z</time></trkpt><trkpt lat="33.4165127" lon="8.1570778"><ele>32.0</ele><time>2026-04-18T09:50:21.364Z</time></trkpt><trkpt lat="33.4164933" lon="8.1569611"><ele>32.0</ele><time>2026-04-18T09:50:22.369Z</time></trkpt><trkpt lat="33.4164696" lon="8.1568307"><ele>32.0</ele><time>2026-04-18T09:50:23.369Z</time></trkpt><trkpt lat="33.4164537" lon="8.1567006"><ele>32.0</ele><time>2026-04-18T09:50:24.365Z</time></trkpt><trkpt lat="33.4164491" lon="8.1565634"><ele>31.5</ele><time>2026-04-18T09:50:25.366Z</time></trkpt><trkpt lat="33.416457" lon="8.1564251"><ele>31.0</ele><time>2026-04-18T09:50:26.365Z</time></trkpt><trkpt lat="33.416472" lon="8.1562868"><ele>30.5</ele><time>2026-04-18T09:50:27.362Z</time></trkpt><trkpt lat="33.4164854" lon="8.1561469"><ele>30.0</ele><time>2026-04-18T09:50:28.361Z</time></trkpt><trkpt lat="33.4164953" lon="8.1560016"><ele>30.0</ele><time>2026-04-18T09:50:29.361Z</time></trkpt><trkpt lat="33.4165063" lon="8.1558579"><ele>30.0</ele><time>2026-04-18T09:50:30.368Z</time></trkpt><trkpt lat="33.4165196" lon="8.1557105"><ele>30.0</ele><time>2026-04-18T09:50:31.366Z</time></trkpt><trkpt lat="33.416533" lon="8.1555642"><ele>30.0</ele><time>2026-04-18T09:50:32.361Z</time></trkpt><trkpt lat="33.4165502" lon="8.1554159"><ele>30.0</ele><time>2026-04-18T09:50:33.358Z</time></trkpt><trkpt lat="33.4165732" lon="8.155266"><ele>30.0</ele><time>2026-04-18T09:50:34.36Z</time></trkpt><trkpt lat="33.4165914" lon="8.155111"><ele>30.0</ele><time>2026-04-18T09:50:35.362Z</time></trkpt><trkpt lat="33.4165992" lon="8.1549484"><ele>30.0</ele><time>2026-04-18T09:50:36.362Z</time></trkpt><trkpt lat="33.416604" lon="8.1547858"><ele>29.75</ele><time>2026-04-18T09:50:37.364Z</time></trkpt><trkpt lat="33.4166069" lon="8.1546361"><ele>29.5</ele><time>2026-04-18T09:50:38.362Z</time></trkpt><trkpt lat="33.4165994" lon="8.1544903"><ele>29.25</ele><time>2026-04-18T09:50:39.368Z</time></trkpt><trkpt lat="33.4165895" lon="8.1543511"><ele>29.0</ele><time>2026-04-18T09:50:40.361Z</time></trkpt><trkpt lat="33.4165835" lon="8.1542221"><ele>29.0</ele><time>2026-04-18T09:50:41.359Z</time></trkpt><trkpt lat="33.4165903" lon="8.1540898"><ele>29.0</ele><time>2026-04-18T09:50:42.365Z</time></trkpt><trkpt lat="33.4166172" lon="8.1539526"><ele>29.0</ele><time>2026-04-18T09:50:43.357Z</time></trkpt><trkpt lat="33.4166396" lon="8.1538046"><ele>29.0</ele><time>2026-04-18T09:50:44.361Z</time></trkpt><trkpt lat="33.4166692" lon="8.1536759"><ele>29.4</ele><time>2026-04-18T09:50:45.365Z</time></trkpt><trkpt lat="33.4166793" lon="8.153544"><ele>29.799999999999997</ele><time>2026-04-18T09:50:46.364Z</time></trkpt><trkpt lat="33.4166834" lon="8.1534105"><ele>30.200000000000003</ele><time>2026-04-18T09:50:47.365Z</time></trkpt><trkpt lat="33.4166901" lon="8.153285"><ele>30.6</ele><time>2026-04-18T09:50:48.358Z</time></trkpt><trkpt lat="33.4166997" lon="8.15316"><ele>31.0</ele><time>2026-04-18T09:50:49.366Z</time></trkpt><trkpt lat="33.4167155" lon="8.1530366"><ele>31.000000000000004</ele><time>2026-04-18T09:50:50.363Z</time></trkpt><trkpt lat="33.4167264" lon="8.1529164"><ele>31.0</ele><time>2026-04-18T09:50:51.364Z</time></trkpt><trkpt lat="33.4167273" lon="8.1528056"><ele>31.0</ele><time>2026-04-18T09:50:52.364Z</time></trkpt><trkpt lat="33.4167207" lon="8.1526996"><ele>31.0</ele><time>2026-04-18T09:50:53.359Z</time></trkpt><trkpt lat="33.4167179" lon="8.1526015"><ele>31.000000000000004</ele><time>2026-04-18T09:50:54.365Z</time></trkpt><trkpt lat="33.4167232" lon="8.152513"><ele>31.0</ele><time>2026-04-18T09:50:55.359Z</time></trkpt><trkpt lat="33.4167367" lon="8.1523845"><ele>30.75</ele><time>2026-04-18T09:50:57.363Z</time></trkpt><trkpt lat="33.4167544" lon="8.1522959"><ele>30.5</ele><time>2026-04-18T09:51:20.369Z</time></trkpt><trkpt lat="33.4167797" lon="8.1521177"><ele>30.25</ele><time>2026-04-18T09:51:22.362Z</time></trkpt><trkpt lat="33.4167942" lon="8.1519713"><ele>30.0</ele><time>2026-04-18T09:51:23.364Z</time></trkpt><trkpt lat="33.4168089" lon="8.151817"><ele>30.0</ele><time>2026-04-18T09:51:24.365Z</time></trkpt><trkpt lat="33.4168226" lon="8.1516527"><ele>30.0</ele><time>2026-04-18T09:51:25.366Z</time></trkpt><trkpt lat="33.4168367" lon="8.151481"><ele>30.0</ele><time>2026-04-18T09:51:26.365Z</time></trkpt><trkpt lat="33.4168506" lon="8.1513226"><ele>30.0</ele><time>2026-04-18T09:51:27.361Z</time></trkpt><trkpt lat="33.4168596" lon="8.1511615"><ele>30.0</ele><time>2026-04-18T09:51:28.371Z</time></trkpt><trkpt lat="33.4168685" lon="8.1509871"><ele>30.0</ele><time>2026-04-18T09:51:29.363Z</time></trkpt><trkpt lat="33.4168795" lon="8.1508128"><ele>30.0</ele><time>2026-04-18T09:51:30.366Z</time></trkpt><trkpt lat="33.41689" lon="8.1506443"><ele>30.0</ele><time>2026-04-18T09:51:31.372Z</time></trkpt><trkpt lat="33.416899" lon="8.1504899"><ele>30.5</ele><time>2026-04-18T09:51:32.364Z</time></trkpt><trkpt lat="33.4169114" lon="8.1503382"><ele>31.0</ele><time>2026-04-18T09:51:33.365Z</time></trkpt><trkpt lat="33.4169203" lon="8.1501743"><ele>31.5</ele><time>2026-04-18T09:51:34.359Z</time></trkpt><trkpt lat="33.4169278" lon="8.1500113"><ele>32.0</ele><time>2026-04-18T09:51:35.357Z</time></trkpt><trkpt lat="33.4169371" lon="8.1498523"><ele>32.0</ele><time>2026-04-18T09:51:36.365Z</time></trkpt><trkpt lat="33.4169468" lon="8.1496942"><ele>32.0</ele><time>2026-04-18T09:51:37.372Z</time></trkpt><trkpt lat="33.4169584" lon="8.1495378"><ele>32.0</ele><time>2026-04-18T09:51:38.363Z</time></trkpt><trkpt lat="33.4169706" lon="8.1493886"><ele>32.0</ele><time>2026-04-18T09:51:39.365Z</time></trkpt><trkpt lat="33.4169836" lon="8.1492369"><ele>32.0</ele><time>2026-04-18T09:51:40.37Z</time></trkpt><trkpt lat="33.4169946" lon="8.1490767"><ele>32.0</ele><time>2026-04-18T09:51:41.372Z</time></trkpt><trkpt lat="33.4170059" lon="8.1489061"><ele>32.0</ele><time>2026-04-18T09:51:42.366Z</time></trkpt><trkpt lat="33.4170192" lon="8.1487325"><ele>32.0</ele><time>2026-04-18T09:51:43.37Z</time></trkpt><trkpt lat="33.4170317" lon="8.1485692"><ele>31.5</ele><time>2026-04-18T09:51:44.36Z</time></trkpt><trkpt lat="33.4170448" lon="8.1484242"><ele>31.0</ele><time>2026-04-18T09:51:45.36Z</time></trkpt><trkpt lat="33.4170596" lon="8.1482948"><ele>30.5</ele><time>2026-04-18T09:51:46.358Z</time></trkpt><trkpt lat="33.4170787" lon="8.1481633"><ele>30.0</ele><time>2026-04-18T09:51:47.368Z</time></trkpt><trkpt lat="33.4170976" lon="8.1480194"><ele>29.5</ele><time>2026-04-18T09:51:48.359Z</time></trkpt><trkpt lat="33.4171134" lon="8.1478681"><ele>29.0</ele><time>2026-04-18T09:51:49.367Z</time></trkpt><trkpt lat="33.4171272" lon="8.1477174"><ele>28.5</ele><time>2026-04-18T09:51:50.357Z</time></trkpt><trkpt lat="33.4171381" lon="8.1475607"><ele>28.0</ele><time>2026-04-18T09:51:51.356Z</time></trkpt><trkpt lat="33.4171477" lon="8.1473975"><ele>29.0</ele><time>2026-04-18T09:51:52.362Z</time></trkpt><trkpt lat="33.4171563" lon="8.1472395"><ele>30.0</ele><time>2026-04-18T09:51:53.36Z</time></trkpt><trkpt lat="33.4171669" lon="8.1470812"><ele>31.0</ele><time>2026-04-18T09:51:54.36Z</time></trkpt><trkpt lat="33.4171771" lon="8.1469229"><ele>32.0</ele><time>2026-04-18T09:51:55.362Z</time></trkpt><trkpt lat="33.4171863" lon="8.1467667"><ele>32.0</ele><time>2026-04-18T09:51:56.357Z</time></trkpt><trkpt lat="33.4171959" lon="8.1466144"><ele>32.0</ele><time>2026-04-18T09:51:57.357Z</time></trkpt><trkpt lat="33.4172054" lon="8.1464642"><ele>32.0</ele><time>2026-04-18T09:51:58.363Z</time></trkpt><trkpt lat="33.4172145" lon="8.1463112"><ele>32.0</ele><time>2026-04-18T09:51:59.367Z</time></trkpt><trkpt lat="33.4172244" lon="8.1461552"><ele>32.0</ele><time>2026-04-18T09:52:00.366Z</time></trkpt><trkpt lat="33.4172345" lon="8.1460032"><ele>32.0</ele><time>2026-04-18T09:52:01.363Z</time></trkpt><trkpt lat="33.417246" lon="8.1458537"><ele>32.0</ele><time>2026-04-18T09:52:02.354Z</time></trkpt><trkpt lat="33.4172553" lon="8.1457025"><ele>32.0</ele><time>2026-04-18T09:52:03.364Z</time></trkpt><trkpt lat="33.4172604" lon="8.1455548"><ele>32.5</ele><time>2026-04-18T09:52:04.363Z</time></trkpt><trkpt lat="33.417268" lon="8.1454119"><ele>33.0</ele><time>2026-04-18T09:52:05.358Z</time></trkpt><trkpt lat="33.4172795" lon="8.1452747"><ele>33.5</ele><time>2026-04-18T09:52:06.362Z</time></trkpt><trkpt lat="33.4172925" lon="8.1451314"><ele>34.0</ele><time>2026-04-18T09:52:07.366Z</time></trkpt><trkpt lat="33.4173056" lon="8.1449825"><ele>33.75</ele><time>2026-04-18T09:52:08.357Z</time></trkpt><trkpt lat="33.4173187" lon="8.1448406"><ele>33.5</ele><time>2026-04-18T09:52:09.364Z</time></trkpt><trkpt lat="33.4173294" lon="8.1447048"><ele>33.25</ele><time>2026-04-18T09:52:10.362Z</time></trkpt><trkpt lat="33.4173401" lon="8.1445701"><ele>33.0</ele><time>2026-04-18T09:52:11.359Z</time></trkpt><trkpt lat="33.4173481" lon="8.1444325"><ele>33.0</ele><time>2026-04-18T09:52:12.359Z</time></trkpt><trkpt lat="33.4173571" lon="8.1442884"><ele>33.0</ele><time>2026-04-18T09:52:13.369Z</time></trkpt><trkpt lat="33.4173686" lon="8.144138"><ele>33.0</ele><time>2026-04-18T09:52:14.362Z</time></trkpt><trkpt lat="33.4173811" lon="8.1439861"><ele>33.0</ele><time>2026-04-18T09:52:15.363Z</time></trkpt><trkpt lat="33.417393" lon="8.143835"><ele>33.0</ele><time>2026-04-18T09:52:16.365Z</time></trkpt><trkpt lat="33.4174046" lon="8.1436836"><ele>33.0</ele><time>2026-04-18T09:52:17.364Z</time></trkpt><trkpt lat="33.4174145" lon="8.1435346"><ele>33.0</ele><time>2026-04-18T09:52:18.365Z</time></trkpt><trkpt lat="33.4174219" lon="8.14339"><ele>33.0</ele><time>2026-04-18T09:52:19.363Z</time></trkpt><trkpt lat="33.4174247" lon="8.1432409"><ele>33.25</ele><time>2026-04-18T09:52:20.362Z</time></trkpt><trkpt lat="33.4174203" lon="8.1430909"><ele>33.5</ele><time>2026-04-18T09:52:21.362Z</time></trkpt><trkpt lat="33.4174096" lon="8.142941"><ele>33.75</ele><time>2026-04-18T09:52:22.36Z</time></trkpt><trkpt lat="33.4174009" lon="8.1427983"><ele>34.0</ele><time>2026-04-18T09:52:23.365Z</time></trkpt><trkpt lat="33.4173931" lon="8.1426671"><ele>34.0</ele><time>2026-04-18T09:52:24.373Z</time></trkpt><trkpt lat="33.4173778" lon="8.1425473"><ele>34.0</ele><time>2026-04-18T09:52:25.366Z</time></trkpt><trkpt lat="33.4173513" lon="8.1424379"><ele>34.0</ele><time>2026-04-18T09:52:26.363Z</time></trkpt><trkpt lat="33.4173121" lon="8.1423221"><ele>34.0</ele><time>2026-04-18T09:52:27.371Z</time></trkpt><trkpt lat="33.4172712" lon="8.1422022"><ele>34.0</ele><time>2026-04-18T09:52:28.37Z</time></trkpt><trkpt lat="33.4172309" lon="8.1420834"><ele>34.25</ele><time>2026-04-18T09:52:29.36Z</time></trkpt><trkpt lat="33.4172041" lon="8.1419578"><ele>34.5</ele><time>2026-04-18T09:52:30.364Z</time></trkpt><trkpt lat="33.4171852" lon="8.1418238"><ele>34.75</ele><time>2026-04-18T09:52:31.365Z</time></trkpt><trkpt lat="33.4171686" lon="8.1416867"><ele>35.0</ele><time>2026-04-18T09:52:32.369Z</time></trkpt><trkpt lat="33.4171562" lon="8.1415506"><ele>34.8</ele><time>2026-04-18T09:52:33.365Z</time></trkpt><trkpt lat="33.4171466" lon="8.1414218"><ele>34.6</ele><time>2026-04-18T09:52:34.361Z</time></trkpt><trkpt lat="33.4171389" lon="8.141299"><ele>34.4</ele><time>2026-04-18T09:52:35.366Z</time></trkpt><trkpt lat="33.4171315" lon="8.1411775"><ele>34.2</ele><time>2026-04-18T09:52:36.363Z</time></trkpt><trkpt lat="33.4171361" lon="8.1410594"><ele>34.0</ele><time>2026-04-18T09:52:37.362Z</time></trkpt><trkpt lat="33.4171565" lon="8.1409394"><ele>34.0</ele><time>2026-04-18T09:52:38.362Z</time></trkpt><trkpt lat="33.4171764" lon="8.1408184"><ele>34.0</ele><time>2026-04-18T09:52:39.368Z</time></trkpt><trkpt lat="33.4171906" lon="8.140694"><ele>34.0</ele><time>2026-04-18T09:52:40.365Z</time></trkpt><trkpt lat="33.4172027" lon="8.1405634"><ele>34.0</ele><time>2026-04-18T09:52:41.365Z</time></trkpt><trkpt lat="33.4172075" lon="8.1404283"><ele>34.0</ele><time>2026-04-18T09:52:42.364Z</time></trkpt><trkpt lat="33.4172108" lon="8.1402882"><ele>33.75</ele><time>2026-04-18T09:52:43.363Z</time></trkpt><trkpt lat="33.417203" lon="8.1401449"><ele>33.5</ele><time>2026-04-18T09:52:44.357Z</time></trkpt><trkpt lat="33.4171921" lon="8.1400145"><ele>33.25</ele><time>2026-04-18T09:52:45.363Z</time></trkpt><trkpt lat="33.4171701" lon="8.1398862"><ele>33.0</ele><time>2026-04-18T09:52:46.366Z</time></trkpt><trkpt lat="33.4171323" lon="8.1397592"><ele>32.75</ele><time>2026-04-18T09:52:47.363Z</time></trkpt><trkpt lat="33.4170857" lon="8.1396303"><ele>32.5</ele><time>2026-04-18T09:52:48.367Z</time></trkpt><trkpt lat="33.417033" lon="8.1395059"><ele>32.25</ele><time>2026-04-18T09:52:49.357Z</time></trkpt><trkpt lat="33.4169816" lon="8.1393852"><ele>32.0</ele><time>2026-04-18T09:52:50.365Z</time></trkpt><trkpt lat="33.4169386" lon="8.1392692"><ele>32.0</ele><time>2026-04-18T09:52:51.363Z</time></trkpt><trkpt lat="33.416901" lon="8.1391574"><ele>32.0</ele><time>2026-04-18T09:52:52.366Z</time></trkpt><trkpt lat="33.4168699" lon="8.1390512"><ele>32.0</ele><time>2026-04-18T09:52:53.366Z</time></trkpt><trkpt lat="33.4168518" lon="8.1389452"><ele>32.0</ele><time>2026-04-18T09:52:54.366Z</time></trkpt><trkpt lat="33.4168503" lon="8.1388341"><ele>32.0</ele><time>2026-04-18T09:52:55.37Z</time></trkpt><trkpt lat="33.4168587" lon="8.1387215"><ele>31.999999999999996</ele><time>2026-04-18T09:52:56.358Z</time></trkpt><trkpt lat="33.4168747" lon="8.1386066"><ele>32.0</ele><time>2026-04-18T09:52:57.364Z</time></trkpt><trkpt lat="33.4168923" lon="8.1385014"><ele>32.0</ele><time>2026-04-18T09:52:58.366Z</time></trkpt><trkpt lat="33.4169081" lon="8.1384142"><ele>32.0</ele><time>2026-04-18T09:52:59.374Z</time></trkpt><trkpt lat="33.4169331" lon="8.1382939"><ele>31.999999999999996</ele><time>2026-04-18T09:53:01.363Z</time></trkpt><trkpt lat="33.4169635" lon="8.1382235"><ele>32.0</ele><time>2026-04-18T09:53:07.364Z</time></trkpt><trkpt lat="33.4170416" lon="8.1381016"><ele>32.0</ele><time>2026-04-18T09:53:09.363Z</time></trkpt><trkpt lat="33.4171098" lon="8.1380316"><ele>32.0</ele><time>2026-04-18T09:53:10.358Z</time></trkpt><trkpt lat="33.4171856" lon="8.1379588"><ele>32.0</ele><time>2026-04-18T09:53:11.37Z</time></trkpt><trkpt lat="33.4172502" lon="8.1378774"><ele>32.0</ele><time>2026-04-18T09:53:12.363Z</time></trkpt><trkpt lat="33.4173084" lon="8.1377804"><ele>32.0</ele><time>2026-04-18T09:53:13.362Z</time></trkpt><trkpt lat="33.4173651" lon="8.1376774"><ele>32.0</ele><time>2026-04-18T09:53:14.357Z</time></trkpt><trkpt lat="33.4174243" lon="8.1375814"><ele>32.0</ele><time>2026-04-18T09:53:15.367Z</time></trkpt><trkpt lat="33.4174952" lon="8.1374844"><ele>32.0</ele><time>2026-04-18T09:53:16.366Z</time></trkpt><trkpt lat="33.4175716" lon="8.1373834"><ele>32.0</ele><time>2026-04-18T09:53:17.359Z</time></trkpt><trkpt lat="33.4176436" lon="8.1372829"><ele>32.0</ele><time>2026-04-18T09:53:18.355Z</time></trkpt><trkpt lat="33.417714" lon="8.1371823"><ele>31.25</ele><time>2026-04-18T09:53:19.357Z</time></trkpt><trkpt lat="33.4177705" lon="8.1370648"><ele>30.5</ele><time>2026-04-18T09:53:20.363Z</time></trkpt><trkpt lat="33.4178171" lon="8.136941"><ele>29.75</ele><time>2026-04-18T09:53:21.36Z</time></trkpt><trkpt lat="33.4178552" lon="8.1368085"><ele>29.0</ele><time>2026-04-18T09:53:22.357Z</time></trkpt><trkpt lat="33.4178846" lon="8.1366777"><ele>29.4</ele><time>2026-04-18T09:53:23.369Z</time></trkpt><trkpt lat="33.4179062" lon="8.1365522"><ele>29.799999999999997</ele><time>2026-04-18T09:53:24.36Z</time></trkpt><trkpt lat="33.4179236" lon="8.1364266"><ele>30.200000000000003</ele><time>2026-04-18T09:53:25.367Z</time></trkpt><trkpt lat="33.4179364" lon="8.1362976"><ele>30.6</ele><time>2026-04-18T09:53:26.361Z</time></trkpt><trkpt lat="33.4179474" lon="8.1361615"><ele>31.0</ele><time>2026-04-18T09:53:27.367Z</time></trkpt><trkpt lat="33.4179575" lon="8.1360088"><ele>31.0</ele><time>2026-04-18T09:53:28.365Z</time></trkpt><trkpt lat="33.417969" lon="8.1358452"><ele>31.0</ele><time>2026-04-18T09:53:29.366Z</time></trkpt><trkpt lat="33.4179805" lon="8.1356861"><ele>31.0</ele><time>2026-04-18T09:53:30.363Z</time></trkpt><trkpt lat="33.4179934" lon="8.1355283"><ele>31.0</ele><time>2026-04-18T09:53:31.366Z</time></trkpt><trkpt lat="33.4180065" lon="8.1353642"><ele>31.25</ele><time>2026-04-18T09:53:32.365Z</time></trkpt><trkpt lat="33.4180187" lon="8.1351959"><ele>31.5</ele><time>2026-04-18T09:53:33.369Z</time></trkpt><trkpt lat="33.4180345" lon="8.135019"><ele>31.75</ele><time>2026-04-18T09:53:34.361Z</time></trkpt><trkpt lat="33.4180516" lon="8.1348454"><ele>32.0</ele><time>2026-04-18T09:53:35.37Z</time></trkpt><trkpt lat="33.4180689" lon="8.1346863"><ele>32.0</ele><time>2026-04-18T09:53:36.365Z</time></trkpt><trkpt lat="33.4180809" lon="8.1345325"><ele>32.0</ele><time>2026-04-18T09:53:37.36Z</time></trkpt><trkpt lat="33.4180795" lon="8.1343767"><ele>32.0</ele><time>2026-04-18T09:53:38.36Z</time></trkpt><trkpt lat="33.4180768" lon="8.1342222"><ele>32.0</ele><time>2026-04-18T09:53:39.364Z</time></trkpt><trkpt lat="33.4180845" lon="8.1340692"><ele>31.75</ele><time>2026-04-18T09:53:40.365Z</time></trkpt><trkpt lat="33.4181048" lon="8.1339012"><ele>31.5</ele><time>2026-04-18T09:53:41.358Z</time></trkpt><trkpt lat="33.4181253" lon="8.1337303"><ele>31.25</ele><time>2026-04-18T09:53:42.361Z</time></trkpt><trkpt lat="33.4181471" lon="8.133554"><ele>31.0</ele><time>2026-04-18T09:53:43.363Z</time></trkpt><trkpt lat="33.418169" lon="8.1333778"><ele>31.0</ele><time>2026-04-18T09:53:44.361Z</time></trkpt><trkpt lat="33.4181721" lon="8.1332078"><ele>31.0</ele><time>2026-04-18T09:53:45.365Z</time></trkpt><trkpt lat="33.4181759" lon="8.1330324"><ele>31.0</ele><time>2026-04-18T09:53:46.381Z</time></trkpt><trkpt lat="33.4181904" lon="8.1328636"><ele>31.0</ele><time>2026-04-18T09:53:47.361Z</time></trkpt><trkpt lat="33.4182071" lon="8.1326873"><ele>31.0</ele><time>2026-04-18T09:53:48.364Z</time></trkpt><trkpt lat="33.4182172" lon="8.1325186"><ele>31.0</ele><time>2026-04-18T09:53:49.369Z</time></trkpt><trkpt lat="33.4182283" lon="8.1323655"><ele>31.0</ele><time>2026-04-18T09:53:50.37Z</time></trkpt><trkpt lat="33.4182432" lon="8.1322185"><ele>31.0</ele><time>2026-04-18T09:53:51.365Z</time></trkpt><trkpt lat="33.4182598" lon="8.1320856"><ele>31.200000000000003</ele><time>2026-04-18T09:53:52.362Z</time></trkpt><trkpt lat="33.4182716" lon="8.1319554"><ele>31.400000000000002</ele><time>2026-04-18T09:53:53.366Z</time></trkpt><trkpt lat="33.4182825" lon="8.1318294"><ele>31.6</ele><time>2026-04-18T09:53:54.362Z</time></trkpt><trkpt lat="33.4182895" lon="8.1317027"><ele>31.8</ele><time>2026-04-18T09:53:55.361Z</time></trkpt><trkpt lat="33.4182945" lon="8.1315594"><ele>32.0</ele><time>2026-04-18T09:53:56.367Z</time></trkpt><trkpt lat="33.4183019" lon="8.1314039"><ele>32.0</ele><time>2026-04-18T09:53:57.363Z</time></trkpt><trkpt lat="33.4183131" lon="8.1312386"><ele>32.0</ele><time>2026-04-18T09:53:58.358Z</time></trkpt><trkpt lat="33.4183285" lon="8.1310714"><ele>32.0</ele><time>2026-04-18T09:53:59.368Z</time></trkpt><trkpt lat="33.4183438" lon="8.1309084"><ele>32.0</ele><time>2026-04-18T09:54:00.368Z</time></trkpt><trkpt lat="33.4183525" lon="8.1307365"><ele>31.5</ele><time>2026-04-18T09:54:01.355Z</time></trkpt><trkpt lat="33.4183562" lon="8.1305561"><ele>31.0</ele><time>2026-04-18T09:54:02.369Z</time></trkpt><trkpt lat="33.4183661" lon="8.1303844"><ele>30.5</ele><time>2026-04-18T09:54:03.361Z</time></trkpt><trkpt lat="33.4183786" lon="8.1302119"><ele>30.0</ele><time>2026-04-18T09:54:04.373Z</time></trkpt><trkpt lat="33.4183906" lon="8.130047"><ele>30.0</ele><time>2026-04-18T09:54:05.363Z</time></trkpt><trkpt lat="33.4184065" lon="8.1298927"><ele>30.0</ele><time>2026-04-18T09:54:06.361Z</time></trkpt><trkpt lat="33.4184271" lon="8.1297422"><ele>30.0</ele><time>2026-04-18T09:54:07.361Z</time></trkpt><trkpt lat="33.4184449" lon="8.1295955"><ele>30.0</ele><time>2026-04-18T09:54:08.359Z</time></trkpt><trkpt lat="33.4184566" lon="8.1294406"><ele>29.5</ele><time>2026-04-18T09:54:09.361Z</time></trkpt><trkpt lat="33.4184667" lon="8.1292868"><ele>29.0</ele><time>2026-04-18T09:54:10.364Z</time></trkpt><trkpt lat="33.4184797" lon="8.1291376"><ele>28.5</ele><time>2026-04-18T09:54:11.358Z</time></trkpt><trkpt lat="33.4184907" lon="8.1290022"><ele>28.0</ele><time>2026-04-18T09:54:12.357Z</time></trkpt><trkpt lat="33.4184983" lon="8.1288686"><ele>29.0</ele><time>2026-04-18T09:54:13.361Z</time></trkpt><trkpt lat="33.4185056" lon="8.1287306"><ele>30.0</ele><time>2026-04-18T09:54:14.359Z</time></trkpt><trkpt lat="33.418512" lon="8.1285912"><ele>31.0</ele><time>2026-04-18T09:54:15.358Z</time></trkpt><trkpt lat="33.4185168" lon="8.1284536"><ele>32.0</ele><time>2026-04-18T09:54:16.36Z</time></trkpt><trkpt lat="33.4185231" lon="8.1283111"><ele>32.25</ele><time>2026-04-18T09:54:17.362Z</time></trkpt><trkpt lat="33.4185346" lon="8.1281704"><ele>32.5</ele><time>2026-04-18T09:54:18.364Z</time></trkpt><trkpt lat="33.4185505" lon="8.1280339"><ele>32.75</ele><time>2026-04-18T09:54:19.356Z</time></trkpt><trkpt lat="33.418567" lon="8.1278976"><ele>33.0</ele><time>2026-04-18T09:54:20.37Z</time></trkpt><trkpt lat="33.4185783" lon="8.1277522"><ele>33.0</ele><time>2026-04-18T09:54:21.366Z</time></trkpt><trkpt lat="33.4185844" lon="8.1275993"><ele>33.0</ele><time>2026-04-18T09:54:22.363Z</time></trkpt><trkpt lat="33.4185909" lon="8.1274427"><ele>33.0</ele><time>2026-04-18T09:54:23.367Z</time></trkpt><trkpt lat="33.4185994" lon="8.1272851"><ele>33.0</ele><time>2026-04-18T09:54:24.363Z</time></trkpt><trkpt lat="33.4186078" lon="8.1271218"><ele>32.75</ele><time>2026-04-18T09:54:25.366Z</time></trkpt><trkpt lat="33.4186115" lon="8.1269628"><ele>32.5</ele><time>2026-04-18T09:54:26.364Z</time></trkpt><trkpt lat="33.4186191" lon="8.1268125"><ele>32.25</ele><time>2026-04-18T09:54:27.359Z</time></trkpt><trkpt lat="33.4186282" lon="8.1266723"><ele>32.0</ele><time>2026-04-18T09:54:28.359Z</time></trkpt><trkpt lat="33.4186347" lon="8.1265484"><ele>32.0</ele><time>2026-04-18T09:54:29.364Z</time></trkpt><trkpt lat="33.4186391" lon="8.1264415"><ele>32.0</ele><time>2026-04-18T09:54:30.359Z</time></trkpt><trkpt lat="33.4186426" lon="8.1263449"><ele>32.0</ele><time>2026-04-18T09:54:31.361Z</time></trkpt><trkpt lat="33.4186529" lon="8.1262494"><ele>32.0</ele><time>2026-04-18T09:54:32.366Z</time></trkpt><trkpt lat="33.418667" lon="8.126138"><ele>32.0</ele><time>2026-04-18T09:54:33.356Z</time></trkpt><trkpt lat="33.4186828" lon="8.1260116"><ele>32.0</ele><time>2026-04-18T09:54:34.361Z</time></trkpt><trkpt lat="33.4187004" lon="8.1258758"><ele>32.0</ele><time>2026-04-18T09:54:35.358Z</time></trkpt><trkpt lat="33.4187134" lon="8.1257421"><ele>32.0</ele><time>2026-04-18T09:54:36.363Z</time></trkpt><trkpt lat="33.4187221" lon="8.1256071"><ele>32.0</ele><time>2026-04-18T09:54:37.362Z</time></trkpt><trkpt lat="33.4187254" lon="8.1254605"><ele>32.25</ele><time>2026-04-18T09:54:38.36Z</time></trkpt><trkpt lat="33.4187283" lon="8.1253067"><ele>32.5</ele><time>2026-04-18T09:54:39.37Z</time></trkpt><trkpt lat="33.4187402" lon="8.1251563"><ele>32.75</ele><time>2026-04-18T09:54:40.364Z</time></trkpt><trkpt lat="33.4187562" lon="8.1250052"><ele>33.0</ele><time>2026-04-18T09:54:41.372Z</time></trkpt><trkpt lat="33.418772" lon="8.1248562"><ele>32.5</ele><time>2026-04-18T09:54:42.359Z</time></trkpt><trkpt lat="33.4187882" lon="8.1247123"><ele>32.0</ele><time>2026-04-18T09:54:43.37Z</time></trkpt><trkpt lat="33.4188018" lon="8.1245701"><ele>31.5</ele><time>2026-04-18T09:54:44.361Z</time></trkpt><trkpt lat="33.4188063" lon="8.1244225"><ele>31.0</ele><time>2026-04-18T09:54:45.36Z</time></trkpt><trkpt lat="33.4188084" lon="8.1242684"><ele>31.0</ele><time>2026-04-18T09:54:46.353Z</time></trkpt><trkpt lat="33.4188083" lon="8.1241107"><ele>31.0</ele><time>2026-04-18T09:54:47.365Z</time></trkpt><trkpt lat="33.4188054" lon="8.1239547"><ele>31.0</ele><time>2026-04-18T09:54:48.365Z</time></trkpt><trkpt lat="33.4187996" lon="8.1238024"><ele>31.0</ele><time>2026-04-18T09:54:49.361Z</time></trkpt><trkpt lat="33.4187892" lon="8.123663"><ele>31.25</ele><time>2026-04-18T09:54:50.361Z</time></trkpt><trkpt lat="33.4187804" lon="8.1235303"><ele>31.5</ele><time>2026-04-18T09:54:51.361Z</time></trkpt><trkpt lat="33.4187836" lon="8.1233985"><ele>31.75</ele><time>2026-04-18T09:54:52.363Z</time></trkpt><trkpt lat="33.4188033" lon="8.1232632"><ele>32.0</ele><time>2026-04-18T09:54:53.358Z</time></trkpt><trkpt lat="33.4188329" lon="8.12312"><ele>32.0</ele><time>2026-04-18T09:54:54.361Z</time></trkpt><trkpt lat="33.4188567" lon="8.1229828"><ele>32.0</ele><time>2026-04-18T09:54:55.362Z</time></trkpt><trkpt lat="33.4188702" lon="8.1228495"><ele>32.0</ele><time>2026-04-18T09:54:56.364Z</time></trkpt><trkpt lat="33.4188814" lon="8.1227216"><ele>32.0</ele><time>2026-04-18T09:54:57.361Z</time></trkpt><trkpt lat="33.4188919" lon="8.1225992"><ele>32.0</ele><time>2026-04-18T09:54:58.363Z</time></trkpt><trkpt lat="33.4188973" lon="8.1224797"><ele>32.0</ele><time>2026-04-18T09:54:59.359Z</time></trkpt><trkpt lat="33.4189038" lon="8.1223639"><ele>32.0</ele><time>2026-04-18T09:55:00.364Z</time></trkpt><trkpt lat="33.4189114" lon="8.1222513"><ele>32.0</ele><time>2026-04-18T09:55:01.361Z</time></trkpt><trkpt lat="33.4189203" lon="8.1221421"><ele>32.0</ele><time>2026-04-18T09:55:02.363Z</time></trkpt><trkpt lat="33.4189304" lon="8.1220338"><ele>32.0</ele><time>2026-04-18T09:55:03.365Z</time></trkpt><trkpt lat="33.418939" lon="8.1219147"><ele>32.0</ele><time>2026-04-18T09:55:04.357Z</time></trkpt><trkpt lat="33.4189485" lon="8.1217716"><ele>32.0</ele><time>2026-04-18T09:55:05.358Z</time></trkpt><trkpt lat="33.4189608" lon="8.1216189"><ele>32.0</ele><time>2026-04-18T09:55:06.365Z</time></trkpt><trkpt lat="33.4189721" lon="8.1214585"><ele>32.0</ele><time>2026-04-18T09:55:07.364Z</time></trkpt><trkpt lat="33.4189819" lon="8.121304"><ele>31.8</ele><time>2026-04-18T09:55:08.367Z</time></trkpt><trkpt lat="33.4189906" lon="8.1211607"><ele>31.6</ele><time>2026-04-18T09:55:09.364Z</time></trkpt><trkpt lat="33.4189972" lon="8.1210345"><ele>31.400000000000002</ele><time>2026-04-18T09:55:10.364Z</time></trkpt><trkpt lat="33.4190035" lon="8.1209077"><ele>31.200000000000003</ele><time>2026-04-18T09:55:11.366Z</time></trkpt><trkpt lat="33.4190087" lon="8.1207672"><ele>31.0</ele><time>2026-04-18T09:55:12.36Z</time></trkpt><trkpt lat="33.4190118" lon="8.1206139"><ele>31.0</ele><time>2026-04-18T09:55:13.366Z</time></trkpt><trkpt lat="33.4190193" lon="8.120456"><ele>31.0</ele><time>2026-04-18T09:55:14.361Z</time></trkpt><trkpt lat="33.4190317" lon="8.1202965"><ele>31.0</ele><time>2026-04-18T09:55:15.363Z</time></trkpt><trkpt lat="33.4190466" lon="8.1201341"><ele>31.0</ele><time>2026-04-18T09:55:16.357Z</time></trkpt><trkpt lat="33.4190637" lon="8.1199733"><ele>31.0</ele><time>2026-04-18T09:55:17.36Z</time></trkpt><trkpt lat="33.4190749" lon="8.119815"><ele>31.0</ele><time>2026-04-18T09:55:18.366Z</time></trkpt><trkpt lat="33.419084" lon="8.1196491"><ele>31.0</ele><time>2026-04-18T09:55:19.358Z</time></trkpt><trkpt lat="33.419094" lon="8.1194752"><ele>31.0</ele><time>2026-04-18T09:55:20.359Z</time></trkpt><trkpt lat="33.4191076" lon="8.1193037"><ele>31.0</ele><time>2026-04-18T09:55:21.375Z</time></trkpt><trkpt lat="33.4191198" lon="8.119135"><ele>31.0</ele><time>2026-04-18T09:55:22.369Z</time></trkpt><trkpt lat="33.4191297" lon="8.1189782"><ele>31.0</ele><time>2026-04-18T09:55:23.363Z</time></trkpt><trkpt lat="33.419139" lon="8.1188236"><ele>31.0</ele><time>2026-04-18T09:55:24.365Z</time></trkpt><trkpt lat="33.4191575" lon="8.1186675"><ele>31.0</ele><time>2026-04-18T09:55:25.361Z</time></trkpt><trkpt lat="33.4191891" lon="8.1185122"><ele>31.0</ele><time>2026-04-18T09:55:26.369Z</time></trkpt><trkpt lat="33.4192278" lon="8.1183545"><ele>31.0</ele><time>2026-04-18T09:55:27.36Z</time></trkpt><trkpt lat="33.4192623" lon="8.1181939"><ele>31.0</ele><time>2026-04-18T09:55:28.375Z</time></trkpt><trkpt lat="33.41928" lon="8.1180164"><ele>31.0</ele><time>2026-04-18T09:55:29.375Z</time></trkpt><trkpt lat="33.4192969" lon="8.1178403"><ele>31.0</ele><time>2026-04-18T09:55:30.375Z</time></trkpt><trkpt lat="33.4193076" lon="8.1176772"><ele>31.0</ele><time>2026-04-18T09:55:31.363Z</time></trkpt><trkpt lat="33.4193175" lon="8.1175233"><ele>31.0</ele><time>2026-04-18T09:55:32.363Z</time></trkpt><trkpt lat="33.4193228" lon="8.1173651"><ele>31.0</ele><time>2026-04-18T09:55:33.367Z</time></trkpt><trkpt lat="33.4193302" lon="8.1172096"><ele>31.0</ele><time>2026-04-18T09:55:34.372Z</time></trkpt><trkpt lat="33.4193424" lon="8.1170504"><ele>31.0</ele><time>2026-04-18T09:55:35.363Z</time></trkpt><trkpt lat="33.4193572" lon="8.1168793"><ele>31.0</ele><time>2026-04-18T09:55:36.366Z</time></trkpt><trkpt lat="33.4193752" lon="8.1166993"><ele>29.75</ele><time>2026-04-18T09:55:37.36Z</time></trkpt><trkpt lat="33.4193928" lon="8.1165187"><ele>28.5</ele><time>2026-04-18T09:55:38.361Z</time></trkpt><trkpt lat="33.4194029" lon="8.1163418"><ele>27.25</ele><time>2026-04-18T09:55:39.362Z</time></trkpt><trkpt lat="33.4194082" lon="8.1161673"><ele>26.0</ele><time>2026-04-18T09:55:40.359Z</time></trkpt><trkpt lat="33.4194143" lon="8.1159993"><ele>26.0</ele><time>2026-04-18T09:55:41.363Z</time></trkpt><trkpt lat="33.4194255" lon="8.1158412"><ele>26.0</ele><time>2026-04-18T09:55:42.359Z</time></trkpt><trkpt lat="33.4194341" lon="8.1156882"><ele>26.0</ele><time>2026-04-18T09:55:43.38Z</time></trkpt><trkpt lat="33.4194364" lon="8.1155362"><ele>26.0</ele><time>2026-04-18T09:55:44.354Z</time></trkpt><trkpt lat="33.4194375" lon="8.1153827"><ele>27.200000000000003</ele><time>2026-04-18T09:55:45.356Z</time></trkpt><trkpt lat="33.41945" lon="8.1152418"><ele>28.400000000000002</ele><time>2026-04-18T09:55:46.357Z</time></trkpt><trkpt lat="33.4194709" lon="8.1151123"><ele>29.6</ele><time>2026-04-18T09:55:47.359Z</time></trkpt><trkpt lat="33.4194859" lon="8.1149823"><ele>30.8</ele><time>2026-04-18T09:55:48.368Z</time></trkpt><trkpt lat="33.4194913" lon="8.1148579"><ele>32.0</ele><time>2026-04-18T09:55:49.361Z</time></trkpt><trkpt lat="33.4194955" lon="8.1147283"><ele>32.0</ele><time>2026-04-18T09:55:50.365Z</time></trkpt><trkpt lat="33.4194991" lon="8.114589"><ele>32.0</ele><time>2026-04-18T09:55:51.359Z</time></trkpt><trkpt lat="33.419498" lon="8.1144484"><ele>32.0</ele><time>2026-04-18T09:55:52.363Z</time></trkpt><trkpt lat="33.4194845" lon="8.1142941"><ele>32.0</ele><time>2026-04-18T09:55:53.365Z</time></trkpt><trkpt lat="33.4194687" lon="8.1141347"><ele>31.5</ele><time>2026-04-18T09:55:54.369Z</time></trkpt><trkpt lat="33.4194476" lon="8.1139773"><ele>31.0</ele><time>2026-04-18T09:55:55.364Z</time></trkpt><trkpt lat="33.419427" lon="8.1138304"><ele>30.5</ele><time>2026-04-18T09:55:56.367Z</time></trkpt><trkpt lat="33.4194059" lon="8.1136887"><ele>30.0</ele><time>2026-04-18T09:55:57.36Z</time></trkpt><trkpt lat="33.4193865" lon="8.1135447"><ele>30.0</ele><time>2026-04-18T09:55:58.363Z</time></trkpt><trkpt lat="33.4193723" lon="8.1134031"><ele>30.0</ele><time>2026-04-18T09:55:59.359Z</time></trkpt><trkpt lat="33.4193614" lon="8.1132592"><ele>30.0</ele><time>2026-04-18T09:56:00.364Z</time></trkpt><trkpt lat="33.4193488" lon="8.1131175"><ele>30.0</ele><time>2026-04-18T09:56:01.361Z</time></trkpt><trkpt lat="33.4193464" lon="8.1129819"><ele>30.4</ele><time>2026-04-18T09:56:02.364Z</time></trkpt><trkpt lat="33.419347" lon="8.1128576"><ele>30.8</ele><time>2026-04-18T09:56:03.363Z</time></trkpt><trkpt lat="33.4193479" lon="8.1127337"><ele>31.200000000000003</ele><time>2026-04-18T09:56:04.362Z</time></trkpt><trkpt lat="33.4193615" lon="8.112607"><ele>31.6</ele><time>2026-04-18T09:56:05.36Z</time></trkpt><trkpt lat="33.4193843" lon="8.1124937"><ele>32.0</ele><time>2026-04-18T09:56:06.361Z</time></trkpt><trkpt lat="33.4194187" lon="8.1124003"><ele>32.33333333333333</ele><time>2026-04-18T09:56:07.383Z</time></trkpt><trkpt lat="33.419451" lon="8.1123174"><ele>32.666666666666664</ele><time>2026-04-18T09:56:08.367Z</time></trkpt><trkpt lat="33.4195033" lon="8.1122532"><ele>33.0</ele><time>2026-04-18T09:56:09.364Z</time></trkpt><trkpt lat="33.4195658" lon="8.112185"><ele>33.333333333333336</ele><time>2026-04-18T09:56:10.388Z</time></trkpt><trkpt lat="33.4196258" lon="8.1121097"><ele>33.66666666666667</ele><time>2026-04-18T09:56:11.364Z</time></trkpt><trkpt lat="33.4196821" lon="8.1120357"><ele>34.0</ele><time>2026-04-18T09:56:12.363Z</time></trkpt><trkpt lat="33.4197134" lon="8.1119528"><ele>34.0</ele><time>2026-04-18T09:56:13.361Z</time></trkpt><trkpt lat="33.4197237" lon="8.1118583"><ele>34.0</ele><time>2026-04-18T09:56:14.368Z</time></trkpt><trkpt lat="33.4197316" lon="8.111739"><ele>34.0</ele><time>2026-04-18T09:56:15.362Z</time></trkpt><trkpt lat="33.419741" lon="8.1116107"><ele>34.0</ele><time>2026-04-18T09:56:16.366Z</time></trkpt><trkpt lat="33.4197501" lon="8.1114902"><ele>34.0</ele><time>2026-04-18T09:56:17.372Z</time></trkpt><trkpt lat="33.4197599" lon="8.1113639"><ele>34.0</ele><time>2026-04-18T09:56:18.358Z</time></trkpt><trkpt lat="33.4197662" lon="8.1112312"><ele>34.0</ele><time>2026-04-18T09:56:19.369Z</time></trkpt><trkpt lat="33.4197755" lon="8.1110883"><ele>34.0</ele><time>2026-04-18T09:56:20.366Z</time></trkpt><trkpt lat="33.4197852" lon="8.1109401"><ele>34.0</ele><time>2026-04-18T09:56:21.365Z</time></trkpt><trkpt lat="33.4197948" lon="8.1108009"><ele>33.8</ele><time>2026-04-18T09:56:22.366Z</time></trkpt><trkpt lat="33.4198058" lon="8.1106629"><ele>33.599999999999994</ele><time>2026-04-18T09:56:23.365Z</time></trkpt><trkpt lat="33.4198191" lon="8.1105343"><ele>33.4</ele><time>2026-04-18T09:56:24.361Z</time></trkpt><trkpt lat="33.4198322" lon="8.1104089"><ele>33.199999999999996</ele><time>2026-04-18T09:56:25.368Z</time></trkpt><trkpt lat="33.4198383" lon="8.110272"><ele>33.0</ele><time>2026-04-18T09:56:26.363Z</time></trkpt><trkpt lat="33.4198474" lon="8.1101303"><ele>33.0</ele><time>2026-04-18T09:56:27.367Z</time></trkpt><trkpt lat="33.419855" lon="8.1099928"><ele>33.0</ele><time>2026-04-18T09:56:28.363Z</time></trkpt><trkpt lat="33.4198625" lon="8.1098509"><ele>33.0</ele><time>2026-04-18T09:56:29.369Z</time></trkpt><trkpt lat="33.4198707" lon="8.1097014"><ele>33.0</ele><time>2026-04-18T09:56:30.358Z</time></trkpt><trkpt lat="33.4198782" lon="8.1095396"><ele>33.0</ele><time>2026-04-18T09:56:31.357Z</time></trkpt><trkpt lat="33.4198926" lon="8.1093736"><ele>33.0</ele><time>2026-04-18T09:56:32.376Z</time></trkpt><trkpt lat="33.4199132" lon="8.1092119"><ele>33.0</ele><time>2026-04-18T09:56:33.37Z</time></trkpt><trkpt lat="33.4199283" lon="8.1090567"><ele>33.0</ele><time>2026-04-18T09:56:34.36Z</time></trkpt><trkpt lat="33.4199377" lon="8.1089107"><ele>33.0</ele><time>2026-04-18T09:56:35.357Z</time></trkpt><trkpt lat="33.4199466" lon="8.1087627"><ele>33.0</ele><time>2026-04-18T09:56:36.362Z</time></trkpt><trkpt lat="33.4199485" lon="8.1086049"><ele>33.0</ele><time>2026-04-18T09:56:37.359Z</time></trkpt><trkpt lat="33.4199613" lon="8.1084315"><ele>33.0</ele><time>2026-04-18T09:56:38.361Z</time></trkpt><trkpt lat="33.4199805" lon="8.1082534"><ele>32.5</ele><time>2026-04-18T09:56:39.359Z</time></trkpt><trkpt lat="33.4199972" lon="8.1080881"><ele>32.0</ele><time>2026-04-18T09:56:40.373Z</time></trkpt><trkpt lat="33.4200125" lon="8.1079221"><ele>31.5</ele><time>2026-04-18T09:56:41.364Z</time></trkpt><trkpt lat="33.4200204" lon="8.107752"><ele>31.0</ele><time>2026-04-18T09:56:42.37Z</time></trkpt><trkpt lat="33.4200239" lon="8.107584"><ele>31.0</ele><time>2026-04-18T09:56:43.365Z</time></trkpt><trkpt lat="33.4200258" lon="8.1074161"><ele>31.0</ele><time>2026-04-18T09:56:44.362Z</time></trkpt><trkpt lat="33.4200385" lon="8.1072447"><ele>31.0</ele><time>2026-04-18T09:56:45.358Z</time></trkpt><trkpt lat="33.4200548" lon="8.1070715"><ele>31.0</ele><time>2026-04-18T09:56:46.364Z</time></trkpt><trkpt lat="33.4200713" lon="8.1069014"><ele>30.75</ele><time>2026-04-18T09:56:47.365Z</time></trkpt><trkpt lat="33.420088" lon="8.1067351"><ele>30.5</ele><time>2026-04-18T09:56:48.36Z</time></trkpt><trkpt lat="33.4201061" lon="8.1065696"><ele>30.25</ele><time>2026-04-18T09:56:49.359Z</time></trkpt><trkpt lat="33.4201213" lon="8.1064057"><ele>30.0</ele><time>2026-04-18T09:56:50.371Z</time></trkpt><trkpt lat="33.4201309" lon="8.1062445"><ele>30.75</ele><time>2026-04-18T09:56:51.355Z</time></trkpt><trkpt lat="33.4201405" lon="8.1060764"><ele>31.5</ele><time>2026-04-18T09:56:52.365Z</time></trkpt><trkpt lat="33.4201513" lon="8.1059197"><ele>32.25</ele><time>2026-04-18T09:56:53.364Z</time></trkpt><trkpt lat="33.4201592" lon="8.1057749"><ele>33.0</ele><time>2026-04-18T09:56:54.368Z</time></trkpt><trkpt lat="33.4201658" lon="8.105643"><ele>33.25</ele><time>2026-04-18T09:56:55.355Z</time></trkpt><trkpt lat="33.4201759" lon="8.1055062"><ele>33.5</ele><time>2026-04-18T09:56:56.368Z</time></trkpt><trkpt lat="33.4201922" lon="8.1053591"><ele>33.75</ele><time>2026-04-18T09:56:57.363Z</time></trkpt><trkpt lat="33.4202096" lon="8.1052183"><ele>34.0</ele><time>2026-04-18T09:56:58.358Z</time></trkpt><trkpt lat="33.4202249" lon="8.1050891"><ele>34.0</ele><time>2026-04-18T09:56:59.362Z</time></trkpt><trkpt lat="33.420239" lon="8.104965"><ele>34.0</ele><time>2026-04-18T09:57:00.366Z</time></trkpt><trkpt lat="33.4202418" lon="8.1048293"><ele>34.0</ele><time>2026-04-18T09:57:01.37Z</time></trkpt><trkpt lat="33.4202467" lon="8.1046861"><ele>34.0</ele><time>2026-04-18T09:57:02.368Z</time></trkpt><trkpt lat="33.4202569" lon="8.104543"><ele>34.0</ele><time>2026-04-18T09:57:03.359Z</time></trkpt><trkpt lat="33.4202675" lon="8.1044099"><ele>34.0</ele><time>2026-04-18T09:57:04.365Z</time></trkpt><trkpt lat="33.4202759" lon="8.1042738"><ele>34.0</ele><time>2026-04-18T09:57:05.363Z</time></trkpt><trkpt lat="33.4202833" lon="8.1041267"><ele>34.0</ele><time>2026-04-18T09:57:06.365Z</time></trkpt><trkpt lat="33.4202928" lon="8.1039792"><ele>34.0</ele><time>2026-04-18T09:57:07.363Z</time></trkpt><trkpt lat="33.4203057" lon="8.1038291"><ele>34.0</ele><time>2026-04-18T09:57:08.358Z</time></trkpt><trkpt lat="33.4203163" lon="8.1036718"><ele>34.0</ele><time>2026-04-18T09:57:09.363Z</time></trkpt><trkpt lat="33.4203264" lon="8.1035133"><ele>34.0</ele><time>2026-04-18T09:57:10.367Z</time></trkpt><trkpt lat="33.4203341" lon="8.1033563"><ele>34.5</ele><time>2026-04-18T09:57:11.364Z</time></trkpt><trkpt lat="33.4203423" lon="8.1031963"><ele>35.0</ele><time>2026-04-18T09:57:12.367Z</time></trkpt><trkpt lat="33.4203471" lon="8.1030386"><ele>35.5</ele><time>2026-04-18T09:57:13.359Z</time></trkpt><trkpt lat="33.4203538" lon="8.1028915"><ele>36.0</ele><time>2026-04-18T09:57:14.367Z</time></trkpt><trkpt lat="33.4203644" lon="8.1027544"><ele>36.0</ele><time>2026-04-18T09:57:15.362Z</time></trkpt><trkpt lat="33.4203781" lon="8.1026234"><ele>36.0</ele><time>2026-04-18T09:57:16.368Z</time></trkpt><trkpt lat="33.4203978" lon="8.1024892"><ele>36.0</ele><time>2026-04-18T09:57:17.364Z</time></trkpt><trkpt lat="33.4204144" lon="8.102354"><ele>36.0</ele><time>2026-04-18T09:57:18.364Z</time></trkpt><trkpt lat="33.4204259" lon="8.1022117"><ele>35.75</ele><time>2026-04-18T09:57:19.361Z</time></trkpt><trkpt lat="33.4204352" lon="8.1020637"><ele>35.5</ele><time>2026-04-18T09:57:20.36Z</time></trkpt><trkpt lat="33.4204449" lon="8.1019148"><ele>35.25</ele><time>2026-04-18T09:57:21.361Z</time></trkpt><trkpt lat="33.4204551" lon="8.1017679"><ele>35.0</ele><time>2026-04-18T09:57:22.36Z</time></trkpt><trkpt lat="33.4204656" lon="8.1016221"><ele>34.8</ele><time>2026-04-18T09:57:23.361Z</time></trkpt><trkpt lat="33.4204769" lon="8.1014806"><ele>34.6</ele><time>2026-04-18T09:57:24.364Z</time></trkpt><trkpt lat="33.4204893" lon="8.1013508"><ele>34.4</ele><time>2026-04-18T09:57:25.366Z</time></trkpt><trkpt lat="33.4204997" lon="8.1012316"><ele>34.2</ele><time>2026-04-18T09:57:26.357Z</time></trkpt><trkpt lat="33.4205116" lon="8.1011163"><ele>34.0</ele><time>2026-04-18T09:57:27.359Z</time></trkpt><trkpt lat="33.4205222" lon="8.1009928"><ele>34.0</ele><time>2026-04-18T09:57:28.358Z</time></trkpt><trkpt lat="33.4205287" lon="8.1008599"><ele>34.0</ele><time>2026-04-18T09:57:29.361Z</time></trkpt><trkpt lat="33.4205316" lon="8.1007204"><ele>34.0</ele><time>2026-04-18T09:57:30.358Z</time></trkpt><trkpt lat="33.4205355" lon="8.1005734"><ele>34.0</ele><time>2026-04-18T09:57:31.362Z</time></trkpt><trkpt lat="33.4205448" lon="8.1004208"><ele>34.0</ele><time>2026-04-18T09:57:32.363Z</time></trkpt><trkpt lat="33.4205563" lon="8.1002691"><ele>34.0</ele><time>2026-04-18T09:57:33.367Z</time></trkpt><trkpt lat="33.4205685" lon="8.1001204"><ele>34.0</ele><time>2026-04-18T09:57:34.362Z</time></trkpt><trkpt lat="33.4205784" lon="8.0999723"><ele>34.0</ele><time>2026-04-18T09:57:35.365Z</time></trkpt><trkpt lat="33.4205874" lon="8.0998273"><ele>34.25</ele><time>2026-04-18T09:57:36.359Z</time></trkpt><trkpt lat="33.4205941" lon="8.0996839"><ele>34.5</ele><time>2026-04-18T09:57:37.361Z</time></trkpt><trkpt lat="33.4205973" lon="8.0995364"><ele>34.75</ele><time>2026-04-18T09:57:38.365Z</time></trkpt><trkpt lat="33.420598" lon="8.0993892"><ele>35.0</ele><time>2026-04-18T09:57:39.365Z</time></trkpt><trkpt lat="33.4206069" lon="8.0992528"><ele>35.0</ele><time>2026-04-18T09:57:40.366Z</time></trkpt><trkpt lat="33.4206298" lon="8.0991165"><ele>35.0</ele><time>2026-04-18T09:57:41.365Z</time></trkpt><trkpt lat="33.420653" lon="8.098982"><ele>35.0</ele><time>2026-04-18T09:57:42.362Z</time></trkpt><trkpt lat="33.4206701" lon="8.0988505"><ele>35.0</ele><time>2026-04-18T09:57:43.365Z</time></trkpt><trkpt lat="33.4206723" lon="8.0987074"><ele>35.0</ele><time>2026-04-18T09:57:44.359Z</time></trkpt><trkpt lat="33.4206715" lon="8.0985546"><ele>35.0</ele><time>2026-04-18T09:57:45.361Z</time></trkpt><trkpt lat="33.4206832" lon="8.0984022"><ele>35.0</ele><time>2026-04-18T09:57:46.364Z</time></trkpt><trkpt lat="33.4207048" lon="8.0982394"><ele>35.0</ele><time>2026-04-18T09:57:47.355Z</time></trkpt><trkpt lat="33.4207246" lon="8.0980802"><ele>34.75</ele><time>2026-04-18T09:57:48.361Z</time></trkpt><trkpt lat="33.4207397" lon="8.0979238"><ele>34.5</ele><time>2026-04-18T09:57:49.355Z</time></trkpt><trkpt lat="33.4207506" lon="8.0977714"><ele>34.25</ele><time>2026-04-18T09:57:50.364Z</time></trkpt><trkpt lat="33.4207551" lon="8.0976234"><ele>34.0</ele><time>2026-04-18T09:57:51.358Z</time></trkpt><trkpt lat="33.4207546" lon="8.0974794"><ele>33.6</ele><time>2026-04-18T09:57:52.362Z</time></trkpt><trkpt lat="33.4207578" lon="8.0973432"><ele>33.2</ele><time>2026-04-18T09:57:53.359Z</time></trkpt><trkpt lat="33.4207679" lon="8.0972126"><ele>32.800000000000004</ele><time>2026-04-18T09:57:54.358Z</time></trkpt><trkpt lat="33.420785" lon="8.0970917"><ele>32.4</ele><time>2026-04-18T09:57:55.358Z</time></trkpt><trkpt lat="33.4208024" lon="8.096971"><ele>32.0</ele><time>2026-04-18T09:57:56.362Z</time></trkpt><trkpt lat="33.4208093" lon="8.0968395"><ele>32.0</ele><time>2026-04-18T09:57:57.366Z</time></trkpt><trkpt lat="33.4208167" lon="8.0967083"><ele>32.0</ele><time>2026-04-18T09:57:58.365Z</time></trkpt><trkpt lat="33.4208262" lon="8.0965846"><ele>32.0</ele><time>2026-04-18T09:57:59.366Z</time></trkpt><trkpt lat="33.4208372" lon="8.096476"><ele>32.0</ele><time>2026-04-18T09:58:00.359Z</time></trkpt><trkpt lat="33.420846" lon="8.096375"><ele>32.0</ele><time>2026-04-18T09:58:01.361Z</time></trkpt><trkpt lat="33.420852" lon="8.0962788"><ele>32.4</ele><time>2026-04-18T09:58:02.361Z</time></trkpt><trkpt lat="33.4208583" lon="8.0961733"><ele>32.800000000000004</ele><time>2026-04-18T09:58:03.364Z</time></trkpt><trkpt lat="33.4208645" lon="8.0960618"><ele>33.2</ele><time>2026-04-18T09:58:04.356Z</time></trkpt><trkpt lat="33.420872" lon="8.0959448"><ele>33.6</ele><time>2026-04-18T09:58:05.365Z</time></trkpt><trkpt lat="33.4208817" lon="8.0958301"><ele>34.0</ele><time>2026-04-18T09:58:06.362Z</time></trkpt><trkpt lat="33.4208927" lon="8.095717"><ele>34.4</ele><time>2026-04-18T09:58:07.364Z</time></trkpt><trkpt lat="33.4209022" lon="8.0956097"><ele>34.8</ele><time>2026-04-18T09:58:08.365Z</time></trkpt><trkpt lat="33.4209122" lon="8.0954896"><ele>35.2</ele><time>2026-04-18T09:58:09.367Z</time></trkpt><trkpt lat="33.4209187" lon="8.095354"><ele>35.6</ele><time>2026-04-18T09:58:10.361Z</time></trkpt><trkpt lat="33.4209206" lon="8.0952221"><ele>36.0</ele><time>2026-04-18T09:58:11.363Z</time></trkpt><trkpt lat="33.4209256" lon="8.0950885"><ele>36.0</ele><time>2026-04-18T09:58:12.362Z</time></trkpt><trkpt lat="33.4209358" lon="8.09494"><ele>36.0</ele><time>2026-04-18T09:58:13.365Z</time></trkpt><trkpt lat="33.4209484" lon="8.0947824"><ele>36.0</ele><time>2026-04-18T09:58:14.363Z</time></trkpt><trkpt lat="33.4209632" lon="8.0946238"><ele>36.0</ele><time>2026-04-18T09:58:15.368Z</time></trkpt><trkpt lat="33.4209717" lon="8.0944594"><ele>35.5</ele><time>2026-04-18T09:58:16.373Z</time></trkpt><trkpt lat="33.420986" lon="8.0942905"><ele>35.0</ele><time>2026-04-18T09:58:17.37Z</time></trkpt><trkpt lat="33.4210069" lon="8.0941194"><ele>34.5</ele><time>2026-04-18T09:58:18.369Z</time></trkpt><trkpt lat="33.4210251" lon="8.0939395"><ele>34.0</ele><time>2026-04-18T09:58:19.372Z</time></trkpt><trkpt lat="33.4210359" lon="8.0937773"><ele>34.0</ele><time>2026-04-18T09:58:20.37Z</time></trkpt><trkpt lat="33.4210437" lon="8.0936384"><ele>34.0</ele><time>2026-04-18T09:58:21.361Z</time></trkpt><trkpt lat="33.4210532" lon="8.0935011"><ele>34.0</ele><time>2026-04-18T09:58:22.358Z</time></trkpt><trkpt lat="33.4210629" lon="8.0933605"><ele>34.0</ele><time>2026-04-18T09:58:23.368Z</time></trkpt><trkpt lat="33.4210727" lon="8.0932076"><ele>34.25</ele><time>2026-04-18T09:58:24.369Z</time></trkpt><trkpt lat="33.4210855" lon="8.0930595"><ele>34.5</ele><time>2026-04-18T09:58:25.359Z</time></trkpt><trkpt lat="33.4211023" lon="8.0929144"><ele>34.75</ele><time>2026-04-18T09:58:26.363Z</time></trkpt><trkpt lat="33.4211133" lon="8.0927794"><ele>35.0</ele><time>2026-04-18T09:58:27.361Z</time></trkpt><trkpt lat="33.4211178" lon="8.0926355"><ele>35.0</ele><time>2026-04-18T09:58:28.367Z</time></trkpt><trkpt lat="33.4211246" lon="8.0924917"><ele>35.0</ele><time>2026-04-18T09:58:29.363Z</time></trkpt><trkpt lat="33.4211336" lon="8.0923572"><ele>35.0</ele><time>2026-04-18T09:58:30.359Z</time></trkpt><trkpt lat="33.4211412" lon="8.0922395"><ele>35.0</ele><time>2026-04-18T09:58:31.367Z</time></trkpt><trkpt lat="33.421147" lon="8.0921402"><ele>35.0</ele><time>2026-04-18T09:58:32.369Z</time></trkpt><trkpt lat="33.4211557" lon="8.0920517"><ele>35.0</ele><time>2026-04-18T09:58:33.365Z</time></trkpt><trkpt lat="33.4211671" lon="8.0919415"><ele>35.0</ele><time>2026-04-18T09:58:34.363Z</time></trkpt><trkpt lat="33.4211822" lon="8.0918261"><ele>35.0</ele><time>2026-04-18T09:58:35.37Z</time></trkpt><trkpt lat="33.4211991" lon="8.091713"><ele>35.0</ele><time>2026-04-18T09:58:36.369Z</time></trkpt><trkpt lat="33.4212158" lon="8.0916026"><ele>35.0</ele><time>2026-04-18T09:58:37.36Z</time></trkpt><trkpt lat="33.4212297" lon="8.0914816"><ele>34.5</ele><time>2026-04-18T09:58:38.363Z</time></trkpt><trkpt lat="33.4212407" lon="8.0913546"><ele>34.0</ele><time>2026-04-18T09:58:39.363Z</time></trkpt><trkpt lat="33.4212478" lon="8.0912161"><ele>33.5</ele><time>2026-04-18T09:58:40.366Z</time></trkpt><trkpt lat="33.4212533" lon="8.0910742"><ele>33.0</ele><time>2026-04-18T09:58:41.37Z</time></trkpt><trkpt lat="33.4212606" lon="8.090927"><ele>33.0</ele><time>2026-04-18T09:58:42.367Z</time></trkpt><trkpt lat="33.4212671" lon="8.0907917"><ele>33.0</ele><time>2026-04-18T09:58:43.373Z</time></trkpt><trkpt lat="33.4212712" lon="8.0906466"><ele>33.0</ele><time>2026-04-18T09:58:44.37Z</time></trkpt><trkpt lat="33.4212753" lon="8.0904966"><ele>33.0</ele><time>2026-04-18T09:58:45.361Z</time></trkpt><trkpt lat="33.4212843" lon="8.0903357"><ele>33.25</ele><time>2026-04-18T09:58:46.362Z</time></trkpt><trkpt lat="33.4212912" lon="8.0901725"><ele>33.5</ele><time>2026-04-18T09:58:47.365Z</time></trkpt><trkpt lat="33.4212974" lon="8.0900014"><ele>33.75</ele><time>2026-04-18T09:58:48.37Z</time></trkpt><trkpt lat="33.4213043" lon="8.0898266"><ele>34.0</ele><time>2026-04-18T09:58:49.362Z</time></trkpt><trkpt lat="33.4213102" lon="8.0896537"><ele>34.25</ele><time>2026-04-18T09:58:50.369Z</time></trkpt><trkpt lat="33.4213184" lon="8.08949"><ele>34.5</ele><time>2026-04-18T09:58:51.372Z</time></trkpt><trkpt lat="33.4213286" lon="8.0893377"><ele>34.75</ele><time>2026-04-18T09:58:52.367Z</time></trkpt><trkpt lat="33.4213493" lon="8.0891921"><ele>35.0</ele><time>2026-04-18T09:58:53.366Z</time></trkpt><trkpt lat="33.4213736" lon="8.0890577"><ele>35.0</ele><time>2026-04-18T09:58:54.364Z</time></trkpt><trkpt lat="33.4213888" lon="8.0889418"><ele>35.0</ele><time>2026-04-18T09:58:55.367Z</time></trkpt><trkpt lat="33.4213913" lon="8.088828"><ele>35.0</ele><time>2026-04-18T09:58:56.372Z</time></trkpt><trkpt lat="33.4213926" lon="8.0887062"><ele>35.0</ele><time>2026-04-18T09:58:57.371Z</time></trkpt><trkpt lat="33.4213927" lon="8.0885796"><ele>35.0</ele><time>2026-04-18T09:58:58.36Z</time></trkpt><trkpt lat="33.4213992" lon="8.0884476"><ele>35.0</ele><time>2026-04-18T09:58:59.354Z</time></trkpt><trkpt lat="33.4214151" lon="8.0883193"><ele>35.0</ele><time>2026-04-18T09:59:00.365Z</time></trkpt><trkpt lat="33.421433" lon="8.0882054"><ele>35.0</ele><time>2026-04-18T09:59:01.359Z</time></trkpt><trkpt lat="33.421441" lon="8.0881014"><ele>35.0</ele><time>2026-04-18T09:59:02.366Z</time></trkpt><trkpt lat="33.4214458" lon="8.087986"><ele>35.0</ele><time>2026-04-18T09:59:03.358Z</time></trkpt><trkpt lat="33.4214539" lon="8.0878557"><ele>34.75</ele><time>2026-04-18T09:59:04.365Z</time></trkpt><trkpt lat="33.4214668" lon="8.0877166"><ele>34.5</ele><time>2026-04-18T09:59:05.357Z</time></trkpt><trkpt lat="33.4214831" lon="8.0875726"><ele>34.25</ele><time>2026-04-18T09:59:06.363Z</time></trkpt><trkpt lat="33.4214975" lon="8.0874207"><ele>34.0</ele><time>2026-04-18T09:59:07.361Z</time></trkpt><trkpt lat="33.4215054" lon="8.0872635"><ele>33.25</ele><time>2026-04-18T09:59:08.366Z</time></trkpt><trkpt lat="33.4215125" lon="8.0871049"><ele>32.5</ele><time>2026-04-18T09:59:09.362Z</time></trkpt><trkpt lat="33.4215233" lon="8.0869445"><ele>31.75</ele><time>2026-04-18T09:59:10.37Z</time></trkpt><trkpt lat="33.4215351" lon="8.0867878"><ele>31.0</ele><time>2026-04-18T09:59:11.361Z</time></trkpt><trkpt lat="33.4215468" lon="8.0866303"><ele>32.0</ele><time>2026-04-18T09:59:12.361Z</time></trkpt><trkpt lat="33.4215556" lon="8.0864723"><ele>33.0</ele><time>2026-04-18T09:59:13.358Z</time></trkpt><trkpt lat="33.4215617" lon="8.0863106"><ele>34.0</ele><time>2026-04-18T09:59:14.359Z</time></trkpt><trkpt lat="33.4215723" lon="8.0861475"><ele>35.0</ele><time>2026-04-18T09:59:15.357Z</time></trkpt><trkpt lat="33.4215875" lon="8.0859881"><ele>35.0</ele><time>2026-04-18T09:59:16.364Z</time></trkpt><trkpt lat="33.421602" lon="8.0858375"><ele>35.0</ele><time>2026-04-18T09:59:17.372Z</time></trkpt><trkpt lat="33.4216169" lon="8.0856949"><ele>35.0</ele><time>2026-04-18T09:59:18.355Z</time></trkpt><trkpt lat="33.4216317" lon="8.0855647"><ele>35.0</ele><time>2026-04-18T09:59:19.366Z</time></trkpt><trkpt lat="33.4216432" lon="8.0854418"><ele>34.5</ele><time>2026-04-18T09:59:20.361Z</time></trkpt><trkpt lat="33.4216488" lon="8.0853274"><ele>34.0</ele><time>2026-04-18T09:59:21.361Z</time></trkpt><trkpt lat="33.4216528" lon="8.0852235"><ele>33.5</ele><time>2026-04-18T09:59:22.36Z</time></trkpt><trkpt lat="33.421653" lon="8.0851249"><ele>33.0</ele><time>2026-04-18T09:59:23.36Z</time></trkpt><trkpt lat="33.4216533" lon="8.0850217"><ele>32.5</ele><time>2026-04-18T09:59:24.366Z</time></trkpt><trkpt lat="33.4216579" lon="8.0849064"><ele>32.0</ele><time>2026-04-18T09:59:25.358Z</time></trkpt><trkpt lat="33.4216688" lon="8.0847886"><ele>32.0</ele><time>2026-04-18T09:59:26.361Z</time></trkpt><trkpt lat="33.4216908" lon="8.0846628"><ele>32.0</ele><time>2026-04-18T09:59:27.371Z</time></trkpt><trkpt lat="33.4217151" lon="8.0845404"><ele>32.0</ele><time>2026-04-18T09:59:28.367Z</time></trkpt><trkpt lat="33.4217292" lon="8.0844352"><ele>32.0</ele><time>2026-04-18T09:59:29.365Z</time></trkpt><trkpt lat="33.4217339" lon="8.0843216"><ele>32.0</ele><time>2026-04-18T09:59:30.363Z</time></trkpt><trkpt lat="33.4217347" lon="8.0841833"><ele>32.25</ele><time>2026-04-18T09:59:31.369Z</time></trkpt><trkpt lat="33.4217362" lon="8.0840315"><ele>32.5</ele><time>2026-04-18T09:59:32.362Z</time></trkpt><trkpt lat="33.4217417" lon="8.083883"><ele>32.75</ele><time>2026-04-18T09:59:33.369Z</time></trkpt><trkpt lat="33.4217486" lon="8.0837335"><ele>33.0</ele><time>2026-04-18T09:59:34.369Z</time></trkpt><trkpt lat="33.4217612" lon="8.0835786"><ele>33.0</ele><time>2026-04-18T09:59:35.358Z</time></trkpt><trkpt lat="33.4217725" lon="8.0834268"><ele>33.0</ele><time>2026-04-18T09:59:36.372Z</time></trkpt><trkpt lat="33.4217795" lon="8.0832769"><ele>33.0</ele><time>2026-04-18T09:59:37.373Z</time></trkpt><trkpt lat="33.4217829" lon="8.0831248"><ele>33.0</ele><time>2026-04-18T09:59:38.363Z</time></trkpt><trkpt lat="33.4217888" lon="8.0829835"><ele>33.199999999999996</ele><time>2026-04-18T09:59:39.373Z</time></trkpt><trkpt lat="33.4217954" lon="8.0828544"><ele>33.4</ele><time>2026-04-18T09:59:40.361Z</time></trkpt><trkpt lat="33.4218084" lon="8.0827427"><ele>33.599999999999994</ele><time>2026-04-18T09:59:41.361Z</time></trkpt><trkpt lat="33.4218275" lon="8.0826397"><ele>33.8</ele><time>2026-04-18T09:59:42.37Z</time></trkpt><trkpt lat="33.4218475" lon="8.0825266"><ele>34.0</ele><time>2026-04-18T09:59:43.366Z</time></trkpt><trkpt lat="33.4218592" lon="8.0824079"><ele>34.0</ele><time>2026-04-18T09:59:44.365Z</time></trkpt><trkpt lat="33.4218645" lon="8.0822807"><ele>34.0</ele><time>2026-04-18T09:59:45.361Z</time></trkpt><trkpt lat="33.4218698" lon="8.0821375"><ele>34.0</ele><time>2026-04-18T09:59:46.367Z</time></trkpt><trkpt lat="33.4218802" lon="8.0819911"><ele>34.0</ele><time>2026-04-18T09:59:47.373Z</time></trkpt><trkpt lat="33.4218912" lon="8.0818417"><ele>34.0</ele><time>2026-04-18T09:59:48.37Z</time></trkpt><trkpt lat="33.4219018" lon="8.0816866"><ele>34.0</ele><time>2026-04-18T09:59:49.363Z</time></trkpt><trkpt lat="33.4219092" lon="8.0815292"><ele>34.0</ele><time>2026-04-18T09:59:50.361Z</time></trkpt><trkpt lat="33.4219107" lon="8.0813741"><ele>34.0</ele><time>2026-04-18T09:59:51.357Z</time></trkpt><trkpt lat="33.4219124" lon="8.0812127"><ele>33.75</ele><time>2026-04-18T09:59:52.356Z</time></trkpt><trkpt lat="33.4219237" lon="8.0810455"><ele>33.5</ele><time>2026-04-18T09:59:53.366Z</time></trkpt><trkpt lat="33.4219425" lon="8.0808803"><ele>33.25</ele><time>2026-04-18T09:59:54.365Z</time></trkpt><trkpt lat="33.4219602" lon="8.0807131"><ele>33.0</ele><time>2026-04-18T09:59:55.362Z</time></trkpt><trkpt lat="33.4219811" lon="8.0805459"><ele>33.0</ele><time>2026-04-18T09:59:56.361Z</time></trkpt><trkpt lat="33.4219993" lon="8.0803844"><ele>33.0</ele><time>2026-04-18T09:59:57.361Z</time></trkpt><trkpt lat="33.4220068" lon="8.0802329"><ele>33.0</ele><time>2026-04-18T09:59:58.36Z</time></trkpt><trkpt lat="33.4220132" lon="8.080087"><ele>33.0</ele><time>2026-04-18T09:59:59.358Z</time></trkpt><trkpt lat="33.4220165" lon="8.0799408"><ele>32.5</ele><time>2026-04-18T10:00:00.366Z</time></trkpt><trkpt lat="33.4220239" lon="8.0797962"><ele>32.0</ele><time>2026-04-18T10:00:01.367Z</time></trkpt><trkpt lat="33.4220327" lon="8.0796597"><ele>31.5</ele><time>2026-04-18T10:00:02.353Z</time></trkpt><trkpt lat="33.4220462" lon="8.0795208"><ele>31.0</ele><time>2026-04-18T10:00:03.356Z</time></trkpt><trkpt lat="33.4220553" lon="8.0793785"><ele>31.0</ele><time>2026-04-18T10:00:04.364Z</time></trkpt><trkpt lat="33.4220563" lon="8.0792332"><ele>31.0</ele><time>2026-04-18T10:00:05.371Z</time></trkpt><trkpt lat="33.4220603" lon="8.0790776"><ele>31.0</ele><time>2026-04-18T10:00:06.355Z</time></trkpt><trkpt lat="33.4220765" lon="8.0789242"><ele>31.0</ele><time>2026-04-18T10:00:07.362Z</time></trkpt><trkpt lat="33.4220986" lon="8.0787731"><ele>31.5</ele><time>2026-04-18T10:00:08.366Z</time></trkpt><trkpt lat="33.4221174" lon="8.0786279"><ele>32.0</ele><time>2026-04-18T10:00:09.363Z</time></trkpt><trkpt lat="33.4221345" lon="8.0784861"><ele>32.5</ele><time>2026-04-18T10:00:10.356Z</time></trkpt><trkpt lat="33.4221436" lon="8.0783455"><ele>33.0</ele><time>2026-04-18T10:00:11.362Z</time></trkpt><trkpt lat="33.4221521" lon="8.0781885"><ele>33.0</ele><time>2026-04-18T10:00:12.371Z</time></trkpt><trkpt lat="33.4221635" lon="8.0780288"><ele>33.0</ele><time>2026-04-18T10:00:13.366Z</time></trkpt><trkpt lat="33.4221779" lon="8.0778694"><ele>33.0</ele><time>2026-04-18T10:00:14.371Z</time></trkpt><trkpt lat="33.422186" lon="8.0777136"><ele>33.0</ele><time>2026-04-18T10:00:15.365Z</time></trkpt><trkpt lat="33.422192" lon="8.077567"><ele>33.0</ele><time>2026-04-18T10:00:16.367Z</time></trkpt><trkpt lat="33.4221972" lon="8.0774255"><ele>33.0</ele><time>2026-04-18T10:00:17.362Z</time></trkpt><trkpt lat="33.4222203" lon="8.0772892"><ele>33.0</ele><time>2026-04-18T10:00:18.362Z</time></trkpt><trkpt lat="33.4222399" lon="8.0771519"><ele>33.0</ele><time>2026-04-18T10:00:19.366Z</time></trkpt><trkpt lat="33.4222455" lon="8.0770262"><ele>33.0</ele><time>2026-04-18T10:00:20.363Z</time></trkpt><trkpt lat="33.4222487" lon="8.0769065"><ele>33.0</ele><time>2026-04-18T10:00:21.372Z</time></trkpt><trkpt lat="33.422243" lon="8.0767794"><ele>33.0</ele><time>2026-04-18T10:00:22.365Z</time></trkpt><trkpt lat="33.4222371" lon="8.0766458"><ele>33.0</ele><time>2026-04-18T10:00:23.363Z</time></trkpt><trkpt lat="33.4222498" lon="8.0765026"><ele>33.0</ele><time>2026-04-18T10:00:24.36Z</time></trkpt><trkpt lat="33.4222627" lon="8.076352"><ele>33.25</ele><time>2026-04-18T10:00:25.36Z</time></trkpt><trkpt lat="33.4222777" lon="8.0761942"><ele>33.5</ele><time>2026-04-18T10:00:26.36Z</time></trkpt><trkpt lat="33.4222937" lon="8.0760343"><ele>33.75</ele><time>2026-04-18T10:00:27.362Z</time></trkpt><trkpt lat="33.4223111" lon="8.0758841"><ele>34.0</ele><time>2026-04-18T10:00:28.37Z</time></trkpt><trkpt lat="33.4223253" lon="8.0757373"><ele>33.5</ele><time>2026-04-18T10:00:29.367Z</time></trkpt><trkpt lat="33.4223351" lon="8.075587"><ele>33.0</ele><time>2026-04-18T10:00:30.369Z</time></trkpt><trkpt lat="33.4223433" lon="8.0754284"><ele>32.5</ele><time>2026-04-18T10:00:31.374Z</time></trkpt><trkpt lat="33.4223535" lon="8.0752654"><ele>32.0</ele><time>2026-04-18T10:00:32.378Z</time></trkpt><trkpt lat="33.4223659" lon="8.0750991"><ele>32.0</ele><time>2026-04-18T10:00:33.36Z</time></trkpt><trkpt lat="33.4223783" lon="8.0749397"><ele>32.0</ele><time>2026-04-18T10:00:34.361Z</time></trkpt><trkpt lat="33.4223897" lon="8.0747822"><ele>32.0</ele><time>2026-04-18T10:00:35.363Z</time></trkpt><trkpt lat="33.4224007" lon="8.0746223"><ele>32.0</ele><time>2026-04-18T10:00:36.368Z</time></trkpt><trkpt lat="33.4224077" lon="8.0744584"><ele>32.5</ele><time>2026-04-18T10:00:37.363Z</time></trkpt><trkpt lat="33.4224141" lon="8.0742911"><ele>33.0</ele><time>2026-04-18T10:00:38.369Z</time></trkpt><trkpt lat="33.4224253" lon="8.0741239"><ele>33.5</ele><time>2026-04-18T10:00:39.37Z</time></trkpt><trkpt lat="33.4224392" lon="8.0739523"><ele>34.0</ele><time>2026-04-18T10:00:40.365Z</time></trkpt><trkpt lat="33.422452" lon="8.073792"><ele>34.0</ele><time>2026-04-18T10:00:41.374Z</time></trkpt><trkpt lat="33.4224652" lon="8.0736475"><ele>34.0</ele><time>2026-04-18T10:00:42.369Z</time></trkpt><trkpt lat="33.4224797" lon="8.0735131"><ele>34.0</ele><time>2026-04-18T10:00:43.37Z</time></trkpt><trkpt lat="33.4224933" lon="8.0733946"><ele>34.0</ele><time>2026-04-18T10:00:44.373Z</time></trkpt><trkpt lat="33.4225075" lon="8.0732859"><ele>34.0</ele><time>2026-04-18T10:00:45.372Z</time></trkpt><trkpt lat="33.4225214" lon="8.073174"><ele>33.4</ele><time>2026-04-18T10:00:46.368Z</time></trkpt><trkpt lat="33.4225278" lon="8.0730625"><ele>32.8</ele><time>2026-04-18T10:00:47.365Z</time></trkpt><trkpt lat="33.4225297" lon="8.0729482"><ele>32.2</ele><time>2026-04-18T10:00:48.374Z</time></trkpt><trkpt lat="33.4225277" lon="8.0728182"><ele>31.6</ele><time>2026-04-18T10:00:49.366Z</time></trkpt><trkpt lat="33.4225281" lon="8.0726941"><ele>31.0</ele><time>2026-04-18T10:00:50.366Z</time></trkpt><trkpt lat="33.4225358" lon="8.0725772"><ele>31.0</ele><time>2026-04-18T10:00:51.366Z</time></trkpt><trkpt lat="33.4225437" lon="8.0724583"><ele>31.0</ele><time>2026-04-18T10:00:52.362Z</time></trkpt><trkpt lat="33.4225523" lon="8.072335"><ele>31.0</ele><time>2026-04-18T10:00:53.369Z</time></trkpt><trkpt lat="33.4225535" lon="8.0722084"><ele>31.0</ele><time>2026-04-18T10:00:54.365Z</time></trkpt><trkpt lat="33.4225544" lon="8.072089"><ele>31.0</ele><time>2026-04-18T10:00:55.371Z</time></trkpt><trkpt lat="33.422561" lon="8.0719748"><ele>31.166666666666668</ele><time>2026-04-18T10:00:56.365Z</time></trkpt><trkpt lat="33.4225701" lon="8.0718712"><ele>31.333333333333336</ele><time>2026-04-18T10:00:57.367Z</time></trkpt><trkpt lat="33.4225881" lon="8.0717712"><ele>31.5</ele><time>2026-04-18T10:00:58.372Z</time></trkpt><trkpt lat="33.4226103" lon="8.0716717"><ele>31.666666666666664</ele><time>2026-04-18T10:00:59.369Z</time></trkpt><trkpt lat="33.4226221" lon="8.0715708"><ele>31.833333333333332</ele><time>2026-04-18T10:01:00.371Z</time></trkpt><trkpt lat="33.422624" lon="8.0714566"><ele>32.0</ele><time>2026-04-18T10:01:01.366Z</time></trkpt><trkpt lat="33.4226282" lon="8.0713392"><ele>32.2</ele><time>2026-04-18T10:01:02.359Z</time></trkpt><trkpt lat="33.422636" lon="8.0712165"><ele>32.400000000000006</ele><time>2026-04-18T10:01:03.364Z</time></trkpt><trkpt lat="33.4226493" lon="8.0710945"><ele>32.599999999999994</ele><time>2026-04-18T10:01:04.363Z</time></trkpt><trkpt lat="33.4226606" lon="8.0709755"><ele>32.8</ele><time>2026-04-18T10:01:05.367Z</time></trkpt><trkpt lat="33.422671" lon="8.0708635"><ele>33.0</ele><time>2026-04-18T10:01:06.362Z</time></trkpt><trkpt lat="33.4226751" lon="8.0707545"><ele>33.0</ele><time>2026-04-18T10:01:07.367Z</time></trkpt><trkpt lat="33.4226807" lon="8.0706564"><ele>33.0</ele><time>2026-04-18T10:01:08.363Z</time></trkpt><trkpt lat="33.4226881" lon="8.070566"><ele>33.0</ele><time>2026-04-18T10:01:09.375Z</time></trkpt><trkpt lat="33.4227016" lon="8.0704449"><ele>33.0</ele><time>2026-04-18T10:01:11.363Z</time></trkpt><trkpt lat="33.4226964" lon="8.0703687"><ele>33.0</ele><time>2026-04-18T10:14:03.326Z</time></trkpt><trkpt lat="33.4226945" lon="8.0702791"><ele>33.0</ele><time>2026-04-18T10:14:05.357Z</time></trkpt><trkpt lat="33.4227129" lon="8.0701461"><ele>33.0</ele><time>2026-04-18T10:14:07.359Z</time></trkpt><trkpt lat="33.4227262" lon="8.0700135"><ele>33.0</ele><time>2026-04-18T10:14:09.366Z</time></trkpt><trkpt lat="33.4227406" lon="8.0698839"><ele>33.0</ele><time>2026-04-18T10:14:11.363Z</time></trkpt><trkpt lat="33.4227539" lon="8.0697534"><ele>33.0</ele><time>2026-04-18T10:14:13.362Z</time></trkpt><trkpt lat="33.422773" lon="8.0696326"><ele>33.0</ele><time>2026-04-18T10:14:15.371Z</time></trkpt><trkpt lat="33.4227782" lon="8.0695144"><ele>33.4</ele><time>2026-04-18T10:14:17.365Z</time></trkpt><trkpt lat="33.4227763" lon="8.069388"><ele>33.8</ele><time>2026-04-18T10:14:19.365Z</time></trkpt><trkpt lat="33.4227757" lon="8.0692709"><ele>34.2</ele><time>2026-04-18T10:14:21.363Z</time></trkpt><trkpt lat="33.4227795" lon="8.0691531"><ele>34.6</ele><time>2026-04-18T10:14:23.358Z</time></trkpt><trkpt lat="33.4227934" lon="8.0690215"><ele>35.0</ele><time>2026-04-18T10:14:25.365Z</time></trkpt><trkpt lat="33.4228064" lon="8.0688779"><ele>35.0</ele><time>2026-04-18T10:14:27.36Z</time></trkpt><trkpt lat="33.4228114" lon="8.0687313"><ele>35.0</ele><time>2026-04-18T10:14:29.358Z</time></trkpt><trkpt lat="33.4228182" lon="8.06864"><ele>35.0</ele><time>2026-04-18T10:14:30.363Z</time></trkpt><trkpt lat="33.4228274" lon="8.0685339"><ele>35.0</ele><time>2026-04-18T10:14:31.37Z</time></trkpt><trkpt lat="33.4228367" lon="8.0684287"><ele>35.0</ele><time>2026-04-18T10:14:32.367Z</time></trkpt><trkpt lat="33.4228457" lon="8.0683284"><ele>34.5</ele><time>2026-04-18T10:14:33.357Z</time></trkpt><trkpt lat="33.4228514" lon="8.0682308"><ele>34.0</ele><time>2026-04-18T10:14:34.359Z</time></trkpt><trkpt lat="33.4228527" lon="8.0681394"><ele>33.5</ele><time>2026-04-18T10:14:35.362Z</time></trkpt><trkpt lat="33.4228582" lon="8.0680414"><ele>33.0</ele><time>2026-04-18T10:14:36.356Z</time></trkpt><trkpt lat="33.4228692" lon="8.0679362"><ele>32.5</ele><time>2026-04-18T10:14:37.362Z</time></trkpt><trkpt lat="33.4228857" lon="8.0678293"><ele>32.0</ele><time>2026-04-18T10:14:38.369Z</time></trkpt><trkpt lat="33.4228981" lon="8.0677267"><ele>32.0</ele><time>2026-04-18T10:14:39.36Z</time></trkpt><trkpt lat="33.4229093" lon="8.067635"><ele>31.999999999999996</ele><time>2026-04-18T10:14:40.363Z</time></trkpt><trkpt lat="33.4229177" lon="8.067552"><ele>32.0</ele><time>2026-04-18T10:14:41.357Z</time></trkpt><trkpt lat="33.4229208" lon="8.0674653"><ele>32.0</ele><time>2026-04-18T10:14:42.359Z</time></trkpt><trkpt lat="33.4229204" lon="8.0673792"><ele>31.999999999999996</ele><time>2026-04-18T10:14:43.366Z</time></trkpt><trkpt lat="33.4229199" lon="8.0672988"><ele>32.0</ele><time>2026-04-18T10:14:44.365Z</time></trkpt><trkpt lat="33.4229266" lon="8.0672114"><ele>32.0</ele><time>2026-04-18T10:14:45.369Z</time></trkpt><trkpt lat="33.4229374" lon="8.0671038"><ele>32.0</ele><time>2026-04-18T10:14:46.364Z</time></trkpt><trkpt lat="33.4229391" lon="8.0669848"><ele>32.0</ele><time>2026-04-18T10:14:47.371Z</time></trkpt><trkpt lat="33.422941" lon="8.0668634"><ele>32.0</ele><time>2026-04-18T10:14:48.363Z</time></trkpt><trkpt lat="33.4229403" lon="8.0667471"><ele>32.0</ele><time>2026-04-18T10:14:49.368Z</time></trkpt><trkpt lat="33.4229436" lon="8.0666363"><ele>32.0</ele><time>2026-04-18T10:14:50.371Z</time></trkpt><trkpt lat="33.4229473" lon="8.066513"><ele>32.4</ele><time>2026-04-18T10:14:51.356Z</time></trkpt><trkpt lat="33.4229497" lon="8.0663792"><ele>32.800000000000004</ele><time>2026-04-18T10:14:52.363Z</time></trkpt><trkpt lat="33.422955" lon="8.0662421"><ele>33.2</ele><time>2026-04-18T10:14:53.361Z</time></trkpt><trkpt lat="33.4229651" lon="8.0661102"><ele>33.6</ele><time>2026-04-18T10:14:54.36Z</time></trkpt><trkpt lat="33.4229801" lon="8.0659779"><ele>34.0</ele><time>2026-04-18T10:14:55.359Z</time></trkpt><trkpt lat="33.4229957" lon="8.0658449"><ele>33.8</ele><time>2026-04-18T10:14:56.364Z</time></trkpt><trkpt lat="33.4230105" lon="8.0657172"><ele>33.599999999999994</ele><time>2026-04-18T10:14:57.359Z</time></trkpt><trkpt lat="33.4230244" lon="8.0655992"><ele>33.4</ele><time>2026-04-18T10:14:58.36Z</time></trkpt><trkpt lat="33.4230317" lon="8.065491"><ele>33.199999999999996</ele><time>2026-04-18T10:14:59.362Z</time></trkpt><trkpt lat="33.4230364" lon="8.0653839"><ele>33.0</ele><time>2026-04-18T10:15:00.36Z</time></trkpt><trkpt lat="33.4230408" lon="8.0652724"><ele>33.0</ele><time>2026-04-18T10:15:01.361Z</time></trkpt><trkpt lat="33.4230502" lon="8.0651599"><ele>33.0</ele><time>2026-04-18T10:15:02.361Z</time></trkpt><trkpt lat="33.4230616" lon="8.0650548"><ele>33.0</ele><time>2026-04-18T10:15:03.359Z</time></trkpt><trkpt lat="33.4230744" lon="8.0649463"><ele>33.0</ele><time>2026-04-18T10:15:04.363Z</time></trkpt><trkpt lat="33.4230906" lon="8.0648331"><ele>33.0</ele><time>2026-04-18T10:15:05.374Z</time></trkpt><trkpt lat="33.4231133" lon="8.0647177"><ele>33.0</ele><time>2026-04-18T10:15:06.36Z</time></trkpt><trkpt lat="33.4231327" lon="8.0646029"><ele>33.0</ele><time>2026-04-18T10:15:07.364Z</time></trkpt><trkpt lat="33.4231501" lon="8.0644939"><ele>33.0</ele><time>2026-04-18T10:15:08.365Z</time></trkpt><trkpt lat="33.4231519" lon="8.0643931"><ele>33.0</ele><time>2026-04-18T10:15:09.36Z</time></trkpt><trkpt lat="33.423152" lon="8.0642975"><ele>33.0</ele><time>2026-04-18T10:15:10.364Z</time></trkpt><trkpt lat="33.4231546" lon="8.0641962"><ele>33.0</ele><time>2026-04-18T10:15:11.36Z</time></trkpt><trkpt lat="33.4231567" lon="8.0640802"><ele>32.8</ele><time>2026-04-18T10:15:12.362Z</time></trkpt><trkpt lat="33.4231602" lon="8.0639522"><ele>32.599999999999994</ele><time>2026-04-18T10:15:13.364Z</time></trkpt><trkpt lat="33.4231614" lon="8.0638191"><ele>32.400000000000006</ele><time>2026-04-18T10:15:14.36Z</time></trkpt><trkpt lat="33.4231608" lon="8.0636811"><ele>32.2</ele><time>2026-04-18T10:15:15.361Z</time></trkpt><trkpt lat="33.4231601" lon="8.0635459"><ele>32.0</ele><time>2026-04-18T10:15:16.364Z</time></trkpt><trkpt lat="33.423168" lon="8.0634185"><ele>32.0</ele><time>2026-04-18T10:15:17.358Z</time></trkpt><trkpt lat="33.4231872" lon="8.0632979"><ele>32.0</ele><time>2026-04-18T10:15:18.361Z</time></trkpt><trkpt lat="33.4232066" lon="8.0631729"><ele>32.0</ele><time>2026-04-18T10:15:19.359Z</time></trkpt><trkpt lat="33.4232254" lon="8.0630494"><ele>32.0</ele><time>2026-04-18T10:15:20.359Z</time></trkpt><trkpt lat="33.4232413" lon="8.062916"><ele>32.0</ele><time>2026-04-18T10:15:21.364Z</time></trkpt><trkpt lat="33.4232559" lon="8.0627836"><ele>32.4</ele><time>2026-04-18T10:15:22.358Z</time></trkpt><trkpt lat="33.4232656" lon="8.0626517"><ele>32.800000000000004</ele><time>2026-04-18T10:15:23.366Z</time></trkpt><trkpt lat="33.423269" lon="8.0625219"><ele>33.2</ele><time>2026-04-18T10:15:24.358Z</time></trkpt><trkpt lat="33.4232728" lon="8.0623876"><ele>33.6</ele><time>2026-04-18T10:15:25.366Z</time></trkpt><trkpt lat="33.4232824" lon="8.0622523"><ele>34.0</ele><time>2026-04-18T10:15:26.363Z</time></trkpt><trkpt lat="33.4232923" lon="8.06212"><ele>34.2</ele><time>2026-04-18T10:15:27.363Z</time></trkpt><trkpt lat="33.4233005" lon="8.0619947"><ele>34.4</ele><time>2026-04-18T10:15:28.366Z</time></trkpt><trkpt lat="33.4233109" lon="8.0618752"><ele>34.6</ele><time>2026-04-18T10:15:29.362Z</time></trkpt><trkpt lat="33.4233202" lon="8.061765"><ele>34.8</ele><time>2026-04-18T10:15:30.363Z</time></trkpt><trkpt lat="33.423329" lon="8.0616543"><ele>35.0</ele><time>2026-04-18T10:15:31.372Z</time></trkpt><trkpt lat="33.4233445" lon="8.0615471"><ele>35.0</ele><time>2026-04-18T10:15:32.358Z</time></trkpt><trkpt lat="33.4233591" lon="8.0614394"><ele>35.0</ele><time>2026-04-18T10:15:33.363Z</time></trkpt><trkpt lat="33.4233648" lon="8.0613215"><ele>35.0</ele><time>2026-04-18T10:15:34.362Z</time></trkpt><trkpt lat="33.4233701" lon="8.0611926"><ele>35.0</ele><time>2026-04-18T10:15:35.362Z</time></trkpt><trkpt lat="33.4233778" lon="8.0610602"><ele>35.0</ele><time>2026-04-18T10:15:36.358Z</time></trkpt><trkpt lat="33.4233835" lon="8.0609195"><ele>35.6</ele><time>2026-04-18T10:15:37.358Z</time></trkpt><trkpt lat="33.4233871" lon="8.0607773"><ele>36.2</ele><time>2026-04-18T10:15:38.368Z</time></trkpt><trkpt lat="33.4233909" lon="8.0606365"><ele>36.8</ele><time>2026-04-18T10:15:39.359Z</time></trkpt><trkpt lat="33.4233971" lon="8.0605092"><ele>37.4</ele><time>2026-04-18T10:15:40.365Z</time></trkpt><trkpt lat="33.4234054" lon="8.0603919"><ele>38.0</ele><time>2026-04-18T10:15:41.367Z</time></trkpt><trkpt lat="33.4234168" lon="8.0602774"><ele>38.0</ele><time>2026-04-18T10:15:42.359Z</time></trkpt><trkpt lat="33.4234272" lon="8.0601664"><ele>38.0</ele><time>2026-04-18T10:15:43.367Z</time></trkpt><trkpt lat="33.4234384" lon="8.0600574"><ele>38.0</ele><time>2026-04-18T10:15:44.36Z</time></trkpt><trkpt lat="33.4234517" lon="8.0599443"><ele>38.0</ele><time>2026-04-18T10:15:45.367Z</time></trkpt><trkpt lat="33.4234615" lon="8.0598176"><ele>38.0</ele><time>2026-04-18T10:15:46.365Z</time></trkpt><trkpt lat="33.4234728" lon="8.059686"><ele>37.4</ele><time>2026-04-18T10:15:47.363Z</time></trkpt><trkpt lat="33.423484" lon="8.0595562"><ele>36.8</ele><time>2026-04-18T10:15:48.365Z</time></trkpt><trkpt lat="33.4234907" lon="8.059423"><ele>36.2</ele><time>2026-04-18T10:15:49.368Z</time></trkpt><trkpt lat="33.4234923" lon="8.0593019"><ele>35.6</ele><time>2026-04-18T10:15:50.366Z</time></trkpt><trkpt lat="33.4235011" lon="8.0591899"><ele>35.0</ele><time>2026-04-18T10:15:51.366Z</time></trkpt><trkpt lat="33.423514" lon="8.0590808"><ele>34.8</ele><time>2026-04-18T10:15:52.36Z</time></trkpt><trkpt lat="33.423532" lon="8.0589767"><ele>34.6</ele><time>2026-04-18T10:15:53.361Z</time></trkpt><trkpt lat="33.4235437" lon="8.0588734"><ele>34.4</ele><time>2026-04-18T10:15:54.358Z</time></trkpt><trkpt lat="33.4235434" lon="8.0587637"><ele>34.2</ele><time>2026-04-18T10:15:55.363Z</time></trkpt><trkpt lat="33.4235387" lon="8.0586477"><ele>34.0</ele><time>2026-04-18T10:15:56.363Z</time></trkpt><trkpt lat="33.4235327" lon="8.0585269"><ele>34.0</ele><time>2026-04-18T10:15:57.36Z</time></trkpt><trkpt lat="33.4235272" lon="8.058404"><ele>34.0</ele><time>2026-04-18T10:15:58.359Z</time></trkpt><trkpt lat="33.4235354" lon="8.0582796"><ele>34.0</ele><time>2026-04-18T10:15:59.355Z</time></trkpt><trkpt lat="33.423544" lon="8.0581527"><ele>34.0</ele><time>2026-04-18T10:16:00.362Z</time></trkpt><trkpt lat="33.4235623" lon="8.0580195"><ele>34.0</ele><time>2026-04-18T10:16:01.354Z</time></trkpt><trkpt lat="33.4235743" lon="8.0578814"><ele>34.0</ele><time>2026-04-18T10:16:02.363Z</time></trkpt><trkpt lat="33.423585" lon="8.0577441"><ele>34.0</ele><time>2026-04-18T10:16:03.365Z</time></trkpt><trkpt lat="33.4236019" lon="8.0576161"><ele>34.0</ele><time>2026-04-18T10:16:04.363Z</time></trkpt><trkpt lat="33.4236209" lon="8.0574974"><ele>34.0</ele><time>2026-04-18T10:16:05.36Z</time></trkpt><trkpt lat="33.4236326" lon="8.0573764"><ele>34.0</ele><time>2026-04-18T10:16:06.363Z</time></trkpt><trkpt lat="33.4236397" lon="8.0572506"><ele>34.0</ele><time>2026-04-18T10:16:07.361Z</time></trkpt><trkpt lat="33.4236458" lon="8.0571256"><ele>34.0</ele><time>2026-04-18T10:16:08.361Z</time></trkpt><trkpt lat="33.4236448" lon="8.0570015"><ele>34.0</ele><time>2026-04-18T10:16:09.362Z</time></trkpt><trkpt lat="33.4236383" lon="8.0568831"><ele>34.0</ele><time>2026-04-18T10:16:10.361Z</time></trkpt><trkpt lat="33.4236378" lon="8.0567633"><ele>34.0</ele><time>2026-04-18T10:16:11.356Z</time></trkpt><trkpt lat="33.4236416" lon="8.0566404"><ele>33.4</ele><time>2026-04-18T10:16:12.361Z</time></trkpt><trkpt lat="33.4236437" lon="8.0565134"><ele>32.8</ele><time>2026-04-18T10:16:13.355Z</time></trkpt><trkpt lat="33.4236495" lon="8.056382"><ele>32.2</ele><time>2026-04-18T10:16:14.366Z</time></trkpt><trkpt lat="33.4236598" lon="8.0562474"><ele>31.6</ele><time>2026-04-18T10:16:15.359Z</time></trkpt><trkpt lat="33.4236703" lon="8.0561131"><ele>31.0</ele><time>2026-04-18T10:16:16.362Z</time></trkpt><trkpt lat="33.4236802" lon="8.0559783"><ele>31.0</ele><time>2026-04-18T10:16:17.357Z</time></trkpt><trkpt lat="33.4236903" lon="8.0558439"><ele>31.0</ele><time>2026-04-18T10:16:18.361Z</time></trkpt><trkpt lat="33.4237031" lon="8.0557061"><ele>31.0</ele><time>2026-04-18T10:16:19.36Z</time></trkpt><trkpt lat="33.4237229" lon="8.0555684"><ele>31.0</ele><time>2026-04-18T10:16:20.361Z</time></trkpt><trkpt lat="33.4237445" lon="8.0554296"><ele>31.25</ele><time>2026-04-18T10:16:21.361Z</time></trkpt><trkpt lat="33.4237599" lon="8.0552891"><ele>31.5</ele><time>2026-04-18T10:16:22.366Z</time></trkpt><trkpt lat="33.4237681" lon="8.0551528"><ele>31.75</ele><time>2026-04-18T10:16:23.355Z</time></trkpt><trkpt lat="33.4237813" lon="8.055016"><ele>32.0</ele><time>2026-04-18T10:16:24.355Z</time></trkpt><trkpt lat="33.4238004" lon="8.0548773"><ele>33.0</ele><time>2026-04-18T10:16:25.359Z</time></trkpt><trkpt lat="33.4238185" lon="8.0547389"><ele>34.0</ele><time>2026-04-18T10:16:26.362Z</time></trkpt><trkpt lat="33.4238313" lon="8.0545981"><ele>35.0</ele><time>2026-04-18T10:16:27.362Z</time></trkpt><trkpt lat="33.4238367" lon="8.0544602"><ele>36.0</ele><time>2026-04-18T10:16:28.36Z</time></trkpt><trkpt lat="33.4238331" lon="8.0543224"><ele>36.0</ele><time>2026-04-18T10:16:29.364Z</time></trkpt><trkpt lat="33.4238353" lon="8.0541919"><ele>36.0</ele><time>2026-04-18T10:16:30.365Z</time></trkpt><trkpt lat="33.4238416" lon="8.0540691"><ele>36.0</ele><time>2026-04-18T10:16:31.357Z</time></trkpt><trkpt lat="33.4238552" lon="8.0539485"><ele>36.0</ele><time>2026-04-18T10:16:32.36Z</time></trkpt><trkpt lat="33.4238787" lon="8.0538281"><ele>36.0</ele><time>2026-04-18T10:16:33.361Z</time></trkpt><trkpt lat="33.4239005" lon="8.0536995"><ele>35.4</ele><time>2026-04-18T10:16:34.359Z</time></trkpt><trkpt lat="33.4239099" lon="8.0535675"><ele>34.8</ele><time>2026-04-18T10:16:35.368Z</time></trkpt><trkpt lat="33.4239136" lon="8.0534358"><ele>34.199999999999996</ele><time>2026-04-18T10:16:36.365Z</time></trkpt><trkpt lat="33.4239125" lon="8.0533078"><ele>33.6</ele><time>2026-04-18T10:16:37.364Z</time></trkpt><trkpt lat="33.4239121" lon="8.0531837"><ele>33.0</ele><time>2026-04-18T10:16:38.371Z</time></trkpt><trkpt lat="33.4239227" lon="8.0530618"><ele>33.0</ele><time>2026-04-18T10:16:39.374Z</time></trkpt><trkpt lat="33.4239432" lon="8.0529418"><ele>33.0</ele><time>2026-04-18T10:16:40.367Z</time></trkpt><trkpt lat="33.4239605" lon="8.0528185"><ele>33.0</ele><time>2026-04-18T10:16:41.363Z</time></trkpt><trkpt lat="33.4239669" lon="8.0526856"><ele>33.0</ele><time>2026-04-18T10:16:42.362Z</time></trkpt><trkpt lat="33.423967" lon="8.052541"><ele>33.0</ele><time>2026-04-18T10:16:43.363Z</time></trkpt><trkpt lat="33.4239676" lon="8.0523964"><ele>32.25</ele><time>2026-04-18T10:16:44.361Z</time></trkpt><trkpt lat="33.4239805" lon="8.0522506"><ele>31.5</ele><time>2026-04-18T10:16:45.359Z</time></trkpt><trkpt lat="33.4239945" lon="8.0521105"><ele>30.75</ele><time>2026-04-18T10:16:46.362Z</time></trkpt><trkpt lat="33.4240143" lon="8.0519787"><ele>30.0</ele><time>2026-04-18T10:16:47.368Z</time></trkpt><trkpt lat="33.4240335" lon="8.0518476"><ele>30.0</ele><time>2026-04-18T10:16:48.368Z</time></trkpt><trkpt lat="33.4240439" lon="8.0517041"><ele>30.0</ele><time>2026-04-18T10:16:49.359Z</time></trkpt><trkpt lat="33.4240519" lon="8.0515604"><ele>30.0</ele><time>2026-04-18T10:16:50.362Z</time></trkpt><trkpt lat="33.4240611" lon="8.0514134"><ele>30.0</ele><time>2026-04-18T10:16:51.363Z</time></trkpt><trkpt lat="33.4240685" lon="8.0512678"><ele>30.5</ele><time>2026-04-18T10:16:52.36Z</time></trkpt><trkpt lat="33.4240787" lon="8.0511203"><ele>31.0</ele><time>2026-04-18T10:16:53.363Z</time></trkpt><trkpt lat="33.4240896" lon="8.0509755"><ele>31.5</ele><time>2026-04-18T10:16:54.362Z</time></trkpt><trkpt lat="33.424099" lon="8.0508317"><ele>32.0</ele><time>2026-04-18T10:16:55.362Z</time></trkpt><trkpt lat="33.4241096" lon="8.0506931"><ele>32.0</ele><time>2026-04-18T10:16:56.359Z</time></trkpt><trkpt lat="33.4241258" lon="8.0505607"><ele>32.0</ele><time>2026-04-18T10:16:57.362Z</time></trkpt><trkpt lat="33.4241397" lon="8.0504324"><ele>32.0</ele><time>2026-04-18T10:16:58.359Z</time></trkpt><trkpt lat="33.4241493" lon="8.0503037"><ele>32.0</ele><time>2026-04-18T10:16:59.363Z</time></trkpt><trkpt lat="33.4241573" lon="8.0501744"><ele>32.0</ele><time>2026-04-18T10:17:00.363Z</time></trkpt><trkpt lat="33.4241669" lon="8.0500412"><ele>31.75</ele><time>2026-04-18T10:17:01.367Z</time></trkpt><trkpt lat="33.4241773" lon="8.0499"><ele>31.5</ele><time>2026-04-18T10:17:02.366Z</time></trkpt><trkpt lat="33.4241879" lon="8.0497515"><ele>31.25</ele><time>2026-04-18T10:17:03.363Z</time></trkpt><trkpt lat="33.4241967" lon="8.0496013"><ele>31.0</ele><time>2026-04-18T10:17:04.36Z</time></trkpt><trkpt lat="33.4242054" lon="8.049445"><ele>31.0</ele><time>2026-04-18T10:17:05.366Z</time></trkpt><trkpt lat="33.4242158" lon="8.0492881"><ele>31.0</ele><time>2026-04-18T10:17:06.36Z</time></trkpt><trkpt lat="33.4242316" lon="8.0491352"><ele>31.0</ele><time>2026-04-18T10:17:07.358Z</time></trkpt><trkpt lat="33.4242454" lon="8.0489892"><ele>31.0</ele><time>2026-04-18T10:17:08.355Z</time></trkpt><trkpt lat="33.4242456" lon="8.0488431"><ele>31.5</ele><time>2026-04-18T10:17:09.361Z</time></trkpt><trkpt lat="33.4242457" lon="8.0486955"><ele>32.0</ele><time>2026-04-18T10:17:10.358Z</time></trkpt><trkpt lat="33.4242527" lon="8.0485446"><ele>32.5</ele><time>2026-04-18T10:17:11.368Z</time></trkpt><trkpt lat="33.4242615" lon="8.0483931"><ele>33.0</ele><time>2026-04-18T10:17:12.359Z</time></trkpt><trkpt lat="33.4242819" lon="8.0482441"><ele>33.0</ele><time>2026-04-18T10:17:13.359Z</time></trkpt><trkpt lat="33.4242896" lon="8.0480901"><ele>33.0</ele><time>2026-04-18T10:17:14.361Z</time></trkpt><trkpt lat="33.4242991" lon="8.047936"><ele>33.0</ele><time>2026-04-18T10:17:15.36Z</time></trkpt><trkpt lat="33.4243161" lon="8.0477816"><ele>33.0</ele><time>2026-04-18T10:17:16.357Z</time></trkpt><trkpt lat="33.424329" lon="8.0476321"><ele>33.0</ele><time>2026-04-18T10:17:17.363Z</time></trkpt><trkpt lat="33.4243398" lon="8.047499"><ele>33.0</ele><time>2026-04-18T10:17:18.356Z</time></trkpt><trkpt lat="33.4243508" lon="8.0473765"><ele>33.0</ele><time>2026-04-18T10:17:19.364Z</time></trkpt><trkpt lat="33.4243584" lon="8.0472649"><ele>33.0</ele><time>2026-04-18T10:17:20.368Z</time></trkpt><trkpt lat="33.4243591" lon="8.0471542"><ele>33.0</ele><time>2026-04-18T10:17:21.37Z</time></trkpt><trkpt lat="33.424354" lon="8.047036"><ele>33.4</ele><time>2026-04-18T10:17:22.363Z</time></trkpt><trkpt lat="33.4243546" lon="8.0469228"><ele>33.8</ele><time>2026-04-18T10:17:23.367Z</time></trkpt><trkpt lat="33.4243603" lon="8.0468052"><ele>34.2</ele><time>2026-04-18T10:17:24.36Z</time></trkpt><trkpt lat="33.4243696" lon="8.0466842"><ele>34.6</ele><time>2026-04-18T10:17:25.364Z</time></trkpt><trkpt lat="33.4243803" lon="8.0465666"><ele>35.0</ele><time>2026-04-18T10:17:26.364Z</time></trkpt><trkpt lat="33.4243926" lon="8.0464504"><ele>35.0</ele><time>2026-04-18T10:17:27.359Z</time></trkpt><trkpt lat="33.4244053" lon="8.0463378"><ele>35.0</ele><time>2026-04-18T10:17:28.364Z</time></trkpt><trkpt lat="33.4244176" lon="8.0462288"><ele>35.0</ele><time>2026-04-18T10:17:29.364Z</time></trkpt><trkpt lat="33.4244286" lon="8.0461227"><ele>35.0</ele><time>2026-04-18T10:17:30.362Z</time></trkpt><trkpt lat="33.4244378" lon="8.0460172"><ele>35.0</ele><time>2026-04-18T10:17:31.371Z</time></trkpt><trkpt lat="33.424448" lon="8.0459141"><ele>35.0</ele><time>2026-04-18T10:17:32.358Z</time></trkpt><trkpt lat="33.4244574" lon="8.0458075"><ele>35.0</ele><time>2026-04-18T10:17:33.364Z</time></trkpt><trkpt lat="33.4244622" lon="8.0456983"><ele>35.0</ele><time>2026-04-18T10:17:34.365Z</time></trkpt><trkpt lat="33.4244671" lon="8.0455872"><ele>35.0</ele><time>2026-04-18T10:17:35.369Z</time></trkpt><trkpt lat="33.4244723" lon="8.0454658"><ele>35.0</ele><time>2026-04-18T10:17:36.362Z</time></trkpt><trkpt lat="33.4244788" lon="8.0453285"><ele>34.83333333333333</ele><time>2026-04-18T10:17:37.364Z</time></trkpt><trkpt lat="33.4244892" lon="8.0452005"><ele>34.666666666666664</ele><time>2026-04-18T10:17:38.366Z</time></trkpt><trkpt lat="33.4244982" lon="8.0450797"><ele>34.5</ele><time>2026-04-18T10:17:39.365Z</time></trkpt><trkpt lat="33.4245075" lon="8.0449723"><ele>34.333333333333336</ele><time>2026-04-18T10:17:40.36Z</time></trkpt><trkpt lat="33.4245166" lon="8.0448843"><ele>34.16666666666667</ele><time>2026-04-18T10:17:41.367Z</time></trkpt><trkpt lat="33.4245252" lon="8.0448071"><ele>34.0</ele><time>2026-04-18T10:17:42.363Z</time></trkpt><trkpt lat="33.424535" lon="8.044668"><ele>34.0</ele><time>2026-04-18T10:17:44.363Z</time></trkpt><trkpt lat="33.4245381" lon="8.0445571"><ele>34.0</ele><time>2026-04-18T10:17:46.365Z</time></trkpt><trkpt lat="33.4245491" lon="8.0444486"><ele>34.0</ele><time>2026-04-18T10:17:59.367Z</time></trkpt><trkpt lat="33.4245633" lon="8.0442957"><ele>34.0</ele><time>2026-04-18T10:18:01.369Z</time></trkpt><trkpt lat="33.4245716" lon="8.0442176"><ele>34.0</ele><time>2026-04-18T10:18:02.359Z</time></trkpt><trkpt lat="33.4245786" lon="8.0441398"><ele>34.0</ele><time>2026-04-18T10:18:03.359Z</time></trkpt><trkpt lat="33.4245858" lon="8.0440646"><ele>33.66666666666667</ele><time>2026-04-18T10:18:04.358Z</time></trkpt><trkpt lat="33.4245977" lon="8.0439302"><ele>33.333333333333336</ele><time>2026-04-18T10:18:06.361Z</time></trkpt><trkpt lat="33.4246024" lon="8.0437904"><ele>33.0</ele><time>2026-04-18T10:18:08.358Z</time></trkpt><trkpt lat="33.424603" lon="8.0437092"><ele>32.666666666666664</ele><time>2026-04-18T10:18:09.36Z</time></trkpt><trkpt lat="33.4246054" lon="8.0436254"><ele>32.33333333333333</ele><time>2026-04-18T10:18:10.373Z</time></trkpt><trkpt lat="33.4246079" lon="8.0435375"><ele>32.0</ele><time>2026-04-18T10:18:11.357Z</time></trkpt><trkpt lat="33.4246171" lon="8.0434341"><ele>32.0</ele><time>2026-04-18T10:18:12.369Z</time></trkpt><trkpt lat="33.4246264" lon="8.0433229"><ele>32.0</ele><time>2026-04-18T10:18:13.363Z</time></trkpt><trkpt lat="33.4246328" lon="8.0432029"><ele>32.0</ele><time>2026-04-18T10:18:14.365Z</time></trkpt><trkpt lat="33.4246468" lon="8.0430817"><ele>32.0</ele><time>2026-04-18T10:18:15.369Z</time></trkpt><trkpt lat="33.4246587" lon="8.0429541"><ele>32.0</ele><time>2026-04-18T10:18:16.367Z</time></trkpt><trkpt lat="33.4246694" lon="8.0428182"><ele>32.5</ele><time>2026-04-18T10:18:17.366Z</time></trkpt><trkpt lat="33.4246839" lon="8.0426798"><ele>33.0</ele><time>2026-04-18T10:18:18.364Z</time></trkpt><trkpt lat="33.4246931" lon="8.0425357"><ele>33.5</ele><time>2026-04-18T10:18:19.365Z</time></trkpt><trkpt lat="33.4247026" lon="8.0423849"><ele>34.0</ele><time>2026-04-18T10:18:20.362Z</time></trkpt><trkpt lat="33.4247141" lon="8.0422334"><ele>34.0</ele><time>2026-04-18T10:18:21.359Z</time></trkpt><trkpt lat="33.4247253" lon="8.0420833"><ele>34.0</ele><time>2026-04-18T10:18:22.359Z</time></trkpt><trkpt lat="33.4247376" lon="8.0419352"><ele>34.0</ele><time>2026-04-18T10:18:23.364Z</time></trkpt><trkpt lat="33.4247531" lon="8.0417978"><ele>34.0</ele><time>2026-04-18T10:18:24.364Z</time></trkpt><trkpt lat="33.4247655" lon="8.0416659"><ele>35.0</ele><time>2026-04-18T10:18:25.361Z</time></trkpt><trkpt lat="33.4247751" lon="8.0415413"><ele>36.0</ele><time>2026-04-18T10:18:26.362Z</time></trkpt><trkpt lat="33.424782" lon="8.0414142"><ele>37.0</ele><time>2026-04-18T10:18:27.362Z</time></trkpt><trkpt lat="33.4247849" lon="8.0412868"><ele>38.0</ele><time>2026-04-18T10:18:28.363Z</time></trkpt><trkpt lat="33.4247874" lon="8.0411625"><ele>39.0</ele><time>2026-04-18T10:18:29.367Z</time></trkpt><trkpt lat="33.4247922" lon="8.0410365"><ele>39.0</ele><time>2026-04-18T10:18:30.361Z</time></trkpt><trkpt lat="33.4248013" lon="8.0409159"><ele>39.0</ele><time>2026-04-18T10:18:31.364Z</time></trkpt><trkpt lat="33.4248179" lon="8.0407955"><ele>39.0</ele><time>2026-04-18T10:18:32.363Z</time></trkpt><trkpt lat="33.4248287" lon="8.0406781"><ele>39.0</ele><time>2026-04-18T10:18:33.364Z</time></trkpt><trkpt lat="33.4248349" lon="8.0405593"><ele>39.0</ele><time>2026-04-18T10:18:34.362Z</time></trkpt><trkpt lat="33.4248407" lon="8.0404444"><ele>38.4</ele><time>2026-04-18T10:18:35.364Z</time></trkpt><trkpt lat="33.4248452" lon="8.0403304"><ele>37.8</ele><time>2026-04-18T10:18:36.355Z</time></trkpt><trkpt lat="33.4248515" lon="8.0402139"><ele>37.2</ele><time>2026-04-18T10:18:37.36Z</time></trkpt><trkpt lat="33.4248632" lon="8.0400934"><ele>36.6</ele><time>2026-04-18T10:18:38.364Z</time></trkpt><trkpt lat="33.4248765" lon="8.0399674"><ele>36.0</ele><time>2026-04-18T10:18:39.363Z</time></trkpt><trkpt lat="33.4248883" lon="8.0398333"><ele>35.25</ele><time>2026-04-18T10:18:40.366Z</time></trkpt><trkpt lat="33.4249015" lon="8.0396951"><ele>34.5</ele><time>2026-04-18T10:18:41.362Z</time></trkpt><trkpt lat="33.4249145" lon="8.0395611"><ele>33.75</ele><time>2026-04-18T10:18:42.363Z</time></trkpt><trkpt lat="33.4249226" lon="8.0394288"><ele>33.0</ele><time>2026-04-18T10:18:43.36Z</time></trkpt><trkpt lat="33.4249284" lon="8.0392928"><ele>33.0</ele><time>2026-04-18T10:18:44.359Z</time></trkpt><trkpt lat="33.4249349" lon="8.0391569"><ele>33.0</ele><time>2026-04-18T10:18:45.363Z</time></trkpt><trkpt lat="33.4249377" lon="8.0390224"><ele>33.0</ele><time>2026-04-18T10:18:46.357Z</time></trkpt><trkpt lat="33.4249428" lon="8.0388817"><ele>33.0</ele><time>2026-04-18T10:18:47.361Z</time></trkpt><trkpt lat="33.4249546" lon="8.0387409"><ele>33.4</ele><time>2026-04-18T10:18:48.358Z</time></trkpt><trkpt lat="33.4249664" lon="8.0386001"><ele>33.8</ele><time>2026-04-18T10:18:49.358Z</time></trkpt><trkpt lat="33.4249812" lon="8.0384606"><ele>34.2</ele><time>2026-04-18T10:18:50.371Z</time></trkpt><trkpt lat="33.4249904" lon="8.0383325"><ele>34.6</ele><time>2026-04-18T10:18:51.366Z</time></trkpt><trkpt lat="33.4249995" lon="8.0382054"><ele>35.0</ele><time>2026-04-18T10:18:52.37Z</time></trkpt><trkpt lat="33.4250067" lon="8.0380752"><ele>35.0</ele><time>2026-04-18T10:18:53.361Z</time></trkpt><trkpt lat="33.4250142" lon="8.0379449"><ele>35.0</ele><time>2026-04-18T10:18:54.359Z</time></trkpt><trkpt lat="33.4250219" lon="8.0378133"><ele>35.0</ele><time>2026-04-18T10:18:55.359Z</time></trkpt><trkpt lat="33.4250273" lon="8.0376761"><ele>35.0</ele><time>2026-04-18T10:18:56.364Z</time></trkpt><trkpt lat="33.4250385" lon="8.0375372"><ele>34.6</ele><time>2026-04-18T10:18:57.356Z</time></trkpt><trkpt lat="33.425049" lon="8.0374096"><ele>34.2</ele><time>2026-04-18T10:18:58.367Z</time></trkpt><trkpt lat="33.4250563" lon="8.0372895"><ele>33.8</ele><time>2026-04-18T10:18:59.363Z</time></trkpt><trkpt lat="33.4250592" lon="8.0371819"><ele>33.4</ele><time>2026-04-18T10:19:00.362Z</time></trkpt><trkpt lat="33.4250619" lon="8.0370812"><ele>33.0</ele><time>2026-04-18T10:19:01.372Z</time></trkpt><trkpt lat="33.425068" lon="8.0369927"><ele>33.0</ele><time>2026-04-18T10:19:02.367Z</time></trkpt><trkpt lat="33.425074" lon="8.0369166"><ele>33.0</ele><time>2026-04-18T10:19:03.363Z</time></trkpt><trkpt lat="33.4250851" lon="8.036789"><ele>33.0</ele><time>2026-04-18T10:19:05.358Z</time></trkpt><trkpt lat="33.4250916" lon="8.0366952"><ele>33.0</ele><time>2026-04-18T10:19:07.358Z</time></trkpt><trkpt lat="33.4250808" lon="8.0366145"><ele>33.0</ele><time>2026-04-18T10:19:31.367Z</time></trkpt><trkpt lat="33.4250054" lon="8.0366873"><ele>33.0</ele><time>2026-04-18T10:19:34.362Z</time></trkpt><trkpt lat="33.42499" lon="8.0367628"><ele>33.0</ele><time>2026-04-18T10:19:35.356Z</time></trkpt><trkpt lat="33.4249913" lon="8.0368609"><ele>33.0</ele><time>2026-04-18T10:19:36.357Z</time></trkpt><trkpt lat="33.4249944" lon="8.0369833"><ele>33.0</ele><time>2026-04-18T10:19:37.36Z</time></trkpt><trkpt lat="33.4250222" lon="8.0371324"><ele>33.0</ele><time>2026-04-18T10:19:38.362Z</time></trkpt><trkpt lat="33.4250434" lon="8.0372894"><ele>33.0</ele><time>2026-04-18T10:19:39.359Z</time></trkpt><trkpt lat="33.4250607" lon="8.0374174"><ele>33.5</ele><time>2026-04-18T10:19:40.361Z</time></trkpt><trkpt lat="33.4250658" lon="8.0375423"><ele>34.0</ele><time>2026-04-18T10:19:41.361Z</time></trkpt><trkpt lat="33.425053" lon="8.0376919"><ele>34.5</ele><time>2026-04-18T10:19:42.361Z</time></trkpt><trkpt lat="33.4250367" lon="8.0378361"><ele>35.0</ele><time>2026-04-18T10:19:43.359Z</time></trkpt><trkpt lat="33.4250259" lon="8.0379601"><ele>35.0</ele><time>2026-04-18T10:19:44.367Z</time></trkpt><trkpt lat="33.4250145" lon="8.0380817"><ele>35.0</ele><time>2026-04-18T10:19:45.361Z</time></trkpt><trkpt lat="33.4250079" lon="8.0381936"><ele>35.0</ele><time>2026-04-18T10:19:46.362Z</time></trkpt><trkpt lat="33.4250081" lon="8.0382882"><ele>35.0</ele><time>2026-04-18T10:19:47.361Z</time></trkpt><trkpt lat="33.4250047" lon="8.0384374"><ele>35.0</ele><time>2026-04-18T10:19:49.358Z</time></trkpt><trkpt lat="33.4249985" lon="8.0385281"><ele>35.4</ele><time>2026-04-18T10:19:50.362Z</time></trkpt><trkpt lat="33.4249866" lon="8.0386264"><ele>35.8</ele><time>2026-04-18T10:19:51.358Z</time></trkpt><trkpt lat="33.4249746" lon="8.038735"><ele>36.2</ele><time>2026-04-18T10:19:52.361Z</time></trkpt><trkpt lat="33.4249645" lon="8.0388519"><ele>36.6</ele><time>2026-04-18T10:19:53.36Z</time></trkpt><trkpt lat="33.4249569" lon="8.0389693"><ele>37.0</ele><time>2026-04-18T10:19:54.364Z</time></trkpt><trkpt lat="33.4249554" lon="8.0390878"><ele>36.2</ele><time>2026-04-18T10:19:55.369Z</time></trkpt><trkpt lat="33.4249493" lon="8.0392072"><ele>35.400000000000006</ele><time>2026-04-18T10:19:56.365Z</time></trkpt><trkpt lat="33.424941" lon="8.0393214"><ele>34.599999999999994</ele><time>2026-04-18T10:19:57.364Z</time></trkpt><trkpt lat="33.4249341" lon="8.0394352"><ele>33.8</ele><time>2026-04-18T10:19:58.363Z</time></trkpt><trkpt lat="33.4249268" lon="8.0395521"><ele>33.0</ele><time>2026-04-18T10:19:59.355Z</time></trkpt><trkpt lat="33.4249167" lon="8.0396566"><ele>33.0</ele><time>2026-04-18T10:20:00.361Z</time></trkpt><trkpt lat="33.4249033" lon="8.0397687"><ele>33.0</ele><time>2026-04-18T10:20:01.369Z</time></trkpt><trkpt lat="33.4248865" lon="8.0398791"><ele>33.0</ele><time>2026-04-18T10:20:02.36Z</time></trkpt><trkpt lat="33.4248745" lon="8.0399914"><ele>33.0</ele><time>2026-04-18T10:20:03.365Z</time></trkpt><trkpt lat="33.4248643" lon="8.040099"><ele>33.0</ele><time>2026-04-18T10:20:04.357Z</time></trkpt><trkpt lat="33.424853" lon="8.0402141"><ele>33.6</ele><time>2026-04-18T10:20:05.36Z</time></trkpt><trkpt lat="33.4248426" lon="8.0403359"><ele>34.199999999999996</ele><time>2026-04-18T10:20:06.36Z</time></trkpt><trkpt lat="33.4248363" lon="8.0404621"><ele>34.8</ele><time>2026-04-18T10:20:07.366Z</time></trkpt><trkpt lat="33.4248309" lon="8.0405895"><ele>35.4</ele><time>2026-04-18T10:20:08.359Z</time></trkpt><trkpt lat="33.4248239" lon="8.0407201"><ele>36.0</ele><time>2026-04-18T10:20:09.361Z</time></trkpt><trkpt lat="33.424817" lon="8.0408456"><ele>36.5</ele><time>2026-04-18T10:20:10.364Z</time></trkpt><trkpt lat="33.4248107" lon="8.0409522"><ele>37.0</ele><time>2026-04-18T10:20:11.362Z</time></trkpt><trkpt lat="33.4248064" lon="8.0410466"><ele>37.5</ele><time>2026-04-18T10:20:12.361Z</time></trkpt><trkpt lat="33.4248005" lon="8.0411326"><ele>38.0</ele><time>2026-04-18T10:20:13.366Z</time></trkpt><trkpt lat="33.4247918" lon="8.0412229"><ele>38.5</ele><time>2026-04-18T10:20:14.359Z</time></trkpt><trkpt lat="33.4247817" lon="8.0413253"><ele>39.0</ele><time>2026-04-18T10:20:15.355Z</time></trkpt><trkpt lat="33.4247736" lon="8.0414387"><ele>39.0</ele><time>2026-04-18T10:20:16.363Z</time></trkpt><trkpt lat="33.4247646" lon="8.0415585"><ele>39.0</ele><time>2026-04-18T10:20:17.359Z</time></trkpt><trkpt lat="33.4247548" lon="8.0416873"><ele>39.0</ele><time>2026-04-18T10:20:18.364Z</time></trkpt><trkpt lat="33.4247428" lon="8.0418109"><ele>39.0</ele><time>2026-04-18T10:20:19.365Z</time></trkpt><trkpt lat="33.4247299" lon="8.041931"><ele>39.0</ele><time>2026-04-18T10:20:20.364Z</time></trkpt><trkpt lat="33.424721" lon="8.0420505"><ele>38.0</ele><time>2026-04-18T10:20:21.365Z</time></trkpt><trkpt lat="33.4247146" lon="8.0421716"><ele>37.0</ele><time>2026-04-18T10:20:22.366Z</time></trkpt><trkpt lat="33.4247051" lon="8.0422963"><ele>36.0</ele><time>2026-04-18T10:20:23.359Z</time></trkpt><trkpt lat="33.4246988" lon="8.0424152"><ele>35.0</ele><time>2026-04-18T10:20:24.371Z</time></trkpt><trkpt lat="33.4246928" lon="8.0425376"><ele>34.0</ele><time>2026-04-18T10:20:25.363Z</time></trkpt><trkpt lat="33.4246834" lon="8.0426633"><ele>34.0</ele><time>2026-04-18T10:20:26.365Z</time></trkpt><trkpt lat="33.4246741" lon="8.0427773"><ele>34.0</ele><time>2026-04-18T10:20:27.361Z</time></trkpt><trkpt lat="33.4246617" lon="8.0428785"><ele>34.0</ele><time>2026-04-18T10:20:28.36Z</time></trkpt><trkpt lat="33.4246467" lon="8.0429788"><ele>34.0</ele><time>2026-04-18T10:20:29.375Z</time></trkpt><trkpt lat="33.4246315" lon="8.0430776"><ele>34.0</ele><time>2026-04-18T10:20:30.364Z</time></trkpt><trkpt lat="33.4246229" lon="8.0431813"><ele>34.0</ele><time>2026-04-18T10:20:31.359Z</time></trkpt><trkpt lat="33.4246202" lon="8.0432906"><ele>33.66666666666667</ele><time>2026-04-18T10:20:32.361Z</time></trkpt><trkpt lat="33.4246163" lon="8.0433965"><ele>33.333333333333336</ele><time>2026-04-18T10:20:33.359Z</time></trkpt><trkpt lat="33.4246109" lon="8.0434985"><ele>33.0</ele><time>2026-04-18T10:20:34.362Z</time></trkpt><trkpt lat="33.4246046" lon="8.0436027"><ele>32.666666666666664</ele><time>2026-04-18T10:20:35.365Z</time></trkpt><trkpt lat="33.4245999" lon="8.043705"><ele>32.33333333333333</ele><time>2026-04-18T10:20:36.367Z</time></trkpt><trkpt lat="33.4245995" lon="8.0438004"><ele>32.0</ele><time>2026-04-18T10:20:37.362Z</time></trkpt><trkpt lat="33.4246004" lon="8.0438987"><ele>32.0</ele><time>2026-04-18T10:20:38.363Z</time></trkpt><trkpt lat="33.4245973" lon="8.0440063"><ele>32.0</ele><time>2026-04-18T10:20:39.364Z</time></trkpt><trkpt lat="33.4245887" lon="8.0441149"><ele>32.0</ele><time>2026-04-18T10:20:40.363Z</time></trkpt><trkpt lat="33.4245783" lon="8.0442326"><ele>32.0</ele><time>2026-04-18T10:20:41.358Z</time></trkpt><trkpt lat="33.4245694" lon="8.0443591"><ele>32.0</ele><time>2026-04-18T10:20:42.359Z</time></trkpt><trkpt lat="33.4245607" lon="8.0444865"><ele>32.33333333333333</ele><time>2026-04-18T10:20:43.361Z</time></trkpt><trkpt lat="33.4245488" lon="8.0446121"><ele>32.666666666666664</ele><time>2026-04-18T10:20:44.366Z</time></trkpt><trkpt lat="33.4245386" lon="8.0447328"><ele>33.0</ele><time>2026-04-18T10:20:45.357Z</time></trkpt><trkpt lat="33.4245273" lon="8.0448392"><ele>33.333333333333336</ele><time>2026-04-18T10:20:46.359Z</time></trkpt><trkpt lat="33.4245162" lon="8.0449295"><ele>33.66666666666667</ele><time>2026-04-18T10:20:47.359Z</time></trkpt><trkpt lat="33.4245088" lon="8.0450127"><ele>34.0</ele><time>2026-04-18T10:20:48.357Z</time></trkpt><trkpt lat="33.4245" lon="8.0451148"><ele>34.6</ele><time>2026-04-18T10:20:50.359Z</time></trkpt><trkpt lat="33.424491" lon="8.0452458"><ele>35.2</ele><time>2026-04-18T10:21:00.364Z</time></trkpt><trkpt lat="33.4244859" lon="8.0453371"><ele>35.800000000000004</ele><time>2026-04-18T10:21:01.358Z</time></trkpt><trkpt lat="33.4244804" lon="8.0454475"><ele>36.4</ele><time>2026-04-18T10:21:02.359Z</time></trkpt><trkpt lat="33.4244767" lon="8.0455622"><ele>37.0</ele><time>2026-04-18T10:21:03.357Z</time></trkpt><trkpt lat="33.4244737" lon="8.0456717"><ele>37.0</ele><time>2026-04-18T10:21:04.362Z</time></trkpt><trkpt lat="33.4244718" lon="8.0457764"><ele>37.0</ele><time>2026-04-18T10:21:05.364Z</time></trkpt><trkpt lat="33.4244668" lon="8.0458796"><ele>37.0</ele><time>2026-04-18T10:21:06.358Z</time></trkpt><trkpt lat="33.4244589" lon="8.0459788"><ele>37.0</ele><time>2026-04-18T10:21:07.359Z</time></trkpt><trkpt lat="33.4244504" lon="8.0460845"><ele>37.0</ele><time>2026-04-18T10:21:08.363Z</time></trkpt><trkpt lat="33.4244403" lon="8.0461981"><ele>37.0</ele><time>2026-04-18T10:21:09.359Z</time></trkpt><trkpt lat="33.4244275" lon="8.0463149"><ele>36.6</ele><time>2026-04-18T10:21:10.363Z</time></trkpt><trkpt lat="33.4244127" lon="8.0464324"><ele>36.2</ele><time>2026-04-18T10:21:11.361Z</time></trkpt><trkpt lat="33.4244014" lon="8.0465539"><ele>35.8</ele><time>2026-04-18T10:21:12.359Z</time></trkpt><trkpt lat="33.4243919" lon="8.0466797"><ele>35.4</ele><time>2026-04-18T10:21:13.358Z</time></trkpt><trkpt lat="33.4243803" lon="8.0468088"><ele>35.0</ele><time>2026-04-18T10:21:14.359Z</time></trkpt><trkpt lat="33.4243721" lon="8.0469429"><ele>35.0</ele><time>2026-04-18T10:21:15.36Z</time></trkpt><trkpt lat="33.4243735" lon="8.0470717"><ele>35.0</ele><time>2026-04-18T10:21:16.359Z</time></trkpt><trkpt lat="33.4243791" lon="8.0471912"><ele>35.0</ele><time>2026-04-18T10:21:17.358Z</time></trkpt><trkpt lat="33.4243768" lon="8.0473066"><ele>35.0</ele><time>2026-04-18T10:21:18.359Z</time></trkpt><trkpt lat="33.4243649" lon="8.0474311"><ele>35.0</ele><time>2026-04-18T10:21:19.363Z</time></trkpt><trkpt lat="33.4243491" lon="8.047564"><ele>34.5</ele><time>2026-04-18T10:21:20.358Z</time></trkpt><trkpt lat="33.4243325" lon="8.0477018"><ele>34.0</ele><time>2026-04-18T10:21:21.357Z</time></trkpt><trkpt lat="33.4243166" lon="8.047838"><ele>33.5</ele><time>2026-04-18T10:21:22.358Z</time></trkpt><trkpt lat="33.4243029" lon="8.0479799"><ele>33.0</ele><time>2026-04-18T10:21:23.361Z</time></trkpt><trkpt lat="33.4242917" lon="8.0481193"><ele>33.0</ele><time>2026-04-18T10:21:24.359Z</time></trkpt><trkpt lat="33.4242822" lon="8.048257"><ele>33.0</ele><time>2026-04-18T10:21:25.354Z</time></trkpt><trkpt lat="33.4242685" lon="8.0483928"><ele>33.0</ele><time>2026-04-18T10:21:26.36Z</time></trkpt><trkpt lat="33.4242555" lon="8.0485287"><ele>33.0</ele><time>2026-04-18T10:21:27.362Z</time></trkpt><trkpt lat="33.4242433" lon="8.0486606"><ele>33.0</ele><time>2026-04-18T10:21:28.354Z</time></trkpt><trkpt lat="33.424247" lon="8.0487867"><ele>33.0</ele><time>2026-04-18T10:21:29.359Z</time></trkpt><trkpt lat="33.4242548" lon="8.0489112"><ele>33.0</ele><time>2026-04-18T10:21:30.359Z</time></trkpt><trkpt lat="33.4242527" lon="8.0490324"><ele>33.0</ele><time>2026-04-18T10:21:31.363Z</time></trkpt><trkpt lat="33.4242368" lon="8.0491563"><ele>33.0</ele><time>2026-04-18T10:21:32.358Z</time></trkpt><trkpt lat="33.4242203" lon="8.0492846"><ele>32.6</ele><time>2026-04-18T10:21:33.352Z</time></trkpt><trkpt lat="33.4242095" lon="8.0494186"><ele>32.199999999999996</ele><time>2026-04-18T10:21:34.356Z</time></trkpt><trkpt lat="33.4242019" lon="8.0495528"><ele>31.8</ele><time>2026-04-18T10:21:35.357Z</time></trkpt><trkpt lat="33.4241925" lon="8.0496849"><ele>31.4</ele><time>2026-04-18T10:21:36.358Z</time></trkpt><trkpt lat="33.424184" lon="8.0498134"><ele>31.0</ele><time>2026-04-18T10:21:37.357Z</time></trkpt><trkpt lat="33.4241766" lon="8.0499406"><ele>31.200000000000003</ele><time>2026-04-18T10:21:38.357Z</time></trkpt><trkpt lat="33.4241668" lon="8.0500669"><ele>31.400000000000002</ele><time>2026-04-18T10:21:39.357Z</time></trkpt><trkpt lat="33.4241574" lon="8.0501918"><ele>31.6</ele><time>2026-04-18T10:21:40.356Z</time></trkpt><trkpt lat="33.4241499" lon="8.0503156"><ele>31.8</ele><time>2026-04-18T10:21:41.357Z</time></trkpt><trkpt lat="33.4241421" lon="8.0504424"><ele>32.0</ele><time>2026-04-18T10:21:42.353Z</time></trkpt><trkpt lat="33.4241312" lon="8.0505774"><ele>32.0</ele><time>2026-04-18T10:21:43.358Z</time></trkpt><trkpt lat="33.4241144" lon="8.0507183"><ele>32.0</ele><time>2026-04-18T10:21:44.353Z</time></trkpt><trkpt lat="33.4240988" lon="8.0508635"><ele>32.0</ele><time>2026-04-18T10:21:45.357Z</time></trkpt><trkpt lat="33.4240867" lon="8.051011"><ele>32.0</ele><time>2026-04-18T10:21:46.356Z</time></trkpt><trkpt lat="33.4240798" lon="8.0511608"><ele>32.0</ele><time>2026-04-18T10:21:47.362Z</time></trkpt><trkpt lat="33.4240742" lon="8.0513048"><ele>32.0</ele><time>2026-04-18T10:21:48.354Z</time></trkpt><trkpt lat="33.4240666" lon="8.051445"><ele>32.0</ele><time>2026-04-18T10:21:49.357Z</time></trkpt><trkpt lat="33.4240581" lon="8.0515826"><ele>32.0</ele><time>2026-04-18T10:21:50.364Z</time></trkpt><trkpt lat="33.424048" lon="8.0517225"><ele>31.6</ele><time>2026-04-18T10:21:51.355Z</time></trkpt><trkpt lat="33.4240372" lon="8.0518608"><ele>31.200000000000003</ele><time>2026-04-18T10:21:52.356Z</time></trkpt><trkpt lat="33.4240234" lon="8.0519941"><ele>30.8</ele><time>2026-04-18T10:21:53.357Z</time></trkpt><trkpt lat="33.4240101" lon="8.0521208"><ele>30.4</ele><time>2026-04-18T10:21:54.358Z</time></trkpt><trkpt lat="33.4239997" lon="8.0522515"><ele>30.0</ele><time>2026-04-18T10:21:55.357Z</time></trkpt><trkpt lat="33.4239931" lon="8.0523806"><ele>30.6</ele><time>2026-04-18T10:21:56.366Z</time></trkpt><trkpt lat="33.4239897" lon="8.0525099"><ele>31.2</ele><time>2026-04-18T10:21:57.358Z</time></trkpt><trkpt lat="33.4239866" lon="8.0526416"><ele>31.799999999999997</ele><time>2026-04-18T10:21:58.357Z</time></trkpt><trkpt lat="33.4239797" lon="8.0527718"><ele>32.4</ele><time>2026-04-18T10:21:59.356Z</time></trkpt><trkpt lat="33.423969" lon="8.0528931"><ele>33.0</ele><time>2026-04-18T10:22:00.36Z</time></trkpt><trkpt lat="33.4239535" lon="8.0529992"><ele>33.0</ele><time>2026-04-18T10:22:01.355Z</time></trkpt><trkpt lat="33.4239385" lon="8.0531025"><ele>33.0</ele><time>2026-04-18T10:22:02.361Z</time></trkpt><trkpt lat="33.4239278" lon="8.0532077"><ele>33.0</ele><time>2026-04-18T10:22:03.368Z</time></trkpt><trkpt lat="33.4239221" lon="8.0533208"><ele>33.0</ele><time>2026-04-18T10:22:04.354Z</time></trkpt><trkpt lat="33.4239206" lon="8.0534429"><ele>33.0</ele><time>2026-04-18T10:22:05.359Z</time></trkpt><trkpt lat="33.4239151" lon="8.0535684"><ele>32.8</ele><time>2026-04-18T10:22:06.366Z</time></trkpt><trkpt lat="33.4239055" lon="8.0536933"><ele>32.599999999999994</ele><time>2026-04-18T10:22:07.355Z</time></trkpt><trkpt lat="33.4238896" lon="8.0538124"><ele>32.400000000000006</ele><time>2026-04-18T10:22:08.359Z</time></trkpt><trkpt lat="33.42387" lon="8.0539318"><ele>32.2</ele><time>2026-04-18T10:22:09.357Z</time></trkpt><trkpt lat="33.4238564" lon="8.0540568"><ele>32.0</ele><time>2026-04-18T10:22:10.363Z</time></trkpt><trkpt lat="33.4238485" lon="8.054189"><ele>33.0</ele><time>2026-04-18T10:22:11.355Z</time></trkpt><trkpt lat="33.4238436" lon="8.0543215"><ele>34.0</ele><time>2026-04-18T10:22:12.351Z</time></trkpt><trkpt lat="33.4238395" lon="8.0544561"><ele>35.0</ele><time>2026-04-18T10:22:13.357Z</time></trkpt><trkpt lat="33.4238325" lon="8.0545947"><ele>36.0</ele><time>2026-04-18T10:22:14.357Z</time></trkpt><trkpt lat="33.4238223" lon="8.0547317"><ele>35.4</ele><time>2026-04-18T10:22:15.355Z</time></trkpt><trkpt lat="33.4238095" lon="8.054867"><ele>34.8</ele><time>2026-04-18T10:22:16.361Z</time></trkpt><trkpt lat="33.4237932" lon="8.0549921"><ele>34.199999999999996</ele><time>2026-04-18T10:22:17.354Z</time></trkpt><trkpt lat="33.423775" lon="8.0551137"><ele>33.6</ele><time>2026-04-18T10:22:18.357Z</time></trkpt><trkpt lat="33.4237593" lon="8.0552341"><ele>33.0</ele><time>2026-04-18T10:22:19.357Z</time></trkpt><trkpt lat="33.4237493" lon="8.0553586"><ele>32.8</ele><time>2026-04-18T10:22:20.354Z</time></trkpt><trkpt lat="33.4237422" lon="8.0554855"><ele>32.599999999999994</ele><time>2026-04-18T10:22:21.354Z</time></trkpt><trkpt lat="33.4237276" lon="8.0556148"><ele>32.400000000000006</ele><time>2026-04-18T10:22:22.358Z</time></trkpt><trkpt lat="33.4237116" lon="8.0557444"><ele>32.2</ele><time>2026-04-18T10:22:23.358Z</time></trkpt><trkpt lat="33.4237008" lon="8.0558747"><ele>32.0</ele><time>2026-04-18T10:22:24.36Z</time></trkpt><trkpt lat="33.4236908" lon="8.0560053"><ele>31.8</ele><time>2026-04-18T10:22:25.357Z</time></trkpt><trkpt lat="33.4236795" lon="8.0561355"><ele>31.6</ele><time>2026-04-18T10:22:26.357Z</time></trkpt><trkpt lat="33.4236676" lon="8.0562697"><ele>31.400000000000002</ele><time>2026-04-18T10:22:27.353Z</time></trkpt><trkpt lat="33.4236559" lon="8.0564044"><ele>31.200000000000003</ele><time>2026-04-18T10:22:28.353Z</time></trkpt><trkpt lat="33.4236489" lon="8.056539"><ele>31.0</ele><time>2026-04-18T10:22:29.355Z</time></trkpt><trkpt lat="33.4236468" lon="8.0566597"><ele>31.6</ele><time>2026-04-18T10:22:30.358Z</time></trkpt><trkpt lat="33.423648" lon="8.0567738"><ele>32.2</ele><time>2026-04-18T10:22:31.356Z</time></trkpt><trkpt lat="33.4236523" lon="8.0568841"><ele>32.8</ele><time>2026-04-18T10:22:32.356Z</time></trkpt><trkpt lat="33.4236573" lon="8.0569954"><ele>33.4</ele><time>2026-04-18T10:22:33.357Z</time></trkpt><trkpt lat="33.4236614" lon="8.0571093"><ele>34.0</ele><time>2026-04-18T10:22:34.36Z</time></trkpt><trkpt lat="33.4236565" lon="8.0572287"><ele>34.0</ele><time>2026-04-18T10:22:35.354Z</time></trkpt><trkpt lat="33.4236453" lon="8.057358"><ele>34.0</ele><time>2026-04-18T10:22:36.355Z</time></trkpt><trkpt lat="33.4236313" lon="8.0574919"><ele>34.0</ele><time>2026-04-18T10:22:37.359Z</time></trkpt><trkpt lat="33.4236101" lon="8.0576313"><ele>34.0</ele><time>2026-04-18T10:22:38.354Z</time></trkpt><trkpt lat="33.4235879" lon="8.0577754"><ele>34.0</ele><time>2026-04-18T10:22:39.354Z</time></trkpt><trkpt lat="33.4235725" lon="8.0579226"><ele>34.0</ele><time>2026-04-18T10:22:40.358Z</time></trkpt><trkpt lat="33.4235572" lon="8.058069"><ele>34.0</ele><time>2026-04-18T10:22:41.359Z</time></trkpt><trkpt lat="33.4235462" lon="8.0582195"><ele>34.0</ele><time>2026-04-18T10:22:42.359Z</time></trkpt><trkpt lat="33.4235388" lon="8.0583728"><ele>34.0</ele><time>2026-04-18T10:22:43.358Z</time></trkpt><trkpt lat="33.423538" lon="8.0585278"><ele>34.0</ele><time>2026-04-18T10:22:44.359Z</time></trkpt><trkpt lat="33.4235378" lon="8.0586731"><ele>34.0</ele><time>2026-04-18T10:22:45.354Z</time></trkpt><trkpt lat="33.4235343" lon="8.058813"><ele>34.0</ele><time>2026-04-18T10:22:46.357Z</time></trkpt><trkpt lat="33.4235271" lon="8.0589429"><ele>34.0</ele><time>2026-04-18T10:22:47.352Z</time></trkpt><trkpt lat="33.4235177" lon="8.059073"><ele>34.0</ele><time>2026-04-18T10:22:48.359Z</time></trkpt><trkpt lat="33.4235083" lon="8.0592086"><ele>34.0</ele><time>2026-04-18T10:22:49.354Z</time></trkpt><trkpt lat="33.4235002" lon="8.0593457"><ele>34.0</ele><time>2026-04-18T10:22:50.357Z</time></trkpt><trkpt lat="33.4234903" lon="8.0594869"><ele>34.25</ele><time>2026-04-18T10:22:51.361Z</time></trkpt><trkpt lat="33.4234771" lon="8.0596279"><ele>34.5</ele><time>2026-04-18T10:22:52.357Z</time></trkpt><trkpt lat="33.423468" lon="8.0597706"><ele>34.75</ele><time>2026-04-18T10:22:53.361Z</time></trkpt><trkpt lat="33.4234586" lon="8.0599175"><ele>35.0</ele><time>2026-04-18T10:22:54.357Z</time></trkpt><trkpt lat="33.4234408" lon="8.0600554"><ele>35.6</ele><time>2026-04-18T10:22:55.357Z</time></trkpt><trkpt lat="33.4234192" lon="8.0601823"><ele>36.2</ele><time>2026-04-18T10:22:56.355Z</time></trkpt><trkpt lat="33.4234003" lon="8.0603076"><ele>36.8</ele><time>2026-04-18T10:22:57.356Z</time></trkpt><trkpt lat="33.4233906" lon="8.0604359"><ele>37.4</ele><time>2026-04-18T10:22:58.363Z</time></trkpt><trkpt lat="33.4233888" lon="8.0605662"><ele>38.0</ele><time>2026-04-18T10:22:59.36Z</time></trkpt><trkpt lat="33.4233888" lon="8.0606929"><ele>37.4</ele><time>2026-04-18T10:23:00.361Z</time></trkpt><trkpt lat="33.4233893" lon="8.0608119"><ele>36.8</ele><time>2026-04-18T10:23:01.363Z</time></trkpt><trkpt lat="33.4233865" lon="8.0609265"><ele>36.2</ele><time>2026-04-18T10:23:02.352Z</time></trkpt><trkpt lat="33.4233802" lon="8.0610434"><ele>35.6</ele><time>2026-04-18T10:23:03.353Z</time></trkpt><trkpt lat="33.4233728" lon="8.0611616"><ele>35.0</ele><time>2026-04-18T10:23:04.358Z</time></trkpt><trkpt lat="33.4233646" lon="8.0612744"><ele>35.0</ele><time>2026-04-18T10:23:05.354Z</time></trkpt><trkpt lat="33.4233583" lon="8.0613742"><ele>35.0</ele><time>2026-04-18T10:23:06.354Z</time></trkpt><trkpt lat="33.4233553" lon="8.0614544"><ele>35.0</ele><time>2026-04-18T10:23:07.358Z</time></trkpt><trkpt lat="33.4233336" lon="8.0615859"><ele>35.0</ele><time>2026-04-18T10:23:09.353Z</time></trkpt><trkpt lat="33.4232908" lon="8.0617041"><ele>35.0</ele><time>2026-04-18T10:23:11.357Z</time></trkpt><trkpt lat="33.4232755" lon="8.0617875"><ele>35.0</ele><time>2026-04-18T10:23:13.356Z</time></trkpt><trkpt lat="33.4232838" lon="8.0618921"><ele>35.0</ele><time>2026-04-18T10:23:16.358Z</time></trkpt><trkpt lat="33.4232763" lon="8.0620032"><ele>35.0</ele><time>2026-04-18T10:23:18.355Z</time></trkpt><trkpt lat="33.4232748" lon="8.0621571"><ele>35.0</ele><time>2026-04-18T10:23:20.36Z</time></trkpt><trkpt lat="33.4232746" lon="8.0622512"><ele>35.0</ele><time>2026-04-18T10:23:21.364Z</time></trkpt><trkpt lat="33.4232723" lon="8.062346"><ele>35.0</ele><time>2026-04-18T10:23:22.356Z</time></trkpt><trkpt lat="33.4232683" lon="8.0624391"><ele>34.83333333333333</ele><time>2026-04-18T10:23:23.357Z</time></trkpt><trkpt lat="33.4232618" lon="8.0625308"><ele>34.666666666666664</ele><time>2026-04-18T10:23:24.355Z</time></trkpt><trkpt lat="33.4232538" lon="8.0626194"><ele>34.5</ele><time>2026-04-18T10:23:25.356Z</time></trkpt><trkpt lat="33.4232453" lon="8.0627127"><ele>34.333333333333336</ele><time>2026-04-18T10:23:26.359Z</time></trkpt><trkpt lat="33.4232366" lon="8.0628116"><ele>34.16666666666667</ele><time>2026-04-18T10:23:27.357Z</time></trkpt><trkpt lat="33.4232285" lon="8.0629164"><ele>34.0</ele><time>2026-04-18T10:23:28.354Z</time></trkpt><trkpt lat="33.423219" lon="8.0630236"><ele>34.0</ele><time>2026-04-18T10:23:29.357Z</time></trkpt><trkpt lat="33.4232075" lon="8.0631308"><ele>34.0</ele><time>2026-04-18T10:23:30.359Z</time></trkpt><trkpt lat="33.4231961" lon="8.0632426"><ele>34.0</ele><time>2026-04-18T10:23:31.357Z</time></trkpt><trkpt lat="33.4231808" lon="8.0633538"><ele>34.0</ele><time>2026-04-18T10:23:32.353Z</time></trkpt><trkpt lat="33.4231677" lon="8.0634618"><ele>34.0</ele><time>2026-04-18T10:23:33.354Z</time></trkpt><trkpt lat="33.423163" lon="8.0635647"><ele>33.833333333333336</ele><time>2026-04-18T10:23:34.358Z</time></trkpt><trkpt lat="33.4231644" lon="8.063664"><ele>33.66666666666667</ele><time>2026-04-18T10:23:35.354Z</time></trkpt><trkpt lat="33.4231681" lon="8.0637549"><ele>33.5</ele><time>2026-04-18T10:23:36.353Z</time></trkpt><trkpt lat="33.4231688" lon="8.0638492"><ele>33.333333333333336</ele><time>2026-04-18T10:23:37.359Z</time></trkpt><trkpt lat="33.4231683" lon="8.0639518"><ele>33.166666666666664</ele><time>2026-04-18T10:23:38.359Z</time></trkpt><trkpt lat="33.4231635" lon="8.0640598"><ele>33.0</ele><time>2026-04-18T10:23:39.357Z</time></trkpt><trkpt lat="33.4231553" lon="8.0641708"><ele>33.0</ele><time>2026-04-18T10:23:40.365Z</time></trkpt><trkpt lat="33.423147" lon="8.0642876"><ele>33.0</ele><time>2026-04-18T10:23:41.362Z</time></trkpt><trkpt lat="33.4231426" lon="8.0644078"><ele>33.0</ele><time>2026-04-18T10:23:42.355Z</time></trkpt><trkpt lat="33.4231403" lon="8.0645253"><ele>33.0</ele><time>2026-04-18T10:23:43.357Z</time></trkpt><trkpt lat="33.4231369" lon="8.0646339"><ele>33.0</ele><time>2026-04-18T10:23:44.356Z</time></trkpt><trkpt lat="33.423126" lon="8.0647338"><ele>33.0</ele><time>2026-04-18T10:23:45.358Z</time></trkpt><trkpt lat="33.4231127" lon="8.064833"><ele>33.0</ele><time>2026-04-18T10:23:46.357Z</time></trkpt><trkpt lat="33.4231036" lon="8.0649314"><ele>33.0</ele><time>2026-04-18T10:23:47.358Z</time></trkpt><trkpt lat="33.4230948" lon="8.0650285"><ele>33.0</ele><time>2026-04-18T10:23:48.357Z</time></trkpt><trkpt lat="33.4230822" lon="8.0651285"><ele>33.0</ele><time>2026-04-18T10:23:49.357Z</time></trkpt><trkpt lat="33.4230646" lon="8.0652352"><ele>33.0</ele><time>2026-04-18T10:23:50.356Z</time></trkpt><trkpt lat="33.4230507" lon="8.065349"><ele>33.0</ele><time>2026-04-18T10:23:51.36Z</time></trkpt><trkpt lat="33.4230418" lon="8.0654708"><ele>33.0</ele><time>2026-04-18T10:23:52.361Z</time></trkpt><trkpt lat="33.4230336" lon="8.0655807"><ele>33.0</ele><time>2026-04-18T10:23:53.355Z</time></trkpt><trkpt lat="33.4230213" lon="8.0656736"><ele>33.0</ele><time>2026-04-18T10:23:54.355Z</time></trkpt><trkpt lat="33.4230092" lon="8.0657668"><ele>33.0</ele><time>2026-04-18T10:23:55.359Z</time></trkpt><trkpt lat="33.4229967" lon="8.0658665"><ele>33.0</ele><time>2026-04-18T10:23:56.354Z</time></trkpt><trkpt lat="33.4229892" lon="8.0659666"><ele>33.166666666666664</ele><time>2026-04-18T10:23:57.355Z</time></trkpt><trkpt lat="33.4229826" lon="8.0660705"><ele>33.333333333333336</ele><time>2026-04-18T10:23:58.358Z</time></trkpt><trkpt lat="33.4229739" lon="8.0661751"><ele>33.5</ele><time>2026-04-18T10:23:59.36Z</time></trkpt><trkpt lat="33.4229675" lon="8.0662768"><ele>33.66666666666667</ele><time>2026-04-18T10:24:00.357Z</time></trkpt><trkpt lat="33.4229624" lon="8.0663758"><ele>33.833333333333336</ele><time>2026-04-18T10:24:01.354Z</time></trkpt><trkpt lat="33.4229581" lon="8.0664732"><ele>34.0</ele><time>2026-04-18T10:24:02.354Z</time></trkpt><trkpt lat="33.4229569" lon="8.0665703"><ele>33.71428571428571</ele><time>2026-04-18T10:24:03.362Z</time></trkpt><trkpt lat="33.4229579" lon="8.0666625"><ele>33.42857142857143</ele><time>2026-04-18T10:24:04.354Z</time></trkpt><trkpt lat="33.4229593" lon="8.0667511"><ele>33.14285714285714</ele><time>2026-04-18T10:24:05.363Z</time></trkpt><trkpt lat="33.4229591" lon="8.0668381"><ele>32.857142857142854</ele><time>2026-04-18T10:24:06.353Z</time></trkpt><trkpt lat="33.4229567" lon="8.066927"><ele>32.57142857142857</ele><time>2026-04-18T10:24:07.354Z</time></trkpt><trkpt lat="33.4229523" lon="8.067016"><ele>32.285714285714285</ele><time>2026-04-18T10:24:08.355Z</time></trkpt><trkpt lat="33.4229468" lon="8.0671044"><ele>32.0</ele><time>2026-04-18T10:24:09.353Z</time></trkpt><trkpt lat="33.4229385" lon="8.0671864"><ele>32.0</ele><time>2026-04-18T10:24:10.358Z</time></trkpt><trkpt lat="33.4229122" lon="8.0673117"><ele>32.0</ele><time>2026-04-18T10:24:12.353Z</time></trkpt><trkpt lat="33.4229206" lon="8.067403"><ele>32.0</ele><time>2026-04-18T10:24:14.355Z</time></trkpt><trkpt lat="33.423024" lon="8.0674042"><ele>32.0</ele><time>2026-04-18T10:24:17.356Z</time></trkpt><trkpt lat="33.4231264" lon="8.0673542"><ele>32.0</ele><time>2026-04-18T10:24:19.36Z</time></trkpt><trkpt lat="33.4232223" lon="8.0672829"><ele>33.2</ele><time>2026-04-18T10:24:21.352Z</time></trkpt><trkpt lat="33.4233022" lon="8.0672172"><ele>34.400000000000006</ele><time>2026-04-18T10:24:23.353Z</time></trkpt><trkpt lat="33.4234056" lon="8.067116"><ele>35.599999999999994</ele><time>2026-04-18T10:24:25.358Z</time></trkpt><trkpt lat="33.4234682" lon="8.0670451"><ele>36.8</ele><time>2026-04-18T10:24:26.352Z</time></trkpt><trkpt lat="33.4235323" lon="8.0669683"><ele>38.0</ele><time>2026-04-18T10:24:27.357Z</time></trkpt><trkpt lat="33.4236011" lon="8.0668862"><ele>38.0</ele><time>2026-04-18T10:24:28.357Z</time></trkpt><trkpt lat="33.4236764" lon="8.0668085"><ele>38.0</ele><time>2026-04-18T10:24:29.355Z</time></trkpt><trkpt lat="33.423755" lon="8.0667276"><ele>38.0</ele><time>2026-04-18T10:24:30.358Z</time></trkpt><trkpt lat="33.4238361" lon="8.0666408"><ele>38.0</ele><time>2026-04-18T10:24:31.355Z</time></trkpt><trkpt lat="33.4239203" lon="8.0665523"><ele>38.0</ele><time>2026-04-18T10:24:32.355Z</time></trkpt><trkpt lat="33.4240037" lon="8.066464"><ele>37.199999999999996</ele><time>2026-04-18T10:24:33.356Z</time></trkpt><trkpt lat="33.4240906" lon="8.0663746"><ele>36.4</ele><time>2026-04-18T10:24:34.351Z</time></trkpt><trkpt lat="33.4241765" lon="8.0662884"><ele>35.599999999999994</ele><time>2026-04-18T10:24:35.375Z</time></trkpt><trkpt lat="33.4242618" lon="8.0662107"><ele>34.8</ele><time>2026-04-18T10:24:36.366Z</time></trkpt><trkpt lat="33.4243432" lon="8.066136"><ele>34.0</ele><time>2026-04-18T10:24:37.355Z</time></trkpt><trkpt lat="33.4244213" lon="8.0660586"><ele>34.0</ele><time>2026-04-18T10:24:38.358Z</time></trkpt><trkpt lat="33.4244939" lon="8.0659743"><ele>34.0</ele><time>2026-04-18T10:24:39.355Z</time></trkpt><trkpt lat="33.4245619" lon="8.0658927"><ele>34.0</ele><time>2026-04-18T10:24:40.359Z</time></trkpt><trkpt lat="33.424632" lon="8.0658167"><ele>34.0</ele><time>2026-04-18T10:24:41.357Z</time></trkpt><trkpt lat="33.4247044" lon="8.0657377"><ele>34.0</ele><time>2026-04-18T10:24:42.352Z</time></trkpt><trkpt lat="33.4247827" lon="8.0656516"><ele>34.0</ele><time>2026-04-18T10:24:43.358Z</time></trkpt><trkpt lat="33.4248641" lon="8.0655625"><ele>34.0</ele><time>2026-04-18T10:24:44.359Z</time></trkpt><trkpt lat="33.4249484" lon="8.0654826"><ele>34.0</ele><time>2026-04-18T10:24:45.357Z</time></trkpt><trkpt lat="33.4250338" lon="8.0654001"><ele>34.0</ele><time>2026-04-18T10:24:46.355Z</time></trkpt><trkpt lat="33.4251175" lon="8.0653151"><ele>34.0</ele><time>2026-04-18T10:24:47.361Z</time></trkpt><trkpt lat="33.4251946" lon="8.0652354"><ele>34.0</ele><time>2026-04-18T10:24:48.361Z</time></trkpt><trkpt lat="33.425266" lon="8.0651591"><ele>34.0</ele><time>2026-04-18T10:24:49.361Z</time></trkpt><trkpt lat="33.4253348" lon="8.0650842"><ele>34.0</ele><time>2026-04-18T10:24:50.354Z</time></trkpt><trkpt lat="33.4254109" lon="8.0650009"><ele>34.0</ele><time>2026-04-18T10:24:51.356Z</time></trkpt><trkpt lat="33.4254881" lon="8.064917"><ele>34.0</ele><time>2026-04-18T10:24:52.359Z</time></trkpt><trkpt lat="33.4255689" lon="8.0648341"><ele>34.2</ele><time>2026-04-18T10:24:53.353Z</time></trkpt><trkpt lat="33.4256517" lon="8.0647479"><ele>34.4</ele><time>2026-04-18T10:24:54.355Z</time></trkpt><trkpt lat="33.4257337" lon="8.064663"><ele>34.6</ele><time>2026-04-18T10:24:55.352Z</time></trkpt><trkpt lat="33.4258157" lon="8.0645789"><ele>34.8</ele><time>2026-04-18T10:24:56.353Z</time></trkpt><trkpt lat="33.425901" lon="8.0644956"><ele>35.0</ele><time>2026-04-18T10:24:57.354Z</time></trkpt><trkpt lat="33.4259843" lon="8.0644101"><ele>35.0</ele><time>2026-04-18T10:24:58.36Z</time></trkpt><trkpt lat="33.4260689" lon="8.0643248"><ele>35.0</ele><time>2026-04-18T10:24:59.357Z</time></trkpt><trkpt lat="33.4261563" lon="8.0642396"><ele>35.0</ele><time>2026-04-18T10:25:00.362Z</time></trkpt><trkpt lat="33.4262415" lon="8.0641509"><ele>35.0</ele><time>2026-04-18T10:25:01.365Z</time></trkpt><trkpt lat="33.4263251" lon="8.064066"><ele>35.0</ele><time>2026-04-18T10:25:02.353Z</time></trkpt><trkpt lat="33.4264067" lon="8.0639878"><ele>35.2</ele><time>2026-04-18T10:25:03.361Z</time></trkpt><trkpt lat="33.4264854" lon="8.063903"><ele>35.4</ele><time>2026-04-18T10:25:04.361Z</time></trkpt><trkpt lat="33.4265671" lon="8.0638168"><ele>35.6</ele><time>2026-04-18T10:25:05.365Z</time></trkpt><trkpt lat="33.4266445" lon="8.0637349"><ele>35.8</ele><time>2026-04-18T10:25:06.355Z</time></trkpt><trkpt lat="33.4267191" lon="8.0636528"><ele>36.0</ele><time>2026-04-18T10:25:07.367Z</time></trkpt><trkpt lat="33.4268" lon="8.063568"><ele>36.0</ele><time>2026-04-18T10:25:08.358Z</time></trkpt><trkpt lat="33.4268873" lon="8.0634775"><ele>36.0</ele><time>2026-04-18T10:25:09.364Z</time></trkpt><trkpt lat="33.4269712" lon="8.0633873"><ele>36.0</ele><time>2026-04-18T10:25:10.359Z</time></trkpt><trkpt lat="33.4270466" lon="8.0633064"><ele>36.0</ele><time>2026-04-18T10:25:11.36Z</time></trkpt><trkpt lat="33.4271289" lon="8.0632277"><ele>36.0</ele><time>2026-04-18T10:25:12.358Z</time></trkpt><trkpt lat="33.4272173" lon="8.0631492"><ele>35.75</ele><time>2026-04-18T10:25:13.364Z</time></trkpt><trkpt lat="33.427302" lon="8.0630691"><ele>35.5</ele><time>2026-04-18T10:25:14.357Z</time></trkpt><trkpt lat="33.4273903" lon="8.0629809"><ele>35.25</ele><time>2026-04-18T10:25:15.352Z</time></trkpt><trkpt lat="33.427483" lon="8.0628834"><ele>35.0</ele><time>2026-04-18T10:25:16.357Z</time></trkpt><trkpt lat="33.4275749" lon="8.0627863"><ele>35.0</ele><time>2026-04-18T10:25:17.355Z</time></trkpt><trkpt lat="33.4276597" lon="8.0626999"><ele>35.0</ele><time>2026-04-18T10:25:18.364Z</time></trkpt><trkpt lat="33.4277326" lon="8.0626226"><ele>35.0</ele><time>2026-04-18T10:25:19.356Z</time></trkpt><trkpt lat="33.4278049" lon="8.0625451"><ele>35.0</ele><time>2026-04-18T10:25:20.359Z</time></trkpt><trkpt lat="33.427882" lon="8.0624618"><ele>35.0</ele><time>2026-04-18T10:25:21.355Z</time></trkpt><trkpt lat="33.4279661" lon="8.0623763"><ele>35.4</ele><time>2026-04-18T10:25:22.357Z</time></trkpt><trkpt lat="33.4280537" lon="8.0622899"><ele>35.8</ele><time>2026-04-18T10:25:23.356Z</time></trkpt><trkpt lat="33.4281396" lon="8.0622037"><ele>36.2</ele><time>2026-04-18T10:25:24.364Z</time></trkpt><trkpt lat="33.4282224" lon="8.0621154"><ele>36.6</ele><time>2026-04-18T10:25:25.362Z</time></trkpt><trkpt lat="33.4283064" lon="8.0620252"><ele>37.0</ele><time>2026-04-18T10:25:26.356Z</time></trkpt><trkpt lat="33.4283884" lon="8.0619339"><ele>37.0</ele><time>2026-04-18T10:25:27.358Z</time></trkpt><trkpt lat="33.4284743" lon="8.0618454"><ele>37.0</ele><time>2026-04-18T10:25:28.355Z</time></trkpt><trkpt lat="33.4285626" lon="8.0617552"><ele>37.0</ele><time>2026-04-18T10:25:29.355Z</time></trkpt><trkpt lat="33.4286567" lon="8.0616663"><ele>37.0</ele><time>2026-04-18T10:25:30.362Z</time></trkpt><trkpt lat="33.4287408" lon="8.0615749"><ele>36.75</ele><time>2026-04-18T10:25:31.354Z</time></trkpt><trkpt lat="33.4288317" lon="8.0614828"><ele>36.5</ele><time>2026-04-18T10:25:32.357Z</time></trkpt><trkpt lat="33.4289226" lon="8.061394"><ele>36.25</ele><time>2026-04-18T10:25:33.354Z</time></trkpt><trkpt lat="33.4290153" lon="8.0612979"><ele>36.0</ele><time>2026-04-18T10:25:34.35Z</time></trkpt><trkpt lat="33.4291088" lon="8.061203"><ele>36.0</ele><time>2026-04-18T10:25:35.35Z</time></trkpt><trkpt lat="33.429205" lon="8.0611103"><ele>36.0</ele><time>2026-04-18T10:25:36.36Z</time></trkpt><trkpt lat="33.4292997" lon="8.0610164"><ele>36.0</ele><time>2026-04-18T10:25:37.353Z</time></trkpt><trkpt lat="33.429392" lon="8.060924"><ele>36.0</ele><time>2026-04-18T10:25:38.368Z</time></trkpt><trkpt lat="33.4294781" lon="8.0608324"><ele>36.0</ele><time>2026-04-18T10:25:39.362Z</time></trkpt><trkpt lat="33.4295653" lon="8.0607429"><ele>36.0</ele><time>2026-04-18T10:25:40.354Z</time></trkpt><trkpt lat="33.4296459" lon="8.0606584"><ele>36.0</ele><time>2026-04-18T10:25:41.367Z</time></trkpt><trkpt lat="33.4297306" lon="8.0605732"><ele>36.0</ele><time>2026-04-18T10:25:42.357Z</time></trkpt><trkpt lat="33.4298159" lon="8.0604942"><ele>36.0</ele><time>2026-04-18T10:25:43.356Z</time></trkpt><trkpt lat="33.429897" lon="8.0604089"><ele>36.0</ele><time>2026-04-18T10:25:44.358Z</time></trkpt><trkpt lat="33.4299772" lon="8.0603226"><ele>36.0</ele><time>2026-04-18T10:25:45.358Z</time></trkpt><trkpt lat="33.4300623" lon="8.0602311"><ele>36.0</ele><time>2026-04-18T10:25:46.357Z</time></trkpt><trkpt lat="33.4301505" lon="8.0601409"><ele>36.0</ele><time>2026-04-18T10:25:47.352Z</time></trkpt><trkpt lat="33.4302413" lon="8.0600547"><ele>36.0</ele><time>2026-04-18T10:25:48.355Z</time></trkpt><trkpt lat="33.4303284" lon="8.0599699"><ele>36.0</ele><time>2026-04-18T10:25:49.361Z</time></trkpt><trkpt lat="33.4304121" lon="8.0598848"><ele>36.0</ele><time>2026-04-18T10:25:50.357Z</time></trkpt><trkpt lat="33.4304935" lon="8.0597959"><ele>36.0</ele><time>2026-04-18T10:25:51.36Z</time></trkpt><trkpt lat="33.4305772" lon="8.059705"><ele>36.0</ele><time>2026-04-18T10:25:52.359Z</time></trkpt><trkpt lat="33.4306643" lon="8.0596125"><ele>35.0</ele><time>2026-04-18T10:25:53.359Z</time></trkpt><trkpt lat="33.4307507" lon="8.0595191"><ele>34.0</ele><time>2026-04-18T10:25:54.354Z</time></trkpt><trkpt lat="33.4308327" lon="8.0594245"><ele>33.0</ele><time>2026-04-18T10:25:55.359Z</time></trkpt><trkpt lat="33.4309135" lon="8.0593324"><ele>32.0</ele><time>2026-04-18T10:25:56.354Z</time></trkpt><trkpt lat="33.430998" lon="8.0592491"><ele>32.0</ele><time>2026-04-18T10:25:57.357Z</time></trkpt><trkpt lat="33.4310859" lon="8.0591701"><ele>32.0</ele><time>2026-04-18T10:25:58.352Z</time></trkpt><trkpt lat="33.4311704" lon="8.0590952"><ele>32.0</ele><time>2026-04-18T10:25:59.36Z</time></trkpt><trkpt lat="33.4312511" lon="8.059024"><ele>32.0</ele><time>2026-04-18T10:26:00.353Z</time></trkpt><trkpt lat="33.4313324" lon="8.0589484"><ele>32.0</ele><time>2026-04-18T10:26:01.358Z</time></trkpt><trkpt lat="33.431411" lon="8.0588682"><ele>32.4</ele><time>2026-04-18T10:26:02.36Z</time></trkpt><trkpt lat="33.4314928" lon="8.0587859"><ele>32.800000000000004</ele><time>2026-04-18T10:26:03.363Z</time></trkpt><trkpt lat="33.4315743" lon="8.0587047"><ele>33.2</ele><time>2026-04-18T10:26:04.357Z</time></trkpt><trkpt lat="33.4316576" lon="8.0586222"><ele>33.6</ele><time>2026-04-18T10:26:05.363Z</time></trkpt><trkpt lat="33.4317467" lon="8.058533"><ele>34.0</ele><time>2026-04-18T10:26:06.365Z</time></trkpt><trkpt lat="33.4318395" lon="8.0584433"><ele>34.0</ele><time>2026-04-18T10:26:07.361Z</time></trkpt><trkpt lat="33.43193" lon="8.058351"><ele>34.0</ele><time>2026-04-18T10:26:08.36Z</time></trkpt><trkpt lat="33.4320157" lon="8.0582605"><ele>34.0</ele><time>2026-04-18T10:26:09.362Z</time></trkpt><trkpt lat="33.4321004" lon="8.0581726"><ele>34.0</ele><time>2026-04-18T10:26:10.361Z</time></trkpt><trkpt lat="33.4321867" lon="8.0580831"><ele>33.75</ele><time>2026-04-18T10:26:11.364Z</time></trkpt><trkpt lat="33.4322739" lon="8.0579938"><ele>33.5</ele><time>2026-04-18T10:26:12.353Z</time></trkpt><trkpt lat="33.4323572" lon="8.0579072"><ele>33.25</ele><time>2026-04-18T10:26:13.354Z</time></trkpt><trkpt lat="33.4324417" lon="8.0578152"><ele>33.0</ele><time>2026-04-18T10:26:14.362Z</time></trkpt><trkpt lat="33.4325256" lon="8.0577221"><ele>33.0</ele><time>2026-04-18T10:26:15.364Z</time></trkpt><trkpt lat="33.4326116" lon="8.0576293"><ele>33.0</ele><time>2026-04-18T10:26:16.355Z</time></trkpt><trkpt lat="33.4326977" lon="8.0575363"><ele>33.0</ele><time>2026-04-18T10:26:17.353Z</time></trkpt><trkpt lat="33.4327839" lon="8.0574494"><ele>33.0</ele><time>2026-04-18T10:26:18.354Z</time></trkpt><trkpt lat="33.4328737" lon="8.0573646"><ele>32.8</ele><time>2026-04-18T10:26:19.363Z</time></trkpt><trkpt lat="33.4329641" lon="8.0572777"><ele>32.599999999999994</ele><time>2026-04-18T10:26:20.356Z</time></trkpt><trkpt lat="33.4330476" lon="8.0571927"><ele>32.400000000000006</ele><time>2026-04-18T10:26:21.355Z</time></trkpt><trkpt lat="33.4331226" lon="8.0571116"><ele>32.2</ele><time>2026-04-18T10:26:22.353Z</time></trkpt><trkpt lat="33.4331954" lon="8.0570304"><ele>32.0</ele><time>2026-04-18T10:26:23.352Z</time></trkpt><trkpt lat="33.4332745" lon="8.0569463"><ele>32.0</ele><time>2026-04-18T10:26:24.358Z</time></trkpt><trkpt lat="33.4333589" lon="8.0568604"><ele>32.0</ele><time>2026-04-18T10:26:25.361Z</time></trkpt><trkpt lat="33.4334467" lon="8.0567712"><ele>32.0</ele><time>2026-04-18T10:26:26.36Z</time></trkpt><trkpt lat="33.4335344" lon="8.0566804"><ele>32.0</ele><time>2026-04-18T10:26:27.358Z</time></trkpt><trkpt lat="33.4336232" lon="8.0565893"><ele>32.0</ele><time>2026-04-18T10:26:28.365Z</time></trkpt><trkpt lat="33.4337121" lon="8.0564983"><ele>32.0</ele><time>2026-04-18T10:26:29.354Z</time></trkpt><trkpt lat="33.4338009" lon="8.0564088"><ele>32.0</ele><time>2026-04-18T10:26:30.355Z</time></trkpt><trkpt lat="33.433892" lon="8.0563148"><ele>32.0</ele><time>2026-04-18T10:26:31.357Z</time></trkpt><trkpt lat="33.4339831" lon="8.0562253"><ele>31.75</ele><time>2026-04-18T10:26:32.359Z</time></trkpt><trkpt lat="33.4340761" lon="8.0561345"><ele>31.5</ele><time>2026-04-18T10:26:33.358Z</time></trkpt><trkpt lat="33.43417" lon="8.0560429"><ele>31.25</ele><time>2026-04-18T10:26:34.362Z</time></trkpt><trkpt lat="33.4342648" lon="8.0559457"><ele>31.0</ele><time>2026-04-18T10:26:35.362Z</time></trkpt><trkpt lat="33.4343594" lon="8.0558454"><ele>31.25</ele><time>2026-04-18T10:26:36.362Z</time></trkpt><trkpt lat="33.4344575" lon="8.0557475"><ele>31.5</ele><time>2026-04-18T10:26:37.355Z</time></trkpt><trkpt lat="33.4345571" lon="8.0556479"><ele>31.75</ele><time>2026-04-18T10:26:38.357Z</time></trkpt><trkpt lat="33.4346551" lon="8.0555483"><ele>32.0</ele><time>2026-04-18T10:26:39.353Z</time></trkpt><trkpt lat="33.4347487" lon="8.0554527"><ele>32.6</ele><time>2026-04-18T10:26:40.357Z</time></trkpt><trkpt lat="33.4348326" lon="8.0553648"><ele>33.2</ele><time>2026-04-18T10:26:41.36Z</time></trkpt><trkpt lat="33.4349095" lon="8.0552843"><ele>33.8</ele><time>2026-04-18T10:26:42.362Z</time></trkpt><trkpt lat="33.4349778" lon="8.0552136"><ele>34.4</ele><time>2026-04-18T10:26:43.354Z</time></trkpt><trkpt lat="33.435038" lon="8.0551508"><ele>35.0</ele><time>2026-04-18T10:26:44.361Z</time></trkpt><trkpt lat="33.4351178" lon="8.0550713"><ele>35.0</ele><time>2026-04-18T10:26:46.359Z</time></trkpt><trkpt lat="33.4351784" lon="8.0550106"><ele>35.0</ele><time>2026-04-18T10:27:09.361Z</time></trkpt><trkpt lat="33.4352601" lon="8.0549315"><ele>35.0</ele><time>2026-04-18T10:27:11.362Z</time></trkpt><trkpt lat="33.4353174" lon="8.0548752"><ele>35.0</ele><time>2026-04-18T10:27:12.361Z</time></trkpt><trkpt lat="33.4353844" lon="8.0548035"><ele>35.0</ele><time>2026-04-18T10:27:13.352Z</time></trkpt><trkpt lat="33.4354544" lon="8.054729"><ele>35.0</ele><time>2026-04-18T10:27:14.355Z</time></trkpt><trkpt lat="33.4355293" lon="8.0546546"><ele>35.0</ele><time>2026-04-18T10:27:15.365Z</time></trkpt><trkpt lat="33.4356104" lon="8.0545768"><ele>35.0</ele><time>2026-04-18T10:27:16.359Z</time></trkpt><trkpt lat="33.4356916" lon="8.0544974"><ele>35.0</ele><time>2026-04-18T10:27:17.359Z</time></trkpt><trkpt lat="33.4357689" lon="8.054422"><ele>35.0</ele><time>2026-04-18T10:27:18.356Z</time></trkpt><trkpt lat="33.4358473" lon="8.054342"><ele>35.0</ele><time>2026-04-18T10:27:19.358Z</time></trkpt><trkpt lat="33.4359288" lon="8.0542612"><ele>35.0</ele><time>2026-04-18T10:27:20.355Z</time></trkpt><trkpt lat="33.4360046" lon="8.054182"><ele>35.0</ele><time>2026-04-18T10:27:21.352Z</time></trkpt><trkpt lat="33.4360749" lon="8.0541018"><ele>35.0</ele><time>2026-04-18T10:27:22.358Z</time></trkpt><trkpt lat="33.4361468" lon="8.0540238"><ele>35.0</ele><time>2026-04-18T10:27:23.355Z</time></trkpt><trkpt lat="33.4362215" lon="8.0539491"><ele>35.0</ele><time>2026-04-18T10:27:24.355Z</time></trkpt><trkpt lat="33.4363007" lon="8.053872"><ele>34.6</ele><time>2026-04-18T10:27:25.362Z</time></trkpt><trkpt lat="33.4363785" lon="8.0537966"><ele>34.2</ele><time>2026-04-18T10:27:26.369Z</time></trkpt><trkpt lat="33.4364485" lon="8.0537251"><ele>33.8</ele><time>2026-04-18T10:27:27.362Z</time></trkpt><trkpt lat="33.4365147" lon="8.0536523"><ele>33.4</ele><time>2026-04-18T10:27:28.364Z</time></trkpt><trkpt lat="33.4365827" lon="8.0535794"><ele>33.0</ele><time>2026-04-18T10:27:29.36Z</time></trkpt><trkpt lat="33.4366484" lon="8.0535126"><ele>33.0</ele><time>2026-04-18T10:27:30.354Z</time></trkpt><trkpt lat="33.4367179" lon="8.0534453"><ele>33.0</ele><time>2026-04-18T10:27:31.358Z</time></trkpt><trkpt lat="33.4367957" lon="8.0533691"><ele>33.0</ele><time>2026-04-18T10:27:32.358Z</time></trkpt><trkpt lat="33.4368783" lon="8.0532841"><ele>33.0</ele><time>2026-04-18T10:27:33.357Z</time></trkpt><trkpt lat="33.4369665" lon="8.0531945"><ele>33.0</ele><time>2026-04-18T10:27:34.354Z</time></trkpt><trkpt lat="33.4370572" lon="8.0531029"><ele>34.0</ele><time>2026-04-18T10:27:35.358Z</time></trkpt><trkpt lat="33.437151" lon="8.0530086"><ele>35.0</ele><time>2026-04-18T10:27:36.356Z</time></trkpt><trkpt lat="33.4372421" lon="8.0529168"><ele>36.0</ele><time>2026-04-18T10:27:37.354Z</time></trkpt><trkpt lat="33.4373324" lon="8.0528238"><ele>37.0</ele><time>2026-04-18T10:27:38.353Z</time></trkpt><trkpt lat="33.4374206" lon="8.0527297"><ele>37.0</ele><time>2026-04-18T10:27:39.357Z</time></trkpt><trkpt lat="33.4375061" lon="8.0526389"><ele>37.0</ele><time>2026-04-18T10:27:40.354Z</time></trkpt><trkpt lat="33.4375899" lon="8.0525487"><ele>37.0</ele><time>2026-04-18T10:27:41.359Z</time></trkpt><trkpt lat="33.4376789" lon="8.0524559"><ele>37.0</ele><time>2026-04-18T10:27:42.352Z</time></trkpt><trkpt lat="33.4377767" lon="8.0523587"><ele>36.25</ele><time>2026-04-18T10:27:43.356Z</time></trkpt><trkpt lat="33.4378753" lon="8.0522615"><ele>35.5</ele><time>2026-04-18T10:27:44.353Z</time></trkpt><trkpt lat="33.4379736" lon="8.0521616"><ele>34.75</ele><time>2026-04-18T10:27:45.354Z</time></trkpt><trkpt lat="33.4380749" lon="8.0520583"><ele>34.0</ele><time>2026-04-18T10:27:46.353Z</time></trkpt><trkpt lat="33.4381769" lon="8.0519575"><ele>33.75</ele><time>2026-04-18T10:27:47.356Z</time></trkpt><trkpt lat="33.4382765" lon="8.051856"><ele>33.5</ele><time>2026-04-18T10:27:48.35Z</time></trkpt><trkpt lat="33.4383778" lon="8.0517526"><ele>33.25</ele><time>2026-04-18T10:27:49.356Z</time></trkpt><trkpt lat="33.4384765" lon="8.0516518"><ele>33.0</ele><time>2026-04-18T10:27:50.353Z</time></trkpt><trkpt lat="33.4385711" lon="8.0515573"><ele>33.25</ele><time>2026-04-18T10:27:51.358Z</time></trkpt><trkpt lat="33.4386608" lon="8.0514661"><ele>33.5</ele><time>2026-04-18T10:27:52.365Z</time></trkpt><trkpt lat="33.4387523" lon="8.0513767"><ele>33.75</ele><time>2026-04-18T10:27:53.355Z</time></trkpt><trkpt lat="33.4388422" lon="8.0512883"><ele>34.0</ele><time>2026-04-18T10:27:54.359Z</time></trkpt><trkpt lat="33.4389314" lon="8.0511967"><ele>34.0</ele><time>2026-04-18T10:27:55.353Z</time></trkpt><trkpt lat="33.439018" lon="8.051105"><ele>34.0</ele><time>2026-04-18T10:27:56.361Z</time></trkpt><trkpt lat="33.4391004" lon="8.0510209"><ele>34.0</ele><time>2026-04-18T10:27:57.358Z</time></trkpt><trkpt lat="33.4391797" lon="8.0509435"><ele>34.0</ele><time>2026-04-18T10:27:58.356Z</time></trkpt><trkpt lat="33.4392608" lon="8.0508624"><ele>34.0</ele><time>2026-04-18T10:27:59.358Z</time></trkpt><trkpt lat="33.4393489" lon="8.0507763"><ele>33.8</ele><time>2026-04-18T10:28:00.363Z</time></trkpt><trkpt lat="33.4394308" lon="8.0506985"><ele>33.599999999999994</ele><time>2026-04-18T10:28:01.356Z</time></trkpt><trkpt lat="33.4395086" lon="8.0506209"><ele>33.4</ele><time>2026-04-18T10:28:02.362Z</time></trkpt><trkpt lat="33.439582" lon="8.0505415"><ele>33.199999999999996</ele><time>2026-04-18T10:28:03.352Z</time></trkpt><trkpt lat="33.4396557" lon="8.0504636"><ele>33.0</ele><time>2026-04-18T10:28:04.353Z</time></trkpt><trkpt lat="33.4397299" lon="8.0503873"><ele>33.0</ele><time>2026-04-18T10:28:05.356Z</time></trkpt><trkpt lat="33.4398053" lon="8.0503067"><ele>33.0</ele><time>2026-04-18T10:28:06.359Z</time></trkpt><trkpt lat="33.4398886" lon="8.0502225"><ele>33.0</ele><time>2026-04-18T10:28:07.359Z</time></trkpt><trkpt lat="33.4399795" lon="8.0501383"><ele>33.0</ele><time>2026-04-18T10:28:08.358Z</time></trkpt><trkpt lat="33.4400725" lon="8.0500535"><ele>33.0</ele><time>2026-04-18T10:28:09.37Z</time></trkpt><trkpt lat="33.4401636" lon="8.0499686"><ele>33.199999999999996</ele><time>2026-04-18T10:28:10.36Z</time></trkpt><trkpt lat="33.4402497" lon="8.0498857"><ele>33.4</ele><time>2026-04-18T10:28:11.362Z</time></trkpt><trkpt lat="33.4403334" lon="8.0498032"><ele>33.599999999999994</ele><time>2026-04-18T10:28:12.363Z</time></trkpt><trkpt lat="33.4404093" lon="8.0497248"><ele>33.8</ele><time>2026-04-18T10:28:13.363Z</time></trkpt><trkpt lat="33.440481" lon="8.049648"><ele>34.0</ele><time>2026-04-18T10:28:14.382Z</time></trkpt><trkpt lat="33.4405512" lon="8.0495713"><ele>34.0</ele><time>2026-04-18T10:28:15.361Z</time></trkpt><trkpt lat="33.4406241" lon="8.0494973"><ele>34.0</ele><time>2026-04-18T10:28:16.36Z</time></trkpt><trkpt lat="33.4407011" lon="8.049427"><ele>34.0</ele><time>2026-04-18T10:28:17.362Z</time></trkpt><trkpt lat="33.4407762" lon="8.0493523"><ele>34.0</ele><time>2026-04-18T10:28:18.364Z</time></trkpt><trkpt lat="33.4408483" lon="8.0492787"><ele>34.0</ele><time>2026-04-18T10:28:19.363Z</time></trkpt><trkpt lat="33.4409153" lon="8.0491969"><ele>34.0</ele><time>2026-04-18T10:28:20.36Z</time></trkpt><trkpt lat="33.4409845" lon="8.0491139"><ele>34.0</ele><time>2026-04-18T10:28:21.363Z</time></trkpt><trkpt lat="33.4410554" lon="8.0490366"><ele>34.0</ele><time>2026-04-18T10:28:22.361Z</time></trkpt><trkpt lat="33.4411319" lon="8.0489574"><ele>34.0</ele><time>2026-04-18T10:28:23.354Z</time></trkpt><trkpt lat="33.4412166" lon="8.0488802"><ele>34.0</ele><time>2026-04-18T10:28:24.357Z</time></trkpt><trkpt lat="33.4413076" lon="8.0488035"><ele>34.0</ele><time>2026-04-18T10:28:25.359Z</time></trkpt><trkpt lat="33.4413956" lon="8.0487287"><ele>34.0</ele><time>2026-04-18T10:28:26.354Z</time></trkpt><trkpt lat="33.4414806" lon="8.0486482"><ele>34.0</ele><time>2026-04-18T10:28:27.355Z</time></trkpt><trkpt lat="33.4415633" lon="8.048562"><ele>34.0</ele><time>2026-04-18T10:28:28.361Z</time></trkpt><trkpt lat="33.4416462" lon="8.048475"><ele>34.0</ele><time>2026-04-18T10:28:29.355Z</time></trkpt><trkpt lat="33.4417267" lon="8.0483901"><ele>34.0</ele><time>2026-04-18T10:28:30.366Z</time></trkpt><trkpt lat="33.4418021" lon="8.048312"><ele>34.0</ele><time>2026-04-18T10:28:31.36Z</time></trkpt><trkpt lat="33.4418776" lon="8.0482375"><ele>34.0</ele><time>2026-04-18T10:28:32.354Z</time></trkpt><trkpt lat="33.4419576" lon="8.0481564"><ele>34.0</ele><time>2026-04-18T10:28:33.355Z</time></trkpt><trkpt lat="33.442042" lon="8.0480712"><ele>34.0</ele><time>2026-04-18T10:28:34.354Z</time></trkpt><trkpt lat="33.4421292" lon="8.0479835"><ele>34.2</ele><time>2026-04-18T10:28:35.362Z</time></trkpt><trkpt lat="33.4422146" lon="8.0478986"><ele>34.4</ele><time>2026-04-18T10:28:36.355Z</time></trkpt><trkpt lat="33.4423016" lon="8.0478135"><ele>34.6</ele><time>2026-04-18T10:28:37.357Z</time></trkpt><trkpt lat="33.4423885" lon="8.0477295"><ele>34.8</ele><time>2026-04-18T10:28:38.354Z</time></trkpt><trkpt lat="33.4424734" lon="8.047641"><ele>35.0</ele><time>2026-04-18T10:28:39.359Z</time></trkpt><trkpt lat="33.4425604" lon="8.047548"><ele>34.75</ele><time>2026-04-18T10:28:40.357Z</time></trkpt><trkpt lat="33.4426517" lon="8.0474592"><ele>34.5</ele><time>2026-04-18T10:28:41.357Z</time></trkpt><trkpt lat="33.4427416" lon="8.0473705"><ele>34.25</ele><time>2026-04-18T10:28:42.358Z</time></trkpt><trkpt lat="33.4428271" lon="8.0472852"><ele>34.0</ele><time>2026-04-18T10:28:43.356Z</time></trkpt><trkpt lat="33.4429116" lon="8.047201"><ele>33.5</ele><time>2026-04-18T10:28:44.356Z</time></trkpt><trkpt lat="33.4430002" lon="8.0471102"><ele>33.0</ele><time>2026-04-18T10:28:45.358Z</time></trkpt><trkpt lat="33.4430992" lon="8.0470123"><ele>32.5</ele><time>2026-04-18T10:28:46.357Z</time></trkpt><trkpt lat="33.443201" lon="8.0469088"><ele>32.0</ele><time>2026-04-18T10:28:47.356Z</time></trkpt><trkpt lat="33.443304" lon="8.0468049"><ele>32.0</ele><time>2026-04-18T10:28:48.351Z</time></trkpt><trkpt lat="33.443412" lon="8.0466937"><ele>32.0</ele><time>2026-04-18T10:28:49.357Z</time></trkpt><trkpt lat="33.4435221" lon="8.0465837"><ele>32.0</ele><time>2026-04-18T10:28:50.357Z</time></trkpt><trkpt lat="33.44363" lon="8.0464754"><ele>32.0</ele><time>2026-04-18T10:28:51.36Z</time></trkpt><trkpt lat="33.4437335" lon="8.0463689"><ele>32.5</ele><time>2026-04-18T10:28:52.356Z</time></trkpt><trkpt lat="33.4438309" lon="8.0462704"><ele>33.0</ele><time>2026-04-18T10:28:53.354Z</time></trkpt><trkpt lat="33.4439255" lon="8.0461753"><ele>33.5</ele><time>2026-04-18T10:28:54.355Z</time></trkpt><trkpt lat="33.4440224" lon="8.0460794"><ele>34.0</ele><time>2026-04-18T10:28:55.356Z</time></trkpt><trkpt lat="33.4441244" lon="8.0459823"><ele>34.0</ele><time>2026-04-18T10:28:56.36Z</time></trkpt><trkpt lat="33.4442265" lon="8.0458815"><ele>34.0</ele><time>2026-04-18T10:28:57.359Z</time></trkpt><trkpt lat="33.4443308" lon="8.045779"><ele>34.0</ele><time>2026-04-18T10:28:58.358Z</time></trkpt><trkpt lat="33.4444339" lon="8.0456793"><ele>34.0</ele><time>2026-04-18T10:28:59.353Z</time></trkpt><trkpt lat="33.4445344" lon="8.0455805"><ele>34.5</ele><time>2026-04-18T10:29:00.359Z</time></trkpt><trkpt lat="33.4446345" lon="8.0454798"><ele>35.0</ele><time>2026-04-18T10:29:01.361Z</time></trkpt><trkpt lat="33.4447373" lon="8.0453703"><ele>35.5</ele><time>2026-04-18T10:29:02.357Z</time></trkpt><trkpt lat="33.4448421" lon="8.0452597"><ele>36.0</ele><time>2026-04-18T10:29:03.359Z</time></trkpt><trkpt lat="33.4449422" lon="8.0451543"><ele>36.0</ele><time>2026-04-18T10:29:04.362Z</time></trkpt><trkpt lat="33.4450403" lon="8.045054"><ele>36.0</ele><time>2026-04-18T10:29:05.359Z</time></trkpt><trkpt lat="33.4451391" lon="8.0449566"><ele>36.0</ele><time>2026-04-18T10:29:06.359Z</time></trkpt><trkpt lat="33.4452404" lon="8.0448563"><ele>36.0</ele><time>2026-04-18T10:29:07.358Z</time></trkpt><trkpt lat="33.445346" lon="8.0447517"><ele>35.0</ele><time>2026-04-18T10:29:08.364Z</time></trkpt><trkpt lat="33.4454558" lon="8.0446422"><ele>34.0</ele><time>2026-04-18T10:29:09.355Z</time></trkpt><trkpt lat="33.4455677" lon="8.0445315"><ele>33.0</ele><time>2026-04-18T10:29:10.364Z</time></trkpt><trkpt lat="33.44568" lon="8.0444186"><ele>32.0</ele><time>2026-04-18T10:29:11.36Z</time></trkpt><trkpt lat="33.4457915" lon="8.0443081"><ele>32.0</ele><time>2026-04-18T10:29:12.36Z</time></trkpt><trkpt lat="33.4459015" lon="8.0441959"><ele>32.0</ele><time>2026-04-18T10:29:13.362Z</time></trkpt><trkpt lat="33.4460121" lon="8.0440817"><ele>32.0</ele><time>2026-04-18T10:29:14.362Z</time></trkpt><trkpt lat="33.4461247" lon="8.0439685"><ele>32.0</ele><time>2026-04-18T10:29:15.359Z</time></trkpt><trkpt lat="33.4462378" lon="8.0438583"><ele>32.5</ele><time>2026-04-18T10:29:16.359Z</time></trkpt><trkpt lat="33.4463466" lon="8.0437487"><ele>33.0</ele><time>2026-04-18T10:29:17.354Z</time></trkpt><trkpt lat="33.4464491" lon="8.0436408"><ele>33.5</ele><time>2026-04-18T10:29:18.357Z</time></trkpt><trkpt lat="33.4465513" lon="8.0435347"><ele>34.0</ele><time>2026-04-18T10:29:19.36Z</time></trkpt><trkpt lat="33.4466575" lon="8.0434275"><ele>34.0</ele><time>2026-04-18T10:29:20.354Z</time></trkpt><trkpt lat="33.4467697" lon="8.0433177"><ele>34.0</ele><time>2026-04-18T10:29:21.357Z</time></trkpt><trkpt lat="33.4468857" lon="8.0432063"><ele>34.0</ele><time>2026-04-18T10:29:22.359Z</time></trkpt><trkpt lat="33.4469971" lon="8.0430937"><ele>34.0</ele><time>2026-04-18T10:29:23.356Z</time></trkpt><trkpt lat="33.4471055" lon="8.0429818"><ele>33.5</ele><time>2026-04-18T10:29:24.358Z</time></trkpt><trkpt lat="33.4472145" lon="8.0428706"><ele>33.0</ele><time>2026-04-18T10:29:25.364Z</time></trkpt><trkpt lat="33.4473242" lon="8.0427606"><ele>32.5</ele><time>2026-04-18T10:29:26.362Z</time></trkpt><trkpt lat="33.447434" lon="8.0426497"><ele>32.0</ele><time>2026-04-18T10:29:27.355Z</time></trkpt><trkpt lat="33.4475398" lon="8.0425402"><ele>32.25</ele><time>2026-04-18T10:29:28.362Z</time></trkpt><trkpt lat="33.4476456" lon="8.0424334"><ele>32.5</ele><time>2026-04-18T10:29:29.352Z</time></trkpt><trkpt lat="33.4477508" lon="8.0423295"><ele>32.75</ele><time>2026-04-18T10:29:30.358Z</time></trkpt><trkpt lat="33.447858" lon="8.0422244"><ele>33.0</ele><time>2026-04-18T10:29:31.356Z</time></trkpt><trkpt lat="33.4479678" lon="8.0421133"><ele>33.25</ele><time>2026-04-18T10:29:32.366Z</time></trkpt><trkpt lat="33.4480769" lon="8.0420007"><ele>33.5</ele><time>2026-04-18T10:29:33.37Z</time></trkpt><trkpt lat="33.448186" lon="8.0418906"><ele>33.75</ele><time>2026-04-18T10:29:34.363Z</time></trkpt><trkpt lat="33.4482957" lon="8.041779"><ele>34.0</ele><time>2026-04-18T10:29:35.354Z</time></trkpt><trkpt lat="33.4484064" lon="8.0416668"><ele>34.0</ele><time>2026-04-18T10:29:36.357Z</time></trkpt><trkpt lat="33.4485138" lon="8.0415581"><ele>34.0</ele><time>2026-04-18T10:29:37.358Z</time></trkpt><trkpt lat="33.4486177" lon="8.0414515"><ele>34.0</ele><time>2026-04-18T10:29:38.358Z</time></trkpt><trkpt lat="33.4487195" lon="8.0413495"><ele>34.0</ele><time>2026-04-18T10:29:39.357Z</time></trkpt><trkpt lat="33.4488172" lon="8.0412556"><ele>34.0</ele><time>2026-04-18T10:29:40.357Z</time></trkpt><trkpt lat="33.4489041" lon="8.0411712"><ele>34.0</ele><time>2026-04-18T10:29:41.362Z</time></trkpt><trkpt lat="33.4489762" lon="8.0410926"><ele>34.0</ele><time>2026-04-18T10:29:42.361Z</time></trkpt><trkpt lat="33.4490428" lon="8.0410199"><ele>34.0</ele><time>2026-04-18T10:29:43.359Z</time></trkpt><trkpt lat="33.4491101" lon="8.040945"><ele>34.0</ele><time>2026-04-18T10:29:44.361Z</time></trkpt><trkpt lat="33.4491838" lon="8.0408668"><ele>33.6</ele><time>2026-04-18T10:29:45.357Z</time></trkpt><trkpt lat="33.4492654" lon="8.0407897"><ele>33.2</ele><time>2026-04-18T10:29:46.36Z</time></trkpt><trkpt lat="33.449352" lon="8.040712"><ele>32.800000000000004</ele><time>2026-04-18T10:29:47.354Z</time></trkpt><trkpt lat="33.4494418" lon="8.040629"><ele>32.4</ele><time>2026-04-18T10:29:48.361Z</time></trkpt><trkpt lat="33.4495331" lon="8.0405472"><ele>32.0</ele><time>2026-04-18T10:29:49.361Z</time></trkpt><trkpt lat="33.449624" lon="8.0404665"><ele>32.2</ele><time>2026-04-18T10:29:50.353Z</time></trkpt><trkpt lat="33.4497145" lon="8.0403879"><ele>32.400000000000006</ele><time>2026-04-18T10:29:51.36Z</time></trkpt><trkpt lat="33.4498022" lon="8.0403172"><ele>32.599999999999994</ele><time>2026-04-18T10:29:52.355Z</time></trkpt><trkpt lat="33.449883" lon="8.0402459"><ele>32.8</ele><time>2026-04-18T10:29:53.353Z</time></trkpt><trkpt lat="33.4499513" lon="8.0401736"><ele>33.0</ele><time>2026-04-18T10:29:54.363Z</time></trkpt><trkpt lat="33.4500118" lon="8.0400996"><ele>33.0</ele><time>2026-04-18T10:29:55.357Z</time></trkpt><trkpt lat="33.4500704" lon="8.0400242"><ele>33.0</ele><time>2026-04-18T10:29:56.357Z</time></trkpt><trkpt lat="33.4501234" lon="8.0399617"><ele>33.0</ele><time>2026-04-18T10:29:57.36Z</time></trkpt><trkpt lat="33.450172" lon="8.0399108"><ele>33.0</ele><time>2026-04-18T10:29:58.36Z</time></trkpt><trkpt lat="33.4502573" lon="8.0398274"><ele>33.0</ele><time>2026-04-18T10:30:00.357Z</time></trkpt><trkpt lat="33.4503423" lon="8.039738"><ele>33.0</ele><time>2026-04-18T10:30:02.356Z</time></trkpt><trkpt lat="33.4503926" lon="8.0396867"><ele>33.0</ele><time>2026-04-18T10:30:03.357Z</time></trkpt><trkpt lat="33.4504465" lon="8.0396313"><ele>33.0</ele><time>2026-04-18T10:30:04.36Z</time></trkpt><trkpt lat="33.4504998" lon="8.0395767"><ele>33.0</ele><time>2026-04-18T10:30:05.357Z</time></trkpt><trkpt lat="33.4505514" lon="8.0395236"><ele>33.0</ele><time>2026-04-18T10:30:06.365Z</time></trkpt><trkpt lat="33.4506403" lon="8.0394305"><ele>33.0</ele><time>2026-04-18T10:30:08.359Z</time></trkpt><trkpt lat="33.4507292" lon="8.0393375"><ele>33.0</ele><time>2026-04-18T10:30:10.358Z</time></trkpt><trkpt lat="33.4507881" lon="8.039281"><ele>33.199999999999996</ele><time>2026-04-18T10:30:11.36Z</time></trkpt><trkpt lat="33.4508519" lon="8.0392201"><ele>33.4</ele><time>2026-04-18T10:30:12.369Z</time></trkpt><trkpt lat="33.4509197" lon="8.0391548"><ele>33.599999999999994</ele><time>2026-04-18T10:30:13.365Z</time></trkpt><trkpt lat="33.4509904" lon="8.0390843"><ele>33.8</ele><time>2026-04-18T10:30:14.358Z</time></trkpt><trkpt lat="33.4510624" lon="8.0390082"><ele>34.0</ele><time>2026-04-18T10:30:15.356Z</time></trkpt><trkpt lat="33.4511369" lon="8.0389287"><ele>34.0</ele><time>2026-04-18T10:30:16.358Z</time></trkpt><trkpt lat="33.4512088" lon="8.0388525"><ele>34.0</ele><time>2026-04-18T10:30:17.36Z</time></trkpt><trkpt lat="33.4512783" lon="8.0387793"><ele>34.0</ele><time>2026-04-18T10:30:18.354Z</time></trkpt><trkpt lat="33.4513582" lon="8.0387003"><ele>34.0</ele><time>2026-04-18T10:30:19.356Z</time></trkpt><trkpt lat="33.4514458" lon="8.0386085"><ele>34.0</ele><time>2026-04-18T10:30:20.354Z</time></trkpt><trkpt lat="33.4515405" lon="8.0385153"><ele>34.0</ele><time>2026-04-18T10:30:21.363Z</time></trkpt><trkpt lat="33.4516388" lon="8.0384175"><ele>34.0</ele><time>2026-04-18T10:30:22.363Z</time></trkpt><trkpt lat="33.4517362" lon="8.038321"><ele>34.0</ele><time>2026-04-18T10:30:23.356Z</time></trkpt><trkpt lat="33.4518355" lon="8.0382233"><ele>34.0</ele><time>2026-04-18T10:30:24.36Z</time></trkpt><trkpt lat="33.4519341" lon="8.0381252"><ele>34.0</ele><time>2026-04-18T10:30:25.364Z</time></trkpt><trkpt lat="33.4520337" lon="8.0380286"><ele>34.0</ele><time>2026-04-18T10:30:26.368Z</time></trkpt><trkpt lat="33.4521349" lon="8.037931"><ele>34.0</ele><time>2026-04-18T10:30:27.359Z</time></trkpt><trkpt lat="33.4522362" lon="8.0378339"><ele>34.0</ele><time>2026-04-18T10:30:28.36Z</time></trkpt><trkpt lat="33.4523301" lon="8.0377416"><ele>34.0</ele><time>2026-04-18T10:30:29.362Z</time></trkpt><trkpt lat="33.4524151" lon="8.0376552"><ele>34.0</ele><time>2026-04-18T10:30:30.359Z</time></trkpt><trkpt lat="33.4524963" lon="8.0375696"><ele>34.0</ele><time>2026-04-18T10:30:31.353Z</time></trkpt><trkpt lat="33.4525762" lon="8.0374843"><ele>34.0</ele><time>2026-04-18T10:30:32.355Z</time></trkpt><trkpt lat="33.4526508" lon="8.0374048"><ele>34.0</ele><time>2026-04-18T10:30:33.36Z</time></trkpt><trkpt lat="33.4527171" lon="8.0373305"><ele>34.0</ele><time>2026-04-18T10:30:34.356Z</time></trkpt><trkpt lat="33.4527684" lon="8.0372649"><ele>34.0</ele><time>2026-04-18T10:30:35.358Z</time></trkpt><trkpt lat="33.452837" lon="8.0371815"><ele>34.0</ele><time>2026-04-18T10:30:37.365Z</time></trkpt><trkpt lat="33.4529062" lon="8.0371421"><ele>34.0</ele><time>2026-04-18T10:30:45.356Z</time></trkpt><trkpt lat="33.4529948" lon="8.0370763"><ele>34.0</ele><time>2026-04-18T10:30:47.367Z</time></trkpt><trkpt lat="33.4530445" lon="8.0370294"><ele>34.0</ele><time>2026-04-18T10:30:48.363Z</time></trkpt><trkpt lat="33.4530997" lon="8.0369717"><ele>33.8</ele><time>2026-04-18T10:30:49.357Z</time></trkpt><trkpt lat="33.4531628" lon="8.0369049"><ele>33.599999999999994</ele><time>2026-04-18T10:30:50.355Z</time></trkpt><trkpt lat="33.4532319" lon="8.0368327"><ele>33.4</ele><time>2026-04-18T10:30:51.355Z</time></trkpt><trkpt lat="33.4533097" lon="8.0367539"><ele>33.199999999999996</ele><time>2026-04-18T10:30:52.359Z</time></trkpt><trkpt lat="33.453393" lon="8.0366685"><ele>33.0</ele><time>2026-04-18T10:30:53.359Z</time></trkpt><trkpt lat="33.4534844" lon="8.0365759"><ele>33.0</ele><time>2026-04-18T10:30:54.355Z</time></trkpt><trkpt lat="33.4535849" lon="8.036474"><ele>33.0</ele><time>2026-04-18T10:30:55.358Z</time></trkpt><trkpt lat="33.4536873" lon="8.0363659"><ele>33.0</ele><time>2026-04-18T10:30:56.357Z</time></trkpt><trkpt lat="33.453789" lon="8.0362628"><ele>33.0</ele><time>2026-04-18T10:30:57.359Z</time></trkpt><trkpt lat="33.4538892" lon="8.0361683"><ele>33.0</ele><time>2026-04-18T10:30:58.359Z</time></trkpt><trkpt lat="33.4539835" lon="8.0360737"><ele>33.0</ele><time>2026-04-18T10:30:59.357Z</time></trkpt><trkpt lat="33.4540711" lon="8.0359796"><ele>33.0</ele><time>2026-04-18T10:31:00.356Z</time></trkpt><trkpt lat="33.4541621" lon="8.0358928"><ele>33.0</ele><time>2026-04-18T10:31:01.357Z</time></trkpt><trkpt lat="33.4542518" lon="8.0358068"><ele>33.0</ele><time>2026-04-18T10:31:02.353Z</time></trkpt><trkpt lat="33.4543405" lon="8.0357205"><ele>33.0</ele><time>2026-04-18T10:31:03.355Z</time></trkpt><trkpt lat="33.4544298" lon="8.0356297"><ele>33.0</ele><time>2026-04-18T10:31:04.361Z</time></trkpt><trkpt lat="33.4545105" lon="8.0355415"><ele>33.0</ele><time>2026-04-18T10:31:05.365Z</time></trkpt><trkpt lat="33.4545885" lon="8.0354529"><ele>33.0</ele><time>2026-04-18T10:31:06.365Z</time></trkpt><trkpt lat="33.4546691" lon="8.0353639"><ele>33.0</ele><time>2026-04-18T10:31:07.357Z</time></trkpt><trkpt lat="33.4547519" lon="8.0352778"><ele>33.0</ele><time>2026-04-18T10:31:08.354Z</time></trkpt><trkpt lat="33.4548361" lon="8.0351948"><ele>33.0</ele><time>2026-04-18T10:31:09.36Z</time></trkpt><trkpt lat="33.4549213" lon="8.03511"><ele>33.0</ele><time>2026-04-18T10:31:10.365Z</time></trkpt><trkpt lat="33.4550044" lon="8.0350243"><ele>33.0</ele><time>2026-04-18T10:31:11.359Z</time></trkpt><trkpt lat="33.4550876" lon="8.0349416"><ele>33.0</ele><time>2026-04-18T10:31:12.365Z</time></trkpt><trkpt lat="33.4551709" lon="8.0348596"><ele>33.0</ele><time>2026-04-18T10:31:13.362Z</time></trkpt><trkpt lat="33.4552502" lon="8.0347809"><ele>33.0</ele><time>2026-04-18T10:31:14.368Z</time></trkpt><trkpt lat="33.4553203" lon="8.0347095"><ele>33.0</ele><time>2026-04-18T10:31:15.354Z</time></trkpt><trkpt lat="33.4553818" lon="8.0346473"><ele>33.0</ele><time>2026-04-18T10:31:16.357Z</time></trkpt><trkpt lat="33.4554394" lon="8.0345907"><ele>33.166666666666664</ele><time>2026-04-18T10:31:17.36Z</time></trkpt><trkpt lat="33.4555019" lon="8.0345351"><ele>33.333333333333336</ele><time>2026-04-18T10:31:18.356Z</time></trkpt><trkpt lat="33.4555647" lon="8.0344758"><ele>33.5</ele><time>2026-04-18T10:31:19.359Z</time></trkpt><trkpt lat="33.4556278" lon="8.034412"><ele>33.66666666666667</ele><time>2026-04-18T10:31:20.358Z</time></trkpt><trkpt lat="33.4556936" lon="8.0343404"><ele>33.833333333333336</ele><time>2026-04-18T10:31:21.361Z</time></trkpt><trkpt lat="33.4557608" lon="8.0342657"><ele>34.0</ele><time>2026-04-18T10:31:22.355Z</time></trkpt><trkpt lat="33.4558294" lon="8.0341951"><ele>34.0</ele><time>2026-04-18T10:31:23.359Z</time></trkpt><trkpt lat="33.4558988" lon="8.0341282"><ele>34.0</ele><time>2026-04-18T10:31:24.365Z</time></trkpt><trkpt lat="33.4559728" lon="8.0340593"><ele>34.0</ele><time>2026-04-18T10:31:25.354Z</time></trkpt><trkpt lat="33.4560521" lon="8.0339885"><ele>34.0</ele><time>2026-04-18T10:31:26.366Z</time></trkpt><trkpt lat="33.4561338" lon="8.0339137"><ele>34.0</ele><time>2026-04-18T10:31:27.359Z</time></trkpt><trkpt lat="33.4562112" lon="8.0338346"><ele>34.0</ele><time>2026-04-18T10:31:28.356Z</time></trkpt><trkpt lat="33.456286" lon="8.0337546"><ele>34.0</ele><time>2026-04-18T10:31:29.359Z</time></trkpt><trkpt lat="33.4563624" lon="8.0336817"><ele>34.0</ele><time>2026-04-18T10:31:30.354Z</time></trkpt><trkpt lat="33.4564382" lon="8.0336083"><ele>34.0</ele><time>2026-04-18T10:31:31.364Z</time></trkpt><trkpt lat="33.4565149" lon="8.0335313"><ele>34.0</ele><time>2026-04-18T10:31:32.357Z</time></trkpt><trkpt lat="33.4565933" lon="8.0334546"><ele>33.6</ele><time>2026-04-18T10:31:33.358Z</time></trkpt><trkpt lat="33.4566697" lon="8.0333791"><ele>33.2</ele><time>2026-04-18T10:31:34.358Z</time></trkpt><trkpt lat="33.4567431" lon="8.0333064"><ele>32.800000000000004</ele><time>2026-04-18T10:31:35.361Z</time></trkpt><trkpt lat="33.4568154" lon="8.0332352"><ele>32.4</ele><time>2026-04-18T10:31:36.36Z</time></trkpt><trkpt lat="33.4568939" lon="8.0331629"><ele>32.0</ele><time>2026-04-18T10:31:37.356Z</time></trkpt><trkpt lat="33.4569723" lon="8.0330883"><ele>32.0</ele><time>2026-04-18T10:31:38.357Z</time></trkpt><trkpt lat="33.4570505" lon="8.0330129"><ele>32.0</ele><time>2026-04-18T10:31:39.362Z</time></trkpt><trkpt lat="33.4571267" lon="8.032937"><ele>32.0</ele><time>2026-04-18T10:31:40.356Z</time></trkpt><trkpt lat="33.457201" lon="8.0328633"><ele>32.0</ele><time>2026-04-18T10:31:41.377Z</time></trkpt><trkpt lat="33.4572734" lon="8.0327944"><ele>32.0</ele><time>2026-04-18T10:31:42.364Z</time></trkpt><trkpt lat="33.4573446" lon="8.0327266"><ele>32.33333333333333</ele><time>2026-04-18T10:31:43.36Z</time></trkpt><trkpt lat="33.4574143" lon="8.0326565"><ele>32.666666666666664</ele><time>2026-04-18T10:31:44.358Z</time></trkpt><trkpt lat="33.4574805" lon="8.0325882"><ele>33.0</ele><time>2026-04-18T10:31:45.356Z</time></trkpt><trkpt lat="33.4575451" lon="8.03252"><ele>33.333333333333336</ele><time>2026-04-18T10:31:46.357Z</time></trkpt><trkpt lat="33.4576081" lon="8.0324539"><ele>33.66666666666667</ele><time>2026-04-18T10:31:47.36Z</time></trkpt><trkpt lat="33.4576753" lon="8.0323838"><ele>34.0</ele><time>2026-04-18T10:31:48.359Z</time></trkpt><trkpt lat="33.4577454" lon="8.0323085"><ele>34.0</ele><time>2026-04-18T10:31:49.365Z</time></trkpt><trkpt lat="33.457804" lon="8.0322465"><ele>34.0</ele><time>2026-04-18T10:31:50.361Z</time></trkpt><trkpt lat="33.457854" lon="8.0321914"><ele>34.0</ele><time>2026-04-18T10:31:51.36Z</time></trkpt><trkpt lat="33.457903" lon="8.0321376"><ele>34.0</ele><time>2026-04-18T10:31:52.357Z</time></trkpt><trkpt lat="33.4579591" lon="8.0320808"><ele>34.0</ele><time>2026-04-18T10:31:53.353Z</time></trkpt><trkpt lat="33.4580278" lon="8.0320189"><ele>34.0</ele><time>2026-04-18T10:31:54.36Z</time></trkpt><trkpt lat="33.4580916" lon="8.0319579"><ele>33.857142857142854</ele><time>2026-04-18T10:31:55.359Z</time></trkpt><trkpt lat="33.4581522" lon="8.0318899"><ele>33.714285714285715</ele><time>2026-04-18T10:31:56.365Z</time></trkpt><trkpt lat="33.4582111" lon="8.0318181"><ele>33.57142857142857</ele><time>2026-04-18T10:31:57.356Z</time></trkpt><trkpt lat="33.4582659" lon="8.0317499"><ele>33.42857142857143</ele><time>2026-04-18T10:31:58.366Z</time></trkpt><trkpt lat="33.4583123" lon="8.0316879"><ele>33.285714285714285</ele><time>2026-04-18T10:31:59.36Z</time></trkpt><trkpt lat="33.4583563" lon="8.0316309"><ele>33.14285714285714</ele><time>2026-04-18T10:32:00.359Z</time></trkpt><trkpt lat="33.4584068" lon="8.0315743"><ele>33.0</ele><time>2026-04-18T10:32:01.359Z</time></trkpt><trkpt lat="33.4584675" lon="8.0315174"><ele>33.0</ele><time>2026-04-18T10:32:02.358Z</time></trkpt><trkpt lat="33.458534" lon="8.0314635"><ele>33.0</ele><time>2026-04-18T10:32:03.372Z</time></trkpt><trkpt lat="33.4586026" lon="8.031408"><ele>33.0</ele><time>2026-04-18T10:32:04.369Z</time></trkpt><trkpt lat="33.4586631" lon="8.0313503"><ele>33.0</ele><time>2026-04-18T10:32:05.358Z</time></trkpt><trkpt lat="33.4587267" lon="8.0312844"><ele>33.0</ele><time>2026-04-18T10:32:06.361Z</time></trkpt><trkpt lat="33.4588013" lon="8.0312089"><ele>33.0</ele><time>2026-04-18T10:32:07.363Z</time></trkpt><trkpt lat="33.4588807" lon="8.031136"><ele>32.8</ele><time>2026-04-18T10:32:08.352Z</time></trkpt><trkpt lat="33.4589543" lon="8.031064"><ele>32.599999999999994</ele><time>2026-04-18T10:32:09.363Z</time></trkpt><trkpt lat="33.4590245" lon="8.0309918"><ele>32.400000000000006</ele><time>2026-04-18T10:32:10.355Z</time></trkpt><trkpt lat="33.4590946" lon="8.0309192"><ele>32.2</ele><time>2026-04-18T10:32:11.361Z</time></trkpt><trkpt lat="33.4591636" lon="8.030848"><ele>32.0</ele><time>2026-04-18T10:32:12.358Z</time></trkpt><trkpt lat="33.4592301" lon="8.0307786"><ele>31.833333333333332</ele><time>2026-04-18T10:32:13.357Z</time></trkpt><trkpt lat="33.4592952" lon="8.0307096"><ele>31.666666666666664</ele><time>2026-04-18T10:32:14.365Z</time></trkpt><trkpt lat="33.4593589" lon="8.0306419"><ele>31.5</ele><time>2026-04-18T10:32:15.352Z</time></trkpt><trkpt lat="33.4594192" lon="8.0305753"><ele>31.333333333333336</ele><time>2026-04-18T10:32:16.36Z</time></trkpt><trkpt lat="33.4594755" lon="8.0305092"><ele>31.166666666666668</ele><time>2026-04-18T10:32:17.358Z</time></trkpt><trkpt lat="33.4595303" lon="8.0304444"><ele>31.0</ele><time>2026-04-18T10:32:18.357Z</time></trkpt><trkpt lat="33.4595862" lon="8.0303844"><ele>31.500000000000004</ele><time>2026-04-18T10:32:19.363Z</time></trkpt><trkpt lat="33.4596431" lon="8.0303311"><ele>32.0</ele><time>2026-04-18T10:32:20.358Z</time></trkpt><trkpt lat="33.4596986" lon="8.0302801"><ele>32.5</ele><time>2026-04-18T10:32:21.366Z</time></trkpt><trkpt lat="33.4597499" lon="8.0302301"><ele>33.0</ele><time>2026-04-18T10:32:22.362Z</time></trkpt><trkpt lat="33.459805" lon="8.0301795"><ele>33.5</ele><time>2026-04-18T10:32:23.354Z</time></trkpt><trkpt lat="33.4598712" lon="8.0301157"><ele>34.0</ele><time>2026-04-18T10:32:24.359Z</time></trkpt><trkpt lat="33.4599435" lon="8.0300397"><ele>34.2</ele><time>2026-04-18T10:32:25.359Z</time></trkpt><trkpt lat="33.4600189" lon="8.0299627"><ele>34.4</ele><time>2026-04-18T10:32:26.362Z</time></trkpt><trkpt lat="33.460095" lon="8.029887"><ele>34.6</ele><time>2026-04-18T10:32:27.355Z</time></trkpt><trkpt lat="33.460171" lon="8.029808"><ele>34.8</ele><time>2026-04-18T10:32:28.362Z</time></trkpt><trkpt lat="33.4602464" lon="8.0297257"><ele>35.0</ele><time>2026-04-18T10:32:29.367Z</time></trkpt><trkpt lat="33.4603193" lon="8.0296484"><ele>35.0</ele><time>2026-04-18T10:32:30.36Z</time></trkpt><trkpt lat="33.4603907" lon="8.0295726"><ele>35.0</ele><time>2026-04-18T10:32:31.365Z</time></trkpt><trkpt lat="33.4604609" lon="8.0294959"><ele>35.0</ele><time>2026-04-18T10:32:32.357Z</time></trkpt><trkpt lat="33.4605402" lon="8.0294164"><ele>35.0</ele><time>2026-04-18T10:32:33.363Z</time></trkpt><trkpt lat="33.460625" lon="8.029331"><ele>35.0</ele><time>2026-04-18T10:32:34.351Z</time></trkpt><trkpt lat="33.4607094" lon="8.0292431"><ele>35.2</ele><time>2026-04-18T10:32:35.354Z</time></trkpt><trkpt lat="33.4607855" lon="8.0291598"><ele>35.4</ele><time>2026-04-18T10:32:36.356Z</time></trkpt><trkpt lat="33.4608617" lon="8.0290795"><ele>35.6</ele><time>2026-04-18T10:32:37.368Z</time></trkpt><trkpt lat="33.4609386" lon="8.029003"><ele>35.8</ele><time>2026-04-18T10:32:38.358Z</time></trkpt><trkpt lat="33.4610149" lon="8.0289281"><ele>36.0</ele><time>2026-04-18T10:32:39.357Z</time></trkpt><trkpt lat="33.4610907" lon="8.0288523"><ele>36.0</ele><time>2026-04-18T10:32:40.357Z</time></trkpt><trkpt lat="33.4611582" lon="8.0287806"><ele>36.0</ele><time>2026-04-18T10:32:41.361Z</time></trkpt><trkpt lat="33.4612191" lon="8.0287175"><ele>36.0</ele><time>2026-04-18T10:32:42.353Z</time></trkpt><trkpt lat="33.4612891" lon="8.028648"><ele>36.0</ele><time>2026-04-18T10:32:43.366Z</time></trkpt><trkpt lat="33.4613565" lon="8.0285813"><ele>36.0</ele><time>2026-04-18T10:32:44.359Z</time></trkpt><trkpt lat="33.4614201" lon="8.0285155"><ele>36.0</ele><time>2026-04-18T10:32:45.359Z</time></trkpt><trkpt lat="33.4614773" lon="8.0284609"><ele>35.666666666666664</ele><time>2026-04-18T10:32:46.357Z</time></trkpt><trkpt lat="33.4615302" lon="8.0284156"><ele>35.333333333333336</ele><time>2026-04-18T10:32:47.356Z</time></trkpt><trkpt lat="33.4615831" lon="8.0283618"><ele>35.0</ele><time>2026-04-18T10:32:48.355Z</time></trkpt><trkpt lat="33.4616463" lon="8.0282962"><ele>34.66666666666667</ele><time>2026-04-18T10:32:49.359Z</time></trkpt><trkpt lat="33.4617169" lon="8.0282246"><ele>34.333333333333336</ele><time>2026-04-18T10:32:50.354Z</time></trkpt><trkpt lat="33.4617941" lon="8.0281507"><ele>34.0</ele><time>2026-04-18T10:32:51.359Z</time></trkpt><trkpt lat="33.461873" lon="8.0280752"><ele>34.4</ele><time>2026-04-18T10:32:52.357Z</time></trkpt><trkpt lat="33.4619505" lon="8.0279943"><ele>34.8</ele><time>2026-04-18T10:32:53.355Z</time></trkpt><trkpt lat="33.4620248" lon="8.0279142"><ele>35.2</ele><time>2026-04-18T10:32:54.355Z</time></trkpt><trkpt lat="33.4620992" lon="8.0278403"><ele>35.6</ele><time>2026-04-18T10:32:55.361Z</time></trkpt><trkpt lat="33.462172" lon="8.0277671"><ele>36.0</ele><time>2026-04-18T10:32:56.361Z</time></trkpt><trkpt lat="33.4622434" lon="8.0276949"><ele>36.0</ele><time>2026-04-18T10:32:57.356Z</time></trkpt><trkpt lat="33.4623149" lon="8.0276229"><ele>36.0</ele><time>2026-04-18T10:32:58.358Z</time></trkpt><trkpt lat="33.4623827" lon="8.0275515"><ele>36.0</ele><time>2026-04-18T10:32:59.359Z</time></trkpt><trkpt lat="33.462449" lon="8.0274811"><ele>36.0</ele><time>2026-04-18T10:33:00.358Z</time></trkpt><trkpt lat="33.4625163" lon="8.0274106"><ele>36.0</ele><time>2026-04-18T10:33:01.36Z</time></trkpt><trkpt lat="33.462586" lon="8.0273376"><ele>35.6</ele><time>2026-04-18T10:33:02.358Z</time></trkpt><trkpt lat="33.4626593" lon="8.0272633"><ele>35.2</ele><time>2026-04-18T10:33:03.362Z</time></trkpt><trkpt lat="33.4627313" lon="8.0271926"><ele>34.8</ele><time>2026-04-18T10:33:04.363Z</time></trkpt><trkpt lat="33.4628106" lon="8.0271144"><ele>34.4</ele><time>2026-04-18T10:33:05.361Z</time></trkpt><trkpt lat="33.4628956" lon="8.0270305"><ele>34.0</ele><time>2026-04-18T10:33:06.358Z</time></trkpt><trkpt lat="33.4629799" lon="8.0269481"><ele>34.0</ele><time>2026-04-18T10:33:07.359Z</time></trkpt><trkpt lat="33.4630624" lon="8.0268637"><ele>34.0</ele><time>2026-04-18T10:33:08.364Z</time></trkpt><trkpt lat="33.4631318" lon="8.0267902"><ele>34.0</ele><time>2026-04-18T10:33:09.36Z</time></trkpt><trkpt lat="33.4631943" lon="8.0267257"><ele>34.0</ele><time>2026-04-18T10:33:10.363Z</time></trkpt><trkpt lat="33.4632537" lon="8.0266692"><ele>34.0</ele><time>2026-04-18T10:33:11.357Z</time></trkpt><trkpt lat="33.4633245" lon="8.0266032"><ele>34.0</ele><time>2026-04-18T10:33:12.364Z</time></trkpt><trkpt lat="33.4634055" lon="8.0265179"><ele>34.2</ele><time>2026-04-18T10:33:13.364Z</time></trkpt><trkpt lat="33.4634884" lon="8.0264302"><ele>34.4</ele><time>2026-04-18T10:33:14.365Z</time></trkpt><trkpt lat="33.4635672" lon="8.026348"><ele>34.6</ele><time>2026-04-18T10:33:15.358Z</time></trkpt><trkpt lat="33.4636445" lon="8.0262655"><ele>34.8</ele><time>2026-04-18T10:33:16.355Z</time></trkpt><trkpt lat="33.4637291" lon="8.026181"><ele>35.0</ele><time>2026-04-18T10:33:17.358Z</time></trkpt><trkpt lat="33.4638188" lon="8.0260998"><ele>34.8</ele><time>2026-04-18T10:33:18.354Z</time></trkpt><trkpt lat="33.4639033" lon="8.0260269"><ele>34.6</ele><time>2026-04-18T10:33:19.358Z</time></trkpt><trkpt lat="33.4639774" lon="8.0259627"><ele>34.4</ele><time>2026-04-18T10:33:20.356Z</time></trkpt><trkpt lat="33.4640483" lon="8.0259013"><ele>34.2</ele><time>2026-04-18T10:33:21.358Z</time></trkpt><trkpt lat="33.4641168" lon="8.0258405"><ele>34.0</ele><time>2026-04-18T10:33:22.359Z</time></trkpt><trkpt lat="33.4641811" lon="8.0257802"><ele>34.0</ele><time>2026-04-18T10:33:23.353Z</time></trkpt><trkpt lat="33.4642422" lon="8.0257108"><ele>34.0</ele><time>2026-04-18T10:33:24.367Z</time></trkpt><trkpt lat="33.4643106" lon="8.0256205"><ele>34.0</ele><time>2026-04-18T10:33:25.356Z</time></trkpt><trkpt lat="33.4643775" lon="8.0255339"><ele>34.0</ele><time>2026-04-18T10:33:26.359Z</time></trkpt><trkpt lat="33.4644433" lon="8.025452"><ele>34.0</ele><time>2026-04-18T10:33:27.354Z</time></trkpt><trkpt lat="33.4645104" lon="8.0253684"><ele>34.0</ele><time>2026-04-18T10:33:28.356Z</time></trkpt><trkpt lat="33.4645826" lon="8.0252835"><ele>34.0</ele><time>2026-04-18T10:33:29.363Z</time></trkpt><trkpt lat="33.4646522" lon="8.0252013"><ele>34.0</ele><time>2026-04-18T10:33:30.353Z</time></trkpt><trkpt lat="33.4647301" lon="8.0251231"><ele>34.0</ele><time>2026-04-18T10:33:31.357Z</time></trkpt><trkpt lat="33.4648154" lon="8.02504"><ele>34.0</ele><time>2026-04-18T10:33:32.358Z</time></trkpt><trkpt lat="33.4649064" lon="8.024953"><ele>33.75</ele><time>2026-04-18T10:33:33.357Z</time></trkpt><trkpt lat="33.4649986" lon="8.0248679"><ele>33.5</ele><time>2026-04-18T10:33:34.379Z</time></trkpt><trkpt lat="33.4650977" lon="8.0247778"><ele>33.25</ele><time>2026-04-18T10:33:35.356Z</time></trkpt><trkpt lat="33.4651876" lon="8.0246953"><ele>33.0</ele><time>2026-04-18T10:33:36.358Z</time></trkpt><trkpt lat="33.4652762" lon="8.024616"><ele>33.0</ele><time>2026-04-18T10:33:37.359Z</time></trkpt><trkpt lat="33.4653697" lon="8.0245319"><ele>33.0</ele><time>2026-04-18T10:33:38.354Z</time></trkpt><trkpt lat="33.4654672" lon="8.0244421"><ele>33.0</ele><time>2026-04-18T10:33:39.357Z</time></trkpt><trkpt lat="33.4655662" lon="8.024348"><ele>33.0</ele><time>2026-04-18T10:33:40.361Z</time></trkpt><trkpt lat="33.4656678" lon="8.0242506"><ele>33.5</ele><time>2026-04-18T10:33:41.353Z</time></trkpt><trkpt lat="33.4657679" lon="8.0241558"><ele>34.0</ele><time>2026-04-18T10:33:42.358Z</time></trkpt><trkpt lat="33.4658629" lon="8.0240677"><ele>34.5</ele><time>2026-04-18T10:33:43.354Z</time></trkpt><trkpt lat="33.4659507" lon="8.0239875"><ele>35.0</ele><time>2026-04-18T10:33:44.365Z</time></trkpt><trkpt lat="33.466026" lon="8.0239181"><ele>35.0</ele><time>2026-04-18T10:33:45.354Z</time></trkpt><trkpt lat="33.4660893" lon="8.0238592"><ele>35.0</ele><time>2026-04-18T10:33:46.356Z</time></trkpt><trkpt lat="33.4661438" lon="8.0238094"><ele>35.0</ele><time>2026-04-18T10:33:47.357Z</time></trkpt><trkpt lat="33.4662077" lon="8.0237552"><ele>35.0</ele><time>2026-04-18T10:33:48.358Z</time></trkpt><trkpt lat="33.4662753" lon="8.0236929"><ele>35.0</ele><time>2026-04-18T10:33:49.355Z</time></trkpt><trkpt lat="33.4663385" lon="8.0236372"><ele>35.0</ele><time>2026-04-18T10:33:50.356Z</time></trkpt><trkpt lat="33.4664013" lon="8.0235772"><ele>34.83333333333333</ele><time>2026-04-18T10:33:51.354Z</time></trkpt><trkpt lat="33.4664578" lon="8.0235177"><ele>34.666666666666664</ele><time>2026-04-18T10:33:52.36Z</time></trkpt><trkpt lat="33.4665167" lon="8.023454"><ele>34.5</ele><time>2026-04-18T10:33:53.357Z</time></trkpt><trkpt lat="33.4665803" lon="8.0233862"><ele>34.333333333333336</ele><time>2026-04-18T10:33:54.36Z</time></trkpt><trkpt lat="33.4666495" lon="8.0233136"><ele>34.16666666666667</ele><time>2026-04-18T10:33:55.36Z</time></trkpt><trkpt lat="33.4667211" lon="8.0232388"><ele>34.0</ele><time>2026-04-18T10:33:56.356Z</time></trkpt><trkpt lat="33.4667982" lon="8.0231597"><ele>34.0</ele><time>2026-04-18T10:33:57.361Z</time></trkpt><trkpt lat="33.4668806" lon="8.0230764"><ele>34.0</ele><time>2026-04-18T10:33:58.359Z</time></trkpt><trkpt lat="33.4669719" lon="8.0229887"><ele>34.0</ele><time>2026-04-18T10:33:59.355Z</time></trkpt><trkpt lat="33.4670671" lon="8.0228995"><ele>34.0</ele><time>2026-04-18T10:34:00.36Z</time></trkpt><trkpt lat="33.4671587" lon="8.0228104"><ele>34.0</ele><time>2026-04-18T10:34:01.357Z</time></trkpt><trkpt lat="33.4672507" lon="8.0227165"><ele>34.0</ele><time>2026-04-18T10:34:02.361Z</time></trkpt><trkpt lat="33.4673453" lon="8.0226274"><ele>34.0</ele><time>2026-04-18T10:34:03.364Z</time></trkpt><trkpt lat="33.4674431" lon="8.0225325"><ele>34.0</ele><time>2026-04-18T10:34:04.359Z</time></trkpt><trkpt lat="33.4675432" lon="8.0224366"><ele>35.0</ele><time>2026-04-18T10:34:05.363Z</time></trkpt><trkpt lat="33.4676416" lon="8.022344"><ele>36.0</ele><time>2026-04-18T10:34:06.36Z</time></trkpt><trkpt lat="33.4677354" lon="8.0222516"><ele>37.0</ele><time>2026-04-18T10:34:07.36Z</time></trkpt><trkpt lat="33.4678282" lon="8.0221579"><ele>38.0</ele><time>2026-04-18T10:34:08.364Z</time></trkpt><trkpt lat="33.4679245" lon="8.0220618"><ele>36.75</ele><time>2026-04-18T10:34:09.358Z</time></trkpt><trkpt lat="33.4680216" lon="8.0219635"><ele>35.5</ele><time>2026-04-18T10:34:10.363Z</time></trkpt><trkpt lat="33.468121" lon="8.0218634"><ele>34.25</ele><time>2026-04-18T10:34:11.354Z</time></trkpt><trkpt lat="33.4682204" lon="8.0217638"><ele>33.0</ele><time>2026-04-18T10:34:12.357Z</time></trkpt><trkpt lat="33.4683184" lon="8.0216663"><ele>33.25</ele><time>2026-04-18T10:34:13.354Z</time></trkpt><trkpt lat="33.4684205" lon="8.0215654"><ele>33.5</ele><time>2026-04-18T10:34:14.358Z</time></trkpt><trkpt lat="33.4685251" lon="8.0214633"><ele>33.75</ele><time>2026-04-18T10:34:15.367Z</time></trkpt><trkpt lat="33.4686263" lon="8.0213638"><ele>34.0</ele><time>2026-04-18T10:34:16.361Z</time></trkpt><trkpt lat="33.4687271" lon="8.0212631"><ele>34.75</ele><time>2026-04-18T10:34:17.354Z</time></trkpt><trkpt lat="33.4688276" lon="8.0211651"><ele>35.5</ele><time>2026-04-18T10:34:18.356Z</time></trkpt><trkpt lat="33.4689226" lon="8.0210714"><ele>36.25</ele><time>2026-04-18T10:34:19.356Z</time></trkpt><trkpt lat="33.4690121" lon="8.0209776"><ele>37.0</ele><time>2026-04-18T10:34:20.357Z</time></trkpt><trkpt lat="33.4690947" lon="8.0208924"><ele>36.5</ele><time>2026-04-18T10:34:21.359Z</time></trkpt><trkpt lat="33.4691758" lon="8.0208104"><ele>36.0</ele><time>2026-04-18T10:34:22.353Z</time></trkpt><trkpt lat="33.4692626" lon="8.0207258"><ele>35.5</ele><time>2026-04-18T10:34:23.357Z</time></trkpt><trkpt lat="33.4693534" lon="8.0206422"><ele>35.0</ele><time>2026-04-18T10:34:24.373Z</time></trkpt><trkpt lat="33.4694458" lon="8.0205544"><ele>35.0</ele><time>2026-04-18T10:34:25.355Z</time></trkpt><trkpt lat="33.4695347" lon="8.020466"><ele>35.0</ele><time>2026-04-18T10:34:26.353Z</time></trkpt><trkpt lat="33.4696223" lon="8.0203775"><ele>35.0</ele><time>2026-04-18T10:34:27.357Z</time></trkpt><trkpt lat="33.4697027" lon="8.0202881"><ele>35.0</ele><time>2026-04-18T10:34:28.357Z</time></trkpt><trkpt lat="33.4697718" lon="8.0202089"><ele>35.0</ele><time>2026-04-18T10:34:29.366Z</time></trkpt><trkpt lat="33.469838" lon="8.0201449"><ele>35.0</ele><time>2026-04-18T10:34:30.357Z</time></trkpt><trkpt lat="33.4699091" lon="8.0200809"><ele>35.0</ele><time>2026-04-18T10:34:31.357Z</time></trkpt><trkpt lat="33.4699829" lon="8.0200149"><ele>35.0</ele><time>2026-04-18T10:34:32.356Z</time></trkpt><trkpt lat="33.470054" lon="8.019944"><ele>35.0</ele><time>2026-04-18T10:34:33.357Z</time></trkpt><trkpt lat="33.4701277" lon="8.0198633"><ele>35.0</ele><time>2026-04-18T10:34:34.358Z</time></trkpt><trkpt lat="33.4702056" lon="8.0197777"><ele>34.6</ele><time>2026-04-18T10:34:35.36Z</time></trkpt><trkpt lat="33.4702881" lon="8.0196969"><ele>34.2</ele><time>2026-04-18T10:34:36.357Z</time></trkpt><trkpt lat="33.4703617" lon="8.0196236"><ele>33.8</ele><time>2026-04-18T10:34:37.363Z</time></trkpt><trkpt lat="33.4704327" lon="8.0195523"><ele>33.4</ele><time>2026-04-18T10:34:38.356Z</time></trkpt><trkpt lat="33.4705096" lon="8.0194761"><ele>33.0</ele><time>2026-04-18T10:34:39.357Z</time></trkpt><trkpt lat="33.4705955" lon="8.0193952"><ele>33.0</ele><time>2026-04-18T10:34:40.367Z</time></trkpt><trkpt lat="33.4706864" lon="8.0193133"><ele>33.0</ele><time>2026-04-18T10:34:41.364Z</time></trkpt><trkpt lat="33.4707807" lon="8.0192278"><ele>33.0</ele><time>2026-04-18T10:34:42.355Z</time></trkpt><trkpt lat="33.4708744" lon="8.0191402"><ele>33.0</ele><time>2026-04-18T10:34:43.366Z</time></trkpt><trkpt lat="33.4709665" lon="8.0190503"><ele>33.0</ele><time>2026-04-18T10:34:44.369Z</time></trkpt><trkpt lat="33.4710541" lon="8.0189624"><ele>33.0</ele><time>2026-04-18T10:34:45.363Z</time></trkpt><trkpt lat="33.471142" lon="8.0188718"><ele>33.0</ele><time>2026-04-18T10:34:46.369Z</time></trkpt><trkpt lat="33.4712343" lon="8.0187759"><ele>33.0</ele><time>2026-04-18T10:34:47.363Z</time></trkpt><trkpt lat="33.4713305" lon="8.0186768"><ele>33.25</ele><time>2026-04-18T10:34:48.359Z</time></trkpt><trkpt lat="33.4714311" lon="8.0185771"><ele>33.5</ele><time>2026-04-18T10:34:49.365Z</time></trkpt><trkpt lat="33.4715324" lon="8.0184769"><ele>33.75</ele><time>2026-04-18T10:34:50.365Z</time></trkpt><trkpt lat="33.4716328" lon="8.0183783"><ele>34.0</ele><time>2026-04-18T10:34:51.372Z</time></trkpt><trkpt lat="33.4717313" lon="8.0182808"><ele>34.25</ele><time>2026-04-18T10:34:52.365Z</time></trkpt><trkpt lat="33.4718293" lon="8.0181824"><ele>34.5</ele><time>2026-04-18T10:34:53.359Z</time></trkpt><trkpt lat="33.4719286" lon="8.0180829"><ele>34.75</ele><time>2026-04-18T10:34:54.361Z</time></trkpt><trkpt lat="33.4720303" lon="8.0179811"><ele>35.0</ele><time>2026-04-18T10:34:55.361Z</time></trkpt><trkpt lat="33.4721335" lon="8.0178783"><ele>34.5</ele><time>2026-04-18T10:34:56.359Z</time></trkpt><trkpt lat="33.4722358" lon="8.0177745"><ele>34.0</ele><time>2026-04-18T10:34:57.362Z</time></trkpt><trkpt lat="33.4723366" lon="8.0176746"><ele>33.5</ele><time>2026-04-18T10:34:58.353Z</time></trkpt><trkpt lat="33.472438" lon="8.0175731"><ele>33.0</ele><time>2026-04-18T10:34:59.354Z</time></trkpt><trkpt lat="33.4725426" lon="8.0174661"><ele>32.75</ele><time>2026-04-18T10:35:00.362Z</time></trkpt><trkpt lat="33.4726493" lon="8.0173577"><ele>32.5</ele><time>2026-04-18T10:35:01.358Z</time></trkpt><trkpt lat="33.472757" lon="8.0172517"><ele>32.25</ele><time>2026-04-18T10:35:02.354Z</time></trkpt><trkpt lat="33.4728624" lon="8.017149"><ele>32.0</ele><time>2026-04-18T10:35:03.357Z</time></trkpt><trkpt lat="33.4729654" lon="8.0170465"><ele>32.0</ele><time>2026-04-18T10:35:04.355Z</time></trkpt><trkpt lat="33.4730687" lon="8.0169419"><ele>32.0</ele><time>2026-04-18T10:35:05.364Z</time></trkpt><trkpt lat="33.4731745" lon="8.0168374"><ele>32.0</ele><time>2026-04-18T10:35:06.373Z</time></trkpt><trkpt lat="33.4732811" lon="8.0167337"><ele>32.0</ele><time>2026-04-18T10:35:07.363Z</time></trkpt><trkpt lat="33.4733864" lon="8.0166275"><ele>32.0</ele><time>2026-04-18T10:35:08.364Z</time></trkpt><trkpt lat="33.4734911" lon="8.0165222"><ele>32.0</ele><time>2026-04-18T10:35:09.369Z</time></trkpt><trkpt lat="33.4735981" lon="8.0164174"><ele>32.0</ele><time>2026-04-18T10:35:10.358Z</time></trkpt><trkpt lat="33.4737054" lon="8.0163116"><ele>32.0</ele><time>2026-04-18T10:35:11.36Z</time></trkpt><trkpt lat="33.473815" lon="8.0162008"><ele>31.75</ele><time>2026-04-18T10:35:12.363Z</time></trkpt><trkpt lat="33.4739238" lon="8.0160913"><ele>31.5</ele><time>2026-04-18T10:35:13.363Z</time></trkpt><trkpt lat="33.4740303" lon="8.0159842"><ele>31.25</ele><time>2026-04-18T10:35:14.354Z</time></trkpt><trkpt lat="33.4741358" lon="8.0158788"><ele>31.0</ele><time>2026-04-18T10:35:15.36Z</time></trkpt><trkpt lat="33.4742403" lon="8.0157716"><ele>31.5</ele><time>2026-04-18T10:35:16.357Z</time></trkpt><trkpt lat="33.4743477" lon="8.0156627"><ele>32.0</ele><time>2026-04-18T10:35:17.358Z</time></trkpt><trkpt lat="33.4744534" lon="8.0155586"><ele>32.5</ele><time>2026-04-18T10:35:18.357Z</time></trkpt><trkpt lat="33.4745592" lon="8.0154574"><ele>33.0</ele><time>2026-04-18T10:35:19.364Z</time></trkpt><trkpt lat="33.4746649" lon="8.0153605"><ele>33.0</ele><time>2026-04-18T10:35:20.356Z</time></trkpt><trkpt lat="33.4747715" lon="8.0152594"><ele>33.0</ele><time>2026-04-18T10:35:21.355Z</time></trkpt><trkpt lat="33.4748779" lon="8.0151527"><ele>33.0</ele><time>2026-04-18T10:35:22.358Z</time></trkpt><trkpt lat="33.4749881" lon="8.0150444"><ele>33.0</ele><time>2026-04-18T10:35:23.36Z</time></trkpt><trkpt lat="33.4750988" lon="8.0149383"><ele>33.25</ele><time>2026-04-18T10:35:24.355Z</time></trkpt><trkpt lat="33.4752072" lon="8.0148351"><ele>33.5</ele><time>2026-04-18T10:35:25.356Z</time></trkpt><trkpt lat="33.4753116" lon="8.0147368"><ele>33.75</ele><time>2026-04-18T10:35:26.361Z</time></trkpt><trkpt lat="33.4754142" lon="8.0146412"><ele>34.0</ele><time>2026-04-18T10:35:27.359Z</time></trkpt><trkpt lat="33.4755097" lon="8.0145483"><ele>34.0</ele><time>2026-04-18T10:35:28.355Z</time></trkpt><trkpt lat="33.4755923" lon="8.0144656"><ele>34.0</ele><time>2026-04-18T10:35:29.352Z</time></trkpt><trkpt lat="33.4756676" lon="8.0143854"><ele>34.0</ele><time>2026-04-18T10:35:30.367Z</time></trkpt><trkpt lat="33.4757385" lon="8.0143095"><ele>34.0</ele><time>2026-04-18T10:35:31.362Z</time></trkpt><trkpt lat="33.4758081" lon="8.014236"><ele>34.0</ele><time>2026-04-18T10:35:32.36Z</time></trkpt><trkpt lat="33.4758815" lon="8.0141764"><ele>33.8</ele><time>2026-04-18T10:35:33.359Z</time></trkpt><trkpt lat="33.4759501" lon="8.0141158"><ele>33.599999999999994</ele><time>2026-04-18T10:35:34.353Z</time></trkpt><trkpt lat="33.476025" lon="8.0140422"><ele>33.4</ele><time>2026-04-18T10:35:35.357Z</time></trkpt><trkpt lat="33.4761097" lon="8.0139574"><ele>33.199999999999996</ele><time>2026-04-18T10:35:36.358Z</time></trkpt><trkpt lat="33.4761969" lon="8.0138712"><ele>33.0</ele><time>2026-04-18T10:35:37.355Z</time></trkpt><trkpt lat="33.4762793" lon="8.0137946"><ele>33.4</ele><time>2026-04-18T10:35:38.358Z</time></trkpt><trkpt lat="33.4763614" lon="8.01372"><ele>33.8</ele><time>2026-04-18T10:35:39.36Z</time></trkpt><trkpt lat="33.4764389" lon="8.0136499"><ele>34.2</ele><time>2026-04-18T10:35:40.358Z</time></trkpt><trkpt lat="33.4765186" lon="8.0135739"><ele>34.6</ele><time>2026-04-18T10:35:41.367Z</time></trkpt><trkpt lat="33.4765996" lon="8.0134927"><ele>35.0</ele><time>2026-04-18T10:35:42.356Z</time></trkpt><trkpt lat="33.4766728" lon="8.0134193"><ele>35.0</ele><time>2026-04-18T10:35:43.36Z</time></trkpt><trkpt lat="33.4767421" lon="8.0133508"><ele>35.0</ele><time>2026-04-18T10:35:44.355Z</time></trkpt><trkpt lat="33.4768132" lon="8.0132769"><ele>35.0</ele><time>2026-04-18T10:35:45.357Z</time></trkpt><trkpt lat="33.4768815" lon="8.0132073"><ele>35.0</ele><time>2026-04-18T10:35:46.357Z</time></trkpt><trkpt lat="33.4769555" lon="8.013136"><ele>35.0</ele><time>2026-04-18T10:35:47.362Z</time></trkpt><trkpt lat="33.4770311" lon="8.0130639"><ele>35.0</ele><time>2026-04-18T10:35:48.356Z</time></trkpt><trkpt lat="33.4771011" lon="8.0129953"><ele>35.0</ele><time>2026-04-18T10:35:49.351Z</time></trkpt><trkpt lat="33.4771678" lon="8.0129345"><ele>35.0</ele><time>2026-04-18T10:35:50.354Z</time></trkpt><trkpt lat="33.4772307" lon="8.0128799"><ele>35.0</ele><time>2026-04-18T10:35:51.363Z</time></trkpt><trkpt lat="33.4772839" lon="8.0128269"><ele>35.0</ele><time>2026-04-18T10:35:52.364Z</time></trkpt><trkpt lat="33.4773635" lon="8.0127266"><ele>35.0</ele><time>2026-04-18T10:35:54.367Z</time></trkpt><trkpt lat="33.4774085" lon="8.0126653"><ele>34.83333333333333</ele><time>2026-04-18T10:35:56.358Z</time></trkpt><trkpt lat="33.4774618" lon="8.0125831"><ele>34.666666666666664</ele><time>2026-04-18T10:36:26.362Z</time></trkpt><trkpt lat="33.4775073" lon="8.0125224"><ele>34.5</ele><time>2026-04-18T10:36:27.369Z</time></trkpt><trkpt lat="33.4775682" lon="8.0124686"><ele>34.333333333333336</ele><time>2026-04-18T10:36:28.364Z</time></trkpt><trkpt lat="33.477638" lon="8.01242"><ele>34.16666666666667</ele><time>2026-04-18T10:36:29.361Z</time></trkpt><trkpt lat="33.4777134" lon="8.0123795"><ele>34.0</ele><time>2026-04-18T10:36:30.364Z</time></trkpt><trkpt lat="33.4777865" lon="8.0123373"><ele>33.99999999999999</ele><time>2026-04-18T10:36:31.358Z</time></trkpt><trkpt lat="33.4778486" lon="8.0122857"><ele>34.0</ele><time>2026-04-18T10:36:32.369Z</time></trkpt><trkpt lat="33.4779034" lon="8.0122287"><ele>34.0</ele><time>2026-04-18T10:36:33.365Z</time></trkpt><trkpt lat="33.4779587" lon="8.0121707"><ele>34.0</ele><time>2026-04-18T10:36:34.364Z</time></trkpt><trkpt lat="33.478009" lon="8.0121152"><ele>34.0</ele><time>2026-04-18T10:36:35.358Z</time></trkpt><trkpt lat="33.4780574" lon="8.0120621"><ele>33.99999999999999</ele><time>2026-04-18T10:36:36.359Z</time></trkpt><trkpt lat="33.4781032" lon="8.0120095"><ele>34.0</ele><time>2026-04-18T10:36:37.369Z</time></trkpt><trkpt lat="33.4781581" lon="8.0119526"><ele>33.833333333333336</ele><time>2026-04-18T10:36:38.359Z</time></trkpt><trkpt lat="33.4782159" lon="8.0118991"><ele>33.66666666666667</ele><time>2026-04-18T10:36:39.378Z</time></trkpt><trkpt lat="33.478274" lon="8.0118478"><ele>33.5</ele><time>2026-04-18T10:36:40.367Z</time></trkpt><trkpt lat="33.4783285" lon="8.0118018"><ele>33.333333333333336</ele><time>2026-04-18T10:36:41.365Z</time></trkpt><trkpt lat="33.4784188" lon="8.0117062"><ele>33.166666666666664</ele><time>2026-04-18T10:36:43.361Z</time></trkpt><trkpt lat="33.4784788" lon="8.0116566"><ele>33.0</ele><time>2026-04-18T10:36:44.361Z</time></trkpt><trkpt lat="33.478547" lon="8.0116056"><ele>33.0</ele><time>2026-04-18T10:36:45.358Z</time></trkpt><trkpt lat="33.4786253" lon="8.0115393"><ele>33.0</ele><time>2026-04-18T10:36:46.359Z</time></trkpt><trkpt lat="33.4787123" lon="8.0114545"><ele>33.0</ele><time>2026-04-18T10:36:47.353Z</time></trkpt><trkpt lat="33.4788038" lon="8.0113547"><ele>33.0</ele><time>2026-04-18T10:36:48.359Z</time></trkpt><trkpt lat="33.4789" lon="8.0112528"><ele>33.25</ele><time>2026-04-18T10:36:49.356Z</time></trkpt><trkpt lat="33.4789968" lon="8.0111475"><ele>33.5</ele><time>2026-04-18T10:36:50.363Z</time></trkpt><trkpt lat="33.4790977" lon="8.0110422"><ele>33.75</ele><time>2026-04-18T10:36:51.358Z</time></trkpt><trkpt lat="33.4792043" lon="8.0109386"><ele>34.0</ele><time>2026-04-18T10:36:52.362Z</time></trkpt><trkpt lat="33.479314" lon="8.0108332"><ele>34.25</ele><time>2026-04-18T10:36:53.354Z</time></trkpt><trkpt lat="33.4794257" lon="8.0107258"><ele>34.5</ele><time>2026-04-18T10:36:54.362Z</time></trkpt><trkpt lat="33.4795346" lon="8.0106203"><ele>34.75</ele><time>2026-04-18T10:36:55.359Z</time></trkpt><trkpt lat="33.4796397" lon="8.0105161"><ele>35.0</ele><time>2026-04-18T10:36:56.362Z</time></trkpt><trkpt lat="33.4797428" lon="8.0104135"><ele>34.25</ele><time>2026-04-18T10:36:57.363Z</time></trkpt><trkpt lat="33.47985" lon="8.0103064"><ele>33.5</ele><time>2026-04-18T10:36:58.361Z</time></trkpt><trkpt lat="33.4799533" lon="8.0102002"><ele>32.75</ele><time>2026-04-18T10:36:59.359Z</time></trkpt><trkpt lat="33.4800511" lon="8.0100973"><ele>32.0</ele><time>2026-04-18T10:37:00.357Z</time></trkpt><trkpt lat="33.4801469" lon="8.0099966"><ele>32.25</ele><time>2026-04-18T10:37:01.368Z</time></trkpt><trkpt lat="33.480245" lon="8.0098992"><ele>32.5</ele><time>2026-04-18T10:37:02.36Z</time></trkpt><trkpt lat="33.4803403" lon="8.0098084"><ele>32.75</ele><time>2026-04-18T10:37:03.357Z</time></trkpt><trkpt lat="33.4804338" lon="8.0097184"><ele>33.0</ele><time>2026-04-18T10:37:04.358Z</time></trkpt><trkpt lat="33.4805228" lon="8.0096316"><ele>33.0</ele><time>2026-04-18T10:37:05.366Z</time></trkpt><trkpt lat="33.4806135" lon="8.0095414"><ele>33.0</ele><time>2026-04-18T10:37:06.362Z</time></trkpt><trkpt lat="33.4807077" lon="8.0094483"><ele>33.0</ele><time>2026-04-18T10:37:07.366Z</time></trkpt><trkpt lat="33.4808053" lon="8.0093558"><ele>33.0</ele><time>2026-04-18T10:37:08.361Z</time></trkpt><trkpt lat="33.4809051" lon="8.009259"><ele>33.0</ele><time>2026-04-18T10:37:09.357Z</time></trkpt><trkpt lat="33.4810041" lon="8.0091622"><ele>33.0</ele><time>2026-04-18T10:37:10.366Z</time></trkpt><trkpt lat="33.4811028" lon="8.0090648"><ele>33.0</ele><time>2026-04-18T10:37:11.359Z</time></trkpt><trkpt lat="33.4812001" lon="8.0089679"><ele>33.0</ele><time>2026-04-18T10:37:12.359Z</time></trkpt><trkpt lat="33.4813032" lon="8.0088686"><ele>33.5</ele><time>2026-04-18T10:37:13.361Z</time></trkpt><trkpt lat="33.4814081" lon="8.0087683"><ele>34.0</ele><time>2026-04-18T10:37:14.358Z</time></trkpt><trkpt lat="33.4815137" lon="8.0086636"><ele>34.5</ele><time>2026-04-18T10:37:15.357Z</time></trkpt><trkpt lat="33.4816205" lon="8.0085542"><ele>35.0</ele><time>2026-04-18T10:37:16.357Z</time></trkpt><trkpt lat="33.4817299" lon="8.0084415"><ele>35.0</ele><time>2026-04-18T10:37:17.362Z</time></trkpt><trkpt lat="33.481842" lon="8.0083296"><ele>35.0</ele><time>2026-04-18T10:37:18.358Z</time></trkpt><trkpt lat="33.4819561" lon="8.0082186"><ele>35.0</ele><time>2026-04-18T10:37:19.359Z</time></trkpt><trkpt lat="33.482072" lon="8.0081069"><ele>35.0</ele><time>2026-04-18T10:37:20.359Z</time></trkpt><trkpt lat="33.4821851" lon="8.0079952"><ele>33.75</ele><time>2026-04-18T10:37:21.353Z</time></trkpt><trkpt lat="33.4822986" lon="8.0078816"><ele>32.5</ele><time>2026-04-18T10:37:22.359Z</time></trkpt><trkpt lat="33.4824135" lon="8.00777"><ele>31.25</ele><time>2026-04-18T10:37:23.358Z</time></trkpt><trkpt lat="33.4825277" lon="8.0076589"><ele>30.0</ele><time>2026-04-18T10:37:24.355Z</time></trkpt><trkpt lat="33.4826423" lon="8.0075456"><ele>31.0</ele><time>2026-04-18T10:37:25.36Z</time></trkpt><trkpt lat="33.482754" lon="8.0074343"><ele>32.0</ele><time>2026-04-18T10:37:26.354Z</time></trkpt><trkpt lat="33.4828626" lon="8.007326"><ele>33.0</ele><time>2026-04-18T10:37:27.362Z</time></trkpt><trkpt lat="33.48297" lon="8.0072202"><ele>34.0</ele><time>2026-04-18T10:37:28.354Z</time></trkpt><trkpt lat="33.4830709" lon="8.0071189"><ele>34.0</ele><time>2026-04-18T10:37:29.358Z</time></trkpt><trkpt lat="33.4831689" lon="8.0070124"><ele>34.0</ele><time>2026-04-18T10:37:30.357Z</time></trkpt><trkpt lat="33.4832683" lon="8.0069093"><ele>34.0</ele><time>2026-04-18T10:37:31.355Z</time></trkpt><trkpt lat="33.483372" lon="8.0068099"><ele>34.0</ele><time>2026-04-18T10:37:32.355Z</time></trkpt><trkpt lat="33.4834762" lon="8.0067099"><ele>34.0</ele><time>2026-04-18T10:37:33.356Z</time></trkpt><trkpt lat="33.4835776" lon="8.0066143"><ele>34.0</ele><time>2026-04-18T10:37:34.356Z</time></trkpt><trkpt lat="33.4836813" lon="8.0065165"><ele>34.0</ele><time>2026-04-18T10:37:35.36Z</time></trkpt><trkpt lat="33.4837848" lon="8.0064142"><ele>34.0</ele><time>2026-04-18T10:37:36.354Z</time></trkpt><trkpt lat="33.4838909" lon="8.006311"><ele>34.0</ele><time>2026-04-18T10:37:37.362Z</time></trkpt><trkpt lat="33.4839962" lon="8.0062129"><ele>34.0</ele><time>2026-04-18T10:37:38.362Z</time></trkpt><trkpt lat="33.4840995" lon="8.0061111"><ele>34.0</ele><time>2026-04-18T10:37:39.353Z</time></trkpt><trkpt lat="33.4842023" lon="8.0060054"><ele>34.0</ele><time>2026-04-18T10:37:40.353Z</time></trkpt><trkpt lat="33.4843019" lon="8.0059046"><ele>34.0</ele><time>2026-04-18T10:37:41.36Z</time></trkpt><trkpt lat="33.4844034" lon="8.0058058"><ele>34.0</ele><time>2026-04-18T10:37:42.352Z</time></trkpt><trkpt lat="33.4845043" lon="8.0057071"><ele>34.0</ele><time>2026-04-18T10:37:43.358Z</time></trkpt><trkpt lat="33.4846048" lon="8.0056014"><ele>34.0</ele><time>2026-04-18T10:37:44.356Z</time></trkpt><trkpt lat="33.4847013" lon="8.0054941"><ele>33.75</ele><time>2026-04-18T10:37:45.359Z</time></trkpt><trkpt lat="33.4848001" lon="8.0053861"><ele>33.5</ele><time>2026-04-18T10:37:46.359Z</time></trkpt><trkpt lat="33.4848975" lon="8.0052846"><ele>33.25</ele><time>2026-04-18T10:37:47.354Z</time></trkpt><trkpt lat="33.4849951" lon="8.0051911"><ele>33.0</ele><time>2026-04-18T10:37:48.359Z</time></trkpt><trkpt lat="33.4850908" lon="8.0051008"><ele>33.0</ele><time>2026-04-18T10:37:49.355Z</time></trkpt><trkpt lat="33.4851839" lon="8.0050257"><ele>33.0</ele><time>2026-04-18T10:37:50.357Z</time></trkpt><trkpt lat="33.4852721" lon="8.0049565"><ele>33.0</ele><time>2026-04-18T10:37:51.354Z</time></trkpt><trkpt lat="33.4853616" lon="8.0048845"><ele>33.0</ele><time>2026-04-18T10:37:52.362Z</time></trkpt><trkpt lat="33.4854521" lon="8.0048153"><ele>33.0</ele><time>2026-04-18T10:37:53.358Z</time></trkpt><trkpt lat="33.4855401" lon="8.0047451"><ele>33.25</ele><time>2026-04-18T10:37:54.361Z</time></trkpt><trkpt lat="33.4856262" lon="8.0046555"><ele>33.5</ele><time>2026-04-18T10:37:55.358Z</time></trkpt><trkpt lat="33.4857128" lon="8.004541"><ele>33.75</ele><time>2026-04-18T10:37:56.364Z</time></trkpt><trkpt lat="33.4857999" lon="8.0044202"><ele>34.0</ele><time>2026-04-18T10:37:57.36Z</time></trkpt><trkpt lat="33.4858914" lon="8.004314"><ele>34.0</ele><time>2026-04-18T10:37:58.361Z</time></trkpt><trkpt lat="33.4859903" lon="8.0042169"><ele>34.0</ele><time>2026-04-18T10:37:59.365Z</time></trkpt><trkpt lat="33.4860908" lon="8.0041179"><ele>34.0</ele><time>2026-04-18T10:38:00.361Z</time></trkpt><trkpt lat="33.4861941" lon="8.0040145"><ele>34.0</ele><time>2026-04-18T10:38:01.363Z</time></trkpt><trkpt lat="33.4862987" lon="8.0039088"><ele>33.5</ele><time>2026-04-18T10:38:02.367Z</time></trkpt><trkpt lat="33.4864013" lon="8.0038065"><ele>33.0</ele><time>2026-04-18T10:38:03.367Z</time></trkpt><trkpt lat="33.4865089" lon="8.0036995"><ele>32.5</ele><time>2026-04-18T10:38:04.355Z</time></trkpt><trkpt lat="33.4866195" lon="8.0035905"><ele>32.0</ele><time>2026-04-18T10:38:05.358Z</time></trkpt><trkpt lat="33.4867298" lon="8.0034808"><ele>32.0</ele><time>2026-04-18T10:38:06.36Z</time></trkpt><trkpt lat="33.4868402" lon="8.0033701"><ele>32.0</ele><time>2026-04-18T10:38:07.353Z</time></trkpt><trkpt lat="33.4869504" lon="8.003255"><ele>32.0</ele><time>2026-04-18T10:38:08.356Z</time></trkpt><trkpt lat="33.4870591" lon="8.0031407"><ele>32.0</ele><time>2026-04-18T10:38:09.357Z</time></trkpt><trkpt lat="33.4871627" lon="8.0030343"><ele>31.75</ele><time>2026-04-18T10:38:10.361Z</time></trkpt><trkpt lat="33.4872625" lon="8.0029357"><ele>31.5</ele><time>2026-04-18T10:38:11.364Z</time></trkpt><trkpt lat="33.4873621" lon="8.0028383"><ele>31.25</ele><time>2026-04-18T10:38:12.358Z</time></trkpt><trkpt lat="33.4874572" lon="8.0027399"><ele>31.0</ele><time>2026-04-18T10:38:13.358Z</time></trkpt><trkpt lat="33.4875513" lon="8.0026422"><ele>31.0</ele><time>2026-04-18T10:38:14.361Z</time></trkpt><trkpt lat="33.4876507" lon="8.0025465"><ele>31.0</ele><time>2026-04-18T10:38:15.359Z</time></trkpt><trkpt lat="33.4877535" lon="8.0024458"><ele>31.0</ele><time>2026-04-18T10:38:16.358Z</time></trkpt><trkpt lat="33.487858" lon="8.0023372"><ele>31.0</ele><time>2026-04-18T10:38:17.361Z</time></trkpt><trkpt lat="33.4879628" lon="8.0022267"><ele>30.75</ele><time>2026-04-18T10:38:18.36Z</time></trkpt><trkpt lat="33.4880729" lon="8.002117"><ele>30.5</ele><time>2026-04-18T10:38:19.36Z</time></trkpt><trkpt lat="33.4881846" lon="8.0020128"><ele>30.25</ele><time>2026-04-18T10:38:20.361Z</time></trkpt><trkpt lat="33.4882929" lon="8.0019113"><ele>30.0</ele><time>2026-04-18T10:38:21.354Z</time></trkpt><trkpt lat="33.488402" lon="8.0018061"><ele>30.0</ele><time>2026-04-18T10:38:22.361Z</time></trkpt><trkpt lat="33.4885128" lon="8.0016961"><ele>30.0</ele><time>2026-04-18T10:38:23.354Z</time></trkpt><trkpt lat="33.4886232" lon="8.0015867"><ele>30.0</ele><time>2026-04-18T10:38:24.356Z</time></trkpt><trkpt lat="33.4887322" lon="8.0014786"><ele>30.0</ele><time>2026-04-18T10:38:25.356Z</time></trkpt><trkpt lat="33.4888418" lon="8.001368"><ele>30.5</ele><time>2026-04-18T10:38:26.358Z</time></trkpt><trkpt lat="33.4889536" lon="8.0012556"><ele>31.0</ele><time>2026-04-18T10:38:27.36Z</time></trkpt><trkpt lat="33.489067" lon="8.0011425"><ele>31.5</ele><time>2026-04-18T10:38:28.36Z</time></trkpt><trkpt lat="33.4891772" lon="8.0010323"><ele>32.0</ele><time>2026-04-18T10:38:29.357Z</time></trkpt><trkpt lat="33.4892868" lon="8.0009209"><ele>32.25</ele><time>2026-04-18T10:38:30.359Z</time></trkpt><trkpt lat="33.4893987" lon="8.000808"><ele>32.5</ele><time>2026-04-18T10:38:31.36Z</time></trkpt><trkpt lat="33.4895117" lon="8.0006962"><ele>32.75</ele><time>2026-04-18T10:38:32.367Z</time></trkpt><trkpt lat="33.4896193" lon="8.0005842"><ele>33.0</ele><time>2026-04-18T10:38:33.36Z</time></trkpt><trkpt lat="33.4897234" lon="8.0004753"><ele>33.0</ele><time>2026-04-18T10:38:34.353Z</time></trkpt><trkpt lat="33.489825" lon="8.0003724"><ele>33.0</ele><time>2026-04-18T10:38:35.364Z</time></trkpt><trkpt lat="33.4899276" lon="8.0002716"><ele>33.0</ele><time>2026-04-18T10:38:36.357Z</time></trkpt><trkpt lat="33.4900283" lon="8.0001763"><ele>33.0</ele><time>2026-04-18T10:38:37.359Z</time></trkpt><trkpt lat="33.490124" lon="8.0000835"><ele>33.0</ele><time>2026-04-18T10:38:38.357Z</time></trkpt><trkpt lat="33.4902185" lon="7.9999896"><ele>33.0</ele><time>2026-04-18T10:38:39.361Z</time></trkpt><trkpt lat="33.4903097" lon="7.9998944"><ele>33.0</ele><time>2026-04-18T10:38:40.359Z</time></trkpt><trkpt lat="33.490402" lon="7.9997939"><ele>33.0</ele><time>2026-04-18T10:38:41.361Z</time></trkpt><trkpt lat="33.4905007" lon="7.9996914"><ele>33.0</ele><time>2026-04-18T10:38:42.356Z</time></trkpt><trkpt lat="33.4906016" lon="7.99959"><ele>33.0</ele><time>2026-04-18T10:38:43.355Z</time></trkpt><trkpt lat="33.4907048" lon="7.9994891"><ele>33.0</ele><time>2026-04-18T10:38:44.354Z</time></trkpt><trkpt lat="33.4908066" lon="7.999388"><ele>33.0</ele><time>2026-04-18T10:38:45.358Z</time></trkpt><trkpt lat="33.4909104" lon="7.9992835"><ele>33.0</ele><time>2026-04-18T10:38:46.354Z</time></trkpt><trkpt lat="33.4910131" lon="7.9991803"><ele>33.0</ele><time>2026-04-18T10:38:47.358Z</time></trkpt><trkpt lat="33.4911143" lon="7.9990788"><ele>33.0</ele><time>2026-04-18T10:38:48.357Z</time></trkpt><trkpt lat="33.4912137" lon="7.9989806"><ele>33.0</ele><time>2026-04-18T10:38:49.36Z</time></trkpt><trkpt lat="33.4913094" lon="7.9988858"><ele>32.5</ele><time>2026-04-18T10:38:50.358Z</time></trkpt><trkpt lat="33.491404" lon="7.9987909"><ele>32.0</ele><time>2026-04-18T10:38:51.366Z</time></trkpt><trkpt lat="33.4914955" lon="7.998695"><ele>31.5</ele><time>2026-04-18T10:38:52.365Z</time></trkpt><trkpt lat="33.4915815" lon="7.9986066"><ele>31.0</ele><time>2026-04-18T10:38:53.364Z</time></trkpt><trkpt lat="33.4916568" lon="7.9985308"><ele>31.0</ele><time>2026-04-18T10:38:54.365Z</time></trkpt><trkpt lat="33.4917253" lon="7.9984639"><ele>31.0</ele><time>2026-04-18T10:38:55.363Z</time></trkpt><trkpt lat="33.4917989" lon="7.9983933"><ele>31.0</ele><time>2026-04-18T10:38:56.357Z</time></trkpt><trkpt lat="33.4918768" lon="7.9983176"><ele>31.0</ele><time>2026-04-18T10:38:57.359Z</time></trkpt><trkpt lat="33.4919579" lon="7.9982425"><ele>31.0</ele><time>2026-04-18T10:38:58.353Z</time></trkpt><trkpt lat="33.4920454" lon="7.9981612"><ele>30.25</ele><time>2026-04-18T10:38:59.361Z</time></trkpt><trkpt lat="33.4921365" lon="7.9980721"><ele>29.5</ele><time>2026-04-18T10:39:00.355Z</time></trkpt><trkpt lat="33.4922277" lon="7.9979779"><ele>28.75</ele><time>2026-04-18T10:39:01.358Z</time></trkpt><trkpt lat="33.4923197" lon="7.9978771"><ele>28.0</ele><time>2026-04-18T10:39:02.362Z</time></trkpt><trkpt lat="33.492415" lon="7.997776"><ele>28.0</ele><time>2026-04-18T10:39:03.364Z</time></trkpt><trkpt lat="33.4925144" lon="7.9976767"><ele>28.0</ele><time>2026-04-18T10:39:04.362Z</time></trkpt><trkpt lat="33.4926158" lon="7.9975781"><ele>28.0</ele><time>2026-04-18T10:39:05.357Z</time></trkpt><trkpt lat="33.4927189" lon="7.9974845"><ele>28.0</ele><time>2026-04-18T10:39:06.362Z</time></trkpt><trkpt lat="33.4928209" lon="7.9973901"><ele>29.0</ele><time>2026-04-18T10:39:07.365Z</time></trkpt><trkpt lat="33.492924" lon="7.997293"><ele>30.0</ele><time>2026-04-18T10:39:08.368Z</time></trkpt><trkpt lat="33.4930281" lon="7.9971917"><ele>31.0</ele><time>2026-04-18T10:39:09.363Z</time></trkpt><trkpt lat="33.4931328" lon="7.997086"><ele>32.0</ele><time>2026-04-18T10:39:10.363Z</time></trkpt><trkpt lat="33.4932385" lon="7.9969786"><ele>32.0</ele><time>2026-04-18T10:39:11.363Z</time></trkpt><trkpt lat="33.493342" lon="7.9968728"><ele>32.0</ele><time>2026-04-18T10:39:12.366Z</time></trkpt><trkpt lat="33.4934419" lon="7.9967744"><ele>32.0</ele><time>2026-04-18T10:39:13.363Z</time></trkpt><trkpt lat="33.4935425" lon="7.9966764"><ele>32.0</ele><time>2026-04-18T10:39:14.365Z</time></trkpt><trkpt lat="33.4936447" lon="7.9965748"><ele>32.0</ele><time>2026-04-18T10:39:15.367Z</time></trkpt><trkpt lat="33.4937441" lon="7.9964738"><ele>32.0</ele><time>2026-04-18T10:39:16.365Z</time></trkpt><trkpt lat="33.4938451" lon="7.9963728"><ele>32.0</ele><time>2026-04-18T10:39:17.368Z</time></trkpt><trkpt lat="33.4939482" lon="7.9962703"><ele>32.0</ele><time>2026-04-18T10:39:18.366Z</time></trkpt><trkpt lat="33.49405" lon="7.996164"><ele>32.0</ele><time>2026-04-18T10:39:19.367Z</time></trkpt><trkpt lat="33.4941516" lon="7.9960582"><ele>32.0</ele><time>2026-04-18T10:39:20.356Z</time></trkpt><trkpt lat="33.4942528" lon="7.9959521"><ele>32.0</ele><time>2026-04-18T10:39:21.358Z</time></trkpt><trkpt lat="33.4943541" lon="7.9958508"><ele>32.0</ele><time>2026-04-18T10:39:22.364Z</time></trkpt><trkpt lat="33.4944531" lon="7.9957578"><ele>31.8</ele><time>2026-04-18T10:39:23.362Z</time></trkpt><trkpt lat="33.4945411" lon="7.9956752"><ele>31.6</ele><time>2026-04-18T10:39:24.365Z</time></trkpt><trkpt lat="33.4946249" lon="7.9955971"><ele>31.400000000000002</ele><time>2026-04-18T10:39:25.364Z</time></trkpt><trkpt lat="33.4947074" lon="7.9955181"><ele>31.200000000000003</ele><time>2026-04-18T10:39:26.369Z</time></trkpt><trkpt lat="33.4947969" lon="7.9954327"><ele>31.0</ele><time>2026-04-18T10:39:27.367Z</time></trkpt><trkpt lat="33.4948917" lon="7.9953362"><ele>31.0</ele><time>2026-04-18T10:39:28.359Z</time></trkpt><trkpt lat="33.4949924" lon="7.9952322"><ele>31.0</ele><time>2026-04-18T10:39:29.364Z</time></trkpt><trkpt lat="33.4950984" lon="7.9951259"><ele>31.0</ele><time>2026-04-18T10:39:30.355Z</time></trkpt><trkpt lat="33.4952065" lon="7.9950169"><ele>31.0</ele><time>2026-04-18T10:39:31.358Z</time></trkpt><trkpt lat="33.495315" lon="7.9949081"><ele>31.666666666666668</ele><time>2026-04-18T10:39:32.359Z</time></trkpt><trkpt lat="33.4954288" lon="7.9947956"><ele>32.333333333333336</ele><time>2026-04-18T10:39:33.364Z</time></trkpt><trkpt lat="33.4955456" lon="7.9946801"><ele>33.0</ele><time>2026-04-18T10:39:34.362Z</time></trkpt><trkpt lat="33.4956629" lon="7.9945611"><ele>33.0</ele><time>2026-04-18T10:39:35.36Z</time></trkpt><trkpt lat="33.4957803" lon="7.9944438"><ele>33.0</ele><time>2026-04-18T10:39:36.365Z</time></trkpt><trkpt lat="33.4958983" lon="7.9943268"><ele>33.0</ele><time>2026-04-18T10:39:37.374Z</time></trkpt><trkpt lat="33.4960158" lon="7.9942087"><ele>32.666666666666664</ele><time>2026-04-18T10:39:38.369Z</time></trkpt><trkpt lat="33.4961335" lon="7.9940878"><ele>32.33333333333333</ele><time>2026-04-18T10:39:39.366Z</time></trkpt><trkpt lat="33.4962549" lon="7.9939724"><ele>32.0</ele><time>2026-04-18T10:39:40.372Z</time></trkpt><trkpt lat="33.4963732" lon="7.9938559"><ele>32.0</ele><time>2026-04-18T10:39:41.364Z</time></trkpt><trkpt lat="33.4964895" lon="7.9937386"><ele>32.0</ele><time>2026-04-18T10:39:42.366Z</time></trkpt><trkpt lat="33.4966076" lon="7.9936223"><ele>32.0</ele><time>2026-04-18T10:39:43.356Z</time></trkpt><trkpt lat="33.4967193" lon="7.9935111"><ele>32.0</ele><time>2026-04-18T10:39:44.357Z</time></trkpt><trkpt lat="33.4968185" lon="7.993414"><ele>32.0</ele><time>2026-04-18T10:39:45.353Z</time></trkpt><trkpt lat="33.4969063" lon="7.9933269"><ele>32.0</ele><time>2026-04-18T10:39:46.362Z</time></trkpt><trkpt lat="33.497001" lon="7.9932367"><ele>32.0</ele><time>2026-04-18T10:39:47.358Z</time></trkpt><trkpt lat="33.4971031" lon="7.9931387"><ele>32.25</ele><time>2026-04-18T10:39:48.359Z</time></trkpt><trkpt lat="33.4972108" lon="7.9930361"><ele>32.5</ele><time>2026-04-18T10:39:49.354Z</time></trkpt><trkpt lat="33.4973217" lon="7.9929292"><ele>32.75</ele><time>2026-04-18T10:39:50.358Z</time></trkpt><trkpt lat="33.4974316" lon="7.992814"><ele>33.0</ele><time>2026-04-18T10:39:51.365Z</time></trkpt><trkpt lat="33.4975405" lon="7.9926971"><ele>33.0</ele><time>2026-04-18T10:39:52.358Z</time></trkpt><trkpt lat="33.4976502" lon="7.9925821"><ele>33.0</ele><time>2026-04-18T10:39:53.363Z</time></trkpt><trkpt lat="33.4977614" lon="7.9924721"><ele>33.0</ele><time>2026-04-18T10:39:54.359Z</time></trkpt><trkpt lat="33.4978742" lon="7.9923636"><ele>33.0</ele><time>2026-04-18T10:39:55.366Z</time></trkpt><trkpt lat="33.4979851" lon="7.9922524"><ele>32.0</ele><time>2026-04-18T10:39:56.366Z</time></trkpt><trkpt lat="33.4980956" lon="7.9921373"><ele>31.0</ele><time>2026-04-18T10:39:57.365Z</time></trkpt><trkpt lat="33.4982075" lon="7.9920252"><ele>30.0</ele><time>2026-04-18T10:39:58.354Z</time></trkpt><trkpt lat="33.4983118" lon="7.9919121"><ele>29.0</ele><time>2026-04-18T10:39:59.359Z</time></trkpt><trkpt lat="33.4984074" lon="7.9918026"><ele>29.0</ele><time>2026-04-18T10:40:00.361Z</time></trkpt><trkpt lat="33.4985068" lon="7.9917012"><ele>29.0</ele><time>2026-04-18T10:40:01.357Z</time></trkpt><trkpt lat="33.4986176" lon="7.9915947"><ele>29.0</ele><time>2026-04-18T10:40:02.359Z</time></trkpt><trkpt lat="33.4987254" lon="7.9914804"><ele>29.0</ele><time>2026-04-18T10:40:03.365Z</time></trkpt><trkpt lat="33.4988367" lon="7.991367"><ele>29.25</ele><time>2026-04-18T10:40:04.367Z</time></trkpt><trkpt lat="33.4989462" lon="7.9912564"><ele>29.5</ele><time>2026-04-18T10:40:05.361Z</time></trkpt><trkpt lat="33.4990545" lon="7.9911513"><ele>29.75</ele><time>2026-04-18T10:40:06.359Z</time></trkpt><trkpt lat="33.4991645" lon="7.9910506"><ele>30.0</ele><time>2026-04-18T10:40:07.358Z</time></trkpt><trkpt lat="33.4992666" lon="7.9909493"><ele>30.0</ele><time>2026-04-18T10:40:08.355Z</time></trkpt><trkpt lat="33.4993686" lon="7.9908495"><ele>30.0</ele><time>2026-04-18T10:40:09.355Z</time></trkpt><trkpt lat="33.4994737" lon="7.9907461"><ele>30.0</ele><time>2026-04-18T10:40:10.36Z</time></trkpt><trkpt lat="33.4995771" lon="7.9906412"><ele>30.0</ele><time>2026-04-18T10:40:11.367Z</time></trkpt><trkpt lat="33.4996812" lon="7.9905356"><ele>30.0</ele><time>2026-04-18T10:40:12.357Z</time></trkpt><trkpt lat="33.4997817" lon="7.99043"><ele>30.0</ele><time>2026-04-18T10:40:13.358Z</time></trkpt><trkpt lat="33.4998769" lon="7.9903304"><ele>30.0</ele><time>2026-04-18T10:40:14.358Z</time></trkpt><trkpt lat="33.4999665" lon="7.9902333"><ele>30.0</ele><time>2026-04-18T10:40:15.358Z</time></trkpt><trkpt lat="33.5000557" lon="7.9901459"><ele>30.0</ele><time>2026-04-18T10:40:16.363Z</time></trkpt><trkpt lat="33.500157" lon="7.9900428"><ele>30.0</ele><time>2026-04-18T10:40:17.362Z</time></trkpt><trkpt lat="33.5002631" lon="7.9899374"><ele>30.0</ele><time>2026-04-18T10:40:18.357Z</time></trkpt><trkpt lat="33.5003712" lon="7.9898355"><ele>30.0</ele><time>2026-04-18T10:40:19.356Z</time></trkpt><trkpt lat="33.5004789" lon="7.9897318"><ele>29.75</ele><time>2026-04-18T10:40:20.356Z</time></trkpt><trkpt lat="33.5005812" lon="7.989631"><ele>29.5</ele><time>2026-04-18T10:40:21.357Z</time></trkpt><trkpt lat="33.5006811" lon="7.9895288"><ele>29.25</ele><time>2026-04-18T10:40:22.353Z</time></trkpt><trkpt lat="33.5007733" lon="7.989428"><ele>29.0</ele><time>2026-04-18T10:40:23.357Z</time></trkpt><trkpt lat="33.5008659" lon="7.9893302"><ele>29.0</ele><time>2026-04-18T10:40:24.358Z</time></trkpt><trkpt lat="33.50096" lon="7.9892386"><ele>29.0</ele><time>2026-04-18T10:40:25.358Z</time></trkpt><trkpt lat="33.501058" lon="7.9891529"><ele>29.0</ele><time>2026-04-18T10:40:26.356Z</time></trkpt><trkpt lat="33.5011526" lon="7.9890628"><ele>29.0</ele><time>2026-04-18T10:40:27.36Z</time></trkpt><trkpt lat="33.50125" lon="7.9889633"><ele>29.0</ele><time>2026-04-18T10:40:28.357Z</time></trkpt><trkpt lat="33.5013517" lon="7.9888615"><ele>29.0</ele><time>2026-04-18T10:40:29.359Z</time></trkpt><trkpt lat="33.5014471" lon="7.98876"><ele>29.0</ele><time>2026-04-18T10:40:30.359Z</time></trkpt><trkpt lat="33.5015388" lon="7.9886669"><ele>29.0</ele><time>2026-04-18T10:40:31.354Z</time></trkpt><trkpt lat="33.5016321" lon="7.9885786"><ele>29.0</ele><time>2026-04-18T10:40:32.362Z</time></trkpt><trkpt lat="33.5017287" lon="7.9884888"><ele>29.0</ele><time>2026-04-18T10:40:33.364Z</time></trkpt><trkpt lat="33.5018232" lon="7.9883914"><ele>29.0</ele><time>2026-04-18T10:40:34.356Z</time></trkpt><trkpt lat="33.5019191" lon="7.9882921"><ele>29.0</ele><time>2026-04-18T10:40:35.361Z</time></trkpt><trkpt lat="33.5020174" lon="7.9881938"><ele>29.75</ele><time>2026-04-18T10:40:36.362Z</time></trkpt><trkpt lat="33.5021202" lon="7.9880959"><ele>30.5</ele><time>2026-04-18T10:40:37.357Z</time></trkpt><trkpt lat="33.5022273" lon="7.9879935"><ele>31.25</ele><time>2026-04-18T10:40:38.354Z</time></trkpt><trkpt lat="33.5023357" lon="7.9878854"><ele>32.0</ele><time>2026-04-18T10:40:39.359Z</time></trkpt><trkpt lat="33.502444" lon="7.9877736"><ele>32.0</ele><time>2026-04-18T10:40:40.358Z</time></trkpt><trkpt lat="33.502554" lon="7.9876632"><ele>32.0</ele><time>2026-04-18T10:40:41.358Z</time></trkpt><trkpt lat="33.502665" lon="7.987554"><ele>32.0</ele><time>2026-04-18T10:40:42.353Z</time></trkpt><trkpt lat="33.5027693" lon="7.9874531"><ele>32.0</ele><time>2026-04-18T10:40:43.356Z</time></trkpt><trkpt lat="33.5028616" lon="7.987358"><ele>31.25</ele><time>2026-04-18T10:40:44.355Z</time></trkpt><trkpt lat="33.5029496" lon="7.9872619"><ele>30.5</ele><time>2026-04-18T10:40:45.359Z</time></trkpt><trkpt lat="33.5030412" lon="7.9871669"><ele>29.75</ele><time>2026-04-18T10:40:46.356Z</time></trkpt><trkpt lat="33.5031339" lon="7.9870763"><ele>29.0</ele><time>2026-04-18T10:40:47.361Z</time></trkpt><trkpt lat="33.5032268" lon="7.9869848"><ele>29.0</ele><time>2026-04-18T10:40:48.359Z</time></trkpt><trkpt lat="33.5033133" lon="7.9868957"><ele>29.0</ele><time>2026-04-18T10:40:49.357Z</time></trkpt><trkpt lat="33.5033936" lon="7.9868135"><ele>29.0</ele><time>2026-04-18T10:40:50.357Z</time></trkpt><trkpt lat="33.5034625" lon="7.9867475"><ele>29.0</ele><time>2026-04-18T10:40:51.362Z</time></trkpt><trkpt lat="33.5035178" lon="7.9866987"><ele>29.0</ele><time>2026-04-18T10:40:52.363Z</time></trkpt><trkpt lat="33.5035922" lon="7.9866358"><ele>28.999999999999996</ele><time>2026-04-18T10:40:54.358Z</time></trkpt><trkpt lat="33.5036541" lon="7.9865894"><ele>29.0</ele><time>2026-04-18T10:41:59.365Z</time></trkpt><trkpt lat="33.5037154" lon="7.9865271"><ele>29.0</ele><time>2026-04-18T10:42:01.366Z</time></trkpt><trkpt lat="33.5037867" lon="7.986452"><ele>29.0</ele><time>2026-04-18T10:42:03.37Z</time></trkpt><trkpt lat="33.5038451" lon="7.9863904"><ele>28.999999999999996</ele><time>2026-04-18T10:42:05.36Z</time></trkpt><trkpt lat="33.5039045" lon="7.9863282"><ele>29.0</ele><time>2026-04-18T10:42:08.365Z</time></trkpt><trkpt lat="33.5039668" lon="7.9862631"><ele>28.999999999999996</ele><time>2026-04-18T10:42:11.362Z</time></trkpt><trkpt lat="33.5040182" lon="7.9862158"><ele>29.0</ele><time>2026-04-18T10:42:13.365Z</time></trkpt><trkpt lat="33.504084" lon="7.9861608"><ele>29.0</ele><time>2026-04-18T10:42:17.355Z</time></trkpt><trkpt lat="33.5041433" lon="7.9861146"><ele>29.0</ele><time>2026-04-18T10:42:19.366Z</time></trkpt><trkpt lat="33.5042363" lon="7.9860373"><ele>28.999999999999996</ele><time>2026-04-18T10:42:21.359Z</time></trkpt><trkpt lat="33.5043218" lon="7.9859561"><ele>29.0</ele><time>2026-04-18T10:42:23.363Z</time></trkpt><trkpt lat="33.5044192" lon="7.9858644"><ele>29.833333333333332</ele><time>2026-04-18T10:42:25.362Z</time></trkpt><trkpt lat="33.5044678" lon="7.9858072"><ele>30.666666666666664</ele><time>2026-04-18T10:42:27.362Z</time></trkpt><trkpt lat="33.5045308" lon="7.9857428"><ele>31.5</ele><time>2026-04-18T10:42:29.363Z</time></trkpt><trkpt lat="33.5046006" lon="7.9856844"><ele>32.333333333333336</ele><time>2026-04-18T10:42:31.367Z</time></trkpt><trkpt lat="33.5046705" lon="7.9856274"><ele>33.16666666666667</ele><time>2026-04-18T10:42:34.364Z</time></trkpt><trkpt lat="33.5047213" lon="7.9855733"><ele>34.0</ele><time>2026-04-18T10:42:36.365Z</time></trkpt><trkpt lat="33.5047912" lon="7.9855013"><ele>34.0</ele><time>2026-04-18T10:42:38.36Z</time></trkpt><trkpt lat="33.5048753" lon="7.9853901"><ele>34.0</ele><time>2026-04-18T10:42:40.357Z</time></trkpt><trkpt lat="33.5049223" lon="7.9853361"><ele>34.0</ele><time>2026-04-18T10:42:41.354Z</time></trkpt><trkpt lat="33.5049906" lon="7.9852681"><ele>34.0</ele><time>2026-04-18T10:42:43.355Z</time></trkpt><trkpt lat="33.5050388" lon="7.9852159"><ele>34.0</ele><time>2026-04-18T10:42:46.362Z</time></trkpt><trkpt lat="33.5051061" lon="7.9851545"><ele>34.0</ele><time>2026-04-18T10:43:45.365Z</time></trkpt><trkpt lat="33.5051911" lon="7.9850709"><ele>34.0</ele><time>2026-04-18T10:43:47.367Z</time></trkpt><trkpt lat="33.5052417" lon="7.9850221"><ele>34.0</ele><time>2026-04-18T10:43:48.363Z</time></trkpt><trkpt lat="33.5053019" lon="7.9849653"><ele>34.0</ele><time>2026-04-18T10:43:49.367Z</time></trkpt><trkpt lat="33.5053647" lon="7.9849036"><ele>34.0</ele><time>2026-04-18T10:43:50.365Z</time></trkpt><trkpt lat="33.5054258" lon="7.9848414"><ele>34.0</ele><time>2026-04-18T10:43:51.372Z</time></trkpt><trkpt lat="33.50549" lon="7.9847781"><ele>34.0</ele><time>2026-04-18T10:43:52.36Z</time></trkpt><trkpt lat="33.5055576" lon="7.9847213"><ele>33.16666666666667</ele><time>2026-04-18T10:43:53.365Z</time></trkpt><trkpt lat="33.5056237" lon="7.9846679"><ele>32.333333333333336</ele><time>2026-04-18T10:43:54.358Z</time></trkpt><trkpt lat="33.5056812" lon="7.9846212"><ele>31.5</ele><time>2026-04-18T10:43:55.355Z</time></trkpt><trkpt lat="33.5057798" lon="7.9845389"><ele>30.666666666666664</ele><time>2026-04-18T10:43:57.363Z</time></trkpt><trkpt lat="33.5058302" lon="7.9844933"><ele>29.833333333333332</ele><time>2026-04-18T10:43:58.36Z</time></trkpt><trkpt lat="33.5058843" lon="7.9844398"><ele>29.0</ele><time>2026-04-18T10:43:59.364Z</time></trkpt><trkpt lat="33.5059421" lon="7.9843773"><ele>29.0</ele><time>2026-04-18T10:44:00.363Z</time></trkpt><trkpt lat="33.5060079" lon="7.9843049"><ele>29.0</ele><time>2026-04-18T10:44:01.36Z</time></trkpt><trkpt lat="33.5060803" lon="7.9842205"><ele>29.0</ele><time>2026-04-18T10:44:02.371Z</time></trkpt><trkpt lat="33.5061556" lon="7.9841307"><ele>29.0</ele><time>2026-04-18T10:44:03.364Z</time></trkpt><trkpt lat="33.5062355" lon="7.9840386"><ele>29.0</ele><time>2026-04-18T10:44:04.372Z</time></trkpt><trkpt lat="33.5063169" lon="7.983948"><ele>29.0</ele><time>2026-04-18T10:44:05.367Z</time></trkpt><trkpt lat="33.5063994" lon="7.9838603"><ele>29.0</ele><time>2026-04-18T10:44:06.36Z</time></trkpt><trkpt lat="33.5064882" lon="7.9837702"><ele>29.0</ele><time>2026-04-18T10:44:07.359Z</time></trkpt><trkpt lat="33.5065801" lon="7.9836785"><ele>29.0</ele><time>2026-04-18T10:44:08.365Z</time></trkpt><trkpt lat="33.5066721" lon="7.9835875"><ele>29.0</ele><time>2026-04-18T10:44:09.36Z</time></trkpt><trkpt lat="33.5067663" lon="7.9834944"><ele>29.0</ele><time>2026-04-18T10:44:10.366Z</time></trkpt><trkpt lat="33.5068607" lon="7.9833991"><ele>29.0</ele><time>2026-04-18T10:44:11.368Z</time></trkpt><trkpt lat="33.5069551" lon="7.9833034"><ele>29.0</ele><time>2026-04-18T10:44:12.369Z</time></trkpt><trkpt lat="33.5070491" lon="7.9832083"><ele>29.5</ele><time>2026-04-18T10:44:13.362Z</time></trkpt><trkpt lat="33.5071434" lon="7.9831163"><ele>30.0</ele><time>2026-04-18T10:44:14.371Z</time></trkpt><trkpt lat="33.5072348" lon="7.9830262"><ele>30.5</ele><time>2026-04-18T10:44:15.364Z</time></trkpt><trkpt lat="33.507324" lon="7.9829385"><ele>31.0</ele><time>2026-04-18T10:44:16.373Z</time></trkpt><trkpt lat="33.5074069" lon="7.9828588"><ele>31.0</ele><time>2026-04-18T10:44:17.375Z</time></trkpt><trkpt lat="33.5074789" lon="7.9827873"><ele>31.0</ele><time>2026-04-18T10:44:18.369Z</time></trkpt><trkpt lat="33.5075475" lon="7.9827147"><ele>31.0</ele><time>2026-04-18T10:44:19.37Z</time></trkpt><trkpt lat="33.5076218" lon="7.982637"><ele>31.0</ele><time>2026-04-18T10:44:20.368Z</time></trkpt><trkpt lat="33.5077044" lon="7.9825511"><ele>31.0</ele><time>2026-04-18T10:44:21.362Z</time></trkpt><trkpt lat="33.5077895" lon="7.9824672"><ele>30.75</ele><time>2026-04-18T10:44:22.36Z</time></trkpt><trkpt lat="33.5078789" lon="7.9823858"><ele>30.5</ele><time>2026-04-18T10:44:23.367Z</time></trkpt><trkpt lat="33.5079725" lon="7.982301"><ele>30.25</ele><time>2026-04-18T10:44:24.368Z</time></trkpt><trkpt lat="33.5080643" lon="7.9822167"><ele>30.0</ele><time>2026-04-18T10:44:25.364Z</time></trkpt><trkpt lat="33.508148" lon="7.9821331"><ele>30.0</ele><time>2026-04-18T10:44:26.369Z</time></trkpt><trkpt lat="33.5082255" lon="7.9820533"><ele>30.0</ele><time>2026-04-18T10:44:27.369Z</time></trkpt><trkpt lat="33.5083002" lon="7.9819786"><ele>30.0</ele><time>2026-04-18T10:44:28.366Z</time></trkpt><trkpt lat="33.5083762" lon="7.9819049"><ele>30.0</ele><time>2026-04-18T10:44:29.356Z</time></trkpt><trkpt lat="33.5084525" lon="7.9818287"><ele>30.0</ele><time>2026-04-18T10:44:30.363Z</time></trkpt><trkpt lat="33.5085268" lon="7.9817501"><ele>30.5</ele><time>2026-04-18T10:44:31.366Z</time></trkpt><trkpt lat="33.5086072" lon="7.9816702"><ele>31.0</ele><time>2026-04-18T10:44:32.368Z</time></trkpt><trkpt lat="33.5086933" lon="7.9815829"><ele>31.5</ele><time>2026-04-18T10:44:33.364Z</time></trkpt><trkpt lat="33.508783" lon="7.9814938"><ele>32.0</ele><time>2026-04-18T10:44:34.363Z</time></trkpt><trkpt lat="33.5088784" lon="7.981402"><ele>32.0</ele><time>2026-04-18T10:44:35.36Z</time></trkpt><trkpt lat="33.508976" lon="7.9813043"><ele>32.0</ele><time>2026-04-18T10:44:36.36Z</time></trkpt><trkpt lat="33.5090762" lon="7.981202"><ele>32.0</ele><time>2026-04-18T10:44:37.367Z</time></trkpt><trkpt lat="33.5091763" lon="7.9811027"><ele>32.0</ele><time>2026-04-18T10:44:38.362Z</time></trkpt><trkpt lat="33.5092741" lon="7.9810042"><ele>32.0</ele><time>2026-04-18T10:44:39.37Z</time></trkpt><trkpt lat="33.5093723" lon="7.9809072"><ele>32.0</ele><time>2026-04-18T10:44:40.368Z</time></trkpt><trkpt lat="33.5094695" lon="7.9808111"><ele>32.0</ele><time>2026-04-18T10:44:41.361Z</time></trkpt><trkpt lat="33.5095666" lon="7.9807148"><ele>32.0</ele><time>2026-04-18T10:44:42.363Z</time></trkpt><trkpt lat="33.5096624" lon="7.9806156"><ele>32.0</ele><time>2026-04-18T10:44:43.371Z</time></trkpt><trkpt lat="33.5097617" lon="7.9805147"><ele>32.0</ele><time>2026-04-18T10:44:44.364Z</time></trkpt><trkpt lat="33.5098625" lon="7.980418"><ele>32.0</ele><time>2026-04-18T10:44:45.361Z</time></trkpt><trkpt lat="33.5099659" lon="7.980324"><ele>32.0</ele><time>2026-04-18T10:44:46.367Z</time></trkpt><trkpt lat="33.5100684" lon="7.980227"><ele>32.0</ele><time>2026-04-18T10:44:47.364Z</time></trkpt><trkpt lat="33.5101691" lon="7.9801292"><ele>32.0</ele><time>2026-04-18T10:44:48.366Z</time></trkpt><trkpt lat="33.5102658" lon="7.980031"><ele>32.0</ele><time>2026-04-18T10:44:49.363Z</time></trkpt><trkpt lat="33.5103581" lon="7.9799335"><ele>32.0</ele><time>2026-04-18T10:44:50.363Z</time></trkpt><trkpt lat="33.5104494" lon="7.9798367"><ele>31.5</ele><time>2026-04-18T10:44:51.361Z</time></trkpt><trkpt lat="33.5105438" lon="7.9797418"><ele>31.0</ele><time>2026-04-18T10:44:52.361Z</time></trkpt><trkpt lat="33.5106404" lon="7.9796498"><ele>30.5</ele><time>2026-04-18T10:44:53.364Z</time></trkpt><trkpt lat="33.5107363" lon="7.9795583"><ele>30.0</ele><time>2026-04-18T10:44:54.36Z</time></trkpt><trkpt lat="33.5108322" lon="7.979465"><ele>30.0</ele><time>2026-04-18T10:44:55.367Z</time></trkpt><trkpt lat="33.5109295" lon="7.9793668"><ele>30.0</ele><time>2026-04-18T10:44:56.363Z</time></trkpt><trkpt lat="33.5110275" lon="7.9792667"><ele>30.0</ele><time>2026-04-18T10:44:57.364Z</time></trkpt><trkpt lat="33.5111239" lon="7.9791691"><ele>30.0</ele><time>2026-04-18T10:44:58.368Z</time></trkpt><trkpt lat="33.5112196" lon="7.9790701"><ele>29.75</ele><time>2026-04-18T10:44:59.363Z</time></trkpt><trkpt lat="33.5113134" lon="7.9789709"><ele>29.5</ele><time>2026-04-18T10:45:00.366Z</time></trkpt><trkpt lat="33.5114047" lon="7.9788802"><ele>29.25</ele><time>2026-04-18T10:45:01.367Z</time></trkpt><trkpt lat="33.5114974" lon="7.978799"><ele>29.0</ele><time>2026-04-18T10:45:02.363Z</time></trkpt><trkpt lat="33.5115891" lon="7.9787202"><ele>29.0</ele><time>2026-04-18T10:45:03.372Z</time></trkpt><trkpt lat="33.5116845" lon="7.9786325"><ele>29.0</ele><time>2026-04-18T10:45:04.37Z</time></trkpt><trkpt lat="33.5117784" lon="7.9785445"><ele>29.0</ele><time>2026-04-18T10:45:05.369Z</time></trkpt><trkpt lat="33.5118698" lon="7.9784591"><ele>29.0</ele><time>2026-04-18T10:45:06.37Z</time></trkpt><trkpt lat="33.5119589" lon="7.9783752"><ele>29.166666666666664</ele><time>2026-04-18T10:45:07.37Z</time></trkpt><trkpt lat="33.5120382" lon="7.9782959"><ele>29.333333333333332</ele><time>2026-04-18T10:45:08.365Z</time></trkpt><trkpt lat="33.5121052" lon="7.9782235"><ele>29.5</ele><time>2026-04-18T10:45:09.37Z</time></trkpt><trkpt lat="33.5121619" lon="7.9781508"><ele>29.666666666666664</ele><time>2026-04-18T10:45:10.368Z</time></trkpt><trkpt lat="33.5122102" lon="7.9780815"><ele>29.833333333333332</ele><time>2026-04-18T10:45:11.368Z</time></trkpt><trkpt lat="33.5122497" lon="7.9780195"><ele>30.0</ele><time>2026-04-18T10:45:12.366Z</time></trkpt><trkpt lat="33.512342" lon="7.9779267"><ele>30.142857142857146</ele><time>2026-04-18T10:45:14.361Z</time></trkpt><trkpt lat="33.5123962" lon="7.9778818"><ele>30.285714285714285</ele><time>2026-04-18T10:45:15.369Z</time></trkpt><trkpt lat="33.5124603" lon="7.9778458"><ele>30.42857142857143</ele><time>2026-04-18T10:45:16.366Z</time></trkpt><trkpt lat="33.5125199" lon="7.9778041"><ele>30.571428571428573</ele><time>2026-04-18T10:45:17.364Z</time></trkpt><trkpt lat="33.512576" lon="7.9777497"><ele>30.714285714285715</ele><time>2026-04-18T10:45:18.363Z</time></trkpt><trkpt lat="33.5126393" lon="7.977691"><ele>30.857142857142858</ele><time>2026-04-18T10:45:19.367Z</time></trkpt><trkpt lat="33.5127038" lon="7.9776302"><ele>31.0</ele><time>2026-04-18T10:45:20.366Z</time></trkpt><trkpt lat="33.5127708" lon="7.9775658"><ele>31.200000000000003</ele><time>2026-04-18T10:45:21.363Z</time></trkpt><trkpt lat="33.5128416" lon="7.977498"><ele>31.400000000000002</ele><time>2026-04-18T10:45:22.362Z</time></trkpt><trkpt lat="33.5129222" lon="7.9774276"><ele>31.6</ele><time>2026-04-18T10:45:23.367Z</time></trkpt><trkpt lat="33.5130057" lon="7.9773473"><ele>31.8</ele><time>2026-04-18T10:45:24.37Z</time></trkpt><trkpt lat="33.5130911" lon="7.9772636"><ele>32.0</ele><time>2026-04-18T10:45:25.372Z</time></trkpt><trkpt lat="33.5131755" lon="7.9771759"><ele>32.0</ele><time>2026-04-18T10:45:26.367Z</time></trkpt><trkpt lat="33.5132596" lon="7.9770919"><ele>32.0</ele><time>2026-04-18T10:45:27.363Z</time></trkpt><trkpt lat="33.5133409" lon="7.9770051"><ele>32.0</ele><time>2026-04-18T10:45:28.366Z</time></trkpt><trkpt lat="33.513424" lon="7.9769175"><ele>32.0</ele><time>2026-04-18T10:45:29.364Z</time></trkpt><trkpt lat="33.5135078" lon="7.9768356"><ele>32.0</ele><time>2026-04-18T10:45:30.357Z</time></trkpt><trkpt lat="33.5135924" lon="7.9767563"><ele>32.0</ele><time>2026-04-18T10:45:31.359Z</time></trkpt><trkpt lat="33.5136741" lon="7.9766788"><ele>32.0</ele><time>2026-04-18T10:45:32.36Z</time></trkpt><trkpt lat="33.5137492" lon="7.9766071"><ele>32.0</ele><time>2026-04-18T10:45:33.356Z</time></trkpt><trkpt lat="33.5138253" lon="7.9765258"><ele>32.0</ele><time>2026-04-18T10:45:34.358Z</time></trkpt><trkpt lat="33.5139048" lon="7.976447"><ele>32.0</ele><time>2026-04-18T10:45:35.357Z</time></trkpt><trkpt lat="33.5139905" lon="7.9763654"><ele>32.0</ele><time>2026-04-18T10:45:36.358Z</time></trkpt><trkpt lat="33.5140771" lon="7.9762804"><ele>32.0</ele><time>2026-04-18T10:45:37.363Z</time></trkpt><trkpt lat="33.5141627" lon="7.9761946"><ele>32.0</ele><time>2026-04-18T10:45:38.368Z</time></trkpt><trkpt lat="33.5142471" lon="7.9761106"><ele>32.0</ele><time>2026-04-18T10:45:39.369Z</time></trkpt><trkpt lat="33.5143326" lon="7.9760264"><ele>32.0</ele><time>2026-04-18T10:45:40.367Z</time></trkpt><trkpt lat="33.5144161" lon="7.9759432"><ele>32.0</ele><time>2026-04-18T10:45:41.367Z</time></trkpt><trkpt lat="33.5144984" lon="7.9758615"><ele>32.0</ele><time>2026-04-18T10:45:42.369Z</time></trkpt><trkpt lat="33.5145806" lon="7.9757795"><ele>32.0</ele><time>2026-04-18T10:45:43.369Z</time></trkpt><trkpt lat="33.5146676" lon="7.9756971"><ele>32.0</ele><time>2026-04-18T10:45:44.368Z</time></trkpt><trkpt lat="33.5147567" lon="7.9756113"><ele>32.0</ele><time>2026-04-18T10:45:45.366Z</time></trkpt><trkpt lat="33.5148471" lon="7.9755233"><ele>32.0</ele><time>2026-04-18T10:45:46.369Z</time></trkpt><trkpt lat="33.5149399" lon="7.9754311"><ele>32.0</ele><time>2026-04-18T10:45:47.359Z</time></trkpt><trkpt lat="33.5150369" lon="7.9753367"><ele>32.0</ele><time>2026-04-18T10:45:48.371Z</time></trkpt><trkpt lat="33.5151345" lon="7.9752427"><ele>32.0</ele><time>2026-04-18T10:45:49.368Z</time></trkpt><trkpt lat="33.5152299" lon="7.9751479"><ele>32.0</ele><time>2026-04-18T10:45:50.368Z</time></trkpt><trkpt lat="33.5153174" lon="7.9750589"><ele>32.0</ele><time>2026-04-18T10:45:51.367Z</time></trkpt><trkpt lat="33.5154049" lon="7.9749726"><ele>32.0</ele><time>2026-04-18T10:45:52.36Z</time></trkpt><trkpt lat="33.515487" lon="7.9748869"><ele>32.0</ele><time>2026-04-18T10:45:53.362Z</time></trkpt><trkpt lat="33.5155685" lon="7.9748055"><ele>32.0</ele><time>2026-04-18T10:45:54.365Z</time></trkpt><trkpt lat="33.5156425" lon="7.9747311"><ele>32.4</ele><time>2026-04-18T10:45:55.371Z</time></trkpt><trkpt lat="33.5157067" lon="7.9746575"><ele>32.800000000000004</ele><time>2026-04-18T10:45:56.371Z</time></trkpt><trkpt lat="33.5157683" lon="7.9745856"><ele>33.2</ele><time>2026-04-18T10:45:57.368Z</time></trkpt><trkpt lat="33.5158345" lon="7.9745094"><ele>33.6</ele><time>2026-04-18T10:45:58.373Z</time></trkpt><trkpt lat="33.5159148" lon="7.9744274"><ele>34.0</ele><time>2026-04-18T10:45:59.365Z</time></trkpt><trkpt lat="33.5160043" lon="7.9743393"><ele>34.0</ele><time>2026-04-18T10:46:00.366Z</time></trkpt><trkpt lat="33.5160983" lon="7.9742541"><ele>34.0</ele><time>2026-04-18T10:46:01.365Z</time></trkpt><trkpt lat="33.5161944" lon="7.9741682"><ele>34.0</ele><time>2026-04-18T10:46:02.367Z</time></trkpt><trkpt lat="33.5162887" lon="7.9740868"><ele>34.0</ele><time>2026-04-18T10:46:03.367Z</time></trkpt><trkpt lat="33.5163778" lon="7.9740132"><ele>33.2</ele><time>2026-04-18T10:46:04.37Z</time></trkpt><trkpt lat="33.5164635" lon="7.9739352"><ele>32.4</ele><time>2026-04-18T10:46:05.362Z</time></trkpt><trkpt lat="33.5165507" lon="7.973847"><ele>31.6</ele><time>2026-04-18T10:46:06.369Z</time></trkpt><trkpt lat="33.5166355" lon="7.9737585"><ele>30.8</ele><time>2026-04-18T10:46:07.372Z</time></trkpt><trkpt lat="33.5167214" lon="7.9736693"><ele>30.0</ele><time>2026-04-18T10:46:08.365Z</time></trkpt><trkpt lat="33.5168097" lon="7.9735799"><ele>30.0</ele><time>2026-04-18T10:46:09.371Z</time></trkpt><trkpt lat="33.5168949" lon="7.9734927"><ele>30.0</ele><time>2026-04-18T10:46:10.363Z</time></trkpt><trkpt lat="33.5169791" lon="7.973407"><ele>30.0</ele><time>2026-04-18T10:46:11.371Z</time></trkpt><trkpt lat="33.51706" lon="7.973325"><ele>30.0</ele><time>2026-04-18T10:46:12.368Z</time></trkpt><trkpt lat="33.5171345" lon="7.9732509"><ele>30.0</ele><time>2026-04-18T10:46:13.361Z</time></trkpt><trkpt lat="33.5172076" lon="7.9731772"><ele>30.166666666666668</ele><time>2026-04-18T10:46:14.364Z</time></trkpt><trkpt lat="33.5172799" lon="7.9731054"><ele>30.333333333333336</ele><time>2026-04-18T10:46:15.367Z</time></trkpt><trkpt lat="33.5173453" lon="7.9730415"><ele>30.5</ele><time>2026-04-18T10:46:16.362Z</time></trkpt><trkpt lat="33.5174093" lon="7.9729783"><ele>30.666666666666668</ele><time>2026-04-18T10:46:17.361Z</time></trkpt><trkpt lat="33.5174644" lon="7.9729247"><ele>30.833333333333336</ele><time>2026-04-18T10:46:18.364Z</time></trkpt><trkpt lat="33.5175562" lon="7.9728405"><ele>31.0</ele><time>2026-04-18T10:46:20.366Z</time></trkpt><trkpt lat="33.5176296" lon="7.9727705"><ele>31.000000000000004</ele><time>2026-04-18T10:46:22.37Z</time></trkpt><trkpt lat="33.5176859" lon="7.9727178"><ele>31.0</ele><time>2026-04-18T10:46:24.362Z</time></trkpt><trkpt lat="33.5177423" lon="7.9726562"><ele>31.0</ele><time>2026-04-18T10:46:27.368Z</time></trkpt><trkpt lat="33.5178153" lon="7.9725752"><ele>31.0</ele><time>2026-04-18T10:46:42.37Z</time></trkpt><trkpt lat="33.517866" lon="7.972525"><ele>31.000000000000004</ele><time>2026-04-18T10:46:43.363Z</time></trkpt><trkpt lat="33.5179242" lon="7.9724693"><ele>31.0</ele><time>2026-04-18T10:46:44.372Z</time></trkpt><trkpt lat="33.5179868" lon="7.9724092"><ele>30.666666666666668</ele><time>2026-04-18T10:46:45.368Z</time></trkpt><trkpt lat="33.5180524" lon="7.9723382"><ele>30.333333333333336</ele><time>2026-04-18T10:46:46.366Z</time></trkpt><trkpt lat="33.5181128" lon="7.9722597"><ele>30.0</ele><time>2026-04-18T10:46:47.368Z</time></trkpt><trkpt lat="33.518172" lon="7.9721812"><ele>29.666666666666664</ele><time>2026-04-18T10:46:48.368Z</time></trkpt><trkpt lat="33.5182238" lon="7.972112"><ele>29.333333333333332</ele><time>2026-04-18T10:46:49.371Z</time></trkpt><trkpt lat="33.5182731" lon="7.9720494"><ele>29.0</ele><time>2026-04-18T10:46:50.371Z</time></trkpt><trkpt lat="33.5183282" lon="7.9720022"><ele>29.0</ele><time>2026-04-18T10:46:51.366Z</time></trkpt><trkpt lat="33.5183965" lon="7.9719516"><ele>29.0</ele><time>2026-04-18T10:46:52.358Z</time></trkpt><trkpt lat="33.5184728" lon="7.9718952"><ele>29.0</ele><time>2026-04-18T10:46:53.359Z</time></trkpt><trkpt lat="33.5185648" lon="7.9718243"><ele>29.0</ele><time>2026-04-18T10:46:54.362Z</time></trkpt><trkpt lat="33.5186626" lon="7.9717422"><ele>29.0</ele><time>2026-04-18T10:46:55.366Z</time></trkpt><trkpt lat="33.5187704" lon="7.9716459"><ele>29.0</ele><time>2026-04-18T10:46:56.363Z</time></trkpt><trkpt lat="33.5188858" lon="7.971542"><ele>29.0</ele><time>2026-04-18T10:46:57.368Z</time></trkpt><trkpt lat="33.5190007" lon="7.9714399"><ele>29.0</ele><time>2026-04-18T10:46:58.362Z</time></trkpt><trkpt lat="33.5191118" lon="7.9713315"><ele>29.0</ele><time>2026-04-18T10:46:59.366Z</time></trkpt><trkpt lat="33.5192231" lon="7.9712241"><ele>29.0</ele><time>2026-04-18T10:47:00.367Z</time></trkpt><trkpt lat="33.5193234" lon="7.9711247"><ele>29.0</ele><time>2026-04-18T10:47:01.366Z</time></trkpt><trkpt lat="33.5194179" lon="7.9710349"><ele>29.0</ele><time>2026-04-18T10:47:02.373Z</time></trkpt><trkpt lat="33.519513" lon="7.9709442"><ele>29.0</ele><time>2026-04-18T10:47:03.366Z</time></trkpt><trkpt lat="33.5196074" lon="7.970843"><ele>30.0</ele><time>2026-04-18T10:47:04.366Z</time></trkpt><trkpt lat="33.5196987" lon="7.9707399"><ele>31.0</ele><time>2026-04-18T10:47:05.371Z</time></trkpt><trkpt lat="33.5197872" lon="7.9706425"><ele>32.0</ele><time>2026-04-18T10:47:06.372Z</time></trkpt><trkpt lat="33.5198814" lon="7.9705522"><ele>33.0</ele><time>2026-04-18T10:47:07.373Z</time></trkpt><trkpt lat="33.5199773" lon="7.9704618"><ele>33.0</ele><time>2026-04-18T10:47:08.367Z</time></trkpt><trkpt lat="33.5200687" lon="7.9703729"><ele>33.0</ele><time>2026-04-18T10:47:09.369Z</time></trkpt><trkpt lat="33.5201543" lon="7.9702871"><ele>33.0</ele><time>2026-04-18T10:47:10.36Z</time></trkpt><trkpt lat="33.5202371" lon="7.9702051"><ele>33.0</ele><time>2026-04-18T10:47:11.363Z</time></trkpt><trkpt lat="33.5203196" lon="7.9701275"><ele>33.0</ele><time>2026-04-18T10:47:12.359Z</time></trkpt><trkpt lat="33.5203994" lon="7.9700508"><ele>32.4</ele><time>2026-04-18T10:47:13.359Z</time></trkpt><trkpt lat="33.5204744" lon="7.9699734"><ele>31.799999999999997</ele><time>2026-04-18T10:47:14.367Z</time></trkpt><trkpt lat="33.5205526" lon="7.969895"><ele>31.2</ele><time>2026-04-18T10:47:15.366Z</time></trkpt><trkpt lat="33.5206351" lon="7.9698146"><ele>30.6</ele><time>2026-04-18T10:47:16.368Z</time></trkpt><trkpt lat="33.5207229" lon="7.9697308"><ele>30.0</ele><time>2026-04-18T10:47:17.364Z</time></trkpt><trkpt lat="33.5208113" lon="7.969643"><ele>30.0</ele><time>2026-04-18T10:47:18.365Z</time></trkpt><trkpt lat="33.5209029" lon="7.9695522"><ele>30.0</ele><time>2026-04-18T10:47:19.364Z</time></trkpt><trkpt lat="33.5209987" lon="7.9694557"><ele>30.0</ele><time>2026-04-18T10:47:20.357Z</time></trkpt><trkpt lat="33.5210979" lon="7.9693569"><ele>30.0</ele><time>2026-04-18T10:47:21.37Z</time></trkpt><trkpt lat="33.5211961" lon="7.9692586"><ele>30.25</ele><time>2026-04-18T10:47:22.367Z</time></trkpt><trkpt lat="33.5212931" lon="7.9691632"><ele>30.5</ele><time>2026-04-18T10:47:23.362Z</time></trkpt><trkpt lat="33.5213953" lon="7.9690626"><ele>30.75</ele><time>2026-04-18T10:47:24.368Z</time></trkpt><trkpt lat="33.5214995" lon="7.9689593"><ele>31.0</ele><time>2026-04-18T10:47:25.362Z</time></trkpt><trkpt lat="33.5216066" lon="7.9688514"><ele>31.0</ele><time>2026-04-18T10:47:26.366Z</time></trkpt><trkpt lat="33.5217147" lon="7.9687424"><ele>31.0</ele><time>2026-04-18T10:47:27.366Z</time></trkpt><trkpt lat="33.5218226" lon="7.9686339"><ele>31.0</ele><time>2026-04-18T10:47:28.37Z</time></trkpt><trkpt lat="33.5219316" lon="7.9685298"><ele>31.0</ele><time>2026-04-18T10:47:29.362Z</time></trkpt><trkpt lat="33.5220431" lon="7.9684247"><ele>30.5</ele><time>2026-04-18T10:47:30.367Z</time></trkpt><trkpt lat="33.522156" lon="7.9683154"><ele>30.0</ele><time>2026-04-18T10:47:31.365Z</time></trkpt><trkpt lat="33.5222697" lon="7.9682044"><ele>29.5</ele><time>2026-04-18T10:47:32.357Z</time></trkpt><trkpt lat="33.5223827" lon="7.9680918"><ele>29.0</ele><time>2026-04-18T10:47:33.375Z</time></trkpt><trkpt lat="33.5224943" lon="7.9679764"><ele>29.0</ele><time>2026-04-18T10:47:34.366Z</time></trkpt><trkpt lat="33.5226038" lon="7.9678642"><ele>29.0</ele><time>2026-04-18T10:47:35.361Z</time></trkpt><trkpt lat="33.5227123" lon="7.9677559"><ele>29.0</ele><time>2026-04-18T10:47:36.364Z</time></trkpt><trkpt lat="33.5228211" lon="7.9676499"><ele>29.0</ele><time>2026-04-18T10:47:37.371Z</time></trkpt><trkpt lat="33.52293" lon="7.9675442"><ele>28.75</ele><time>2026-04-18T10:47:38.364Z</time></trkpt><trkpt lat="33.523036" lon="7.9674411"><ele>28.5</ele><time>2026-04-18T10:47:39.37Z</time></trkpt><trkpt lat="33.5231374" lon="7.9673383"><ele>28.25</ele><time>2026-04-18T10:47:40.366Z</time></trkpt><trkpt lat="33.5232373" lon="7.967234"><ele>28.0</ele><time>2026-04-18T10:47:41.364Z</time></trkpt><trkpt lat="33.5233387" lon="7.9671311"><ele>28.0</ele><time>2026-04-18T10:47:42.369Z</time></trkpt><trkpt lat="33.5234402" lon="7.9670323"><ele>28.0</ele><time>2026-04-18T10:47:43.362Z</time></trkpt><trkpt lat="33.5235374" lon="7.9669372"><ele>28.0</ele><time>2026-04-18T10:47:44.369Z</time></trkpt><trkpt lat="33.5236311" lon="7.9668432"><ele>28.0</ele><time>2026-04-18T10:47:45.363Z</time></trkpt><trkpt lat="33.5237259" lon="7.9667465"><ele>29.5</ele><time>2026-04-18T10:47:46.364Z</time></trkpt><trkpt lat="33.5238232" lon="7.9666481"><ele>31.0</ele><time>2026-04-18T10:47:47.367Z</time></trkpt><trkpt lat="33.5239228" lon="7.9665492"><ele>32.5</ele><time>2026-04-18T10:47:48.367Z</time></trkpt><trkpt lat="33.524026" lon="7.966454"><ele>34.0</ele><time>2026-04-18T10:47:49.368Z</time></trkpt><trkpt lat="33.5241265" lon="7.9663612"><ele>34.0</ele><time>2026-04-18T10:47:50.368Z</time></trkpt><trkpt lat="33.5242291" lon="7.9662661"><ele>34.0</ele><time>2026-04-18T10:47:51.365Z</time></trkpt><trkpt lat="33.5243281" lon="7.9661702"><ele>34.0</ele><time>2026-04-18T10:47:52.365Z</time></trkpt><trkpt lat="33.5244279" lon="7.966069"><ele>34.0</ele><time>2026-04-18T10:47:53.372Z</time></trkpt><trkpt lat="33.5245313" lon="7.9659672"><ele>33.5</ele><time>2026-04-18T10:47:54.364Z</time></trkpt><trkpt lat="33.5246386" lon="7.9658652"><ele>33.0</ele><time>2026-04-18T10:47:55.377Z</time></trkpt><trkpt lat="33.5247465" lon="7.9657573"><ele>32.5</ele><time>2026-04-18T10:47:56.364Z</time></trkpt><trkpt lat="33.5248538" lon="7.9656468"><ele>32.0</ele><time>2026-04-18T10:47:57.367Z</time></trkpt><trkpt lat="33.5249578" lon="7.9655412"><ele>32.0</ele><time>2026-04-18T10:47:58.363Z</time></trkpt><trkpt lat="33.5250638" lon="7.9654349"><ele>32.0</ele><time>2026-04-18T10:47:59.37Z</time></trkpt><trkpt lat="33.5251756" lon="7.9653271"><ele>32.0</ele><time>2026-04-18T10:48:00.371Z</time></trkpt><trkpt lat="33.5252904" lon="7.9652153"><ele>32.0</ele><time>2026-04-18T10:48:01.365Z</time></trkpt><trkpt lat="33.525404" lon="7.9651037"><ele>31.25</ele><time>2026-04-18T10:48:02.364Z</time></trkpt><trkpt lat="33.5255151" lon="7.9649924"><ele>30.5</ele><time>2026-04-18T10:48:03.372Z</time></trkpt><trkpt lat="33.5256257" lon="7.9648828"><ele>29.75</ele><time>2026-04-18T10:48:04.365Z</time></trkpt><trkpt lat="33.5257322" lon="7.9647757"><ele>29.0</ele><time>2026-04-18T10:48:05.366Z</time></trkpt><trkpt lat="33.5258335" lon="7.9646731"><ele>29.0</ele><time>2026-04-18T10:48:06.363Z</time></trkpt><trkpt lat="33.5259263" lon="7.9645786"><ele>29.0</ele><time>2026-04-18T10:48:07.365Z</time></trkpt><trkpt lat="33.5260132" lon="7.9644915"><ele>29.0</ele><time>2026-04-18T10:48:08.363Z</time></trkpt><trkpt lat="33.5261052" lon="7.9644004"><ele>29.0</ele><time>2026-04-18T10:48:09.365Z</time></trkpt><trkpt lat="33.5262034" lon="7.9643039"><ele>29.25</ele><time>2026-04-18T10:48:10.363Z</time></trkpt><trkpt lat="33.5263042" lon="7.9642053"><ele>29.5</ele><time>2026-04-18T10:48:11.367Z</time></trkpt><trkpt lat="33.5264081" lon="7.9641008"><ele>29.75</ele><time>2026-04-18T10:48:12.367Z</time></trkpt><trkpt lat="33.5265117" lon="7.9639955"><ele>30.0</ele><time>2026-04-18T10:48:13.375Z</time></trkpt><trkpt lat="33.526616" lon="7.9638893"><ele>30.0</ele><time>2026-04-18T10:48:14.374Z</time></trkpt><trkpt lat="33.5267239" lon="7.9637807"><ele>30.0</ele><time>2026-04-18T10:48:15.372Z</time></trkpt><trkpt lat="33.5268348" lon="7.9636727"><ele>30.0</ele><time>2026-04-18T10:48:16.366Z</time></trkpt><trkpt lat="33.526946" lon="7.9635635"><ele>30.0</ele><time>2026-04-18T10:48:17.371Z</time></trkpt><trkpt lat="33.5270569" lon="7.9634521"><ele>30.75</ele><time>2026-04-18T10:48:18.365Z</time></trkpt><trkpt lat="33.527166" lon="7.9633418"><ele>31.5</ele><time>2026-04-18T10:48:19.367Z</time></trkpt><trkpt lat="33.5272758" lon="7.9632333"><ele>32.25</ele><time>2026-04-18T10:48:20.374Z</time></trkpt><trkpt lat="33.527382" lon="7.9631335"><ele>33.0</ele><time>2026-04-18T10:48:21.36Z</time></trkpt><trkpt lat="33.5274883" lon="7.9630359"><ele>33.0</ele><time>2026-04-18T10:48:22.369Z</time></trkpt><trkpt lat="33.5275918" lon="7.9629328"><ele>33.0</ele><time>2026-04-18T10:48:23.366Z</time></trkpt><trkpt lat="33.5276966" lon="7.9628254"><ele>33.0</ele><time>2026-04-18T10:48:24.363Z</time></trkpt><trkpt lat="33.5278018" lon="7.9627191"><ele>33.0</ele><time>2026-04-18T10:48:25.365Z</time></trkpt><trkpt lat="33.5279064" lon="7.9626127"><ele>31.75</ele><time>2026-04-18T10:48:26.363Z</time></trkpt><trkpt lat="33.5280066" lon="7.9625122"><ele>30.5</ele><time>2026-04-18T10:48:27.363Z</time></trkpt><trkpt lat="33.5280993" lon="7.9624192"><ele>29.25</ele><time>2026-04-18T10:48:28.361Z</time></trkpt><trkpt lat="33.5281858" lon="7.9623262"><ele>28.0</ele><time>2026-04-18T10:48:29.362Z</time></trkpt><trkpt lat="33.5282676" lon="7.9622318"><ele>28.0</ele><time>2026-04-18T10:48:30.368Z</time></trkpt><trkpt lat="33.5283479" lon="7.9621333"><ele>27.999999999999996</ele><time>2026-04-18T10:48:31.369Z</time></trkpt><trkpt lat="33.5284302" lon="7.962039"><ele>27.999999999999996</ele><time>2026-04-18T10:48:32.363Z</time></trkpt><trkpt lat="33.528511" lon="7.9619561"><ele>28.0</ele><time>2026-04-18T10:48:33.365Z</time></trkpt><trkpt lat="33.5285893" lon="7.9618853"><ele>28.0</ele><time>2026-04-18T10:48:34.362Z</time></trkpt><trkpt lat="33.5286725" lon="7.9618186"><ele>27.75</ele><time>2026-04-18T10:48:35.367Z</time></trkpt><trkpt lat="33.5287606" lon="7.9617484"><ele>27.5</ele><time>2026-04-18T10:48:36.369Z</time></trkpt><trkpt lat="33.5288517" lon="7.9616657"><ele>27.25</ele><time>2026-04-18T10:48:37.364Z</time></trkpt><trkpt lat="33.5289428" lon="7.9615697"><ele>27.0</ele><time>2026-04-18T10:48:38.368Z</time></trkpt><trkpt lat="33.5290375" lon="7.9614667"><ele>28.0</ele><time>2026-04-18T10:48:39.367Z</time></trkpt><trkpt lat="33.5291321" lon="7.9613664"><ele>29.0</ele><time>2026-04-18T10:48:40.36Z</time></trkpt><trkpt lat="33.5292279" lon="7.9612669"><ele>30.0</ele><time>2026-04-18T10:48:41.361Z</time></trkpt><trkpt lat="33.5293258" lon="7.9611661"><ele>31.0</ele><time>2026-04-18T10:48:42.369Z</time></trkpt><trkpt lat="33.5294322" lon="7.961066"><ele>31.0</ele><time>2026-04-18T10:48:43.371Z</time></trkpt><trkpt lat="33.5295362" lon="7.9609682"><ele>31.0</ele><time>2026-04-18T10:48:44.362Z</time></trkpt><trkpt lat="33.52964" lon="7.9608719"><ele>31.0</ele><time>2026-04-18T10:48:45.37Z</time></trkpt><trkpt lat="33.5297376" lon="7.960782"><ele>31.0</ele><time>2026-04-18T10:48:46.367Z</time></trkpt><trkpt lat="33.5298403" lon="7.9606902"><ele>31.25</ele><time>2026-04-18T10:48:47.36Z</time></trkpt><trkpt lat="33.5299455" lon="7.9605958"><ele>31.5</ele><time>2026-04-18T10:48:48.366Z</time></trkpt><trkpt lat="33.5300496" lon="7.9604965"><ele>31.75</ele><time>2026-04-18T10:48:49.366Z</time></trkpt><trkpt lat="33.530151" lon="7.9603962"><ele>32.0</ele><time>2026-04-18T10:48:50.364Z</time></trkpt><trkpt lat="33.5302486" lon="7.9602967"><ele>32.0</ele><time>2026-04-18T10:48:51.365Z</time></trkpt><trkpt lat="33.5303498" lon="7.9601941"><ele>32.0</ele><time>2026-04-18T10:48:52.366Z</time></trkpt><trkpt lat="33.5304498" lon="7.9600916"><ele>32.0</ele><time>2026-04-18T10:48:53.371Z</time></trkpt><trkpt lat="33.5305508" lon="7.9599885"><ele>32.0</ele><time>2026-04-18T10:48:54.365Z</time></trkpt><trkpt lat="33.5306516" lon="7.9598852"><ele>32.0</ele><time>2026-04-18T10:48:55.365Z</time></trkpt><trkpt lat="33.5307439" lon="7.9597907"><ele>32.0</ele><time>2026-04-18T10:48:56.366Z</time></trkpt><trkpt lat="33.5308347" lon="7.9596955"><ele>32.0</ele><time>2026-04-18T10:48:57.362Z</time></trkpt><trkpt lat="33.5309277" lon="7.9595984"><ele>32.0</ele><time>2026-04-18T10:48:58.366Z</time></trkpt><trkpt lat="33.5310276" lon="7.9595005"><ele>32.0</ele><time>2026-04-18T10:48:59.373Z</time></trkpt><trkpt lat="33.5311277" lon="7.9594038"><ele>32.0</ele><time>2026-04-18T10:49:00.36Z</time></trkpt><trkpt lat="33.531233" lon="7.9593066"><ele>32.0</ele><time>2026-04-18T10:49:01.366Z</time></trkpt><trkpt lat="33.5313377" lon="7.9592085"><ele>32.0</ele><time>2026-04-18T10:49:02.367Z</time></trkpt><trkpt lat="33.5314487" lon="7.9591025"><ele>31.75</ele><time>2026-04-18T10:49:03.366Z</time></trkpt><trkpt lat="33.5315606" lon="7.9589914"><ele>31.5</ele><time>2026-04-18T10:49:04.368Z</time></trkpt><trkpt lat="33.5316744" lon="7.9588787"><ele>31.25</ele><time>2026-04-18T10:49:05.368Z</time></trkpt><trkpt lat="33.5317906" lon="7.9587631"><ele>31.0</ele><time>2026-04-18T10:49:06.362Z</time></trkpt><trkpt lat="33.5319094" lon="7.9586462"><ele>31.0</ele><time>2026-04-18T10:49:07.36Z</time></trkpt><trkpt lat="33.5320286" lon="7.9585311"><ele>31.0</ele><time>2026-04-18T10:49:08.363Z</time></trkpt><trkpt lat="33.532147" lon="7.9584202"><ele>31.0</ele><time>2026-04-18T10:49:09.371Z</time></trkpt><trkpt lat="33.5322577" lon="7.9583074"><ele>31.0</ele><time>2026-04-18T10:49:10.36Z</time></trkpt><trkpt lat="33.5323634" lon="7.9581967"><ele>31.0</ele><time>2026-04-18T10:49:11.378Z</time></trkpt><trkpt lat="33.5324741" lon="7.9580872"><ele>31.0</ele><time>2026-04-18T10:49:12.364Z</time></trkpt><trkpt lat="33.5325881" lon="7.9579746"><ele>31.0</ele><time>2026-04-18T10:49:13.368Z</time></trkpt><trkpt lat="33.5327016" lon="7.9578631"><ele>31.0</ele><time>2026-04-18T10:49:14.364Z</time></trkpt><trkpt lat="33.5328126" lon="7.9577557"><ele>31.25</ele><time>2026-04-18T10:49:15.367Z</time></trkpt><trkpt lat="33.5329232" lon="7.9576445"><ele>31.5</ele><time>2026-04-18T10:49:16.367Z</time></trkpt><trkpt lat="33.5330317" lon="7.9575348"><ele>31.75</ele><time>2026-04-18T10:49:17.367Z</time></trkpt><trkpt lat="33.5331382" lon="7.9574306"><ele>32.0</ele><time>2026-04-18T10:49:18.368Z</time></trkpt><trkpt lat="33.5332373" lon="7.957333"><ele>32.2</ele><time>2026-04-18T10:49:19.361Z</time></trkpt><trkpt lat="33.5333226" lon="7.9572466"><ele>32.400000000000006</ele><time>2026-04-18T10:49:20.362Z</time></trkpt><trkpt lat="33.5334011" lon="7.9571631"><ele>32.599999999999994</ele><time>2026-04-18T10:49:21.365Z</time></trkpt><trkpt lat="33.5334841" lon="7.9570815"><ele>32.8</ele><time>2026-04-18T10:49:22.361Z</time></trkpt><trkpt lat="33.5335721" lon="7.9569946"><ele>33.0</ele><time>2026-04-18T10:49:23.359Z</time></trkpt><trkpt lat="33.5336667" lon="7.9568988"><ele>32.5</ele><time>2026-04-18T10:49:24.363Z</time></trkpt><trkpt lat="33.5337634" lon="7.9568039"><ele>32.0</ele><time>2026-04-18T10:49:25.364Z</time></trkpt><trkpt lat="33.5338638" lon="7.9567059"><ele>31.5</ele><time>2026-04-18T10:49:26.364Z</time></trkpt><trkpt lat="33.533962" lon="7.9566056"><ele>31.0</ele><time>2026-04-18T10:49:27.36Z</time></trkpt><trkpt lat="33.5340648" lon="7.9564995"><ele>30.5</ele><time>2026-04-18T10:49:28.363Z</time></trkpt><trkpt lat="33.5341728" lon="7.9563918"><ele>30.0</ele><time>2026-04-18T10:49:29.361Z</time></trkpt><trkpt lat="33.534284" lon="7.9562844"><ele>29.5</ele><time>2026-04-18T10:49:30.36Z</time></trkpt><trkpt lat="33.5343962" lon="7.9561743"><ele>29.0</ele><time>2026-04-18T10:49:31.359Z</time></trkpt><trkpt lat="33.5345106" lon="7.9560661"><ele>29.25</ele><time>2026-04-18T10:49:32.362Z</time></trkpt><trkpt lat="33.5346206" lon="7.9559596"><ele>29.5</ele><time>2026-04-18T10:49:33.365Z</time></trkpt><trkpt lat="33.5347257" lon="7.9558595"><ele>29.75</ele><time>2026-04-18T10:49:34.362Z</time></trkpt><trkpt lat="33.53482" lon="7.9557591"><ele>30.0</ele><time>2026-04-18T10:49:35.359Z</time></trkpt><trkpt lat="33.5349162" lon="7.955665"><ele>30.0</ele><time>2026-04-18T10:49:36.364Z</time></trkpt><trkpt lat="33.5350161" lon="7.9555716"><ele>30.0</ele><time>2026-04-18T10:49:37.364Z</time></trkpt><trkpt lat="33.5351192" lon="7.955471"><ele>30.0</ele><time>2026-04-18T10:49:38.361Z</time></trkpt><trkpt lat="33.5352105" lon="7.9553743"><ele>30.0</ele><time>2026-04-18T10:49:39.363Z</time></trkpt><trkpt lat="33.5352874" lon="7.95529"><ele>30.0</ele><time>2026-04-18T10:49:40.359Z</time></trkpt><trkpt lat="33.5353515" lon="7.9552199"><ele>30.0</ele><time>2026-04-18T10:49:41.371Z</time></trkpt><trkpt lat="33.5354064" lon="7.9551657"><ele>30.0</ele><time>2026-04-18T10:49:42.359Z</time></trkpt><trkpt lat="33.5354985" lon="7.9550762"><ele>30.0</ele><time>2026-04-18T10:49:44.361Z</time></trkpt><trkpt lat="33.5356045" lon="7.9549733"><ele>30.0</ele><time>2026-04-18T10:49:46.363Z</time></trkpt><trkpt lat="33.5356724" lon="7.9549077"><ele>30.6</ele><time>2026-04-18T10:49:47.362Z</time></trkpt><trkpt lat="33.5357483" lon="7.954835"><ele>31.2</ele><time>2026-04-18T10:49:48.365Z</time></trkpt><trkpt lat="33.5358301" lon="7.9547572"><ele>31.799999999999997</ele><time>2026-04-18T10:49:49.357Z</time></trkpt><trkpt lat="33.5359132" lon="7.9546791"><ele>32.4</ele><time>2026-04-18T10:49:50.358Z</time></trkpt><trkpt lat="33.5359962" lon="7.9545983"><ele>33.0</ele><time>2026-04-18T10:49:51.362Z</time></trkpt><trkpt lat="33.536079" lon="7.9545202"><ele>33.0</ele><time>2026-04-18T10:49:52.363Z</time></trkpt><trkpt lat="33.5361556" lon="7.9544484"><ele>33.0</ele><time>2026-04-18T10:49:53.362Z</time></trkpt><trkpt lat="33.536218" lon="7.9543815"><ele>33.0</ele><time>2026-04-18T10:49:54.362Z</time></trkpt><trkpt lat="33.5362682" lon="7.9543249"><ele>33.0</ele><time>2026-04-18T10:49:55.36Z</time></trkpt><trkpt lat="33.5363597" lon="7.9542214"><ele>33.0</ele><time>2026-04-18T10:49:57.363Z</time></trkpt><trkpt lat="33.5364243" lon="7.9541553"><ele>33.199999999999996</ele><time>2026-04-18T10:49:58.362Z</time></trkpt><trkpt lat="33.5365199" lon="7.9541014"><ele>33.4</ele><time>2026-04-18T10:49:59.368Z</time></trkpt><trkpt lat="33.5365888" lon="7.9540258"><ele>33.599999999999994</ele><time>2026-04-18T10:50:00.361Z</time></trkpt><trkpt lat="33.5366712" lon="7.9539415"><ele>33.8</ele><time>2026-04-18T10:50:01.363Z</time></trkpt><trkpt lat="33.536761" lon="7.9538582"><ele>34.0</ele><time>2026-04-18T10:50:02.362Z</time></trkpt><trkpt lat="33.5368515" lon="7.9537721"><ele>34.0</ele><time>2026-04-18T10:50:03.364Z</time></trkpt><trkpt lat="33.5369381" lon="7.953679"><ele>34.0</ele><time>2026-04-18T10:50:04.374Z</time></trkpt><trkpt lat="33.5370233" lon="7.9535848"><ele>34.0</ele><time>2026-04-18T10:50:05.37Z</time></trkpt><trkpt lat="33.5371127" lon="7.9534893"><ele>34.0</ele><time>2026-04-18T10:50:06.362Z</time></trkpt><trkpt lat="33.5371988" lon="7.9533992"><ele>33.4</ele><time>2026-04-18T10:50:07.364Z</time></trkpt><trkpt lat="33.5372826" lon="7.9533286"><ele>32.8</ele><time>2026-04-18T10:50:08.37Z</time></trkpt><trkpt lat="33.537362" lon="7.9532544"><ele>32.2</ele><time>2026-04-18T10:50:09.365Z</time></trkpt><trkpt lat="33.5374369" lon="7.9531803"><ele>31.6</ele><time>2026-04-18T10:50:10.366Z</time></trkpt><trkpt lat="33.5375117" lon="7.953103"><ele>31.0</ele><time>2026-04-18T10:50:11.362Z</time></trkpt><trkpt lat="33.5375878" lon="7.9530297"><ele>31.0</ele><time>2026-04-18T10:50:12.363Z</time></trkpt><trkpt lat="33.5376625" lon="7.9529537"><ele>31.0</ele><time>2026-04-18T10:50:13.372Z</time></trkpt><trkpt lat="33.5377353" lon="7.9528827"><ele>31.0</ele><time>2026-04-18T10:50:14.36Z</time></trkpt><trkpt lat="33.5378029" lon="7.9528078"><ele>31.0</ele><time>2026-04-18T10:50:15.368Z</time></trkpt><trkpt lat="33.5378712" lon="7.9527321"><ele>31.0</ele><time>2026-04-18T10:50:16.368Z</time></trkpt><trkpt lat="33.5379424" lon="7.9526534"><ele>31.200000000000003</ele><time>2026-04-18T10:50:17.366Z</time></trkpt><trkpt lat="33.5380209" lon="7.9525703"><ele>31.400000000000002</ele><time>2026-04-18T10:50:18.371Z</time></trkpt><trkpt lat="33.5381112" lon="7.9524944"><ele>31.6</ele><time>2026-04-18T10:50:19.362Z</time></trkpt><trkpt lat="33.5381912" lon="7.9524128"><ele>31.8</ele><time>2026-04-18T10:50:20.359Z</time></trkpt><trkpt lat="33.5382741" lon="7.952333"><ele>32.0</ele><time>2026-04-18T10:50:21.364Z</time></trkpt><trkpt lat="33.5383503" lon="7.9522499"><ele>31.8</ele><time>2026-04-18T10:50:22.364Z</time></trkpt><trkpt lat="33.5384302" lon="7.9521649"><ele>31.6</ele><time>2026-04-18T10:50:23.361Z</time></trkpt><trkpt lat="33.5385306" lon="7.9521011"><ele>31.400000000000002</ele><time>2026-04-18T10:50:24.369Z</time></trkpt><trkpt lat="33.5385923" lon="7.9520194"><ele>31.200000000000003</ele><time>2026-04-18T10:50:25.366Z</time></trkpt><trkpt lat="33.5386592" lon="7.9519349"><ele>31.0</ele><time>2026-04-18T10:50:26.367Z</time></trkpt><trkpt lat="33.5387274" lon="7.9518524"><ele>31.0</ele><time>2026-04-18T10:50:27.363Z</time></trkpt><trkpt lat="33.5387905" lon="7.9517702"><ele>31.0</ele><time>2026-04-18T10:50:28.373Z</time></trkpt><trkpt lat="33.5388541" lon="7.9516918"><ele>31.0</ele><time>2026-04-18T10:50:29.361Z</time></trkpt><trkpt lat="33.5389174" lon="7.951629"><ele>31.0</ele><time>2026-04-18T10:50:30.359Z</time></trkpt><trkpt lat="33.5390025" lon="7.9515615"><ele>31.0</ele><time>2026-04-18T10:50:31.364Z</time></trkpt><trkpt lat="33.5390937" lon="7.9514831"><ele>31.5</ele><time>2026-04-18T10:50:32.362Z</time></trkpt><trkpt lat="33.5391822" lon="7.9513995"><ele>32.0</ele><time>2026-04-18T10:50:33.367Z</time></trkpt><trkpt lat="33.5392748" lon="7.9513107"><ele>32.5</ele><time>2026-04-18T10:50:34.364Z</time></trkpt><trkpt lat="33.5393619" lon="7.9512202"><ele>33.0</ele><time>2026-04-18T10:50:35.368Z</time></trkpt><trkpt lat="33.5394503" lon="7.9511254"><ele>33.0</ele><time>2026-04-18T10:50:36.36Z</time></trkpt><trkpt lat="33.5395412" lon="7.9510292"><ele>33.0</ele><time>2026-04-18T10:50:37.38Z</time></trkpt><trkpt lat="33.5396323" lon="7.950934"><ele>33.0</ele><time>2026-04-18T10:50:38.36Z</time></trkpt><trkpt lat="33.5397184" lon="7.950847"><ele>33.0</ele><time>2026-04-18T10:50:39.373Z</time></trkpt><trkpt lat="33.5398088" lon="7.9507556"><ele>32.5</ele><time>2026-04-18T10:50:40.371Z</time></trkpt><trkpt lat="33.539903" lon="7.9506553"><ele>32.0</ele><time>2026-04-18T10:50:41.361Z</time></trkpt><trkpt lat="33.5399982" lon="7.9505522"><ele>31.5</ele><time>2026-04-18T10:50:42.365Z</time></trkpt><trkpt lat="33.5400937" lon="7.9504475"><ele>31.0</ele><time>2026-04-18T10:50:43.369Z</time></trkpt><trkpt lat="33.5401837" lon="7.9503415"><ele>31.0</ele><time>2026-04-18T10:50:44.365Z</time></trkpt><trkpt lat="33.5402665" lon="7.9502406"><ele>31.0</ele><time>2026-04-18T10:50:45.368Z</time></trkpt><trkpt lat="33.5403466" lon="7.9501534"><ele>31.0</ele><time>2026-04-18T10:50:46.365Z</time></trkpt><trkpt lat="33.5404327" lon="7.950079"><ele>31.0</ele><time>2026-04-18T10:50:47.367Z</time></trkpt><trkpt lat="33.5405282" lon="7.9499973"><ele>31.5</ele><time>2026-04-18T10:50:48.367Z</time></trkpt><trkpt lat="33.5406265" lon="7.9499072"><ele>32.0</ele><time>2026-04-18T10:50:49.367Z</time></trkpt><trkpt lat="33.5407286" lon="7.949814"><ele>32.5</ele><time>2026-04-18T10:50:50.361Z</time></trkpt><trkpt lat="33.5408258" lon="7.9497197"><ele>33.0</ele><time>2026-04-18T10:50:51.367Z</time></trkpt><trkpt lat="33.5409219" lon="7.9496233"><ele>33.0</ele><time>2026-04-18T10:50:52.36Z</time></trkpt><trkpt lat="33.5410155" lon="7.94953"><ele>33.0</ele><time>2026-04-18T10:50:53.368Z</time></trkpt><trkpt lat="33.5411053" lon="7.9494458"><ele>33.0</ele><time>2026-04-18T10:50:54.369Z</time></trkpt><trkpt lat="33.5411917" lon="7.9493649"><ele>33.0</ele><time>2026-04-18T10:50:55.362Z</time></trkpt><trkpt lat="33.5412737" lon="7.9492783"><ele>33.4</ele><time>2026-04-18T10:50:56.358Z</time></trkpt><trkpt lat="33.5413542" lon="7.9491861"><ele>33.8</ele><time>2026-04-18T10:50:57.367Z</time></trkpt><trkpt lat="33.5414254" lon="7.9490956"><ele>34.2</ele><time>2026-04-18T10:50:58.375Z</time></trkpt><trkpt lat="33.5414884" lon="7.949014"><ele>34.6</ele><time>2026-04-18T10:50:59.366Z</time></trkpt><trkpt lat="33.5415503" lon="7.948937"><ele>35.0</ele><time>2026-04-18T10:51:00.366Z</time></trkpt><trkpt lat="33.5416124" lon="7.9488712"><ele>35.0</ele><time>2026-04-18T10:51:01.364Z</time></trkpt><trkpt lat="33.5416821" lon="7.9488028"><ele>35.0</ele><time>2026-04-18T10:51:02.365Z</time></trkpt><trkpt lat="33.5417584" lon="7.948739"><ele>35.0</ele><time>2026-04-18T10:51:03.371Z</time></trkpt><trkpt lat="33.5418351" lon="7.9486829"><ele>35.0</ele><time>2026-04-18T10:51:04.372Z</time></trkpt><trkpt lat="33.5419097" lon="7.9486204"><ele>35.0</ele><time>2026-04-18T10:51:05.364Z</time></trkpt><trkpt lat="33.5419839" lon="7.9485497"><ele>35.0</ele><time>2026-04-18T10:51:06.365Z</time></trkpt><trkpt lat="33.5420573" lon="7.9484683"><ele>35.0</ele><time>2026-04-18T10:51:07.367Z</time></trkpt><trkpt lat="33.5421175" lon="7.9483763"><ele>35.0</ele><time>2026-04-18T10:51:08.363Z</time></trkpt><trkpt lat="33.5421598" lon="7.9482875"><ele>35.0</ele><time>2026-04-18T10:51:09.366Z</time></trkpt><trkpt lat="33.5421936" lon="7.9481867"><ele>35.0</ele><time>2026-04-18T10:51:10.36Z</time></trkpt><trkpt lat="33.5422255" lon="7.9480852"><ele>35.0</ele><time>2026-04-18T10:51:11.361Z</time></trkpt><trkpt lat="33.5422693" lon="7.9479937"><ele>35.0</ele><time>2026-04-18T10:51:12.363Z</time></trkpt><trkpt lat="33.542325" lon="7.9479202"><ele>35.0</ele><time>2026-04-18T10:51:13.366Z</time></trkpt><trkpt lat="33.5423887" lon="7.9478667"><ele>35.0</ele><time>2026-04-18T10:51:14.362Z</time></trkpt><trkpt lat="33.5424597" lon="7.9478381"><ele>35.0</ele><time>2026-04-18T10:51:15.367Z</time></trkpt><trkpt lat="33.542543" lon="7.9478206"><ele>35.0</ele><time>2026-04-18T10:51:16.369Z</time></trkpt><trkpt lat="33.5426332" lon="7.9477993"><ele>35.0</ele><time>2026-04-18T10:51:17.368Z</time></trkpt><trkpt lat="33.5427207" lon="7.9477576"><ele>35.0</ele><time>2026-04-18T10:51:18.365Z</time></trkpt><trkpt lat="33.5428087" lon="7.9476959"><ele>35.0</ele><time>2026-04-18T10:51:19.366Z</time></trkpt><trkpt lat="33.5429006" lon="7.9476153"><ele>35.0</ele><time>2026-04-18T10:51:20.363Z</time></trkpt><trkpt lat="33.5429903" lon="7.9475289"><ele>35.0</ele><time>2026-04-18T10:51:21.371Z</time></trkpt><trkpt lat="33.5430803" lon="7.9474434"><ele>34.2</ele><time>2026-04-18T10:51:22.367Z</time></trkpt><trkpt lat="33.543166" lon="7.9473628"><ele>33.4</ele><time>2026-04-18T10:51:23.363Z</time></trkpt><trkpt lat="33.5432469" lon="7.9472863"><ele>32.6</ele><time>2026-04-18T10:51:24.361Z</time></trkpt><trkpt lat="33.5433241" lon="7.9472078"><ele>31.8</ele><time>2026-04-18T10:51:25.366Z</time></trkpt><trkpt lat="33.543407" lon="7.9471206"><ele>31.0</ele><time>2026-04-18T10:51:26.36Z</time></trkpt><trkpt lat="33.5434948" lon="7.9470253"><ele>31.0</ele><time>2026-04-18T10:51:27.363Z</time></trkpt><trkpt lat="33.5435883" lon="7.9469224"><ele>31.0</ele><time>2026-04-18T10:51:28.357Z</time></trkpt><trkpt lat="33.5436843" lon="7.9468201"><ele>31.0</ele><time>2026-04-18T10:51:29.358Z</time></trkpt><trkpt lat="33.5437774" lon="7.9467176"><ele>31.0</ele><time>2026-04-18T10:51:30.359Z</time></trkpt><trkpt lat="33.5438735" lon="7.9466101"><ele>30.5</ele><time>2026-04-18T10:51:31.368Z</time></trkpt><trkpt lat="33.5439718" lon="7.9465118"><ele>30.0</ele><time>2026-04-18T10:51:32.362Z</time></trkpt><trkpt lat="33.5440729" lon="7.9464207"><ele>29.5</ele><time>2026-04-18T10:51:33.363Z</time></trkpt><trkpt lat="33.544168" lon="7.9463284"><ele>29.0</ele><time>2026-04-18T10:51:34.362Z</time></trkpt><trkpt lat="33.5442535" lon="7.9462283"><ele>29.0</ele><time>2026-04-18T10:51:35.361Z</time></trkpt><trkpt lat="33.5443264" lon="7.9461185"><ele>29.0</ele><time>2026-04-18T10:51:36.36Z</time></trkpt><trkpt lat="33.5443871" lon="7.9459967"><ele>29.0</ele><time>2026-04-18T10:51:37.365Z</time></trkpt><trkpt lat="33.5444374" lon="7.9458663"><ele>29.0</ele><time>2026-04-18T10:51:38.358Z</time></trkpt><trkpt lat="33.544481" lon="7.9457357"><ele>29.6</ele><time>2026-04-18T10:51:39.368Z</time></trkpt><trkpt lat="33.5445218" lon="7.9456201"><ele>30.2</ele><time>2026-04-18T10:51:40.369Z</time></trkpt><trkpt lat="33.5445734" lon="7.9455094"><ele>30.800000000000004</ele><time>2026-04-18T10:51:41.367Z</time></trkpt><trkpt lat="33.544637" lon="7.9453988"><ele>31.400000000000002</ele><time>2026-04-18T10:51:42.371Z</time></trkpt><trkpt lat="33.5447009" lon="7.9453049"><ele>32.0</ele><time>2026-04-18T10:51:43.363Z</time></trkpt><trkpt lat="33.5447632" lon="7.9452234"><ele>32.33333333333333</ele><time>2026-04-18T10:51:44.366Z</time></trkpt><trkpt lat="33.5448307" lon="7.9451588"><ele>32.666666666666664</ele><time>2026-04-18T10:51:45.364Z</time></trkpt><trkpt lat="33.5449024" lon="7.9451014"><ele>33.0</ele><time>2026-04-18T10:51:46.364Z</time></trkpt><trkpt lat="33.5449674" lon="7.9450382"><ele>33.333333333333336</ele><time>2026-04-18T10:51:47.361Z</time></trkpt><trkpt lat="33.5450323" lon="7.9449758"><ele>33.66666666666667</ele><time>2026-04-18T10:51:48.361Z</time></trkpt><trkpt lat="33.5450911" lon="7.9449009"><ele>34.0</ele><time>2026-04-18T10:51:49.37Z</time></trkpt><trkpt lat="33.545156" lon="7.9448242"><ele>34.0</ele><time>2026-04-18T10:51:50.37Z</time></trkpt><trkpt lat="33.5452276" lon="7.9447515"><ele>34.0</ele><time>2026-04-18T10:51:51.369Z</time></trkpt><trkpt lat="33.5453039" lon="7.9446848"><ele>34.0</ele><time>2026-04-18T10:51:52.363Z</time></trkpt><trkpt lat="33.5453845" lon="7.9446282"><ele>34.0</ele><time>2026-04-18T10:51:53.375Z</time></trkpt><trkpt lat="33.54547" lon="7.9445805"><ele>34.0</ele><time>2026-04-18T10:51:54.367Z</time></trkpt><trkpt lat="33.5455602" lon="7.9445437"><ele>33.6</ele><time>2026-04-18T10:51:55.367Z</time></trkpt><trkpt lat="33.5456547" lon="7.9445142"><ele>33.2</ele><time>2026-04-18T10:51:56.361Z</time></trkpt><trkpt lat="33.5457585" lon="7.9444969"><ele>32.800000000000004</ele><time>2026-04-18T10:51:57.357Z</time></trkpt><trkpt lat="33.5458672" lon="7.9444761"><ele>32.4</ele><time>2026-04-18T10:51:58.37Z</time></trkpt><trkpt lat="33.5459704" lon="7.9444353"><ele>32.0</ele><time>2026-04-18T10:51:59.364Z</time></trkpt><trkpt lat="33.546065" lon="7.9443756"><ele>32.0</ele><time>2026-04-18T10:52:00.367Z</time></trkpt><trkpt lat="33.5461544" lon="7.9443166"><ele>32.0</ele><time>2026-04-18T10:52:01.379Z</time></trkpt><trkpt lat="33.5462299" lon="7.9442372"><ele>32.0</ele><time>2026-04-18T10:52:02.369Z</time></trkpt><trkpt lat="33.5463118" lon="7.9441453"><ele>32.0</ele><time>2026-04-18T10:52:03.363Z</time></trkpt><trkpt lat="33.5463976" lon="7.9440487"><ele>32.0</ele><time>2026-04-18T10:52:04.363Z</time></trkpt><trkpt lat="33.5464858" lon="7.9439511"><ele>31.25</ele><time>2026-04-18T10:52:05.362Z</time></trkpt><trkpt lat="33.5465763" lon="7.9438552"><ele>30.5</ele><time>2026-04-18T10:52:06.368Z</time></trkpt><trkpt lat="33.5466643" lon="7.9437676"><ele>29.75</ele><time>2026-04-18T10:52:07.369Z</time></trkpt><trkpt lat="33.5467501" lon="7.9436787"><ele>29.0</ele><time>2026-04-18T10:52:08.37Z</time></trkpt><trkpt lat="33.5468251" lon="7.9435842"><ele>29.0</ele><time>2026-04-18T10:52:09.367Z</time></trkpt><trkpt lat="33.5468996" lon="7.943495"><ele>29.0</ele><time>2026-04-18T10:52:10.362Z</time></trkpt><trkpt lat="33.5469742" lon="7.9434206"><ele>29.0</ele><time>2026-04-18T10:52:11.371Z</time></trkpt><trkpt lat="33.5470481" lon="7.9433544"><ele>29.0</ele><time>2026-04-18T10:52:12.369Z</time></trkpt><trkpt lat="33.5471291" lon="7.943289"><ele>29.0</ele><time>2026-04-18T10:52:13.369Z</time></trkpt><trkpt lat="33.5472153" lon="7.9432137"><ele>29.2</ele><time>2026-04-18T10:52:14.364Z</time></trkpt><trkpt lat="33.5473014" lon="7.9431273"><ele>29.4</ele><time>2026-04-18T10:52:15.365Z</time></trkpt><trkpt lat="33.5473816" lon="7.9430466"><ele>29.6</ele><time>2026-04-18T10:52:16.369Z</time></trkpt><trkpt lat="33.5474687" lon="7.9429652"><ele>29.8</ele><time>2026-04-18T10:52:17.368Z</time></trkpt><trkpt lat="33.5475584" lon="7.9428848"><ele>30.0</ele><time>2026-04-18T10:52:18.376Z</time></trkpt><trkpt lat="33.5476685" lon="7.9428225"><ele>30.0</ele><time>2026-04-18T10:52:19.369Z</time></trkpt><trkpt lat="33.5477761" lon="7.9427583"><ele>30.0</ele><time>2026-04-18T10:52:20.355Z</time></trkpt><trkpt lat="33.5478759" lon="7.9426812"><ele>30.0</ele><time>2026-04-18T10:52:21.357Z</time></trkpt><trkpt lat="33.547968" lon="7.94259"><ele>30.0</ele><time>2026-04-18T10:52:22.361Z</time></trkpt><trkpt lat="33.548055" lon="7.942508"><ele>30.4</ele><time>2026-04-18T10:52:23.36Z</time></trkpt><trkpt lat="33.5481503" lon="7.9424457"><ele>30.8</ele><time>2026-04-18T10:52:24.362Z</time></trkpt><trkpt lat="33.5482556" lon="7.9423971"><ele>31.200000000000003</ele><time>2026-04-18T10:52:25.365Z</time></trkpt><trkpt lat="33.5483623" lon="7.9423638"><ele>31.6</ele><time>2026-04-18T10:52:26.362Z</time></trkpt><trkpt lat="33.5484645" lon="7.942325"><ele>32.0</ele><time>2026-04-18T10:52:27.357Z</time></trkpt><trkpt lat="33.5485606" lon="7.9422768"><ele>32.0</ele><time>2026-04-18T10:52:28.362Z</time></trkpt><trkpt lat="33.5486539" lon="7.9422196"><ele>32.0</ele><time>2026-04-18T10:52:29.358Z</time></trkpt><trkpt lat="33.5487519" lon="7.9421509"><ele>32.0</ele><time>2026-04-18T10:52:30.357Z</time></trkpt><trkpt lat="33.5488493" lon="7.9420837"><ele>32.0</ele><time>2026-04-18T10:52:31.369Z</time></trkpt><trkpt lat="33.5489334" lon="7.9420226"><ele>32.0</ele><time>2026-04-18T10:52:32.365Z</time></trkpt><trkpt lat="33.5490009" lon="7.9419636"><ele>32.2</ele><time>2026-04-18T10:52:33.359Z</time></trkpt><trkpt lat="33.5490527" lon="7.9418922"><ele>32.400000000000006</ele><time>2026-04-18T10:52:34.357Z</time></trkpt><trkpt lat="33.5490961" lon="7.9417981"><ele>32.599999999999994</ele><time>2026-04-18T10:52:35.359Z</time></trkpt><trkpt lat="33.549133" lon="7.9416866"><ele>32.8</ele><time>2026-04-18T10:52:36.366Z</time></trkpt><trkpt lat="33.5491656" lon="7.9415704"><ele>33.0</ele><time>2026-04-18T10:52:37.369Z</time></trkpt><trkpt lat="33.549188" lon="7.9414477"><ele>33.0</ele><time>2026-04-18T10:52:38.372Z</time></trkpt><trkpt lat="33.5492113" lon="7.9413236"><ele>33.0</ele><time>2026-04-18T10:52:39.361Z</time></trkpt><trkpt lat="33.5492529" lon="7.9412128"><ele>33.0</ele><time>2026-04-18T10:52:40.371Z</time></trkpt><trkpt lat="33.5493084" lon="7.941112"><ele>33.0</ele><time>2026-04-18T10:52:41.363Z</time></trkpt><trkpt lat="33.5493731" lon="7.9410169"><ele>33.0</ele><time>2026-04-18T10:52:42.367Z</time></trkpt><trkpt lat="33.5494435" lon="7.9409315"><ele>32.6</ele><time>2026-04-18T10:52:43.364Z</time></trkpt><trkpt lat="33.5495132" lon="7.9408573"><ele>32.199999999999996</ele><time>2026-04-18T10:52:44.366Z</time></trkpt><trkpt lat="33.5495772" lon="7.9407902"><ele>31.8</ele><time>2026-04-18T10:52:45.367Z</time></trkpt><trkpt lat="33.5496463" lon="7.9407147"><ele>31.4</ele><time>2026-04-18T10:52:46.376Z</time></trkpt><trkpt lat="33.5497226" lon="7.9406397"><ele>31.0</ele><time>2026-04-18T10:52:47.365Z</time></trkpt><trkpt lat="33.5498131" lon="7.9405653"><ele>31.0</ele><time>2026-04-18T10:52:48.366Z</time></trkpt><trkpt lat="33.5499065" lon="7.9404889"><ele>31.0</ele><time>2026-04-18T10:52:49.365Z</time></trkpt><trkpt lat="33.5500004" lon="7.9404019"><ele>31.0</ele><time>2026-04-18T10:52:50.362Z</time></trkpt><trkpt lat="33.5500949" lon="7.9403079"><ele>31.0</ele><time>2026-04-18T10:52:51.367Z</time></trkpt><trkpt lat="33.5501862" lon="7.940213"><ele>31.0</ele><time>2026-04-18T10:52:52.365Z</time></trkpt><trkpt lat="33.5502743" lon="7.9401165"><ele>31.0</ele><time>2026-04-18T10:52:53.367Z</time></trkpt><trkpt lat="33.5503634" lon="7.9400209"><ele>31.0</ele><time>2026-04-18T10:52:54.359Z</time></trkpt><trkpt lat="33.5504568" lon="7.9399247"><ele>31.0</ele><time>2026-04-18T10:52:55.364Z</time></trkpt><trkpt lat="33.5505529" lon="7.9398273"><ele>31.0</ele><time>2026-04-18T10:52:56.36Z</time></trkpt><trkpt lat="33.5506523" lon="7.9397269"><ele>31.0</ele><time>2026-04-18T10:52:57.358Z</time></trkpt><trkpt lat="33.5507543" lon="7.9396221"><ele>31.0</ele><time>2026-04-18T10:52:58.367Z</time></trkpt><trkpt lat="33.5508604" lon="7.9395142"><ele>31.0</ele><time>2026-04-18T10:52:59.366Z</time></trkpt><trkpt lat="33.5509666" lon="7.9394065"><ele>31.0</ele><time>2026-04-18T10:53:00.367Z</time></trkpt><trkpt lat="33.5510721" lon="7.9393005"><ele>31.0</ele><time>2026-04-18T10:53:01.359Z</time></trkpt><trkpt lat="33.551176" lon="7.9391946"><ele>31.0</ele><time>2026-04-18T10:53:02.357Z</time></trkpt><trkpt lat="33.5512772" lon="7.939088"><ele>31.0</ele><time>2026-04-18T10:53:03.364Z</time></trkpt><trkpt lat="33.5513773" lon="7.9389863"><ele>30.25</ele><time>2026-04-18T10:53:04.359Z</time></trkpt><trkpt lat="33.5514776" lon="7.9388939"><ele>29.5</ele><time>2026-04-18T10:53:05.358Z</time></trkpt><trkpt lat="33.5515799" lon="7.9388016"><ele>28.75</ele><time>2026-04-18T10:53:06.358Z</time></trkpt><trkpt lat="33.5516797" lon="7.9387065"><ele>28.0</ele><time>2026-04-18T10:53:07.365Z</time></trkpt><trkpt lat="33.5517726" lon="7.9386112"><ele>28.0</ele><time>2026-04-18T10:53:08.37Z</time></trkpt><trkpt lat="33.5518623" lon="7.938523"><ele>27.999999999999996</ele><time>2026-04-18T10:53:09.355Z</time></trkpt><trkpt lat="33.5519463" lon="7.9384375"><ele>27.999999999999996</ele><time>2026-04-18T10:53:10.358Z</time></trkpt><trkpt lat="33.5520232" lon="7.9383527"><ele>28.0</ele><time>2026-04-18T10:53:11.365Z</time></trkpt><trkpt lat="33.5520965" lon="7.9382719"><ele>28.0</ele><time>2026-04-18T10:53:12.358Z</time></trkpt><trkpt lat="33.5521683" lon="7.9381965"><ele>28.833333333333336</ele><time>2026-04-18T10:53:13.362Z</time></trkpt><trkpt lat="33.5522374" lon="7.9381281"><ele>29.666666666666668</ele><time>2026-04-18T10:53:14.358Z</time></trkpt><trkpt lat="33.5523002" lon="7.9380724"><ele>30.5</ele><time>2026-04-18T10:53:15.357Z</time></trkpt><trkpt lat="33.552355" lon="7.9380281"><ele>31.333333333333336</ele><time>2026-04-18T10:53:16.354Z</time></trkpt><trkpt lat="33.5524447" lon="7.9379641"><ele>32.166666666666664</ele><time>2026-04-18T10:53:18.364Z</time></trkpt><trkpt lat="33.5525044" lon="7.9378978"><ele>33.0</ele><time>2026-04-18T10:53:20.365Z</time></trkpt><trkpt lat="33.5525901" lon="7.9378142"><ele>33.0</ele><time>2026-04-18T10:55:43.361Z</time></trkpt><trkpt lat="33.5526428" lon="7.9377494"><ele>33.0</ele><time>2026-04-18T10:55:44.358Z</time></trkpt><trkpt lat="33.5527031" lon="7.937675"><ele>33.0</ele><time>2026-04-18T10:55:45.359Z</time></trkpt><trkpt lat="33.5527593" lon="7.9376145"><ele>33.0</ele><time>2026-04-18T10:55:46.358Z</time></trkpt><trkpt lat="33.5528172" lon="7.9375585"><ele>33.0</ele><time>2026-04-18T10:55:47.363Z</time></trkpt><trkpt lat="33.5528804" lon="7.9374973"><ele>33.0</ele><time>2026-04-18T10:55:48.358Z</time></trkpt><trkpt lat="33.5529463" lon="7.937432"><ele>32.8</ele><time>2026-04-18T10:55:49.359Z</time></trkpt><trkpt lat="33.5530178" lon="7.9373604"><ele>32.599999999999994</ele><time>2026-04-18T10:55:50.364Z</time></trkpt><trkpt lat="33.553089" lon="7.9372828"><ele>32.400000000000006</ele><time>2026-04-18T10:55:51.361Z</time></trkpt><trkpt lat="33.5531577" lon="7.9372061"><ele>32.2</ele><time>2026-04-18T10:55:52.362Z</time></trkpt><trkpt lat="33.5532238" lon="7.9371315"><ele>32.0</ele><time>2026-04-18T10:55:53.356Z</time></trkpt><trkpt lat="33.5532873" lon="7.9370618"><ele>31.999999999999996</ele><time>2026-04-18T10:55:54.358Z</time></trkpt><trkpt lat="33.553351" lon="7.9369924"><ele>32.0</ele><time>2026-04-18T10:55:55.357Z</time></trkpt><trkpt lat="33.5534141" lon="7.9369265"><ele>32.0</ele><time>2026-04-18T10:55:56.357Z</time></trkpt><trkpt lat="33.5534764" lon="7.9368619"><ele>32.0</ele><time>2026-04-18T10:55:57.357Z</time></trkpt><trkpt lat="33.55354" lon="7.9367986"><ele>31.999999999999996</ele><time>2026-04-18T10:55:58.354Z</time></trkpt><trkpt lat="33.5536027" lon="7.9367355"><ele>32.0</ele><time>2026-04-18T10:55:59.359Z</time></trkpt><trkpt lat="33.5536667" lon="7.9366758"><ele>32.0</ele><time>2026-04-18T10:56:00.358Z</time></trkpt><trkpt lat="33.5537332" lon="7.9366119"><ele>32.0</ele><time>2026-04-18T10:56:01.359Z</time></trkpt><trkpt lat="33.5538056" lon="7.9365371"><ele>32.0</ele><time>2026-04-18T10:56:02.355Z</time></trkpt><trkpt lat="33.5538858" lon="7.9364529"><ele>32.0</ele><time>2026-04-18T10:56:03.363Z</time></trkpt><trkpt lat="33.5539718" lon="7.9363614"><ele>32.0</ele><time>2026-04-18T10:56:04.355Z</time></trkpt><trkpt lat="33.5540596" lon="7.9362708"><ele>32.0</ele><time>2026-04-18T10:56:05.364Z</time></trkpt><trkpt lat="33.5541465" lon="7.9361853"><ele>32.0</ele><time>2026-04-18T10:56:06.356Z</time></trkpt><trkpt lat="33.5542293" lon="7.936104"><ele>32.0</ele><time>2026-04-18T10:56:07.363Z</time></trkpt><trkpt lat="33.5543131" lon="7.9360152"><ele>32.0</ele><time>2026-04-18T10:56:08.357Z</time></trkpt><trkpt lat="33.5543988" lon="7.9359208"><ele>32.0</ele><time>2026-04-18T10:56:09.359Z</time></trkpt><trkpt lat="33.5544853" lon="7.9358337"><ele>32.0</ele><time>2026-04-18T10:56:10.354Z</time></trkpt><trkpt lat="33.5545708" lon="7.9357544"><ele>32.0</ele><time>2026-04-18T10:56:11.361Z</time></trkpt><trkpt lat="33.55465" lon="7.9356775"><ele>32.0</ele><time>2026-04-18T10:56:12.363Z</time></trkpt><trkpt lat="33.5547268" lon="7.9356008"><ele>32.0</ele><time>2026-04-18T10:56:13.357Z</time></trkpt><trkpt lat="33.5548067" lon="7.9355175"><ele>32.0</ele><time>2026-04-18T10:56:14.36Z</time></trkpt><trkpt lat="33.5548926" lon="7.9354283"><ele>32.0</ele><time>2026-04-18T10:56:15.362Z</time></trkpt><trkpt lat="33.5549854" lon="7.9353323"><ele>32.0</ele><time>2026-04-18T10:56:16.361Z</time></trkpt><trkpt lat="33.5550839" lon="7.9352291"><ele>32.0</ele><time>2026-04-18T10:56:17.359Z</time></trkpt><trkpt lat="33.5551908" lon="7.9351174"><ele>32.0</ele><time>2026-04-18T10:56:18.355Z</time></trkpt><trkpt lat="33.5553022" lon="7.9350014"><ele>31.25</ele><time>2026-04-18T10:56:19.354Z</time></trkpt><trkpt lat="33.5554171" lon="7.9348847"><ele>30.5</ele><time>2026-04-18T10:56:20.363Z</time></trkpt><trkpt lat="33.5555313" lon="7.9347685"><ele>29.75</ele><time>2026-04-18T10:56:21.354Z</time></trkpt><trkpt lat="33.5556427" lon="7.9346528"><ele>29.0</ele><time>2026-04-18T10:56:22.354Z</time></trkpt><trkpt lat="33.5557521" lon="7.93454"><ele>29.0</ele><time>2026-04-18T10:56:23.362Z</time></trkpt><trkpt lat="33.5558671" lon="7.9344234"><ele>29.0</ele><time>2026-04-18T10:56:24.359Z</time></trkpt><trkpt lat="33.5559839" lon="7.9343013"><ele>29.0</ele><time>2026-04-18T10:56:25.355Z</time></trkpt><trkpt lat="33.5561042" lon="7.9341777"><ele>29.333333333333332</ele><time>2026-04-18T10:56:26.366Z</time></trkpt><trkpt lat="33.5562251" lon="7.9340576"><ele>29.666666666666664</ele><time>2026-04-18T10:56:27.366Z</time></trkpt><trkpt lat="33.5563452" lon="7.9339383"><ele>30.0</ele><time>2026-04-18T10:56:28.354Z</time></trkpt><trkpt lat="33.5564632" lon="7.9338204"><ele>30.0</ele><time>2026-04-18T10:56:29.366Z</time></trkpt><trkpt lat="33.5565769" lon="7.9337055"><ele>30.0</ele><time>2026-04-18T10:56:30.359Z</time></trkpt><trkpt lat="33.5566841" lon="7.9335924"><ele>30.0</ele><time>2026-04-18T10:56:31.367Z</time></trkpt><trkpt lat="33.5567949" lon="7.9334776"><ele>30.0</ele><time>2026-04-18T10:56:32.364Z</time></trkpt><trkpt lat="33.5569055" lon="7.9333631"><ele>30.0</ele><time>2026-04-18T10:56:33.366Z</time></trkpt><trkpt lat="33.5570196" lon="7.9332449"><ele>30.0</ele><time>2026-04-18T10:56:34.368Z</time></trkpt><trkpt lat="33.5571354" lon="7.9331264"><ele>30.0</ele><time>2026-04-18T10:56:35.366Z</time></trkpt><trkpt lat="33.5572535" lon="7.933008"><ele>30.0</ele><time>2026-04-18T10:56:36.385Z</time></trkpt><trkpt lat="33.5573719" lon="7.932889"><ele>30.0</ele><time>2026-04-18T10:56:37.366Z</time></trkpt><trkpt lat="33.557491" lon="7.9327698"><ele>30.0</ele><time>2026-04-18T10:56:38.364Z</time></trkpt><trkpt lat="33.5576106" lon="7.932656"><ele>29.75</ele><time>2026-04-18T10:56:39.358Z</time></trkpt><trkpt lat="33.5577286" lon="7.9325411"><ele>29.5</ele><time>2026-04-18T10:56:40.36Z</time></trkpt><trkpt lat="33.5578417" lon="7.9324243"><ele>29.25</ele><time>2026-04-18T10:56:41.352Z</time></trkpt><trkpt lat="33.5579534" lon="7.9323125"><ele>29.0</ele><time>2026-04-18T10:56:42.358Z</time></trkpt><trkpt lat="33.5580632" lon="7.9322004"><ele>28.75</ele><time>2026-04-18T10:56:43.364Z</time></trkpt><trkpt lat="33.5581744" lon="7.9320916"><ele>28.5</ele><time>2026-04-18T10:56:44.359Z</time></trkpt><trkpt lat="33.5582888" lon="7.9319836"><ele>28.25</ele><time>2026-04-18T10:56:45.361Z</time></trkpt><trkpt lat="33.5584013" lon="7.9318735"><ele>28.0</ele><time>2026-04-18T10:56:46.356Z</time></trkpt><trkpt lat="33.55851" lon="7.9317666"><ele>27.75</ele><time>2026-04-18T10:56:47.358Z</time></trkpt><trkpt lat="33.5586121" lon="7.9316572"><ele>27.5</ele><time>2026-04-18T10:56:48.359Z</time></trkpt><trkpt lat="33.5587191" lon="7.9315535"><ele>27.25</ele><time>2026-04-18T10:56:49.365Z</time></trkpt><trkpt lat="33.5588187" lon="7.9314411"><ele>27.0</ele><time>2026-04-18T10:56:50.357Z</time></trkpt><trkpt lat="33.5589252" lon="7.9313303"><ele>28.0</ele><time>2026-04-18T10:56:51.36Z</time></trkpt><trkpt lat="33.5590351" lon="7.931211"><ele>29.0</ele><time>2026-04-18T10:56:52.357Z</time></trkpt><trkpt lat="33.5591451" lon="7.9311038"><ele>30.0</ele><time>2026-04-18T10:56:53.361Z</time></trkpt><trkpt lat="33.5592553" lon="7.9309948"><ele>31.0</ele><time>2026-04-18T10:56:54.357Z</time></trkpt><trkpt lat="33.5593647" lon="7.9308804"><ele>31.0</ele><time>2026-04-18T10:56:55.36Z</time></trkpt><trkpt lat="33.5594734" lon="7.9307753"><ele>31.0</ele><time>2026-04-18T10:56:56.359Z</time></trkpt><trkpt lat="33.5595883" lon="7.9306662"><ele>31.0</ele><time>2026-04-18T10:56:57.364Z</time></trkpt><trkpt lat="33.5597052" lon="7.9305479"><ele>31.0</ele><time>2026-04-18T10:56:58.358Z</time></trkpt><trkpt lat="33.5598181" lon="7.9304274"><ele>30.333333333333336</ele><time>2026-04-18T10:56:59.368Z</time></trkpt><trkpt lat="33.5599308" lon="7.9303049"><ele>29.666666666666664</ele><time>2026-04-18T10:57:00.359Z</time></trkpt><trkpt lat="33.5600445" lon="7.9301851"><ele>29.0</ele><time>2026-04-18T10:57:01.361Z</time></trkpt><trkpt lat="33.5601633" lon="7.9300747"><ele>29.0</ele><time>2026-04-18T10:57:02.371Z</time></trkpt><trkpt lat="33.5602918" lon="7.9299639"><ele>29.0</ele><time>2026-04-18T10:57:03.354Z</time></trkpt><trkpt lat="33.5604125" lon="7.9298424"><ele>29.0</ele><time>2026-04-18T10:57:04.363Z</time></trkpt><trkpt lat="33.5605314" lon="7.9297209"><ele>29.333333333333332</ele><time>2026-04-18T10:57:05.36Z</time></trkpt><trkpt lat="33.5606465" lon="7.9296"><ele>29.666666666666664</ele><time>2026-04-18T10:57:06.357Z</time></trkpt><trkpt lat="33.5607599" lon="7.9294813"><ele>30.0</ele><time>2026-04-18T10:57:07.359Z</time></trkpt><trkpt lat="33.5608787" lon="7.9293651"><ele>30.0</ele><time>2026-04-18T10:57:08.36Z</time></trkpt><trkpt lat="33.5609992" lon="7.9292465"><ele>30.0</ele><time>2026-04-18T10:57:09.353Z</time></trkpt><trkpt lat="33.5611187" lon="7.929129"><ele>30.0</ele><time>2026-04-18T10:57:10.357Z</time></trkpt><trkpt lat="33.5612327" lon="7.9290122"><ele>30.0</ele><time>2026-04-18T10:57:11.35Z</time></trkpt><trkpt lat="33.5613382" lon="7.9289029"><ele>30.0</ele><time>2026-04-18T10:57:12.353Z</time></trkpt><trkpt lat="33.5614438" lon="7.9287913"><ele>30.0</ele><time>2026-04-18T10:57:13.359Z</time></trkpt><trkpt lat="33.5615511" lon="7.9286752"><ele>30.0</ele><time>2026-04-18T10:57:14.355Z</time></trkpt><trkpt lat="33.5616495" lon="7.9285681"><ele>30.0</ele><time>2026-04-18T10:57:15.367Z</time></trkpt><trkpt lat="33.5617539" lon="7.9284602"><ele>30.0</ele><time>2026-04-18T10:57:16.359Z</time></trkpt><trkpt lat="33.5618688" lon="7.9283489"><ele>30.0</ele><time>2026-04-18T10:57:17.359Z</time></trkpt><trkpt lat="33.5619857" lon="7.9282381"><ele>30.0</ele><time>2026-04-18T10:57:18.355Z</time></trkpt><trkpt lat="33.5621029" lon="7.928127"><ele>30.25</ele><time>2026-04-18T10:57:19.359Z</time></trkpt><trkpt lat="33.5622185" lon="7.9280117"><ele>30.5</ele><time>2026-04-18T10:57:20.354Z</time></trkpt><trkpt lat="33.5623294" lon="7.9278969"><ele>30.75</ele><time>2026-04-18T10:57:21.353Z</time></trkpt><trkpt lat="33.562442" lon="7.9277799"><ele>31.0</ele><time>2026-04-18T10:57:22.355Z</time></trkpt><trkpt lat="33.5625596" lon="7.9276568"><ele>31.0</ele><time>2026-04-18T10:57:23.356Z</time></trkpt><trkpt lat="33.5626773" lon="7.9275352"><ele>31.0</ele><time>2026-04-18T10:57:24.357Z</time></trkpt><trkpt lat="33.5628006" lon="7.9274105"><ele>31.0</ele><time>2026-04-18T10:57:25.364Z</time></trkpt><trkpt lat="33.5629258" lon="7.9272814"><ele>30.333333333333336</ele><time>2026-04-18T10:57:26.362Z</time></trkpt><trkpt lat="33.5630471" lon="7.9271593"><ele>29.666666666666664</ele><time>2026-04-18T10:57:27.356Z</time></trkpt><trkpt lat="33.5631649" lon="7.9270434"><ele>29.0</ele><time>2026-04-18T10:57:28.354Z</time></trkpt><trkpt lat="33.5632744" lon="7.9269312"><ele>29.0</ele><time>2026-04-18T10:57:29.351Z</time></trkpt><trkpt lat="33.5633854" lon="7.9268247"><ele>29.0</ele><time>2026-04-18T10:57:30.357Z</time></trkpt><trkpt lat="33.5634881" lon="7.926709"><ele>29.0</ele><time>2026-04-18T10:57:31.361Z</time></trkpt><trkpt lat="33.5635845" lon="7.9266111"><ele>29.0</ele><time>2026-04-18T10:57:32.361Z</time></trkpt><trkpt lat="33.5636878" lon="7.9265063"><ele>29.5</ele><time>2026-04-18T10:57:33.36Z</time></trkpt><trkpt lat="33.5638057" lon="7.9263852"><ele>30.0</ele><time>2026-04-18T10:57:34.356Z</time></trkpt><trkpt lat="33.5639182" lon="7.9262733"><ele>30.5</ele><time>2026-04-18T10:57:35.353Z</time></trkpt><trkpt lat="33.5640178" lon="7.9261726"><ele>31.0</ele><time>2026-04-18T10:57:36.366Z</time></trkpt><trkpt lat="33.5641142" lon="7.9260817"><ele>31.0</ele><time>2026-04-18T10:57:37.366Z</time></trkpt><trkpt lat="33.5642013" lon="7.9260006"><ele>31.0</ele><time>2026-04-18T10:57:38.357Z</time></trkpt><trkpt lat="33.564275" lon="7.9259238"><ele>31.0</ele><time>2026-04-18T10:57:39.354Z</time></trkpt><trkpt lat="33.5643523" lon="7.925841"><ele>31.0</ele><time>2026-04-18T10:57:40.351Z</time></trkpt><trkpt lat="33.5644356" lon="7.9257585"><ele>31.0</ele><time>2026-04-18T10:57:41.356Z</time></trkpt><trkpt lat="33.5645192" lon="7.9256796"><ele>31.0</ele><time>2026-04-18T10:57:42.363Z</time></trkpt><trkpt lat="33.5645997" lon="7.9255944"><ele>31.0</ele><time>2026-04-18T10:57:43.356Z</time></trkpt><trkpt lat="33.5646791" lon="7.9255069"><ele>31.0</ele><time>2026-04-18T10:57:44.363Z</time></trkpt><trkpt lat="33.5647553" lon="7.9254267"><ele>31.0</ele><time>2026-04-18T10:57:45.363Z</time></trkpt><trkpt lat="33.5648263" lon="7.9253475"><ele>31.0</ele><time>2026-04-18T10:57:46.36Z</time></trkpt><trkpt lat="33.5648938" lon="7.9252763"><ele>31.000000000000004</ele><time>2026-04-18T10:57:47.355Z</time></trkpt><trkpt lat="33.5649556" lon="7.9252135"><ele>31.0</ele><time>2026-04-18T10:57:48.352Z</time></trkpt><trkpt lat="33.5650069" lon="7.9251603"><ele>31.0</ele><time>2026-04-18T10:57:49.361Z</time></trkpt><trkpt lat="33.5650573" lon="7.9251135"><ele>31.0</ele><time>2026-04-18T10:57:50.36Z</time></trkpt><trkpt lat="33.5651156" lon="7.9250589"><ele>31.000000000000004</ele><time>2026-04-18T10:57:51.361Z</time></trkpt><trkpt lat="33.5651817" lon="7.9249932"><ele>31.0</ele><time>2026-04-18T10:57:52.364Z</time></trkpt><trkpt lat="33.565252" lon="7.9249218"><ele>30.833333333333336</ele><time>2026-04-18T10:57:53.361Z</time></trkpt><trkpt lat="33.5653204" lon="7.9248497"><ele>30.666666666666668</ele><time>2026-04-18T10:57:54.362Z</time></trkpt><trkpt lat="33.5653871" lon="7.9247801"><ele>30.5</ele><time>2026-04-18T10:57:55.352Z</time></trkpt><trkpt lat="33.5654498" lon="7.9247164"><ele>30.333333333333336</ele><time>2026-04-18T10:57:56.363Z</time></trkpt><trkpt lat="33.5655077" lon="7.9246572"><ele>30.166666666666668</ele><time>2026-04-18T10:57:57.361Z</time></trkpt><trkpt lat="33.5655631" lon="7.9246036"><ele>30.0</ele><time>2026-04-18T10:57:58.356Z</time></trkpt><trkpt lat="33.5656174" lon="7.9245592"><ele>30.0</ele><time>2026-04-18T10:57:59.358Z</time></trkpt><trkpt lat="33.5656729" lon="7.9245167"><ele>30.0</ele><time>2026-04-18T10:58:00.358Z</time></trkpt><trkpt lat="33.5657293" lon="7.9244622"><ele>30.0</ele><time>2026-04-18T10:58:01.355Z</time></trkpt><trkpt lat="33.5657978" lon="7.9243879"><ele>30.0</ele><time>2026-04-18T10:58:02.363Z</time></trkpt><trkpt lat="33.5658791" lon="7.9243052"><ele>30.0</ele><time>2026-04-18T10:58:03.354Z</time></trkpt><trkpt lat="33.5659613" lon="7.9242204"><ele>30.0</ele><time>2026-04-18T10:58:04.366Z</time></trkpt><trkpt lat="33.5660457" lon="7.9241332"><ele>30.0</ele><time>2026-04-18T10:58:05.351Z</time></trkpt><trkpt lat="33.5661388" lon="7.9240362"><ele>30.0</ele><time>2026-04-18T10:58:06.357Z</time></trkpt><trkpt lat="33.5662386" lon="7.9239314"><ele>30.0</ele><time>2026-04-18T10:58:07.356Z</time></trkpt><trkpt lat="33.566335" lon="7.9238312"><ele>30.0</ele><time>2026-04-18T10:58:08.359Z</time></trkpt><trkpt lat="33.566423" lon="7.9237418"><ele>29.833333333333332</ele><time>2026-04-18T10:58:09.354Z</time></trkpt><trkpt lat="33.5664975" lon="7.9236649"><ele>29.666666666666664</ele><time>2026-04-18T10:58:10.363Z</time></trkpt><trkpt lat="33.5665595" lon="7.923605"><ele>29.5</ele><time>2026-04-18T10:58:11.353Z</time></trkpt><trkpt lat="33.5666116" lon="7.923561"><ele>29.333333333333332</ele><time>2026-04-18T10:58:12.365Z</time></trkpt><trkpt lat="33.5666761" lon="7.9235114"><ele>29.166666666666664</ele><time>2026-04-18T10:58:14.358Z</time></trkpt><trkpt lat="33.5667323" lon="7.9234318"><ele>29.0</ele><time>2026-04-18T10:59:00.369Z</time></trkpt><trkpt lat="33.5667842" lon="7.9233754"><ele>29.0</ele><time>2026-04-18T10:59:01.359Z</time></trkpt><trkpt lat="33.5668503" lon="7.9233091"><ele>29.0</ele><time>2026-04-18T10:59:02.359Z</time></trkpt><trkpt lat="33.5669312" lon="7.9232258"><ele>29.0</ele><time>2026-04-18T10:59:03.358Z</time></trkpt><trkpt lat="33.5670107" lon="7.923139"><ele>29.0</ele><time>2026-04-18T10:59:04.358Z</time></trkpt><trkpt lat="33.5670865" lon="7.9230571"><ele>29.0</ele><time>2026-04-18T10:59:05.358Z</time></trkpt><trkpt lat="33.567161" lon="7.9229795"><ele>29.25</ele><time>2026-04-18T10:59:06.357Z</time></trkpt><trkpt lat="33.567244" lon="7.9228942"><ele>29.5</ele><time>2026-04-18T10:59:07.354Z</time></trkpt><trkpt lat="33.5673307" lon="7.9228068"><ele>29.75</ele><time>2026-04-18T10:59:08.356Z</time></trkpt><trkpt lat="33.5674259" lon="7.9227115"><ele>30.0</ele><time>2026-04-18T10:59:09.356Z</time></trkpt><trkpt lat="33.567532" lon="7.9226013"><ele>30.0</ele><time>2026-04-18T10:59:10.356Z</time></trkpt><trkpt lat="33.5676434" lon="7.9224919"><ele>30.0</ele><time>2026-04-18T10:59:11.361Z</time></trkpt><trkpt lat="33.5677524" lon="7.9223842"><ele>30.0</ele><time>2026-04-18T10:59:12.363Z</time></trkpt><trkpt lat="33.5678607" lon="7.9222815"><ele>30.0</ele><time>2026-04-18T10:59:13.371Z</time></trkpt><trkpt lat="33.5679604" lon="7.9221785"><ele>29.75</ele><time>2026-04-18T10:59:14.363Z</time></trkpt><trkpt lat="33.5680603" lon="7.9220761"><ele>29.5</ele><time>2026-04-18T10:59:15.359Z</time></trkpt><trkpt lat="33.5681535" lon="7.9219776"><ele>29.25</ele><time>2026-04-18T10:59:16.361Z</time></trkpt><trkpt lat="33.5682464" lon="7.9218785"><ele>29.0</ele><time>2026-04-18T10:59:17.356Z</time></trkpt><trkpt lat="33.5683427" lon="7.9217734"><ele>29.0</ele><time>2026-04-18T10:59:18.361Z</time></trkpt><trkpt lat="33.5684389" lon="7.9216766"><ele>29.0</ele><time>2026-04-18T10:59:19.357Z</time></trkpt><trkpt lat="33.5685373" lon="7.9215885"><ele>29.0</ele><time>2026-04-18T10:59:20.355Z</time></trkpt><trkpt lat="33.5686322" lon="7.9215079"><ele>29.0</ele><time>2026-04-18T10:59:21.357Z</time></trkpt><trkpt lat="33.568722" lon="7.921428"><ele>29.0</ele><time>2026-04-18T10:59:22.357Z</time></trkpt><trkpt lat="33.5688144" lon="7.921338"><ele>29.0</ele><time>2026-04-18T10:59:23.359Z</time></trkpt><trkpt lat="33.5689102" lon="7.9212395"><ele>29.0</ele><time>2026-04-18T10:59:24.353Z</time></trkpt><trkpt lat="33.56901" lon="7.9211317"><ele>29.0</ele><time>2026-04-18T10:59:25.358Z</time></trkpt><trkpt lat="33.5691146" lon="7.9210219"><ele>29.0</ele><time>2026-04-18T10:59:26.359Z</time></trkpt><trkpt lat="33.56922" lon="7.9209087"><ele>29.0</ele><time>2026-04-18T10:59:27.352Z</time></trkpt><trkpt lat="33.5693269" lon="7.9207955"><ele>29.0</ele><time>2026-04-18T10:59:28.358Z</time></trkpt><trkpt lat="33.5694374" lon="7.9206785"><ele>29.0</ele><time>2026-04-18T10:59:29.358Z</time></trkpt><trkpt lat="33.569547" lon="7.9205639"><ele>28.0</ele><time>2026-04-18T10:59:30.361Z</time></trkpt><trkpt lat="33.5696582" lon="7.9204505"><ele>27.0</ele><time>2026-04-18T10:59:31.356Z</time></trkpt><trkpt lat="33.5697671" lon="7.9203392"><ele>26.0</ele><time>2026-04-18T10:59:32.36Z</time></trkpt><trkpt lat="33.5698712" lon="7.9202333"><ele>25.0</ele><time>2026-04-18T10:59:33.353Z</time></trkpt><trkpt lat="33.5699702" lon="7.9201348"><ele>25.75</ele><time>2026-04-18T10:59:34.363Z</time></trkpt><trkpt lat="33.5700696" lon="7.9200411"><ele>26.5</ele><time>2026-04-18T10:59:35.367Z</time></trkpt><trkpt lat="33.5701647" lon="7.9199458"><ele>27.25</ele><time>2026-04-18T10:59:36.356Z</time></trkpt><trkpt lat="33.5702597" lon="7.9198504"><ele>28.0</ele><time>2026-04-18T10:59:37.357Z</time></trkpt><trkpt lat="33.5703591" lon="7.9197527"><ele>28.0</ele><time>2026-04-18T10:59:38.361Z</time></trkpt><trkpt lat="33.5704619" lon="7.9196476"><ele>28.0</ele><time>2026-04-18T10:59:39.356Z</time></trkpt><trkpt lat="33.5705683" lon="7.9195397"><ele>28.0</ele><time>2026-04-18T10:59:40.364Z</time></trkpt><trkpt lat="33.5706764" lon="7.9194272"><ele>28.0</ele><time>2026-04-18T10:59:41.352Z</time></trkpt><trkpt lat="33.5707829" lon="7.9193125"><ele>27.75</ele><time>2026-04-18T10:59:42.357Z</time></trkpt><trkpt lat="33.5708892" lon="7.9192026"><ele>27.5</ele><time>2026-04-18T10:59:43.362Z</time></trkpt><trkpt lat="33.5709916" lon="7.9190987"><ele>27.25</ele><time>2026-04-18T10:59:44.357Z</time></trkpt><trkpt lat="33.5710921" lon="7.918996"><ele>27.0</ele><time>2026-04-18T10:59:45.355Z</time></trkpt><trkpt lat="33.5711958" lon="7.9188902"><ele>27.0</ele><time>2026-04-18T10:59:46.363Z</time></trkpt><trkpt lat="33.571306" lon="7.9187795"><ele>27.0</ele><time>2026-04-18T10:59:47.358Z</time></trkpt><trkpt lat="33.5714166" lon="7.9186717"><ele>27.0</ele><time>2026-04-18T10:59:48.357Z</time></trkpt><trkpt lat="33.5715267" lon="7.9185654"><ele>27.0</ele><time>2026-04-18T10:59:49.36Z</time></trkpt><trkpt lat="33.5716389" lon="7.9184519"><ele>27.0</ele><time>2026-04-18T10:59:50.36Z</time></trkpt><trkpt lat="33.5717472" lon="7.9183367"><ele>27.0</ele><time>2026-04-18T10:59:51.362Z</time></trkpt><trkpt lat="33.5718584" lon="7.918221"><ele>27.0</ele><time>2026-04-18T10:59:52.358Z</time></trkpt><trkpt lat="33.5719723" lon="7.9181026"><ele>27.0</ele><time>2026-04-18T10:59:53.361Z</time></trkpt><trkpt lat="33.572086" lon="7.9179854"><ele>27.0</ele><time>2026-04-18T10:59:54.357Z</time></trkpt><trkpt lat="33.5722007" lon="7.9178664"><ele>27.0</ele><time>2026-04-18T10:59:55.356Z</time></trkpt><trkpt lat="33.5723194" lon="7.9177414"><ele>27.0</ele><time>2026-04-18T10:59:56.359Z</time></trkpt><trkpt lat="33.572436" lon="7.9176173"><ele>27.0</ele><time>2026-04-18T10:59:57.358Z</time></trkpt><trkpt lat="33.5725541" lon="7.9174976"><ele>27.0</ele><time>2026-04-18T10:59:58.357Z</time></trkpt><trkpt lat="33.5726766" lon="7.9173795"><ele>27.0</ele><time>2026-04-18T10:59:59.363Z</time></trkpt><trkpt lat="33.5728025" lon="7.9172616"><ele>27.666666666666664</ele><time>2026-04-18T11:00:00.354Z</time></trkpt><trkpt lat="33.5729269" lon="7.9171404"><ele>28.333333333333332</ele><time>2026-04-18T11:00:01.361Z</time></trkpt><trkpt lat="33.5730461" lon="7.9170182"><ele>29.0</ele><time>2026-04-18T11:00:02.361Z</time></trkpt><trkpt lat="33.5731631" lon="7.9169001"><ele>29.0</ele><time>2026-04-18T11:00:03.357Z</time></trkpt><trkpt lat="33.5732784" lon="7.9167884"><ele>29.0</ele><time>2026-04-18T11:00:04.355Z</time></trkpt><trkpt lat="33.5733907" lon="7.9166748"><ele>29.0</ele><time>2026-04-18T11:00:05.352Z</time></trkpt><trkpt lat="33.5734996" lon="7.916559"><ele>29.0</ele><time>2026-04-18T11:00:06.358Z</time></trkpt><trkpt lat="33.5736053" lon="7.9164453"><ele>29.5</ele><time>2026-04-18T11:00:07.351Z</time></trkpt><trkpt lat="33.5737088" lon="7.916337"><ele>30.0</ele><time>2026-04-18T11:00:08.359Z</time></trkpt><trkpt lat="33.5738117" lon="7.9162277"><ele>30.5</ele><time>2026-04-18T11:00:09.351Z</time></trkpt><trkpt lat="33.5739163" lon="7.9161186"><ele>31.0</ele><time>2026-04-18T11:00:10.356Z</time></trkpt><trkpt lat="33.5740226" lon="7.9160088"><ele>31.0</ele><time>2026-04-18T11:00:11.367Z</time></trkpt><trkpt lat="33.57412" lon="7.9159112"><ele>31.0</ele><time>2026-04-18T11:00:12.365Z</time></trkpt><trkpt lat="33.5742071" lon="7.9158257"><ele>31.0</ele><time>2026-04-18T11:00:13.359Z</time></trkpt><trkpt lat="33.574286" lon="7.9157453"><ele>31.0</ele><time>2026-04-18T11:00:14.358Z</time></trkpt><trkpt lat="33.5743594" lon="7.9156695"><ele>31.0</ele><time>2026-04-18T11:00:15.358Z</time></trkpt><trkpt lat="33.5744328" lon="7.915593"><ele>30.6</ele><time>2026-04-18T11:00:16.359Z</time></trkpt><trkpt lat="33.5745084" lon="7.9155144"><ele>30.200000000000003</ele><time>2026-04-18T11:00:17.357Z</time></trkpt><trkpt lat="33.5745887" lon="7.9154328"><ele>29.799999999999997</ele><time>2026-04-18T11:00:18.353Z</time></trkpt><trkpt lat="33.5746777" lon="7.9153429"><ele>29.4</ele><time>2026-04-18T11:00:19.364Z</time></trkpt><trkpt lat="33.574772" lon="7.9152493"><ele>29.0</ele><time>2026-04-18T11:00:20.357Z</time></trkpt><trkpt lat="33.574872" lon="7.9151497"><ele>28.5</ele><time>2026-04-18T11:00:21.353Z</time></trkpt><trkpt lat="33.5749748" lon="7.915047"><ele>28.0</ele><time>2026-04-18T11:00:22.352Z</time></trkpt><trkpt lat="33.5750787" lon="7.9149387"><ele>27.5</ele><time>2026-04-18T11:00:23.355Z</time></trkpt><trkpt lat="33.5751857" lon="7.9148249"><ele>27.0</ele><time>2026-04-18T11:00:24.357Z</time></trkpt><trkpt lat="33.5752948" lon="7.9147092"><ele>27.666666666666664</ele><time>2026-04-18T11:00:25.351Z</time></trkpt><trkpt lat="33.575408" lon="7.9145903"><ele>28.333333333333332</ele><time>2026-04-18T11:00:26.363Z</time></trkpt><trkpt lat="33.5755215" lon="7.9144743"><ele>29.0</ele><time>2026-04-18T11:00:27.36Z</time></trkpt><trkpt lat="33.5756374" lon="7.9143568"><ele>29.0</ele><time>2026-04-18T11:00:28.354Z</time></trkpt><trkpt lat="33.5757586" lon="7.9142383"><ele>29.0</ele><time>2026-04-18T11:00:29.356Z</time></trkpt><trkpt lat="33.5758783" lon="7.9141172"><ele>29.0</ele><time>2026-04-18T11:00:30.354Z</time></trkpt><trkpt lat="33.5759917" lon="7.9139958"><ele>29.0</ele><time>2026-04-18T11:00:31.355Z</time></trkpt><trkpt lat="33.5761066" lon="7.9138717"><ele>29.0</ele><time>2026-04-18T11:00:32.355Z</time></trkpt><trkpt lat="33.5762236" lon="7.9137556"><ele>29.0</ele><time>2026-04-18T11:00:33.354Z</time></trkpt><trkpt lat="33.5763388" lon="7.9136423"><ele>28.75</ele><time>2026-04-18T11:00:34.36Z</time></trkpt><trkpt lat="33.576451" lon="7.9135306"><ele>28.5</ele><time>2026-04-18T11:00:35.354Z</time></trkpt><trkpt lat="33.57656" lon="7.913422"><ele>28.25</ele><time>2026-04-18T11:00:36.355Z</time></trkpt><trkpt lat="33.5766636" lon="7.9133173"><ele>28.0</ele><time>2026-04-18T11:00:37.357Z</time></trkpt><trkpt lat="33.576761" lon="7.9132182"><ele>27.75</ele><time>2026-04-18T11:00:38.354Z</time></trkpt><trkpt lat="33.5768595" lon="7.9131178"><ele>27.5</ele><time>2026-04-18T11:00:39.357Z</time></trkpt><trkpt lat="33.5769577" lon="7.9130146"><ele>27.25</ele><time>2026-04-18T11:00:40.356Z</time></trkpt><trkpt lat="33.5770593" lon="7.9129071"><ele>27.0</ele><time>2026-04-18T11:00:41.356Z</time></trkpt><trkpt lat="33.5771665" lon="7.9127955"><ele>27.0</ele><time>2026-04-18T11:00:42.353Z</time></trkpt><trkpt lat="33.577278" lon="7.9126793"><ele>27.0</ele><time>2026-04-18T11:00:43.356Z</time></trkpt><trkpt lat="33.5773913" lon="7.9125617"><ele>27.0</ele><time>2026-04-18T11:00:44.354Z</time></trkpt><trkpt lat="33.5775036" lon="7.9124456"><ele>27.0</ele><time>2026-04-18T11:00:45.352Z</time></trkpt><trkpt lat="33.577612" lon="7.9123341"><ele>27.25</ele><time>2026-04-18T11:00:46.354Z</time></trkpt><trkpt lat="33.5777215" lon="7.9122192"><ele>27.5</ele><time>2026-04-18T11:00:47.36Z</time></trkpt><trkpt lat="33.5778339" lon="7.9121034"><ele>27.75</ele><time>2026-04-18T11:00:48.361Z</time></trkpt><trkpt lat="33.5779504" lon="7.9119861"><ele>28.0</ele><time>2026-04-18T11:00:49.359Z</time></trkpt><trkpt lat="33.5780683" lon="7.9118691"><ele>28.0</ele><time>2026-04-18T11:00:50.361Z</time></trkpt><trkpt lat="33.5781911" lon="7.9117468"><ele>28.0</ele><time>2026-04-18T11:00:51.357Z</time></trkpt><trkpt lat="33.5783168" lon="7.911618"><ele>28.0</ele><time>2026-04-18T11:00:52.361Z</time></trkpt><trkpt lat="33.5784453" lon="7.9114847"><ele>27.666666666666668</ele><time>2026-04-18T11:00:53.359Z</time></trkpt><trkpt lat="33.5785736" lon="7.9113453"><ele>27.333333333333336</ele><time>2026-04-18T11:00:54.361Z</time></trkpt><trkpt lat="33.5787046" lon="7.911208"><ele>27.0</ele><time>2026-04-18T11:00:55.359Z</time></trkpt><trkpt lat="33.5788349" lon="7.9110787"><ele>27.666666666666664</ele><time>2026-04-18T11:00:56.359Z</time></trkpt><trkpt lat="33.5789624" lon="7.910953"><ele>28.333333333333332</ele><time>2026-04-18T11:00:57.357Z</time></trkpt><trkpt lat="33.5790799" lon="7.9108329"><ele>29.0</ele><time>2026-04-18T11:00:58.369Z</time></trkpt><trkpt lat="33.5791861" lon="7.9107228"><ele>29.25</ele><time>2026-04-18T11:00:59.355Z</time></trkpt><trkpt lat="33.5792844" lon="7.9106231"><ele>29.5</ele><time>2026-04-18T11:01:00.352Z</time></trkpt><trkpt lat="33.5793775" lon="7.9105244"><ele>29.75</ele><time>2026-04-18T11:01:01.358Z</time></trkpt><trkpt lat="33.5794677" lon="7.9104229"><ele>30.0</ele><time>2026-04-18T11:01:02.362Z</time></trkpt><trkpt lat="33.5795579" lon="7.9103268"><ele>29.5</ele><time>2026-04-18T11:01:03.361Z</time></trkpt><trkpt lat="33.5796502" lon="7.9102355"><ele>29.0</ele><time>2026-04-18T11:01:04.361Z</time></trkpt><trkpt lat="33.5797523" lon="7.9101427"><ele>28.5</ele><time>2026-04-18T11:01:05.368Z</time></trkpt><trkpt lat="33.5798542" lon="7.9100491"><ele>28.0</ele><time>2026-04-18T11:01:06.36Z</time></trkpt><trkpt lat="33.5799617" lon="7.9099592"><ele>27.75</ele><time>2026-04-18T11:01:07.359Z</time></trkpt><trkpt lat="33.5800612" lon="7.9098524"><ele>27.5</ele><time>2026-04-18T11:01:08.357Z</time></trkpt><trkpt lat="33.5801546" lon="7.90974"><ele>27.25</ele><time>2026-04-18T11:01:09.357Z</time></trkpt><trkpt lat="33.5802412" lon="7.9096307"><ele>27.0</ele><time>2026-04-18T11:01:10.358Z</time></trkpt><trkpt lat="33.5803355" lon="7.9095319"><ele>27.75</ele><time>2026-04-18T11:01:11.366Z</time></trkpt><trkpt lat="33.5804363" lon="7.9094491"><ele>28.5</ele><time>2026-04-18T11:01:12.356Z</time></trkpt><trkpt lat="33.5805356" lon="7.9093671"><ele>29.25</ele><time>2026-04-18T11:01:13.357Z</time></trkpt><trkpt lat="33.5806267" lon="7.9092752"><ele>30.0</ele><time>2026-04-18T11:01:14.359Z</time></trkpt><trkpt lat="33.5807114" lon="7.9091865"><ele>30.0</ele><time>2026-04-18T11:01:15.354Z</time></trkpt><trkpt lat="33.5807943" lon="7.9091053"><ele>30.0</ele><time>2026-04-18T11:01:16.365Z</time></trkpt><trkpt lat="33.5808737" lon="7.9090357"><ele>30.0</ele><time>2026-04-18T11:01:17.353Z</time></trkpt><trkpt lat="33.5809512" lon="7.9089678"><ele>30.0</ele><time>2026-04-18T11:01:18.363Z</time></trkpt><trkpt lat="33.5810182" lon="7.9088862"><ele>30.0</ele><time>2026-04-18T11:01:19.36Z</time></trkpt><trkpt lat="33.5810901" lon="7.9088019"><ele>30.0</ele><time>2026-04-18T11:01:20.359Z</time></trkpt><trkpt lat="33.5811707" lon="7.9087161"><ele>30.0</ele><time>2026-04-18T11:01:21.355Z</time></trkpt><trkpt lat="33.5812588" lon="7.9086229"><ele>30.0</ele><time>2026-04-18T11:01:22.364Z</time></trkpt><trkpt lat="33.581349" lon="7.908529"><ele>30.0</ele><time>2026-04-18T11:01:23.355Z</time></trkpt><trkpt lat="33.5814383" lon="7.9084346"><ele>30.25</ele><time>2026-04-18T11:01:24.359Z</time></trkpt><trkpt lat="33.581527" lon="7.9083485"><ele>30.5</ele><time>2026-04-18T11:01:25.364Z</time></trkpt><trkpt lat="33.5816165" lon="7.9082644"><ele>30.75</ele><time>2026-04-18T11:01:26.353Z</time></trkpt><trkpt lat="33.5817063" lon="7.9081715"><ele>31.0</ele><time>2026-04-18T11:01:27.353Z</time></trkpt><trkpt lat="33.5818026" lon="7.9080764"><ele>31.0</ele><time>2026-04-18T11:01:28.361Z</time></trkpt><trkpt lat="33.5819033" lon="7.9079794"><ele>31.0</ele><time>2026-04-18T11:01:29.363Z</time></trkpt><trkpt lat="33.5819992" lon="7.9078789"><ele>31.0</ele><time>2026-04-18T11:01:30.356Z</time></trkpt><trkpt lat="33.5820969" lon="7.9077766"><ele>31.0</ele><time>2026-04-18T11:01:31.36Z</time></trkpt><trkpt lat="33.5821936" lon="7.9076782"><ele>30.25</ele><time>2026-04-18T11:01:32.358Z</time></trkpt><trkpt lat="33.5822876" lon="7.9075837"><ele>29.5</ele><time>2026-04-18T11:01:33.357Z</time></trkpt><trkpt lat="33.5823797" lon="7.9074951"><ele>28.75</ele><time>2026-04-18T11:01:34.357Z</time></trkpt><trkpt lat="33.5824641" lon="7.9073951"><ele>28.0</ele><time>2026-04-18T11:01:35.369Z</time></trkpt><trkpt lat="33.5825483" lon="7.9073025"><ele>28.0</ele><time>2026-04-18T11:01:36.359Z</time></trkpt><trkpt lat="33.5826252" lon="7.9072157"><ele>27.999999999999996</ele><time>2026-04-18T11:01:37.358Z</time></trkpt><trkpt lat="33.5827154" lon="7.9071493"><ele>27.999999999999996</ele><time>2026-04-18T11:01:38.36Z</time></trkpt><trkpt lat="33.582804" lon="7.9070693"><ele>28.0</ele><time>2026-04-18T11:01:39.357Z</time></trkpt><trkpt lat="33.582885" lon="7.9069794"><ele>28.0</ele><time>2026-04-18T11:01:40.352Z</time></trkpt><trkpt lat="33.5829755" lon="7.9068884"><ele>28.25</ele><time>2026-04-18T11:01:41.354Z</time></trkpt><trkpt lat="33.5830665" lon="7.9067952"><ele>28.5</ele><time>2026-04-18T11:01:42.357Z</time></trkpt><trkpt lat="33.5831523" lon="7.9067038"><ele>28.75</ele><time>2026-04-18T11:01:43.361Z</time></trkpt><trkpt lat="33.5832357" lon="7.9066163"><ele>29.0</ele><time>2026-04-18T11:01:44.351Z</time></trkpt><trkpt lat="33.5833191" lon="7.9065274"><ele>29.0</ele><time>2026-04-18T11:01:45.361Z</time></trkpt><trkpt lat="33.583407" lon="7.9064335"><ele>29.0</ele><time>2026-04-18T11:01:46.364Z</time></trkpt><trkpt lat="33.5834942" lon="7.9063397"><ele>29.0</ele><time>2026-04-18T11:01:47.363Z</time></trkpt><trkpt lat="33.5835821" lon="7.9062469"><ele>29.0</ele><time>2026-04-18T11:01:48.366Z</time></trkpt><trkpt lat="33.5836648" lon="7.9061542"><ele>29.0</ele><time>2026-04-18T11:01:49.363Z</time></trkpt><trkpt lat="33.5837534" lon="7.9060649"><ele>29.0</ele><time>2026-04-18T11:01:50.363Z</time></trkpt><trkpt lat="33.5838402" lon="7.9059726"><ele>29.0</ele><time>2026-04-18T11:01:51.36Z</time></trkpt><trkpt lat="33.583923" lon="7.9058794"><ele>29.0</ele><time>2026-04-18T11:01:52.362Z</time></trkpt><trkpt lat="33.5840083" lon="7.9057926"><ele>29.25</ele><time>2026-04-18T11:01:53.363Z</time></trkpt><trkpt lat="33.5840961" lon="7.9057057"><ele>29.5</ele><time>2026-04-18T11:01:54.36Z</time></trkpt><trkpt lat="33.5841846" lon="7.9056136"><ele>29.75</ele><time>2026-04-18T11:01:55.36Z</time></trkpt><trkpt lat="33.584271" lon="7.9055157"><ele>30.0</ele><time>2026-04-18T11:01:56.366Z</time></trkpt><trkpt lat="33.5843551" lon="7.9054192"><ele>30.0</ele><time>2026-04-18T11:01:57.359Z</time></trkpt><trkpt lat="33.584435" lon="7.9053403"><ele>30.0</ele><time>2026-04-18T11:01:58.362Z</time></trkpt><trkpt lat="33.5845049" lon="7.9052723"><ele>30.0</ele><time>2026-04-18T11:01:59.357Z</time></trkpt><trkpt lat="33.5845813" lon="7.9052025"><ele>30.0</ele><time>2026-04-18T11:02:00.361Z</time></trkpt><trkpt lat="33.5846648" lon="7.9051402"><ele>30.0</ele><time>2026-04-18T11:02:01.365Z</time></trkpt><trkpt lat="33.5847514" lon="7.9050701"><ele>30.0</ele><time>2026-04-18T11:02:02.354Z</time></trkpt><trkpt lat="33.5848355" lon="7.9049906"><ele>30.0</ele><time>2026-04-18T11:02:03.356Z</time></trkpt><trkpt lat="33.5849149" lon="7.9049076"><ele>30.0</ele><time>2026-04-18T11:02:04.364Z</time></trkpt><trkpt lat="33.5849975" lon="7.9048227"><ele>30.0</ele><time>2026-04-18T11:02:05.359Z</time></trkpt><trkpt lat="33.5850863" lon="7.9047294"><ele>30.0</ele><time>2026-04-18T11:02:06.366Z</time></trkpt><trkpt lat="33.58518" lon="7.9046282"><ele>30.0</ele><time>2026-04-18T11:02:07.361Z</time></trkpt><trkpt lat="33.585269" lon="7.904536"><ele>30.0</ele><time>2026-04-18T11:02:08.365Z</time></trkpt><trkpt lat="33.5853611" lon="7.9044418"><ele>30.0</ele><time>2026-04-18T11:02:09.357Z</time></trkpt><trkpt lat="33.5854564" lon="7.9043464"><ele>30.0</ele><time>2026-04-18T11:02:10.361Z</time></trkpt><trkpt lat="33.5855466" lon="7.9042498"><ele>30.25</ele><time>2026-04-18T11:02:11.358Z</time></trkpt><trkpt lat="33.5856398" lon="7.9041531"><ele>30.5</ele><time>2026-04-18T11:02:12.362Z</time></trkpt><trkpt lat="33.5857288" lon="7.9040705"><ele>30.75</ele><time>2026-04-18T11:02:13.352Z</time></trkpt><trkpt lat="33.5858186" lon="7.9039771"><ele>31.0</ele><time>2026-04-18T11:02:14.36Z</time></trkpt><trkpt lat="33.5859059" lon="7.9038855"><ele>31.0</ele><time>2026-04-18T11:02:15.356Z</time></trkpt><trkpt lat="33.5859944" lon="7.9037989"><ele>31.0</ele><time>2026-04-18T11:02:16.36Z</time></trkpt><trkpt lat="33.5860813" lon="7.9037115"><ele>31.0</ele><time>2026-04-18T11:02:17.353Z</time></trkpt><trkpt lat="33.5861653" lon="7.9036324"><ele>31.0</ele><time>2026-04-18T11:02:18.364Z</time></trkpt><trkpt lat="33.5862388" lon="7.9035583"><ele>31.0</ele><time>2026-04-18T11:02:19.356Z</time></trkpt><trkpt lat="33.5862981" lon="7.9035035"><ele>31.0</ele><time>2026-04-18T11:02:20.363Z</time></trkpt><trkpt lat="33.5863641" lon="7.9034385"><ele>31.0</ele><time>2026-04-18T11:02:21.353Z</time></trkpt><trkpt lat="33.5864336" lon="7.9033713"><ele>31.0</ele><time>2026-04-18T11:02:22.365Z</time></trkpt><trkpt lat="33.5865118" lon="7.9033002"><ele>31.0</ele><time>2026-04-18T11:02:23.358Z</time></trkpt><trkpt lat="33.5865932" lon="7.9032159"><ele>31.0</ele><time>2026-04-18T11:02:24.358Z</time></trkpt><trkpt lat="33.5866784" lon="7.903121"><ele>30.25</ele><time>2026-04-18T11:02:25.356Z</time></trkpt><trkpt lat="33.5867576" lon="7.903024"><ele>29.5</ele><time>2026-04-18T11:02:26.358Z</time></trkpt><trkpt lat="33.5868346" lon="7.902924"><ele>28.75</ele><time>2026-04-18T11:02:27.358Z</time></trkpt><trkpt lat="33.5869203" lon="7.90283"><ele>28.0</ele><time>2026-04-18T11:02:28.36Z</time></trkpt><trkpt lat="33.5870076" lon="7.9027357"><ele>28.0</ele><time>2026-04-18T11:02:29.357Z</time></trkpt><trkpt lat="33.5871087" lon="7.9026554"><ele>28.0</ele><time>2026-04-18T11:02:30.36Z</time></trkpt><trkpt lat="33.5872088" lon="7.9025562"><ele>28.0</ele><time>2026-04-18T11:02:31.357Z</time></trkpt><trkpt lat="33.58731" lon="7.9024627"><ele>28.0</ele><time>2026-04-18T11:02:32.355Z</time></trkpt><trkpt lat="33.5874113" lon="7.9023602"><ele>28.0</ele><time>2026-04-18T11:02:33.365Z</time></trkpt><trkpt lat="33.5875128" lon="7.9022575"><ele>28.0</ele><time>2026-04-18T11:02:34.361Z</time></trkpt><trkpt lat="33.587608" lon="7.9021546"><ele>28.0</ele><time>2026-04-18T11:02:35.357Z</time></trkpt><trkpt lat="33.5877063" lon="7.9020547"><ele>28.0</ele><time>2026-04-18T11:02:36.362Z</time></trkpt><trkpt lat="33.5878015" lon="7.9019541"><ele>28.25</ele><time>2026-04-18T11:02:37.364Z</time></trkpt><trkpt lat="33.5878973" lon="7.9018518"><ele>28.5</ele><time>2026-04-18T11:02:38.361Z</time></trkpt><trkpt lat="33.5879978" lon="7.9017456"><ele>28.75</ele><time>2026-04-18T11:02:39.357Z</time></trkpt><trkpt lat="33.588102" lon="7.9016409"><ele>29.0</ele><time>2026-04-18T11:02:40.356Z</time></trkpt><trkpt lat="33.5882073" lon="7.9015416"><ele>29.0</ele><time>2026-04-18T11:02:41.363Z</time></trkpt><trkpt lat="33.5883072" lon="7.9014496"><ele>29.0</ele><time>2026-04-18T11:02:42.361Z</time></trkpt><trkpt lat="33.5884053" lon="7.9013582"><ele>29.0</ele><time>2026-04-18T11:02:43.362Z</time></trkpt><trkpt lat="33.5884872" lon="7.901259"><ele>29.0</ele><time>2026-04-18T11:02:44.357Z</time></trkpt><trkpt lat="33.5885689" lon="7.9011587"><ele>29.0</ele><time>2026-04-18T11:02:45.355Z</time></trkpt><trkpt lat="33.5886529" lon="7.9010569"><ele>29.0</ele><time>2026-04-18T11:02:46.371Z</time></trkpt><trkpt lat="33.5887467" lon="7.9009597"><ele>29.0</ele><time>2026-04-18T11:02:47.359Z</time></trkpt><trkpt lat="33.5888474" lon="7.9008606"><ele>29.0</ele><time>2026-04-18T11:02:48.359Z</time></trkpt><trkpt lat="33.5889582" lon="7.9007668"><ele>29.25</ele><time>2026-04-18T11:02:49.358Z</time></trkpt><trkpt lat="33.5890664" lon="7.9006821"><ele>29.5</ele><time>2026-04-18T11:02:50.362Z</time></trkpt><trkpt lat="33.5891678" lon="7.9005795"><ele>29.75</ele><time>2026-04-18T11:02:51.369Z</time></trkpt><trkpt lat="33.5892722" lon="7.9004681"><ele>30.0</ele><time>2026-04-18T11:02:52.361Z</time></trkpt><trkpt lat="33.5893783" lon="7.9003474"><ele>30.0</ele><time>2026-04-18T11:02:53.358Z</time></trkpt><trkpt lat="33.5894835" lon="7.9002213"><ele>30.0</ele><time>2026-04-18T11:02:54.361Z</time></trkpt><trkpt lat="33.5895985" lon="7.9000978"><ele>30.0</ele><time>2026-04-18T11:02:55.359Z</time></trkpt><trkpt lat="33.5897187" lon="7.899985"><ele>29.0</ele><time>2026-04-18T11:02:56.356Z</time></trkpt><trkpt lat="33.5898415" lon="7.89987"><ele>28.0</ele><time>2026-04-18T11:02:57.352Z</time></trkpt><trkpt lat="33.5899658" lon="7.8997453"><ele>27.0</ele><time>2026-04-18T11:02:58.355Z</time></trkpt><trkpt lat="33.5900902" lon="7.899617"><ele>27.0</ele><time>2026-04-18T11:02:59.362Z</time></trkpt><trkpt lat="33.5902165" lon="7.8994922"><ele>27.0</ele><time>2026-04-18T11:03:00.364Z</time></trkpt><trkpt lat="33.5903395" lon="7.8993704"><ele>27.0</ele><time>2026-04-18T11:03:01.36Z</time></trkpt><trkpt lat="33.5904586" lon="7.8992525"><ele>26.75</ele><time>2026-04-18T11:03:02.354Z</time></trkpt><trkpt lat="33.5905704" lon="7.8991427"><ele>26.5</ele><time>2026-04-18T11:03:03.361Z</time></trkpt><trkpt lat="33.5906785" lon="7.899032"><ele>26.25</ele><time>2026-04-18T11:03:04.351Z</time></trkpt><trkpt lat="33.5907847" lon="7.8989259"><ele>26.0</ele><time>2026-04-18T11:03:05.353Z</time></trkpt><trkpt lat="33.5908855" lon="7.8988234"><ele>26.0</ele><time>2026-04-18T11:03:06.365Z</time></trkpt><trkpt lat="33.5909867" lon="7.898715"><ele>26.0</ele><time>2026-04-18T11:03:07.361Z</time></trkpt><trkpt lat="33.5910946" lon="7.8985995"><ele>26.0</ele><time>2026-04-18T11:03:08.354Z</time></trkpt><trkpt lat="33.591208" lon="7.8984809"><ele>26.0</ele><time>2026-04-18T11:03:09.359Z</time></trkpt><trkpt lat="33.5913259" lon="7.898362"><ele>27.333333333333332</ele><time>2026-04-18T11:03:10.354Z</time></trkpt><trkpt lat="33.5914455" lon="7.89824"><ele>28.666666666666664</ele><time>2026-04-18T11:03:11.351Z</time></trkpt><trkpt lat="33.5915637" lon="7.8981204"><ele>30.0</ele><time>2026-04-18T11:03:12.352Z</time></trkpt><trkpt lat="33.5916819" lon="7.8980017"><ele>30.0</ele><time>2026-04-18T11:03:13.356Z</time></trkpt><trkpt lat="33.5917924" lon="7.8978891"><ele>30.0</ele><time>2026-04-18T11:03:14.362Z</time></trkpt><trkpt lat="33.5918965" lon="7.8977933"><ele>30.0</ele><time>2026-04-18T11:03:15.364Z</time></trkpt><trkpt lat="33.5920052" lon="7.8976964"><ele>30.0</ele><time>2026-04-18T11:03:16.359Z</time></trkpt><trkpt lat="33.5921095" lon="7.8975866"><ele>29.0</ele><time>2026-04-18T11:03:17.363Z</time></trkpt><trkpt lat="33.5922129" lon="7.8974872"><ele>28.0</ele><time>2026-04-18T11:03:18.357Z</time></trkpt><trkpt lat="33.5923125" lon="7.8973773"><ele>27.0</ele><time>2026-04-18T11:03:19.358Z</time></trkpt><trkpt lat="33.5924145" lon="7.8972639"><ele>26.0</ele><time>2026-04-18T11:03:20.354Z</time></trkpt><trkpt lat="33.5925238" lon="7.897155"><ele>26.0</ele><time>2026-04-18T11:03:21.353Z</time></trkpt><trkpt lat="33.5926376" lon="7.8970448"><ele>26.0</ele><time>2026-04-18T11:03:22.355Z</time></trkpt><trkpt lat="33.5927491" lon="7.8969308"><ele>26.0</ele><time>2026-04-18T11:03:23.361Z</time></trkpt><trkpt lat="33.592863" lon="7.8968184"><ele>26.0</ele><time>2026-04-18T11:03:24.358Z</time></trkpt><trkpt lat="33.5929763" lon="7.8967065"><ele>26.75</ele><time>2026-04-18T11:03:25.361Z</time></trkpt><trkpt lat="33.593093" lon="7.8965901"><ele>27.5</ele><time>2026-04-18T11:03:26.355Z</time></trkpt><trkpt lat="33.5932015" lon="7.8964758"><ele>28.25</ele><time>2026-04-18T11:03:27.354Z</time></trkpt><trkpt lat="33.5933139" lon="7.8963572"><ele>29.0</ele><time>2026-04-18T11:03:28.365Z</time></trkpt><trkpt lat="33.5934295" lon="7.8962395"><ele>29.0</ele><time>2026-04-18T11:03:29.358Z</time></trkpt><trkpt lat="33.5935433" lon="7.8961264"><ele>29.0</ele><time>2026-04-18T11:03:30.363Z</time></trkpt><trkpt lat="33.5936526" lon="7.8960143"><ele>29.0</ele><time>2026-04-18T11:03:31.357Z</time></trkpt><trkpt lat="33.5937568" lon="7.895903"><ele>29.0</ele><time>2026-04-18T11:03:32.359Z</time></trkpt><trkpt lat="33.5938614" lon="7.8957918"><ele>29.25</ele><time>2026-04-18T11:03:33.358Z</time></trkpt><trkpt lat="33.59397" lon="7.8956828"><ele>29.5</ele><time>2026-04-18T11:03:34.354Z</time></trkpt><trkpt lat="33.5940741" lon="7.8955797"><ele>29.75</ele><time>2026-04-18T11:03:35.355Z</time></trkpt><trkpt lat="33.5941768" lon="7.8954781"><ele>30.0</ele><time>2026-04-18T11:03:36.357Z</time></trkpt><trkpt lat="33.5942818" lon="7.8953723"><ele>30.0</ele><time>2026-04-18T11:03:37.358Z</time></trkpt><trkpt lat="33.5943877" lon="7.8952618"><ele>30.0</ele><time>2026-04-18T11:03:38.361Z</time></trkpt><trkpt lat="33.5944946" lon="7.8951547"><ele>30.0</ele><time>2026-04-18T11:03:39.359Z</time></trkpt><trkpt lat="33.5946005" lon="7.8950462"><ele>30.0</ele><time>2026-04-18T11:03:40.364Z</time></trkpt><trkpt lat="33.5947062" lon="7.894939"><ele>29.75</ele><time>2026-04-18T11:03:41.357Z</time></trkpt><trkpt lat="33.5948117" lon="7.8948339"><ele>29.5</ele><time>2026-04-18T11:03:42.361Z</time></trkpt><trkpt lat="33.5949091" lon="7.8947293"><ele>29.25</ele><time>2026-04-18T11:03:43.363Z</time></trkpt><trkpt lat="33.5950075" lon="7.8946286"><ele>29.0</ele><time>2026-04-18T11:03:44.35Z</time></trkpt><trkpt lat="33.5951128" lon="7.8945202"><ele>29.0</ele><time>2026-04-18T11:03:45.362Z</time></trkpt><trkpt lat="33.5952193" lon="7.8944116"><ele>29.0</ele><time>2026-04-18T11:03:46.355Z</time></trkpt><trkpt lat="33.5953266" lon="7.8943006"><ele>29.0</ele><time>2026-04-18T11:03:47.357Z</time></trkpt><trkpt lat="33.5954356" lon="7.8941896"><ele>29.0</ele><time>2026-04-18T11:03:48.359Z</time></trkpt><trkpt lat="33.5955449" lon="7.8940815"><ele>29.25</ele><time>2026-04-18T11:03:49.358Z</time></trkpt><trkpt lat="33.5956533" lon="7.8939679"><ele>29.5</ele><time>2026-04-18T11:03:50.362Z</time></trkpt><trkpt lat="33.5957631" lon="7.8938525"><ele>29.75</ele><time>2026-04-18T11:03:51.355Z</time></trkpt><trkpt lat="33.5958763" lon="7.8937355"><ele>30.0</ele><time>2026-04-18T11:03:52.357Z</time></trkpt><trkpt lat="33.5959926" lon="7.8936188"><ele>30.0</ele><time>2026-04-18T11:03:53.354Z</time></trkpt><trkpt lat="33.5961087" lon="7.8935044"><ele>30.0</ele><time>2026-04-18T11:03:54.353Z</time></trkpt><trkpt lat="33.5962223" lon="7.8933921"><ele>30.0</ele><time>2026-04-18T11:03:55.364Z</time></trkpt><trkpt lat="33.5963344" lon="7.8932802"><ele>30.0</ele><time>2026-04-18T11:03:56.362Z</time></trkpt><trkpt lat="33.5964484" lon="7.8931654"><ele>29.0</ele><time>2026-04-18T11:03:57.357Z</time></trkpt><trkpt lat="33.5965661" lon="7.8930454"><ele>28.0</ele><time>2026-04-18T11:03:58.372Z</time></trkpt><trkpt lat="33.5966849" lon="7.8929237"><ele>27.0</ele><time>2026-04-18T11:03:59.358Z</time></trkpt><trkpt lat="33.5967992" lon="7.8928036"><ele>27.0</ele><time>2026-04-18T11:04:00.369Z</time></trkpt><trkpt lat="33.5969127" lon="7.8926833"><ele>27.0</ele><time>2026-04-18T11:04:01.356Z</time></trkpt><trkpt lat="33.5970223" lon="7.892565"><ele>27.0</ele><time>2026-04-18T11:04:02.359Z</time></trkpt><trkpt lat="33.5971273" lon="7.892454"><ele>27.0</ele><time>2026-04-18T11:04:03.363Z</time></trkpt><trkpt lat="33.5972247" lon="7.8923485"><ele>27.25</ele><time>2026-04-18T11:04:04.361Z</time></trkpt><trkpt lat="33.5973165" lon="7.8922509"><ele>27.5</ele><time>2026-04-18T11:04:05.355Z</time></trkpt><trkpt lat="33.5974105" lon="7.8921628"><ele>27.75</ele><time>2026-04-18T11:04:06.354Z</time></trkpt><trkpt lat="33.5974985" lon="7.8920809"><ele>28.0</ele><time>2026-04-18T11:04:07.363Z</time></trkpt><trkpt lat="33.5975753" lon="7.8920061"><ele>28.0</ele><time>2026-04-18T11:04:08.358Z</time></trkpt><trkpt lat="33.597643" lon="7.8919353"><ele>27.999999999999996</ele><time>2026-04-18T11:04:09.352Z</time></trkpt><trkpt lat="33.5977094" lon="7.8918665"><ele>27.999999999999996</ele><time>2026-04-18T11:04:10.356Z</time></trkpt><trkpt lat="33.5977895" lon="7.8917882"><ele>28.0</ele><time>2026-04-18T11:04:11.361Z</time></trkpt><trkpt lat="33.5978814" lon="7.8916996"><ele>28.0</ele><time>2026-04-18T11:04:12.362Z</time></trkpt><trkpt lat="33.5979817" lon="7.8916033"><ele>27.5</ele><time>2026-04-18T11:04:13.359Z</time></trkpt><trkpt lat="33.5980814" lon="7.8914985"><ele>27.0</ele><time>2026-04-18T11:04:14.356Z</time></trkpt><trkpt lat="33.5981808" lon="7.8913958"><ele>26.5</ele><time>2026-04-18T11:04:15.362Z</time></trkpt><trkpt lat="33.5982785" lon="7.8912928"><ele>26.0</ele><time>2026-04-18T11:04:16.362Z</time></trkpt><trkpt lat="33.5983771" lon="7.8911916"><ele>26.0</ele><time>2026-04-18T11:04:17.361Z</time></trkpt><trkpt lat="33.5984807" lon="7.8910911"><ele>26.0</ele><time>2026-04-18T11:04:18.357Z</time></trkpt><trkpt lat="33.5985827" lon="7.8909866"><ele>26.0</ele><time>2026-04-18T11:04:19.364Z</time></trkpt><trkpt lat="33.5986822" lon="7.8908786"><ele>26.0</ele><time>2026-04-18T11:04:20.358Z</time></trkpt><trkpt lat="33.5987812" lon="7.890774"><ele>26.25</ele><time>2026-04-18T11:04:21.359Z</time></trkpt><trkpt lat="33.5988857" lon="7.8906789"><ele>26.5</ele><time>2026-04-18T11:04:22.356Z</time></trkpt><trkpt lat="33.5989898" lon="7.8905819"><ele>26.75</ele><time>2026-04-18T11:04:23.367Z</time></trkpt><trkpt lat="33.5990891" lon="7.8904872"><ele>27.0</ele><time>2026-04-18T11:04:24.359Z</time></trkpt><trkpt lat="33.5991848" lon="7.8903922"><ele>27.0</ele><time>2026-04-18T11:04:25.372Z</time></trkpt><trkpt lat="33.599283" lon="7.8902906"><ele>27.0</ele><time>2026-04-18T11:04:26.357Z</time></trkpt><trkpt lat="33.5993773" lon="7.8901898"><ele>27.0</ele><time>2026-04-18T11:04:27.366Z</time></trkpt><trkpt lat="33.5994763" lon="7.890085"><ele>27.0</ele><time>2026-04-18T11:04:28.365Z</time></trkpt><trkpt lat="33.5995807" lon="7.8899822"><ele>27.0</ele><time>2026-04-18T11:04:29.368Z</time></trkpt><trkpt lat="33.5996892" lon="7.8898753"><ele>27.0</ele><time>2026-04-18T11:04:30.362Z</time></trkpt><trkpt lat="33.5997922" lon="7.8897657"><ele>27.0</ele><time>2026-04-18T11:04:31.36Z</time></trkpt><trkpt lat="33.5998858" lon="7.8896584"><ele>27.0</ele><time>2026-04-18T11:04:32.356Z</time></trkpt><trkpt lat="33.5999953" lon="7.8895566"><ele>27.0</ele><time>2026-04-18T11:04:33.362Z</time></trkpt><trkpt lat="33.6001011" lon="7.8894591"><ele>27.0</ele><time>2026-04-18T11:04:34.356Z</time></trkpt><trkpt lat="33.6002112" lon="7.8893595"><ele>27.0</ele><time>2026-04-18T11:04:35.357Z</time></trkpt><trkpt lat="33.6003111" lon="7.8892591"><ele>27.0</ele><time>2026-04-18T11:04:36.356Z</time></trkpt><trkpt lat="33.6003997" lon="7.8891704"><ele>27.5</ele><time>2026-04-18T11:04:37.36Z</time></trkpt><trkpt lat="33.6004951" lon="7.8890787"><ele>28.0</ele><time>2026-04-18T11:04:38.368Z</time></trkpt><trkpt lat="33.6005849" lon="7.8889844"><ele>28.5</ele><time>2026-04-18T11:04:39.374Z</time></trkpt><trkpt lat="33.6006805" lon="7.8888874"><ele>29.0</ele><time>2026-04-18T11:04:40.366Z</time></trkpt><trkpt lat="33.6007803" lon="7.8887924"><ele>29.0</ele><time>2026-04-18T11:04:41.361Z</time></trkpt><trkpt lat="33.6008846" lon="7.8886817"><ele>29.0</ele><time>2026-04-18T11:04:42.368Z</time></trkpt><trkpt lat="33.6009869" lon="7.8885747"><ele>29.0</ele><time>2026-04-18T11:04:43.369Z</time></trkpt><trkpt lat="33.6010932" lon="7.8884721"><ele>29.0</ele><time>2026-04-18T11:04:44.362Z</time></trkpt><trkpt lat="33.6011858" lon="7.8883782"><ele>28.5</ele><time>2026-04-18T11:04:45.361Z</time></trkpt><trkpt lat="33.6012855" lon="7.8882747"><ele>28.0</ele><time>2026-04-18T11:04:46.366Z</time></trkpt><trkpt lat="33.6013837" lon="7.8881779"><ele>27.5</ele><time>2026-04-18T11:04:47.36Z</time></trkpt><trkpt lat="33.601482" lon="7.8880735"><ele>27.0</ele><time>2026-04-18T11:04:48.363Z</time></trkpt><trkpt lat="33.6015754" lon="7.8879758"><ele>27.0</ele><time>2026-04-18T11:04:49.365Z</time></trkpt><trkpt lat="33.6016694" lon="7.8878804"><ele>27.0</ele><time>2026-04-18T11:04:50.367Z</time></trkpt><trkpt lat="33.6017646" lon="7.8877832"><ele>27.0</ele><time>2026-04-18T11:04:51.361Z</time></trkpt><trkpt lat="33.6018618" lon="7.8876831"><ele>27.0</ele><time>2026-04-18T11:04:52.354Z</time></trkpt><trkpt lat="33.6019623" lon="7.887584"><ele>27.25</ele><time>2026-04-18T11:04:53.365Z</time></trkpt><trkpt lat="33.6020646" lon="7.8874881"><ele>27.5</ele><time>2026-04-18T11:04:54.36Z</time></trkpt><trkpt lat="33.6021661" lon="7.8873901"><ele>27.75</ele><time>2026-04-18T11:04:55.362Z</time></trkpt><trkpt lat="33.6022668" lon="7.8872899"><ele>28.0</ele><time>2026-04-18T11:04:56.363Z</time></trkpt><trkpt lat="33.6023695" lon="7.8871837"><ele>28.0</ele><time>2026-04-18T11:04:57.36Z</time></trkpt><trkpt lat="33.6024687" lon="7.8870796"><ele>28.0</ele><time>2026-04-18T11:04:58.361Z</time></trkpt><trkpt lat="33.6025665" lon="7.886975"><ele>28.0</ele><time>2026-04-18T11:04:59.358Z</time></trkpt><trkpt lat="33.6026628" lon="7.886867"><ele>28.0</ele><time>2026-04-18T11:05:00.361Z</time></trkpt><trkpt lat="33.6027636" lon="7.8867621"><ele>27.5</ele><time>2026-04-18T11:05:01.356Z</time></trkpt><trkpt lat="33.6028706" lon="7.8866494"><ele>27.0</ele><time>2026-04-18T11:05:02.358Z</time></trkpt><trkpt lat="33.6029747" lon="7.8865395"><ele>26.5</ele><time>2026-04-18T11:05:03.352Z</time></trkpt><trkpt lat="33.6030814" lon="7.8864373"><ele>26.0</ele><time>2026-04-18T11:05:04.36Z</time></trkpt><trkpt lat="33.6031803" lon="7.8863362"><ele>26.0</ele><time>2026-04-18T11:05:05.357Z</time></trkpt><trkpt lat="33.6032771" lon="7.8862352"><ele>26.0</ele><time>2026-04-18T11:05:06.356Z</time></trkpt><trkpt lat="33.6033755" lon="7.8861341"><ele>26.0</ele><time>2026-04-18T11:05:07.356Z</time></trkpt><trkpt lat="33.6034701" lon="7.8860308"><ele>26.0</ele><time>2026-04-18T11:05:08.353Z</time></trkpt><trkpt lat="33.6035668" lon="7.8859312"><ele>26.200000000000003</ele><time>2026-04-18T11:05:09.36Z</time></trkpt><trkpt lat="33.6036581" lon="7.885834"><ele>26.400000000000002</ele><time>2026-04-18T11:05:10.358Z</time></trkpt><trkpt lat="33.6037393" lon="7.8857485"><ele>26.6</ele><time>2026-04-18T11:05:11.356Z</time></trkpt><trkpt lat="33.6038214" lon="7.8856704"><ele>26.8</ele><time>2026-04-18T11:05:12.36Z</time></trkpt><trkpt lat="33.6039033" lon="7.8855996"><ele>27.0</ele><time>2026-04-18T11:05:13.373Z</time></trkpt><trkpt lat="33.6039783" lon="7.8855331"><ele>27.6</ele><time>2026-04-18T11:05:14.363Z</time></trkpt><trkpt lat="33.6040565" lon="7.885463"><ele>28.200000000000003</ele><time>2026-04-18T11:05:15.364Z</time></trkpt><trkpt lat="33.6041313" lon="7.8853959"><ele>28.8</ele><time>2026-04-18T11:05:16.364Z</time></trkpt><trkpt lat="33.6042165" lon="7.8853487"><ele>29.4</ele><time>2026-04-18T11:05:17.359Z</time></trkpt><trkpt lat="33.6043158" lon="7.8853085"><ele>30.0</ele><time>2026-04-18T11:05:18.363Z</time></trkpt><trkpt lat="33.6044089" lon="7.8852502"><ele>30.0</ele><time>2026-04-18T11:05:19.371Z</time></trkpt><trkpt lat="33.6044945" lon="7.8851918"><ele>30.0</ele><time>2026-04-18T11:05:20.365Z</time></trkpt><trkpt lat="33.6045786" lon="7.8851192"><ele>30.0</ele><time>2026-04-18T11:05:21.355Z</time></trkpt><trkpt lat="33.6046598" lon="7.8850449"><ele>30.0</ele><time>2026-04-18T11:05:22.358Z</time></trkpt><trkpt lat="33.6047303" lon="7.8849669"><ele>30.0</ele><time>2026-04-18T11:05:23.356Z</time></trkpt><trkpt lat="33.6047912" lon="7.8848799"><ele>30.0</ele><time>2026-04-18T11:05:24.361Z</time></trkpt><trkpt lat="33.6048339" lon="7.8847847"><ele>30.0</ele><time>2026-04-18T11:05:25.368Z</time></trkpt><trkpt lat="33.6048829" lon="7.884683"><ele>30.0</ele><time>2026-04-18T11:05:26.36Z</time></trkpt><trkpt lat="33.6049488" lon="7.8845904"><ele>30.0</ele><time>2026-04-18T11:05:27.369Z</time></trkpt><trkpt lat="33.6050344" lon="7.8844994"><ele>30.0</ele><time>2026-04-18T11:05:28.363Z</time></trkpt><trkpt lat="33.6051339" lon="7.8843979"><ele>30.0</ele><time>2026-04-18T11:05:29.36Z</time></trkpt><trkpt lat="33.6052357" lon="7.8842896"><ele>30.0</ele><time>2026-04-18T11:05:30.371Z</time></trkpt><trkpt lat="33.605338" lon="7.8841819"><ele>30.0</ele><time>2026-04-18T11:05:31.358Z</time></trkpt><trkpt lat="33.6054423" lon="7.8840772"><ele>30.0</ele><time>2026-04-18T11:05:32.355Z</time></trkpt><trkpt lat="33.6055456" lon="7.8839748"><ele>30.0</ele><time>2026-04-18T11:05:33.362Z</time></trkpt><trkpt lat="33.6056415" lon="7.8838748"><ele>30.0</ele><time>2026-04-18T11:05:34.36Z</time></trkpt><trkpt lat="33.6057295" lon="7.8837776"><ele>30.0</ele><time>2026-04-18T11:05:35.355Z</time></trkpt><trkpt lat="33.6058105" lon="7.8836884"><ele>30.0</ele><time>2026-04-18T11:05:36.36Z</time></trkpt><trkpt lat="33.6058873" lon="7.8836006"><ele>30.0</ele><time>2026-04-18T11:05:37.357Z</time></trkpt><trkpt lat="33.605961" lon="7.8835296"><ele>30.0</ele><time>2026-04-18T11:05:38.358Z</time></trkpt><trkpt lat="33.6060405" lon="7.8834592"><ele>30.0</ele><time>2026-04-18T11:05:39.358Z</time></trkpt><trkpt lat="33.6061212" lon="7.883382"><ele>30.0</ele><time>2026-04-18T11:05:40.359Z</time></trkpt><trkpt lat="33.6062021" lon="7.8832905"><ele>30.0</ele><time>2026-04-18T11:05:41.356Z</time></trkpt><trkpt lat="33.6062825" lon="7.883191"><ele>30.0</ele><time>2026-04-18T11:05:42.358Z</time></trkpt><trkpt lat="33.6063616" lon="7.8831012"><ele>30.0</ele><time>2026-04-18T11:05:43.367Z</time></trkpt><trkpt lat="33.6064379" lon="7.8830209"><ele>30.0</ele><time>2026-04-18T11:05:44.359Z</time></trkpt><trkpt lat="33.6065135" lon="7.8829436"><ele>30.0</ele><time>2026-04-18T11:05:45.358Z</time></trkpt><trkpt lat="33.6065971" lon="7.8828711"><ele>30.0</ele><time>2026-04-18T11:05:46.36Z</time></trkpt><trkpt lat="33.606689" lon="7.8827986"><ele>30.0</ele><time>2026-04-18T11:05:47.363Z</time></trkpt><trkpt lat="33.606786" lon="7.8827234"><ele>30.0</ele><time>2026-04-18T11:05:48.358Z</time></trkpt><trkpt lat="33.6068844" lon="7.8826257"><ele>30.0</ele><time>2026-04-18T11:05:49.361Z</time></trkpt><trkpt lat="33.6069793" lon="7.882521"><ele>30.0</ele><time>2026-04-18T11:05:50.367Z</time></trkpt><trkpt lat="33.6070746" lon="7.882421"><ele>30.2</ele><time>2026-04-18T11:05:51.354Z</time></trkpt><trkpt lat="33.6071668" lon="7.8823266"><ele>30.4</ele><time>2026-04-18T11:05:52.36Z</time></trkpt><trkpt lat="33.6072583" lon="7.8822421"><ele>30.6</ele><time>2026-04-18T11:05:53.359Z</time></trkpt><trkpt lat="33.6073415" lon="7.8821655"><ele>30.8</ele><time>2026-04-18T11:05:54.356Z</time></trkpt><trkpt lat="33.6074203" lon="7.8820856"><ele>31.0</ele><time>2026-04-18T11:05:55.355Z</time></trkpt><trkpt lat="33.6074981" lon="7.8820041"><ele>31.0</ele><time>2026-04-18T11:05:56.364Z</time></trkpt><trkpt lat="33.6075765" lon="7.8819169"><ele>31.0</ele><time>2026-04-18T11:05:57.361Z</time></trkpt><trkpt lat="33.6076583" lon="7.8818233"><ele>31.0</ele><time>2026-04-18T11:05:58.354Z</time></trkpt><trkpt lat="33.6077385" lon="7.8817392"><ele>31.0</ele><time>2026-04-18T11:05:59.363Z</time></trkpt><trkpt lat="33.6078204" lon="7.8816633"><ele>31.0</ele><time>2026-04-18T11:06:00.368Z</time></trkpt><trkpt lat="33.6079087" lon="7.8815878"><ele>31.0</ele><time>2026-04-18T11:06:01.364Z</time></trkpt><trkpt lat="33.6079963" lon="7.8815105"><ele>31.0</ele><time>2026-04-18T11:06:02.363Z</time></trkpt><trkpt lat="33.6080799" lon="7.8814246"><ele>31.0</ele><time>2026-04-18T11:06:03.359Z</time></trkpt><trkpt lat="33.6081589" lon="7.8813371"><ele>31.0</ele><time>2026-04-18T11:06:04.357Z</time></trkpt><trkpt lat="33.6082311" lon="7.8812543"><ele>31.0</ele><time>2026-04-18T11:06:05.363Z</time></trkpt><trkpt lat="33.6082998" lon="7.8811723"><ele>31.0</ele><time>2026-04-18T11:06:06.357Z</time></trkpt><trkpt lat="33.6083675" lon="7.881093"><ele>31.0</ele><time>2026-04-18T11:06:07.362Z</time></trkpt><trkpt lat="33.6084397" lon="7.8810162"><ele>31.0</ele><time>2026-04-18T11:06:08.356Z</time></trkpt><trkpt lat="33.6085224" lon="7.8809342"><ele>31.0</ele><time>2026-04-18T11:06:09.357Z</time></trkpt><trkpt lat="33.6086061" lon="7.8808504"><ele>31.0</ele><time>2026-04-18T11:06:10.363Z</time></trkpt><trkpt lat="33.6086751" lon="7.8807628"><ele>30.833333333333336</ele><time>2026-04-18T11:06:11.357Z</time></trkpt><trkpt lat="33.6087396" lon="7.8806872"><ele>30.666666666666668</ele><time>2026-04-18T11:06:12.355Z</time></trkpt><trkpt lat="33.6087985" lon="7.880627"><ele>30.5</ele><time>2026-04-18T11:06:13.359Z</time></trkpt><trkpt lat="33.6088682" lon="7.8805511"><ele>30.333333333333336</ele><time>2026-04-18T11:06:15.357Z</time></trkpt><trkpt lat="33.6089297" lon="7.8805042"><ele>30.166666666666668</ele><time>2026-04-18T11:18:46.337Z</time></trkpt><trkpt lat="33.6090269" lon="7.8804425"><ele>30.0</ele><time>2026-04-18T11:18:48.375Z</time></trkpt><trkpt lat="33.6091341" lon="7.8803461"><ele>30.0</ele><time>2026-04-18T11:18:50.372Z</time></trkpt><trkpt lat="33.6092016" lon="7.8802693"><ele>30.0</ele><time>2026-04-18T11:18:51.364Z</time></trkpt><trkpt lat="33.609268" lon="7.8801853"><ele>30.0</ele><time>2026-04-18T11:18:52.374Z</time></trkpt><trkpt lat="33.6093343" lon="7.8801021"><ele>30.0</ele><time>2026-04-18T11:18:53.359Z</time></trkpt><trkpt lat="33.6093971" lon="7.8800151"><ele>30.0</ele><time>2026-04-18T11:18:54.362Z</time></trkpt><trkpt lat="33.6094504" lon="7.8799188"><ele>29.833333333333332</ele><time>2026-04-18T11:18:55.363Z</time></trkpt><trkpt lat="33.6094956" lon="7.8798207"><ele>29.666666666666664</ele><time>2026-04-18T11:18:56.366Z</time></trkpt><trkpt lat="33.6095395" lon="7.8797383"><ele>29.5</ele><time>2026-04-18T11:18:57.36Z</time></trkpt><trkpt lat="33.6095888" lon="7.8796727"><ele>29.333333333333332</ele><time>2026-04-18T11:18:58.356Z</time></trkpt><trkpt lat="33.609645" lon="7.8796243"><ele>29.166666666666664</ele><time>2026-04-18T11:18:59.374Z</time></trkpt><trkpt lat="33.6097058" lon="7.8795904"><ele>29.0</ele><time>2026-04-18T11:19:00.366Z</time></trkpt><trkpt lat="33.6097808" lon="7.8795644"><ele>29.0</ele><time>2026-04-18T11:19:01.368Z</time></trkpt><trkpt lat="33.6098676" lon="7.8795376"><ele>29.0</ele><time>2026-04-18T11:19:02.358Z</time></trkpt><trkpt lat="33.6099546" lon="7.8794976"><ele>29.0</ele><time>2026-04-18T11:19:03.355Z</time></trkpt><trkpt lat="33.6100371" lon="7.8794467"><ele>29.0</ele><time>2026-04-18T11:19:04.361Z</time></trkpt><trkpt lat="33.6101142" lon="7.8793911"><ele>29.0</ele><time>2026-04-18T11:19:05.354Z</time></trkpt><trkpt lat="33.610187" lon="7.8793274"><ele>29.166666666666664</ele><time>2026-04-18T11:19:06.359Z</time></trkpt><trkpt lat="33.6102564" lon="7.8792614"><ele>29.333333333333332</ele><time>2026-04-18T11:19:07.361Z</time></trkpt><trkpt lat="33.6103236" lon="7.8791948"><ele>29.5</ele><time>2026-04-18T11:19:08.364Z</time></trkpt><trkpt lat="33.6103827" lon="7.8791348"><ele>29.666666666666664</ele><time>2026-04-18T11:19:09.355Z</time></trkpt><trkpt lat="33.6104528" lon="7.8790648"><ele>29.833333333333332</ele><time>2026-04-18T11:19:11.36Z</time></trkpt><trkpt lat="33.610508" lon="7.8790113"><ele>30.0</ele><time>2026-04-18T11:19:15.357Z</time></trkpt><trkpt lat="33.6106003" lon="7.8789172"><ele>29.0</ele><time>2026-04-18T11:19:27.353Z</time></trkpt><trkpt lat="33.6106747" lon="7.8788443"><ele>28.0</ele><time>2026-04-18T11:19:28.361Z</time></trkpt><trkpt lat="33.6107651" lon="7.8787587"><ele>27.0</ele><time>2026-04-18T11:19:29.368Z</time></trkpt><trkpt lat="33.6108613" lon="7.8786641"><ele>26.0</ele><time>2026-04-18T11:19:30.359Z</time></trkpt><trkpt lat="33.6109629" lon="7.8785592"><ele>26.0</ele><time>2026-04-18T11:19:31.363Z</time></trkpt><trkpt lat="33.6110658" lon="7.8784517"><ele>26.0</ele><time>2026-04-18T11:19:32.357Z</time></trkpt><trkpt lat="33.6111722" lon="7.8783411"><ele>26.0</ele><time>2026-04-18T11:19:33.35Z</time></trkpt><trkpt lat="33.6112814" lon="7.8782298"><ele>26.0</ele><time>2026-04-18T11:19:34.353Z</time></trkpt><trkpt lat="33.6113923" lon="7.8781213"><ele>27.0</ele><time>2026-04-18T11:19:35.354Z</time></trkpt><trkpt lat="33.6114997" lon="7.8780176"><ele>28.0</ele><time>2026-04-18T11:19:36.36Z</time></trkpt><trkpt lat="33.6116042" lon="7.8779253"><ele>29.0</ele><time>2026-04-18T11:19:37.362Z</time></trkpt><trkpt lat="33.6117" lon="7.8778491"><ele>30.0</ele><time>2026-04-18T11:19:38.361Z</time></trkpt><trkpt lat="33.6117795" lon="7.8777819"><ele>30.0</ele><time>2026-04-18T11:19:39.372Z</time></trkpt><trkpt lat="33.6118552" lon="7.877709"><ele>30.0</ele><time>2026-04-18T11:19:40.361Z</time></trkpt><trkpt lat="33.6119342" lon="7.8776257"><ele>30.0</ele><time>2026-04-18T11:19:41.362Z</time></trkpt><trkpt lat="33.6120129" lon="7.8775284"><ele>30.0</ele><time>2026-04-18T11:19:42.375Z</time></trkpt><trkpt lat="33.6120981" lon="7.8774242"><ele>30.0</ele><time>2026-04-18T11:19:43.358Z</time></trkpt><trkpt lat="33.6121958" lon="7.8773249"><ele>29.75</ele><time>2026-04-18T11:19:44.355Z</time></trkpt><trkpt lat="33.6123041" lon="7.8772204"><ele>29.5</ele><time>2026-04-18T11:19:45.36Z</time></trkpt><trkpt lat="33.6124164" lon="7.8771136"><ele>29.25</ele><time>2026-04-18T11:19:46.363Z</time></trkpt><trkpt lat="33.6125241" lon="7.8770114"><ele>29.0</ele><time>2026-04-18T11:19:47.354Z</time></trkpt><trkpt lat="33.6126326" lon="7.8769078"><ele>29.0</ele><time>2026-04-18T11:19:48.358Z</time></trkpt><trkpt lat="33.6127343" lon="7.8768021"><ele>29.0</ele><time>2026-04-18T11:19:49.372Z</time></trkpt><trkpt lat="33.6128382" lon="7.876701"><ele>29.0</ele><time>2026-04-18T11:19:50.361Z</time></trkpt><trkpt lat="33.6129379" lon="7.8766043"><ele>29.0</ele><time>2026-04-18T11:19:51.359Z</time></trkpt><trkpt lat="33.6130341" lon="7.8765057"><ele>29.2</ele><time>2026-04-18T11:19:52.362Z</time></trkpt><trkpt lat="33.6131311" lon="7.8764067"><ele>29.4</ele><time>2026-04-18T11:19:53.365Z</time></trkpt><trkpt lat="33.6132204" lon="7.8763161"><ele>29.6</ele><time>2026-04-18T11:19:54.352Z</time></trkpt><trkpt lat="33.6132924" lon="7.8762229"><ele>29.8</ele><time>2026-04-18T11:19:55.355Z</time></trkpt><trkpt lat="33.6133408" lon="7.8761277"><ele>30.0</ele><time>2026-04-18T11:19:56.359Z</time></trkpt><trkpt lat="33.6133768" lon="7.8760251"><ele>30.0</ele><time>2026-04-18T11:19:57.368Z</time></trkpt><trkpt lat="33.6134101" lon="7.8759167"><ele>30.0</ele><time>2026-04-18T11:19:58.365Z</time></trkpt><trkpt lat="33.6134449" lon="7.8758121"><ele>30.0</ele><time>2026-04-18T11:19:59.37Z</time></trkpt><trkpt lat="33.6134878" lon="7.8757217"><ele>30.0</ele><time>2026-04-18T11:20:00.37Z</time></trkpt><trkpt lat="33.6135387" lon="7.875649"><ele>30.0</ele><time>2026-04-18T11:20:01.361Z</time></trkpt><trkpt lat="33.6135982" lon="7.8755966"><ele>30.0</ele><time>2026-04-18T11:20:02.356Z</time></trkpt><trkpt lat="33.6136697" lon="7.8755494"><ele>30.0</ele><time>2026-04-18T11:20:03.351Z</time></trkpt><trkpt lat="33.6137481" lon="7.8754962"><ele>30.0</ele><time>2026-04-18T11:20:04.366Z</time></trkpt><trkpt lat="33.6138223" lon="7.8754245"><ele>30.0</ele><time>2026-04-18T11:20:05.366Z</time></trkpt><trkpt lat="33.6138926" lon="7.8753502"><ele>30.0</ele><time>2026-04-18T11:20:06.367Z</time></trkpt><trkpt lat="33.6139698" lon="7.8752948"><ele>30.0</ele><time>2026-04-18T11:20:07.364Z</time></trkpt><trkpt lat="33.6140531" lon="7.8752649"><ele>30.0</ele><time>2026-04-18T11:20:08.362Z</time></trkpt><trkpt lat="33.6141402" lon="7.8752543"><ele>30.0</ele><time>2026-04-18T11:20:09.369Z</time></trkpt><trkpt lat="33.6142272" lon="7.8752434"><ele>30.0</ele><time>2026-04-18T11:20:10.355Z</time></trkpt><trkpt lat="33.6143014" lon="7.8752226"><ele>30.0</ele><time>2026-04-18T11:20:11.359Z</time></trkpt><trkpt lat="33.6143649" lon="7.8751854"><ele>30.0</ele><time>2026-04-18T11:20:12.368Z</time></trkpt><trkpt lat="33.6144348" lon="7.8751224"><ele>30.0</ele><time>2026-04-18T11:20:13.362Z</time></trkpt><trkpt lat="33.6145121" lon="7.8750388"><ele>29.75</ele><time>2026-04-18T11:20:14.352Z</time></trkpt><trkpt lat="33.6146013" lon="7.8749463"><ele>29.5</ele><time>2026-04-18T11:20:15.362Z</time></trkpt><trkpt lat="33.614699" lon="7.8748471"><ele>29.25</ele><time>2026-04-18T11:20:16.373Z</time></trkpt><trkpt lat="33.6148051" lon="7.8747421"><ele>29.0</ele><time>2026-04-18T11:20:17.367Z</time></trkpt><trkpt lat="33.6149123" lon="7.8746396"><ele>29.0</ele><time>2026-04-18T11:20:18.365Z</time></trkpt><trkpt lat="33.6150226" lon="7.8745311"><ele>29.0</ele><time>2026-04-18T11:20:19.367Z</time></trkpt><trkpt lat="33.6151308" lon="7.8744219"><ele>29.0</ele><time>2026-04-18T11:20:20.362Z</time></trkpt><trkpt lat="33.615237" lon="7.8743128"><ele>29.0</ele><time>2026-04-18T11:20:21.368Z</time></trkpt><trkpt lat="33.6153409" lon="7.8742037"><ele>28.75</ele><time>2026-04-18T11:20:22.358Z</time></trkpt><trkpt lat="33.615442" lon="7.8740959"><ele>28.5</ele><time>2026-04-18T11:20:23.371Z</time></trkpt><trkpt lat="33.6155459" lon="7.8739939"><ele>28.25</ele><time>2026-04-18T11:20:24.355Z</time></trkpt><trkpt lat="33.6156512" lon="7.8738969"><ele>28.0</ele><time>2026-04-18T11:20:25.361Z</time></trkpt><trkpt lat="33.6157546" lon="7.8737968"><ele>28.0</ele><time>2026-04-18T11:20:26.363Z</time></trkpt><trkpt lat="33.6158526" lon="7.8736969"><ele>28.0</ele><time>2026-04-18T11:20:27.371Z</time></trkpt><trkpt lat="33.6159508" lon="7.8735972"><ele>28.0</ele><time>2026-04-18T11:20:28.354Z</time></trkpt><trkpt lat="33.6160559" lon="7.8734951"><ele>28.0</ele><time>2026-04-18T11:20:29.371Z</time></trkpt><trkpt lat="33.6161595" lon="7.8733967"><ele>28.0</ele><time>2026-04-18T11:20:30.36Z</time></trkpt><trkpt lat="33.6162616" lon="7.873298"><ele>28.0</ele><time>2026-04-18T11:20:31.355Z</time></trkpt><trkpt lat="33.6163581" lon="7.8732016"><ele>28.0</ele><time>2026-04-18T11:20:32.362Z</time></trkpt><trkpt lat="33.6164523" lon="7.8731039"><ele>28.0</ele><time>2026-04-18T11:20:33.353Z</time></trkpt><trkpt lat="33.6165455" lon="7.8730087"><ele>28.0</ele><time>2026-04-18T11:20:34.357Z</time></trkpt><trkpt lat="33.6166404" lon="7.8729131"><ele>28.0</ele><time>2026-04-18T11:20:35.361Z</time></trkpt><trkpt lat="33.6167372" lon="7.8728183"><ele>28.0</ele><time>2026-04-18T11:20:36.36Z</time></trkpt><trkpt lat="33.6168338" lon="7.8727197"><ele>28.0</ele><time>2026-04-18T11:20:37.36Z</time></trkpt><trkpt lat="33.6169287" lon="7.8726226"><ele>28.25</ele><time>2026-04-18T11:20:38.369Z</time></trkpt><trkpt lat="33.6170239" lon="7.8725262"><ele>28.5</ele><time>2026-04-18T11:20:39.367Z</time></trkpt><trkpt lat="33.6171179" lon="7.8724313"><ele>28.75</ele><time>2026-04-18T11:20:40.352Z</time></trkpt><trkpt lat="33.6172137" lon="7.8723355"><ele>29.0</ele><time>2026-04-18T11:20:41.364Z</time></trkpt><trkpt lat="33.6173085" lon="7.8722416"><ele>29.0</ele><time>2026-04-18T11:20:42.366Z</time></trkpt><trkpt lat="33.6174018" lon="7.872157"><ele>29.0</ele><time>2026-04-18T11:20:43.351Z</time></trkpt><trkpt lat="33.617498" lon="7.8720783"><ele>29.0</ele><time>2026-04-18T11:20:44.359Z</time></trkpt><trkpt lat="33.6175878" lon="7.8719959"><ele>29.0</ele><time>2026-04-18T11:20:45.361Z</time></trkpt><trkpt lat="33.6176694" lon="7.8719099"><ele>29.0</ele><time>2026-04-18T11:20:46.365Z</time></trkpt><trkpt lat="33.617746" lon="7.8718227"><ele>29.0</ele><time>2026-04-18T11:20:47.366Z</time></trkpt><trkpt lat="33.617816" lon="7.8717363"><ele>29.0</ele><time>2026-04-18T11:20:48.362Z</time></trkpt><trkpt lat="33.6178873" lon="7.8716505"><ele>29.0</ele><time>2026-04-18T11:20:49.359Z</time></trkpt><trkpt lat="33.6179558" lon="7.87157"><ele>29.0</ele><time>2026-04-18T11:20:50.362Z</time></trkpt><trkpt lat="33.6180228" lon="7.8714896"><ele>29.166666666666664</ele><time>2026-04-18T11:20:51.354Z</time></trkpt><trkpt lat="33.6180893" lon="7.8714113"><ele>29.333333333333332</ele><time>2026-04-18T11:20:52.354Z</time></trkpt><trkpt lat="33.6181457" lon="7.8713442"><ele>29.5</ele><time>2026-04-18T11:20:53.36Z</time></trkpt><trkpt lat="33.6182158" lon="7.8712377"><ele>29.666666666666664</ele><time>2026-04-18T11:20:55.355Z</time></trkpt><trkpt lat="33.6182497" lon="7.8711723"><ele>29.833333333333332</ele><time>2026-04-18T11:24:35.385Z</time></trkpt><trkpt lat="33.6182988" lon="7.8710762"><ele>30.0</ele><time>2026-04-18T11:24:37.37Z</time></trkpt><trkpt lat="33.6184075" lon="7.8709882"><ele>30.0</ele><time>2026-04-18T11:24:39.353Z</time></trkpt><trkpt lat="33.6184884" lon="7.8709599"><ele>30.0</ele><time>2026-04-18T11:24:40.347Z</time></trkpt><trkpt lat="33.6185717" lon="7.8709333"><ele>30.0</ele><time>2026-04-18T11:24:41.358Z</time></trkpt><trkpt lat="33.618647" lon="7.8709011"><ele>30.0</ele><time>2026-04-18T11:24:42.353Z</time></trkpt><trkpt lat="33.6187079" lon="7.8708603"><ele>30.0</ele><time>2026-04-18T11:24:43.353Z</time></trkpt><trkpt lat="33.6187707" lon="7.8708007"><ele>30.0</ele><time>2026-04-18T11:24:44.373Z</time></trkpt><trkpt lat="33.618845" lon="7.8707173"><ele>29.75</ele><time>2026-04-18T11:24:45.358Z</time></trkpt><trkpt lat="33.6189262" lon="7.8706249"><ele>29.5</ele><time>2026-04-18T11:24:46.375Z</time></trkpt><trkpt lat="33.6190162" lon="7.870526"><ele>29.25</ele><time>2026-04-18T11:24:47.371Z</time></trkpt><trkpt lat="33.6191049" lon="7.8704243"><ele>29.0</ele><time>2026-04-18T11:24:48.357Z</time></trkpt><trkpt lat="33.6191883" lon="7.8703302"><ele>29.0</ele><time>2026-04-18T11:24:49.353Z</time></trkpt><trkpt lat="33.6192764" lon="7.8702434"><ele>29.0</ele><time>2026-04-18T11:24:50.358Z</time></trkpt><trkpt lat="33.6193759" lon="7.8701544"><ele>29.0</ele><time>2026-04-18T11:24:51.358Z</time></trkpt><trkpt lat="33.6194796" lon="7.8700611"><ele>29.0</ele><time>2026-04-18T11:24:52.357Z</time></trkpt><trkpt lat="33.6195829" lon="7.869968"><ele>29.0</ele><time>2026-04-18T11:24:53.352Z</time></trkpt><trkpt lat="33.6196794" lon="7.8698787"><ele>29.0</ele><time>2026-04-18T11:24:54.361Z</time></trkpt><trkpt lat="33.619779" lon="7.8697851"><ele>29.0</ele><time>2026-04-18T11:24:55.362Z</time></trkpt><trkpt lat="33.6198786" lon="7.8696895"><ele>29.0</ele><time>2026-04-18T11:24:56.351Z</time></trkpt><trkpt lat="33.6199748" lon="7.8695908"><ele>29.0</ele><time>2026-04-18T11:24:57.367Z</time></trkpt><trkpt lat="33.6200721" lon="7.8694916"><ele>29.0</ele><time>2026-04-18T11:24:58.378Z</time></trkpt><trkpt lat="33.6201729" lon="7.869385"><ele>29.0</ele><time>2026-04-18T11:24:59.354Z</time></trkpt><trkpt lat="33.6202739" lon="7.8692813"><ele>29.0</ele><time>2026-04-18T11:25:00.363Z</time></trkpt><trkpt lat="33.6203725" lon="7.8691769"><ele>28.75</ele><time>2026-04-18T11:25:01.363Z</time></trkpt><trkpt lat="33.6204695" lon="7.8690747"><ele>28.5</ele><time>2026-04-18T11:25:02.351Z</time></trkpt><trkpt lat="33.6205709" lon="7.868975"><ele>28.25</ele><time>2026-04-18T11:25:03.363Z</time></trkpt><trkpt lat="33.6206778" lon="7.8688706"><ele>28.0</ele><time>2026-04-18T11:25:04.363Z</time></trkpt><trkpt lat="33.620786" lon="7.8687661"><ele>28.0</ele><time>2026-04-18T11:25:05.369Z</time></trkpt><trkpt lat="33.620899" lon="7.8686531"><ele>28.0</ele><time>2026-04-18T11:25:06.357Z</time></trkpt><trkpt lat="33.621014" lon="7.8685359"><ele>28.0</ele><time>2026-04-18T11:25:07.359Z</time></trkpt><trkpt lat="33.6211292" lon="7.8684181"><ele>28.0</ele><time>2026-04-18T11:25:08.375Z</time></trkpt><trkpt lat="33.6212456" lon="7.8682983"><ele>28.0</ele><time>2026-04-18T11:25:09.353Z</time></trkpt><trkpt lat="33.621364" lon="7.8681801"><ele>28.0</ele><time>2026-04-18T11:25:10.365Z</time></trkpt><trkpt lat="33.6214793" lon="7.8680712"><ele>28.0</ele><time>2026-04-18T11:25:11.364Z</time></trkpt><trkpt lat="33.6215877" lon="7.8679699"><ele>28.0</ele><time>2026-04-18T11:25:12.356Z</time></trkpt><trkpt lat="33.6216891" lon="7.8678791"><ele>28.0</ele><time>2026-04-18T11:25:13.354Z</time></trkpt><trkpt lat="33.6217848" lon="7.8677972"><ele>28.0</ele><time>2026-04-18T11:25:14.35Z</time></trkpt><trkpt lat="33.6218694" lon="7.8677153"><ele>28.0</ele><time>2026-04-18T11:25:15.364Z</time></trkpt><trkpt lat="33.6219508" lon="7.8676281"><ele>28.0</ele><time>2026-04-18T11:25:16.359Z</time></trkpt><trkpt lat="33.6220418" lon="7.8675265"><ele>28.0</ele><time>2026-04-18T11:25:17.35Z</time></trkpt><trkpt lat="33.6221442" lon="7.8674171"><ele>28.0</ele><time>2026-04-18T11:25:18.365Z</time></trkpt><trkpt lat="33.6222485" lon="7.8673042"><ele>28.0</ele><time>2026-04-18T11:25:19.369Z</time></trkpt><trkpt lat="33.6223466" lon="7.8671923"><ele>28.0</ele><time>2026-04-18T11:25:20.351Z</time></trkpt><trkpt lat="33.6224364" lon="7.8670867"><ele>28.0</ele><time>2026-04-18T11:25:21.368Z</time></trkpt><trkpt lat="33.6225277" lon="7.8669878"><ele>28.0</ele><time>2026-04-18T11:25:22.359Z</time></trkpt><trkpt lat="33.6226229" lon="7.866892"><ele>28.0</ele><time>2026-04-18T11:25:23.354Z</time></trkpt><trkpt lat="33.6227284" lon="7.8667942"><ele>28.0</ele><time>2026-04-18T11:25:24.356Z</time></trkpt><trkpt lat="33.6228403" lon="7.8666903"><ele>28.0</ele><time>2026-04-18T11:25:25.363Z</time></trkpt><trkpt lat="33.6229544" lon="7.8665814"><ele>28.0</ele><time>2026-04-18T11:25:26.361Z</time></trkpt><trkpt lat="33.6230689" lon="7.8664691"><ele>28.0</ele><time>2026-04-18T11:25:27.357Z</time></trkpt><trkpt lat="33.6231842" lon="7.8663522"><ele>28.0</ele><time>2026-04-18T11:25:28.35Z</time></trkpt><trkpt lat="33.6233013" lon="7.8662329"><ele>28.0</ele><time>2026-04-18T11:25:29.35Z</time></trkpt><trkpt lat="33.6234167" lon="7.866119"><ele>28.0</ele><time>2026-04-18T11:25:30.352Z</time></trkpt><trkpt lat="33.6235244" lon="7.8660097"><ele>28.0</ele><time>2026-04-18T11:25:31.367Z</time></trkpt><trkpt lat="33.6236297" lon="7.8659034"><ele>28.0</ele><time>2026-04-18T11:25:32.368Z</time></trkpt><trkpt lat="33.6237358" lon="7.8657935"><ele>27.25</ele><time>2026-04-18T11:25:33.365Z</time></trkpt><trkpt lat="33.6238395" lon="7.8656916"><ele>26.5</ele><time>2026-04-18T11:25:34.365Z</time></trkpt><trkpt lat="33.6239389" lon="7.8655977"><ele>25.75</ele><time>2026-04-18T11:25:35.362Z</time></trkpt><trkpt lat="33.6240315" lon="7.8655058"><ele>25.0</ele><time>2026-04-18T11:25:36.365Z</time></trkpt><trkpt lat="33.624119" lon="7.8654138"><ele>25.0</ele><time>2026-04-18T11:25:37.357Z</time></trkpt><trkpt lat="33.624213" lon="7.8653166"><ele>25.0</ele><time>2026-04-18T11:25:38.362Z</time></trkpt><trkpt lat="33.6243122" lon="7.8652224"><ele>25.0</ele><time>2026-04-18T11:25:39.37Z</time></trkpt><trkpt lat="33.6244168" lon="7.865125"><ele>25.0</ele><time>2026-04-18T11:25:40.359Z</time></trkpt><trkpt lat="33.6245231" lon="7.8650229"><ele>26.5</ele><time>2026-04-18T11:25:41.354Z</time></trkpt><trkpt lat="33.6246275" lon="7.8649193"><ele>28.0</ele><time>2026-04-18T11:25:42.354Z</time></trkpt><trkpt lat="33.6247277" lon="7.8648208"><ele>29.5</ele><time>2026-04-18T11:25:43.36Z</time></trkpt><trkpt lat="33.6248206" lon="7.8647279"><ele>31.0</ele><time>2026-04-18T11:25:44.361Z</time></trkpt><trkpt lat="33.6249084" lon="7.8646297"><ele>31.0</ele><time>2026-04-18T11:25:45.364Z</time></trkpt><trkpt lat="33.6249973" lon="7.8645357"><ele>31.0</ele><time>2026-04-18T11:25:46.371Z</time></trkpt><trkpt lat="33.6250896" lon="7.8644423"><ele>31.0</ele><time>2026-04-18T11:25:47.352Z</time></trkpt><trkpt lat="33.6251919" lon="7.8643486"><ele>31.0</ele><time>2026-04-18T11:25:48.355Z</time></trkpt><trkpt lat="33.6252931" lon="7.8642601"><ele>30.75</ele><time>2026-04-18T11:25:49.36Z</time></trkpt><trkpt lat="33.6253873" lon="7.8641705"><ele>30.5</ele><time>2026-04-18T11:25:50.365Z</time></trkpt><trkpt lat="33.6254762" lon="7.8640868"><ele>30.25</ele><time>2026-04-18T11:25:51.366Z</time></trkpt><trkpt lat="33.6255619" lon="7.8639938"><ele>30.0</ele><time>2026-04-18T11:25:52.359Z</time></trkpt><trkpt lat="33.625644" lon="7.8639032"><ele>30.0</ele><time>2026-04-18T11:25:53.368Z</time></trkpt><trkpt lat="33.6257308" lon="7.8638215"><ele>30.0</ele><time>2026-04-18T11:25:54.357Z</time></trkpt><trkpt lat="33.6258089" lon="7.8637508"><ele>30.0</ele><time>2026-04-18T11:25:55.366Z</time></trkpt><trkpt lat="33.6258764" lon="7.863687"><ele>30.0</ele><time>2026-04-18T11:25:56.365Z</time></trkpt><trkpt lat="33.6259404" lon="7.8636273"><ele>30.0</ele><time>2026-04-18T11:25:57.362Z</time></trkpt><trkpt lat="33.6260099" lon="7.8635511"><ele>30.0</ele><time>2026-04-18T11:25:58.365Z</time></trkpt><trkpt lat="33.6260858" lon="7.8634687"><ele>30.0</ele><time>2026-04-18T11:25:59.367Z</time></trkpt><trkpt lat="33.626164" lon="7.8633906"><ele>30.0</ele><time>2026-04-18T11:26:00.363Z</time></trkpt><trkpt lat="33.6262487" lon="7.8633092"><ele>30.0</ele><time>2026-04-18T11:26:01.362Z</time></trkpt><trkpt lat="33.626334" lon="7.863233"><ele>30.0</ele><time>2026-04-18T11:26:02.36Z</time></trkpt><trkpt lat="33.6264202" lon="7.8631528"><ele>30.4</ele><time>2026-04-18T11:26:03.361Z</time></trkpt><trkpt lat="33.6265041" lon="7.863067"><ele>30.8</ele><time>2026-04-18T11:26:04.36Z</time></trkpt><trkpt lat="33.6265835" lon="7.8629811"><ele>31.200000000000003</ele><time>2026-04-18T11:26:05.361Z</time></trkpt><trkpt lat="33.6266694" lon="7.8628963"><ele>31.6</ele><time>2026-04-18T11:26:06.362Z</time></trkpt><trkpt lat="33.6267609" lon="7.8628257"><ele>32.0</ele><time>2026-04-18T11:26:07.353Z</time></trkpt><trkpt lat="33.6268421" lon="7.862758"><ele>32.0</ele><time>2026-04-18T11:26:08.359Z</time></trkpt><trkpt lat="33.6269288" lon="7.862671"><ele>32.0</ele><time>2026-04-18T11:26:09.352Z</time></trkpt><trkpt lat="33.627014" lon="7.8625695"><ele>32.0</ele><time>2026-04-18T11:26:10.362Z</time></trkpt><trkpt lat="33.6271034" lon="7.8624707"><ele>32.0</ele><time>2026-04-18T11:26:11.362Z</time></trkpt><trkpt lat="33.6271937" lon="7.8623763"><ele>31.25</ele><time>2026-04-18T11:26:12.358Z</time></trkpt><trkpt lat="33.627284" lon="7.8622818"><ele>30.5</ele><time>2026-04-18T11:26:13.358Z</time></trkpt><trkpt lat="33.6273769" lon="7.8621801"><ele>29.75</ele><time>2026-04-18T11:26:14.362Z</time></trkpt><trkpt lat="33.6274694" lon="7.8620697"><ele>29.0</ele><time>2026-04-18T11:26:15.358Z</time></trkpt><trkpt lat="33.6275617" lon="7.8619579"><ele>29.0</ele><time>2026-04-18T11:26:16.362Z</time></trkpt><trkpt lat="33.627659" lon="7.861849"><ele>29.0</ele><time>2026-04-18T11:26:17.36Z</time></trkpt><trkpt lat="33.6277608" lon="7.8617485"><ele>29.0</ele><time>2026-04-18T11:26:18.358Z</time></trkpt><trkpt lat="33.6278618" lon="7.861644"><ele>29.0</ele><time>2026-04-18T11:26:19.361Z</time></trkpt><trkpt lat="33.6279671" lon="7.8615477"><ele>28.5</ele><time>2026-04-18T11:26:20.354Z</time></trkpt><trkpt lat="33.6280798" lon="7.8614553"><ele>28.0</ele><time>2026-04-18T11:26:21.369Z</time></trkpt><trkpt lat="33.6281987" lon="7.8613592"><ele>27.5</ele><time>2026-04-18T11:26:22.36Z</time></trkpt><trkpt lat="33.6283128" lon="7.8612543"><ele>27.0</ele><time>2026-04-18T11:26:23.357Z</time></trkpt><trkpt lat="33.628431" lon="7.861143"><ele>27.0</ele><time>2026-04-18T11:26:24.354Z</time></trkpt><trkpt lat="33.6285466" lon="7.861023"><ele>27.0</ele><time>2026-04-18T11:26:25.369Z</time></trkpt><trkpt lat="33.6286654" lon="7.8608999"><ele>27.0</ele><time>2026-04-18T11:26:26.368Z</time></trkpt><trkpt lat="33.6287799" lon="7.8607857"><ele>27.25</ele><time>2026-04-18T11:26:27.368Z</time></trkpt><trkpt lat="33.6288952" lon="7.8606715"><ele>27.5</ele><time>2026-04-18T11:26:28.358Z</time></trkpt><trkpt lat="33.6290062" lon="7.8605581"><ele>27.75</ele><time>2026-04-18T11:26:29.359Z</time></trkpt><trkpt lat="33.6291143" lon="7.8604508"><ele>28.0</ele><time>2026-04-18T11:26:30.372Z</time></trkpt><trkpt lat="33.6292073" lon="7.8603518"><ele>28.0</ele><time>2026-04-18T11:26:31.359Z</time></trkpt><trkpt lat="33.6293067" lon="7.8602624"><ele>28.0</ele><time>2026-04-18T11:26:32.36Z</time></trkpt><trkpt lat="33.6294028" lon="7.8601702"><ele>28.0</ele><time>2026-04-18T11:26:33.366Z</time></trkpt><trkpt lat="33.6295005" lon="7.8600686"><ele>28.0</ele><time>2026-04-18T11:26:34.357Z</time></trkpt><trkpt lat="33.6296" lon="7.8599593"><ele>28.25</ele><time>2026-04-18T11:26:35.356Z</time></trkpt><trkpt lat="33.6297111" lon="7.8598512"><ele>28.5</ele><time>2026-04-18T11:26:36.375Z</time></trkpt><trkpt lat="33.6298191" lon="7.8597462"><ele>28.75</ele><time>2026-04-18T11:26:37.364Z</time></trkpt><trkpt lat="33.6299265" lon="7.85965"><ele>29.0</ele><time>2026-04-18T11:26:38.359Z</time></trkpt><trkpt lat="33.6300299" lon="7.8595528"><ele>29.0</ele><time>2026-04-18T11:26:39.352Z</time></trkpt><trkpt lat="33.6301251" lon="7.8594474"><ele>29.0</ele><time>2026-04-18T11:26:40.355Z</time></trkpt><trkpt lat="33.6302115" lon="7.8593422"><ele>29.0</ele><time>2026-04-18T11:26:41.365Z</time></trkpt><trkpt lat="33.6302958" lon="7.8592372"><ele>29.0</ele><time>2026-04-18T11:26:42.351Z</time></trkpt><trkpt lat="33.6303754" lon="7.8591265"><ele>29.4</ele><time>2026-04-18T11:26:43.361Z</time></trkpt><trkpt lat="33.6304485" lon="7.8590189"><ele>29.799999999999997</ele><time>2026-04-18T11:26:44.352Z</time></trkpt><trkpt lat="33.6305213" lon="7.8589273"><ele>30.200000000000003</ele><time>2026-04-18T11:26:45.36Z</time></trkpt><trkpt lat="33.6305879" lon="7.8588559"><ele>30.6</ele><time>2026-04-18T11:26:46.364Z</time></trkpt><trkpt lat="33.6306486" lon="7.8588048"><ele>31.0</ele><time>2026-04-18T11:26:47.356Z</time></trkpt><trkpt lat="33.6307091" lon="7.8587493"><ele>31.000000000000004</ele><time>2026-04-18T11:26:48.36Z</time></trkpt><trkpt lat="33.6307614" lon="7.8586861"><ele>31.0</ele><time>2026-04-18T11:26:49.364Z</time></trkpt><trkpt lat="33.6308102" lon="7.8586162"><ele>31.0</ele><time>2026-04-18T11:26:50.351Z</time></trkpt><trkpt lat="33.6308573" lon="7.8585536"><ele>31.0</ele><time>2026-04-18T11:26:51.349Z</time></trkpt><trkpt lat="33.6309079" lon="7.8584987"><ele>31.000000000000004</ele><time>2026-04-18T11:26:52.364Z</time></trkpt><trkpt lat="33.630968" lon="7.8584447"><ele>31.0</ele><time>2026-04-18T11:26:53.36Z</time></trkpt><trkpt lat="33.6310391" lon="7.8583831"><ele>30.8</ele><time>2026-04-18T11:26:54.352Z</time></trkpt><trkpt lat="33.6311205" lon="7.8583125"><ele>30.6</ele><time>2026-04-18T11:26:55.354Z</time></trkpt><trkpt lat="33.631205" lon="7.8582415"><ele>30.4</ele><time>2026-04-18T11:26:56.368Z</time></trkpt><trkpt lat="33.6312836" lon="7.8581765"><ele>30.2</ele><time>2026-04-18T11:26:57.355Z</time></trkpt><trkpt lat="33.6313599" lon="7.8581198"><ele>30.0</ele><time>2026-04-18T11:26:58.357Z</time></trkpt><trkpt lat="33.6314417" lon="7.858074"><ele>30.0</ele><time>2026-04-18T11:26:59.365Z</time></trkpt><trkpt lat="33.6315271" lon="7.8580341"><ele>30.0</ele><time>2026-04-18T11:27:00.354Z</time></trkpt><trkpt lat="33.6315975" lon="7.8579974"><ele>30.0</ele><time>2026-04-18T11:27:01.356Z</time></trkpt><trkpt lat="33.6316661" lon="7.8579569"><ele>30.0</ele><time>2026-04-18T11:27:02.355Z</time></trkpt><trkpt lat="33.6317334" lon="7.8579057"><ele>30.0</ele><time>2026-04-18T11:27:03.355Z</time></trkpt><trkpt lat="33.6318085" lon="7.8578399"><ele>30.0</ele><time>2026-04-18T11:27:04.364Z</time></trkpt><trkpt lat="33.6318934" lon="7.8577485"><ele>30.0</ele><time>2026-04-18T11:27:05.358Z</time></trkpt><trkpt lat="33.631974" lon="7.8576546"><ele>30.0</ele><time>2026-04-18T11:27:06.355Z</time></trkpt><trkpt lat="33.6320485" lon="7.8575561"><ele>30.0</ele><time>2026-04-18T11:27:07.356Z</time></trkpt><trkpt lat="33.6321265" lon="7.8574494"><ele>30.0</ele><time>2026-04-18T11:27:08.372Z</time></trkpt><trkpt lat="33.632211" lon="7.8573478"><ele>29.5</ele><time>2026-04-18T11:27:09.365Z</time></trkpt><trkpt lat="33.6322893" lon="7.8572603"><ele>29.0</ele><time>2026-04-18T11:27:10.35Z</time></trkpt><trkpt lat="33.6323754" lon="7.8571754"><ele>28.5</ele><time>2026-04-18T11:27:11.355Z</time></trkpt><trkpt lat="33.6324577" lon="7.8570834"><ele>28.0</ele><time>2026-04-18T11:27:12.366Z</time></trkpt><trkpt lat="33.6325469" lon="7.856986"><ele>28.0</ele><time>2026-04-18T11:27:13.365Z</time></trkpt><trkpt lat="33.6326434" lon="7.8568939"><ele>28.0</ele><time>2026-04-18T11:27:14.354Z</time></trkpt><trkpt lat="33.632737" lon="7.8568006"><ele>28.0</ele><time>2026-04-18T11:27:15.357Z</time></trkpt><trkpt lat="33.6328315" lon="7.8567006"><ele>28.0</ele><time>2026-04-18T11:27:16.352Z</time></trkpt><trkpt lat="33.6329296" lon="7.8566004"><ele>28.0</ele><time>2026-04-18T11:27:17.361Z</time></trkpt><trkpt lat="33.6330276" lon="7.8565003"><ele>28.0</ele><time>2026-04-18T11:27:18.36Z</time></trkpt><trkpt lat="33.6331316" lon="7.8563972"><ele>28.0</ele><time>2026-04-18T11:27:19.366Z</time></trkpt><trkpt lat="33.6332352" lon="7.8562933"><ele>28.0</ele><time>2026-04-18T11:27:20.36Z</time></trkpt><trkpt lat="33.6333427" lon="7.8561911"><ele>28.0</ele><time>2026-04-18T11:27:21.366Z</time></trkpt><trkpt lat="33.6334488" lon="7.8560873"><ele>28.0</ele><time>2026-04-18T11:27:22.362Z</time></trkpt><trkpt lat="33.6335529" lon="7.8559849"><ele>28.0</ele><time>2026-04-18T11:27:23.361Z</time></trkpt><trkpt lat="33.6336486" lon="7.8558918"><ele>28.0</ele><time>2026-04-18T11:27:24.358Z</time></trkpt><trkpt lat="33.6337439" lon="7.8557921"><ele>28.25</ele><time>2026-04-18T11:27:25.356Z</time></trkpt><trkpt lat="33.6338435" lon="7.8556884"><ele>28.5</ele><time>2026-04-18T11:27:26.369Z</time></trkpt><trkpt lat="33.6339447" lon="7.8555869"><ele>28.75</ele><time>2026-04-18T11:27:27.368Z</time></trkpt><trkpt lat="33.6340425" lon="7.8554882"><ele>29.0</ele><time>2026-04-18T11:27:28.368Z</time></trkpt><trkpt lat="33.63414" lon="7.8553879"><ele>29.0</ele><time>2026-04-18T11:27:29.367Z</time></trkpt><trkpt lat="33.6342473" lon="7.8552814"><ele>29.0</ele><time>2026-04-18T11:27:30.353Z</time></trkpt><trkpt lat="33.6343531" lon="7.8551812"><ele>29.0</ele><time>2026-04-18T11:27:31.359Z</time></trkpt><trkpt lat="33.6344588" lon="7.8550789"><ele>29.0</ele><time>2026-04-18T11:27:32.353Z</time></trkpt><trkpt lat="33.6345639" lon="7.85498"><ele>28.5</ele><time>2026-04-18T11:27:33.356Z</time></trkpt><trkpt lat="33.6346669" lon="7.8548732"><ele>28.0</ele><time>2026-04-18T11:27:34.36Z</time></trkpt><trkpt lat="33.6347692" lon="7.8547592"><ele>27.5</ele><time>2026-04-18T11:27:35.355Z</time></trkpt><trkpt lat="33.634871" lon="7.8546473"><ele>27.0</ele><time>2026-04-18T11:27:36.359Z</time></trkpt><trkpt lat="33.634983" lon="7.8545327"><ele>27.0</ele><time>2026-04-18T11:27:37.359Z</time></trkpt><trkpt lat="33.6350895" lon="7.8544209"><ele>27.0</ele><time>2026-04-18T11:27:38.362Z</time></trkpt><trkpt lat="33.6352001" lon="7.8543127"><ele>27.0</ele><time>2026-04-18T11:27:39.376Z</time></trkpt><trkpt lat="33.6353068" lon="7.8542109"><ele>27.0</ele><time>2026-04-18T11:27:40.358Z</time></trkpt><trkpt lat="33.6354099" lon="7.8541136"><ele>27.0</ele><time>2026-04-18T11:27:41.37Z</time></trkpt><trkpt lat="33.6355104" lon="7.8540123"><ele>27.0</ele><time>2026-04-18T11:27:42.359Z</time></trkpt><trkpt lat="33.6356083" lon="7.8539073"><ele>27.0</ele><time>2026-04-18T11:27:43.358Z</time></trkpt><trkpt lat="33.6357079" lon="7.8538035"><ele>27.0</ele><time>2026-04-18T11:27:44.358Z</time></trkpt><trkpt lat="33.6358061" lon="7.8537017"><ele>27.0</ele><time>2026-04-18T11:27:45.354Z</time></trkpt><trkpt lat="33.6359058" lon="7.8535998"><ele>27.0</ele><time>2026-04-18T11:27:46.355Z</time></trkpt><trkpt lat="33.6360051" lon="7.8535033"><ele>27.0</ele><time>2026-04-18T11:27:47.365Z</time></trkpt><trkpt lat="33.6361014" lon="7.8534054"><ele>27.0</ele><time>2026-04-18T11:27:48.362Z</time></trkpt><trkpt lat="33.6361965" lon="7.8533025"><ele>27.0</ele><time>2026-04-18T11:27:49.368Z</time></trkpt><trkpt lat="33.6362921" lon="7.8532121"><ele>27.000000000000004</ele><time>2026-04-18T11:27:50.369Z</time></trkpt><trkpt lat="33.6363877" lon="7.8531316"><ele>27.000000000000004</ele><time>2026-04-18T11:27:51.357Z</time></trkpt><trkpt lat="33.6364808" lon="7.8530453"><ele>27.0</ele><time>2026-04-18T11:27:52.369Z</time></trkpt><trkpt lat="33.6365525" lon="7.8529781"><ele>27.0</ele><time>2026-04-18T11:27:53.371Z</time></trkpt><trkpt lat="33.6366181" lon="7.852913"><ele>27.0</ele><time>2026-04-18T11:27:54.366Z</time></trkpt><trkpt lat="33.6366933" lon="7.8528161"><ele>27.000000000000004</ele><time>2026-04-18T11:27:56.356Z</time></trkpt><trkpt lat="33.6367367" lon="7.8527184"><ele>27.000000000000004</ele><time>2026-04-18T11:27:58.354Z</time></trkpt><trkpt lat="33.6367718" lon="7.8526097"><ele>27.0</ele><time>2026-04-18T11:28:00.36Z</time></trkpt><trkpt lat="33.6368551" lon="7.8525008"><ele>27.0</ele><time>2026-04-18T11:28:02.349Z</time></trkpt><trkpt lat="33.6369195" lon="7.8524664"><ele>27.166666666666668</ele><time>2026-04-18T11:28:03.356Z</time></trkpt><trkpt lat="33.6369923" lon="7.8524458"><ele>27.333333333333336</ele><time>2026-04-18T11:28:04.357Z</time></trkpt><trkpt lat="33.6370673" lon="7.8524221"><ele>27.5</ele><time>2026-04-18T11:28:05.36Z</time></trkpt><trkpt lat="33.63714" lon="7.8523771"><ele>27.666666666666668</ele><time>2026-04-18T11:28:06.353Z</time></trkpt><trkpt lat="33.6372193" lon="7.852303"><ele>27.833333333333336</ele><time>2026-04-18T11:28:07.355Z</time></trkpt><trkpt lat="33.6373077" lon="7.852216"><ele>28.0</ele><time>2026-04-18T11:28:08.353Z</time></trkpt><trkpt lat="33.6374074" lon="7.8521177"><ele>28.0</ele><time>2026-04-18T11:28:09.359Z</time></trkpt><trkpt lat="33.637511" lon="7.8520144"><ele>28.0</ele><time>2026-04-18T11:28:10.366Z</time></trkpt><trkpt lat="33.6376143" lon="7.851909"><ele>28.0</ele><time>2026-04-18T11:28:11.357Z</time></trkpt><trkpt lat="33.6377168" lon="7.851805"><ele>28.0</ele><time>2026-04-18T11:28:12.358Z</time></trkpt><trkpt lat="33.6378203" lon="7.8516981"><ele>28.0</ele><time>2026-04-18T11:28:13.373Z</time></trkpt><trkpt lat="33.6379266" lon="7.8515917"><ele>28.0</ele><time>2026-04-18T11:28:14.369Z</time></trkpt><trkpt lat="33.6380343" lon="7.8514852"><ele>28.0</ele><time>2026-04-18T11:28:15.359Z</time></trkpt><trkpt lat="33.6381425" lon="7.8513786"><ele>28.0</ele><time>2026-04-18T11:28:16.363Z</time></trkpt><trkpt lat="33.6382502" lon="7.8512715"><ele>28.0</ele><time>2026-04-18T11:28:17.366Z</time></trkpt><trkpt lat="33.6383582" lon="7.851163"><ele>28.0</ele><time>2026-04-18T11:28:18.354Z</time></trkpt><trkpt lat="33.6384655" lon="7.8510549"><ele>28.0</ele><time>2026-04-18T11:28:19.357Z</time></trkpt><trkpt lat="33.6385717" lon="7.8509462"><ele>28.0</ele><time>2026-04-18T11:28:20.351Z</time></trkpt><trkpt lat="33.6386714" lon="7.8508412"><ele>28.0</ele><time>2026-04-18T11:28:21.363Z</time></trkpt><trkpt lat="33.6387646" lon="7.8507401"><ele>28.0</ele><time>2026-04-18T11:28:22.359Z</time></trkpt><trkpt lat="33.6388723" lon="7.8506425"><ele>28.0</ele><time>2026-04-18T11:28:23.363Z</time></trkpt><trkpt lat="33.6389673" lon="7.8505375"><ele>28.0</ele><time>2026-04-18T11:28:24.367Z</time></trkpt><trkpt lat="33.6390631" lon="7.8504379"><ele>28.0</ele><time>2026-04-18T11:28:25.362Z</time></trkpt><trkpt lat="33.6391521" lon="7.8503399"><ele>27.999999999999996</ele><time>2026-04-18T11:28:26.372Z</time></trkpt><trkpt lat="33.639235" lon="7.8502489"><ele>27.999999999999996</ele><time>2026-04-18T11:28:27.358Z</time></trkpt><trkpt lat="33.6393128" lon="7.8501654"><ele>28.0</ele><time>2026-04-18T11:28:28.366Z</time></trkpt><trkpt lat="33.6393861" lon="7.850089"><ele>28.0</ele><time>2026-04-18T11:28:29.362Z</time></trkpt><trkpt lat="33.6394582" lon="7.8500258"><ele>28.166666666666668</ele><time>2026-04-18T11:28:30.366Z</time></trkpt><trkpt lat="33.639525" lon="7.8499701"><ele>28.333333333333336</ele><time>2026-04-18T11:28:31.356Z</time></trkpt><trkpt lat="33.6395816" lon="7.8499216"><ele>28.5</ele><time>2026-04-18T11:28:32.36Z</time></trkpt><trkpt lat="33.6396625" lon="7.8498466"><ele>28.666666666666664</ele><time>2026-04-18T11:28:34.363Z</time></trkpt><trkpt lat="33.6397528" lon="7.8497643"><ele>28.833333333333332</ele><time>2026-04-18T11:28:36.354Z</time></trkpt><trkpt lat="33.6398108" lon="7.8497067"><ele>29.0</ele><time>2026-04-18T11:28:37.369Z</time></trkpt><trkpt lat="33.6398763" lon="7.8496368"><ele>29.0</ele><time>2026-04-18T11:28:38.361Z</time></trkpt><trkpt lat="33.6399474" lon="7.849553"><ele>29.0</ele><time>2026-04-18T11:28:39.352Z</time></trkpt><trkpt lat="33.6400192" lon="7.8494643"><ele>29.0</ele><time>2026-04-18T11:28:40.376Z</time></trkpt><trkpt lat="33.6400965" lon="7.8493803"><ele>29.0</ele><time>2026-04-18T11:28:41.362Z</time></trkpt><trkpt lat="33.6401842" lon="7.8492914"><ele>29.0</ele><time>2026-04-18T11:28:42.355Z</time></trkpt><trkpt lat="33.6402748" lon="7.8491957"><ele>29.0</ele><time>2026-04-18T11:28:43.357Z</time></trkpt><trkpt lat="33.6403655" lon="7.849099"><ele>29.0</ele><time>2026-04-18T11:28:44.356Z</time></trkpt><trkpt lat="33.6404581" lon="7.8490011"><ele>29.0</ele><time>2026-04-18T11:28:45.353Z</time></trkpt><trkpt lat="33.6405551" lon="7.8489052"><ele>29.0</ele><time>2026-04-18T11:28:46.364Z</time></trkpt><trkpt lat="33.6406606" lon="7.84881"><ele>29.0</ele><time>2026-04-18T11:28:47.362Z</time></trkpt><trkpt lat="33.640766" lon="7.8487087"><ele>29.0</ele><time>2026-04-18T11:28:48.353Z</time></trkpt><trkpt lat="33.6408683" lon="7.8485989"><ele>29.0</ele><time>2026-04-18T11:28:49.355Z</time></trkpt><trkpt lat="33.6409726" lon="7.8484941"><ele>29.0</ele><time>2026-04-18T11:28:50.362Z</time></trkpt><trkpt lat="33.6410776" lon="7.84839"><ele>28.75</ele><time>2026-04-18T11:28:51.353Z</time></trkpt><trkpt lat="33.6411851" lon="7.8482873"><ele>28.5</ele><time>2026-04-18T11:28:52.361Z</time></trkpt><trkpt lat="33.6412941" lon="7.8481799"><ele>28.25</ele><time>2026-04-18T11:28:53.363Z</time></trkpt><trkpt lat="33.6414036" lon="7.8480729"><ele>28.0</ele><time>2026-04-18T11:28:54.359Z</time></trkpt><trkpt lat="33.6415105" lon="7.8479716"><ele>28.0</ele><time>2026-04-18T11:28:55.361Z</time></trkpt><trkpt lat="33.6416115" lon="7.8478707"><ele>28.0</ele><time>2026-04-18T11:28:56.368Z</time></trkpt><trkpt lat="33.6417091" lon="7.8477737"><ele>28.0</ele><time>2026-04-18T11:28:57.367Z</time></trkpt><trkpt lat="33.6418073" lon="7.8476764"><ele>28.0</ele><time>2026-04-18T11:28:58.357Z</time></trkpt><trkpt lat="33.6419101" lon="7.8475708"><ele>28.0</ele><time>2026-04-18T11:28:59.363Z</time></trkpt><trkpt lat="33.6420135" lon="7.8474686"><ele>28.0</ele><time>2026-04-18T11:29:00.363Z</time></trkpt><trkpt lat="33.642119" lon="7.8473594"><ele>28.0</ele><time>2026-04-18T11:29:01.364Z</time></trkpt><trkpt lat="33.6422286" lon="7.8472486"><ele>28.0</ele><time>2026-04-18T11:29:02.376Z</time></trkpt><trkpt lat="33.6423384" lon="7.8471364"><ele>28.0</ele><time>2026-04-18T11:29:03.366Z</time></trkpt><trkpt lat="33.642449" lon="7.8470242"><ele>28.0</ele><time>2026-04-18T11:29:04.36Z</time></trkpt><trkpt lat="33.6425607" lon="7.8469115"><ele>28.0</ele><time>2026-04-18T11:29:05.359Z</time></trkpt><trkpt lat="33.6426715" lon="7.8468054"><ele>28.0</ele><time>2026-04-18T11:29:06.365Z</time></trkpt><trkpt lat="33.6427782" lon="7.8467042"><ele>28.0</ele><time>2026-04-18T11:29:07.364Z</time></trkpt><trkpt lat="33.6428883" lon="7.8465943"><ele>28.0</ele><time>2026-04-18T11:29:08.364Z</time></trkpt><trkpt lat="33.6430062" lon="7.8464793"><ele>28.0</ele><time>2026-04-18T11:29:09.355Z</time></trkpt><trkpt lat="33.6431263" lon="7.8463602"><ele>28.0</ele><time>2026-04-18T11:29:10.352Z</time></trkpt><trkpt lat="33.6432475" lon="7.8462409"><ele>28.0</ele><time>2026-04-18T11:29:11.356Z</time></trkpt><trkpt lat="33.6433683" lon="7.8461198"><ele>28.0</ele><time>2026-04-18T11:29:12.366Z</time></trkpt><trkpt lat="33.6434842" lon="7.8460023"><ele>27.75</ele><time>2026-04-18T11:29:13.36Z</time></trkpt><trkpt lat="33.6435908" lon="7.845894"><ele>27.5</ele><time>2026-04-18T11:29:14.357Z</time></trkpt><trkpt lat="33.6436888" lon="7.8458006"><ele>27.25</ele><time>2026-04-18T11:29:15.364Z</time></trkpt><trkpt lat="33.6437826" lon="7.845722"><ele>27.0</ele><time>2026-04-18T11:29:16.364Z</time></trkpt><trkpt lat="33.6438695" lon="7.8456459"><ele>27.0</ele><time>2026-04-18T11:29:17.368Z</time></trkpt><trkpt lat="33.6439496" lon="7.8455558"><ele>27.0</ele><time>2026-04-18T11:29:18.365Z</time></trkpt><trkpt lat="33.6440368" lon="7.8454542"><ele>27.0</ele><time>2026-04-18T11:29:19.369Z</time></trkpt><trkpt lat="33.6441322" lon="7.8453464"><ele>27.0</ele><time>2026-04-18T11:29:20.372Z</time></trkpt><trkpt lat="33.64423" lon="7.8452407"><ele>27.0</ele><time>2026-04-18T11:29:21.368Z</time></trkpt><trkpt lat="33.6443335" lon="7.8451369"><ele>27.0</ele><time>2026-04-18T11:29:22.37Z</time></trkpt><trkpt lat="33.6444423" lon="7.84503"><ele>27.0</ele><time>2026-04-18T11:29:23.366Z</time></trkpt><trkpt lat="33.6445501" lon="7.8449258"><ele>27.0</ele><time>2026-04-18T11:29:24.355Z</time></trkpt><trkpt lat="33.6446585" lon="7.8448204"><ele>27.0</ele><time>2026-04-18T11:29:25.358Z</time></trkpt><trkpt lat="33.6447657" lon="7.8447075"><ele>27.0</ele><time>2026-04-18T11:29:26.352Z</time></trkpt><trkpt lat="33.6448713" lon="7.8445872"><ele>27.0</ele><time>2026-04-18T11:29:27.366Z</time></trkpt><trkpt lat="33.6449851" lon="7.8444686"><ele>27.0</ele><time>2026-04-18T11:29:28.365Z</time></trkpt><trkpt lat="33.6451047" lon="7.8443531"><ele>27.0</ele><time>2026-04-18T11:29:29.354Z</time></trkpt><trkpt lat="33.6452252" lon="7.8442356"><ele>27.0</ele><time>2026-04-18T11:29:30.362Z</time></trkpt><trkpt lat="33.6453431" lon="7.8441185"><ele>27.0</ele><time>2026-04-18T11:29:31.366Z</time></trkpt><trkpt lat="33.6454566" lon="7.8440008"><ele>27.0</ele><time>2026-04-18T11:29:32.367Z</time></trkpt><trkpt lat="33.645569" lon="7.8438846"><ele>27.0</ele><time>2026-04-18T11:29:33.358Z</time></trkpt><trkpt lat="33.6456802" lon="7.8437692"><ele>27.0</ele><time>2026-04-18T11:29:34.356Z</time></trkpt><trkpt lat="33.6457917" lon="7.843655"><ele>27.0</ele><time>2026-04-18T11:29:35.356Z</time></trkpt><trkpt lat="33.6459046" lon="7.8435437"><ele>27.333333333333336</ele><time>2026-04-18T11:29:36.372Z</time></trkpt><trkpt lat="33.6460187" lon="7.8434263"><ele>27.666666666666668</ele><time>2026-04-18T11:29:37.363Z</time></trkpt><trkpt lat="33.6461332" lon="7.8433052"><ele>28.0</ele><time>2026-04-18T11:29:38.356Z</time></trkpt><trkpt lat="33.6462471" lon="7.8431862"><ele>27.25</ele><time>2026-04-18T11:29:39.361Z</time></trkpt><trkpt lat="33.6463651" lon="7.8430702"><ele>26.5</ele><time>2026-04-18T11:29:40.363Z</time></trkpt><trkpt lat="33.6464802" lon="7.8429605"><ele>25.75</ele><time>2026-04-18T11:29:41.36Z</time></trkpt><trkpt lat="33.6465946" lon="7.8428529"><ele>25.0</ele><time>2026-04-18T11:29:42.354Z</time></trkpt><trkpt lat="33.6467079" lon="7.8427446"><ele>25.0</ele><time>2026-04-18T11:29:43.37Z</time></trkpt><trkpt lat="33.6468192" lon="7.8426344"><ele>25.0</ele><time>2026-04-18T11:29:44.355Z</time></trkpt><trkpt lat="33.6469312" lon="7.8425197"><ele>25.0</ele><time>2026-04-18T11:29:45.356Z</time></trkpt><trkpt lat="33.647041" lon="7.8424074"><ele>25.0</ele><time>2026-04-18T11:29:46.357Z</time></trkpt><trkpt lat="33.6471505" lon="7.8422975"><ele>26.0</ele><time>2026-04-18T11:29:47.357Z</time></trkpt><trkpt lat="33.6472634" lon="7.8421946"><ele>27.0</ele><time>2026-04-18T11:29:48.368Z</time></trkpt><trkpt lat="33.6473702" lon="7.8420799"><ele>28.0</ele><time>2026-04-18T11:29:49.37Z</time></trkpt><trkpt lat="33.6474772" lon="7.8419763"><ele>29.0</ele><time>2026-04-18T11:29:50.364Z</time></trkpt><trkpt lat="33.6475778" lon="7.8418765"><ele>29.0</ele><time>2026-04-18T11:29:51.36Z</time></trkpt><trkpt lat="33.6476754" lon="7.8417836"><ele>29.0</ele><time>2026-04-18T11:29:52.356Z</time></trkpt><trkpt lat="33.6477627" lon="7.8417028"><ele>29.0</ele><time>2026-04-18T11:29:53.357Z</time></trkpt><trkpt lat="33.6478407" lon="7.8416365"><ele>29.0</ele><time>2026-04-18T11:29:54.363Z</time></trkpt><trkpt lat="33.6479081" lon="7.8415792"><ele>29.0</ele><time>2026-04-18T11:29:55.355Z</time></trkpt><trkpt lat="33.6479791" lon="7.8415082"><ele>29.25</ele><time>2026-04-18T11:29:56.363Z</time></trkpt><trkpt lat="33.6480546" lon="7.8414215"><ele>29.5</ele><time>2026-04-18T11:29:57.359Z</time></trkpt><trkpt lat="33.6481323" lon="7.8413229"><ele>29.75</ele><time>2026-04-18T11:29:58.366Z</time></trkpt><trkpt lat="33.6482209" lon="7.8412174"><ele>30.0</ele><time>2026-04-18T11:29:59.362Z</time></trkpt><trkpt lat="33.6483189" lon="7.841112"><ele>30.0</ele><time>2026-04-18T11:30:00.353Z</time></trkpt><trkpt lat="33.6484314" lon="7.8410048"><ele>30.0</ele><time>2026-04-18T11:30:01.367Z</time></trkpt><trkpt lat="33.6485441" lon="7.8408976"><ele>30.0</ele><time>2026-04-18T11:30:02.363Z</time></trkpt><trkpt lat="33.6486621" lon="7.8407889"><ele>30.0</ele><time>2026-04-18T11:30:03.365Z</time></trkpt><trkpt lat="33.6487822" lon="7.8406721"><ele>29.333333333333336</ele><time>2026-04-18T11:30:04.368Z</time></trkpt><trkpt lat="33.6489026" lon="7.8405576"><ele>28.666666666666668</ele><time>2026-04-18T11:30:05.355Z</time></trkpt><trkpt lat="33.6490206" lon="7.8404354"><ele>28.0</ele><time>2026-04-18T11:30:06.352Z</time></trkpt><trkpt lat="33.6491432" lon="7.8403172"><ele>28.0</ele><time>2026-04-18T11:30:07.36Z</time></trkpt><trkpt lat="33.6492554" lon="7.840202"><ele>28.0</ele><time>2026-04-18T11:30:08.368Z</time></trkpt><trkpt lat="33.6493681" lon="7.8400883"><ele>28.0</ele><time>2026-04-18T11:30:09.36Z</time></trkpt><trkpt lat="33.6494822" lon="7.8399753"><ele>28.0</ele><time>2026-04-18T11:30:10.359Z</time></trkpt><trkpt lat="33.6495994" lon="7.839855"><ele>27.666666666666668</ele><time>2026-04-18T11:30:11.367Z</time></trkpt><trkpt lat="33.6497212" lon="7.8397309"><ele>27.333333333333336</ele><time>2026-04-18T11:30:12.361Z</time></trkpt><trkpt lat="33.6498441" lon="7.839607"><ele>27.0</ele><time>2026-04-18T11:30:13.367Z</time></trkpt><trkpt lat="33.6499655" lon="7.8394774"><ele>27.0</ele><time>2026-04-18T11:30:14.36Z</time></trkpt><trkpt lat="33.6500873" lon="7.8393484"><ele>27.0</ele><time>2026-04-18T11:30:15.365Z</time></trkpt><trkpt lat="33.6502101" lon="7.8392257"><ele>27.0</ele><time>2026-04-18T11:30:16.36Z</time></trkpt><trkpt lat="33.6503325" lon="7.8391041"><ele>26.5</ele><time>2026-04-18T11:30:17.37Z</time></trkpt><trkpt lat="33.6504469" lon="7.8389869"><ele>26.0</ele><time>2026-04-18T11:30:18.363Z</time></trkpt><trkpt lat="33.6505534" lon="7.8388734"><ele>25.5</ele><time>2026-04-18T11:30:19.365Z</time></trkpt><trkpt lat="33.6506564" lon="7.8387673"><ele>25.0</ele><time>2026-04-18T11:30:20.355Z</time></trkpt><trkpt lat="33.6507594" lon="7.8386601"><ele>25.0</ele><time>2026-04-18T11:30:21.358Z</time></trkpt><trkpt lat="33.6508684" lon="7.8385501"><ele>25.0</ele><time>2026-04-18T11:30:22.361Z</time></trkpt><trkpt lat="33.6509821" lon="7.838435"><ele>25.0</ele><time>2026-04-18T11:30:23.355Z</time></trkpt><trkpt lat="33.6510966" lon="7.838312"><ele>25.0</ele><time>2026-04-18T11:30:24.359Z</time></trkpt><trkpt lat="33.651214" lon="7.8381849"><ele>25.333333333333336</ele><time>2026-04-18T11:30:25.366Z</time></trkpt><trkpt lat="33.6513343" lon="7.8380593"><ele>25.666666666666664</ele><time>2026-04-18T11:30:26.364Z</time></trkpt><trkpt lat="33.6514539" lon="7.837936"><ele>26.0</ele><time>2026-04-18T11:30:27.361Z</time></trkpt><trkpt lat="33.6515744" lon="7.8378179"><ele>26.0</ele><time>2026-04-18T11:30:28.362Z</time></trkpt><trkpt lat="33.6516954" lon="7.8376954"><ele>26.0</ele><time>2026-04-18T11:30:29.357Z</time></trkpt><trkpt lat="33.6518102" lon="7.837581"><ele>26.0</ele><time>2026-04-18T11:30:30.368Z</time></trkpt><trkpt lat="33.651926" lon="7.8374622"><ele>26.25</ele><time>2026-04-18T11:30:31.353Z</time></trkpt><trkpt lat="33.6520415" lon="7.837348"><ele>26.5</ele><time>2026-04-18T11:30:32.357Z</time></trkpt><trkpt lat="33.652151" lon="7.8372386"><ele>26.75</ele><time>2026-04-18T11:30:33.363Z</time></trkpt><trkpt lat="33.6522625" lon="7.8371257"><ele>27.0</ele><time>2026-04-18T11:30:34.354Z</time></trkpt><trkpt lat="33.6523764" lon="7.8370084"><ele>27.0</ele><time>2026-04-18T11:30:35.36Z</time></trkpt><trkpt lat="33.6524828" lon="7.8368954"><ele>27.0</ele><time>2026-04-18T11:30:36.356Z</time></trkpt><trkpt lat="33.6525859" lon="7.8367875"><ele>27.0</ele><time>2026-04-18T11:30:37.356Z</time></trkpt><trkpt lat="33.6526882" lon="7.836687"><ele>27.0</ele><time>2026-04-18T11:30:38.361Z</time></trkpt><trkpt lat="33.6527867" lon="7.8365898"><ele>27.0</ele><time>2026-04-18T11:30:39.358Z</time></trkpt><trkpt lat="33.6528776" lon="7.8364966"><ele>27.0</ele><time>2026-04-18T11:30:40.366Z</time></trkpt><trkpt lat="33.6529659" lon="7.8364144"><ele>27.0</ele><time>2026-04-18T11:30:41.365Z</time></trkpt><trkpt lat="33.6530554" lon="7.8363191"><ele>27.0</ele><time>2026-04-18T11:30:42.362Z</time></trkpt><trkpt lat="33.6531489" lon="7.8362246"><ele>27.0</ele><time>2026-04-18T11:30:43.363Z</time></trkpt><trkpt lat="33.6532443" lon="7.836127"><ele>27.0</ele><time>2026-04-18T11:30:44.356Z</time></trkpt><trkpt lat="33.6533467" lon="7.8360277"><ele>27.0</ele><time>2026-04-18T11:30:45.367Z</time></trkpt><trkpt lat="33.6534552" lon="7.8359262"><ele>27.0</ele><time>2026-04-18T11:30:46.369Z</time></trkpt><trkpt lat="33.6535648" lon="7.8358205"><ele>26.666666666666664</ele><time>2026-04-18T11:30:47.352Z</time></trkpt><trkpt lat="33.6536755" lon="7.8357032"><ele>26.333333333333332</ele><time>2026-04-18T11:30:48.361Z</time></trkpt><trkpt lat="33.6537865" lon="7.8355823"><ele>26.0</ele><time>2026-04-18T11:30:49.353Z</time></trkpt><trkpt lat="33.6539011" lon="7.8354592"><ele>26.0</ele><time>2026-04-18T11:30:50.358Z</time></trkpt><trkpt lat="33.6540152" lon="7.8353411"><ele>26.0</ele><time>2026-04-18T11:30:51.358Z</time></trkpt><trkpt lat="33.6541299" lon="7.8352239"><ele>26.0</ele><time>2026-04-18T11:30:52.365Z</time></trkpt><trkpt lat="33.6542436" lon="7.8351068"><ele>26.5</ele><time>2026-04-18T11:30:53.353Z</time></trkpt><trkpt lat="33.6543554" lon="7.8349917"><ele>27.0</ele><time>2026-04-18T11:30:54.364Z</time></trkpt><trkpt lat="33.6544682" lon="7.8348793"><ele>27.5</ele><time>2026-04-18T11:30:55.372Z</time></trkpt><trkpt lat="33.6545842" lon="7.8347631"><ele>28.0</ele><time>2026-04-18T11:30:56.353Z</time></trkpt><trkpt lat="33.6547016" lon="7.8346468"><ele>28.0</ele><time>2026-04-18T11:30:57.362Z</time></trkpt><trkpt lat="33.6548175" lon="7.8345296"><ele>28.0</ele><time>2026-04-18T11:30:58.351Z</time></trkpt><trkpt lat="33.6549355" lon="7.8344079"><ele>28.0</ele><time>2026-04-18T11:30:59.355Z</time></trkpt><trkpt lat="33.6550535" lon="7.8342848"><ele>28.0</ele><time>2026-04-18T11:31:00.358Z</time></trkpt><trkpt lat="33.655172" lon="7.8341598"><ele>28.0</ele><time>2026-04-18T11:31:01.36Z</time></trkpt><trkpt lat="33.6552908" lon="7.834034"><ele>28.0</ele><time>2026-04-18T11:31:02.354Z</time></trkpt><trkpt lat="33.6554095" lon="7.83391"><ele>27.666666666666668</ele><time>2026-04-18T11:31:03.366Z</time></trkpt><trkpt lat="33.6555262" lon="7.8337909"><ele>27.333333333333336</ele><time>2026-04-18T11:31:04.365Z</time></trkpt><trkpt lat="33.6556432" lon="7.8336763"><ele>27.0</ele><time>2026-04-18T11:31:05.356Z</time></trkpt><trkpt lat="33.6557589" lon="7.8335647"><ele>27.0</ele><time>2026-04-18T11:31:06.354Z</time></trkpt><trkpt lat="33.6558788" lon="7.833455"><ele>27.0</ele><time>2026-04-18T11:31:07.365Z</time></trkpt><trkpt lat="33.6559975" lon="7.8333455"><ele>27.0</ele><time>2026-04-18T11:31:08.364Z</time></trkpt><trkpt lat="33.6561124" lon="7.8332281"><ele>26.75</ele><time>2026-04-18T11:31:09.361Z</time></trkpt><trkpt lat="33.6562221" lon="7.8331076"><ele>26.5</ele><time>2026-04-18T11:31:10.366Z</time></trkpt><trkpt lat="33.6563274" lon="7.8329873"><ele>26.25</ele><time>2026-04-18T11:31:11.361Z</time></trkpt><trkpt lat="33.6564349" lon="7.8328676"><ele>26.0</ele><time>2026-04-18T11:31:12.358Z</time></trkpt><trkpt lat="33.6565429" lon="7.8327567"><ele>26.0</ele><time>2026-04-18T11:31:13.36Z</time></trkpt><trkpt lat="33.6566432" lon="7.8326587"><ele>26.0</ele><time>2026-04-18T11:31:14.369Z</time></trkpt><trkpt lat="33.6567403" lon="7.8325657"><ele>26.0</ele><time>2026-04-18T11:31:15.376Z</time></trkpt><trkpt lat="33.6568347" lon="7.8324781"><ele>26.0</ele><time>2026-04-18T11:31:16.363Z</time></trkpt><trkpt lat="33.6569204" lon="7.8323901"><ele>26.5</ele><time>2026-04-18T11:31:17.368Z</time></trkpt><trkpt lat="33.6570143" lon="7.8322884"><ele>27.0</ele><time>2026-04-18T11:31:18.362Z</time></trkpt><trkpt lat="33.6571197" lon="7.8321766"><ele>27.5</ele><time>2026-04-18T11:31:19.355Z</time></trkpt><trkpt lat="33.6572371" lon="7.8320582"><ele>28.0</ele><time>2026-04-18T11:31:20.362Z</time></trkpt><trkpt lat="33.6573642" lon="7.8319298"><ele>27.666666666666668</ele><time>2026-04-18T11:31:21.368Z</time></trkpt><trkpt lat="33.657492" lon="7.8317969"><ele>27.333333333333336</ele><time>2026-04-18T11:31:22.353Z</time></trkpt><trkpt lat="33.65762" lon="7.8316644"><ele>27.0</ele><time>2026-04-18T11:31:23.355Z</time></trkpt><trkpt lat="33.6577472" lon="7.8315343"><ele>27.333333333333336</ele><time>2026-04-18T11:31:24.353Z</time></trkpt><trkpt lat="33.6578747" lon="7.8314022"><ele>27.666666666666668</ele><time>2026-04-18T11:31:25.358Z</time></trkpt><trkpt lat="33.6580046" lon="7.8312673"><ele>28.0</ele><time>2026-04-18T11:31:26.367Z</time></trkpt><trkpt lat="33.6581388" lon="7.8311406"><ele>28.0</ele><time>2026-04-18T11:31:27.372Z</time></trkpt><trkpt lat="33.6582736" lon="7.8310067"><ele>28.0</ele><time>2026-04-18T11:31:28.356Z</time></trkpt><trkpt lat="33.6584076" lon="7.830871"><ele>28.0</ele><time>2026-04-18T11:31:29.364Z</time></trkpt><trkpt lat="33.6585385" lon="7.8307324"><ele>27.0</ele><time>2026-04-18T11:31:30.359Z</time></trkpt><trkpt lat="33.6586698" lon="7.8305962"><ele>26.0</ele><time>2026-04-18T11:31:31.351Z</time></trkpt><trkpt lat="33.6587976" lon="7.8304616"><ele>25.0</ele><time>2026-04-18T11:31:32.36Z</time></trkpt><trkpt lat="33.6589272" lon="7.8303283"><ele>25.0</ele><time>2026-04-18T11:31:33.355Z</time></trkpt><trkpt lat="33.6590564" lon="7.8301943"><ele>25.0</ele><time>2026-04-18T11:31:34.361Z</time></trkpt><trkpt lat="33.6591845" lon="7.8300623"><ele>25.0</ele><time>2026-04-18T11:31:35.354Z</time></trkpt><trkpt lat="33.6593157" lon="7.8299322"><ele>25.333333333333336</ele><time>2026-04-18T11:31:36.361Z</time></trkpt><trkpt lat="33.6594466" lon="7.8298038"><ele>25.666666666666664</ele><time>2026-04-18T11:31:37.357Z</time></trkpt><trkpt lat="33.6595758" lon="7.8296719"><ele>26.0</ele><time>2026-04-18T11:31:38.36Z</time></trkpt><trkpt lat="33.6597052" lon="7.8295412"><ele>26.0</ele><time>2026-04-18T11:31:39.367Z</time></trkpt><trkpt lat="33.6598315" lon="7.829417"><ele>26.0</ele><time>2026-04-18T11:31:40.363Z</time></trkpt><trkpt lat="33.6599682" lon="7.8292872"><ele>26.0</ele><time>2026-04-18T11:31:41.367Z</time></trkpt><trkpt lat="33.6601021" lon="7.8291538"><ele>26.0</ele><time>2026-04-18T11:31:42.353Z</time></trkpt><trkpt lat="33.6602358" lon="7.829013"><ele>26.0</ele><time>2026-04-18T11:31:43.361Z</time></trkpt><trkpt lat="33.6603735" lon="7.8288696"><ele>26.0</ele><time>2026-04-18T11:31:44.359Z</time></trkpt><trkpt lat="33.6605102" lon="7.8287234"><ele>26.333333333333332</ele><time>2026-04-18T11:31:45.355Z</time></trkpt><trkpt lat="33.6606461" lon="7.8285819"><ele>26.666666666666664</ele><time>2026-04-18T11:31:46.351Z</time></trkpt><trkpt lat="33.6607851" lon="7.8284418"><ele>27.0</ele><time>2026-04-18T11:31:47.364Z</time></trkpt><trkpt lat="33.660924" lon="7.8283052"><ele>27.0</ele><time>2026-04-18T11:31:48.358Z</time></trkpt><trkpt lat="33.6610619" lon="7.8281678"><ele>27.0</ele><time>2026-04-18T11:31:49.35Z</time></trkpt><trkpt lat="33.6611983" lon="7.8280321"><ele>27.0</ele><time>2026-04-18T11:31:50.358Z</time></trkpt><trkpt lat="33.6613314" lon="7.8278974"><ele>27.0</ele><time>2026-04-18T11:31:51.361Z</time></trkpt><trkpt lat="33.6614624" lon="7.8277641"><ele>27.0</ele><time>2026-04-18T11:31:52.365Z</time></trkpt><trkpt lat="33.6615848" lon="7.8276387"><ele>27.0</ele><time>2026-04-18T11:31:53.363Z</time></trkpt><trkpt lat="33.6616975" lon="7.8275225"><ele>27.0</ele><time>2026-04-18T11:31:54.354Z</time></trkpt><trkpt lat="33.6618066" lon="7.8274122"><ele>27.0</ele><time>2026-04-18T11:31:55.356Z</time></trkpt><trkpt lat="33.6619134" lon="7.8273037"><ele>27.0</ele><time>2026-04-18T11:31:56.358Z</time></trkpt><trkpt lat="33.6620254" lon="7.8271835"><ele>27.0</ele><time>2026-04-18T11:31:57.363Z</time></trkpt><trkpt lat="33.6621405" lon="7.8270683"><ele>27.0</ele><time>2026-04-18T11:31:58.359Z</time></trkpt><trkpt lat="33.6622567" lon="7.8269492"><ele>27.0</ele><time>2026-04-18T11:31:59.358Z</time></trkpt><trkpt lat="33.6623742" lon="7.8268305"><ele>27.0</ele><time>2026-04-18T11:32:00.352Z</time></trkpt><trkpt lat="33.662495" lon="7.8267104"><ele>27.0</ele><time>2026-04-18T11:32:01.363Z</time></trkpt><trkpt lat="33.6626182" lon="7.826583"><ele>27.0</ele><time>2026-04-18T11:32:02.36Z</time></trkpt><trkpt lat="33.6627435" lon="7.8264579"><ele>27.0</ele><time>2026-04-18T11:32:03.36Z</time></trkpt><trkpt lat="33.662871" lon="7.8263318"><ele>26.666666666666664</ele><time>2026-04-18T11:32:04.354Z</time></trkpt><trkpt lat="33.6630021" lon="7.8261974"><ele>26.333333333333332</ele><time>2026-04-18T11:32:05.364Z</time></trkpt><trkpt lat="33.6631312" lon="7.8260639"><ele>26.0</ele><time>2026-04-18T11:32:06.356Z</time></trkpt><trkpt lat="33.6632616" lon="7.8259415"><ele>26.0</ele><time>2026-04-18T11:32:07.36Z</time></trkpt><trkpt lat="33.6633852" lon="7.8258233"><ele>26.0</ele><time>2026-04-18T11:32:08.356Z</time></trkpt><trkpt lat="33.6634957" lon="7.8257084"><ele>26.0</ele><time>2026-04-18T11:32:09.365Z</time></trkpt><trkpt lat="33.6636057" lon="7.8255981"><ele>26.0</ele><time>2026-04-18T11:32:10.353Z</time></trkpt><trkpt lat="33.6637231" lon="7.8254808"><ele>25.666666666666664</ele><time>2026-04-18T11:32:11.358Z</time></trkpt><trkpt lat="33.6638368" lon="7.825362"><ele>25.333333333333336</ele><time>2026-04-18T11:32:12.359Z</time></trkpt><trkpt lat="33.6639537" lon="7.8252409"><ele>25.0</ele><time>2026-04-18T11:32:13.361Z</time></trkpt><trkpt lat="33.6640733" lon="7.8251186"><ele>25.666666666666668</ele><time>2026-04-18T11:32:14.364Z</time></trkpt><trkpt lat="33.6641965" lon="7.8249952"><ele>26.333333333333336</ele><time>2026-04-18T11:32:15.36Z</time></trkpt><trkpt lat="33.6643194" lon="7.8248684"><ele>27.0</ele><time>2026-04-18T11:32:16.355Z</time></trkpt><trkpt lat="33.6644439" lon="7.8247409"><ele>27.0</ele><time>2026-04-18T11:32:17.359Z</time></trkpt><trkpt lat="33.6645673" lon="7.8246194"><ele>27.0</ele><time>2026-04-18T11:32:18.36Z</time></trkpt><trkpt lat="33.6646881" lon="7.8245006"><ele>27.0</ele><time>2026-04-18T11:32:19.359Z</time></trkpt><trkpt lat="33.6648049" lon="7.8243772"><ele>27.666666666666664</ele><time>2026-04-18T11:32:20.36Z</time></trkpt><trkpt lat="33.6649252" lon="7.8242509"><ele>28.333333333333332</ele><time>2026-04-18T11:32:21.361Z</time></trkpt><trkpt lat="33.6650459" lon="7.8241319"><ele>29.0</ele><time>2026-04-18T11:32:22.362Z</time></trkpt><trkpt lat="33.6651655" lon="7.8240169"><ele>29.0</ele><time>2026-04-18T11:32:23.361Z</time></trkpt><trkpt lat="33.6652789" lon="7.8239105"><ele>29.0</ele><time>2026-04-18T11:32:24.369Z</time></trkpt><trkpt lat="33.6653804" lon="7.823805"><ele>29.0</ele><time>2026-04-18T11:32:25.357Z</time></trkpt><trkpt lat="33.6654866" lon="7.8236922"><ele>29.0</ele><time>2026-04-18T11:32:26.362Z</time></trkpt><trkpt lat="33.6656016" lon="7.8235768"><ele>27.666666666666664</ele><time>2026-04-18T11:32:27.358Z</time></trkpt><trkpt lat="33.6657239" lon="7.8234567"><ele>26.333333333333336</ele><time>2026-04-18T11:32:28.37Z</time></trkpt><trkpt lat="33.6658467" lon="7.8233315"><ele>25.0</ele><time>2026-04-18T11:32:29.362Z</time></trkpt><trkpt lat="33.66597" lon="7.8232062"><ele>25.0</ele><time>2026-04-18T11:32:30.359Z</time></trkpt><trkpt lat="33.6661009" lon="7.8230775"><ele>25.0</ele><time>2026-04-18T11:32:31.36Z</time></trkpt><trkpt lat="33.6662236" lon="7.8229463"><ele>25.0</ele><time>2026-04-18T11:32:32.359Z</time></trkpt><trkpt lat="33.666348" lon="7.8228146"><ele>25.333333333333336</ele><time>2026-04-18T11:32:33.354Z</time></trkpt><trkpt lat="33.6664744" lon="7.8226845"><ele>25.666666666666664</ele><time>2026-04-18T11:32:34.364Z</time></trkpt><trkpt lat="33.666603" lon="7.8225584"><ele>26.0</ele><time>2026-04-18T11:32:35.364Z</time></trkpt><trkpt lat="33.666728" lon="7.8224395"><ele>26.0</ele><time>2026-04-18T11:32:36.361Z</time></trkpt><trkpt lat="33.6668455" lon="7.8223225"><ele>26.0</ele><time>2026-04-18T11:32:37.357Z</time></trkpt><trkpt lat="33.6669556" lon="7.8222079"><ele>26.0</ele><time>2026-04-18T11:32:38.355Z</time></trkpt><trkpt lat="33.6670555" lon="7.8221024"><ele>26.0</ele><time>2026-04-18T11:32:39.357Z</time></trkpt><trkpt lat="33.6671433" lon="7.8220054"><ele>26.200000000000003</ele><time>2026-04-18T11:32:40.36Z</time></trkpt><trkpt lat="33.667218" lon="7.821912"><ele>26.400000000000002</ele><time>2026-04-18T11:32:41.366Z</time></trkpt><trkpt lat="33.6672985" lon="7.8218209"><ele>26.6</ele><time>2026-04-18T11:32:42.361Z</time></trkpt><trkpt lat="33.667388" lon="7.8217404"><ele>26.8</ele><time>2026-04-18T11:32:43.357Z</time></trkpt><trkpt lat="33.6674849" lon="7.8216574"><ele>27.0</ele><time>2026-04-18T11:32:44.372Z</time></trkpt><trkpt lat="33.6675834" lon="7.8215734"><ele>27.0</ele><time>2026-04-18T11:32:45.365Z</time></trkpt><trkpt lat="33.6676829" lon="7.8214851"><ele>27.0</ele><time>2026-04-18T11:32:46.354Z</time></trkpt><trkpt lat="33.6677762" lon="7.8213979"><ele>27.0</ele><time>2026-04-18T11:32:47.355Z</time></trkpt><trkpt lat="33.6678586" lon="7.8213128"><ele>27.0</ele><time>2026-04-18T11:32:48.363Z</time></trkpt><trkpt lat="33.6679376" lon="7.821234"><ele>27.0</ele><time>2026-04-18T11:32:49.356Z</time></trkpt><trkpt lat="33.6680099" lon="7.8211573"><ele>27.000000000000004</ele><time>2026-04-18T11:32:50.357Z</time></trkpt><trkpt lat="33.6680858" lon="7.8210851"><ele>27.000000000000004</ele><time>2026-04-18T11:32:51.359Z</time></trkpt><trkpt lat="33.6681556" lon="7.8210129"><ele>27.0</ele><time>2026-04-18T11:32:52.357Z</time></trkpt><trkpt lat="33.6682239" lon="7.820946"><ele>27.0</ele><time>2026-04-18T11:32:53.351Z</time></trkpt><trkpt lat="33.6682904" lon="7.8208779"><ele>27.200000000000003</ele><time>2026-04-18T11:32:54.355Z</time></trkpt><trkpt lat="33.6683615" lon="7.8208063"><ele>27.400000000000002</ele><time>2026-04-18T11:32:55.368Z</time></trkpt><trkpt lat="33.6684357" lon="7.8207315"><ele>27.599999999999998</ele><time>2026-04-18T11:32:56.358Z</time></trkpt><trkpt lat="33.6685092" lon="7.8206571"><ele>27.799999999999997</ele><time>2026-04-18T11:32:57.357Z</time></trkpt><trkpt lat="33.6685836" lon="7.8205823"><ele>28.0</ele><time>2026-04-18T11:32:58.356Z</time></trkpt><trkpt lat="33.668657" lon="7.8205116"><ele>28.0</ele><time>2026-04-18T11:32:59.353Z</time></trkpt><trkpt lat="33.6687297" lon="7.820442"><ele>27.999999999999996</ele><time>2026-04-18T11:33:00.356Z</time></trkpt><trkpt lat="33.6687952" lon="7.8203653"><ele>27.999999999999996</ele><time>2026-04-18T11:33:01.362Z</time></trkpt><trkpt lat="33.6688612" lon="7.8202993"><ele>28.0</ele><time>2026-04-18T11:33:02.357Z</time></trkpt><trkpt lat="33.6689279" lon="7.820231"><ele>28.0</ele><time>2026-04-18T11:33:03.364Z</time></trkpt><trkpt lat="33.6690041" lon="7.8201553"><ele>28.0</ele><time>2026-04-18T11:33:04.351Z</time></trkpt><trkpt lat="33.6690813" lon="7.8200795"><ele>27.999999999999996</ele><time>2026-04-18T11:33:05.355Z</time></trkpt><trkpt lat="33.66915" lon="7.8200107"><ele>27.999999999999996</ele><time>2026-04-18T11:33:06.366Z</time></trkpt><trkpt lat="33.6692214" lon="7.8199417"><ele>28.0</ele><time>2026-04-18T11:33:07.354Z</time></trkpt><trkpt lat="33.6692962" lon="7.8198712"><ele>28.0</ele><time>2026-04-18T11:33:08.35Z</time></trkpt><trkpt lat="33.6693717" lon="7.8197964"><ele>28.000000000000004</ele><time>2026-04-18T11:33:09.352Z</time></trkpt><trkpt lat="33.669441" lon="7.819726"><ele>28.0</ele><time>2026-04-18T11:33:10.353Z</time></trkpt><trkpt lat="33.6695061" lon="7.8196552"><ele>28.0</ele><time>2026-04-18T11:33:11.364Z</time></trkpt><trkpt lat="33.6695686" lon="7.8195855"><ele>28.0</ele><time>2026-04-18T11:33:12.353Z</time></trkpt><trkpt lat="33.669633" lon="7.8195188"><ele>28.000000000000004</ele><time>2026-04-18T11:33:13.353Z</time></trkpt><trkpt lat="33.6697035" lon="7.819447"><ele>28.0</ele><time>2026-04-18T11:33:14.355Z</time></trkpt><trkpt lat="33.6697697" lon="7.8193757"><ele>28.000000000000004</ele><time>2026-04-18T11:33:15.358Z</time></trkpt><trkpt lat="33.6698322" lon="7.8193141"><ele>28.0</ele><time>2026-04-18T11:33:16.354Z</time></trkpt><trkpt lat="33.6698917" lon="7.8192546"><ele>28.0</ele><time>2026-04-18T11:33:17.362Z</time></trkpt><trkpt lat="33.6699618" lon="7.8191924"><ele>28.0</ele><time>2026-04-18T11:33:18.362Z</time></trkpt><trkpt lat="33.6700279" lon="7.8191171"><ele>28.000000000000004</ele><time>2026-04-18T11:33:19.358Z</time></trkpt><trkpt lat="33.6701026" lon="7.8190393"><ele>28.0</ele><time>2026-04-18T11:33:20.349Z</time></trkpt><trkpt lat="33.6701816" lon="7.8189652"><ele>28.0</ele><time>2026-04-18T11:33:21.357Z</time></trkpt><trkpt lat="33.6702539" lon="7.8188989"><ele>27.999999999999996</ele><time>2026-04-18T11:33:22.36Z</time></trkpt><trkpt lat="33.6703059" lon="7.8188458"><ele>27.999999999999996</ele><time>2026-04-18T11:33:23.347Z</time></trkpt><trkpt lat="33.670378" lon="7.8187701"><ele>28.0</ele><time>2026-04-18T11:33:25.355Z</time></trkpt><trkpt lat="33.6704668" lon="7.8186577"><ele>28.0</ele><time>2026-04-18T11:33:38.372Z</time></trkpt><trkpt lat="33.6705465" lon="7.8185713"><ele>27.5</ele><time>2026-04-18T11:33:40.361Z</time></trkpt><trkpt lat="33.6706476" lon="7.8184624"><ele>27.0</ele><time>2026-04-18T11:33:42.35Z</time></trkpt><trkpt lat="33.6707353" lon="7.8183808"><ele>26.5</ele><time>2026-04-18T11:33:43.357Z</time></trkpt><trkpt lat="33.670838" lon="7.8182816"><ele>26.0</ele><time>2026-04-18T11:33:44.351Z</time></trkpt><trkpt lat="33.6709419" lon="7.8181791"><ele>26.0</ele><time>2026-04-18T11:33:45.36Z</time></trkpt><trkpt lat="33.6710309" lon="7.8180876"><ele>26.0</ele><time>2026-04-18T11:33:46.352Z</time></trkpt><trkpt lat="33.6711068" lon="7.8180074"><ele>26.0</ele><time>2026-04-18T11:33:47.359Z</time></trkpt><trkpt lat="33.6711752" lon="7.8179373"><ele>26.0</ele><time>2026-04-18T11:33:48.362Z</time></trkpt><trkpt lat="33.6712538" lon="7.8178551"><ele>26.0</ele><time>2026-04-18T11:33:49.364Z</time></trkpt><trkpt lat="33.6713347" lon="7.8177658"><ele>26.200000000000003</ele><time>2026-04-18T11:33:50.358Z</time></trkpt><trkpt lat="33.6714252" lon="7.8176775"><ele>26.400000000000002</ele><time>2026-04-18T11:33:51.357Z</time></trkpt><trkpt lat="33.6715048" lon="7.8176023"><ele>26.6</ele><time>2026-04-18T11:33:52.362Z</time></trkpt><trkpt lat="33.6715823" lon="7.8175225"><ele>26.8</ele><time>2026-04-18T11:33:53.356Z</time></trkpt><trkpt lat="33.6716606" lon="7.8174385"><ele>27.0</ele><time>2026-04-18T11:33:54.37Z</time></trkpt><trkpt lat="33.6717377" lon="7.8173625"><ele>27.0</ele><time>2026-04-18T11:33:55.365Z</time></trkpt><trkpt lat="33.6718194" lon="7.8172819"><ele>27.000000000000004</ele><time>2026-04-18T11:33:56.361Z</time></trkpt><trkpt lat="33.6718976" lon="7.8172079"><ele>27.000000000000004</ele><time>2026-04-18T11:33:57.358Z</time></trkpt><trkpt lat="33.6719744" lon="7.8171279"><ele>27.0</ele><time>2026-04-18T11:33:58.357Z</time></trkpt><trkpt lat="33.6720428" lon="7.8170659"><ele>27.0</ele><time>2026-04-18T11:33:59.355Z</time></trkpt><trkpt lat="33.672116" lon="7.8169852"><ele>27.200000000000003</ele><time>2026-04-18T11:34:00.372Z</time></trkpt><trkpt lat="33.6721948" lon="7.8169087"><ele>27.400000000000002</ele><time>2026-04-18T11:34:01.356Z</time></trkpt><trkpt lat="33.6722814" lon="7.8168227"><ele>27.599999999999998</ele><time>2026-04-18T11:34:02.355Z</time></trkpt><trkpt lat="33.6723638" lon="7.8167379"><ele>27.799999999999997</ele><time>2026-04-18T11:34:03.358Z</time></trkpt><trkpt lat="33.6724501" lon="7.8166519"><ele>28.0</ele><time>2026-04-18T11:34:04.352Z</time></trkpt><trkpt lat="33.6725326" lon="7.8165666"><ele>28.0</ele><time>2026-04-18T11:34:05.356Z</time></trkpt><trkpt lat="33.6726169" lon="7.8164812"><ele>27.999999999999996</ele><time>2026-04-18T11:34:06.359Z</time></trkpt><trkpt lat="33.6727034" lon="7.8163921"><ele>27.999999999999996</ele><time>2026-04-18T11:34:07.36Z</time></trkpt><trkpt lat="33.6727855" lon="7.8163082"><ele>28.0</ele><time>2026-04-18T11:34:08.351Z</time></trkpt><trkpt lat="33.6728689" lon="7.8162275"><ele>28.0</ele><time>2026-04-18T11:34:09.351Z</time></trkpt><trkpt lat="33.6729482" lon="7.8161424"><ele>27.599999999999998</ele><time>2026-04-18T11:34:10.36Z</time></trkpt><trkpt lat="33.6730325" lon="7.8160614"><ele>27.199999999999996</ele><time>2026-04-18T11:34:11.362Z</time></trkpt><trkpt lat="33.6731172" lon="7.8159838"><ele>26.8</ele><time>2026-04-18T11:34:12.357Z</time></trkpt><trkpt lat="33.6731957" lon="7.8158995"><ele>26.4</ele><time>2026-04-18T11:34:13.357Z</time></trkpt><trkpt lat="33.6732739" lon="7.8158124"><ele>26.0</ele><time>2026-04-18T11:34:14.35Z</time></trkpt><trkpt lat="33.6733515" lon="7.8157359"><ele>26.0</ele><time>2026-04-18T11:34:15.356Z</time></trkpt><trkpt lat="33.6734305" lon="7.815653"><ele>26.0</ele><time>2026-04-18T11:34:16.357Z</time></trkpt><trkpt lat="33.6735113" lon="7.8155726"><ele>26.0</ele><time>2026-04-18T11:34:17.356Z</time></trkpt><trkpt lat="33.6735903" lon="7.8154913"><ele>26.0</ele><time>2026-04-18T11:34:18.36Z</time></trkpt><trkpt lat="33.6736758" lon="7.815408"><ele>26.0</ele><time>2026-04-18T11:34:19.363Z</time></trkpt><trkpt lat="33.6737631" lon="7.8153246"><ele>26.0</ele><time>2026-04-18T11:34:20.358Z</time></trkpt><trkpt lat="33.6738511" lon="7.8152376"><ele>26.0</ele><time>2026-04-18T11:34:21.369Z</time></trkpt><trkpt lat="33.6739425" lon="7.8151485"><ele>26.0</ele><time>2026-04-18T11:34:22.356Z</time></trkpt><trkpt lat="33.6740346" lon="7.8150561"><ele>26.0</ele><time>2026-04-18T11:34:23.35Z</time></trkpt><trkpt lat="33.6741286" lon="7.8149568"><ele>25.75</ele><time>2026-04-18T11:34:24.359Z</time></trkpt><trkpt lat="33.6742258" lon="7.814854"><ele>25.5</ele><time>2026-04-18T11:34:25.375Z</time></trkpt><trkpt lat="33.6743281" lon="7.8147473"><ele>25.25</ele><time>2026-04-18T11:34:26.363Z</time></trkpt><trkpt lat="33.6744347" lon="7.8146421"><ele>25.0</ele><time>2026-04-18T11:34:27.35Z</time></trkpt><trkpt lat="33.6745413" lon="7.8145386"><ele>25.0</ele><time>2026-04-18T11:34:28.349Z</time></trkpt><trkpt lat="33.6746434" lon="7.8144367"><ele>25.0</ele><time>2026-04-18T11:34:29.355Z</time></trkpt><trkpt lat="33.6747466" lon="7.8143357"><ele>25.0</ele><time>2026-04-18T11:34:30.357Z</time></trkpt><trkpt lat="33.6748515" lon="7.814229"><ele>25.0</ele><time>2026-04-18T11:34:31.357Z</time></trkpt><trkpt lat="33.6749577" lon="7.8141169"><ele>25.0</ele><time>2026-04-18T11:34:32.361Z</time></trkpt><trkpt lat="33.67506" lon="7.8140097"><ele>25.0</ele><time>2026-04-18T11:34:33.367Z</time></trkpt><trkpt lat="33.6751601" lon="7.8139048"><ele>25.0</ele><time>2026-04-18T11:34:34.355Z</time></trkpt><trkpt lat="33.6752679" lon="7.8137961"><ele>25.0</ele><time>2026-04-18T11:34:35.369Z</time></trkpt><trkpt lat="33.675381" lon="7.8136828"><ele>25.25</ele><time>2026-04-18T11:34:36.358Z</time></trkpt><trkpt lat="33.6754911" lon="7.8135676"><ele>25.5</ele><time>2026-04-18T11:34:37.373Z</time></trkpt><trkpt lat="33.6755996" lon="7.8134511"><ele>25.75</ele><time>2026-04-18T11:34:38.361Z</time></trkpt><trkpt lat="33.6757088" lon="7.8133379"><ele>26.0</ele><time>2026-04-18T11:34:39.358Z</time></trkpt><trkpt lat="33.6758187" lon="7.8132243"><ele>26.0</ele><time>2026-04-18T11:34:40.36Z</time></trkpt><trkpt lat="33.6759294" lon="7.8131112"><ele>26.0</ele><time>2026-04-18T11:34:41.362Z</time></trkpt><trkpt lat="33.6760389" lon="7.8129999"><ele>26.0</ele><time>2026-04-18T11:34:42.354Z</time></trkpt><trkpt lat="33.6761438" lon="7.8128925"><ele>26.0</ele><time>2026-04-18T11:34:43.352Z</time></trkpt><trkpt lat="33.6762438" lon="7.8127903"><ele>26.25</ele><time>2026-04-18T11:34:44.36Z</time></trkpt><trkpt lat="33.6763447" lon="7.8126908"><ele>26.5</ele><time>2026-04-18T11:34:45.362Z</time></trkpt><trkpt lat="33.6764463" lon="7.8125892"><ele>26.75</ele><time>2026-04-18T11:34:46.368Z</time></trkpt><trkpt lat="33.6765484" lon="7.812485"><ele>27.0</ele><time>2026-04-18T11:34:47.366Z</time></trkpt><trkpt lat="33.67665" lon="7.8123818"><ele>27.0</ele><time>2026-04-18T11:34:48.372Z</time></trkpt><trkpt lat="33.676754" lon="7.8122762"><ele>27.0</ele><time>2026-04-18T11:34:49.357Z</time></trkpt><trkpt lat="33.6768552" lon="7.8121719"><ele>27.0</ele><time>2026-04-18T11:34:50.356Z</time></trkpt><trkpt lat="33.6769582" lon="7.812066"><ele>27.0</ele><time>2026-04-18T11:34:51.359Z</time></trkpt><trkpt lat="33.6770642" lon="7.8119608"><ele>27.0</ele><time>2026-04-18T11:34:52.372Z</time></trkpt><trkpt lat="33.6771699" lon="7.8118562"><ele>27.0</ele><time>2026-04-18T11:34:53.361Z</time></trkpt><trkpt lat="33.677271" lon="7.8117542"><ele>27.0</ele><time>2026-04-18T11:34:54.366Z</time></trkpt><trkpt lat="33.6773688" lon="7.8116568"><ele>27.0</ele><time>2026-04-18T11:34:55.359Z</time></trkpt><trkpt lat="33.6774676" lon="7.811563"><ele>27.0</ele><time>2026-04-18T11:34:56.37Z</time></trkpt><trkpt lat="33.6775642" lon="7.811464"><ele>27.0</ele><time>2026-04-18T11:34:57.359Z</time></trkpt><trkpt lat="33.6776625" lon="7.8113573"><ele>27.0</ele><time>2026-04-18T11:34:58.354Z</time></trkpt><trkpt lat="33.6777601" lon="7.8112488"><ele>27.0</ele><time>2026-04-18T11:34:59.36Z</time></trkpt><trkpt lat="33.6778654" lon="7.8111469"><ele>26.75</ele><time>2026-04-18T11:35:00.366Z</time></trkpt><trkpt lat="33.6779715" lon="7.8110497"><ele>26.5</ele><time>2026-04-18T11:35:01.354Z</time></trkpt><trkpt lat="33.6780796" lon="7.8109465"><ele>26.25</ele><time>2026-04-18T11:35:02.359Z</time></trkpt><trkpt lat="33.6781931" lon="7.8108346"><ele>26.0</ele><time>2026-04-18T11:35:03.355Z</time></trkpt><trkpt lat="33.6783071" lon="7.8107204"><ele>26.0</ele><time>2026-04-18T11:35:04.361Z</time></trkpt><trkpt lat="33.6784206" lon="7.8105997"><ele>26.0</ele><time>2026-04-18T11:35:05.374Z</time></trkpt><trkpt lat="33.6785304" lon="7.8104785"><ele>26.0</ele><time>2026-04-18T11:35:06.362Z</time></trkpt><trkpt lat="33.6786417" lon="7.8103642"><ele>26.0</ele><time>2026-04-18T11:35:07.358Z</time></trkpt><trkpt lat="33.67875" lon="7.8102616"><ele>25.75</ele><time>2026-04-18T11:35:08.366Z</time></trkpt><trkpt lat="33.6788557" lon="7.8101622"><ele>25.5</ele><time>2026-04-18T11:35:09.378Z</time></trkpt><trkpt lat="33.6789599" lon="7.8100594"><ele>25.25</ele><time>2026-04-18T11:35:10.359Z</time></trkpt><trkpt lat="33.6790707" lon="7.8099494"><ele>25.0</ele><time>2026-04-18T11:35:11.358Z</time></trkpt><trkpt lat="33.6791837" lon="7.8098388"><ele>25.0</ele><time>2026-04-18T11:35:12.361Z</time></trkpt><trkpt lat="33.6792973" lon="7.8097234"><ele>25.0</ele><time>2026-04-18T11:35:13.361Z</time></trkpt><trkpt lat="33.6794067" lon="7.8096048"><ele>25.0</ele><time>2026-04-18T11:35:14.371Z</time></trkpt><trkpt lat="33.679514" lon="7.8094826"><ele>25.0</ele><time>2026-04-18T11:35:15.36Z</time></trkpt><trkpt lat="33.6796207" lon="7.8093665"><ele>25.25</ele><time>2026-04-18T11:35:16.364Z</time></trkpt><trkpt lat="33.6797298" lon="7.8092579"><ele>25.5</ele><time>2026-04-18T11:35:17.371Z</time></trkpt><trkpt lat="33.6798383" lon="7.8091584"><ele>25.75</ele><time>2026-04-18T11:35:18.366Z</time></trkpt><trkpt lat="33.6799515" lon="7.8090626"><ele>26.0</ele><time>2026-04-18T11:35:19.37Z</time></trkpt><trkpt lat="33.6800633" lon="7.8089601"><ele>26.0</ele><time>2026-04-18T11:35:20.368Z</time></trkpt><trkpt lat="33.6801693" lon="7.8088516"><ele>26.0</ele><time>2026-04-18T11:35:21.354Z</time></trkpt><trkpt lat="33.6802747" lon="7.8087414"><ele>26.0</ele><time>2026-04-18T11:35:22.351Z</time></trkpt><trkpt lat="33.6803852" lon="7.8086271"><ele>26.0</ele><time>2026-04-18T11:35:23.364Z</time></trkpt><trkpt lat="33.680497" lon="7.8085132"><ele>26.0</ele><time>2026-04-18T11:35:24.354Z</time></trkpt><trkpt lat="33.6806063" lon="7.8084003"><ele>26.0</ele><time>2026-04-18T11:35:25.355Z</time></trkpt><trkpt lat="33.6807125" lon="7.8082871"><ele>26.0</ele><time>2026-04-18T11:35:26.361Z</time></trkpt><trkpt lat="33.6808116" lon="7.8081785"><ele>26.0</ele><time>2026-04-18T11:35:27.368Z</time></trkpt><trkpt lat="33.6808992" lon="7.8080829"><ele>26.0</ele><time>2026-04-18T11:35:28.351Z</time></trkpt><trkpt lat="33.6809857" lon="7.8080052"><ele>26.0</ele><time>2026-04-18T11:35:29.354Z</time></trkpt><trkpt lat="33.6810738" lon="7.807931"><ele>26.0</ele><time>2026-04-18T11:35:30.361Z</time></trkpt><trkpt lat="33.6811587" lon="7.8078458"><ele>26.0</ele><time>2026-04-18T11:35:31.358Z</time></trkpt><trkpt lat="33.681249" lon="7.8077486"><ele>26.0</ele><time>2026-04-18T11:35:32.356Z</time></trkpt><trkpt lat="33.6813466" lon="7.8076486"><ele>25.5</ele><time>2026-04-18T11:35:33.358Z</time></trkpt><trkpt lat="33.6814503" lon="7.8075451"><ele>25.0</ele><time>2026-04-18T11:35:34.356Z</time></trkpt><trkpt lat="33.6815509" lon="7.8074415"><ele>24.5</ele><time>2026-04-18T11:35:35.353Z</time></trkpt><trkpt lat="33.6816386" lon="7.8073352"><ele>24.0</ele><time>2026-04-18T11:35:36.362Z</time></trkpt><trkpt lat="33.6817213" lon="7.8072325"><ele>24.0</ele><time>2026-04-18T11:35:37.367Z</time></trkpt><trkpt lat="33.681788" lon="7.8070998"><ele>24.0</ele><time>2026-04-18T11:35:38.36Z</time></trkpt><trkpt lat="33.6818571" lon="7.8069612"><ele>24.0</ele><time>2026-04-18T11:35:39.368Z</time></trkpt><trkpt lat="33.6819412" lon="7.8068222"><ele>24.0</ele><time>2026-04-18T11:35:40.365Z</time></trkpt><trkpt lat="33.6820232" lon="7.806687"><ele>24.5</ele><time>2026-04-18T11:35:41.358Z</time></trkpt><trkpt lat="33.6821125" lon="7.8065653"><ele>25.0</ele><time>2026-04-18T11:35:42.368Z</time></trkpt><trkpt lat="33.6822157" lon="7.8064478"><ele>25.5</ele><time>2026-04-18T11:35:43.357Z</time></trkpt><trkpt lat="33.6823252" lon="7.8063369"><ele>26.0</ele><time>2026-04-18T11:35:44.361Z</time></trkpt><trkpt lat="33.6824336" lon="7.8062283"><ele>26.0</ele><time>2026-04-18T11:35:45.352Z</time></trkpt><trkpt lat="33.6825421" lon="7.8061138"><ele>26.0</ele><time>2026-04-18T11:35:46.358Z</time></trkpt><trkpt lat="33.6826512" lon="7.8059956"><ele>26.0</ele><time>2026-04-18T11:35:47.379Z</time></trkpt><trkpt lat="33.6827559" lon="7.8058834"><ele>26.0</ele><time>2026-04-18T11:35:48.358Z</time></trkpt><trkpt lat="33.6828665" lon="7.8057858"><ele>25.0</ele><time>2026-04-18T11:35:49.369Z</time></trkpt><trkpt lat="33.6829836" lon="7.805692"><ele>24.0</ele><time>2026-04-18T11:35:50.356Z</time></trkpt><trkpt lat="33.6831075" lon="7.8055973"><ele>23.0</ele><time>2026-04-18T11:35:51.368Z</time></trkpt><trkpt lat="33.6832362" lon="7.8055034"><ele>22.0</ele><time>2026-04-18T11:35:52.357Z</time></trkpt><trkpt lat="33.6833675" lon="7.8053991"><ele>22.0</ele><time>2026-04-18T11:35:53.367Z</time></trkpt><trkpt lat="33.6835022" lon="7.8052832"><ele>22.0</ele><time>2026-04-18T11:35:54.359Z</time></trkpt><trkpt lat="33.6836353" lon="7.8051619"><ele>22.0</ele><time>2026-04-18T11:35:55.353Z</time></trkpt><trkpt lat="33.6837696" lon="7.8050396"><ele>23.0</ele><time>2026-04-18T11:35:56.353Z</time></trkpt><trkpt lat="33.6839056" lon="7.8049166"><ele>24.0</ele><time>2026-04-18T11:35:57.36Z</time></trkpt><trkpt lat="33.6840388" lon="7.8047941"><ele>25.0</ele><time>2026-04-18T11:35:58.36Z</time></trkpt><trkpt lat="33.6841688" lon="7.8046744"><ele>25.0</ele><time>2026-04-18T11:35:59.365Z</time></trkpt><trkpt lat="33.684297" lon="7.804552"><ele>25.0</ele><time>2026-04-18T11:36:00.357Z</time></trkpt><trkpt lat="33.6844233" lon="7.8044312"><ele>25.0</ele><time>2026-04-18T11:36:01.35Z</time></trkpt><trkpt lat="33.6845512" lon="7.8043122"><ele>25.25</ele><time>2026-04-18T11:36:02.364Z</time></trkpt><trkpt lat="33.6846794" lon="7.8041972"><ele>25.5</ele><time>2026-04-18T11:36:03.362Z</time></trkpt><trkpt lat="33.6847979" lon="7.8040929"><ele>25.75</ele><time>2026-04-18T11:36:04.354Z</time></trkpt><trkpt lat="33.6849026" lon="7.8040015"><ele>26.0</ele><time>2026-04-18T11:36:05.357Z</time></trkpt><trkpt lat="33.6849916" lon="7.8039216"><ele>26.0</ele><time>2026-04-18T11:36:06.358Z</time></trkpt><trkpt lat="33.6850776" lon="7.803841"><ele>26.0</ele><time>2026-04-18T11:36:07.359Z</time></trkpt><trkpt lat="33.6851612" lon="7.8037561"><ele>26.0</ele><time>2026-04-18T11:36:08.354Z</time></trkpt><trkpt lat="33.6852344" lon="7.8036757"><ele>26.0</ele><time>2026-04-18T11:36:09.365Z</time></trkpt><trkpt lat="33.6852968" lon="7.8036067"><ele>26.0</ele><time>2026-04-18T11:36:10.363Z</time></trkpt><trkpt lat="33.6853547" lon="7.803548"><ele>26.0</ele><time>2026-04-18T11:36:11.354Z</time></trkpt><trkpt lat="33.6854102" lon="7.8035047"><ele>26.0</ele><time>2026-04-18T11:36:12.369Z</time></trkpt><trkpt lat="33.6854678" lon="7.8034674"><ele>26.0</ele><time>2026-04-18T11:36:13.35Z</time></trkpt><trkpt lat="33.6855321" lon="7.8034323"><ele>26.0</ele><time>2026-04-18T11:36:14.371Z</time></trkpt><trkpt lat="33.6855988" lon="7.8033983"><ele>26.0</ele><time>2026-04-18T11:36:15.36Z</time></trkpt><trkpt lat="33.6856676" lon="7.8033474"><ele>26.0</ele><time>2026-04-18T11:36:16.351Z</time></trkpt><trkpt lat="33.6857406" lon="7.8032823"><ele>26.0</ele><time>2026-04-18T11:36:17.365Z</time></trkpt><trkpt lat="33.6858033" lon="7.8031994"><ele>26.0</ele><time>2026-04-18T11:36:18.358Z</time></trkpt><trkpt lat="33.6858735" lon="7.8031162"><ele>26.0</ele><time>2026-04-18T11:36:19.35Z</time></trkpt><trkpt lat="33.6859486" lon="7.8030296"><ele>26.0</ele><time>2026-04-18T11:36:20.355Z</time></trkpt><trkpt lat="33.6860263" lon="7.8029429"><ele>26.0</ele><time>2026-04-18T11:36:21.353Z</time></trkpt><trkpt lat="33.6861055" lon="7.8028559"><ele>26.0</ele><time>2026-04-18T11:36:22.352Z</time></trkpt><trkpt lat="33.6861819" lon="7.8027718"><ele>26.0</ele><time>2026-04-18T11:36:23.357Z</time></trkpt><trkpt lat="33.6862563" lon="7.8026871"><ele>26.0</ele><time>2026-04-18T11:36:24.353Z</time></trkpt><trkpt lat="33.6863301" lon="7.8026085"><ele>26.0</ele><time>2026-04-18T11:36:25.366Z</time></trkpt><trkpt lat="33.686401" lon="7.8025338"><ele>26.0</ele><time>2026-04-18T11:36:26.357Z</time></trkpt><trkpt lat="33.686485" lon="7.8024533"><ele>26.0</ele><time>2026-04-18T11:36:27.358Z</time></trkpt><trkpt lat="33.6865694" lon="7.8023625"><ele>26.0</ele><time>2026-04-18T11:36:28.355Z</time></trkpt><trkpt lat="33.6866486" lon="7.8022775"><ele>26.0</ele><time>2026-04-18T11:36:29.356Z</time></trkpt><trkpt lat="33.6867333" lon="7.8021886"><ele>26.0</ele><time>2026-04-18T11:36:30.349Z</time></trkpt><trkpt lat="33.6868285" lon="7.8020879"><ele>26.0</ele><time>2026-04-18T11:36:31.361Z</time></trkpt><trkpt lat="33.6869253" lon="7.8019834"><ele>26.25</ele><time>2026-04-18T11:36:32.36Z</time></trkpt><trkpt lat="33.6870206" lon="7.8018824"><ele>26.5</ele><time>2026-04-18T11:36:33.362Z</time></trkpt><trkpt lat="33.6871206" lon="7.8017807"><ele>26.75</ele><time>2026-04-18T11:36:34.362Z</time></trkpt><trkpt lat="33.6872231" lon="7.8016786"><ele>27.0</ele><time>2026-04-18T11:36:35.355Z</time></trkpt><trkpt lat="33.6873251" lon="7.8015775"><ele>27.0</ele><time>2026-04-18T11:36:36.354Z</time></trkpt><trkpt lat="33.6874227" lon="7.8014733"><ele>27.0</ele><time>2026-04-18T11:36:37.355Z</time></trkpt><trkpt lat="33.6875256" lon="7.801368"><ele>27.0</ele><time>2026-04-18T11:36:38.353Z</time></trkpt><trkpt lat="33.6876201" lon="7.8012692"><ele>27.0</ele><time>2026-04-18T11:36:39.357Z</time></trkpt><trkpt lat="33.6877006" lon="7.801187"><ele>27.0</ele><time>2026-04-18T11:36:40.359Z</time></trkpt><trkpt lat="33.6877763" lon="7.8011138"><ele>27.000000000000004</ele><time>2026-04-18T11:36:41.372Z</time></trkpt><trkpt lat="33.6878514" lon="7.8010389"><ele>27.000000000000004</ele><time>2026-04-18T11:36:42.36Z</time></trkpt><trkpt lat="33.6879255" lon="7.8009659"><ele>27.0</ele><time>2026-04-18T11:36:43.353Z</time></trkpt><trkpt lat="33.6879984" lon="7.8008945"><ele>27.0</ele><time>2026-04-18T11:36:44.353Z</time></trkpt><trkpt lat="33.6880665" lon="7.8008202"><ele>26.5</ele><time>2026-04-18T11:36:45.354Z</time></trkpt><trkpt lat="33.6881331" lon="7.8007373"><ele>26.0</ele><time>2026-04-18T11:36:46.353Z</time></trkpt><trkpt lat="33.6881953" lon="7.8006522"><ele>25.5</ele><time>2026-04-18T11:36:47.357Z</time></trkpt><trkpt lat="33.688257" lon="7.8005752"><ele>25.0</ele><time>2026-04-18T11:36:48.366Z</time></trkpt><trkpt lat="33.688322" lon="7.8005105"><ele>24.5</ele><time>2026-04-18T11:36:49.353Z</time></trkpt><trkpt lat="33.6883843" lon="7.800454"><ele>24.0</ele><time>2026-04-18T11:36:50.356Z</time></trkpt><trkpt lat="33.6884404" lon="7.8004016"><ele>24.0</ele><time>2026-04-18T11:36:51.354Z</time></trkpt><trkpt lat="33.6885023" lon="7.8003428"><ele>24.0</ele><time>2026-04-18T11:36:52.363Z</time></trkpt><trkpt lat="33.6885714" lon="7.8002807"><ele>24.0</ele><time>2026-04-18T11:36:53.353Z</time></trkpt><trkpt lat="33.6886439" lon="7.8002"><ele>24.0</ele><time>2026-04-18T11:36:54.362Z</time></trkpt><trkpt lat="33.6887234" lon="7.8001226"><ele>24.0</ele><time>2026-04-18T11:36:55.362Z</time></trkpt><trkpt lat="33.6888086" lon="7.8000499"><ele>24.2</ele><time>2026-04-18T11:36:56.358Z</time></trkpt><trkpt lat="33.688894" lon="7.7999746"><ele>24.4</ele><time>2026-04-18T11:36:57.357Z</time></trkpt><trkpt lat="33.6889762" lon="7.7998963"><ele>24.6</ele><time>2026-04-18T11:36:58.357Z</time></trkpt><trkpt lat="33.6890484" lon="7.7998211"><ele>24.8</ele><time>2026-04-18T11:36:59.367Z</time></trkpt><trkpt lat="33.6891208" lon="7.7997444"><ele>25.0</ele><time>2026-04-18T11:37:00.351Z</time></trkpt><trkpt lat="33.6891912" lon="7.7996724"><ele>25.000000000000004</ele><time>2026-04-18T11:37:01.358Z</time></trkpt><trkpt lat="33.689253" lon="7.7996014"><ele>25.0</ele><time>2026-04-18T11:37:02.362Z</time></trkpt><trkpt lat="33.6893153" lon="7.7995301"><ele>25.0</ele><time>2026-04-18T11:37:03.355Z</time></trkpt><trkpt lat="33.6893788" lon="7.7994544"><ele>25.0</ele><time>2026-04-18T11:37:04.364Z</time></trkpt><trkpt lat="33.6894385" lon="7.7993748"><ele>25.000000000000004</ele><time>2026-04-18T11:37:05.358Z</time></trkpt><trkpt lat="33.6895033" lon="7.7992979"><ele>25.0</ele><time>2026-04-18T11:37:06.357Z</time></trkpt><trkpt lat="33.6895838" lon="7.7992176"><ele>24.75</ele><time>2026-04-18T11:37:07.363Z</time></trkpt><trkpt lat="33.6896739" lon="7.7991435"><ele>24.5</ele><time>2026-04-18T11:37:08.364Z</time></trkpt><trkpt lat="33.689767" lon="7.7990607"><ele>24.25</ele><time>2026-04-18T11:37:09.354Z</time></trkpt><trkpt lat="33.6898577" lon="7.7989732"><ele>24.0</ele><time>2026-04-18T11:37:10.349Z</time></trkpt><trkpt lat="33.6899475" lon="7.7988823"><ele>24.0</ele><time>2026-04-18T11:37:11.362Z</time></trkpt><trkpt lat="33.6900313" lon="7.7987963"><ele>24.0</ele><time>2026-04-18T11:37:12.354Z</time></trkpt><trkpt lat="33.690108" lon="7.7987172"><ele>24.0</ele><time>2026-04-18T11:37:13.367Z</time></trkpt><trkpt lat="33.6901876" lon="7.7986321"><ele>24.0</ele><time>2026-04-18T11:37:14.356Z</time></trkpt><trkpt lat="33.6902661" lon="7.7985403"><ele>24.0</ele><time>2026-04-18T11:37:15.355Z</time></trkpt><trkpt lat="33.6903493" lon="7.7984572"><ele>24.2</ele><time>2026-04-18T11:37:16.36Z</time></trkpt><trkpt lat="33.6904379" lon="7.7983744"><ele>24.4</ele><time>2026-04-18T11:37:17.364Z</time></trkpt><trkpt lat="33.6905278" lon="7.798292"><ele>24.6</ele><time>2026-04-18T11:37:18.359Z</time></trkpt><trkpt lat="33.6906113" lon="7.7981982"><ele>24.8</ele><time>2026-04-18T11:37:19.361Z</time></trkpt><trkpt lat="33.6906916" lon="7.7981081"><ele>25.0</ele><time>2026-04-18T11:37:20.359Z</time></trkpt><trkpt lat="33.6907769" lon="7.7980169"><ele>25.0</ele><time>2026-04-18T11:37:21.353Z</time></trkpt><trkpt lat="33.6908602" lon="7.7979352"><ele>25.0</ele><time>2026-04-18T11:37:22.36Z</time></trkpt><trkpt lat="33.6909487" lon="7.7978495"><ele>25.0</ele><time>2026-04-18T11:37:23.361Z</time></trkpt><trkpt lat="33.6910305" lon="7.7977638"><ele>25.0</ele><time>2026-04-18T11:37:24.361Z</time></trkpt><trkpt lat="33.6911064" lon="7.7976816"><ele>25.0</ele><time>2026-04-18T11:37:25.368Z</time></trkpt><trkpt lat="33.6911853" lon="7.797595"><ele>25.5</ele><time>2026-04-18T11:37:26.359Z</time></trkpt><trkpt lat="33.6912706" lon="7.7974957"><ele>26.0</ele><time>2026-04-18T11:37:27.355Z</time></trkpt><trkpt lat="33.6913568" lon="7.7974"><ele>26.5</ele><time>2026-04-18T11:37:28.361Z</time></trkpt><trkpt lat="33.691447" lon="7.797303"><ele>27.0</ele><time>2026-04-18T11:37:29.353Z</time></trkpt><trkpt lat="33.6915375" lon="7.797209"><ele>27.0</ele><time>2026-04-18T11:37:30.357Z</time></trkpt><trkpt lat="33.6916301" lon="7.7971206"><ele>27.0</ele><time>2026-04-18T11:37:31.359Z</time></trkpt><trkpt lat="33.6917241" lon="7.797034"><ele>27.0</ele><time>2026-04-18T11:37:32.363Z</time></trkpt><trkpt lat="33.6918181" lon="7.796943"><ele>27.0</ele><time>2026-04-18T11:37:33.378Z</time></trkpt><trkpt lat="33.6919116" lon="7.7968481"><ele>26.75</ele><time>2026-04-18T11:37:34.366Z</time></trkpt><trkpt lat="33.6920063" lon="7.7967485"><ele>26.5</ele><time>2026-04-18T11:37:35.356Z</time></trkpt><trkpt lat="33.6920992" lon="7.796646"><ele>26.25</ele><time>2026-04-18T11:37:36.357Z</time></trkpt><trkpt lat="33.6921971" lon="7.7965478"><ele>26.0</ele><time>2026-04-18T11:37:37.359Z</time></trkpt><trkpt lat="33.6922966" lon="7.7964493"><ele>26.0</ele><time>2026-04-18T11:37:38.356Z</time></trkpt><trkpt lat="33.6923942" lon="7.7963445"><ele>26.0</ele><time>2026-04-18T11:37:39.362Z</time></trkpt><trkpt lat="33.6924923" lon="7.7962369"><ele>26.0</ele><time>2026-04-18T11:37:40.352Z</time></trkpt><trkpt lat="33.6925935" lon="7.7961317"><ele>26.0</ele><time>2026-04-18T11:37:41.363Z</time></trkpt><trkpt lat="33.6926953" lon="7.7960308"><ele>26.5</ele><time>2026-04-18T11:37:42.367Z</time></trkpt><trkpt lat="33.6927917" lon="7.7959343"><ele>27.0</ele><time>2026-04-18T11:37:43.357Z</time></trkpt><trkpt lat="33.6928864" lon="7.7958396"><ele>27.5</ele><time>2026-04-18T11:37:44.35Z</time></trkpt><trkpt lat="33.6929828" lon="7.7957493"><ele>28.0</ele><time>2026-04-18T11:37:45.362Z</time></trkpt><trkpt lat="33.6930679" lon="7.7956628"><ele>28.0</ele><time>2026-04-18T11:37:46.359Z</time></trkpt><trkpt lat="33.6931479" lon="7.7955735"><ele>28.0</ele><time>2026-04-18T11:37:47.357Z</time></trkpt><trkpt lat="33.6932364" lon="7.7954743"><ele>28.0</ele><time>2026-04-18T11:37:48.359Z</time></trkpt><trkpt lat="33.6933301" lon="7.7953804"><ele>28.0</ele><time>2026-04-18T11:37:49.361Z</time></trkpt><trkpt lat="33.6934272" lon="7.795284"><ele>28.0</ele><time>2026-04-18T11:37:50.353Z</time></trkpt><trkpt lat="33.6935236" lon="7.7951832"><ele>28.0</ele><time>2026-04-18T11:37:51.366Z</time></trkpt><trkpt lat="33.6936208" lon="7.7950806"><ele>28.0</ele><time>2026-04-18T11:37:52.357Z</time></trkpt><trkpt lat="33.6937173" lon="7.7949794"><ele>28.0</ele><time>2026-04-18T11:37:53.351Z</time></trkpt><trkpt lat="33.6938113" lon="7.794882"><ele>27.5</ele><time>2026-04-18T11:37:54.358Z</time></trkpt><trkpt lat="33.6939061" lon="7.7947845"><ele>27.0</ele><time>2026-04-18T11:37:55.357Z</time></trkpt><trkpt lat="33.6940031" lon="7.7946839"><ele>26.5</ele><time>2026-04-18T11:37:56.35Z</time></trkpt><trkpt lat="33.6940978" lon="7.7945834"><ele>26.0</ele><time>2026-04-18T11:37:57.363Z</time></trkpt><trkpt lat="33.694191" lon="7.7944889"><ele>26.0</ele><time>2026-04-18T11:37:58.354Z</time></trkpt><trkpt lat="33.6942877" lon="7.7943908"><ele>26.0</ele><time>2026-04-18T11:37:59.364Z</time></trkpt><trkpt lat="33.6943844" lon="7.7942889"><ele>26.0</ele><time>2026-04-18T11:38:00.359Z</time></trkpt><trkpt lat="33.6944809" lon="7.7941879"><ele>26.0</ele><time>2026-04-18T11:38:01.355Z</time></trkpt><trkpt lat="33.6945805" lon="7.7940801"><ele>26.0</ele><time>2026-04-18T11:38:02.359Z</time></trkpt><trkpt lat="33.6946818" lon="7.7939709"><ele>26.0</ele><time>2026-04-18T11:38:03.365Z</time></trkpt><trkpt lat="33.6947873" lon="7.7938638"><ele>26.0</ele><time>2026-04-18T11:38:04.358Z</time></trkpt><trkpt lat="33.6948949" lon="7.7937586"><ele>26.0</ele><time>2026-04-18T11:38:05.359Z</time></trkpt><trkpt lat="33.6950017" lon="7.7936508"><ele>26.0</ele><time>2026-04-18T11:38:06.363Z</time></trkpt><trkpt lat="33.6951057" lon="7.7935399"><ele>26.0</ele><time>2026-04-18T11:38:07.361Z</time></trkpt><trkpt lat="33.6952096" lon="7.7934292"><ele>26.0</ele><time>2026-04-18T11:38:08.351Z</time></trkpt><trkpt lat="33.6953104" lon="7.7933284"><ele>26.0</ele><time>2026-04-18T11:38:09.355Z</time></trkpt><trkpt lat="33.6954051" lon="7.7932347"><ele>25.8</ele><time>2026-04-18T11:38:10.353Z</time></trkpt><trkpt lat="33.6954946" lon="7.7931532"><ele>25.6</ele><time>2026-04-18T11:38:11.354Z</time></trkpt><trkpt lat="33.6955746" lon="7.793082"><ele>25.4</ele><time>2026-04-18T11:38:12.364Z</time></trkpt><trkpt lat="33.6956473" lon="7.793004"><ele>25.2</ele><time>2026-04-18T11:38:13.359Z</time></trkpt><trkpt lat="33.6957184" lon="7.7929256"><ele>25.0</ele><time>2026-04-18T11:38:14.36Z</time></trkpt><trkpt lat="33.6957839" lon="7.7928335"><ele>25.0</ele><time>2026-04-18T11:38:15.359Z</time></trkpt><trkpt lat="33.695865" lon="7.792744"><ele>25.0</ele><time>2026-04-18T11:38:16.355Z</time></trkpt><trkpt lat="33.6959542" lon="7.7926645"><ele>25.0</ele><time>2026-04-18T11:38:17.359Z</time></trkpt><trkpt lat="33.6960432" lon="7.7925831"><ele>25.0</ele><time>2026-04-18T11:38:18.364Z</time></trkpt><trkpt lat="33.6961354" lon="7.7924847"><ele>25.75</ele><time>2026-04-18T11:38:19.365Z</time></trkpt><trkpt lat="33.696229" lon="7.7923849"><ele>26.5</ele><time>2026-04-18T11:38:20.364Z</time></trkpt><trkpt lat="33.6963261" lon="7.7922852"><ele>27.25</ele><time>2026-04-18T11:38:21.355Z</time></trkpt><trkpt lat="33.6964265" lon="7.7921804"><ele>28.0</ele><time>2026-04-18T11:38:22.357Z</time></trkpt><trkpt lat="33.6965306" lon="7.7920696"><ele>28.0</ele><time>2026-04-18T11:38:23.356Z</time></trkpt><trkpt lat="33.6966331" lon="7.7919671"><ele>28.0</ele><time>2026-04-18T11:38:24.35Z</time></trkpt><trkpt lat="33.6967311" lon="7.7918671"><ele>28.0</ele><time>2026-04-18T11:38:25.358Z</time></trkpt><trkpt lat="33.6968253" lon="7.7917697"><ele>28.0</ele><time>2026-04-18T11:38:26.365Z</time></trkpt><trkpt lat="33.6969163" lon="7.7916715"><ele>27.5</ele><time>2026-04-18T11:38:27.356Z</time></trkpt><trkpt lat="33.6970081" lon="7.791573"><ele>27.0</ele><time>2026-04-18T11:38:28.36Z</time></trkpt><trkpt lat="33.6971017" lon="7.7914758"><ele>26.5</ele><time>2026-04-18T11:38:29.369Z</time></trkpt><trkpt lat="33.6972005" lon="7.7913735"><ele>26.0</ele><time>2026-04-18T11:38:30.36Z</time></trkpt><trkpt lat="33.697302" lon="7.7912697"><ele>26.0</ele><time>2026-04-18T11:38:31.364Z</time></trkpt><trkpt lat="33.6974048" lon="7.7911636"><ele>26.0</ele><time>2026-04-18T11:38:32.359Z</time></trkpt><trkpt lat="33.6975077" lon="7.7910575"><ele>26.0</ele><time>2026-04-18T11:38:33.355Z</time></trkpt><trkpt lat="33.6976085" lon="7.7909537"><ele>26.0</ele><time>2026-04-18T11:38:34.362Z</time></trkpt><trkpt lat="33.6977107" lon="7.7908471"><ele>26.25</ele><time>2026-04-18T11:38:35.353Z</time></trkpt><trkpt lat="33.6978129" lon="7.7907411"><ele>26.5</ele><time>2026-04-18T11:38:36.362Z</time></trkpt><trkpt lat="33.6979093" lon="7.7906395"><ele>26.75</ele><time>2026-04-18T11:38:37.372Z</time></trkpt><trkpt lat="33.6979905" lon="7.7905518"><ele>27.0</ele><time>2026-04-18T11:38:38.365Z</time></trkpt><trkpt lat="33.6980619" lon="7.7904784"><ele>27.0</ele><time>2026-04-18T11:38:39.354Z</time></trkpt><trkpt lat="33.6981364" lon="7.7903981"><ele>27.0</ele><time>2026-04-18T11:38:40.357Z</time></trkpt><trkpt lat="33.6982199" lon="7.7903071"><ele>27.0</ele><time>2026-04-18T11:38:41.351Z</time></trkpt><trkpt lat="33.698311" lon="7.7902107"><ele>27.0</ele><time>2026-04-18T11:38:42.353Z</time></trkpt><trkpt lat="33.6983985" lon="7.7901188"><ele>27.25</ele><time>2026-04-18T11:38:43.356Z</time></trkpt><trkpt lat="33.6984867" lon="7.7900279"><ele>27.5</ele><time>2026-04-18T11:38:44.359Z</time></trkpt><trkpt lat="33.6985813" lon="7.7899328"><ele>27.75</ele><time>2026-04-18T11:38:45.361Z</time></trkpt><trkpt lat="33.6986778" lon="7.7898358"><ele>28.0</ele><time>2026-04-18T11:38:46.377Z</time></trkpt><trkpt lat="33.6987789" lon="7.7897331"><ele>28.0</ele><time>2026-04-18T11:38:47.362Z</time></trkpt><trkpt lat="33.6988806" lon="7.7896279"><ele>28.0</ele><time>2026-04-18T11:38:48.365Z</time></trkpt><trkpt lat="33.6989786" lon="7.7895264"><ele>28.0</ele><time>2026-04-18T11:38:49.37Z</time></trkpt><trkpt lat="33.6990817" lon="7.7894199"><ele>28.0</ele><time>2026-04-18T11:38:50.358Z</time></trkpt><trkpt lat="33.6991861" lon="7.7893129"><ele>27.5</ele><time>2026-04-18T11:38:51.35Z</time></trkpt><trkpt lat="33.6992909" lon="7.7892044"><ele>27.0</ele><time>2026-04-18T11:38:52.36Z</time></trkpt><trkpt lat="33.699397" lon="7.7890938"><ele>26.5</ele><time>2026-04-18T11:38:53.354Z</time></trkpt><trkpt lat="33.6995038" lon="7.7889844"><ele>26.0</ele><time>2026-04-18T11:38:54.358Z</time></trkpt><trkpt lat="33.6996085" lon="7.7888767"><ele>26.0</ele><time>2026-04-18T11:38:55.349Z</time></trkpt><trkpt lat="33.6997144" lon="7.7887653"><ele>26.0</ele><time>2026-04-18T11:38:56.35Z</time></trkpt><trkpt lat="33.6998182" lon="7.788657"><ele>26.0</ele><time>2026-04-18T11:38:57.36Z</time></trkpt><trkpt lat="33.6999298" lon="7.7885437"><ele>26.0</ele><time>2026-04-18T11:38:58.361Z</time></trkpt><trkpt lat="33.7000404" lon="7.7884285"><ele>26.25</ele><time>2026-04-18T11:38:59.364Z</time></trkpt><trkpt lat="33.7001489" lon="7.7883154"><ele>26.5</ele><time>2026-04-18T11:39:00.358Z</time></trkpt><trkpt lat="33.7002611" lon="7.7881996"><ele>26.75</ele><time>2026-04-18T11:39:01.359Z</time></trkpt><trkpt lat="33.700374" lon="7.7880844"><ele>27.0</ele><time>2026-04-18T11:39:02.356Z</time></trkpt><trkpt lat="33.7004833" lon="7.7879753"><ele>26.75</ele><time>2026-04-18T11:39:03.356Z</time></trkpt><trkpt lat="33.7005903" lon="7.7878706"><ele>26.5</ele><time>2026-04-18T11:39:04.363Z</time></trkpt><trkpt lat="33.7006925" lon="7.7877667"><ele>26.25</ele><time>2026-04-18T11:39:05.36Z</time></trkpt><trkpt lat="33.7007953" lon="7.7876655"><ele>26.0</ele><time>2026-04-18T11:39:06.356Z</time></trkpt><trkpt lat="33.7008902" lon="7.7875665"><ele>26.0</ele><time>2026-04-18T11:39:07.36Z</time></trkpt><trkpt lat="33.7009815" lon="7.787461"><ele>26.0</ele><time>2026-04-18T11:39:08.354Z</time></trkpt><trkpt lat="33.7010811" lon="7.7873505"><ele>26.0</ele><time>2026-04-18T11:39:09.368Z</time></trkpt><trkpt lat="33.7011805" lon="7.787251"><ele>26.0</ele><time>2026-04-18T11:39:10.353Z</time></trkpt><trkpt lat="33.7012722" lon="7.787163"><ele>26.0</ele><time>2026-04-18T11:39:11.362Z</time></trkpt><trkpt lat="33.7013586" lon="7.7870779"><ele>26.0</ele><time>2026-04-18T11:39:12.357Z</time></trkpt><trkpt lat="33.7014331" lon="7.7869927"><ele>26.0</ele><time>2026-04-18T11:39:13.359Z</time></trkpt><trkpt lat="33.7015029" lon="7.7869153"><ele>26.0</ele><time>2026-04-18T11:39:14.358Z</time></trkpt><trkpt lat="33.7015721" lon="7.7868423"><ele>26.0</ele><time>2026-04-18T11:39:15.368Z</time></trkpt><trkpt lat="33.7016546" lon="7.786769"><ele>25.75</ele><time>2026-04-18T11:39:16.361Z</time></trkpt><trkpt lat="33.7017455" lon="7.7866876"><ele>25.5</ele><time>2026-04-18T11:39:17.355Z</time></trkpt><trkpt lat="33.70184" lon="7.7865946"><ele>25.25</ele><time>2026-04-18T11:39:18.358Z</time></trkpt><trkpt lat="33.7019289" lon="7.7864955"><ele>25.0</ele><time>2026-04-18T11:39:19.356Z</time></trkpt><trkpt lat="33.7020042" lon="7.7864108"><ele>25.6</ele><time>2026-04-18T11:39:20.357Z</time></trkpt><trkpt lat="33.7020721" lon="7.786331"><ele>26.2</ele><time>2026-04-18T11:39:21.361Z</time></trkpt><trkpt lat="33.702142" lon="7.7862541"><ele>26.799999999999997</ele><time>2026-04-18T11:39:22.358Z</time></trkpt><trkpt lat="33.7022093" lon="7.7861786"><ele>27.4</ele><time>2026-04-18T11:39:23.354Z</time></trkpt><trkpt lat="33.7022793" lon="7.7861134"><ele>28.0</ele><time>2026-04-18T11:39:24.358Z</time></trkpt><trkpt lat="33.7023569" lon="7.7860368"><ele>27.25</ele><time>2026-04-18T11:39:25.358Z</time></trkpt><trkpt lat="33.7024448" lon="7.7859493"><ele>26.5</ele><time>2026-04-18T11:39:26.354Z</time></trkpt><trkpt lat="33.7025396" lon="7.7858525"><ele>25.75</ele><time>2026-04-18T11:39:27.357Z</time></trkpt><trkpt lat="33.7026314" lon="7.7857521"><ele>25.0</ele><time>2026-04-18T11:39:28.352Z</time></trkpt><trkpt lat="33.7027204" lon="7.7856539"><ele>25.0</ele><time>2026-04-18T11:39:29.36Z</time></trkpt><trkpt lat="33.7028125" lon="7.7855515"><ele>25.0</ele><time>2026-04-18T11:39:30.367Z</time></trkpt><trkpt lat="33.7029083" lon="7.785454"><ele>25.0</ele><time>2026-04-18T11:39:31.358Z</time></trkpt><trkpt lat="33.7030089" lon="7.7853591"><ele>25.0</ele><time>2026-04-18T11:39:32.35Z</time></trkpt><trkpt lat="33.7031059" lon="7.7852695"><ele>25.0</ele><time>2026-04-18T11:39:33.354Z</time></trkpt><trkpt lat="33.7031984" lon="7.7851822"><ele>25.0</ele><time>2026-04-18T11:39:34.362Z</time></trkpt><trkpt lat="33.7032892" lon="7.7850953"><ele>25.0</ele><time>2026-04-18T11:39:35.368Z</time></trkpt><trkpt lat="33.7033792" lon="7.7850099"><ele>25.0</ele><time>2026-04-18T11:39:36.358Z</time></trkpt><trkpt lat="33.7034642" lon="7.7849188"><ele>25.2</ele><time>2026-04-18T11:39:37.358Z</time></trkpt><trkpt lat="33.7035482" lon="7.7848173"><ele>25.4</ele><time>2026-04-18T11:39:38.353Z</time></trkpt><trkpt lat="33.7036297" lon="7.784724"><ele>25.6</ele><time>2026-04-18T11:39:39.356Z</time></trkpt><trkpt lat="33.7037085" lon="7.7846356"><ele>25.8</ele><time>2026-04-18T11:39:40.35Z</time></trkpt><trkpt lat="33.7037796" lon="7.7845472"><ele>26.0</ele><time>2026-04-18T11:39:41.359Z</time></trkpt><trkpt lat="33.7038463" lon="7.7844645"><ele>25.999999999999996</ele><time>2026-04-18T11:39:42.358Z</time></trkpt><trkpt lat="33.7039054" lon="7.7843946"><ele>26.0</ele><time>2026-04-18T11:39:43.357Z</time></trkpt><trkpt lat="33.7039612" lon="7.784341"><ele>26.0</ele><time>2026-04-18T11:39:44.356Z</time></trkpt><trkpt lat="33.7040171" lon="7.7842915"><ele>26.0</ele><time>2026-04-18T11:39:45.365Z</time></trkpt><trkpt lat="33.7040752" lon="7.784246"><ele>25.999999999999996</ele><time>2026-04-18T11:39:46.357Z</time></trkpt><trkpt lat="33.7041445" lon="7.7841907"><ele>26.0</ele><time>2026-04-18T11:39:47.353Z</time></trkpt><trkpt lat="33.7042113" lon="7.7841265"><ele>26.166666666666664</ele><time>2026-04-18T11:39:48.359Z</time></trkpt><trkpt lat="33.7042763" lon="7.7840604"><ele>26.333333333333332</ele><time>2026-04-18T11:39:49.361Z</time></trkpt><trkpt lat="33.7043392" lon="7.7839978"><ele>26.5</ele><time>2026-04-18T11:39:50.363Z</time></trkpt><trkpt lat="33.7043923" lon="7.7839279"><ele>26.666666666666664</ele><time>2026-04-18T11:39:51.357Z</time></trkpt><trkpt lat="33.7044524" lon="7.783857"><ele>26.833333333333332</ele><time>2026-04-18T11:39:52.352Z</time></trkpt><trkpt lat="33.7045256" lon="7.7837825"><ele>27.0</ele><time>2026-04-18T11:39:53.353Z</time></trkpt><trkpt lat="33.7046058" lon="7.7836995"><ele>27.0</ele><time>2026-04-18T11:39:54.356Z</time></trkpt><trkpt lat="33.7046962" lon="7.7836089"><ele>27.0</ele><time>2026-04-18T11:39:55.351Z</time></trkpt><trkpt lat="33.7047927" lon="7.7835148"><ele>27.0</ele><time>2026-04-18T11:39:56.36Z</time></trkpt><trkpt lat="33.7048901" lon="7.7834129"><ele>27.0</ele><time>2026-04-18T11:39:57.362Z</time></trkpt><trkpt lat="33.7049875" lon="7.783309"><ele>27.0</ele><time>2026-04-18T11:39:58.361Z</time></trkpt><trkpt lat="33.7050878" lon="7.783203"><ele>27.0</ele><time>2026-04-18T11:39:59.353Z</time></trkpt><trkpt lat="33.7051856" lon="7.7830975"><ele>27.0</ele><time>2026-04-18T11:40:00.36Z</time></trkpt><trkpt lat="33.7052871" lon="7.7829907"><ele>27.0</ele><time>2026-04-18T11:40:01.363Z</time></trkpt><trkpt lat="33.7053909" lon="7.7828829"><ele>27.0</ele><time>2026-04-18T11:40:02.366Z</time></trkpt><trkpt lat="33.7054975" lon="7.7827778"><ele>27.0</ele><time>2026-04-18T11:40:03.353Z</time></trkpt><trkpt lat="33.7056056" lon="7.782673"><ele>27.0</ele><time>2026-04-18T11:40:04.355Z</time></trkpt><trkpt lat="33.7057165" lon="7.7825606"><ele>27.0</ele><time>2026-04-18T11:40:05.354Z</time></trkpt><trkpt lat="33.705831" lon="7.7824452"><ele>27.0</ele><time>2026-04-18T11:40:06.36Z</time></trkpt><trkpt lat="33.7059493" lon="7.782328"><ele>27.0</ele><time>2026-04-18T11:40:07.357Z</time></trkpt><trkpt lat="33.7060597" lon="7.78221"><ele>27.0</ele><time>2026-04-18T11:40:08.36Z</time></trkpt><trkpt lat="33.7061753" lon="7.7820859"><ele>27.0</ele><time>2026-04-18T11:40:09.378Z</time></trkpt><trkpt lat="33.706291" lon="7.781966"><ele>27.0</ele><time>2026-04-18T11:40:10.361Z</time></trkpt><trkpt lat="33.7064115" lon="7.7818464"><ele>27.0</ele><time>2026-04-18T11:40:11.359Z</time></trkpt><trkpt lat="33.7065336" lon="7.7817274"><ele>26.333333333333336</ele><time>2026-04-18T11:40:12.35Z</time></trkpt><trkpt lat="33.7066481" lon="7.7815978"><ele>25.666666666666668</ele><time>2026-04-18T11:40:13.358Z</time></trkpt><trkpt lat="33.7067667" lon="7.781482"><ele>25.0</ele><time>2026-04-18T11:40:14.352Z</time></trkpt><trkpt lat="33.7068806" lon="7.7813691"><ele>25.0</ele><time>2026-04-18T11:40:15.359Z</time></trkpt><trkpt lat="33.7069831" lon="7.7812587"><ele>25.0</ele><time>2026-04-18T11:40:16.35Z</time></trkpt><trkpt lat="33.7070764" lon="7.7811625"><ele>25.0</ele><time>2026-04-18T11:40:17.351Z</time></trkpt><trkpt lat="33.707157" lon="7.7810783"><ele>25.0</ele><time>2026-04-18T11:40:18.357Z</time></trkpt><trkpt lat="33.707227" lon="7.7810019"><ele>25.000000000000004</ele><time>2026-04-18T11:40:19.362Z</time></trkpt><trkpt lat="33.7072925" lon="7.7809273"><ele>25.0</ele><time>2026-04-18T11:40:20.356Z</time></trkpt><trkpt lat="33.7073582" lon="7.7808528"><ele>25.0</ele><time>2026-04-18T11:40:21.35Z</time></trkpt><trkpt lat="33.7074246" lon="7.7807805"><ele>25.0</ele><time>2026-04-18T11:40:22.355Z</time></trkpt><trkpt lat="33.7074939" lon="7.7807112"><ele>25.000000000000004</ele><time>2026-04-18T11:40:23.356Z</time></trkpt><trkpt lat="33.7075612" lon="7.7806435"><ele>25.0</ele><time>2026-04-18T11:40:24.36Z</time></trkpt><trkpt lat="33.7076243" lon="7.7805761"><ele>25.0</ele><time>2026-04-18T11:40:25.353Z</time></trkpt><trkpt lat="33.7076952" lon="7.7805034"><ele>25.0</ele><time>2026-04-18T11:40:26.351Z</time></trkpt><trkpt lat="33.7077807" lon="7.7804178"><ele>25.0</ele><time>2026-04-18T11:40:27.366Z</time></trkpt><trkpt lat="33.7078747" lon="7.7803267"><ele>25.0</ele><time>2026-04-18T11:40:28.359Z</time></trkpt><trkpt lat="33.7079698" lon="7.7802321"><ele>25.0</ele><time>2026-04-18T11:40:29.372Z</time></trkpt><trkpt lat="33.7080661" lon="7.7801309"><ele>25.0</ele><time>2026-04-18T11:40:30.356Z</time></trkpt><trkpt lat="33.7081637" lon="7.7800225"><ele>25.0</ele><time>2026-04-18T11:40:31.366Z</time></trkpt><trkpt lat="33.7082673" lon="7.7799047"><ele>25.0</ele><time>2026-04-18T11:40:32.352Z</time></trkpt><trkpt lat="33.7083767" lon="7.7797879"><ele>25.0</ele><time>2026-04-18T11:40:33.369Z</time></trkpt><trkpt lat="33.7084904" lon="7.7796759"><ele>25.0</ele><time>2026-04-18T11:40:34.36Z</time></trkpt><trkpt lat="33.7086004" lon="7.7795707"><ele>25.0</ele><time>2026-04-18T11:40:35.349Z</time></trkpt><trkpt lat="33.708713" lon="7.7794599"><ele>25.0</ele><time>2026-04-18T11:40:36.356Z</time></trkpt><trkpt lat="33.7088243" lon="7.7793415"><ele>25.0</ele><time>2026-04-18T11:40:37.373Z</time></trkpt><trkpt lat="33.7089348" lon="7.7792228"><ele>24.666666666666668</ele><time>2026-04-18T11:40:38.369Z</time></trkpt><trkpt lat="33.7090515" lon="7.7790995"><ele>24.333333333333336</ele><time>2026-04-18T11:40:39.376Z</time></trkpt><trkpt lat="33.7091723" lon="7.7789757"><ele>24.0</ele><time>2026-04-18T11:40:40.378Z</time></trkpt><trkpt lat="33.7092948" lon="7.7788468"><ele>24.666666666666664</ele><time>2026-04-18T11:40:41.359Z</time></trkpt><trkpt lat="33.7094249" lon="7.7787108"><ele>25.333333333333332</ele><time>2026-04-18T11:40:42.362Z</time></trkpt><trkpt lat="33.7095579" lon="7.7785748"><ele>26.0</ele><time>2026-04-18T11:40:43.355Z</time></trkpt><trkpt lat="33.7096898" lon="7.7784341"><ele>26.0</ele><time>2026-04-18T11:40:44.354Z</time></trkpt><trkpt lat="33.7098249" lon="7.7782921"><ele>26.0</ele><time>2026-04-18T11:40:45.36Z</time></trkpt><trkpt lat="33.7099605" lon="7.778153"><ele>26.0</ele><time>2026-04-18T11:40:46.346Z</time></trkpt><trkpt lat="33.7100944" lon="7.7780164"><ele>26.0</ele><time>2026-04-18T11:40:47.355Z</time></trkpt><trkpt lat="33.7102304" lon="7.7778851"><ele>26.0</ele><time>2026-04-18T11:40:48.355Z</time></trkpt><trkpt lat="33.710356" lon="7.7777571"><ele>26.0</ele><time>2026-04-18T11:40:49.346Z</time></trkpt><trkpt lat="33.7104809" lon="7.7776325"><ele>26.0</ele><time>2026-04-18T11:40:50.361Z</time></trkpt><trkpt lat="33.7106015" lon="7.7775062"><ele>26.0</ele><time>2026-04-18T11:40:51.354Z</time></trkpt><trkpt lat="33.7107207" lon="7.7773762"><ele>26.0</ele><time>2026-04-18T11:40:52.354Z</time></trkpt><trkpt lat="33.7108382" lon="7.7772573"><ele>26.0</ele><time>2026-04-18T11:40:53.356Z</time></trkpt><trkpt lat="33.7109566" lon="7.7771348"><ele>26.0</ele><time>2026-04-18T11:40:54.36Z</time></trkpt><trkpt lat="33.7110769" lon="7.7770125"><ele>26.0</ele><time>2026-04-18T11:40:55.353Z</time></trkpt><trkpt lat="33.7111989" lon="7.7768869"><ele>26.333333333333332</ele><time>2026-04-18T11:40:56.36Z</time></trkpt><trkpt lat="33.7113195" lon="7.7767603"><ele>26.666666666666664</ele><time>2026-04-18T11:40:57.359Z</time></trkpt><trkpt lat="33.7114399" lon="7.7766374"><ele>27.0</ele><time>2026-04-18T11:40:58.357Z</time></trkpt><trkpt lat="33.7115564" lon="7.7765185"><ele>27.0</ele><time>2026-04-18T11:40:59.353Z</time></trkpt><trkpt lat="33.7116654" lon="7.7764055"><ele>27.0</ele><time>2026-04-18T11:41:00.359Z</time></trkpt><trkpt lat="33.7117738" lon="7.7762916"><ele>27.0</ele><time>2026-04-18T11:41:01.356Z</time></trkpt><trkpt lat="33.7118838" lon="7.7761776"><ele>27.0</ele><time>2026-04-18T11:41:02.35Z</time></trkpt><trkpt lat="33.7119959" lon="7.7760632"><ele>26.333333333333336</ele><time>2026-04-18T11:41:03.351Z</time></trkpt><trkpt lat="33.712112" lon="7.7759425"><ele>25.666666666666668</ele><time>2026-04-18T11:41:04.357Z</time></trkpt><trkpt lat="33.712232" lon="7.7758192"><ele>25.0</ele><time>2026-04-18T11:41:05.355Z</time></trkpt><trkpt lat="33.7123544" lon="7.7756939"><ele>25.0</ele><time>2026-04-18T11:41:06.35Z</time></trkpt><trkpt lat="33.7124774" lon="7.775566"><ele>25.0</ele><time>2026-04-18T11:41:07.354Z</time></trkpt><trkpt lat="33.7126001" lon="7.7754379"><ele>25.0</ele><time>2026-04-18T11:41:08.357Z</time></trkpt><trkpt lat="33.7127206" lon="7.7753123"><ele>25.333333333333336</ele><time>2026-04-18T11:41:09.355Z</time></trkpt><trkpt lat="33.7128387" lon="7.7751891"><ele>25.666666666666664</ele><time>2026-04-18T11:41:10.357Z</time></trkpt><trkpt lat="33.7129551" lon="7.7750682"><ele>26.0</ele><time>2026-04-18T11:41:11.357Z</time></trkpt><trkpt lat="33.7130716" lon="7.7749481"><ele>26.0</ele><time>2026-04-18T11:41:12.36Z</time></trkpt><trkpt lat="33.7131887" lon="7.7748265"><ele>26.0</ele><time>2026-04-18T11:41:13.361Z</time></trkpt><trkpt lat="33.7133042" lon="7.7747077"><ele>26.0</ele><time>2026-04-18T11:41:14.358Z</time></trkpt><trkpt lat="33.7134184" lon="7.7745911"><ele>26.0</ele><time>2026-04-18T11:41:15.354Z</time></trkpt><trkpt lat="33.7135281" lon="7.7744795"><ele>26.0</ele><time>2026-04-18T11:41:16.357Z</time></trkpt><trkpt lat="33.713628" lon="7.7743774"><ele>26.0</ele><time>2026-04-18T11:41:17.368Z</time></trkpt><trkpt lat="33.7137165" lon="7.7742868"><ele>26.0</ele><time>2026-04-18T11:41:18.359Z</time></trkpt><trkpt lat="33.7137998" lon="7.774203"><ele>26.8</ele><time>2026-04-18T11:41:19.356Z</time></trkpt><trkpt lat="33.7138839" lon="7.7741225"><ele>27.6</ele><time>2026-04-18T11:41:20.36Z</time></trkpt><trkpt lat="33.7139696" lon="7.774039"><ele>28.4</ele><time>2026-04-18T11:41:21.358Z</time></trkpt><trkpt lat="33.7140505" lon="7.7739538"><ele>29.2</ele><time>2026-04-18T11:41:22.354Z</time></trkpt><trkpt lat="33.7141335" lon="7.7738711"><ele>30.0</ele><time>2026-04-18T11:41:23.353Z</time></trkpt><trkpt lat="33.7142132" lon="7.7737958"><ele>30.0</ele><time>2026-04-18T11:41:24.363Z</time></trkpt><trkpt lat="33.7142879" lon="7.7737184"><ele>30.0</ele><time>2026-04-18T11:41:25.361Z</time></trkpt><trkpt lat="33.7143618" lon="7.7736423"><ele>30.0</ele><time>2026-04-18T11:41:26.389Z</time></trkpt><trkpt lat="33.7144374" lon="7.7735674"><ele>30.0</ele><time>2026-04-18T11:41:27.357Z</time></trkpt><trkpt lat="33.7145123" lon="7.7734755"><ele>30.0</ele><time>2026-04-18T11:41:28.362Z</time></trkpt><trkpt lat="33.7145865" lon="7.7734023"><ele>30.0</ele><time>2026-04-18T11:41:29.359Z</time></trkpt><trkpt lat="33.7146715" lon="7.7733216"><ele>30.0</ele><time>2026-04-18T11:41:30.359Z</time></trkpt><trkpt lat="33.7147527" lon="7.7732423"><ele>30.0</ele><time>2026-04-18T11:41:31.357Z</time></trkpt><trkpt lat="33.714826" lon="7.7731733"><ele>30.0</ele><time>2026-04-18T11:41:32.361Z</time></trkpt><trkpt lat="33.7148915" lon="7.7731094"><ele>30.0</ele><time>2026-04-18T11:41:33.365Z</time></trkpt><trkpt lat="33.7149489" lon="7.7730553"><ele>30.0</ele><time>2026-04-18T11:41:34.353Z</time></trkpt><trkpt lat="33.715001" lon="7.7730006"><ele>30.0</ele><time>2026-04-18T11:41:35.354Z</time></trkpt><trkpt lat="33.7150572" lon="7.7729402"><ele>30.0</ele><time>2026-04-18T11:41:36.359Z</time></trkpt><trkpt lat="33.7151161" lon="7.7728816"><ele>30.0</ele><time>2026-04-18T11:41:37.368Z</time></trkpt><trkpt lat="33.7151782" lon="7.7728193"><ele>30.0</ele><time>2026-04-18T11:41:38.367Z</time></trkpt><trkpt lat="33.7152466" lon="7.7727489"><ele>30.0</ele><time>2026-04-18T11:41:39.36Z</time></trkpt><trkpt lat="33.715318" lon="7.7726636"><ele>30.2</ele><time>2026-04-18T11:41:40.359Z</time></trkpt><trkpt lat="33.7153906" lon="7.7725739"><ele>30.4</ele><time>2026-04-18T11:41:41.364Z</time></trkpt><trkpt lat="33.7154694" lon="7.7724835"><ele>30.6</ele><time>2026-04-18T11:41:42.358Z</time></trkpt><trkpt lat="33.7155525" lon="7.7723931"><ele>30.8</ele><time>2026-04-18T11:41:43.359Z</time></trkpt><trkpt lat="33.7156368" lon="7.7723075"><ele>31.0</ele><time>2026-04-18T11:41:44.355Z</time></trkpt><trkpt lat="33.715717" lon="7.7722349"><ele>31.0</ele><time>2026-04-18T11:41:45.363Z</time></trkpt><trkpt lat="33.715786" lon="7.7721583"><ele>31.0</ele><time>2026-04-18T11:41:46.371Z</time></trkpt><trkpt lat="33.7158573" lon="7.7720859"><ele>31.0</ele><time>2026-04-18T11:41:47.357Z</time></trkpt><trkpt lat="33.7159346" lon="7.7720045"><ele>31.0</ele><time>2026-04-18T11:41:48.352Z</time></trkpt><trkpt lat="33.7160167" lon="7.7719248"><ele>31.0</ele><time>2026-04-18T11:41:49.367Z</time></trkpt><trkpt lat="33.7160991" lon="7.7718514"><ele>31.0</ele><time>2026-04-18T11:41:50.363Z</time></trkpt><trkpt lat="33.7161741" lon="7.7717817"><ele>31.0</ele><time>2026-04-18T11:41:51.358Z</time></trkpt><trkpt lat="33.7162462" lon="7.7717073"><ele>31.0</ele><time>2026-04-18T11:41:52.356Z</time></trkpt><trkpt lat="33.7163232" lon="7.7716224"><ele>31.0</ele><time>2026-04-18T11:41:53.361Z</time></trkpt><trkpt lat="33.7164102" lon="7.7715363"><ele>31.0</ele><time>2026-04-18T11:41:54.358Z</time></trkpt><trkpt lat="33.7165011" lon="7.7714579"><ele>31.0</ele><time>2026-04-18T11:41:55.367Z</time></trkpt><trkpt lat="33.7165859" lon="7.7713806"><ele>31.0</ele><time>2026-04-18T11:41:56.365Z</time></trkpt><trkpt lat="33.7166686" lon="7.7713049"><ele>31.0</ele><time>2026-04-18T11:41:57.368Z</time></trkpt><trkpt lat="33.7167522" lon="7.7712311"><ele>31.0</ele><time>2026-04-18T11:41:58.353Z</time></trkpt><trkpt lat="33.7168299" lon="7.7711578"><ele>31.0</ele><time>2026-04-18T11:41:59.358Z</time></trkpt><trkpt lat="33.7168971" lon="7.7710815"><ele>30.4</ele><time>2026-04-18T11:42:00.352Z</time></trkpt><trkpt lat="33.7169573" lon="7.7709959"><ele>29.8</ele><time>2026-04-18T11:42:01.363Z</time></trkpt><trkpt lat="33.7170218" lon="7.7708992"><ele>29.199999999999996</ele><time>2026-04-18T11:42:02.349Z</time></trkpt><trkpt lat="33.7170976" lon="7.7708027"><ele>28.599999999999998</ele><time>2026-04-18T11:42:03.352Z</time></trkpt><trkpt lat="33.7171812" lon="7.7707083"><ele>28.0</ele><time>2026-04-18T11:42:04.352Z</time></trkpt><trkpt lat="33.7172709" lon="7.7706206"><ele>28.0</ele><time>2026-04-18T11:42:05.349Z</time></trkpt><trkpt lat="33.7173617" lon="7.7705376"><ele>27.999999999999996</ele><time>2026-04-18T11:42:06.351Z</time></trkpt><trkpt lat="33.7174514" lon="7.7704562"><ele>27.999999999999996</ele><time>2026-04-18T11:42:07.346Z</time></trkpt><trkpt lat="33.7175445" lon="7.7703777"><ele>28.0</ele><time>2026-04-18T11:42:08.351Z</time></trkpt><trkpt lat="33.7176345" lon="7.7703041"><ele>28.0</ele><time>2026-04-18T11:42:09.361Z</time></trkpt><trkpt lat="33.7177124" lon="7.7702345"><ele>28.0</ele><time>2026-04-18T11:42:10.353Z</time></trkpt><trkpt lat="33.7177862" lon="7.7701519"><ele>27.999999999999996</ele><time>2026-04-18T11:42:11.354Z</time></trkpt><trkpt lat="33.7178604" lon="7.770064"><ele>27.999999999999996</ele><time>2026-04-18T11:42:12.369Z</time></trkpt><trkpt lat="33.7179249" lon="7.7699535"><ele>28.0</ele><time>2026-04-18T11:42:13.356Z</time></trkpt><trkpt lat="33.7179901" lon="7.7698329"><ele>28.0</ele><time>2026-04-18T11:42:14.354Z</time></trkpt><trkpt lat="33.7180523" lon="7.7697231"><ele>28.0</ele><time>2026-04-18T11:42:15.349Z</time></trkpt><trkpt lat="33.7181231" lon="7.7696209"><ele>28.0</ele><time>2026-04-18T11:42:16.367Z</time></trkpt><trkpt lat="33.7182" lon="7.7695238"><ele>28.0</ele><time>2026-04-18T11:42:17.358Z</time></trkpt><trkpt lat="33.7182848" lon="7.7694344"><ele>28.0</ele><time>2026-04-18T11:42:18.35Z</time></trkpt><trkpt lat="33.7183778" lon="7.7693535"><ele>28.0</ele><time>2026-04-18T11:42:19.357Z</time></trkpt><trkpt lat="33.7184652" lon="7.7692889"><ele>27.999999999999996</ele><time>2026-04-18T11:42:20.359Z</time></trkpt><trkpt lat="33.7185437" lon="7.7692353"><ele>27.999999999999996</ele><time>2026-04-18T11:42:21.353Z</time></trkpt><trkpt lat="33.7186202" lon="7.769179"><ele>28.0</ele><time>2026-04-18T11:42:22.351Z</time></trkpt><trkpt lat="33.7186938" lon="7.7691248"><ele>28.0</ele><time>2026-04-18T11:42:23.357Z</time></trkpt><trkpt lat="33.7187723" lon="7.7690668"><ele>28.0</ele><time>2026-04-18T11:42:24.357Z</time></trkpt><trkpt lat="33.7188571" lon="7.7689948"><ele>27.999999999999996</ele><time>2026-04-18T11:42:25.358Z</time></trkpt><trkpt lat="33.7189425" lon="7.7689161"><ele>27.999999999999996</ele><time>2026-04-18T11:42:26.351Z</time></trkpt><trkpt lat="33.7190261" lon="7.7688359"><ele>28.0</ele><time>2026-04-18T11:42:27.358Z</time></trkpt><trkpt lat="33.719103" lon="7.7687558"><ele>28.0</ele><time>2026-04-18T11:42:28.352Z</time></trkpt><trkpt lat="33.7191762" lon="7.7686787"><ele>28.000000000000004</ele><time>2026-04-18T11:42:29.355Z</time></trkpt><trkpt lat="33.7192454" lon="7.7686052"><ele>28.0</ele><time>2026-04-18T11:42:30.353Z</time></trkpt><trkpt lat="33.7193095" lon="7.7685363"><ele>28.0</ele><time>2026-04-18T11:42:31.354Z</time></trkpt><trkpt lat="33.7193726" lon="7.7684691"><ele>28.0</ele><time>2026-04-18T11:42:32.35Z</time></trkpt><trkpt lat="33.7194274" lon="7.7684023"><ele>28.000000000000004</ele><time>2026-04-18T11:42:33.365Z</time></trkpt><trkpt lat="33.719482" lon="7.7683446"><ele>28.0</ele><time>2026-04-18T11:42:34.349Z</time></trkpt><trkpt lat="33.719564" lon="7.7682649"><ele>28.333333333333336</ele><time>2026-04-18T11:42:36.36Z</time></trkpt><trkpt lat="33.7196268" lon="7.7682121"><ele>28.666666666666668</ele><time>2026-04-18T11:44:32.356Z</time></trkpt><trkpt lat="33.7196986" lon="7.7681549"><ele>29.0</ele><time>2026-04-18T11:44:34.358Z</time></trkpt><trkpt lat="33.7197991" lon="7.7680623"><ele>29.333333333333336</ele><time>2026-04-18T11:44:36.365Z</time></trkpt><trkpt lat="33.719857" lon="7.7679992"><ele>29.666666666666668</ele><time>2026-04-18T11:44:37.367Z</time></trkpt><trkpt lat="33.7199182" lon="7.7679347"><ele>30.0</ele><time>2026-04-18T11:44:38.356Z</time></trkpt><trkpt lat="33.7199838" lon="7.7678631"><ele>30.0</ele><time>2026-04-18T11:44:39.369Z</time></trkpt><trkpt lat="33.7200514" lon="7.7677842"><ele>30.0</ele><time>2026-04-18T11:44:40.367Z</time></trkpt><trkpt lat="33.7201242" lon="7.7677011"><ele>30.0</ele><time>2026-04-18T11:44:41.361Z</time></trkpt><trkpt lat="33.7202019" lon="7.7676188"><ele>30.0</ele><time>2026-04-18T11:44:42.369Z</time></trkpt><trkpt lat="33.7202865" lon="7.7675355"><ele>30.0</ele><time>2026-04-18T11:44:43.365Z</time></trkpt><trkpt lat="33.7203734" lon="7.7674559"><ele>28.75</ele><time>2026-04-18T11:44:44.356Z</time></trkpt><trkpt lat="33.7204651" lon="7.7673721"><ele>27.5</ele><time>2026-04-18T11:44:45.356Z</time></trkpt><trkpt lat="33.720556" lon="7.7672843"><ele>26.25</ele><time>2026-04-18T11:44:46.359Z</time></trkpt><trkpt lat="33.7206438" lon="7.7671916"><ele>25.0</ele><time>2026-04-18T11:44:47.363Z</time></trkpt><trkpt lat="33.7207283" lon="7.7670951"><ele>25.0</ele><time>2026-04-18T11:44:48.358Z</time></trkpt><trkpt lat="33.720812" lon="7.7669985"><ele>25.0</ele><time>2026-04-18T11:44:49.368Z</time></trkpt><trkpt lat="33.7208953" lon="7.7669066"><ele>25.0</ele><time>2026-04-18T11:44:50.358Z</time></trkpt><trkpt lat="33.7209761" lon="7.7668176"><ele>25.0</ele><time>2026-04-18T11:44:51.375Z</time></trkpt><trkpt lat="33.7210587" lon="7.7667366"><ele>25.0</ele><time>2026-04-18T11:44:52.356Z</time></trkpt><trkpt lat="33.7211458" lon="7.7666548"><ele>25.6</ele><time>2026-04-18T11:44:53.35Z</time></trkpt><trkpt lat="33.7212325" lon="7.7665714"><ele>26.2</ele><time>2026-04-18T11:44:54.353Z</time></trkpt><trkpt lat="33.7213161" lon="7.7664872"><ele>26.799999999999997</ele><time>2026-04-18T11:44:55.356Z</time></trkpt><trkpt lat="33.7214024" lon="7.7664004"><ele>27.4</ele><time>2026-04-18T11:44:56.364Z</time></trkpt><trkpt lat="33.7214921" lon="7.7663112"><ele>28.0</ele><time>2026-04-18T11:44:57.36Z</time></trkpt><trkpt lat="33.721584" lon="7.7662171"><ele>28.0</ele><time>2026-04-18T11:44:58.351Z</time></trkpt><trkpt lat="33.7216764" lon="7.7661207"><ele>28.0</ele><time>2026-04-18T11:44:59.36Z</time></trkpt><trkpt lat="33.721771" lon="7.7660219"><ele>28.0</ele><time>2026-04-18T11:45:00.36Z</time></trkpt><trkpt lat="33.7218665" lon="7.7659226"><ele>28.0</ele><time>2026-04-18T11:45:01.35Z</time></trkpt><trkpt lat="33.7219592" lon="7.765826"><ele>27.25</ele><time>2026-04-18T11:45:02.354Z</time></trkpt><trkpt lat="33.7220545" lon="7.7657319"><ele>26.5</ele><time>2026-04-18T11:45:03.361Z</time></trkpt><trkpt lat="33.7221534" lon="7.7656324"><ele>25.75</ele><time>2026-04-18T11:45:04.37Z</time></trkpt><trkpt lat="33.7222557" lon="7.7655277"><ele>25.0</ele><time>2026-04-18T11:45:05.362Z</time></trkpt><trkpt lat="33.7223608" lon="7.7654219"><ele>25.0</ele><time>2026-04-18T11:45:06.351Z</time></trkpt><trkpt lat="33.722466" lon="7.7653148"><ele>25.0</ele><time>2026-04-18T11:45:07.358Z</time></trkpt><trkpt lat="33.7225702" lon="7.7652088"><ele>25.0</ele><time>2026-04-18T11:45:08.349Z</time></trkpt><trkpt lat="33.7226765" lon="7.7651006"><ele>25.0</ele><time>2026-04-18T11:45:09.364Z</time></trkpt><trkpt lat="33.7227827" lon="7.7649922"><ele>24.75</ele><time>2026-04-18T11:45:10.351Z</time></trkpt><trkpt lat="33.7228861" lon="7.7648869"><ele>24.5</ele><time>2026-04-18T11:45:11.352Z</time></trkpt><trkpt lat="33.7229802" lon="7.7647895"><ele>24.25</ele><time>2026-04-18T11:45:12.354Z</time></trkpt><trkpt lat="33.7230684" lon="7.7646922"><ele>24.0</ele><time>2026-04-18T11:45:13.359Z</time></trkpt><trkpt lat="33.7231497" lon="7.7645893"><ele>24.0</ele><time>2026-04-18T11:45:14.353Z</time></trkpt><trkpt lat="33.7232409" lon="7.7644848"><ele>24.0</ele><time>2026-04-18T11:45:15.367Z</time></trkpt><trkpt lat="33.7233391" lon="7.7643981"><ele>24.0</ele><time>2026-04-18T11:45:16.353Z</time></trkpt><trkpt lat="33.723446" lon="7.764306"><ele>24.0</ele><time>2026-04-18T11:45:17.358Z</time></trkpt><trkpt lat="33.7235589" lon="7.7641961"><ele>24.75</ele><time>2026-04-18T11:45:18.352Z</time></trkpt><trkpt lat="33.7236709" lon="7.7640822"><ele>25.5</ele><time>2026-04-18T11:45:19.349Z</time></trkpt><trkpt lat="33.7237844" lon="7.7639676"><ele>26.25</ele><time>2026-04-18T11:45:20.352Z</time></trkpt><trkpt lat="33.7238978" lon="7.7638501"><ele>27.0</ele><time>2026-04-18T11:45:21.369Z</time></trkpt><trkpt lat="33.724008" lon="7.763736"><ele>27.0</ele><time>2026-04-18T11:45:22.368Z</time></trkpt><trkpt lat="33.7241206" lon="7.7636186"><ele>27.0</ele><time>2026-04-18T11:45:23.353Z</time></trkpt><trkpt lat="33.7242329" lon="7.7634994"><ele>27.0</ele><time>2026-04-18T11:45:24.355Z</time></trkpt><trkpt lat="33.7243464" lon="7.7633837"><ele>27.0</ele><time>2026-04-18T11:45:25.358Z</time></trkpt><trkpt lat="33.724459" lon="7.7632725"><ele>26.5</ele><time>2026-04-18T11:45:26.363Z</time></trkpt><trkpt lat="33.7245763" lon="7.7631579"><ele>26.0</ele><time>2026-04-18T11:45:27.36Z</time></trkpt><trkpt lat="33.7246914" lon="7.7630415"><ele>25.5</ele><time>2026-04-18T11:45:28.349Z</time></trkpt><trkpt lat="33.724801" lon="7.7629291"><ele>25.0</ele><time>2026-04-18T11:45:29.351Z</time></trkpt><trkpt lat="33.7249069" lon="7.7628196"><ele>25.0</ele><time>2026-04-18T11:45:30.359Z</time></trkpt><trkpt lat="33.725011" lon="7.7627112"><ele>25.0</ele><time>2026-04-18T11:45:31.363Z</time></trkpt><trkpt lat="33.7251154" lon="7.7626004"><ele>25.0</ele><time>2026-04-18T11:45:32.349Z</time></trkpt><trkpt lat="33.7252191" lon="7.7624883"><ele>25.0</ele><time>2026-04-18T11:45:33.354Z</time></trkpt><trkpt lat="33.7253249" lon="7.7623751"><ele>25.5</ele><time>2026-04-18T11:45:34.361Z</time></trkpt><trkpt lat="33.7254317" lon="7.7622644"><ele>26.0</ele><time>2026-04-18T11:45:35.354Z</time></trkpt><trkpt lat="33.725539" lon="7.7621558"><ele>26.5</ele><time>2026-04-18T11:45:36.352Z</time></trkpt><trkpt lat="33.7256451" lon="7.7620459"><ele>27.0</ele><time>2026-04-18T11:45:37.358Z</time></trkpt><trkpt lat="33.7257464" lon="7.7619445"><ele>26.8</ele><time>2026-04-18T11:45:38.358Z</time></trkpt><trkpt lat="33.725842" lon="7.7618523"><ele>26.6</ele><time>2026-04-18T11:45:39.355Z</time></trkpt><trkpt lat="33.7259284" lon="7.7617724"><ele>26.400000000000002</ele><time>2026-04-18T11:45:40.357Z</time></trkpt><trkpt lat="33.7260031" lon="7.7617076"><ele>26.200000000000003</ele><time>2026-04-18T11:45:41.353Z</time></trkpt><trkpt lat="33.7260781" lon="7.761646"><ele>26.0</ele><time>2026-04-18T11:45:42.357Z</time></trkpt><trkpt lat="33.7261526" lon="7.7615846"><ele>26.0</ele><time>2026-04-18T11:45:43.36Z</time></trkpt><trkpt lat="33.7262262" lon="7.7615074"><ele>26.0</ele><time>2026-04-18T11:45:44.351Z</time></trkpt><trkpt lat="33.7263059" lon="7.7614245"><ele>26.0</ele><time>2026-04-18T11:45:45.361Z</time></trkpt><trkpt lat="33.7263822" lon="7.7613357"><ele>26.0</ele><time>2026-04-18T11:45:46.354Z</time></trkpt><trkpt lat="33.7264565" lon="7.7612462"><ele>26.0</ele><time>2026-04-18T11:45:47.351Z</time></trkpt><trkpt lat="33.7265322" lon="7.7611587"><ele>26.0</ele><time>2026-04-18T11:45:48.365Z</time></trkpt><trkpt lat="33.7266105" lon="7.7610764"><ele>26.0</ele><time>2026-04-18T11:45:49.363Z</time></trkpt><trkpt lat="33.7266882" lon="7.7609996"><ele>26.0</ele><time>2026-04-18T11:45:50.35Z</time></trkpt><trkpt lat="33.726773" lon="7.7609176"><ele>26.0</ele><time>2026-04-18T11:45:51.355Z</time></trkpt><trkpt lat="33.7268576" lon="7.7608326"><ele>26.0</ele><time>2026-04-18T11:45:52.36Z</time></trkpt><trkpt lat="33.7269402" lon="7.7607455"><ele>26.0</ele><time>2026-04-18T11:45:53.352Z</time></trkpt><trkpt lat="33.727034" lon="7.7606414"><ele>26.0</ele><time>2026-04-18T11:45:54.361Z</time></trkpt><trkpt lat="33.7271321" lon="7.7605391"><ele>26.0</ele><time>2026-04-18T11:45:55.351Z</time></trkpt><trkpt lat="33.7272246" lon="7.7604459"><ele>26.0</ele><time>2026-04-18T11:45:56.357Z</time></trkpt><trkpt lat="33.7273137" lon="7.7603566"><ele>26.0</ele><time>2026-04-18T11:45:57.357Z</time></trkpt><trkpt lat="33.7273998" lon="7.7602721"><ele>26.0</ele><time>2026-04-18T11:45:58.349Z</time></trkpt><trkpt lat="33.7274895" lon="7.7601773"><ele>26.0</ele><time>2026-04-18T11:45:59.354Z</time></trkpt><trkpt lat="33.7275793" lon="7.7600833"><ele>26.0</ele><time>2026-04-18T11:46:00.358Z</time></trkpt><trkpt lat="33.7276685" lon="7.7599951"><ele>25.8</ele><time>2026-04-18T11:46:01.35Z</time></trkpt><trkpt lat="33.7277608" lon="7.7599122"><ele>25.6</ele><time>2026-04-18T11:46:02.354Z</time></trkpt><trkpt lat="33.7278475" lon="7.7598292"><ele>25.4</ele><time>2026-04-18T11:46:03.358Z</time></trkpt><trkpt lat="33.7279162" lon="7.7597531"><ele>25.2</ele><time>2026-04-18T11:46:04.356Z</time></trkpt><trkpt lat="33.7279774" lon="7.7596696"><ele>25.0</ele><time>2026-04-18T11:46:05.368Z</time></trkpt><trkpt lat="33.7280416" lon="7.7595772"><ele>25.0</ele><time>2026-04-18T11:46:06.358Z</time></trkpt><trkpt lat="33.7281116" lon="7.7594877"><ele>25.0</ele><time>2026-04-18T11:46:07.354Z</time></trkpt><trkpt lat="33.7281881" lon="7.7594001"><ele>25.0</ele><time>2026-04-18T11:46:08.357Z</time></trkpt><trkpt lat="33.7282717" lon="7.7593055"><ele>25.0</ele><time>2026-04-18T11:46:09.355Z</time></trkpt><trkpt lat="33.7283568" lon="7.7592076"><ele>25.0</ele><time>2026-04-18T11:46:10.347Z</time></trkpt><trkpt lat="33.7284365" lon="7.7591252"><ele>25.8</ele><time>2026-04-18T11:46:11.355Z</time></trkpt><trkpt lat="33.7285188" lon="7.7590608"><ele>26.6</ele><time>2026-04-18T11:46:12.367Z</time></trkpt><trkpt lat="33.7286067" lon="7.7589927"><ele>27.4</ele><time>2026-04-18T11:46:13.349Z</time></trkpt><trkpt lat="33.7286992" lon="7.7589314"><ele>28.2</ele><time>2026-04-18T11:46:14.358Z</time></trkpt><trkpt lat="33.7287829" lon="7.7588601"><ele>29.0</ele><time>2026-04-18T11:46:15.362Z</time></trkpt><trkpt lat="33.728863" lon="7.7587771"><ele>29.0</ele><time>2026-04-18T11:46:16.353Z</time></trkpt><trkpt lat="33.7289468" lon="7.7586843"><ele>29.0</ele><time>2026-04-18T11:46:17.351Z</time></trkpt><trkpt lat="33.7290367" lon="7.7585927"><ele>29.0</ele><time>2026-04-18T11:46:18.357Z</time></trkpt><trkpt lat="33.7291273" lon="7.7585019"><ele>29.0</ele><time>2026-04-18T11:46:19.348Z</time></trkpt><trkpt lat="33.729213" lon="7.7584077"><ele>28.25</ele><time>2026-04-18T11:46:20.362Z</time></trkpt><trkpt lat="33.7292973" lon="7.7583095"><ele>27.5</ele><time>2026-04-18T11:46:21.359Z</time></trkpt><trkpt lat="33.7293842" lon="7.7582176"><ele>26.75</ele><time>2026-04-18T11:46:22.366Z</time></trkpt><trkpt lat="33.7294697" lon="7.7581308"><ele>26.0</ele><time>2026-04-18T11:46:23.364Z</time></trkpt><trkpt lat="33.72956" lon="7.758043"><ele>25.75</ele><time>2026-04-18T11:46:24.354Z</time></trkpt><trkpt lat="33.7296586" lon="7.7579475"><ele>25.5</ele><time>2026-04-18T11:46:25.362Z</time></trkpt><trkpt lat="33.7297559" lon="7.7578483"><ele>25.25</ele><time>2026-04-18T11:46:26.356Z</time></trkpt><trkpt lat="33.7298581" lon="7.7577425"><ele>25.0</ele><time>2026-04-18T11:46:27.353Z</time></trkpt><trkpt lat="33.7299574" lon="7.757641"><ele>25.0</ele><time>2026-04-18T11:46:28.357Z</time></trkpt><trkpt lat="33.7300575" lon="7.7575423"><ele>25.0</ele><time>2026-04-18T11:46:29.358Z</time></trkpt><trkpt lat="33.7301578" lon="7.7574407"><ele>25.0</ele><time>2026-04-18T11:46:30.349Z</time></trkpt><trkpt lat="33.7302613" lon="7.7573357"><ele>25.0</ele><time>2026-04-18T11:46:31.37Z</time></trkpt><trkpt lat="33.7303681" lon="7.7572257"><ele>25.0</ele><time>2026-04-18T11:46:32.354Z</time></trkpt><trkpt lat="33.7304754" lon="7.7571148"><ele>25.0</ele><time>2026-04-18T11:46:33.352Z</time></trkpt><trkpt lat="33.7305821" lon="7.757004"><ele>25.0</ele><time>2026-04-18T11:46:34.353Z</time></trkpt><trkpt lat="33.7306842" lon="7.7568969"><ele>25.0</ele><time>2026-04-18T11:46:35.356Z</time></trkpt><trkpt lat="33.7307866" lon="7.7567963"><ele>25.0</ele><time>2026-04-18T11:46:36.359Z</time></trkpt><trkpt lat="33.730894" lon="7.7566909"><ele>25.0</ele><time>2026-04-18T11:46:37.36Z</time></trkpt><trkpt lat="33.7310005" lon="7.7565799"><ele>25.0</ele><time>2026-04-18T11:46:38.355Z</time></trkpt><trkpt lat="33.731108" lon="7.7564674"><ele>25.0</ele><time>2026-04-18T11:46:39.355Z</time></trkpt><trkpt lat="33.7312163" lon="7.7563537"><ele>25.0</ele><time>2026-04-18T11:46:40.353Z</time></trkpt><trkpt lat="33.731326" lon="7.7562385"><ele>25.0</ele><time>2026-04-18T11:46:41.358Z</time></trkpt><trkpt lat="33.7314322" lon="7.7561265"><ele>25.0</ele><time>2026-04-18T11:46:42.358Z</time></trkpt><trkpt lat="33.7315365" lon="7.7560166"><ele>25.0</ele><time>2026-04-18T11:46:43.355Z</time></trkpt><trkpt lat="33.7316402" lon="7.7559072"><ele>25.0</ele><time>2026-04-18T11:46:44.362Z</time></trkpt><trkpt lat="33.7317464" lon="7.7558052"><ele>25.0</ele><time>2026-04-18T11:46:45.355Z</time></trkpt><trkpt lat="33.7318557" lon="7.7557016"><ele>25.0</ele><time>2026-04-18T11:46:46.347Z</time></trkpt><trkpt lat="33.7319656" lon="7.7555923"><ele>25.0</ele><time>2026-04-18T11:46:47.357Z</time></trkpt><trkpt lat="33.7320754" lon="7.7554826"><ele>25.25</ele><time>2026-04-18T11:46:48.346Z</time></trkpt><trkpt lat="33.7321887" lon="7.7553791"><ele>25.5</ele><time>2026-04-18T11:46:49.355Z</time></trkpt><trkpt lat="33.7322969" lon="7.7552794"><ele>25.75</ele><time>2026-04-18T11:46:50.357Z</time></trkpt><trkpt lat="33.7323947" lon="7.755177"><ele>26.0</ele><time>2026-04-18T11:46:51.349Z</time></trkpt><trkpt lat="33.7324931" lon="7.7550652"><ele>26.0</ele><time>2026-04-18T11:46:52.355Z</time></trkpt><trkpt lat="33.7325973" lon="7.7549508"><ele>26.0</ele><time>2026-04-18T11:46:53.355Z</time></trkpt><trkpt lat="33.7327076" lon="7.7548339"><ele>26.0</ele><time>2026-04-18T11:46:54.353Z</time></trkpt><trkpt lat="33.732821" lon="7.7547129"><ele>26.0</ele><time>2026-04-18T11:46:55.357Z</time></trkpt><trkpt lat="33.7329354" lon="7.754591"><ele>26.0</ele><time>2026-04-18T11:46:56.352Z</time></trkpt><trkpt lat="33.7330515" lon="7.7544701"><ele>26.0</ele><time>2026-04-18T11:46:57.353Z</time></trkpt><trkpt lat="33.7331666" lon="7.7543526"><ele>26.0</ele><time>2026-04-18T11:46:58.363Z</time></trkpt><trkpt lat="33.7332843" lon="7.7542335"><ele>25.333333333333332</ele><time>2026-04-18T11:46:59.367Z</time></trkpt><trkpt lat="33.733401" lon="7.7541155"><ele>24.666666666666664</ele><time>2026-04-18T11:47:00.356Z</time></trkpt><trkpt lat="33.7335155" lon="7.7539992"><ele>24.0</ele><time>2026-04-18T11:47:01.365Z</time></trkpt><trkpt lat="33.73363" lon="7.7538837"><ele>24.0</ele><time>2026-04-18T11:47:02.361Z</time></trkpt><trkpt lat="33.7337451" lon="7.7537721"><ele>24.0</ele><time>2026-04-18T11:47:03.353Z</time></trkpt><trkpt lat="33.733859" lon="7.7536613"><ele>24.0</ele><time>2026-04-18T11:47:04.348Z</time></trkpt><trkpt lat="33.7339655" lon="7.7535522"><ele>24.0</ele><time>2026-04-18T11:47:05.354Z</time></trkpt><trkpt lat="33.7340762" lon="7.7534512"><ele>24.25</ele><time>2026-04-18T11:47:06.354Z</time></trkpt><trkpt lat="33.7341796" lon="7.7533501"><ele>24.5</ele><time>2026-04-18T11:47:07.355Z</time></trkpt><trkpt lat="33.7342744" lon="7.7532546"><ele>24.75</ele><time>2026-04-18T11:47:08.349Z</time></trkpt><trkpt lat="33.734361" lon="7.7531615"><ele>25.0</ele><time>2026-04-18T11:47:09.355Z</time></trkpt><trkpt lat="33.7344556" lon="7.7530646"><ele>25.0</ele><time>2026-04-18T11:47:10.368Z</time></trkpt><trkpt lat="33.7345553" lon="7.7529647"><ele>25.0</ele><time>2026-04-18T11:47:11.366Z</time></trkpt><trkpt lat="33.73466" lon="7.7528586"><ele>25.0</ele><time>2026-04-18T11:47:12.367Z</time></trkpt><trkpt lat="33.734771" lon="7.7527499"><ele>25.0</ele><time>2026-04-18T11:47:13.36Z</time></trkpt><trkpt lat="33.7348832" lon="7.7526383"><ele>25.25</ele><time>2026-04-18T11:47:14.358Z</time></trkpt><trkpt lat="33.7349956" lon="7.7525248"><ele>25.5</ele><time>2026-04-18T11:47:15.358Z</time></trkpt><trkpt lat="33.7351065" lon="7.7524087"><ele>25.75</ele><time>2026-04-18T11:47:16.372Z</time></trkpt><trkpt lat="33.7352224" lon="7.7522886"><ele>26.0</ele><time>2026-04-18T11:47:17.354Z</time></trkpt><trkpt lat="33.7353395" lon="7.7521678"><ele>25.666666666666664</ele><time>2026-04-18T11:47:18.36Z</time></trkpt><trkpt lat="33.7354586" lon="7.7520462"><ele>25.333333333333336</ele><time>2026-04-18T11:47:19.356Z</time></trkpt><trkpt lat="33.7355773" lon="7.7519205"><ele>25.0</ele><time>2026-04-18T11:47:20.359Z</time></trkpt><trkpt lat="33.735695" lon="7.7517976"><ele>25.0</ele><time>2026-04-18T11:47:21.359Z</time></trkpt><trkpt lat="33.735814" lon="7.7516773"><ele>25.0</ele><time>2026-04-18T11:47:22.352Z</time></trkpt><trkpt lat="33.7359319" lon="7.7515569"><ele>25.0</ele><time>2026-04-18T11:47:23.354Z</time></trkpt><trkpt lat="33.7360494" lon="7.7514363"><ele>25.0</ele><time>2026-04-18T11:47:24.35Z</time></trkpt><trkpt lat="33.7361713" lon="7.7513137"><ele>25.0</ele><time>2026-04-18T11:47:25.374Z</time></trkpt><trkpt lat="33.7362937" lon="7.7511889"><ele>25.0</ele><time>2026-04-18T11:47:26.355Z</time></trkpt><trkpt lat="33.7364181" lon="7.7510608"><ele>25.0</ele><time>2026-04-18T11:47:27.361Z</time></trkpt><trkpt lat="33.7365447" lon="7.7509272"><ele>25.0</ele><time>2026-04-18T11:47:28.354Z</time></trkpt><trkpt lat="33.7366724" lon="7.7507979"><ele>25.0</ele><time>2026-04-18T11:47:29.346Z</time></trkpt><trkpt lat="33.7368038" lon="7.7506652"><ele>25.666666666666668</ele><time>2026-04-18T11:47:30.355Z</time></trkpt><trkpt lat="33.7369358" lon="7.7505353"><ele>26.333333333333336</ele><time>2026-04-18T11:47:31.358Z</time></trkpt><trkpt lat="33.7370675" lon="7.7504066"><ele>27.0</ele><time>2026-04-18T11:47:32.357Z</time></trkpt><trkpt lat="33.7372008" lon="7.750277"><ele>26.333333333333336</ele><time>2026-04-18T11:47:33.357Z</time></trkpt><trkpt lat="33.73733" lon="7.7501435"><ele>25.666666666666668</ele><time>2026-04-18T11:47:34.356Z</time></trkpt><trkpt lat="33.7374557" lon="7.7500139"><ele>25.0</ele><time>2026-04-18T11:47:35.359Z</time></trkpt><trkpt lat="33.737581" lon="7.7498859"><ele>25.0</ele><time>2026-04-18T11:47:36.355Z</time></trkpt><trkpt lat="33.7377037" lon="7.74976"><ele>25.0</ele><time>2026-04-18T11:47:37.355Z</time></trkpt><trkpt lat="33.7378227" lon="7.749636"><ele>25.0</ele><time>2026-04-18T11:47:38.353Z</time></trkpt><trkpt lat="33.7379403" lon="7.7495135"><ele>25.0</ele><time>2026-04-18T11:47:39.359Z</time></trkpt><trkpt lat="33.7380439" lon="7.7494031"><ele>25.0</ele><time>2026-04-18T11:47:40.355Z</time></trkpt><trkpt lat="33.738153" lon="7.7492836"><ele>25.0</ele><time>2026-04-18T11:47:41.346Z</time></trkpt><trkpt lat="33.7382542" lon="7.7491699"><ele>25.0</ele><time>2026-04-18T11:47:42.354Z</time></trkpt><trkpt lat="33.7383551" lon="7.7490642"><ele>25.0</ele><time>2026-04-18T11:47:43.356Z</time></trkpt><trkpt lat="33.7384605" lon="7.7489684"><ele>25.0</ele><time>2026-04-18T11:47:44.357Z</time></trkpt><trkpt lat="33.7385685" lon="7.7488636"><ele>25.0</ele><time>2026-04-18T11:47:45.361Z</time></trkpt><trkpt lat="33.738681" lon="7.7487503"><ele>25.0</ele><time>2026-04-18T11:47:46.346Z</time></trkpt><trkpt lat="33.7387954" lon="7.7486366"><ele>25.0</ele><time>2026-04-18T11:47:47.355Z</time></trkpt><trkpt lat="33.7389061" lon="7.7485267"><ele>25.0</ele><time>2026-04-18T11:47:48.356Z</time></trkpt><trkpt lat="33.7390107" lon="7.7484213"><ele>25.0</ele><time>2026-04-18T11:47:49.36Z</time></trkpt><trkpt lat="33.7391052" lon="7.7483221"><ele>25.0</ele><time>2026-04-18T11:47:50.35Z</time></trkpt><trkpt lat="33.7391966" lon="7.7482266"><ele>25.0</ele><time>2026-04-18T11:47:51.359Z</time></trkpt><trkpt lat="33.7392979" lon="7.7481236"><ele>25.0</ele><time>2026-04-18T11:47:52.366Z</time></trkpt><trkpt lat="33.7394023" lon="7.7480093"><ele>25.0</ele><time>2026-04-18T11:47:53.352Z</time></trkpt><trkpt lat="33.739514" lon="7.7478898"><ele>25.0</ele><time>2026-04-18T11:47:54.359Z</time></trkpt><trkpt lat="33.7396312" lon="7.7477667"><ele>25.0</ele><time>2026-04-18T11:47:55.358Z</time></trkpt><trkpt lat="33.7397532" lon="7.7476437"><ele>25.0</ele><time>2026-04-18T11:47:56.354Z</time></trkpt><trkpt lat="33.7398788" lon="7.7475155"><ele>25.0</ele><time>2026-04-18T11:47:57.352Z</time></trkpt><trkpt lat="33.7400062" lon="7.747386"><ele>25.0</ele><time>2026-04-18T11:47:58.349Z</time></trkpt><trkpt lat="33.7401333" lon="7.7472594"><ele>25.0</ele><time>2026-04-18T11:47:59.356Z</time></trkpt><trkpt lat="33.7402578" lon="7.747137"><ele>25.0</ele><time>2026-04-18T11:48:00.353Z</time></trkpt><trkpt lat="33.7403857" lon="7.7470146"><ele>25.666666666666668</ele><time>2026-04-18T11:48:01.357Z</time></trkpt><trkpt lat="33.7405108" lon="7.7468869"><ele>26.333333333333336</ele><time>2026-04-18T11:48:02.362Z</time></trkpt><trkpt lat="33.7406343" lon="7.7467563"><ele>27.0</ele><time>2026-04-18T11:48:03.357Z</time></trkpt><trkpt lat="33.7407565" lon="7.7466238"><ele>26.666666666666664</ele><time>2026-04-18T11:48:04.357Z</time></trkpt><trkpt lat="33.740881" lon="7.7464931"><ele>26.333333333333332</ele><time>2026-04-18T11:48:05.358Z</time></trkpt><trkpt lat="33.7410042" lon="7.7463642"><ele>26.0</ele><time>2026-04-18T11:48:06.346Z</time></trkpt><trkpt lat="33.7411285" lon="7.7462301"><ele>26.0</ele><time>2026-04-18T11:48:07.356Z</time></trkpt><trkpt lat="33.7412546" lon="7.7461035"><ele>26.0</ele><time>2026-04-18T11:48:08.355Z</time></trkpt><trkpt lat="33.7413717" lon="7.7459899"><ele>26.0</ele><time>2026-04-18T11:48:09.35Z</time></trkpt><trkpt lat="33.7414745" lon="7.7458833"><ele>26.25</ele><time>2026-04-18T11:48:10.353Z</time></trkpt><trkpt lat="33.741568" lon="7.7457878"><ele>26.5</ele><time>2026-04-18T11:48:11.355Z</time></trkpt><trkpt lat="33.7416605" lon="7.7456992"><ele>26.75</ele><time>2026-04-18T11:48:12.349Z</time></trkpt><trkpt lat="33.7417475" lon="7.7456087"><ele>27.0</ele><time>2026-04-18T11:48:13.355Z</time></trkpt><trkpt lat="33.7418411" lon="7.745519"><ele>27.0</ele><time>2026-04-18T11:48:14.362Z</time></trkpt><trkpt lat="33.7419437" lon="7.7454126"><ele>27.0</ele><time>2026-04-18T11:48:15.354Z</time></trkpt><trkpt lat="33.7420525" lon="7.7453001"><ele>27.0</ele><time>2026-04-18T11:48:16.348Z</time></trkpt><trkpt lat="33.7421574" lon="7.7451894"><ele>27.0</ele><time>2026-04-18T11:48:17.379Z</time></trkpt><trkpt lat="33.7422672" lon="7.7450768"><ele>27.0</ele><time>2026-04-18T11:48:18.349Z</time></trkpt><trkpt lat="33.7423789" lon="7.7449715"><ele>27.0</ele><time>2026-04-18T11:48:19.347Z</time></trkpt><trkpt lat="33.7424898" lon="7.7448637"><ele>27.0</ele><time>2026-04-18T11:48:20.359Z</time></trkpt><trkpt lat="33.7425936" lon="7.7447519"><ele>27.0</ele><time>2026-04-18T11:48:21.363Z</time></trkpt><trkpt lat="33.7426962" lon="7.7446409"><ele>26.25</ele><time>2026-04-18T11:48:22.361Z</time></trkpt><trkpt lat="33.7428028" lon="7.7445341"><ele>25.5</ele><time>2026-04-18T11:48:23.358Z</time></trkpt><trkpt lat="33.7429124" lon="7.7444217"><ele>24.75</ele><time>2026-04-18T11:48:24.359Z</time></trkpt><trkpt lat="33.7430262" lon="7.7443064"><ele>24.0</ele><time>2026-04-18T11:48:25.364Z</time></trkpt><trkpt lat="33.7431408" lon="7.7441929"><ele>24.0</ele><time>2026-04-18T11:48:26.354Z</time></trkpt><trkpt lat="33.7432523" lon="7.7440769"><ele>24.0</ele><time>2026-04-18T11:48:27.354Z</time></trkpt><trkpt lat="33.7433664" lon="7.7439583"><ele>24.0</ele><time>2026-04-18T11:48:28.349Z</time></trkpt><trkpt lat="33.7434793" lon="7.7438439"><ele>24.0</ele><time>2026-04-18T11:48:29.352Z</time></trkpt><trkpt lat="33.7435934" lon="7.7437278"><ele>24.25</ele><time>2026-04-18T11:48:30.355Z</time></trkpt><trkpt lat="33.7437034" lon="7.7436151"><ele>24.5</ele><time>2026-04-18T11:48:31.352Z</time></trkpt><trkpt lat="33.7438002" lon="7.7435107"><ele>24.75</ele><time>2026-04-18T11:48:32.361Z</time></trkpt><trkpt lat="33.7438972" lon="7.7434127"><ele>25.0</ele><time>2026-04-18T11:48:33.359Z</time></trkpt><trkpt lat="33.7439816" lon="7.7433178"><ele>25.0</ele><time>2026-04-18T11:48:34.354Z</time></trkpt><trkpt lat="33.7440658" lon="7.7432281"><ele>25.0</ele><time>2026-04-18T11:48:35.364Z</time></trkpt><trkpt lat="33.744155" lon="7.7431329"><ele>25.0</ele><time>2026-04-18T11:48:36.37Z</time></trkpt><trkpt lat="33.744251" lon="7.7430244"><ele>25.0</ele><time>2026-04-18T11:48:37.355Z</time></trkpt><trkpt lat="33.7443596" lon="7.7429149"><ele>25.666666666666668</ele><time>2026-04-18T11:48:38.348Z</time></trkpt><trkpt lat="33.7444684" lon="7.7428013"><ele>26.333333333333336</ele><time>2026-04-18T11:48:39.35Z</time></trkpt><trkpt lat="33.7445859" lon="7.74268"><ele>27.0</ele><time>2026-04-18T11:48:40.364Z</time></trkpt><trkpt lat="33.7447087" lon="7.7425545"><ele>27.333333333333336</ele><time>2026-04-18T11:48:41.368Z</time></trkpt><trkpt lat="33.7448334" lon="7.7424282"><ele>27.666666666666668</ele><time>2026-04-18T11:48:42.351Z</time></trkpt><trkpt lat="33.7449558" lon="7.7423035"><ele>28.0</ele><time>2026-04-18T11:48:43.355Z</time></trkpt><trkpt lat="33.7450757" lon="7.7421828"><ele>28.0</ele><time>2026-04-18T11:48:44.352Z</time></trkpt><trkpt lat="33.745193" lon="7.7420629"><ele>28.0</ele><time>2026-04-18T11:48:45.358Z</time></trkpt><trkpt lat="33.7453126" lon="7.7419383"><ele>28.0</ele><time>2026-04-18T11:48:46.36Z</time></trkpt><trkpt lat="33.7454318" lon="7.7418165"><ele>26.75</ele><time>2026-04-18T11:48:47.368Z</time></trkpt><trkpt lat="33.7455457" lon="7.7417011"><ele>25.5</ele><time>2026-04-18T11:48:48.351Z</time></trkpt><trkpt lat="33.7456579" lon="7.7415951"><ele>24.25</ele><time>2026-04-18T11:48:49.352Z</time></trkpt><trkpt lat="33.7457666" lon="7.7414952"><ele>23.0</ele><time>2026-04-18T11:48:50.36Z</time></trkpt><trkpt lat="33.745866" lon="7.7413929"><ele>23.0</ele><time>2026-04-18T11:48:51.351Z</time></trkpt><trkpt lat="33.7459637" lon="7.7412828"><ele>23.0</ele><time>2026-04-18T11:48:52.352Z</time></trkpt><trkpt lat="33.7460662" lon="7.7411749"><ele>23.0</ele><time>2026-04-18T11:48:53.356Z</time></trkpt><trkpt lat="33.7461637" lon="7.7410696"><ele>23.0</ele><time>2026-04-18T11:48:54.357Z</time></trkpt><trkpt lat="33.746249" lon="7.740979"><ele>23.166666666666668</ele><time>2026-04-18T11:48:55.356Z</time></trkpt><trkpt lat="33.746319" lon="7.7409068"><ele>23.333333333333336</ele><time>2026-04-18T11:48:56.371Z</time></trkpt><trkpt lat="33.7463709" lon="7.7408543"><ele>23.5</ele><time>2026-04-18T11:48:57.351Z</time></trkpt><trkpt lat="33.74644" lon="7.7407924"><ele>23.666666666666668</ele><time>2026-04-18T11:48:59.353Z</time></trkpt><trkpt lat="33.7465151" lon="7.7407898"><ele>23.833333333333332</ele><time>2026-04-18T11:49:02.361Z</time></trkpt><trkpt lat="33.7466071" lon="7.7408395"><ele>24.0</ele><time>2026-04-18T11:49:05.354Z</time></trkpt><trkpt lat="33.746715" lon="7.7408603"><ele>24.0</ele><time>2026-04-18T11:49:07.361Z</time></trkpt><trkpt lat="33.7467938" lon="7.7408879"><ele>24.0</ele><time>2026-04-18T11:49:09.353Z</time></trkpt><trkpt lat="33.7468519" lon="7.7409396"><ele>24.0</ele><time>2026-04-18T11:49:12.355Z</time></trkpt><trkpt lat="33.746918" lon="7.7410036"><ele>24.0</ele><time>2026-04-18T11:50:11.358Z</time></trkpt><trkpt lat="33.7469764" lon="7.7410745"><ele>24.0</ele><time>2026-04-18T11:50:12.366Z</time></trkpt><trkpt lat="33.7470433" lon="7.7411616"><ele>24.0</ele><time>2026-04-18T11:50:13.362Z</time></trkpt><trkpt lat="33.7471198" lon="7.7412561"><ele>24.75</ele><time>2026-04-18T11:50:14.357Z</time></trkpt><trkpt lat="33.7472042" lon="7.7413465"><ele>25.5</ele><time>2026-04-18T11:50:15.371Z</time></trkpt><trkpt lat="33.7472977" lon="7.7414311"><ele>26.25</ele><time>2026-04-18T11:50:16.371Z</time></trkpt><trkpt lat="33.7474003" lon="7.7415116"><ele>27.0</ele><time>2026-04-18T11:50:17.359Z</time></trkpt><trkpt lat="33.7475042" lon="7.7415825"><ele>27.0</ele><time>2026-04-18T11:50:18.372Z</time></trkpt><trkpt lat="33.7476046" lon="7.7416372"><ele>27.000000000000004</ele><time>2026-04-18T11:50:19.375Z</time></trkpt><trkpt lat="33.7476982" lon="7.7416778"><ele>27.000000000000004</ele><time>2026-04-18T11:50:20.363Z</time></trkpt><trkpt lat="33.7477973" lon="7.7417113"><ele>27.0</ele><time>2026-04-18T11:50:21.36Z</time></trkpt><trkpt lat="33.7479039" lon="7.7417388"><ele>27.0</ele><time>2026-04-18T11:50:22.358Z</time></trkpt><trkpt lat="33.7480027" lon="7.741762"><ele>26.833333333333332</ele><time>2026-04-18T11:50:23.372Z</time></trkpt><trkpt lat="33.7480902" lon="7.7417822"><ele>26.666666666666664</ele><time>2026-04-18T11:50:24.359Z</time></trkpt><trkpt lat="33.7481743" lon="7.7417972"><ele>26.5</ele><time>2026-04-18T11:50:25.363Z</time></trkpt><trkpt lat="33.7482588" lon="7.7418023"><ele>26.333333333333332</ele><time>2026-04-18T11:50:26.369Z</time></trkpt><trkpt lat="33.7483431" lon="7.7417929"><ele>26.166666666666664</ele><time>2026-04-18T11:50:27.365Z</time></trkpt><trkpt lat="33.7484236" lon="7.7417675"><ele>26.0</ele><time>2026-04-18T11:50:28.363Z</time></trkpt><trkpt lat="33.7485016" lon="7.7417248"><ele>25.833333333333332</ele><time>2026-04-18T11:50:29.362Z</time></trkpt><trkpt lat="33.7485784" lon="7.7416779"><ele>25.666666666666664</ele><time>2026-04-18T11:50:30.374Z</time></trkpt><trkpt lat="33.7486515" lon="7.741646"><ele>25.5</ele><time>2026-04-18T11:50:31.355Z</time></trkpt><trkpt lat="33.7487181" lon="7.7416365"><ele>25.333333333333336</ele><time>2026-04-18T11:50:32.356Z</time></trkpt><trkpt lat="33.7487949" lon="7.7416389"><ele>25.166666666666668</ele><time>2026-04-18T11:50:33.358Z</time></trkpt><trkpt lat="33.748884" lon="7.7416562"><ele>25.0</ele><time>2026-04-18T11:50:34.368Z</time></trkpt><trkpt lat="33.7489778" lon="7.7416847"><ele>25.0</ele><time>2026-04-18T11:50:35.359Z</time></trkpt><trkpt lat="33.7490756" lon="7.7417182"><ele>25.0</ele><time>2026-04-18T11:50:36.369Z</time></trkpt><trkpt lat="33.7491758" lon="7.7417574"><ele>25.0</ele><time>2026-04-18T11:50:37.359Z</time></trkpt><trkpt lat="33.749274" lon="7.7417942"><ele>25.0</ele><time>2026-04-18T11:50:38.366Z</time></trkpt><trkpt lat="33.7493671" lon="7.7418302"><ele>25.0</ele><time>2026-04-18T11:50:39.366Z</time></trkpt><trkpt lat="33.7494573" lon="7.7418658"><ele>25.4</ele><time>2026-04-18T11:50:40.373Z</time></trkpt><trkpt lat="33.7495515" lon="7.7419007"><ele>25.8</ele><time>2026-04-18T11:50:41.364Z</time></trkpt><trkpt lat="33.7496475" lon="7.7419371"><ele>26.200000000000003</ele><time>2026-04-18T11:50:42.369Z</time></trkpt><trkpt lat="33.7497474" lon="7.7419733"><ele>26.6</ele><time>2026-04-18T11:50:43.361Z</time></trkpt><trkpt lat="33.7498525" lon="7.74201"><ele>27.0</ele><time>2026-04-18T11:50:44.364Z</time></trkpt><trkpt lat="33.7499523" lon="7.7420449"><ele>27.0</ele><time>2026-04-18T11:50:45.361Z</time></trkpt><trkpt lat="33.7500479" lon="7.7420734"><ele>27.000000000000004</ele><time>2026-04-18T11:50:46.362Z</time></trkpt><trkpt lat="33.7501363" lon="7.7421015"><ele>27.000000000000004</ele><time>2026-04-18T11:50:47.367Z</time></trkpt><trkpt lat="33.7502282" lon="7.7421327"><ele>27.0</ele><time>2026-04-18T11:50:48.366Z</time></trkpt><trkpt lat="33.7503168" lon="7.7421613"><ele>27.0</ele><time>2026-04-18T11:50:49.361Z</time></trkpt><trkpt lat="33.7504078" lon="7.7421915"><ele>27.0</ele><time>2026-04-18T11:50:50.361Z</time></trkpt><trkpt lat="33.7505077" lon="7.7422252"><ele>27.0</ele><time>2026-04-18T11:50:51.365Z</time></trkpt><trkpt lat="33.7506154" lon="7.742261"><ele>27.0</ele><time>2026-04-18T11:50:52.374Z</time></trkpt><trkpt lat="33.7507294" lon="7.7423002"><ele>27.0</ele><time>2026-04-18T11:50:53.363Z</time></trkpt><trkpt lat="33.7508516" lon="7.7423403"><ele>27.0</ele><time>2026-04-18T11:50:54.365Z</time></trkpt><trkpt lat="33.7509802" lon="7.7423842"><ele>27.0</ele><time>2026-04-18T11:50:55.359Z</time></trkpt><trkpt lat="33.7511093" lon="7.7424291"><ele>27.0</ele><time>2026-04-18T11:50:56.358Z</time></trkpt><trkpt lat="33.7512351" lon="7.7424708"><ele>27.0</ele><time>2026-04-18T11:50:57.36Z</time></trkpt><trkpt lat="33.7513569" lon="7.7425134"><ele>26.75</ele><time>2026-04-18T11:50:58.358Z</time></trkpt><trkpt lat="33.7514727" lon="7.742554"><ele>26.5</ele><time>2026-04-18T11:50:59.361Z</time></trkpt><trkpt lat="33.7515836" lon="7.7425939"><ele>26.25</ele><time>2026-04-18T11:51:00.355Z</time></trkpt><trkpt lat="33.7516976" lon="7.7426333"><ele>26.0</ele><time>2026-04-18T11:51:01.359Z</time></trkpt><trkpt lat="33.7518113" lon="7.7426715"><ele>26.0</ele><time>2026-04-18T11:51:02.357Z</time></trkpt><trkpt lat="33.7519217" lon="7.742705"><ele>26.0</ele><time>2026-04-18T11:51:03.365Z</time></trkpt><trkpt lat="33.7520196" lon="7.7427336"><ele>26.0</ele><time>2026-04-18T11:51:04.367Z</time></trkpt><trkpt lat="33.7520992" lon="7.7427576"><ele>26.0</ele><time>2026-04-18T11:51:05.366Z</time></trkpt><trkpt lat="33.7521624" lon="7.7427771"><ele>26.0</ele><time>2026-04-18T11:51:06.365Z</time></trkpt><trkpt lat="33.7522521" lon="7.7428154"><ele>25.8</ele><time>2026-04-18T11:51:08.353Z</time></trkpt><trkpt lat="33.7523197" lon="7.7428588"><ele>25.6</ele><time>2026-04-18T11:51:11.354Z</time></trkpt><trkpt lat="33.7523882" lon="7.742877"><ele>25.4</ele><time>2026-04-18T12:02:02.329Z</time></trkpt><trkpt lat="33.752487" lon="7.7428947"><ele>25.2</ele><time>2026-04-18T12:02:04.361Z</time></trkpt><trkpt lat="33.7525728" lon="7.742939"><ele>25.0</ele><time>2026-04-18T12:02:05.357Z</time></trkpt><trkpt lat="33.7526942" lon="7.74299"><ele>25.0</ele><time>2026-04-18T12:02:06.364Z</time></trkpt><trkpt lat="33.7528556" lon="7.7430307"><ele>25.0</ele><time>2026-04-18T12:02:07.368Z</time></trkpt><trkpt lat="33.7529987" lon="7.7430747"><ele>25.0</ele><time>2026-04-18T12:02:08.36Z</time></trkpt><trkpt lat="33.7531389" lon="7.7431214"><ele>25.0</ele><time>2026-04-18T12:02:09.371Z</time></trkpt><trkpt lat="33.7532813" lon="7.7431688"><ele>25.0</ele><time>2026-04-18T12:02:10.367Z</time></trkpt><trkpt lat="33.7534193" lon="7.7432137"><ele>25.0</ele><time>2026-04-18T12:02:11.365Z</time></trkpt><trkpt lat="33.7535579" lon="7.7432563"><ele>25.0</ele><time>2026-04-18T12:02:12.353Z</time></trkpt><trkpt lat="33.7536965" lon="7.7433003"><ele>25.0</ele><time>2026-04-18T12:02:13.369Z</time></trkpt><trkpt lat="33.7538407" lon="7.7433452"><ele>25.0</ele><time>2026-04-18T12:02:14.369Z</time></trkpt><trkpt lat="33.7539904" lon="7.7433895"><ele>25.0</ele><time>2026-04-18T12:02:15.372Z</time></trkpt><trkpt lat="33.7541382" lon="7.7434366"><ele>25.0</ele><time>2026-04-18T12:02:16.379Z</time></trkpt><trkpt lat="33.7542863" lon="7.7434841"><ele>25.0</ele><time>2026-04-18T12:02:17.363Z</time></trkpt><trkpt lat="33.754434" lon="7.7435328"><ele>25.0</ele><time>2026-04-18T12:02:18.356Z</time></trkpt><trkpt lat="33.7545806" lon="7.7435822"><ele>25.0</ele><time>2026-04-18T12:02:19.371Z</time></trkpt><trkpt lat="33.7547236" lon="7.743629"><ele>25.0</ele><time>2026-04-18T12:02:20.361Z</time></trkpt><trkpt lat="33.7548632" lon="7.7436744"><ele>25.0</ele><time>2026-04-18T12:02:21.356Z</time></trkpt><trkpt lat="33.7550024" lon="7.7437185"><ele>25.0</ele><time>2026-04-18T12:02:22.352Z</time></trkpt><trkpt lat="33.7551317" lon="7.7437591"><ele>24.5</ele><time>2026-04-18T12:02:23.363Z</time></trkpt><trkpt lat="33.7552573" lon="7.7437963"><ele>24.0</ele><time>2026-04-18T12:02:24.362Z</time></trkpt><trkpt lat="33.7553889" lon="7.7438375"><ele>23.5</ele><time>2026-04-18T12:02:25.368Z</time></trkpt><trkpt lat="33.7555287" lon="7.7438839"><ele>23.0</ele><time>2026-04-18T12:02:26.353Z</time></trkpt><trkpt lat="33.7556744" lon="7.74393"><ele>23.0</ele><time>2026-04-18T12:02:27.354Z</time></trkpt><trkpt lat="33.7558243" lon="7.7439784"><ele>23.0</ele><time>2026-04-18T12:02:28.374Z</time></trkpt><trkpt lat="33.7559763" lon="7.7440289"><ele>23.0</ele><time>2026-04-18T12:02:29.357Z</time></trkpt><trkpt lat="33.7561273" lon="7.7440787"><ele>23.333333333333336</ele><time>2026-04-18T12:02:30.354Z</time></trkpt><trkpt lat="33.7562803" lon="7.7441286"><ele>23.666666666666668</ele><time>2026-04-18T12:02:31.364Z</time></trkpt><trkpt lat="33.7564334" lon="7.74418"><ele>24.0</ele><time>2026-04-18T12:02:32.364Z</time></trkpt><trkpt lat="33.7565867" lon="7.7442313"><ele>24.0</ele><time>2026-04-18T12:02:33.361Z</time></trkpt><trkpt lat="33.7567389" lon="7.7442824"><ele>24.0</ele><time>2026-04-18T12:02:34.364Z</time></trkpt><trkpt lat="33.7568918" lon="7.7443329"><ele>24.0</ele><time>2026-04-18T12:02:35.388Z</time></trkpt><trkpt lat="33.757053" lon="7.7443789"><ele>23.666666666666668</ele><time>2026-04-18T12:02:36.367Z</time></trkpt><trkpt lat="33.7572071" lon="7.7444254"><ele>23.333333333333336</ele><time>2026-04-18T12:02:37.37Z</time></trkpt><trkpt lat="33.757371" lon="7.7444726"><ele>23.0</ele><time>2026-04-18T12:02:38.372Z</time></trkpt><trkpt lat="33.757538" lon="7.7445176"><ele>23.0</ele><time>2026-04-18T12:02:39.363Z</time></trkpt><trkpt lat="33.7576973" lon="7.7445674"><ele>23.0</ele><time>2026-04-18T12:02:40.359Z</time></trkpt><trkpt lat="33.7578516" lon="7.7446167"><ele>23.0</ele><time>2026-04-18T12:02:41.357Z</time></trkpt><trkpt lat="33.7580028" lon="7.7446647"><ele>22.75</ele><time>2026-04-18T12:02:42.364Z</time></trkpt><trkpt lat="33.7581461" lon="7.7447136"><ele>22.5</ele><time>2026-04-18T12:02:43.362Z</time></trkpt><trkpt lat="33.7582803" lon="7.7447596"><ele>22.25</ele><time>2026-04-18T12:02:44.377Z</time></trkpt><trkpt lat="33.7584069" lon="7.7448024"><ele>22.0</ele><time>2026-04-18T12:02:45.363Z</time></trkpt><trkpt lat="33.7585312" lon="7.7448454"><ele>22.25</ele><time>2026-04-18T12:02:46.368Z</time></trkpt><trkpt lat="33.7586695" lon="7.7448905"><ele>22.5</ele><time>2026-04-18T12:02:47.358Z</time></trkpt><trkpt lat="33.758815" lon="7.7449359"><ele>22.75</ele><time>2026-04-18T12:02:48.365Z</time></trkpt><trkpt lat="33.7589649" lon="7.7449826"><ele>23.0</ele><time>2026-04-18T12:02:49.365Z</time></trkpt><trkpt lat="33.759115" lon="7.7450303"><ele>23.0</ele><time>2026-04-18T12:02:50.361Z</time></trkpt><trkpt lat="33.7592629" lon="7.7450792"><ele>23.0</ele><time>2026-04-18T12:02:51.387Z</time></trkpt><trkpt lat="33.7594109" lon="7.7451284"><ele>23.0</ele><time>2026-04-18T12:02:52.37Z</time></trkpt><trkpt lat="33.759558" lon="7.7451746"><ele>23.0</ele><time>2026-04-18T12:02:53.358Z</time></trkpt><trkpt lat="33.7597051" lon="7.7452222"><ele>23.0</ele><time>2026-04-18T12:02:54.362Z</time></trkpt><trkpt lat="33.7598541" lon="7.7452721"><ele>23.0</ele><time>2026-04-18T12:02:55.383Z</time></trkpt><trkpt lat="33.7600061" lon="7.7453209"><ele>23.0</ele><time>2026-04-18T12:02:56.37Z</time></trkpt><trkpt lat="33.7601575" lon="7.7453705"><ele>23.0</ele><time>2026-04-18T12:02:57.361Z</time></trkpt><trkpt lat="33.760312" lon="7.7454217"><ele>23.0</ele><time>2026-04-18T12:02:58.363Z</time></trkpt><trkpt lat="33.7604653" lon="7.745474"><ele>22.666666666666668</ele><time>2026-04-18T12:02:59.364Z</time></trkpt><trkpt lat="33.7606201" lon="7.7455286"><ele>22.333333333333332</ele><time>2026-04-18T12:03:00.37Z</time></trkpt><trkpt lat="33.7607747" lon="7.7455812"><ele>22.0</ele><time>2026-04-18T12:03:01.374Z</time></trkpt><trkpt lat="33.7609294" lon="7.745634"><ele>22.0</ele><time>2026-04-18T12:03:02.358Z</time></trkpt><trkpt lat="33.7610835" lon="7.7456879"><ele>22.0</ele><time>2026-04-18T12:03:03.373Z</time></trkpt><trkpt lat="33.7612389" lon="7.7457445"><ele>22.0</ele><time>2026-04-18T12:03:04.363Z</time></trkpt><trkpt lat="33.7613962" lon="7.7458011"><ele>22.0</ele><time>2026-04-18T12:03:05.356Z</time></trkpt><trkpt lat="33.7615539" lon="7.7458564"><ele>22.0</ele><time>2026-04-18T12:03:06.365Z</time></trkpt><trkpt lat="33.7617112" lon="7.7459104"><ele>22.0</ele><time>2026-04-18T12:03:07.369Z</time></trkpt><trkpt lat="33.7618672" lon="7.7459629"><ele>22.0</ele><time>2026-04-18T12:03:08.366Z</time></trkpt><trkpt lat="33.7620219" lon="7.746015"><ele>22.0</ele><time>2026-04-18T12:03:09.365Z</time></trkpt><trkpt lat="33.762177" lon="7.7460667"><ele>22.0</ele><time>2026-04-18T12:03:10.372Z</time></trkpt><trkpt lat="33.7623351" lon="7.7461193"><ele>22.0</ele><time>2026-04-18T12:03:11.366Z</time></trkpt><trkpt lat="33.7624934" lon="7.7461722"><ele>22.0</ele><time>2026-04-18T12:03:12.359Z</time></trkpt><trkpt lat="33.7626453" lon="7.7462227"><ele>22.0</ele><time>2026-04-18T12:03:13.364Z</time></trkpt><trkpt lat="33.7627978" lon="7.7462734"><ele>22.333333333333332</ele><time>2026-04-18T12:03:14.371Z</time></trkpt><trkpt lat="33.7629496" lon="7.7463226"><ele>22.666666666666668</ele><time>2026-04-18T12:03:15.383Z</time></trkpt><trkpt lat="33.7630986" lon="7.7463733"><ele>23.0</ele><time>2026-04-18T12:03:16.366Z</time></trkpt><trkpt lat="33.7632444" lon="7.7464224"><ele>23.0</ele><time>2026-04-18T12:03:17.358Z</time></trkpt><trkpt lat="33.7633864" lon="7.7464679"><ele>23.0</ele><time>2026-04-18T12:03:18.36Z</time></trkpt><trkpt lat="33.7635163" lon="7.7465104"><ele>23.0</ele><time>2026-04-18T12:03:19.363Z</time></trkpt><trkpt lat="33.7636361" lon="7.7465528"><ele>23.0</ele><time>2026-04-18T12:03:20.369Z</time></trkpt><trkpt lat="33.7637567" lon="7.7465935"><ele>23.5</ele><time>2026-04-18T12:03:21.368Z</time></trkpt><trkpt lat="33.7638805" lon="7.746635"><ele>24.0</ele><time>2026-04-18T12:03:22.367Z</time></trkpt><trkpt lat="33.7640111" lon="7.7466786"><ele>24.5</ele><time>2026-04-18T12:03:23.375Z</time></trkpt><trkpt lat="33.7641476" lon="7.7467255"><ele>25.0</ele><time>2026-04-18T12:03:24.369Z</time></trkpt><trkpt lat="33.7642915" lon="7.7467743"><ele>24.0</ele><time>2026-04-18T12:03:25.374Z</time></trkpt><trkpt lat="33.7644397" lon="7.7468231"><ele>23.0</ele><time>2026-04-18T12:03:26.37Z</time></trkpt><trkpt lat="33.7645938" lon="7.7468728"><ele>22.0</ele><time>2026-04-18T12:03:27.368Z</time></trkpt><trkpt lat="33.7647535" lon="7.7469249"><ele>22.0</ele><time>2026-04-18T12:03:28.371Z</time></trkpt><trkpt lat="33.7649148" lon="7.7469785"><ele>22.0</ele><time>2026-04-18T12:03:29.367Z</time></trkpt><trkpt lat="33.7650774" lon="7.7470344"><ele>22.0</ele><time>2026-04-18T12:03:30.362Z</time></trkpt><trkpt lat="33.7652411" lon="7.7470894"><ele>21.666666666666664</ele><time>2026-04-18T12:03:31.371Z</time></trkpt><trkpt lat="33.7654036" lon="7.7471436"><ele>21.333333333333332</ele><time>2026-04-18T12:03:32.373Z</time></trkpt><trkpt lat="33.76556" lon="7.7471966"><ele>21.0</ele><time>2026-04-18T12:03:33.373Z</time></trkpt><trkpt lat="33.7657118" lon="7.7472474"><ele>21.0</ele><time>2026-04-18T12:03:34.366Z</time></trkpt><trkpt lat="33.7658625" lon="7.7472973"><ele>21.0</ele><time>2026-04-18T12:03:35.366Z</time></trkpt><trkpt lat="33.7660134" lon="7.7473462"><ele>21.0</ele><time>2026-04-18T12:03:36.377Z</time></trkpt><trkpt lat="33.7661654" lon="7.7473957"><ele>21.666666666666668</ele><time>2026-04-18T12:03:37.372Z</time></trkpt><trkpt lat="33.7663176" lon="7.7474464"><ele>22.333333333333336</ele><time>2026-04-18T12:03:38.371Z</time></trkpt><trkpt lat="33.766468" lon="7.7474985"><ele>23.0</ele><time>2026-04-18T12:03:39.367Z</time></trkpt><trkpt lat="33.7666202" lon="7.7475521"><ele>23.0</ele><time>2026-04-18T12:03:40.373Z</time></trkpt><trkpt lat="33.7667735" lon="7.7476043"><ele>23.0</ele><time>2026-04-18T12:03:41.375Z</time></trkpt><trkpt lat="33.7669245" lon="7.7476523"><ele>23.0</ele><time>2026-04-18T12:03:42.366Z</time></trkpt><trkpt lat="33.7670774" lon="7.747699"><ele>22.666666666666668</ele><time>2026-04-18T12:03:43.37Z</time></trkpt><trkpt lat="33.7672294" lon="7.7477459"><ele>22.333333333333332</ele><time>2026-04-18T12:03:44.373Z</time></trkpt><trkpt lat="33.7673786" lon="7.7477934"><ele>22.0</ele><time>2026-04-18T12:03:45.37Z</time></trkpt><trkpt lat="33.7675309" lon="7.7478442"><ele>22.0</ele><time>2026-04-18T12:03:46.373Z</time></trkpt><trkpt lat="33.7676733" lon="7.7478915"><ele>22.0</ele><time>2026-04-18T12:03:47.361Z</time></trkpt><trkpt lat="33.767815" lon="7.747935"><ele>22.0</ele><time>2026-04-18T12:03:48.369Z</time></trkpt><trkpt lat="33.7679488" lon="7.7479796"><ele>22.0</ele><time>2026-04-18T12:03:49.38Z</time></trkpt><trkpt lat="33.7680813" lon="7.7480246"><ele>22.25</ele><time>2026-04-18T12:03:50.37Z</time></trkpt><trkpt lat="33.7682171" lon="7.7480695"><ele>22.5</ele><time>2026-04-18T12:03:51.376Z</time></trkpt><trkpt lat="33.7683534" lon="7.748116"><ele>22.75</ele><time>2026-04-18T12:03:52.368Z</time></trkpt><trkpt lat="33.7684949" lon="7.7481625"><ele>23.0</ele><time>2026-04-18T12:03:53.361Z</time></trkpt><trkpt lat="33.7686478" lon="7.7482031"><ele>23.0</ele><time>2026-04-18T12:03:54.366Z</time></trkpt><trkpt lat="33.7688014" lon="7.7482548"><ele>23.0</ele><time>2026-04-18T12:03:55.36Z</time></trkpt><trkpt lat="33.7689577" lon="7.7483079"><ele>23.0</ele><time>2026-04-18T12:03:56.364Z</time></trkpt><trkpt lat="33.769111" lon="7.7483566"><ele>23.0</ele><time>2026-04-18T12:03:57.368Z</time></trkpt><trkpt lat="33.7692656" lon="7.7484068"><ele>23.0</ele><time>2026-04-18T12:03:58.371Z</time></trkpt><trkpt lat="33.7694178" lon="7.7484545"><ele>23.0</ele><time>2026-04-18T12:03:59.379Z</time></trkpt><trkpt lat="33.7695649" lon="7.7485016"><ele>22.333333333333336</ele><time>2026-04-18T12:04:00.373Z</time></trkpt><trkpt lat="33.7697129" lon="7.7485488"><ele>21.666666666666668</ele><time>2026-04-18T12:04:01.361Z</time></trkpt><trkpt lat="33.7698595" lon="7.7485946"><ele>21.0</ele><time>2026-04-18T12:04:02.364Z</time></trkpt><trkpt lat="33.7700063" lon="7.7486409"><ele>21.0</ele><time>2026-04-18T12:04:03.372Z</time></trkpt><trkpt lat="33.7701527" lon="7.7486886"><ele>21.0</ele><time>2026-04-18T12:04:04.373Z</time></trkpt><trkpt lat="33.7703054" lon="7.7487394"><ele>21.0</ele><time>2026-04-18T12:04:05.366Z</time></trkpt><trkpt lat="33.7704606" lon="7.7487893"><ele>21.666666666666668</ele><time>2026-04-18T12:04:06.366Z</time></trkpt><trkpt lat="33.7706202" lon="7.7488406"><ele>22.333333333333336</ele><time>2026-04-18T12:04:07.368Z</time></trkpt><trkpt lat="33.7707834" lon="7.7488951"><ele>23.0</ele><time>2026-04-18T12:04:08.372Z</time></trkpt><trkpt lat="33.7709457" lon="7.7489489"><ele>23.0</ele><time>2026-04-18T12:04:09.377Z</time></trkpt><trkpt lat="33.7711033" lon="7.7490025"><ele>23.0</ele><time>2026-04-18T12:04:10.357Z</time></trkpt><trkpt lat="33.7712603" lon="7.7490573"><ele>23.0</ele><time>2026-04-18T12:04:11.371Z</time></trkpt><trkpt lat="33.7714159" lon="7.7491121"><ele>23.0</ele><time>2026-04-18T12:04:12.369Z</time></trkpt><trkpt lat="33.7715734" lon="7.749166"><ele>23.0</ele><time>2026-04-18T12:04:13.372Z</time></trkpt><trkpt lat="33.7717304" lon="7.7492188"><ele>23.0</ele><time>2026-04-18T12:04:14.376Z</time></trkpt><trkpt lat="33.7718916" lon="7.7492766"><ele>22.666666666666668</ele><time>2026-04-18T12:04:15.37Z</time></trkpt><trkpt lat="33.7720556" lon="7.749335"><ele>22.333333333333332</ele><time>2026-04-18T12:04:16.362Z</time></trkpt><trkpt lat="33.772219" lon="7.7493937"><ele>22.0</ele><time>2026-04-18T12:04:17.363Z</time></trkpt><trkpt lat="33.7723808" lon="7.7494493"><ele>22.0</ele><time>2026-04-18T12:04:18.369Z</time></trkpt><trkpt lat="33.7725396" lon="7.7495026"><ele>22.0</ele><time>2026-04-18T12:04:19.369Z</time></trkpt><trkpt lat="33.7726964" lon="7.7495555"><ele>22.0</ele><time>2026-04-18T12:04:20.373Z</time></trkpt><trkpt lat="33.7728501" lon="7.7496086"><ele>22.0</ele><time>2026-04-18T12:04:21.371Z</time></trkpt><trkpt lat="33.7730005" lon="7.7496599"><ele>22.0</ele><time>2026-04-18T12:04:22.371Z</time></trkpt><trkpt lat="33.7731544" lon="7.7497084"><ele>22.0</ele><time>2026-04-18T12:04:23.368Z</time></trkpt><trkpt lat="33.7733137" lon="7.7497593"><ele>22.0</ele><time>2026-04-18T12:04:24.373Z</time></trkpt><trkpt lat="33.7734775" lon="7.7498121"><ele>22.0</ele><time>2026-04-18T12:04:25.362Z</time></trkpt><trkpt lat="33.7736457" lon="7.749868"><ele>22.0</ele><time>2026-04-18T12:04:26.368Z</time></trkpt><trkpt lat="33.7738181" lon="7.7499261"><ele>22.333333333333332</ele><time>2026-04-18T12:04:27.366Z</time></trkpt><trkpt lat="33.773993" lon="7.7499844"><ele>22.666666666666668</ele><time>2026-04-18T12:04:28.366Z</time></trkpt><trkpt lat="33.7741665" lon="7.7500426"><ele>23.0</ele><time>2026-04-18T12:04:29.365Z</time></trkpt><trkpt lat="33.7743396" lon="7.7501028"><ele>23.0</ele><time>2026-04-18T12:04:30.368Z</time></trkpt><trkpt lat="33.7745128" lon="7.7501619"><ele>23.0</ele><time>2026-04-18T12:04:31.366Z</time></trkpt><trkpt lat="33.7746878" lon="7.7502187"><ele>23.0</ele><time>2026-04-18T12:04:32.36Z</time></trkpt><trkpt lat="33.7748658" lon="7.7502756"><ele>22.666666666666668</ele><time>2026-04-18T12:04:33.366Z</time></trkpt><trkpt lat="33.7750458" lon="7.7503327"><ele>22.333333333333332</ele><time>2026-04-18T12:04:34.361Z</time></trkpt><trkpt lat="33.7752273" lon="7.7503912"><ele>22.0</ele><time>2026-04-18T12:04:35.367Z</time></trkpt><trkpt lat="33.7754072" lon="7.7504513"><ele>22.0</ele><time>2026-04-18T12:04:36.373Z</time></trkpt><trkpt lat="33.7755806" lon="7.7505103"><ele>22.0</ele><time>2026-04-18T12:04:37.368Z</time></trkpt><trkpt lat="33.7757505" lon="7.7505673"><ele>22.0</ele><time>2026-04-18T12:04:38.37Z</time></trkpt><trkpt lat="33.7759164" lon="7.7506233"><ele>22.333333333333332</ele><time>2026-04-18T12:04:39.367Z</time></trkpt><trkpt lat="33.7760768" lon="7.7506796"><ele>22.666666666666668</ele><time>2026-04-18T12:04:40.369Z</time></trkpt><trkpt lat="33.7762299" lon="7.7507319"><ele>23.0</ele><time>2026-04-18T12:04:41.379Z</time></trkpt><trkpt lat="33.7763795" lon="7.7507848"><ele>23.0</ele><time>2026-04-18T12:04:42.365Z</time></trkpt><trkpt lat="33.7765303" lon="7.7508365"><ele>23.0</ele><time>2026-04-18T12:04:43.362Z</time></trkpt><trkpt lat="33.7766746" lon="7.7508856"><ele>23.0</ele><time>2026-04-18T12:04:44.371Z</time></trkpt><trkpt lat="33.7768121" lon="7.7509336"><ele>23.333333333333336</ele><time>2026-04-18T12:04:45.364Z</time></trkpt><trkpt lat="33.7769521" lon="7.750985"><ele>23.666666666666668</ele><time>2026-04-18T12:04:46.36Z</time></trkpt><trkpt lat="33.7770984" lon="7.7510374"><ele>24.0</ele><time>2026-04-18T12:04:47.367Z</time></trkpt><trkpt lat="33.7772552" lon="7.7510886"><ele>24.0</ele><time>2026-04-18T12:04:48.37Z</time></trkpt><trkpt lat="33.777406" lon="7.751131"><ele>24.0</ele><time>2026-04-18T12:04:49.378Z</time></trkpt><trkpt lat="33.777556" lon="7.7511725"><ele>24.0</ele><time>2026-04-18T12:04:50.361Z</time></trkpt><trkpt lat="33.7777015" lon="7.7512203"><ele>24.333333333333336</ele><time>2026-04-18T12:04:51.373Z</time></trkpt><trkpt lat="33.7778485" lon="7.75127"><ele>24.666666666666668</ele><time>2026-04-18T12:04:52.364Z</time></trkpt><trkpt lat="33.7779972" lon="7.7513169"><ele>25.0</ele><time>2026-04-18T12:04:53.377Z</time></trkpt><trkpt lat="33.7781399" lon="7.7513583"><ele>25.0</ele><time>2026-04-18T12:04:54.357Z</time></trkpt><trkpt lat="33.7782814" lon="7.7514058"><ele>25.0</ele><time>2026-04-18T12:04:55.37Z</time></trkpt><trkpt lat="33.7784147" lon="7.7514527"><ele>25.0</ele><time>2026-04-18T12:04:56.365Z</time></trkpt><trkpt lat="33.7785514" lon="7.7514994"><ele>25.0</ele><time>2026-04-18T12:04:57.366Z</time></trkpt><trkpt lat="33.7786854" lon="7.7515482"><ele>24.25</ele><time>2026-04-18T12:04:58.367Z</time></trkpt><trkpt lat="33.7788221" lon="7.7515955"><ele>23.5</ele><time>2026-04-18T12:04:59.375Z</time></trkpt><trkpt lat="33.7789618" lon="7.7516431"><ele>22.75</ele><time>2026-04-18T12:05:00.363Z</time></trkpt><trkpt lat="33.7791037" lon="7.7516898"><ele>22.0</ele><time>2026-04-18T12:05:01.378Z</time></trkpt><trkpt lat="33.779248" lon="7.7517382"><ele>22.0</ele><time>2026-04-18T12:05:02.365Z</time></trkpt><trkpt lat="33.7793987" lon="7.7517866"><ele>22.0</ele><time>2026-04-18T12:05:03.376Z</time></trkpt><trkpt lat="33.7795433" lon="7.751834"><ele>22.0</ele><time>2026-04-18T12:05:04.371Z</time></trkpt><trkpt lat="33.7796772" lon="7.751877"><ele>22.0</ele><time>2026-04-18T12:05:05.371Z</time></trkpt><trkpt lat="33.7798108" lon="7.7519233"><ele>21.75</ele><time>2026-04-18T12:05:06.38Z</time></trkpt><trkpt lat="33.7799453" lon="7.7519818"><ele>21.5</ele><time>2026-04-18T12:05:07.368Z</time></trkpt><trkpt lat="33.7800892" lon="7.7520307"><ele>21.25</ele><time>2026-04-18T12:05:08.365Z</time></trkpt><trkpt lat="33.7802323" lon="7.7520809"><ele>21.0</ele><time>2026-04-18T12:05:09.365Z</time></trkpt><trkpt lat="33.7803733" lon="7.7521325"><ele>20.75</ele><time>2026-04-18T12:05:10.361Z</time></trkpt><trkpt lat="33.7805143" lon="7.7521787"><ele>20.5</ele><time>2026-04-18T12:05:11.372Z</time></trkpt><trkpt lat="33.7806563" lon="7.7522249"><ele>20.25</ele><time>2026-04-18T12:05:12.368Z</time></trkpt><trkpt lat="33.7807991" lon="7.7522716"><ele>20.0</ele><time>2026-04-18T12:05:13.372Z</time></trkpt><trkpt lat="33.7809408" lon="7.7523206"><ele>20.25</ele><time>2026-04-18T12:05:14.37Z</time></trkpt><trkpt lat="33.7810819" lon="7.7523674"><ele>20.5</ele><time>2026-04-18T12:05:15.369Z</time></trkpt><trkpt lat="33.7812241" lon="7.7524179"><ele>20.75</ele><time>2026-04-18T12:05:16.37Z</time></trkpt><trkpt lat="33.7813674" lon="7.7524652"><ele>21.0</ele><time>2026-04-18T12:05:17.364Z</time></trkpt><trkpt lat="33.7815113" lon="7.7525133"><ele>21.0</ele><time>2026-04-18T12:05:18.37Z</time></trkpt><trkpt lat="33.7816552" lon="7.7525637"><ele>21.0</ele><time>2026-04-18T12:05:19.367Z</time></trkpt><trkpt lat="33.7818041" lon="7.7526162"><ele>21.0</ele><time>2026-04-18T12:05:20.368Z</time></trkpt><trkpt lat="33.7819554" lon="7.752671"><ele>21.0</ele><time>2026-04-18T12:05:21.363Z</time></trkpt><trkpt lat="33.7821072" lon="7.7527245"><ele>21.0</ele><time>2026-04-18T12:05:22.38Z</time></trkpt><trkpt lat="33.7822643" lon="7.7527778"><ele>21.0</ele><time>2026-04-18T12:05:23.37Z</time></trkpt><trkpt lat="33.7824247" lon="7.7528338"><ele>21.0</ele><time>2026-04-18T12:05:24.365Z</time></trkpt><trkpt lat="33.7825869" lon="7.7528907"><ele>21.0</ele><time>2026-04-18T12:05:25.378Z</time></trkpt><trkpt lat="33.7827455" lon="7.752945"><ele>21.0</ele><time>2026-04-18T12:05:26.363Z</time></trkpt><trkpt lat="33.7828978" lon="7.7529966"><ele>21.333333333333332</ele><time>2026-04-18T12:05:27.362Z</time></trkpt><trkpt lat="33.7830523" lon="7.753048"><ele>21.666666666666664</ele><time>2026-04-18T12:05:28.371Z</time></trkpt><trkpt lat="33.7832132" lon="7.7530989"><ele>22.0</ele><time>2026-04-18T12:05:29.362Z</time></trkpt><trkpt lat="33.7833772" lon="7.7531507"><ele>22.333333333333332</ele><time>2026-04-18T12:05:30.369Z</time></trkpt><trkpt lat="33.7835456" lon="7.7532013"><ele>22.666666666666668</ele><time>2026-04-18T12:05:31.368Z</time></trkpt><trkpt lat="33.7837145" lon="7.75325"><ele>23.0</ele><time>2026-04-18T12:05:32.367Z</time></trkpt><trkpt lat="33.7838833" lon="7.7533009"><ele>23.0</ele><time>2026-04-18T12:05:33.359Z</time></trkpt><trkpt lat="33.7840542" lon="7.7533531"><ele>23.0</ele><time>2026-04-18T12:05:34.366Z</time></trkpt><trkpt lat="33.7842235" lon="7.7534061"><ele>23.0</ele><time>2026-04-18T12:05:35.357Z</time></trkpt><trkpt lat="33.7843887" lon="7.7534593"><ele>22.666666666666668</ele><time>2026-04-18T12:05:36.362Z</time></trkpt><trkpt lat="33.7845528" lon="7.7535117"><ele>22.333333333333332</ele><time>2026-04-18T12:05:37.37Z</time></trkpt><trkpt lat="33.7847188" lon="7.7535654"><ele>22.0</ele><time>2026-04-18T12:05:38.361Z</time></trkpt><trkpt lat="33.784884" lon="7.7536224"><ele>21.666666666666664</ele><time>2026-04-18T12:05:39.368Z</time></trkpt><trkpt lat="33.7850533" lon="7.7536791"><ele>21.333333333333332</ele><time>2026-04-18T12:05:40.362Z</time></trkpt><trkpt lat="33.7852231" lon="7.7537264"><ele>21.0</ele><time>2026-04-18T12:05:41.37Z</time></trkpt><trkpt lat="33.7853988" lon="7.7537866"><ele>21.0</ele><time>2026-04-18T12:05:42.363Z</time></trkpt><trkpt lat="33.7855769" lon="7.7538436"><ele>21.0</ele><time>2026-04-18T12:05:43.373Z</time></trkpt><trkpt lat="33.7857469" lon="7.7539044"><ele>21.0</ele><time>2026-04-18T12:05:44.365Z</time></trkpt><trkpt lat="33.7859196" lon="7.7539608"><ele>21.333333333333332</ele><time>2026-04-18T12:05:45.368Z</time></trkpt><trkpt lat="33.7861017" lon="7.7540188"><ele>21.666666666666664</ele><time>2026-04-18T12:05:46.365Z</time></trkpt><trkpt lat="33.7862825" lon="7.7540812"><ele>22.0</ele><time>2026-04-18T12:05:47.362Z</time></trkpt><trkpt lat="33.786469" lon="7.7541443"><ele>22.0</ele><time>2026-04-18T12:05:48.367Z</time></trkpt><trkpt lat="33.7866523" lon="7.7542115"><ele>22.0</ele><time>2026-04-18T12:05:49.376Z</time></trkpt><trkpt lat="33.7868326" lon="7.7542772"><ele>22.0</ele><time>2026-04-18T12:05:50.369Z</time></trkpt><trkpt lat="33.7870131" lon="7.7543419"><ele>21.666666666666664</ele><time>2026-04-18T12:05:51.362Z</time></trkpt><trkpt lat="33.7871957" lon="7.7544092"><ele>21.333333333333332</ele><time>2026-04-18T12:05:52.371Z</time></trkpt><trkpt lat="33.7873706" lon="7.7544761"><ele>21.0</ele><time>2026-04-18T12:05:53.368Z</time></trkpt><trkpt lat="33.7875504" lon="7.7545425"><ele>21.0</ele><time>2026-04-18T12:05:54.358Z</time></trkpt><trkpt lat="33.7877319" lon="7.7546106"><ele>21.0</ele><time>2026-04-18T12:05:55.363Z</time></trkpt><trkpt lat="33.78792" lon="7.7546811"><ele>21.0</ele><time>2026-04-18T12:05:56.365Z</time></trkpt><trkpt lat="33.788112" lon="7.7547517"><ele>21.0</ele><time>2026-04-18T12:05:57.368Z</time></trkpt><trkpt lat="33.7883068" lon="7.7548252"><ele>21.0</ele><time>2026-04-18T12:05:58.363Z</time></trkpt><trkpt lat="33.7885046" lon="7.7548949"><ele>21.0</ele><time>2026-04-18T12:05:59.363Z</time></trkpt><trkpt lat="33.7887044" lon="7.7549652"><ele>20.666666666666668</ele><time>2026-04-18T12:06:00.357Z</time></trkpt><trkpt lat="33.7889054" lon="7.7550382"><ele>20.333333333333336</ele><time>2026-04-18T12:06:01.36Z</time></trkpt><trkpt lat="33.7891088" lon="7.7551126"><ele>20.0</ele><time>2026-04-18T12:06:02.359Z</time></trkpt><trkpt lat="33.7893138" lon="7.7551843"><ele>20.333333333333336</ele><time>2026-04-18T12:06:03.36Z</time></trkpt><trkpt lat="33.7895206" lon="7.7552548"><ele>20.666666666666668</ele><time>2026-04-18T12:06:04.365Z</time></trkpt><trkpt lat="33.7897293" lon="7.7553267"><ele>21.0</ele><time>2026-04-18T12:06:05.361Z</time></trkpt><trkpt lat="33.7899358" lon="7.7554007"><ele>21.0</ele><time>2026-04-18T12:06:06.356Z</time></trkpt><trkpt lat="33.7901411" lon="7.7554771"><ele>21.0</ele><time>2026-04-18T12:06:07.367Z</time></trkpt><trkpt lat="33.7903446" lon="7.7555555"><ele>21.0</ele><time>2026-04-18T12:06:08.36Z</time></trkpt><trkpt lat="33.7905432" lon="7.7556375"><ele>21.0</ele><time>2026-04-18T12:06:09.37Z</time></trkpt><trkpt lat="33.7907382" lon="7.7557184"><ele>21.0</ele><time>2026-04-18T12:06:10.359Z</time></trkpt><trkpt lat="33.7909311" lon="7.7557923"><ele>21.0</ele><time>2026-04-18T12:06:11.368Z</time></trkpt><trkpt lat="33.7911224" lon="7.7558663"><ele>21.0</ele><time>2026-04-18T12:06:12.364Z</time></trkpt><trkpt lat="33.7913175" lon="7.7559389"><ele>21.0</ele><time>2026-04-18T12:06:13.37Z</time></trkpt><trkpt lat="33.7915124" lon="7.7560171"><ele>21.0</ele><time>2026-04-18T12:06:14.367Z</time></trkpt><trkpt lat="33.7917072" lon="7.7560994"><ele>20.666666666666668</ele><time>2026-04-18T12:06:15.367Z</time></trkpt><trkpt lat="33.7919007" lon="7.7561845"><ele>20.333333333333336</ele><time>2026-04-18T12:06:16.37Z</time></trkpt><trkpt lat="33.7920914" lon="7.7562723"><ele>20.0</ele><time>2026-04-18T12:06:17.361Z</time></trkpt><trkpt lat="33.792261" lon="7.7563419"><ele>20.0</ele><time>2026-04-18T12:06:18.362Z</time></trkpt><trkpt lat="33.7924257" lon="7.7564021"><ele>20.0</ele><time>2026-04-18T12:06:19.366Z</time></trkpt><trkpt lat="33.7925672" lon="7.7564721"><ele>20.0</ele><time>2026-04-18T12:06:20.365Z</time></trkpt><trkpt lat="33.7927184" lon="7.7565435"><ele>20.333333333333336</ele><time>2026-04-18T12:06:21.365Z</time></trkpt><trkpt lat="33.7928684" lon="7.7566157"><ele>20.666666666666668</ele><time>2026-04-18T12:06:22.369Z</time></trkpt><trkpt lat="33.7930207" lon="7.7566984"><ele>21.0</ele><time>2026-04-18T12:06:23.365Z</time></trkpt><trkpt lat="33.7931856" lon="7.7567784"><ele>21.0</ele><time>2026-04-18T12:06:24.355Z</time></trkpt><trkpt lat="33.7933533" lon="7.7568626"><ele>21.0</ele><time>2026-04-18T12:06:25.367Z</time></trkpt><trkpt lat="33.7935256" lon="7.7569499"><ele>21.0</ele><time>2026-04-18T12:06:26.363Z</time></trkpt><trkpt lat="33.7936976" lon="7.7570388"><ele>21.0</ele><time>2026-04-18T12:06:27.366Z</time></trkpt><trkpt lat="33.7938685" lon="7.7571355"><ele>21.0</ele><time>2026-04-18T12:06:28.371Z</time></trkpt><trkpt lat="33.7940362" lon="7.7572417"><ele>21.0</ele><time>2026-04-18T12:06:29.358Z</time></trkpt><trkpt lat="33.7942028" lon="7.7573601"><ele>21.333333333333332</ele><time>2026-04-18T12:06:30.362Z</time></trkpt><trkpt lat="33.7943598" lon="7.757486"><ele>21.666666666666664</ele><time>2026-04-18T12:06:31.371Z</time></trkpt><trkpt lat="33.7945041" lon="7.757609"><ele>22.0</ele><time>2026-04-18T12:06:32.356Z</time></trkpt><trkpt lat="33.7946393" lon="7.7577283"><ele>21.333333333333332</ele><time>2026-04-18T12:06:33.366Z</time></trkpt><trkpt lat="33.7947721" lon="7.7578344"><ele>20.666666666666668</ele><time>2026-04-18T12:06:34.376Z</time></trkpt><trkpt lat="33.7949033" lon="7.7579186"><ele>20.0</ele><time>2026-04-18T12:06:35.361Z</time></trkpt><trkpt lat="33.7950401" lon="7.7579843"><ele>20.0</ele><time>2026-04-18T12:06:36.369Z</time></trkpt><trkpt lat="33.7951876" lon="7.7580301"><ele>20.0</ele><time>2026-04-18T12:06:37.373Z</time></trkpt><trkpt lat="33.7953481" lon="7.7580591"><ele>20.0</ele><time>2026-04-18T12:06:38.361Z</time></trkpt><trkpt lat="33.7955209" lon="7.7580827"><ele>20.0</ele><time>2026-04-18T12:06:39.372Z</time></trkpt><trkpt lat="33.7957017" lon="7.7581065"><ele>20.0</ele><time>2026-04-18T12:06:40.369Z</time></trkpt><trkpt lat="33.7958905" lon="7.7581352"><ele>20.0</ele><time>2026-04-18T12:06:41.365Z</time></trkpt><trkpt lat="33.7960858" lon="7.7581695"><ele>20.0</ele><time>2026-04-18T12:06:42.362Z</time></trkpt><trkpt lat="33.796288" lon="7.758203"><ele>20.0</ele><time>2026-04-18T12:06:43.371Z</time></trkpt><trkpt lat="33.7964942" lon="7.7582404"><ele>20.0</ele><time>2026-04-18T12:06:44.373Z</time></trkpt><trkpt lat="33.7967066" lon="7.758285"><ele>20.333333333333336</ele><time>2026-04-18T12:06:45.364Z</time></trkpt><trkpt lat="33.7969169" lon="7.7583394"><ele>20.666666666666668</ele><time>2026-04-18T12:06:46.37Z</time></trkpt><trkpt lat="33.7971211" lon="7.7584022"><ele>21.0</ele><time>2026-04-18T12:06:47.372Z</time></trkpt><trkpt lat="33.7973226" lon="7.7584729"><ele>21.0</ele><time>2026-04-18T12:06:48.36Z</time></trkpt><trkpt lat="33.7975224" lon="7.7585494"><ele>21.0</ele><time>2026-04-18T12:06:49.366Z</time></trkpt><trkpt lat="33.7977239" lon="7.7586301"><ele>21.0</ele><time>2026-04-18T12:06:50.36Z</time></trkpt><trkpt lat="33.797929" lon="7.7587145"><ele>21.0</ele><time>2026-04-18T12:06:51.358Z</time></trkpt><trkpt lat="33.7981368" lon="7.7588026"><ele>21.0</ele><time>2026-04-18T12:06:52.358Z</time></trkpt><trkpt lat="33.7983457" lon="7.7588924"><ele>21.0</ele><time>2026-04-18T12:06:53.361Z</time></trkpt><trkpt lat="33.798555" lon="7.7589832"><ele>21.0</ele><time>2026-04-18T12:06:54.371Z</time></trkpt><trkpt lat="33.7987695" lon="7.759074"><ele>21.0</ele><time>2026-04-18T12:06:55.37Z</time></trkpt><trkpt lat="33.7989735" lon="7.7591703"><ele>21.0</ele><time>2026-04-18T12:06:56.366Z</time></trkpt><trkpt lat="33.7991806" lon="7.7592679"><ele>21.0</ele><time>2026-04-18T12:06:57.367Z</time></trkpt><trkpt lat="33.799388" lon="7.7593687"><ele>21.0</ele><time>2026-04-18T12:06:58.367Z</time></trkpt><trkpt lat="33.7995976" lon="7.75946"><ele>21.0</ele><time>2026-04-18T12:06:59.36Z</time></trkpt><trkpt lat="33.7998086" lon="7.759547"><ele>21.0</ele><time>2026-04-18T12:07:00.373Z</time></trkpt><trkpt lat="33.8000191" lon="7.7596288"><ele>21.0</ele><time>2026-04-18T12:07:01.364Z</time></trkpt><trkpt lat="33.8002318" lon="7.7597091"><ele>21.0</ele><time>2026-04-18T12:07:02.372Z</time></trkpt><trkpt lat="33.8004367" lon="7.7597899"><ele>20.666666666666668</ele><time>2026-04-18T12:07:03.369Z</time></trkpt><trkpt lat="33.800637" lon="7.7598672"><ele>20.333333333333336</ele><time>2026-04-18T12:07:04.364Z</time></trkpt><trkpt lat="33.8008351" lon="7.7599447"><ele>20.0</ele><time>2026-04-18T12:07:05.37Z</time></trkpt><trkpt lat="33.8010304" lon="7.7600209"><ele>20.0</ele><time>2026-04-18T12:07:06.367Z</time></trkpt><trkpt lat="33.8012233" lon="7.7600956"><ele>20.0</ele><time>2026-04-18T12:07:07.375Z</time></trkpt><trkpt lat="33.8014077" lon="7.760167"><ele>20.0</ele><time>2026-04-18T12:07:08.366Z</time></trkpt><trkpt lat="33.8015763" lon="7.7602322"><ele>20.0</ele><time>2026-04-18T12:07:09.362Z</time></trkpt><trkpt lat="33.80173" lon="7.7602917"><ele>20.0</ele><time>2026-04-18T12:07:10.366Z</time></trkpt><trkpt lat="33.8018647" lon="7.7603452"><ele>20.0</ele><time>2026-04-18T12:07:11.364Z</time></trkpt><trkpt lat="33.8019844" lon="7.7603934"><ele>20.0</ele><time>2026-04-18T12:07:12.365Z</time></trkpt><trkpt lat="33.8020869" lon="7.7604327"><ele>20.5</ele><time>2026-04-18T12:07:13.364Z</time></trkpt><trkpt lat="33.8021789" lon="7.7604678"><ele>21.0</ele><time>2026-04-18T12:07:14.37Z</time></trkpt><trkpt lat="33.8022617" lon="7.7604978"><ele>21.5</ele><time>2026-04-18T12:07:15.368Z</time></trkpt><trkpt lat="33.8023343" lon="7.7605251"><ele>22.0</ele><time>2026-04-18T12:07:16.373Z</time></trkpt><trkpt lat="33.8024026" lon="7.7605504"><ele>22.5</ele><time>2026-04-18T12:07:17.375Z</time></trkpt><trkpt lat="33.8024649" lon="7.7605692"><ele>23.0</ele><time>2026-04-18T12:07:18.371Z</time></trkpt><trkpt lat="33.8025753" lon="7.760608"><ele>23.0</ele><time>2026-04-18T12:07:20.37Z</time></trkpt><trkpt lat="33.8026479" lon="7.760632"><ele>23.0</ele><time>2026-04-18T12:07:22.368Z</time></trkpt><trkpt lat="33.8027311" lon="7.7606655"><ele>23.0</ele><time>2026-04-18T12:07:36.375Z</time></trkpt><trkpt lat="33.8028054" lon="7.7606946"><ele>23.0</ele><time>2026-04-18T12:07:37.366Z</time></trkpt><trkpt lat="33.8029052" lon="7.7607346"><ele>23.0</ele><time>2026-04-18T12:07:38.373Z</time></trkpt><trkpt lat="33.8030059" lon="7.7607728"><ele>22.799999999999997</ele><time>2026-04-18T12:07:39.367Z</time></trkpt><trkpt lat="33.8031085" lon="7.7608093"><ele>22.6</ele><time>2026-04-18T12:07:40.374Z</time></trkpt><trkpt lat="33.8031995" lon="7.7608466"><ele>22.4</ele><time>2026-04-18T12:07:41.363Z</time></trkpt><trkpt lat="33.8032789" lon="7.760881"><ele>22.200000000000003</ele><time>2026-04-18T12:07:42.366Z</time></trkpt><trkpt lat="33.8033565" lon="7.7609122"><ele>22.0</ele><time>2026-04-18T12:07:43.368Z</time></trkpt><trkpt lat="33.8034396" lon="7.7609437"><ele>21.8</ele><time>2026-04-18T12:07:44.374Z</time></trkpt><trkpt lat="33.8035259" lon="7.7609745"><ele>21.6</ele><time>2026-04-18T12:07:45.365Z</time></trkpt><trkpt lat="33.8036175" lon="7.761009"><ele>21.400000000000002</ele><time>2026-04-18T12:07:46.369Z</time></trkpt><trkpt lat="33.8037154" lon="7.7610435"><ele>21.200000000000003</ele><time>2026-04-18T12:07:47.365Z</time></trkpt><trkpt lat="33.8038211" lon="7.7610767"><ele>21.0</ele><time>2026-04-18T12:07:48.363Z</time></trkpt><trkpt lat="33.8039356" lon="7.7611113"><ele>21.0</ele><time>2026-04-18T12:07:49.373Z</time></trkpt><trkpt lat="33.8040529" lon="7.7611502"><ele>21.0</ele><time>2026-04-18T12:07:50.368Z</time></trkpt><trkpt lat="33.804173" lon="7.7611906"><ele>21.0</ele><time>2026-04-18T12:07:51.372Z</time></trkpt><trkpt lat="33.8042969" lon="7.761228"><ele>21.0</ele><time>2026-04-18T12:07:52.37Z</time></trkpt><trkpt lat="33.804424" lon="7.761267"><ele>21.0</ele><time>2026-04-18T12:07:53.367Z</time></trkpt><trkpt lat="33.8045532" lon="7.7613077"><ele>21.0</ele><time>2026-04-18T12:07:54.36Z</time></trkpt><trkpt lat="33.8046865" lon="7.7613497"><ele>21.0</ele><time>2026-04-18T12:07:55.363Z</time></trkpt><trkpt lat="33.8048285" lon="7.7614003"><ele>21.0</ele><time>2026-04-18T12:07:56.379Z</time></trkpt><trkpt lat="33.8049706" lon="7.7614531"><ele>21.0</ele><time>2026-04-18T12:07:57.383Z</time></trkpt><trkpt lat="33.8051167" lon="7.7615072"><ele>21.0</ele><time>2026-04-18T12:07:58.36Z</time></trkpt><trkpt lat="33.8052638" lon="7.7615633"><ele>21.0</ele><time>2026-04-18T12:07:59.367Z</time></trkpt><trkpt lat="33.8054116" lon="7.761618"><ele>21.666666666666668</ele><time>2026-04-18T12:08:00.367Z</time></trkpt><trkpt lat="33.8055614" lon="7.7616735"><ele>22.333333333333336</ele><time>2026-04-18T12:08:01.361Z</time></trkpt><trkpt lat="33.8057103" lon="7.7617298"><ele>23.0</ele><time>2026-04-18T12:08:02.377Z</time></trkpt><trkpt lat="33.8058607" lon="7.7617854"><ele>22.666666666666668</ele><time>2026-04-18T12:08:03.38Z</time></trkpt><trkpt lat="33.8060134" lon="7.7618379"><ele>22.333333333333332</ele><time>2026-04-18T12:08:04.388Z</time></trkpt><trkpt lat="33.8061677" lon="7.7618918"><ele>22.0</ele><time>2026-04-18T12:08:05.376Z</time></trkpt><trkpt lat="33.8063238" lon="7.7619456"><ele>21.666666666666664</ele><time>2026-04-18T12:08:06.373Z</time></trkpt><trkpt lat="33.8064783" lon="7.7619975"><ele>21.333333333333332</ele><time>2026-04-18T12:08:07.362Z</time></trkpt><trkpt lat="33.8066332" lon="7.7620504"><ele>21.0</ele><time>2026-04-18T12:08:08.367Z</time></trkpt><trkpt lat="33.8067899" lon="7.7621048"><ele>20.666666666666668</ele><time>2026-04-18T12:08:09.363Z</time></trkpt><trkpt lat="33.8069459" lon="7.7621617"><ele>20.333333333333336</ele><time>2026-04-18T12:08:10.365Z</time></trkpt><trkpt lat="33.8071008" lon="7.7622175"><ele>20.0</ele><time>2026-04-18T12:08:11.373Z</time></trkpt><trkpt lat="33.807254" lon="7.7622699"><ele>20.0</ele><time>2026-04-18T12:08:12.367Z</time></trkpt><trkpt lat="33.8074047" lon="7.7623196"><ele>20.0</ele><time>2026-04-18T12:08:13.366Z</time></trkpt><trkpt lat="33.8075557" lon="7.7623694"><ele>20.0</ele><time>2026-04-18T12:08:14.365Z</time></trkpt><trkpt lat="33.8077057" lon="7.7624205"><ele>19.666666666666668</ele><time>2026-04-18T12:08:15.376Z</time></trkpt><trkpt lat="33.8078566" lon="7.7624698"><ele>19.333333333333332</ele><time>2026-04-18T12:08:16.364Z</time></trkpt><trkpt lat="33.8080085" lon="7.7625206"><ele>19.0</ele><time>2026-04-18T12:08:17.364Z</time></trkpt><trkpt lat="33.8081618" lon="7.7625748"><ele>19.0</ele><time>2026-04-18T12:08:18.37Z</time></trkpt><trkpt lat="33.8083173" lon="7.7626307"><ele>19.0</ele><time>2026-04-18T12:08:19.373Z</time></trkpt><trkpt lat="33.8084738" lon="7.7626861"><ele>19.0</ele><time>2026-04-18T12:08:20.368Z</time></trkpt><trkpt lat="33.8086318" lon="7.7627441"><ele>20.333333333333332</ele><time>2026-04-18T12:08:21.369Z</time></trkpt><trkpt lat="33.8087913" lon="7.762806"><ele>21.666666666666668</ele><time>2026-04-18T12:08:22.377Z</time></trkpt><trkpt lat="33.8089532" lon="7.7628687"><ele>23.0</ele><time>2026-04-18T12:08:23.364Z</time></trkpt><trkpt lat="33.8091176" lon="7.7629316"><ele>23.0</ele><time>2026-04-18T12:08:24.375Z</time></trkpt><trkpt lat="33.8092809" lon="7.7629963"><ele>23.0</ele><time>2026-04-18T12:08:25.369Z</time></trkpt><trkpt lat="33.8094469" lon="7.7630651"><ele>23.0</ele><time>2026-04-18T12:08:26.369Z</time></trkpt><trkpt lat="33.8096161" lon="7.7631355"><ele>22.333333333333336</ele><time>2026-04-18T12:08:27.376Z</time></trkpt><trkpt lat="33.8097891" lon="7.7632067"><ele>21.666666666666668</ele><time>2026-04-18T12:08:28.377Z</time></trkpt><trkpt lat="33.8099648" lon="7.7632776"><ele>21.0</ele><time>2026-04-18T12:08:29.365Z</time></trkpt><trkpt lat="33.8101422" lon="7.7633495"><ele>20.666666666666668</ele><time>2026-04-18T12:08:30.38Z</time></trkpt><trkpt lat="33.8103217" lon="7.7634205"><ele>20.333333333333336</ele><time>2026-04-18T12:08:31.373Z</time></trkpt><trkpt lat="33.810502" lon="7.7634929"><ele>20.0</ele><time>2026-04-18T12:08:32.374Z</time></trkpt><trkpt lat="33.8106818" lon="7.7635686"><ele>20.0</ele><time>2026-04-18T12:08:33.369Z</time></trkpt><trkpt lat="33.8108622" lon="7.7636446"><ele>20.0</ele><time>2026-04-18T12:08:34.361Z</time></trkpt><trkpt lat="33.8110466" lon="7.7637178"><ele>20.0</ele><time>2026-04-18T12:08:35.365Z</time></trkpt><trkpt lat="33.8112327" lon="7.7637893"><ele>20.333333333333336</ele><time>2026-04-18T12:08:36.365Z</time></trkpt><trkpt lat="33.8114216" lon="7.7638599"><ele>20.666666666666668</ele><time>2026-04-18T12:08:37.367Z</time></trkpt><trkpt lat="33.8116095" lon="7.763931"><ele>21.0</ele><time>2026-04-18T12:08:38.371Z</time></trkpt><trkpt lat="33.8117955" lon="7.7640012"><ele>20.666666666666668</ele><time>2026-04-18T12:08:39.367Z</time></trkpt><trkpt lat="33.8119813" lon="7.76407"><ele>20.333333333333336</ele><time>2026-04-18T12:08:40.367Z</time></trkpt><trkpt lat="33.812168" lon="7.7641353"><ele>20.0</ele><time>2026-04-18T12:08:41.366Z</time></trkpt><trkpt lat="33.8123549" lon="7.7641974"><ele>20.0</ele><time>2026-04-18T12:08:42.375Z</time></trkpt><trkpt lat="33.8125428" lon="7.764257"><ele>20.0</ele><time>2026-04-18T12:08:43.37Z</time></trkpt><trkpt lat="33.8127319" lon="7.7643164"><ele>20.0</ele><time>2026-04-18T12:08:44.382Z</time></trkpt><trkpt lat="33.8129229" lon="7.7643766"><ele>20.333333333333336</ele><time>2026-04-18T12:08:45.372Z</time></trkpt><trkpt lat="33.813114" lon="7.7644375"><ele>20.666666666666668</ele><time>2026-04-18T12:08:46.369Z</time></trkpt><trkpt lat="33.8133075" lon="7.7644997"><ele>21.0</ele><time>2026-04-18T12:08:47.367Z</time></trkpt><trkpt lat="33.8135023" lon="7.764565"><ele>21.0</ele><time>2026-04-18T12:08:48.365Z</time></trkpt><trkpt lat="33.8136944" lon="7.7646308"><ele>21.0</ele><time>2026-04-18T12:08:49.373Z</time></trkpt><trkpt lat="33.8138845" lon="7.7646951"><ele>21.0</ele><time>2026-04-18T12:08:50.362Z</time></trkpt><trkpt lat="33.8140739" lon="7.764759"><ele>21.0</ele><time>2026-04-18T12:08:51.37Z</time></trkpt><trkpt lat="33.8142615" lon="7.7648222"><ele>21.0</ele><time>2026-04-18T12:08:52.366Z</time></trkpt><trkpt lat="33.8144466" lon="7.7648853"><ele>21.0</ele><time>2026-04-18T12:08:53.364Z</time></trkpt><trkpt lat="33.8146277" lon="7.7649488"><ele>21.0</ele><time>2026-04-18T12:08:54.367Z</time></trkpt><trkpt lat="33.8148057" lon="7.7650134"><ele>21.0</ele><time>2026-04-18T12:08:55.374Z</time></trkpt><trkpt lat="33.814981" lon="7.7650785"><ele>21.0</ele><time>2026-04-18T12:08:56.366Z</time></trkpt><trkpt lat="33.8151561" lon="7.7651418"><ele>20.666666666666668</ele><time>2026-04-18T12:08:57.374Z</time></trkpt><trkpt lat="33.8153326" lon="7.7652041"><ele>20.333333333333336</ele><time>2026-04-18T12:08:58.391Z</time></trkpt><trkpt lat="33.8155138" lon="7.7652597"><ele>20.0</ele><time>2026-04-18T12:08:59.365Z</time></trkpt><trkpt lat="33.8156856" lon="7.7653132"><ele>20.0</ele><time>2026-04-18T12:09:00.361Z</time></trkpt><trkpt lat="33.8158606" lon="7.7653773"><ele>20.0</ele><time>2026-04-18T12:09:01.368Z</time></trkpt><trkpt lat="33.8160297" lon="7.7654352"><ele>20.0</ele><time>2026-04-18T12:09:02.361Z</time></trkpt><trkpt lat="33.8161909" lon="7.7654964"><ele>20.333333333333336</ele><time>2026-04-18T12:09:03.367Z</time></trkpt><trkpt lat="33.81635" lon="7.7655567"><ele>20.666666666666668</ele><time>2026-04-18T12:09:04.366Z</time></trkpt><trkpt lat="33.8165014" lon="7.7656184"><ele>21.0</ele><time>2026-04-18T12:09:05.365Z</time></trkpt><trkpt lat="33.8166578" lon="7.7656859"><ele>21.0</ele><time>2026-04-18T12:09:06.373Z</time></trkpt><trkpt lat="33.8168141" lon="7.7657484"><ele>21.0</ele><time>2026-04-18T12:09:07.379Z</time></trkpt><trkpt lat="33.8169771" lon="7.7658118"><ele>21.0</ele><time>2026-04-18T12:09:08.365Z</time></trkpt><trkpt lat="33.8171323" lon="7.7658771"><ele>20.333333333333332</ele><time>2026-04-18T12:09:09.381Z</time></trkpt><trkpt lat="33.8172838" lon="7.7659448"><ele>19.666666666666664</ele><time>2026-04-18T12:09:10.367Z</time></trkpt><trkpt lat="33.8174372" lon="7.7660049"><ele>19.0</ele><time>2026-04-18T12:09:11.36Z</time></trkpt><trkpt lat="33.8175965" lon="7.7660651"><ele>19.0</ele><time>2026-04-18T12:09:12.368Z</time></trkpt><trkpt lat="33.8177569" lon="7.7661133"><ele>19.0</ele><time>2026-04-18T12:09:13.367Z</time></trkpt><trkpt lat="33.8179298" lon="7.7661548"><ele>19.0</ele><time>2026-04-18T12:09:14.363Z</time></trkpt><trkpt lat="33.8180998" lon="7.7661949"><ele>19.0</ele><time>2026-04-18T12:09:15.383Z</time></trkpt><trkpt lat="33.8182768" lon="7.7662345"><ele>19.0</ele><time>2026-04-18T12:09:16.378Z</time></trkpt><trkpt lat="33.8184465" lon="7.7662762"><ele>19.0</ele><time>2026-04-18T12:09:17.365Z</time></trkpt><trkpt lat="33.8186143" lon="7.766324"><ele>18.666666666666664</ele><time>2026-04-18T12:09:18.367Z</time></trkpt><trkpt lat="33.8187808" lon="7.7663654"><ele>18.333333333333332</ele><time>2026-04-18T12:09:19.382Z</time></trkpt><trkpt lat="33.8189409" lon="7.7664111"><ele>18.0</ele><time>2026-04-18T12:09:20.365Z</time></trkpt><trkpt lat="33.8191003" lon="7.7664567"><ele>18.0</ele><time>2026-04-18T12:09:21.375Z</time></trkpt><trkpt lat="33.8192478" lon="7.7665015"><ele>18.0</ele><time>2026-04-18T12:09:22.371Z</time></trkpt><trkpt lat="33.8193895" lon="7.7665474"><ele>18.0</ele><time>2026-04-18T12:09:23.365Z</time></trkpt><trkpt lat="33.8195312" lon="7.7665929"><ele>18.0</ele><time>2026-04-18T12:09:24.371Z</time></trkpt><trkpt lat="33.8196745" lon="7.7666383"><ele>18.333333333333332</ele><time>2026-04-18T12:09:25.371Z</time></trkpt><trkpt lat="33.8198194" lon="7.7666851"><ele>18.666666666666664</ele><time>2026-04-18T12:09:26.366Z</time></trkpt><trkpt lat="33.8199662" lon="7.7667339"><ele>19.0</ele><time>2026-04-18T12:09:27.373Z</time></trkpt><trkpt lat="33.8201145" lon="7.7667829"><ele>19.0</ele><time>2026-04-18T12:09:28.371Z</time></trkpt><trkpt lat="33.8202641" lon="7.7668333"><ele>19.0</ele><time>2026-04-18T12:09:29.369Z</time></trkpt><trkpt lat="33.8204154" lon="7.7668833"><ele>19.0</ele><time>2026-04-18T12:09:30.37Z</time></trkpt><trkpt lat="33.8205664" lon="7.7669343"><ele>19.0</ele><time>2026-04-18T12:09:31.373Z</time></trkpt><trkpt lat="33.8207157" lon="7.7669846"><ele>19.0</ele><time>2026-04-18T12:09:32.367Z</time></trkpt><trkpt lat="33.8208661" lon="7.7670369"><ele>19.0</ele><time>2026-04-18T12:09:33.37Z</time></trkpt><trkpt lat="33.8210171" lon="7.7670906"><ele>19.0</ele><time>2026-04-18T12:09:34.383Z</time></trkpt><trkpt lat="33.8211686" lon="7.7671463"><ele>19.0</ele><time>2026-04-18T12:09:35.375Z</time></trkpt><trkpt lat="33.8213197" lon="7.7672023"><ele>19.0</ele><time>2026-04-18T12:09:36.363Z</time></trkpt><trkpt lat="33.821477" lon="7.7672628"><ele>19.0</ele><time>2026-04-18T12:09:37.368Z</time></trkpt><trkpt lat="33.8216415" lon="7.7673285"><ele>19.0</ele><time>2026-04-18T12:09:38.371Z</time></trkpt><trkpt lat="33.8218122" lon="7.7673998"><ele>19.0</ele><time>2026-04-18T12:09:39.371Z</time></trkpt><trkpt lat="33.821977" lon="7.7674733"><ele>19.666666666666664</ele><time>2026-04-18T12:09:40.364Z</time></trkpt><trkpt lat="33.8221432" lon="7.7675509"><ele>20.333333333333332</ele><time>2026-04-18T12:09:41.379Z</time></trkpt><trkpt lat="33.8223116" lon="7.7676352"><ele>21.0</ele><time>2026-04-18T12:09:42.372Z</time></trkpt><trkpt lat="33.8224829" lon="7.7677238"><ele>21.333333333333332</ele><time>2026-04-18T12:09:43.371Z</time></trkpt><trkpt lat="33.8226557" lon="7.7678082"><ele>21.666666666666664</ele><time>2026-04-18T12:09:44.387Z</time></trkpt><trkpt lat="33.8228296" lon="7.7678907"><ele>22.0</ele><time>2026-04-18T12:09:45.382Z</time></trkpt><trkpt lat="33.8230067" lon="7.7679724"><ele>22.0</ele><time>2026-04-18T12:09:46.371Z</time></trkpt><trkpt lat="33.8231824" lon="7.7680552"><ele>22.0</ele><time>2026-04-18T12:09:47.366Z</time></trkpt><trkpt lat="33.8233534" lon="7.7681394"><ele>22.0</ele><time>2026-04-18T12:09:48.371Z</time></trkpt><trkpt lat="33.8235202" lon="7.768228"><ele>21.666666666666664</ele><time>2026-04-18T12:09:49.364Z</time></trkpt><trkpt lat="33.8236847" lon="7.7683207"><ele>21.333333333333332</ele><time>2026-04-18T12:09:50.387Z</time></trkpt><trkpt lat="33.8238484" lon="7.7684183"><ele>21.0</ele><time>2026-04-18T12:09:51.37Z</time></trkpt><trkpt lat="33.8240123" lon="7.768519"><ele>21.0</ele><time>2026-04-18T12:09:52.379Z</time></trkpt><trkpt lat="33.8241764" lon="7.7686194"><ele>21.0</ele><time>2026-04-18T12:09:53.358Z</time></trkpt><trkpt lat="33.8243393" lon="7.7687183"><ele>21.0</ele><time>2026-04-18T12:09:54.369Z</time></trkpt><trkpt lat="33.8244999" lon="7.7688189"><ele>21.333333333333332</ele><time>2026-04-18T12:09:55.367Z</time></trkpt><trkpt lat="33.8246588" lon="7.7689218"><ele>21.666666666666664</ele><time>2026-04-18T12:09:56.357Z</time></trkpt><trkpt lat="33.8248159" lon="7.769024"><ele>22.0</ele><time>2026-04-18T12:09:57.364Z</time></trkpt><trkpt lat="33.8249734" lon="7.7691248"><ele>22.0</ele><time>2026-04-18T12:09:58.362Z</time></trkpt><trkpt lat="33.8251297" lon="7.7692252"><ele>22.0</ele><time>2026-04-18T12:09:59.365Z</time></trkpt><trkpt lat="33.8252851" lon="7.7693257"><ele>22.0</ele><time>2026-04-18T12:10:00.37Z</time></trkpt><trkpt lat="33.825439" lon="7.7694258"><ele>22.0</ele><time>2026-04-18T12:10:01.363Z</time></trkpt><trkpt lat="33.8255934" lon="7.7695255"><ele>22.0</ele><time>2026-04-18T12:10:02.358Z</time></trkpt><trkpt lat="33.8257487" lon="7.7696237"><ele>22.0</ele><time>2026-04-18T12:10:03.371Z</time></trkpt><trkpt lat="33.8259006" lon="7.7697198"><ele>21.333333333333332</ele><time>2026-04-18T12:10:04.379Z</time></trkpt><trkpt lat="33.8260528" lon="7.7698165"><ele>20.666666666666668</ele><time>2026-04-18T12:10:05.368Z</time></trkpt><trkpt lat="33.8262087" lon="7.7699124"><ele>20.0</ele><time>2026-04-18T12:10:06.363Z</time></trkpt><trkpt lat="33.8263674" lon="7.7700062"><ele>20.0</ele><time>2026-04-18T12:10:07.367Z</time></trkpt><trkpt lat="33.826527" lon="7.7701012"><ele>20.0</ele><time>2026-04-18T12:10:08.36Z</time></trkpt><trkpt lat="33.8266852" lon="7.7701966"><ele>20.0</ele><time>2026-04-18T12:10:09.37Z</time></trkpt><trkpt lat="33.8268399" lon="7.7702948"><ele>19.333333333333336</ele><time>2026-04-18T12:10:10.368Z</time></trkpt><trkpt lat="33.8269912" lon="7.7703953"><ele>18.666666666666668</ele><time>2026-04-18T12:10:11.363Z</time></trkpt><trkpt lat="33.8271373" lon="7.7704983"><ele>18.0</ele><time>2026-04-18T12:10:12.362Z</time></trkpt><trkpt lat="33.8272808" lon="7.7706001"><ele>18.0</ele><time>2026-04-18T12:10:13.359Z</time></trkpt><trkpt lat="33.8274239" lon="7.7706974"><ele>18.0</ele><time>2026-04-18T12:10:14.357Z</time></trkpt><trkpt lat="33.8275677" lon="7.770794"><ele>18.0</ele><time>2026-04-18T12:10:15.359Z</time></trkpt><trkpt lat="33.8277126" lon="7.7708933"><ele>19.666666666666668</ele><time>2026-04-18T12:10:16.372Z</time></trkpt><trkpt lat="33.8278591" lon="7.7709936"><ele>21.333333333333336</ele><time>2026-04-18T12:10:17.367Z</time></trkpt><trkpt lat="33.8280075" lon="7.7710919"><ele>23.0</ele><time>2026-04-18T12:10:18.357Z</time></trkpt><trkpt lat="33.8281567" lon="7.7711894"><ele>23.0</ele><time>2026-04-18T12:10:19.361Z</time></trkpt><trkpt lat="33.8283061" lon="7.7712887"><ele>23.0</ele><time>2026-04-18T12:10:20.365Z</time></trkpt><trkpt lat="33.8284567" lon="7.7713872"><ele>23.0</ele><time>2026-04-18T12:10:21.365Z</time></trkpt><trkpt lat="33.8286095" lon="7.7714823"><ele>22.0</ele><time>2026-04-18T12:10:22.361Z</time></trkpt><trkpt lat="33.8287655" lon="7.771578"><ele>21.0</ele><time>2026-04-18T12:10:23.365Z</time></trkpt><trkpt lat="33.8289235" lon="7.7716766"><ele>20.0</ele><time>2026-04-18T12:10:24.358Z</time></trkpt><trkpt lat="33.8290796" lon="7.771778"><ele>19.333333333333336</ele><time>2026-04-18T12:10:25.361Z</time></trkpt><trkpt lat="33.8292366" lon="7.7718831"><ele>18.666666666666668</ele><time>2026-04-18T12:10:26.357Z</time></trkpt><trkpt lat="33.8293938" lon="7.7719877"><ele>18.0</ele><time>2026-04-18T12:10:27.367Z</time></trkpt><trkpt lat="33.8295519" lon="7.7720919"><ele>19.333333333333332</ele><time>2026-04-18T12:10:28.359Z</time></trkpt><trkpt lat="33.8297097" lon="7.7721962"><ele>20.666666666666664</ele><time>2026-04-18T12:10:29.362Z</time></trkpt><trkpt lat="33.82987" lon="7.7723002"><ele>22.0</ele><time>2026-04-18T12:10:30.365Z</time></trkpt><trkpt lat="33.8300335" lon="7.7724033"><ele>22.666666666666664</ele><time>2026-04-18T12:10:31.363Z</time></trkpt><trkpt lat="33.8301985" lon="7.7725073"><ele>23.333333333333332</ele><time>2026-04-18T12:10:32.356Z</time></trkpt><trkpt lat="33.8303649" lon="7.7726128"><ele>24.0</ele><time>2026-04-18T12:10:33.361Z</time></trkpt><trkpt lat="33.8305279" lon="7.772717"><ele>23.333333333333332</ele><time>2026-04-18T12:10:34.357Z</time></trkpt><trkpt lat="33.8306905" lon="7.7728232"><ele>22.666666666666664</ele><time>2026-04-18T12:10:35.36Z</time></trkpt><trkpt lat="33.8308545" lon="7.7729277"><ele>22.0</ele><time>2026-04-18T12:10:36.356Z</time></trkpt><trkpt lat="33.8310191" lon="7.7730295"><ele>22.0</ele><time>2026-04-18T12:10:37.358Z</time></trkpt><trkpt lat="33.8311833" lon="7.7731305"><ele>22.0</ele><time>2026-04-18T12:10:38.35Z</time></trkpt><trkpt lat="33.8313482" lon="7.7732307"><ele>22.0</ele><time>2026-04-18T12:10:39.354Z</time></trkpt><trkpt lat="33.8315126" lon="7.7733306"><ele>22.0</ele><time>2026-04-18T12:10:40.358Z</time></trkpt><trkpt lat="33.8316773" lon="7.7734306"><ele>22.0</ele><time>2026-04-18T12:10:41.365Z</time></trkpt><trkpt lat="33.8318424" lon="7.7735316"><ele>22.0</ele><time>2026-04-18T12:10:42.357Z</time></trkpt><trkpt lat="33.8320072" lon="7.7736346"><ele>22.0</ele><time>2026-04-18T12:10:43.365Z</time></trkpt><trkpt lat="33.8321724" lon="7.773738"><ele>22.0</ele><time>2026-04-18T12:10:44.362Z</time></trkpt><trkpt lat="33.8323384" lon="7.77384"><ele>22.0</ele><time>2026-04-18T12:10:45.367Z</time></trkpt><trkpt lat="33.8325047" lon="7.7739404"><ele>21.333333333333332</ele><time>2026-04-18T12:10:46.365Z</time></trkpt><trkpt lat="33.8326707" lon="7.7740419"><ele>20.666666666666668</ele><time>2026-04-18T12:10:47.369Z</time></trkpt><trkpt lat="33.8328373" lon="7.7741445"><ele>20.0</ele><time>2026-04-18T12:10:48.357Z</time></trkpt><trkpt lat="33.8330052" lon="7.7742463"><ele>20.0</ele><time>2026-04-18T12:10:49.36Z</time></trkpt><trkpt lat="33.8331737" lon="7.7743457"><ele>20.0</ele><time>2026-04-18T12:10:50.362Z</time></trkpt><trkpt lat="33.8333438" lon="7.774445"><ele>20.0</ele><time>2026-04-18T12:10:51.357Z</time></trkpt><trkpt lat="33.8335141" lon="7.7745446"><ele>19.666666666666668</ele><time>2026-04-18T12:10:52.353Z</time></trkpt><trkpt lat="33.8336849" lon="7.7746432"><ele>19.333333333333332</ele><time>2026-04-18T12:10:53.359Z</time></trkpt><trkpt lat="33.8338566" lon="7.774741"><ele>19.0</ele><time>2026-04-18T12:10:54.353Z</time></trkpt><trkpt lat="33.8340282" lon="7.7748374"><ele>19.0</ele><time>2026-04-18T12:10:55.36Z</time></trkpt><trkpt lat="33.8342009" lon="7.7749318"><ele>19.0</ele><time>2026-04-18T12:10:56.361Z</time></trkpt><trkpt lat="33.834374" lon="7.775026"><ele>19.0</ele><time>2026-04-18T12:10:57.358Z</time></trkpt><trkpt lat="33.8345509" lon="7.7751389"><ele>18.333333333333332</ele><time>2026-04-18T12:10:58.362Z</time></trkpt><trkpt lat="33.8347217" lon="7.7752245"><ele>17.666666666666668</ele><time>2026-04-18T12:10:59.372Z</time></trkpt><trkpt lat="33.8348805" lon="7.7753157"><ele>17.0</ele><time>2026-04-18T12:11:00.366Z</time></trkpt><trkpt lat="33.8350467" lon="7.775392"><ele>17.0</ele><time>2026-04-18T12:11:01.358Z</time></trkpt><trkpt lat="33.8351925" lon="7.7754681"><ele>17.0</ele><time>2026-04-18T12:11:02.361Z</time></trkpt><trkpt lat="33.8353317" lon="7.77554"><ele>17.0</ele><time>2026-04-18T12:11:03.36Z</time></trkpt><trkpt lat="33.8354635" lon="7.7756021"><ele>17.0</ele><time>2026-04-18T12:11:04.36Z</time></trkpt><trkpt lat="33.835592" lon="7.7756657"><ele>17.0</ele><time>2026-04-18T12:11:05.354Z</time></trkpt><trkpt lat="33.8357266" lon="7.7757381"><ele>17.0</ele><time>2026-04-18T12:11:06.349Z</time></trkpt><trkpt lat="33.8358721" lon="7.7758219"><ele>17.0</ele><time>2026-04-18T12:11:07.358Z</time></trkpt><trkpt lat="33.8360287" lon="7.7759168"><ele>16.666666666666668</ele><time>2026-04-18T12:11:08.354Z</time></trkpt><trkpt lat="33.8361955" lon="7.7760157"><ele>16.333333333333332</ele><time>2026-04-18T12:11:09.362Z</time></trkpt><trkpt lat="33.8363677" lon="7.7761145"><ele>16.0</ele><time>2026-04-18T12:11:10.36Z</time></trkpt><trkpt lat="33.8365392" lon="7.776209"><ele>16.0</ele><time>2026-04-18T12:11:11.352Z</time></trkpt><trkpt lat="33.8367091" lon="7.7762991"><ele>16.0</ele><time>2026-04-18T12:11:12.358Z</time></trkpt><trkpt lat="33.8368796" lon="7.7763865"><ele>16.0</ele><time>2026-04-18T12:11:13.361Z</time></trkpt><trkpt lat="33.8370487" lon="7.7764722"><ele>14.0</ele><time>2026-04-18T12:11:14.349Z</time></trkpt><trkpt lat="33.8372133" lon="7.7765576"><ele>12.0</ele><time>2026-04-18T12:11:15.351Z</time></trkpt><trkpt lat="33.8373756" lon="7.7766452"><ele>10.0</ele><time>2026-04-18T12:11:16.357Z</time></trkpt><trkpt lat="33.8375321" lon="7.7767332"><ele>10.0</ele><time>2026-04-18T12:11:17.359Z</time></trkpt><trkpt lat="33.8376819" lon="7.7768189"><ele>10.0</ele><time>2026-04-18T12:11:18.354Z</time></trkpt><trkpt lat="33.8378258" lon="7.7769029"><ele>10.0</ele><time>2026-04-18T12:11:19.358Z</time></trkpt><trkpt lat="33.837971" lon="7.7769842"><ele>10.0</ele><time>2026-04-18T12:11:20.36Z</time></trkpt><trkpt lat="33.8381198" lon="7.777065"><ele>10.0</ele><time>2026-04-18T12:11:21.353Z</time></trkpt><trkpt lat="33.838269" lon="7.777146"><ele>10.0</ele><time>2026-04-18T12:11:22.361Z</time></trkpt><trkpt lat="33.8384121" lon="7.7772261"><ele>11.666666666666668</ele><time>2026-04-18T12:11:23.357Z</time></trkpt><trkpt lat="33.8385557" lon="7.7773049"><ele>13.333333333333334</ele><time>2026-04-18T12:11:24.355Z</time></trkpt><trkpt lat="33.8387064" lon="7.7773858"><ele>15.0</ele><time>2026-04-18T12:11:25.353Z</time></trkpt><trkpt lat="33.8388677" lon="7.7774663"><ele>15.0</ele><time>2026-04-18T12:11:26.355Z</time></trkpt><trkpt lat="33.8390305" lon="7.7775478"><ele>15.0</ele><time>2026-04-18T12:11:27.354Z</time></trkpt><trkpt lat="33.8391904" lon="7.7776279"><ele>15.0</ele><time>2026-04-18T12:11:28.357Z</time></trkpt><trkpt lat="33.8393471" lon="7.7777068"><ele>15.333333333333332</ele><time>2026-04-18T12:11:29.356Z</time></trkpt><trkpt lat="33.8395" lon="7.7777848"><ele>15.666666666666666</ele><time>2026-04-18T12:11:30.356Z</time></trkpt><trkpt lat="33.8396545" lon="7.7778643"><ele>16.0</ele><time>2026-04-18T12:11:31.36Z</time></trkpt><trkpt lat="33.8398098" lon="7.7779463"><ele>16.0</ele><time>2026-04-18T12:11:32.363Z</time></trkpt><trkpt lat="33.8399665" lon="7.7780309"><ele>16.0</ele><time>2026-04-18T12:11:33.354Z</time></trkpt><trkpt lat="33.8401212" lon="7.7781133"><ele>16.0</ele><time>2026-04-18T12:11:34.366Z</time></trkpt><trkpt lat="33.8402728" lon="7.7781935"><ele>16.666666666666664</ele><time>2026-04-18T12:11:35.358Z</time></trkpt><trkpt lat="33.8404193" lon="7.7782729"><ele>17.333333333333332</ele><time>2026-04-18T12:11:36.359Z</time></trkpt><trkpt lat="33.840561" lon="7.7783512"><ele>18.0</ele><time>2026-04-18T12:11:37.364Z</time></trkpt><trkpt lat="33.8407015" lon="7.7784279"><ele>18.0</ele><time>2026-04-18T12:11:38.364Z</time></trkpt><trkpt lat="33.840844" lon="7.7785019"><ele>18.0</ele><time>2026-04-18T12:11:39.354Z</time></trkpt><trkpt lat="33.8409872" lon="7.7785717"><ele>18.0</ele><time>2026-04-18T12:11:40.358Z</time></trkpt><trkpt lat="33.8411292" lon="7.7786364"><ele>18.25</ele><time>2026-04-18T12:11:41.362Z</time></trkpt><trkpt lat="33.8412687" lon="7.7786988"><ele>18.5</ele><time>2026-04-18T12:11:42.359Z</time></trkpt><trkpt lat="33.8414033" lon="7.7787578"><ele>18.75</ele><time>2026-04-18T12:11:43.368Z</time></trkpt><trkpt lat="33.8415353" lon="7.7788117"><ele>19.0</ele><time>2026-04-18T12:11:44.362Z</time></trkpt><trkpt lat="33.8416633" lon="7.7788589"><ele>19.0</ele><time>2026-04-18T12:11:45.357Z</time></trkpt><trkpt lat="33.841789" lon="7.7788995"><ele>19.0</ele><time>2026-04-18T12:11:46.37Z</time></trkpt><trkpt lat="33.8419058" lon="7.7789352"><ele>19.0</ele><time>2026-04-18T12:11:47.355Z</time></trkpt><trkpt lat="33.842015" lon="7.778969"><ele>19.0</ele><time>2026-04-18T12:11:48.354Z</time></trkpt><trkpt lat="33.8421171" lon="7.7789996"><ele>18.5</ele><time>2026-04-18T12:11:49.363Z</time></trkpt><trkpt lat="33.8422086" lon="7.7790291"><ele>18.0</ele><time>2026-04-18T12:11:50.357Z</time></trkpt><trkpt lat="33.8422932" lon="7.7790558"><ele>17.5</ele><time>2026-04-18T12:11:51.364Z</time></trkpt><trkpt lat="33.8423715" lon="7.7790784"><ele>17.0</ele><time>2026-04-18T12:11:52.373Z</time></trkpt><trkpt lat="33.8424441" lon="7.779099"><ele>16.5</ele><time>2026-04-18T12:11:53.366Z</time></trkpt><trkpt lat="33.8425111" lon="7.7791185"><ele>16.0</ele><time>2026-04-18T12:11:54.353Z</time></trkpt><trkpt lat="33.8426249" lon="7.7791499"><ele>16.666666666666664</ele><time>2026-04-18T12:11:56.364Z</time></trkpt><trkpt lat="33.842716" lon="7.7791664"><ele>17.333333333333332</ele><time>2026-04-18T12:11:58.373Z</time></trkpt><trkpt lat="33.8427883" lon="7.7791753"><ele>18.0</ele><time>2026-04-18T12:12:00.36Z</time></trkpt><trkpt lat="33.8428669" lon="7.779189"><ele>18.666666666666668</ele><time>2026-04-18T12:12:03.359Z</time></trkpt><trkpt lat="33.8429587" lon="7.7791686"><ele>19.333333333333336</ele><time>2026-04-18T12:21:01.337Z</time></trkpt><trkpt lat="33.8430293" lon="7.7791666"><ele>20.0</ele><time>2026-04-18T12:21:03.361Z</time></trkpt><trkpt lat="33.8430979" lon="7.7791666"><ele>20.0</ele><time>2026-04-18T12:21:04.353Z</time></trkpt><trkpt lat="33.8431634" lon="7.7791787"><ele>20.0</ele><time>2026-04-18T12:21:05.362Z</time></trkpt><trkpt lat="33.8433131" lon="7.7792093"><ele>20.0</ele><time>2026-04-18T12:21:07.36Z</time></trkpt><trkpt lat="33.8434501" lon="7.7792679"><ele>20.0</ele><time>2026-04-18T12:21:08.367Z</time></trkpt><trkpt lat="33.8435504" lon="7.7792928"><ele>19.5</ele><time>2026-04-18T12:21:09.364Z</time></trkpt><trkpt lat="33.8437701" lon="7.7793876"><ele>19.0</ele><time>2026-04-18T12:21:10.373Z</time></trkpt><trkpt lat="33.8440814" lon="7.7795208"><ele>19.5</ele><time>2026-04-18T12:21:11.356Z</time></trkpt><trkpt lat="33.8444674" lon="7.7796922"><ele>20.0</ele><time>2026-04-18T12:21:12.357Z</time></trkpt><trkpt lat="33.8447333" lon="7.7797797"><ele>20.0</ele><time>2026-04-18T12:21:13.369Z</time></trkpt><trkpt lat="33.8449862" lon="7.7798626"><ele>20.0</ele><time>2026-04-18T12:21:14.362Z</time></trkpt><trkpt lat="33.8452365" lon="7.7799541"><ele>19.5</ele><time>2026-04-18T12:21:15.363Z</time></trkpt><trkpt lat="33.8454877" lon="7.780053"><ele>19.0</ele><time>2026-04-18T12:21:16.379Z</time></trkpt><trkpt lat="33.8457291" lon="7.78015"><ele>19.333333333333332</ele><time>2026-04-18T12:21:17.359Z</time></trkpt><trkpt lat="33.845947" lon="7.780238"><ele>19.666666666666668</ele><time>2026-04-18T12:21:18.361Z</time></trkpt><trkpt lat="33.8461459" lon="7.7803208"><ele>20.0</ele><time>2026-04-18T12:21:19.368Z</time></trkpt><trkpt lat="33.8463459" lon="7.7803974"><ele>19.0</ele><time>2026-04-18T12:21:20.36Z</time></trkpt><trkpt lat="33.8465493" lon="7.780478"><ele>18.0</ele><time>2026-04-18T12:21:21.365Z</time></trkpt><trkpt lat="33.8467497" lon="7.7805628"><ele>17.0</ele><time>2026-04-18T12:21:22.364Z</time></trkpt><trkpt lat="33.8469478" lon="7.7806463"><ele>15.333333333333334</ele><time>2026-04-18T12:21:23.369Z</time></trkpt><trkpt lat="33.8471369" lon="7.7807245"><ele>13.666666666666668</ele><time>2026-04-18T12:21:24.36Z</time></trkpt><trkpt lat="33.847324" lon="7.7807965"><ele>12.0</ele><time>2026-04-18T12:21:25.361Z</time></trkpt><trkpt lat="33.8475072" lon="7.7808679"><ele>15.333333333333332</ele><time>2026-04-18T12:21:26.363Z</time></trkpt><trkpt lat="33.8477191" lon="7.7809544"><ele>18.666666666666664</ele><time>2026-04-18T12:21:27.377Z</time></trkpt><trkpt lat="33.8479266" lon="7.7810438"><ele>22.0</ele><time>2026-04-18T12:21:28.369Z</time></trkpt><trkpt lat="33.8481273" lon="7.7811359"><ele>22.0</ele><time>2026-04-18T12:21:29.366Z</time></trkpt><trkpt lat="33.8483223" lon="7.7812299"><ele>22.0</ele><time>2026-04-18T12:21:30.367Z</time></trkpt><trkpt lat="33.8485102" lon="7.7813225"><ele>22.0</ele><time>2026-04-18T12:21:31.363Z</time></trkpt><trkpt lat="33.8487111" lon="7.781417"><ele>22.0</ele><time>2026-04-18T12:21:32.358Z</time></trkpt><trkpt lat="33.8489033" lon="7.7815017"><ele>22.0</ele><time>2026-04-18T12:21:33.36Z</time></trkpt><trkpt lat="33.8490926" lon="7.7815818"><ele>22.0</ele><time>2026-04-18T12:21:34.364Z</time></trkpt><trkpt lat="33.8492757" lon="7.7816556"><ele>22.666666666666664</ele><time>2026-04-18T12:21:35.367Z</time></trkpt><trkpt lat="33.8494707" lon="7.7817334"><ele>23.333333333333332</ele><time>2026-04-18T12:21:36.365Z</time></trkpt><trkpt lat="33.8496776" lon="7.7818149"><ele>24.0</ele><time>2026-04-18T12:21:37.371Z</time></trkpt><trkpt lat="33.8499001" lon="7.7819014"><ele>24.333333333333336</ele><time>2026-04-18T12:21:38.355Z</time></trkpt><trkpt lat="33.8501072" lon="7.7819848"><ele>24.666666666666668</ele><time>2026-04-18T12:21:39.368Z</time></trkpt><trkpt lat="33.8503106" lon="7.7820667"><ele>25.0</ele><time>2026-04-18T12:21:40.36Z</time></trkpt><trkpt lat="33.8505155" lon="7.7821498"><ele>24.666666666666668</ele><time>2026-04-18T12:21:41.364Z</time></trkpt><trkpt lat="33.8507169" lon="7.7822304"><ele>24.333333333333336</ele><time>2026-04-18T12:21:42.361Z</time></trkpt><trkpt lat="33.8509213" lon="7.7823112"><ele>24.0</ele><time>2026-04-18T12:21:43.364Z</time></trkpt><trkpt lat="33.8511309" lon="7.7823957"><ele>24.0</ele><time>2026-04-18T12:21:44.358Z</time></trkpt><trkpt lat="33.8513453" lon="7.7824818"><ele>24.0</ele><time>2026-04-18T12:21:45.358Z</time></trkpt><trkpt lat="33.8515608" lon="7.782568"><ele>24.0</ele><time>2026-04-18T12:21:46.366Z</time></trkpt><trkpt lat="33.8517789" lon="7.7826525"><ele>24.0</ele><time>2026-04-18T12:21:47.364Z</time></trkpt><trkpt lat="33.8519986" lon="7.7827351"><ele>22.0</ele><time>2026-04-18T12:21:48.368Z</time></trkpt><trkpt lat="33.8522187" lon="7.7828174"><ele>20.0</ele><time>2026-04-18T12:21:49.364Z</time></trkpt><trkpt lat="33.8524368" lon="7.7829003"><ele>19.5</ele><time>2026-04-18T12:21:50.375Z</time></trkpt><trkpt lat="33.8526544" lon="7.7829842"><ele>19.0</ele><time>2026-04-18T12:21:51.381Z</time></trkpt><trkpt lat="33.8528713" lon="7.7830688"><ele>19.0</ele><time>2026-04-18T12:21:52.362Z</time></trkpt><trkpt lat="33.8530874" lon="7.7831537"><ele>19.0</ele><time>2026-04-18T12:21:53.373Z</time></trkpt><trkpt lat="33.8533008" lon="7.7832375"><ele>18.666666666666664</ele><time>2026-04-18T12:21:54.36Z</time></trkpt><trkpt lat="33.8535119" lon="7.7833209"><ele>18.333333333333332</ele><time>2026-04-18T12:21:55.359Z</time></trkpt><trkpt lat="33.853719" lon="7.7834022"><ele>18.0</ele><time>2026-04-18T12:21:56.37Z</time></trkpt><trkpt lat="33.8539251" lon="7.7834846"><ele>18.333333333333332</ele><time>2026-04-18T12:21:57.365Z</time></trkpt><trkpt lat="33.8541336" lon="7.7835685"><ele>18.666666666666664</ele><time>2026-04-18T12:21:58.365Z</time></trkpt><trkpt lat="33.8543459" lon="7.7836549"><ele>19.0</ele><time>2026-04-18T12:21:59.366Z</time></trkpt><trkpt lat="33.8545615" lon="7.783742"><ele>19.0</ele><time>2026-04-18T12:22:00.376Z</time></trkpt><trkpt lat="33.8547816" lon="7.78383"><ele>19.0</ele><time>2026-04-18T12:22:01.367Z</time></trkpt><trkpt lat="33.8550014" lon="7.7839169"><ele>21.0</ele><time>2026-04-18T12:22:02.361Z</time></trkpt><trkpt lat="33.8552164" lon="7.784003"><ele>23.0</ele><time>2026-04-18T12:22:03.369Z</time></trkpt><trkpt lat="33.8554256" lon="7.7840878"><ele>25.0</ele><time>2026-04-18T12:22:04.36Z</time></trkpt><trkpt lat="33.8556272" lon="7.7841716"><ele>25.0</ele><time>2026-04-18T12:22:05.361Z</time></trkpt><trkpt lat="33.8558185" lon="7.7842521"><ele>25.0</ele><time>2026-04-18T12:22:06.362Z</time></trkpt><trkpt lat="33.8560083" lon="7.7843301"><ele>25.0</ele><time>2026-04-18T12:22:07.359Z</time></trkpt><trkpt lat="33.8561881" lon="7.7844029"><ele>22.666666666666668</ele><time>2026-04-18T12:22:08.364Z</time></trkpt><trkpt lat="33.856363" lon="7.7844733"><ele>20.333333333333336</ele><time>2026-04-18T12:22:09.37Z</time></trkpt><trkpt lat="33.856531" lon="7.7845411"><ele>18.0</ele><time>2026-04-18T12:22:10.364Z</time></trkpt><trkpt lat="33.8566909" lon="7.7846051"><ele>18.666666666666668</ele><time>2026-04-18T12:22:11.361Z</time></trkpt><trkpt lat="33.8568389" lon="7.7846622"><ele>19.333333333333336</ele><time>2026-04-18T12:22:12.369Z</time></trkpt><trkpt lat="33.8569834" lon="7.7847099"><ele>20.0</ele><time>2026-04-18T12:22:13.358Z</time></trkpt><trkpt lat="33.8571296" lon="7.7847507"><ele>20.0</ele><time>2026-04-18T12:22:14.363Z</time></trkpt><trkpt lat="33.8572804" lon="7.7847821"><ele>20.0</ele><time>2026-04-18T12:22:15.364Z</time></trkpt><trkpt lat="33.8574324" lon="7.7848101"><ele>20.0</ele><time>2026-04-18T12:22:16.368Z</time></trkpt><trkpt lat="33.8575878" lon="7.7848355"><ele>19.666666666666668</ele><time>2026-04-18T12:22:17.357Z</time></trkpt><trkpt lat="33.8577433" lon="7.7848596"><ele>19.333333333333332</ele><time>2026-04-18T12:22:18.375Z</time></trkpt><trkpt lat="33.8578961" lon="7.7848815"><ele>19.0</ele><time>2026-04-18T12:22:19.365Z</time></trkpt><trkpt lat="33.8580494" lon="7.7849026"><ele>19.0</ele><time>2026-04-18T12:22:20.376Z</time></trkpt><trkpt lat="33.8582048" lon="7.7849224"><ele>19.0</ele><time>2026-04-18T12:22:21.369Z</time></trkpt><trkpt lat="33.8583594" lon="7.7849383"><ele>19.0</ele><time>2026-04-18T12:22:22.367Z</time></trkpt><trkpt lat="33.8585034" lon="7.7849492"><ele>19.0</ele><time>2026-04-18T12:22:23.36Z</time></trkpt><trkpt lat="33.8586379" lon="7.7849568"><ele>19.0</ele><time>2026-04-18T12:22:24.381Z</time></trkpt><trkpt lat="33.8587656" lon="7.7849645"><ele>19.0</ele><time>2026-04-18T12:22:25.363Z</time></trkpt><trkpt lat="33.8588964" lon="7.7849685"><ele>19.0</ele><time>2026-04-18T12:22:26.358Z</time></trkpt><trkpt lat="33.8590271" lon="7.7849662"><ele>19.0</ele><time>2026-04-18T12:22:27.367Z</time></trkpt><trkpt lat="33.8591571" lon="7.7849585"><ele>19.0</ele><time>2026-04-18T12:22:28.372Z</time></trkpt><trkpt lat="33.8592887" lon="7.7849483"><ele>19.0</ele><time>2026-04-18T12:22:29.361Z</time></trkpt><trkpt lat="33.8594235" lon="7.7849335"><ele>19.0</ele><time>2026-04-18T12:22:30.37Z</time></trkpt><trkpt lat="33.8595598" lon="7.7849165"><ele>19.0</ele><time>2026-04-18T12:22:31.375Z</time></trkpt><trkpt lat="33.8596945" lon="7.7849009"><ele>19.0</ele><time>2026-04-18T12:22:32.365Z</time></trkpt><trkpt lat="33.859831" lon="7.7848864"><ele>19.0</ele><time>2026-04-18T12:22:33.381Z</time></trkpt><trkpt lat="33.8599675" lon="7.7848706"><ele>19.0</ele><time>2026-04-18T12:22:34.377Z</time></trkpt><trkpt lat="33.8601032" lon="7.7848528"><ele>19.0</ele><time>2026-04-18T12:22:35.372Z</time></trkpt><trkpt lat="33.8602396" lon="7.7848327"><ele>19.0</ele><time>2026-04-18T12:22:36.366Z</time></trkpt><trkpt lat="33.860377" lon="7.784812"><ele>19.0</ele><time>2026-04-18T12:22:37.366Z</time></trkpt><trkpt lat="33.8605144" lon="7.7847933"><ele>19.0</ele><time>2026-04-18T12:22:38.368Z</time></trkpt><trkpt lat="33.8606513" lon="7.7847748"><ele>19.0</ele><time>2026-04-18T12:22:39.372Z</time></trkpt><trkpt lat="33.8607876" lon="7.7847546"><ele>19.0</ele><time>2026-04-18T12:22:40.369Z</time></trkpt><trkpt lat="33.8609233" lon="7.7847317"><ele>19.0</ele><time>2026-04-18T12:22:41.365Z</time></trkpt><trkpt lat="33.8610565" lon="7.7846982"><ele>19.0</ele><time>2026-04-18T12:22:42.367Z</time></trkpt><trkpt lat="33.8611872" lon="7.7846499"><ele>19.25</ele><time>2026-04-18T12:22:43.367Z</time></trkpt><trkpt lat="33.8613147" lon="7.7845889"><ele>19.5</ele><time>2026-04-18T12:22:44.362Z</time></trkpt><trkpt lat="33.8614379" lon="7.7845215"><ele>19.75</ele><time>2026-04-18T12:22:45.368Z</time></trkpt><trkpt lat="33.8615548" lon="7.7844621"><ele>20.0</ele><time>2026-04-18T12:22:46.368Z</time></trkpt><trkpt lat="33.8616655" lon="7.7844112"><ele>20.0</ele><time>2026-04-18T12:22:47.366Z</time></trkpt><trkpt lat="33.861778" lon="7.7843621"><ele>20.0</ele><time>2026-04-18T12:22:48.373Z</time></trkpt><trkpt lat="33.861899" lon="7.7843106"><ele>20.0</ele><time>2026-04-18T12:22:49.381Z</time></trkpt><trkpt lat="33.8620236" lon="7.7842555"><ele>20.0</ele><time>2026-04-18T12:22:50.38Z</time></trkpt><trkpt lat="33.8621482" lon="7.7841991"><ele>19.75</ele><time>2026-04-18T12:22:51.369Z</time></trkpt><trkpt lat="33.8622745" lon="7.7841398"><ele>19.5</ele><time>2026-04-18T12:22:52.383Z</time></trkpt><trkpt lat="33.8624018" lon="7.7840783"><ele>19.25</ele><time>2026-04-18T12:22:53.373Z</time></trkpt><trkpt lat="33.8625265" lon="7.7840118"><ele>19.0</ele><time>2026-04-18T12:22:54.374Z</time></trkpt><trkpt lat="33.8626503" lon="7.7839381"><ele>19.0</ele><time>2026-04-18T12:22:55.37Z</time></trkpt><trkpt lat="33.8627736" lon="7.7838583"><ele>19.0</ele><time>2026-04-18T12:22:56.369Z</time></trkpt><trkpt lat="33.8628971" lon="7.7837777"><ele>19.0</ele><time>2026-04-18T12:22:57.373Z</time></trkpt><trkpt lat="33.8630185" lon="7.7836987"><ele>19.0</ele><time>2026-04-18T12:22:58.379Z</time></trkpt><trkpt lat="33.8631358" lon="7.7836237"><ele>19.0</ele><time>2026-04-18T12:22:59.377Z</time></trkpt><trkpt lat="33.8632467" lon="7.7835531"><ele>19.0</ele><time>2026-04-18T12:23:00.37Z</time></trkpt><trkpt lat="33.8633475" lon="7.7834922"><ele>19.0</ele><time>2026-04-18T12:23:01.369Z</time></trkpt><trkpt lat="33.8634385" lon="7.783441"><ele>19.0</ele><time>2026-04-18T12:23:02.371Z</time></trkpt><trkpt lat="33.8635209" lon="7.7833936"><ele>19.0</ele><time>2026-04-18T12:23:03.37Z</time></trkpt><trkpt lat="33.8635938" lon="7.7833397"><ele>19.0</ele><time>2026-04-18T12:23:04.371Z</time></trkpt><trkpt lat="33.8636671" lon="7.7832858"><ele>19.0</ele><time>2026-04-18T12:23:05.361Z</time></trkpt><trkpt lat="33.8637213" lon="7.7832083"><ele>19.0</ele><time>2026-04-18T12:23:06.369Z</time></trkpt><trkpt lat="33.8637569" lon="7.7831337"><ele>19.0</ele><time>2026-04-18T12:23:07.373Z</time></trkpt><trkpt lat="33.8637939" lon="7.7830614"><ele>19.0</ele><time>2026-04-18T12:23:08.371Z</time></trkpt><trkpt lat="33.8638275" lon="7.7829937"><ele>19.0</ele><time>2026-04-18T12:23:09.374Z</time></trkpt><trkpt lat="33.863877" lon="7.7828986"><ele>19.0</ele><time>2026-04-18T12:23:11.379Z</time></trkpt><trkpt lat="33.8639407" lon="7.7829405"><ele>19.0</ele><time>2026-04-18T12:23:17.371Z</time></trkpt><trkpt lat="33.8638697" lon="7.7830396"><ele>19.0</ele><time>2026-04-18T12:23:20.363Z</time></trkpt><trkpt lat="33.8637702" lon="7.7831246"><ele>19.0</ele><time>2026-04-18T12:23:22.367Z</time></trkpt><trkpt lat="33.8636878" lon="7.7832176"><ele>19.0</ele><time>2026-04-18T12:23:24.363Z</time></trkpt><trkpt lat="33.8636144" lon="7.7833135"><ele>19.0</ele><time>2026-04-18T12:23:26.37Z</time></trkpt><trkpt lat="33.8635367" lon="7.7833932"><ele>19.0</ele><time>2026-04-18T12:23:28.365Z</time></trkpt><trkpt lat="33.8634695" lon="7.7834649"><ele>19.0</ele><time>2026-04-18T12:23:30.37Z</time></trkpt><trkpt lat="33.863461" lon="7.7835507"><ele>19.0</ele><time>2026-04-18T12:23:32.369Z</time></trkpt><trkpt lat="33.8634982" lon="7.783666"><ele>19.0</ele><time>2026-04-18T12:23:34.371Z</time></trkpt><trkpt lat="33.8635258" lon="7.7837395"><ele>19.0</ele><time>2026-04-18T12:23:35.376Z</time></trkpt><trkpt lat="33.8635546" lon="7.7838251"><ele>18.8</ele><time>2026-04-18T12:23:36.366Z</time></trkpt><trkpt lat="33.8635839" lon="7.7839145"><ele>18.599999999999998</ele><time>2026-04-18T12:23:37.378Z</time></trkpt><trkpt lat="33.8636184" lon="7.7840106"><ele>18.4</ele><time>2026-04-18T12:23:38.373Z</time></trkpt><trkpt lat="33.8636565" lon="7.7841146"><ele>18.2</ele><time>2026-04-18T12:23:39.375Z</time></trkpt><trkpt lat="33.8636931" lon="7.7842241"><ele>18.0</ele><time>2026-04-18T12:23:40.365Z</time></trkpt><trkpt lat="33.863725" lon="7.7843409"><ele>18.5</ele><time>2026-04-18T12:23:41.368Z</time></trkpt><trkpt lat="33.8637578" lon="7.7844658"><ele>19.0</ele><time>2026-04-18T12:23:42.363Z</time></trkpt><trkpt lat="33.8637959" lon="7.7845967"><ele>19.5</ele><time>2026-04-18T12:23:43.365Z</time></trkpt><trkpt lat="33.8638346" lon="7.784727"><ele>20.0</ele><time>2026-04-18T12:23:44.373Z</time></trkpt><trkpt lat="33.8638721" lon="7.7848564"><ele>20.0</ele><time>2026-04-18T12:23:45.368Z</time></trkpt><trkpt lat="33.8639085" lon="7.7849831"><ele>20.0</ele><time>2026-04-18T12:23:46.363Z</time></trkpt><trkpt lat="33.8639505" lon="7.7851111"><ele>20.0</ele><time>2026-04-18T12:23:47.37Z</time></trkpt><trkpt lat="33.8639984" lon="7.785228"><ele>20.0</ele><time>2026-04-18T12:23:48.366Z</time></trkpt><trkpt lat="33.864038" lon="7.7853468"><ele>20.0</ele><time>2026-04-18T12:23:49.364Z</time></trkpt><trkpt lat="33.8640714" lon="7.7854746"><ele>19.75</ele><time>2026-04-18T12:23:50.36Z</time></trkpt><trkpt lat="33.8641075" lon="7.7856058"><ele>19.5</ele><time>2026-04-18T12:23:51.374Z</time></trkpt><trkpt lat="33.8641448" lon="7.7857485"><ele>19.25</ele><time>2026-04-18T12:23:52.368Z</time></trkpt><trkpt lat="33.8641832" lon="7.785892"><ele>19.0</ele><time>2026-04-18T12:23:53.364Z</time></trkpt><trkpt lat="33.8642223" lon="7.7860311"><ele>19.0</ele><time>2026-04-18T12:23:54.376Z</time></trkpt><trkpt lat="33.8642641" lon="7.7861822"><ele>19.0</ele><time>2026-04-18T12:23:55.364Z</time></trkpt><trkpt lat="33.8643069" lon="7.7863333"><ele>19.0</ele><time>2026-04-18T12:23:56.377Z</time></trkpt><trkpt lat="33.8643504" lon="7.7864859"><ele>19.0</ele><time>2026-04-18T12:23:57.371Z</time></trkpt><trkpt lat="33.8643954" lon="7.7866338"><ele>19.0</ele><time>2026-04-18T12:23:58.374Z</time></trkpt><trkpt lat="33.8644402" lon="7.7867814"><ele>19.0</ele><time>2026-04-18T12:23:59.382Z</time></trkpt><trkpt lat="33.8644841" lon="7.7869205"><ele>19.0</ele><time>2026-04-18T12:24:00.374Z</time></trkpt><trkpt lat="33.8645269" lon="7.7870622"><ele>19.0</ele><time>2026-04-18T12:24:01.374Z</time></trkpt><trkpt lat="33.8645712" lon="7.787209"><ele>19.0</ele><time>2026-04-18T12:24:02.371Z</time></trkpt><trkpt lat="33.864617" lon="7.7873591"><ele>19.0</ele><time>2026-04-18T12:24:03.377Z</time></trkpt><trkpt lat="33.8646685" lon="7.7875153"><ele>19.0</ele><time>2026-04-18T12:24:04.363Z</time></trkpt><trkpt lat="33.8647224" lon="7.7876652"><ele>19.0</ele><time>2026-04-18T12:24:05.381Z</time></trkpt><trkpt lat="33.8647766" lon="7.7878166"><ele>19.0</ele><time>2026-04-18T12:24:06.377Z</time></trkpt><trkpt lat="33.8648266" lon="7.7879696"><ele>19.0</ele><time>2026-04-18T12:24:07.372Z</time></trkpt><trkpt lat="33.8648721" lon="7.7881273"><ele>19.0</ele><time>2026-04-18T12:24:08.37Z</time></trkpt><trkpt lat="33.8649087" lon="7.7882866"><ele>19.0</ele><time>2026-04-18T12:24:09.369Z</time></trkpt><trkpt lat="33.8649373" lon="7.7884481"><ele>18.666666666666664</ele><time>2026-04-18T12:24:10.364Z</time></trkpt><trkpt lat="33.8649577" lon="7.7886223"><ele>18.333333333333332</ele><time>2026-04-18T12:24:11.37Z</time></trkpt><trkpt lat="33.864972" lon="7.7888063"><ele>18.0</ele><time>2026-04-18T12:24:12.364Z</time></trkpt><trkpt lat="33.8649881" lon="7.7889863"><ele>18.0</ele><time>2026-04-18T12:24:13.382Z</time></trkpt><trkpt lat="33.8650081" lon="7.789167"><ele>18.0</ele><time>2026-04-18T12:24:14.381Z</time></trkpt><trkpt lat="33.8650352" lon="7.7893462"><ele>18.0</ele><time>2026-04-18T12:24:15.372Z</time></trkpt><trkpt lat="33.8650715" lon="7.789523"><ele>18.333333333333332</ele><time>2026-04-18T12:24:16.366Z</time></trkpt><trkpt lat="33.8651168" lon="7.7896982"><ele>18.666666666666664</ele><time>2026-04-18T12:24:17.365Z</time></trkpt><trkpt lat="33.8651665" lon="7.7898725"><ele>19.0</ele><time>2026-04-18T12:24:18.356Z</time></trkpt><trkpt lat="33.8652153" lon="7.790045"><ele>19.333333333333332</ele><time>2026-04-18T12:24:19.371Z</time></trkpt><trkpt lat="33.8652642" lon="7.7902163"><ele>19.666666666666668</ele><time>2026-04-18T12:24:20.362Z</time></trkpt><trkpt lat="33.8653125" lon="7.7903881"><ele>20.0</ele><time>2026-04-18T12:24:21.365Z</time></trkpt><trkpt lat="33.8653578" lon="7.7905612"><ele>20.0</ele><time>2026-04-18T12:24:22.368Z</time></trkpt><trkpt lat="33.8653997" lon="7.7907346"><ele>20.0</ele><time>2026-04-18T12:24:23.367Z</time></trkpt><trkpt lat="33.8654414" lon="7.7909096"><ele>20.0</ele><time>2026-04-18T12:24:24.358Z</time></trkpt><trkpt lat="33.8654832" lon="7.7910823"><ele>20.0</ele><time>2026-04-18T12:24:25.368Z</time></trkpt><trkpt lat="33.8655249" lon="7.7912545"><ele>20.0</ele><time>2026-04-18T12:24:26.364Z</time></trkpt><trkpt lat="33.8655666" lon="7.7914272"><ele>20.0</ele><time>2026-04-18T12:24:27.358Z</time></trkpt><trkpt lat="33.8656078" lon="7.7916055"><ele>20.0</ele><time>2026-04-18T12:24:28.369Z</time></trkpt><trkpt lat="33.8656459" lon="7.7917861"><ele>20.0</ele><time>2026-04-18T12:24:29.363Z</time></trkpt><trkpt lat="33.8656778" lon="7.7919674"><ele>20.0</ele><time>2026-04-18T12:24:30.37Z</time></trkpt><trkpt lat="33.865703" lon="7.7921448"><ele>19.75</ele><time>2026-04-18T12:24:31.358Z</time></trkpt><trkpt lat="33.8657249" lon="7.7923159"><ele>19.5</ele><time>2026-04-18T12:24:32.366Z</time></trkpt><trkpt lat="33.8657476" lon="7.7924897"><ele>19.25</ele><time>2026-04-18T12:24:33.37Z</time></trkpt><trkpt lat="33.8657727" lon="7.7926589"><ele>19.0</ele><time>2026-04-18T12:24:34.365Z</time></trkpt><trkpt lat="33.8658035" lon="7.7928258"><ele>19.0</ele><time>2026-04-18T12:24:35.397Z</time></trkpt><trkpt lat="33.8658394" lon="7.7929919"><ele>19.0</ele><time>2026-04-18T12:24:36.366Z</time></trkpt><trkpt lat="33.8658809" lon="7.7931568"><ele>19.0</ele><time>2026-04-18T12:24:37.367Z</time></trkpt><trkpt lat="33.8659258" lon="7.7933144"><ele>19.0</ele><time>2026-04-18T12:24:38.363Z</time></trkpt><trkpt lat="33.8659743" lon="7.7934652"><ele>19.0</ele><time>2026-04-18T12:24:39.37Z</time></trkpt><trkpt lat="33.8660179" lon="7.7936177"><ele>19.0</ele><time>2026-04-18T12:24:40.362Z</time></trkpt><trkpt lat="33.8660526" lon="7.7937723"><ele>19.0</ele><time>2026-04-18T12:24:41.367Z</time></trkpt><trkpt lat="33.8660783" lon="7.7939346"><ele>19.0</ele><time>2026-04-18T12:24:42.367Z</time></trkpt><trkpt lat="33.8661026" lon="7.7940995"><ele>19.0</ele><time>2026-04-18T12:24:43.378Z</time></trkpt><trkpt lat="33.8661304" lon="7.7942609"><ele>19.0</ele><time>2026-04-18T12:24:44.364Z</time></trkpt><trkpt lat="33.8661607" lon="7.794424"><ele>19.0</ele><time>2026-04-18T12:24:45.378Z</time></trkpt><trkpt lat="33.8661925" lon="7.7945835"><ele>19.0</ele><time>2026-04-18T12:24:46.373Z</time></trkpt><trkpt lat="33.8662237" lon="7.7947421"><ele>19.25</ele><time>2026-04-18T12:24:47.369Z</time></trkpt><trkpt lat="33.8662549" lon="7.7948983"><ele>19.5</ele><time>2026-04-18T12:24:48.374Z</time></trkpt><trkpt lat="33.8662867" lon="7.7950549"><ele>19.75</ele><time>2026-04-18T12:24:49.368Z</time></trkpt><trkpt lat="33.8663141" lon="7.795208"><ele>20.0</ele><time>2026-04-18T12:24:50.365Z</time></trkpt><trkpt lat="33.8663332" lon="7.7953582"><ele>20.0</ele><time>2026-04-18T12:24:51.376Z</time></trkpt><trkpt lat="33.8663486" lon="7.7955074"><ele>20.0</ele><time>2026-04-18T12:24:52.364Z</time></trkpt><trkpt lat="33.8663622" lon="7.7956595"><ele>20.0</ele><time>2026-04-18T12:24:53.365Z</time></trkpt><trkpt lat="33.8663756" lon="7.7958094"><ele>20.0</ele><time>2026-04-18T12:24:54.364Z</time></trkpt><trkpt lat="33.8663952" lon="7.7959571"><ele>20.0</ele><time>2026-04-18T12:24:55.375Z</time></trkpt><trkpt lat="33.8664243" lon="7.7961043"><ele>20.0</ele><time>2026-04-18T12:24:56.362Z</time></trkpt><trkpt lat="33.8664559" lon="7.7962426"><ele>20.0</ele><time>2026-04-18T12:24:57.37Z</time></trkpt><trkpt lat="33.8664876" lon="7.7963738"><ele>20.0</ele><time>2026-04-18T12:24:58.361Z</time></trkpt><trkpt lat="33.8665169" lon="7.7965044"><ele>20.0</ele><time>2026-04-18T12:24:59.382Z</time></trkpt><trkpt lat="33.8665426" lon="7.7966429"><ele>20.0</ele><time>2026-04-18T12:25:00.366Z</time></trkpt><trkpt lat="33.8665619" lon="7.7967888"><ele>20.0</ele><time>2026-04-18T12:25:01.367Z</time></trkpt><trkpt lat="33.8665779" lon="7.7969431"><ele>20.0</ele><time>2026-04-18T12:25:02.375Z</time></trkpt><trkpt lat="33.8666018" lon="7.7970895"><ele>20.5</ele><time>2026-04-18T12:25:03.366Z</time></trkpt><trkpt lat="33.8666206" lon="7.7972599"><ele>21.0</ele><time>2026-04-18T12:25:04.372Z</time></trkpt><trkpt lat="33.8666278" lon="7.7974351"><ele>21.5</ele><time>2026-04-18T12:25:05.37Z</time></trkpt><trkpt lat="33.8666446" lon="7.7976113"><ele>22.0</ele><time>2026-04-18T12:25:06.376Z</time></trkpt><trkpt lat="33.8666639" lon="7.7977863"><ele>22.0</ele><time>2026-04-18T12:25:07.378Z</time></trkpt><trkpt lat="33.8666897" lon="7.7979663"><ele>22.0</ele><time>2026-04-18T12:25:08.369Z</time></trkpt><trkpt lat="33.8667196" lon="7.798148"><ele>22.0</ele><time>2026-04-18T12:25:09.391Z</time></trkpt><trkpt lat="33.8667555" lon="7.7983246"><ele>21.5</ele><time>2026-04-18T12:25:10.372Z</time></trkpt><trkpt lat="33.8667938" lon="7.7984962"><ele>21.0</ele><time>2026-04-18T12:25:11.367Z</time></trkpt><trkpt lat="33.8668301" lon="7.7986675"><ele>20.5</ele><time>2026-04-18T12:25:12.388Z</time></trkpt><trkpt lat="33.8668625" lon="7.7988322"><ele>20.0</ele><time>2026-04-18T12:25:13.362Z</time></trkpt><trkpt lat="33.8668929" lon="7.7989907"><ele>20.0</ele><time>2026-04-18T12:25:14.369Z</time></trkpt><trkpt lat="33.8669293" lon="7.7991512"><ele>20.0</ele><time>2026-04-18T12:25:15.365Z</time></trkpt><trkpt lat="33.8669706" lon="7.7993117"><ele>20.0</ele><time>2026-04-18T12:25:16.365Z</time></trkpt><trkpt lat="33.8670134" lon="7.7994727"><ele>20.0</ele><time>2026-04-18T12:25:17.363Z</time></trkpt><trkpt lat="33.8670563" lon="7.7996336"><ele>20.0</ele><time>2026-04-18T12:25:18.364Z</time></trkpt><trkpt lat="33.8670916" lon="7.7997926"><ele>20.0</ele><time>2026-04-18T12:25:19.363Z</time></trkpt><trkpt lat="33.8671246" lon="7.7999607"><ele>20.0</ele><time>2026-04-18T12:25:20.36Z</time></trkpt><trkpt lat="33.8671531" lon="7.8001376"><ele>20.0</ele><time>2026-04-18T12:25:21.363Z</time></trkpt><trkpt lat="33.8671786" lon="7.8003203"><ele>20.0</ele><time>2026-04-18T12:25:22.364Z</time></trkpt><trkpt lat="33.8672064" lon="7.8005047"><ele>20.0</ele><time>2026-04-18T12:25:23.364Z</time></trkpt><trkpt lat="33.8672335" lon="7.800691"><ele>20.0</ele><time>2026-04-18T12:25:24.372Z</time></trkpt><trkpt lat="33.867259" lon="7.800873"><ele>20.0</ele><time>2026-04-18T12:25:25.373Z</time></trkpt><trkpt lat="33.8672832" lon="7.8010549"><ele>20.0</ele><time>2026-04-18T12:25:26.364Z</time></trkpt><trkpt lat="33.8673074" lon="7.8012422"><ele>20.0</ele><time>2026-04-18T12:25:27.367Z</time></trkpt><trkpt lat="33.8673308" lon="7.8014362"><ele>20.0</ele><time>2026-04-18T12:25:28.364Z</time></trkpt><trkpt lat="33.8673531" lon="7.8016309"><ele>20.0</ele><time>2026-04-18T12:25:29.37Z</time></trkpt><trkpt lat="33.8673768" lon="7.8018255"><ele>20.0</ele><time>2026-04-18T12:25:30.373Z</time></trkpt><trkpt lat="33.8674007" lon="7.8020191"><ele>20.0</ele><time>2026-04-18T12:25:31.37Z</time></trkpt><trkpt lat="33.8674224" lon="7.8022105"><ele>20.0</ele><time>2026-04-18T12:25:32.369Z</time></trkpt><trkpt lat="33.867448" lon="7.8024047"><ele>20.0</ele><time>2026-04-18T12:25:33.363Z</time></trkpt><trkpt lat="33.8674743" lon="7.8025998"><ele>19.666666666666668</ele><time>2026-04-18T12:25:34.371Z</time></trkpt><trkpt lat="33.8675025" lon="7.8027927"><ele>19.333333333333332</ele><time>2026-04-18T12:25:35.368Z</time></trkpt><trkpt lat="33.8675312" lon="7.8029798"><ele>19.0</ele><time>2026-04-18T12:25:36.363Z</time></trkpt><trkpt lat="33.8675612" lon="7.8031608"><ele>19.0</ele><time>2026-04-18T12:25:37.374Z</time></trkpt><trkpt lat="33.8675896" lon="7.8033367"><ele>19.0</ele><time>2026-04-18T12:25:38.374Z</time></trkpt><trkpt lat="33.8676162" lon="7.8035095"><ele>19.0</ele><time>2026-04-18T12:25:39.372Z</time></trkpt><trkpt lat="33.8676424" lon="7.8036847"><ele>19.0</ele><time>2026-04-18T12:25:40.381Z</time></trkpt><trkpt lat="33.867669" lon="7.8038621"><ele>19.0</ele><time>2026-04-18T12:25:41.368Z</time></trkpt><trkpt lat="33.8676969" lon="7.8040395"><ele>19.0</ele><time>2026-04-18T12:25:42.362Z</time></trkpt><trkpt lat="33.867727" lon="7.804218"><ele>19.0</ele><time>2026-04-18T12:25:43.367Z</time></trkpt><trkpt lat="33.8677568" lon="7.8043944"><ele>19.5</ele><time>2026-04-18T12:25:44.367Z</time></trkpt><trkpt lat="33.8677855" lon="7.8045661"><ele>20.0</ele><time>2026-04-18T12:25:45.362Z</time></trkpt><trkpt lat="33.8678133" lon="7.804739"><ele>20.5</ele><time>2026-04-18T12:25:46.364Z</time></trkpt><trkpt lat="33.8678407" lon="7.8049153"><ele>21.0</ele><time>2026-04-18T12:25:47.384Z</time></trkpt><trkpt lat="33.8678693" lon="7.8050967"><ele>21.0</ele><time>2026-04-18T12:25:48.376Z</time></trkpt><trkpt lat="33.8679002" lon="7.8052832"><ele>21.0</ele><time>2026-04-18T12:25:49.368Z</time></trkpt><trkpt lat="33.8679355" lon="7.8054728"><ele>21.0</ele><time>2026-04-18T12:25:50.372Z</time></trkpt><trkpt lat="33.8679721" lon="7.8056656"><ele>21.0</ele><time>2026-04-18T12:25:51.367Z</time></trkpt><trkpt lat="33.8680113" lon="7.8058631"><ele>21.0</ele><time>2026-04-18T12:25:52.38Z</time></trkpt><trkpt lat="33.8680538" lon="7.8060631"><ele>21.0</ele><time>2026-04-18T12:25:53.376Z</time></trkpt><trkpt lat="33.8680953" lon="7.8062593"><ele>20.666666666666668</ele><time>2026-04-18T12:25:54.372Z</time></trkpt><trkpt lat="33.8681329" lon="7.8064547"><ele>20.333333333333336</ele><time>2026-04-18T12:25:55.365Z</time></trkpt><trkpt lat="33.8681681" lon="7.8066502"><ele>20.0</ele><time>2026-04-18T12:25:56.371Z</time></trkpt><trkpt lat="33.8682029" lon="7.8068458"><ele>20.0</ele><time>2026-04-18T12:25:57.366Z</time></trkpt><trkpt lat="33.8682344" lon="7.8070357"><ele>20.0</ele><time>2026-04-18T12:25:58.358Z</time></trkpt><trkpt lat="33.8682622" lon="7.8072215"><ele>20.0</ele><time>2026-04-18T12:25:59.365Z</time></trkpt><trkpt lat="33.8682851" lon="7.8074044"><ele>20.0</ele><time>2026-04-18T12:26:00.361Z</time></trkpt><trkpt lat="33.8683006" lon="7.8075814"><ele>20.0</ele><time>2026-04-18T12:26:01.374Z</time></trkpt><trkpt lat="33.8683112" lon="7.8077535"><ele>20.0</ele><time>2026-04-18T12:26:02.363Z</time></trkpt><trkpt lat="33.8683172" lon="7.8079246"><ele>20.0</ele><time>2026-04-18T12:26:03.365Z</time></trkpt><trkpt lat="33.8683241" lon="7.8081007"><ele>20.25</ele><time>2026-04-18T12:26:04.361Z</time></trkpt><trkpt lat="33.8683337" lon="7.8082718"><ele>20.5</ele><time>2026-04-18T12:26:05.36Z</time></trkpt><trkpt lat="33.8683474" lon="7.8084443"><ele>20.75</ele><time>2026-04-18T12:26:06.366Z</time></trkpt><trkpt lat="33.8683668" lon="7.8086158"><ele>21.0</ele><time>2026-04-18T12:26:07.369Z</time></trkpt><trkpt lat="33.8683893" lon="7.8087807"><ele>21.0</ele><time>2026-04-18T12:26:08.367Z</time></trkpt><trkpt lat="33.8684127" lon="7.8089356"><ele>21.0</ele><time>2026-04-18T12:26:09.364Z</time></trkpt><trkpt lat="33.8684326" lon="7.8090897"><ele>21.0</ele><time>2026-04-18T12:26:10.358Z</time></trkpt><trkpt lat="33.8684511" lon="7.8092432"><ele>21.0</ele><time>2026-04-18T12:26:11.364Z</time></trkpt><trkpt lat="33.8684725" lon="7.8093951"><ele>21.0</ele><time>2026-04-18T12:26:12.361Z</time></trkpt><trkpt lat="33.8684977" lon="7.8095452"><ele>21.0</ele><time>2026-04-18T12:26:13.37Z</time></trkpt><trkpt lat="33.8685245" lon="7.8096929"><ele>21.0</ele><time>2026-04-18T12:26:14.362Z</time></trkpt><trkpt lat="33.8685525" lon="7.8098383"><ele>21.0</ele><time>2026-04-18T12:26:15.369Z</time></trkpt><trkpt lat="33.8685806" lon="7.8099851"><ele>21.0</ele><time>2026-04-18T12:26:16.367Z</time></trkpt><trkpt lat="33.8686109" lon="7.8101328"><ele>21.0</ele><time>2026-04-18T12:26:17.38Z</time></trkpt><trkpt lat="33.8686445" lon="7.8102808"><ele>21.0</ele><time>2026-04-18T12:26:18.359Z</time></trkpt><trkpt lat="33.8686758" lon="7.8104287"><ele>21.0</ele><time>2026-04-18T12:26:19.361Z</time></trkpt><trkpt lat="33.8686993" lon="7.8105759"><ele>20.75</ele><time>2026-04-18T12:26:20.377Z</time></trkpt><trkpt lat="33.8687177" lon="7.8107299"><ele>20.5</ele><time>2026-04-18T12:26:21.367Z</time></trkpt><trkpt lat="33.8687368" lon="7.8108849"><ele>20.25</ele><time>2026-04-18T12:26:22.383Z</time></trkpt><trkpt lat="33.868759" lon="7.8110338"><ele>20.0</ele><time>2026-04-18T12:26:23.369Z</time></trkpt><trkpt lat="33.8687786" lon="7.8111727"><ele>20.0</ele><time>2026-04-18T12:26:24.363Z</time></trkpt><trkpt lat="33.868798" lon="7.8113017"><ele>20.0</ele><time>2026-04-18T12:26:25.367Z</time></trkpt><trkpt lat="33.868817" lon="7.8114223"><ele>20.0</ele><time>2026-04-18T12:26:26.362Z</time></trkpt><trkpt lat="33.8688296" lon="7.8115228"><ele>20.0</ele><time>2026-04-18T12:26:27.363Z</time></trkpt><trkpt lat="33.868833" lon="7.8116013"><ele>20.0</ele><time>2026-04-18T12:26:28.367Z</time></trkpt><trkpt lat="33.8688599" lon="7.8117125"><ele>20.0</ele><time>2026-04-18T12:26:30.368Z</time></trkpt><trkpt lat="33.8688776" lon="7.8117904"><ele>20.0</ele><time>2026-04-18T12:26:31.371Z</time></trkpt><trkpt lat="33.8689114" lon="7.8118697"><ele>20.0</ele><time>2026-04-18T12:26:32.373Z</time></trkpt><trkpt lat="33.8689434" lon="7.8119509"><ele>20.0</ele><time>2026-04-18T12:26:33.363Z</time></trkpt><trkpt lat="33.8689763" lon="7.812038"><ele>20.0</ele><time>2026-04-18T12:26:34.368Z</time></trkpt><trkpt lat="33.8690098" lon="7.8121275"><ele>20.0</ele><time>2026-04-18T12:26:35.358Z</time></trkpt><trkpt lat="33.8690368" lon="7.8122176"><ele>20.0</ele><time>2026-04-18T12:26:36.377Z</time></trkpt><trkpt lat="33.8690639" lon="7.8123158"><ele>20.0</ele><time>2026-04-18T12:26:37.363Z</time></trkpt><trkpt lat="33.8690888" lon="7.8124173"><ele>20.0</ele><time>2026-04-18T12:26:38.362Z</time></trkpt><trkpt lat="33.8691121" lon="7.8125252"><ele>20.0</ele><time>2026-04-18T12:26:39.368Z</time></trkpt><trkpt lat="33.8691325" lon="7.8126369"><ele>20.0</ele><time>2026-04-18T12:26:40.38Z</time></trkpt><trkpt lat="33.8691497" lon="7.812755"><ele>20.2</ele><time>2026-04-18T12:26:41.362Z</time></trkpt><trkpt lat="33.8691657" lon="7.8128677"><ele>20.4</ele><time>2026-04-18T12:26:42.373Z</time></trkpt><trkpt lat="33.8691775" lon="7.8129812"><ele>20.6</ele><time>2026-04-18T12:26:43.361Z</time></trkpt><trkpt lat="33.8691834" lon="7.8130934"><ele>20.8</ele><time>2026-04-18T12:26:44.369Z</time></trkpt><trkpt lat="33.8691841" lon="7.813201"><ele>21.0</ele><time>2026-04-18T12:26:45.372Z</time></trkpt><trkpt lat="33.8691856" lon="7.8133206"><ele>21.0</ele><time>2026-04-18T12:26:46.363Z</time></trkpt><trkpt lat="33.869185" lon="7.8134427"><ele>21.0</ele><time>2026-04-18T12:26:47.365Z</time></trkpt><trkpt lat="33.869171" lon="7.8135575"><ele>21.0</ele><time>2026-04-18T12:26:48.364Z</time></trkpt><trkpt lat="33.8691506" lon="7.813678"><ele>21.0</ele><time>2026-04-18T12:26:49.371Z</time></trkpt><trkpt lat="33.8691289" lon="7.8137949"><ele>21.0</ele><time>2026-04-18T12:26:50.37Z</time></trkpt><trkpt lat="33.8691118" lon="7.8139203"><ele>21.200000000000003</ele><time>2026-04-18T12:26:51.368Z</time></trkpt><trkpt lat="33.8691013" lon="7.8140541"><ele>21.400000000000002</ele><time>2026-04-18T12:26:52.368Z</time></trkpt><trkpt lat="33.8690907" lon="7.81419"><ele>21.6</ele><time>2026-04-18T12:26:53.358Z</time></trkpt><trkpt lat="33.8690841" lon="7.8143185"><ele>21.8</ele><time>2026-04-18T12:26:54.371Z</time></trkpt><trkpt lat="33.8690819" lon="7.8144453"><ele>22.0</ele><time>2026-04-18T12:26:55.372Z</time></trkpt><trkpt lat="33.8690815" lon="7.8145665"><ele>22.0</ele><time>2026-04-18T12:26:56.373Z</time></trkpt><trkpt lat="33.8690815" lon="7.8146718"><ele>22.0</ele><time>2026-04-18T12:26:57.365Z</time></trkpt><trkpt lat="33.8690853" lon="7.8147622"><ele>22.0</ele><time>2026-04-18T12:26:58.365Z</time></trkpt><trkpt lat="33.8690936" lon="7.8148409"><ele>22.0</ele><time>2026-04-18T12:26:59.374Z</time></trkpt><trkpt lat="33.8691119" lon="7.8149514"><ele>22.0</ele><time>2026-04-18T12:27:01.369Z</time></trkpt><trkpt lat="33.8691538" lon="7.8151099"><ele>22.0</ele><time>2026-04-18T12:27:51.384Z</time></trkpt><trkpt lat="33.8691603" lon="7.8152"><ele>22.0</ele><time>2026-04-18T12:28:00.377Z</time></trkpt><trkpt lat="33.8691995" lon="7.8153471"><ele>22.0</ele><time>2026-04-18T12:28:02.371Z</time></trkpt><trkpt lat="33.8692319" lon="7.8154449"><ele>22.0</ele><time>2026-04-18T12:28:03.366Z</time></trkpt><trkpt lat="33.8692668" lon="7.8155528"><ele>22.0</ele><time>2026-04-18T12:28:04.369Z</time></trkpt><trkpt lat="33.8693042" lon="7.8156591"><ele>22.0</ele><time>2026-04-18T12:28:05.372Z</time></trkpt><trkpt lat="33.869341" lon="7.8157613"><ele>22.0</ele><time>2026-04-18T12:28:06.366Z</time></trkpt><trkpt lat="33.8693758" lon="7.815864"><ele>22.0</ele><time>2026-04-18T12:28:07.37Z</time></trkpt><trkpt lat="33.8694098" lon="7.8159728"><ele>22.0</ele><time>2026-04-18T12:28:08.367Z</time></trkpt><trkpt lat="33.8694445" lon="7.8160923"><ele>22.0</ele><time>2026-04-18T12:28:09.363Z</time></trkpt><trkpt lat="33.8694798" lon="7.816217"><ele>22.0</ele><time>2026-04-18T12:28:10.366Z</time></trkpt><trkpt lat="33.8695169" lon="7.8163441"><ele>22.0</ele><time>2026-04-18T12:28:11.37Z</time></trkpt><trkpt lat="33.8695551" lon="7.816467"><ele>22.0</ele><time>2026-04-18T12:28:12.372Z</time></trkpt><trkpt lat="33.8695992" lon="7.8165863"><ele>22.0</ele><time>2026-04-18T12:28:13.366Z</time></trkpt><trkpt lat="33.8696519" lon="7.8167016"><ele>22.0</ele><time>2026-04-18T12:28:14.369Z</time></trkpt><trkpt lat="33.8697121" lon="7.8168184"><ele>22.200000000000003</ele><time>2026-04-18T12:28:15.375Z</time></trkpt><trkpt lat="33.8697711" lon="7.8169305"><ele>22.4</ele><time>2026-04-18T12:28:16.377Z</time></trkpt><trkpt lat="33.8698258" lon="7.8170383"><ele>22.6</ele><time>2026-04-18T12:28:17.369Z</time></trkpt><trkpt lat="33.8698763" lon="7.8171495"><ele>22.799999999999997</ele><time>2026-04-18T12:28:18.374Z</time></trkpt><trkpt lat="33.8699273" lon="7.8172646"><ele>23.0</ele><time>2026-04-18T12:28:19.365Z</time></trkpt><trkpt lat="33.8699803" lon="7.8173834"><ele>23.0</ele><time>2026-04-18T12:28:20.366Z</time></trkpt><trkpt lat="33.8700285" lon="7.8174992"><ele>23.0</ele><time>2026-04-18T12:28:21.371Z</time></trkpt><trkpt lat="33.8700716" lon="7.8176191"><ele>23.0</ele><time>2026-04-18T12:28:22.361Z</time></trkpt><trkpt lat="33.8701108" lon="7.8177477"><ele>23.0</ele><time>2026-04-18T12:28:23.359Z</time></trkpt><trkpt lat="33.8701462" lon="7.8178764"><ele>23.0</ele><time>2026-04-18T12:28:24.367Z</time></trkpt><trkpt lat="33.8701778" lon="7.8180001"><ele>23.2</ele><time>2026-04-18T12:28:25.369Z</time></trkpt><trkpt lat="33.8702066" lon="7.8181192"><ele>23.4</ele><time>2026-04-18T12:28:26.374Z</time></trkpt><trkpt lat="33.8702357" lon="7.8182314"><ele>23.599999999999998</ele><time>2026-04-18T12:28:27.369Z</time></trkpt><trkpt lat="33.8702688" lon="7.8183383"><ele>23.799999999999997</ele><time>2026-04-18T12:28:28.365Z</time></trkpt><trkpt lat="33.8703045" lon="7.8184427"><ele>24.0</ele><time>2026-04-18T12:28:29.361Z</time></trkpt><trkpt lat="33.8703339" lon="7.8185464"><ele>23.666666666666668</ele><time>2026-04-18T12:28:30.374Z</time></trkpt><trkpt lat="33.8703501" lon="7.8186534"><ele>23.333333333333332</ele><time>2026-04-18T12:28:31.372Z</time></trkpt><trkpt lat="33.8703651" lon="7.8187602"><ele>23.0</ele><time>2026-04-18T12:28:32.367Z</time></trkpt><trkpt lat="33.8703684" lon="7.8188753"><ele>22.666666666666664</ele><time>2026-04-18T12:28:33.37Z</time></trkpt><trkpt lat="33.8703722" lon="7.8189832"><ele>22.333333333333332</ele><time>2026-04-18T12:28:34.366Z</time></trkpt><trkpt lat="33.8703732" lon="7.8190675"><ele>22.0</ele><time>2026-04-18T12:28:35.368Z</time></trkpt><trkpt lat="33.8703792" lon="7.8191749"><ele>22.0</ele><time>2026-04-18T12:28:37.368Z</time></trkpt><trkpt lat="33.8703709" lon="7.8192643"><ele>22.0</ele><time>2026-04-18T12:28:40.363Z</time></trkpt><trkpt lat="33.8703233" lon="7.8193204"><ele>22.0</ele><time>2026-04-18T12:28:42.369Z</time></trkpt><trkpt lat="33.8702464" lon="7.8193616"><ele>22.0</ele><time>2026-04-18T12:28:44.394Z</time></trkpt><trkpt lat="33.870142" lon="7.8194185"><ele>22.0</ele><time>2026-04-18T12:28:46.359Z</time></trkpt><trkpt lat="33.8700446" lon="7.8194959"><ele>22.333333333333332</ele><time>2026-04-18T12:28:48.363Z</time></trkpt><trkpt lat="33.8699858" lon="7.8195322"><ele>22.666666666666664</ele><time>2026-04-18T12:28:49.369Z</time></trkpt><trkpt lat="33.8699221" lon="7.8195641"><ele>23.0</ele><time>2026-04-18T12:28:50.376Z</time></trkpt><trkpt lat="33.8698571" lon="7.8196023"><ele>23.333333333333332</ele><time>2026-04-18T12:28:51.359Z</time></trkpt><trkpt lat="33.8697976" lon="7.8196398"><ele>23.666666666666668</ele><time>2026-04-18T12:28:52.362Z</time></trkpt><trkpt lat="33.869739" lon="7.8196796"><ele>24.0</ele><time>2026-04-18T12:28:53.372Z</time></trkpt><trkpt lat="33.8696414" lon="7.8197492"><ele>24.0</ele><time>2026-04-18T12:28:55.359Z</time></trkpt><trkpt lat="33.8696189" lon="7.8198569"><ele>24.0</ele><time>2026-04-18T12:28:58.366Z</time></trkpt><trkpt lat="33.8696669" lon="7.8199445"><ele>24.0</ele><time>2026-04-18T12:29:00.372Z</time></trkpt><trkpt lat="33.8697348" lon="7.8200316"><ele>24.0</ele><time>2026-04-18T12:29:02.372Z</time></trkpt><trkpt lat="33.8697848" lon="7.8201083"><ele>24.0</ele><time>2026-04-18T12:29:04.373Z</time></trkpt><trkpt lat="33.8698591" lon="7.8201649"><ele>24.0</ele><time>2026-04-18T12:29:07.371Z</time></trkpt><trkpt lat="33.8699423" lon="7.8201892"><ele>24.4</ele><time>2026-04-18T12:29:09.37Z</time></trkpt><trkpt lat="33.8700712" lon="7.820223"><ele>24.799999999999997</ele><time>2026-04-18T12:29:11.372Z</time></trkpt><trkpt lat="33.8701514" lon="7.8202447"><ele>25.200000000000003</ele><time>2026-04-18T12:29:12.364Z</time></trkpt><trkpt lat="33.870234" lon="7.8202587"><ele>25.6</ele><time>2026-04-18T12:29:13.367Z</time></trkpt><trkpt lat="33.8703199" lon="7.820268"><ele>26.0</ele><time>2026-04-18T12:29:14.375Z</time></trkpt><trkpt lat="33.8704059" lon="7.8202753"><ele>25.999999999999996</ele><time>2026-04-18T12:29:15.364Z</time></trkpt><trkpt lat="33.870491" lon="7.820288"><ele>26.0</ele><time>2026-04-18T12:29:16.368Z</time></trkpt><trkpt lat="33.870573" lon="7.820308"><ele>26.0</ele><time>2026-04-18T12:29:17.378Z</time></trkpt><trkpt lat="33.8706535" lon="7.8203315"><ele>26.0</ele><time>2026-04-18T12:29:18.373Z</time></trkpt><trkpt lat="33.8707383" lon="7.8203569"><ele>25.999999999999996</ele><time>2026-04-18T12:29:19.377Z</time></trkpt><trkpt lat="33.870824" lon="7.8203775"><ele>26.0</ele><time>2026-04-18T12:29:20.361Z</time></trkpt><trkpt lat="33.870901" lon="7.8203989"><ele>26.428571428571427</ele><time>2026-04-18T12:29:21.369Z</time></trkpt><trkpt lat="33.8709699" lon="7.8204302"><ele>26.85714285714286</ele><time>2026-04-18T12:29:22.368Z</time></trkpt><trkpt lat="33.8710279" lon="7.8204726"><ele>27.28571428571429</ele><time>2026-04-18T12:29:23.363Z</time></trkpt><trkpt lat="33.8710764" lon="7.8205242"><ele>27.714285714285715</ele><time>2026-04-18T12:29:24.375Z</time></trkpt><trkpt lat="33.8711145" lon="7.8205899"><ele>28.142857142857146</ele><time>2026-04-18T12:29:25.37Z</time></trkpt><trkpt lat="33.8711483" lon="7.8206745"><ele>28.571428571428577</ele><time>2026-04-18T12:29:26.373Z</time></trkpt><trkpt lat="33.8711746" lon="7.8207803"><ele>29.000000000000004</ele><time>2026-04-18T12:29:27.369Z</time></trkpt><trkpt lat="33.8711925" lon="7.8209041"><ele>29.0</ele><time>2026-04-18T12:29:28.368Z</time></trkpt><trkpt lat="33.8712098" lon="7.8210229"><ele>29.0</ele><time>2026-04-18T12:29:29.365Z</time></trkpt><trkpt lat="33.8712291" lon="7.821141"><ele>29.0</ele><time>2026-04-18T12:29:30.364Z</time></trkpt><trkpt lat="33.8712507" lon="7.8212539"><ele>29.0</ele><time>2026-04-18T12:29:31.371Z</time></trkpt><trkpt lat="33.8712782" lon="7.821372"><ele>29.0</ele><time>2026-04-18T12:29:32.369Z</time></trkpt><trkpt lat="33.8713129" lon="7.8214974"><ele>29.0</ele><time>2026-04-18T12:29:33.381Z</time></trkpt><trkpt lat="33.8713448" lon="7.8216166"><ele>29.0</ele><time>2026-04-18T12:29:34.369Z</time></trkpt><trkpt lat="33.8713672" lon="7.8217289"><ele>29.0</ele><time>2026-04-18T12:29:35.363Z</time></trkpt><trkpt lat="33.87138" lon="7.8218366"><ele>29.0</ele><time>2026-04-18T12:29:36.38Z</time></trkpt><trkpt lat="33.8713856" lon="7.8219486"><ele>29.0</ele><time>2026-04-18T12:29:37.379Z</time></trkpt><trkpt lat="33.8713828" lon="7.8220691"><ele>28.799999999999997</ele><time>2026-04-18T12:29:38.377Z</time></trkpt><trkpt lat="33.8713667" lon="7.8221926"><ele>28.599999999999998</ele><time>2026-04-18T12:29:39.362Z</time></trkpt><trkpt lat="33.87134" lon="7.8223204"><ele>28.4</ele><time>2026-04-18T12:29:40.373Z</time></trkpt><trkpt lat="33.871316" lon="7.8224496"><ele>28.2</ele><time>2026-04-18T12:29:41.377Z</time></trkpt><trkpt lat="33.8712944" lon="7.8225795"><ele>28.0</ele><time>2026-04-18T12:29:42.363Z</time></trkpt><trkpt lat="33.8712668" lon="7.8227074"><ele>28.5</ele><time>2026-04-18T12:29:43.363Z</time></trkpt><trkpt lat="33.8712335" lon="7.8228377"><ele>29.0</ele><time>2026-04-18T12:29:44.361Z</time></trkpt><trkpt lat="33.8712016" lon="7.8229719"><ele>29.5</ele><time>2026-04-18T12:29:45.375Z</time></trkpt><trkpt lat="33.8711764" lon="7.8231088"><ele>30.0</ele><time>2026-04-18T12:29:46.359Z</time></trkpt><trkpt lat="33.8711575" lon="7.8232427"><ele>30.0</ele><time>2026-04-18T12:29:47.357Z</time></trkpt><trkpt lat="33.8711356" lon="7.8233791"><ele>30.0</ele><time>2026-04-18T12:29:48.36Z</time></trkpt><trkpt lat="33.8711196" lon="7.8235143"><ele>30.0</ele><time>2026-04-18T12:29:49.371Z</time></trkpt><trkpt lat="33.8711055" lon="7.8236548"><ele>30.0</ele><time>2026-04-18T12:29:50.372Z</time></trkpt><trkpt lat="33.8710906" lon="7.8237945"><ele>30.75</ele><time>2026-04-18T12:29:51.371Z</time></trkpt><trkpt lat="33.8710734" lon="7.8239413"><ele>31.5</ele><time>2026-04-18T12:29:52.369Z</time></trkpt><trkpt lat="33.8710532" lon="7.824093"><ele>32.25</ele><time>2026-04-18T12:29:53.366Z</time></trkpt><trkpt lat="33.8710391" lon="7.824248"><ele>33.0</ele><time>2026-04-18T12:29:54.36Z</time></trkpt><trkpt lat="33.8710351" lon="7.8244067"><ele>33.75</ele><time>2026-04-18T12:29:55.368Z</time></trkpt><trkpt lat="33.8710388" lon="7.8245613"><ele>34.5</ele><time>2026-04-18T12:29:56.365Z</time></trkpt><trkpt lat="33.8710412" lon="7.8247148"><ele>35.25</ele><time>2026-04-18T12:29:57.373Z</time></trkpt><trkpt lat="33.8710376" lon="7.8248672"><ele>36.0</ele><time>2026-04-18T12:29:58.368Z</time></trkpt><trkpt lat="33.8710256" lon="7.8250198"><ele>36.25</ele><time>2026-04-18T12:29:59.373Z</time></trkpt><trkpt lat="33.8710053" lon="7.8251734"><ele>36.5</ele><time>2026-04-18T12:30:00.369Z</time></trkpt><trkpt lat="33.8709833" lon="7.8253245"><ele>36.75</ele><time>2026-04-18T12:30:01.361Z</time></trkpt><trkpt lat="33.8709613" lon="7.8254782"><ele>37.0</ele><time>2026-04-18T12:30:02.361Z</time></trkpt><trkpt lat="33.8709408" lon="7.8256351"><ele>35.5</ele><time>2026-04-18T12:30:03.366Z</time></trkpt><trkpt lat="33.8709192" lon="7.8257952"><ele>34.0</ele><time>2026-04-18T12:30:04.383Z</time></trkpt><trkpt lat="33.8708989" lon="7.825957"><ele>32.5</ele><time>2026-04-18T12:30:05.372Z</time></trkpt><trkpt lat="33.870878" lon="7.8261236"><ele>31.0</ele><time>2026-04-18T12:30:06.365Z</time></trkpt><trkpt lat="33.8708594" lon="7.8262911"><ele>31.0</ele><time>2026-04-18T12:30:07.368Z</time></trkpt><trkpt lat="33.8708419" lon="7.826457"><ele>31.0</ele><time>2026-04-18T12:30:08.372Z</time></trkpt><trkpt lat="33.8708229" lon="7.8266234"><ele>31.0</ele><time>2026-04-18T12:30:09.363Z</time></trkpt><trkpt lat="33.8707983" lon="7.8267904"><ele>31.0</ele><time>2026-04-18T12:30:10.374Z</time></trkpt><trkpt lat="33.8707699" lon="7.8269584"><ele>31.25</ele><time>2026-04-18T12:30:11.359Z</time></trkpt><trkpt lat="33.8707402" lon="7.827126"><ele>31.5</ele><time>2026-04-18T12:30:12.359Z</time></trkpt><trkpt lat="33.8707074" lon="7.8272911"><ele>31.75</ele><time>2026-04-18T12:30:13.363Z</time></trkpt><trkpt lat="33.8706751" lon="7.8274534"><ele>32.0</ele><time>2026-04-18T12:30:14.363Z</time></trkpt><trkpt lat="33.8706445" lon="7.827614"><ele>32.75</ele><time>2026-04-18T12:30:15.36Z</time></trkpt><trkpt lat="33.8706175" lon="7.8277769"><ele>33.5</ele><time>2026-04-18T12:30:16.359Z</time></trkpt><trkpt lat="33.870595" lon="7.8279417"><ele>34.25</ele><time>2026-04-18T12:30:17.359Z</time></trkpt><trkpt lat="33.8705752" lon="7.8281048"><ele>35.0</ele><time>2026-04-18T12:30:18.367Z</time></trkpt><trkpt lat="33.8705597" lon="7.8282637"><ele>35.0</ele><time>2026-04-18T12:30:19.364Z</time></trkpt><trkpt lat="33.8705477" lon="7.8284177"><ele>35.0</ele><time>2026-04-18T12:30:20.37Z</time></trkpt><trkpt lat="33.8705351" lon="7.828561"><ele>35.0</ele><time>2026-04-18T12:30:21.372Z</time></trkpt><trkpt lat="33.870523" lon="7.8286968"><ele>35.0</ele><time>2026-04-18T12:30:22.362Z</time></trkpt><trkpt lat="33.8705107" lon="7.8288349"><ele>35.5</ele><time>2026-04-18T12:30:23.363Z</time></trkpt><trkpt lat="33.8704939" lon="7.8289791"><ele>36.0</ele><time>2026-04-18T12:30:24.361Z</time></trkpt><trkpt lat="33.8704728" lon="7.8291286"><ele>36.5</ele><time>2026-04-18T12:30:25.37Z</time></trkpt><trkpt lat="33.8704475" lon="7.8292818"><ele>37.0</ele><time>2026-04-18T12:30:26.37Z</time></trkpt><trkpt lat="33.8704248" lon="7.8294318"><ele>37.0</ele><time>2026-04-18T12:30:27.371Z</time></trkpt><trkpt lat="33.870408" lon="7.8295734"><ele>37.0</ele><time>2026-04-18T12:30:28.365Z</time></trkpt><trkpt lat="33.8703943" lon="7.8297083"><ele>37.0</ele><time>2026-04-18T12:30:29.368Z</time></trkpt><trkpt lat="33.870386" lon="7.8298387"><ele>37.0</ele><time>2026-04-18T12:30:30.371Z</time></trkpt><trkpt lat="33.8703853" lon="7.8299701"><ele>37.0</ele><time>2026-04-18T12:30:31.368Z</time></trkpt><trkpt lat="33.8703783" lon="7.8300991"><ele>36.800000000000004</ele><time>2026-04-18T12:30:32.363Z</time></trkpt><trkpt lat="33.870368" lon="7.830228"><ele>36.6</ele><time>2026-04-18T12:30:33.362Z</time></trkpt><trkpt lat="33.8703591" lon="7.8303612"><ele>36.400000000000006</ele><time>2026-04-18T12:30:34.362Z</time></trkpt><trkpt lat="33.8703548" lon="7.8304976"><ele>36.2</ele><time>2026-04-18T12:30:35.361Z</time></trkpt><trkpt lat="33.8703534" lon="7.830626"><ele>36.0</ele><time>2026-04-18T12:30:36.362Z</time></trkpt><trkpt lat="33.8703516" lon="7.8307425"><ele>36.0</ele><time>2026-04-18T12:30:37.367Z</time></trkpt><trkpt lat="33.8703498" lon="7.83085"><ele>36.0</ele><time>2026-04-18T12:30:38.365Z</time></trkpt><trkpt lat="33.8703482" lon="7.830971"><ele>36.0</ele><time>2026-04-18T12:30:39.369Z</time></trkpt><trkpt lat="33.8703438" lon="7.8310894"><ele>36.0</ele><time>2026-04-18T12:30:40.362Z</time></trkpt><trkpt lat="33.8703357" lon="7.8311886"><ele>36.0</ele><time>2026-04-18T12:30:41.363Z</time></trkpt><trkpt lat="33.8703233" lon="7.8312743"><ele>36.0</ele><time>2026-04-18T12:30:42.364Z</time></trkpt><trkpt lat="33.8703009" lon="7.8313989"><ele>36.166666666666664</ele><time>2026-04-18T12:30:44.363Z</time></trkpt><trkpt lat="33.8703166" lon="7.8315218"><ele>36.333333333333336</ele><time>2026-04-18T12:30:46.362Z</time></trkpt><trkpt lat="33.8703959" lon="7.8316287"><ele>36.5</ele><time>2026-04-18T12:30:48.364Z</time></trkpt><trkpt lat="33.8704419" lon="7.8316892"><ele>36.66666666666667</ele><time>2026-04-18T12:30:49.364Z</time></trkpt><trkpt lat="33.8704865" lon="7.8317515"><ele>36.833333333333336</ele><time>2026-04-18T12:30:50.366Z</time></trkpt><trkpt lat="33.8705326" lon="7.8318131"><ele>37.0</ele><time>2026-04-18T12:30:51.37Z</time></trkpt><trkpt lat="33.8705801" lon="7.8318824"><ele>37.0</ele><time>2026-04-18T12:30:52.36Z</time></trkpt><trkpt lat="33.8706413" lon="7.8319567"><ele>37.0</ele><time>2026-04-18T12:30:53.364Z</time></trkpt><trkpt lat="33.8707177" lon="7.8320333"><ele>37.0</ele><time>2026-04-18T12:30:54.361Z</time></trkpt><trkpt lat="33.8708017" lon="7.8320985"><ele>37.0</ele><time>2026-04-18T12:30:55.366Z</time></trkpt><trkpt lat="33.8708987" lon="7.8321485"><ele>37.0</ele><time>2026-04-18T12:30:56.367Z</time></trkpt><trkpt lat="33.8710093" lon="7.8321833"><ele>37.5</ele><time>2026-04-18T12:30:57.364Z</time></trkpt><trkpt lat="33.871129" lon="7.832205"><ele>38.0</ele><time>2026-04-18T12:30:58.36Z</time></trkpt><trkpt lat="33.8712582" lon="7.8322186"><ele>38.5</ele><time>2026-04-18T12:30:59.372Z</time></trkpt><trkpt lat="33.8713988" lon="7.8322239"><ele>39.0</ele><time>2026-04-18T12:31:00.365Z</time></trkpt><trkpt lat="33.8715496" lon="7.8322216"><ele>39.0</ele><time>2026-04-18T12:31:01.369Z</time></trkpt><trkpt lat="33.871711" lon="7.8322126"><ele>39.0</ele><time>2026-04-18T12:31:02.372Z</time></trkpt><trkpt lat="33.8718839" lon="7.8321976"><ele>39.0</ele><time>2026-04-18T12:31:03.365Z</time></trkpt><trkpt lat="33.8720575" lon="7.8321843"><ele>40.666666666666664</ele><time>2026-04-18T12:31:04.363Z</time></trkpt><trkpt lat="33.8722343" lon="7.8321724"><ele>42.33333333333333</ele><time>2026-04-18T12:31:05.363Z</time></trkpt><trkpt lat="33.8723957" lon="7.8321602"><ele>44.0</ele><time>2026-04-18T12:31:06.372Z</time></trkpt><trkpt lat="33.8725431" lon="7.832151"><ele>45.0</ele><time>2026-04-18T12:31:07.367Z</time></trkpt><trkpt lat="33.872689" lon="7.8321497"><ele>46.0</ele><time>2026-04-18T12:31:08.365Z</time></trkpt><trkpt lat="33.8728337" lon="7.832157"><ele>47.0</ele><time>2026-04-18T12:31:09.37Z</time></trkpt><trkpt lat="33.8729761" lon="7.8321674"><ele>48.0</ele><time>2026-04-18T12:31:10.371Z</time></trkpt><trkpt lat="33.8731173" lon="7.8321805"><ele>48.0</ele><time>2026-04-18T12:31:11.366Z</time></trkpt><trkpt lat="33.8732587" lon="7.832197"><ele>48.0</ele><time>2026-04-18T12:31:12.363Z</time></trkpt><trkpt lat="33.8734012" lon="7.8322174"><ele>48.0</ele><time>2026-04-18T12:31:13.371Z</time></trkpt><trkpt lat="33.8735393" lon="7.8322399"><ele>48.0</ele><time>2026-04-18T12:31:14.361Z</time></trkpt><trkpt lat="33.8736742" lon="7.8322641"><ele>48.5</ele><time>2026-04-18T12:31:15.363Z</time></trkpt><trkpt lat="33.8738102" lon="7.8322893"><ele>49.0</ele><time>2026-04-18T12:31:16.364Z</time></trkpt><trkpt lat="33.8739472" lon="7.832319"><ele>49.5</ele><time>2026-04-18T12:31:17.362Z</time></trkpt><trkpt lat="33.8740812" lon="7.8323583"><ele>50.0</ele><time>2026-04-18T12:31:18.355Z</time></trkpt><trkpt lat="33.874213" lon="7.8324058"><ele>50.4</ele><time>2026-04-18T12:31:19.359Z</time></trkpt><trkpt lat="33.8743356" lon="7.8324554"><ele>50.8</ele><time>2026-04-18T12:31:20.358Z</time></trkpt><trkpt lat="33.8744472" lon="7.8325031"><ele>51.2</ele><time>2026-04-18T12:31:21.369Z</time></trkpt><trkpt lat="33.8745437" lon="7.832546"><ele>51.6</ele><time>2026-04-18T12:31:22.363Z</time></trkpt><trkpt lat="33.8746211" lon="7.832582"><ele>52.0</ele><time>2026-04-18T12:31:23.374Z</time></trkpt><trkpt lat="33.8747159" lon="7.8326296"><ele>51.8</ele><time>2026-04-18T12:31:25.368Z</time></trkpt><trkpt lat="33.8747747" lon="7.8327185"><ele>51.6</ele><time>2026-04-18T12:31:32.368Z</time></trkpt><trkpt lat="33.8747521" lon="7.8328681"><ele>51.4</ele><time>2026-04-18T12:31:34.361Z</time></trkpt><trkpt lat="33.8747216" lon="7.8329745"><ele>51.199999999999996</ele><time>2026-04-18T12:31:35.373Z</time></trkpt><trkpt lat="33.8746897" lon="7.8330934"><ele>51.0</ele><time>2026-04-18T12:31:36.359Z</time></trkpt><trkpt lat="33.8746568" lon="7.8332214"><ele>51.0</ele><time>2026-04-18T12:31:37.375Z</time></trkpt><trkpt lat="33.874621" lon="7.8333661"><ele>51.0</ele><time>2026-04-18T12:31:38.369Z</time></trkpt><trkpt lat="33.8745799" lon="7.8335249"><ele>51.0</ele><time>2026-04-18T12:31:39.367Z</time></trkpt><trkpt lat="33.8745357" lon="7.8336961"><ele>51.0</ele><time>2026-04-18T12:31:40.369Z</time></trkpt><trkpt lat="33.8744899" lon="7.8338751"><ele>51.33333333333333</ele><time>2026-04-18T12:31:41.368Z</time></trkpt><trkpt lat="33.8744411" lon="7.8340605"><ele>51.666666666666664</ele><time>2026-04-18T12:31:42.364Z</time></trkpt><trkpt lat="33.8743907" lon="7.8342479"><ele>52.0</ele><time>2026-04-18T12:31:43.361Z</time></trkpt><trkpt lat="33.8743408" lon="7.8344304"><ele>52.33333333333333</ele><time>2026-04-18T12:31:44.37Z</time></trkpt><trkpt lat="33.8742929" lon="7.834616"><ele>52.66666666666667</ele><time>2026-04-18T12:31:45.364Z</time></trkpt><trkpt lat="33.8742434" lon="7.8348066"><ele>53.0</ele><time>2026-04-18T12:31:46.364Z</time></trkpt><trkpt lat="33.8741896" lon="7.8350049"><ele>52.0</ele><time>2026-04-18T12:31:47.359Z</time></trkpt><trkpt lat="33.8741357" lon="7.8352086"><ele>51.0</ele><time>2026-04-18T12:31:48.363Z</time></trkpt><trkpt lat="33.874084" lon="7.8354103"><ele>50.0</ele><time>2026-04-18T12:31:49.363Z</time></trkpt><trkpt lat="33.8740311" lon="7.835615"><ele>50.0</ele><time>2026-04-18T12:31:50.362Z</time></trkpt><trkpt lat="33.8739777" lon="7.83582"><ele>50.0</ele><time>2026-04-18T12:31:51.369Z</time></trkpt><trkpt lat="33.8739243" lon="7.8360192"><ele>50.0</ele><time>2026-04-18T12:31:52.368Z</time></trkpt><trkpt lat="33.8738727" lon="7.836218"><ele>50.333333333333336</ele><time>2026-04-18T12:31:53.366Z</time></trkpt><trkpt lat="33.8738226" lon="7.8364156"><ele>50.66666666666667</ele><time>2026-04-18T12:31:54.367Z</time></trkpt><trkpt lat="33.8737718" lon="7.8366102"><ele>51.0</ele><time>2026-04-18T12:31:55.361Z</time></trkpt><trkpt lat="33.8737213" lon="7.8368039"><ele>52.0</ele><time>2026-04-18T12:31:56.359Z</time></trkpt><trkpt lat="33.8736716" lon="7.8369978"><ele>53.0</ele><time>2026-04-18T12:31:57.364Z</time></trkpt><trkpt lat="33.8736212" lon="7.8371915"><ele>54.0</ele><time>2026-04-18T12:31:58.365Z</time></trkpt><trkpt lat="33.8735711" lon="7.8373846"><ele>54.0</ele><time>2026-04-18T12:31:59.368Z</time></trkpt><trkpt lat="33.8735215" lon="7.8375772"><ele>54.0</ele><time>2026-04-18T12:32:00.374Z</time></trkpt><trkpt lat="33.8734722" lon="7.8377679"><ele>54.0</ele><time>2026-04-18T12:32:01.36Z</time></trkpt><trkpt lat="33.8734232" lon="7.8379571"><ele>54.33333333333333</ele><time>2026-04-18T12:32:02.362Z</time></trkpt><trkpt lat="33.8733744" lon="7.8381449"><ele>54.666666666666664</ele><time>2026-04-18T12:32:03.365Z</time></trkpt><trkpt lat="33.8733244" lon="7.8383308"><ele>55.0</ele><time>2026-04-18T12:32:04.365Z</time></trkpt><trkpt lat="33.8732725" lon="7.8385197"><ele>55.0</ele><time>2026-04-18T12:32:05.361Z</time></trkpt><trkpt lat="33.8732192" lon="7.8387131"><ele>55.0</ele><time>2026-04-18T12:32:06.366Z</time></trkpt><trkpt lat="33.8731655" lon="7.8389096"><ele>55.0</ele><time>2026-04-18T12:32:07.37Z</time></trkpt><trkpt lat="33.8731128" lon="7.8391111"><ele>55.0</ele><time>2026-04-18T12:32:08.364Z</time></trkpt><trkpt lat="33.8730596" lon="7.8393171"><ele>55.0</ele><time>2026-04-18T12:32:09.367Z</time></trkpt><trkpt lat="33.8730052" lon="7.8395226"><ele>55.0</ele><time>2026-04-18T12:32:10.366Z</time></trkpt><trkpt lat="33.8729526" lon="7.8397243"><ele>55.0</ele><time>2026-04-18T12:32:11.366Z</time></trkpt><trkpt lat="33.8729004" lon="7.8399218"><ele>55.0</ele><time>2026-04-18T12:32:12.371Z</time></trkpt><trkpt lat="33.8728458" lon="7.8401173"><ele>55.0</ele><time>2026-04-18T12:32:13.363Z</time></trkpt><trkpt lat="33.8727929" lon="7.8403144"><ele>55.0</ele><time>2026-04-18T12:32:14.365Z</time></trkpt><trkpt lat="33.8727419" lon="7.8405145"><ele>55.0</ele><time>2026-04-18T12:32:15.364Z</time></trkpt><trkpt lat="33.8726896" lon="7.8407142"><ele>55.0</ele><time>2026-04-18T12:32:16.357Z</time></trkpt><trkpt lat="33.8726364" lon="7.8409144"><ele>55.666666666666664</ele><time>2026-04-18T12:32:17.367Z</time></trkpt><trkpt lat="33.8725829" lon="7.8411156"><ele>56.33333333333333</ele><time>2026-04-18T12:32:18.358Z</time></trkpt><trkpt lat="33.8725288" lon="7.8413176"><ele>57.0</ele><time>2026-04-18T12:32:19.357Z</time></trkpt><trkpt lat="33.8724751" lon="7.841518"><ele>57.0</ele><time>2026-04-18T12:32:20.386Z</time></trkpt><trkpt lat="33.8724226" lon="7.8417156"><ele>57.0</ele><time>2026-04-18T12:32:21.358Z</time></trkpt><trkpt lat="33.8723705" lon="7.8419115"><ele>57.0</ele><time>2026-04-18T12:32:22.364Z</time></trkpt><trkpt lat="33.8723188" lon="7.8421063"><ele>57.33333333333333</ele><time>2026-04-18T12:32:23.362Z</time></trkpt><trkpt lat="33.8722679" lon="7.8423032"><ele>57.666666666666664</ele><time>2026-04-18T12:32:24.364Z</time></trkpt><trkpt lat="33.872216" lon="7.8425007"><ele>58.0</ele><time>2026-04-18T12:32:25.364Z</time></trkpt><trkpt lat="33.8721643" lon="7.8426981"><ele>58.0</ele><time>2026-04-18T12:32:26.365Z</time></trkpt><trkpt lat="33.8721139" lon="7.8428957"><ele>58.0</ele><time>2026-04-18T12:32:27.362Z</time></trkpt><trkpt lat="33.8720617" lon="7.8430956"><ele>58.0</ele><time>2026-04-18T12:32:28.363Z</time></trkpt><trkpt lat="33.8720083" lon="7.8432973"><ele>58.33333333333333</ele><time>2026-04-18T12:32:29.367Z</time></trkpt><trkpt lat="33.8719548" lon="7.843502"><ele>58.66666666666667</ele><time>2026-04-18T12:32:30.357Z</time></trkpt><trkpt lat="33.8719003" lon="7.8437093"><ele>59.0</ele><time>2026-04-18T12:32:31.366Z</time></trkpt><trkpt lat="33.8718446" lon="7.8439193"><ele>59.0</ele><time>2026-04-18T12:32:32.364Z</time></trkpt><trkpt lat="33.8717891" lon="7.8441311"><ele>59.0</ele><time>2026-04-18T12:32:33.382Z</time></trkpt><trkpt lat="33.8717337" lon="7.8443437"><ele>59.0</ele><time>2026-04-18T12:32:34.364Z</time></trkpt><trkpt lat="33.8716777" lon="7.8445527"><ele>58.333333333333336</ele><time>2026-04-18T12:32:35.367Z</time></trkpt><trkpt lat="33.8716225" lon="7.8447596"><ele>57.66666666666667</ele><time>2026-04-18T12:32:36.364Z</time></trkpt><trkpt lat="33.8715687" lon="7.8449685"><ele>57.0</ele><time>2026-04-18T12:32:37.362Z</time></trkpt><trkpt lat="33.8715139" lon="7.8451793"><ele>57.0</ele><time>2026-04-18T12:32:38.366Z</time></trkpt><trkpt lat="33.8714582" lon="7.8453911"><ele>57.0</ele><time>2026-04-18T12:32:39.372Z</time></trkpt><trkpt lat="33.8714021" lon="7.8456044"><ele>57.0</ele><time>2026-04-18T12:32:40.356Z</time></trkpt><trkpt lat="33.8713457" lon="7.8458202"><ele>57.66666666666667</ele><time>2026-04-18T12:32:41.36Z</time></trkpt><trkpt lat="33.8712878" lon="7.8460378"><ele>58.333333333333336</ele><time>2026-04-18T12:32:42.358Z</time></trkpt><trkpt lat="33.8712296" lon="7.8462551"><ele>59.0</ele><time>2026-04-18T12:32:43.358Z</time></trkpt><trkpt lat="33.871173" lon="7.8464706"><ele>59.0</ele><time>2026-04-18T12:32:44.358Z</time></trkpt><trkpt lat="33.8711184" lon="7.8466853"><ele>59.0</ele><time>2026-04-18T12:32:45.358Z</time></trkpt><trkpt lat="33.8710645" lon="7.8469001"><ele>59.0</ele><time>2026-04-18T12:32:46.357Z</time></trkpt><trkpt lat="33.8710122" lon="7.8471134"><ele>59.0</ele><time>2026-04-18T12:32:47.366Z</time></trkpt><trkpt lat="33.8709619" lon="7.8473277"><ele>59.0</ele><time>2026-04-18T12:32:48.36Z</time></trkpt><trkpt lat="33.8709172" lon="7.8475447"><ele>59.0</ele><time>2026-04-18T12:32:49.361Z</time></trkpt><trkpt lat="33.8708815" lon="7.8477618"><ele>58.66666666666667</ele><time>2026-04-18T12:32:50.355Z</time></trkpt><trkpt lat="33.8708514" lon="7.8479764"><ele>58.33333333333333</ele><time>2026-04-18T12:32:51.366Z</time></trkpt><trkpt lat="33.8708236" lon="7.848191"><ele>58.0</ele><time>2026-04-18T12:32:52.356Z</time></trkpt><trkpt lat="33.8707985" lon="7.8484049"><ele>58.666666666666664</ele><time>2026-04-18T12:32:53.36Z</time></trkpt><trkpt lat="33.8707768" lon="7.8486147"><ele>59.33333333333333</ele><time>2026-04-18T12:32:54.362Z</time></trkpt><trkpt lat="33.8707599" lon="7.8488198"><ele>60.0</ele><time>2026-04-18T12:32:55.359Z</time></trkpt><trkpt lat="33.8707476" lon="7.8490214"><ele>60.0</ele><time>2026-04-18T12:32:56.362Z</time></trkpt><trkpt lat="33.8707395" lon="7.8492208"><ele>60.0</ele><time>2026-04-18T12:32:57.362Z</time></trkpt><trkpt lat="33.8707339" lon="7.8494223"><ele>60.0</ele><time>2026-04-18T12:32:58.361Z</time></trkpt><trkpt lat="33.8707318" lon="7.8496268"><ele>60.33333333333333</ele><time>2026-04-18T12:32:59.36Z</time></trkpt><trkpt lat="33.8707329" lon="7.8498352"><ele>60.666666666666664</ele><time>2026-04-18T12:33:00.362Z</time></trkpt><trkpt lat="33.8707362" lon="7.8500463"><ele>61.0</ele><time>2026-04-18T12:33:01.361Z</time></trkpt><trkpt lat="33.8707439" lon="7.8502592"><ele>61.0</ele><time>2026-04-18T12:33:02.364Z</time></trkpt><trkpt lat="33.870754" lon="7.8504731"><ele>61.0</ele><time>2026-04-18T12:33:03.367Z</time></trkpt><trkpt lat="33.8707621" lon="7.8506871"><ele>61.0</ele><time>2026-04-18T12:33:04.362Z</time></trkpt><trkpt lat="33.8707689" lon="7.8509002"><ele>61.33333333333333</ele><time>2026-04-18T12:33:05.361Z</time></trkpt><trkpt lat="33.8707765" lon="7.8511074"><ele>61.66666666666667</ele><time>2026-04-18T12:33:06.361Z</time></trkpt><trkpt lat="33.8707826" lon="7.8513107"><ele>62.0</ele><time>2026-04-18T12:33:07.365Z</time></trkpt><trkpt lat="33.8707888" lon="7.8515083"><ele>62.0</ele><time>2026-04-18T12:33:08.358Z</time></trkpt><trkpt lat="33.8707967" lon="7.8517031"><ele>62.0</ele><time>2026-04-18T12:33:09.361Z</time></trkpt><trkpt lat="33.8708042" lon="7.8518984"><ele>62.0</ele><time>2026-04-18T12:33:10.362Z</time></trkpt><trkpt lat="33.8708114" lon="7.8520953"><ele>62.333333333333336</ele><time>2026-04-18T12:33:11.364Z</time></trkpt><trkpt lat="33.8708188" lon="7.8522943"><ele>62.66666666666667</ele><time>2026-04-18T12:33:12.358Z</time></trkpt><trkpt lat="33.8708256" lon="7.852496"><ele>63.0</ele><time>2026-04-18T12:33:13.361Z</time></trkpt><trkpt lat="33.8708327" lon="7.8527005"><ele>63.0</ele><time>2026-04-18T12:33:14.362Z</time></trkpt><trkpt lat="33.8708413" lon="7.8529071"><ele>63.0</ele><time>2026-04-18T12:33:15.361Z</time></trkpt><trkpt lat="33.870849" lon="7.8531148"><ele>63.0</ele><time>2026-04-18T12:33:16.36Z</time></trkpt><trkpt lat="33.8708553" lon="7.853322"><ele>62.66666666666667</ele><time>2026-04-18T12:33:17.366Z</time></trkpt><trkpt lat="33.8708626" lon="7.8535274"><ele>62.333333333333336</ele><time>2026-04-18T12:33:18.364Z</time></trkpt><trkpt lat="33.8708706" lon="7.8537322"><ele>62.0</ele><time>2026-04-18T12:33:19.365Z</time></trkpt><trkpt lat="33.8708769" lon="7.8539361"><ele>62.0</ele><time>2026-04-18T12:33:20.36Z</time></trkpt><trkpt lat="33.8708824" lon="7.8541385"><ele>62.0</ele><time>2026-04-18T12:33:21.374Z</time></trkpt><trkpt lat="33.8708892" lon="7.8543397"><ele>62.0</ele><time>2026-04-18T12:33:22.362Z</time></trkpt><trkpt lat="33.870898" lon="7.8545394"><ele>62.333333333333336</ele><time>2026-04-18T12:33:23.369Z</time></trkpt><trkpt lat="33.8709078" lon="7.8547365"><ele>62.66666666666667</ele><time>2026-04-18T12:33:24.362Z</time></trkpt><trkpt lat="33.870916" lon="7.8549309"><ele>63.0</ele><time>2026-04-18T12:33:25.365Z</time></trkpt><trkpt lat="33.870924" lon="7.8551254"><ele>63.66666666666667</ele><time>2026-04-18T12:33:26.364Z</time></trkpt><trkpt lat="33.8709317" lon="7.8553213"><ele>64.33333333333334</ele><time>2026-04-18T12:33:27.363Z</time></trkpt><trkpt lat="33.8709369" lon="7.8555137"><ele>65.0</ele><time>2026-04-18T12:33:28.36Z</time></trkpt><trkpt lat="33.8709415" lon="7.8557027"><ele>66.66666666666667</ele><time>2026-04-18T12:33:29.359Z</time></trkpt><trkpt lat="33.8709472" lon="7.8558926"><ele>68.33333333333333</ele><time>2026-04-18T12:33:30.36Z</time></trkpt><trkpt lat="33.8709538" lon="7.8560853"><ele>70.0</ele><time>2026-04-18T12:33:31.365Z</time></trkpt><trkpt lat="33.8709611" lon="7.8562802"><ele>70.0</ele><time>2026-04-18T12:33:32.388Z</time></trkpt><trkpt lat="33.8709678" lon="7.85648"><ele>70.0</ele><time>2026-04-18T12:33:33.362Z</time></trkpt><trkpt lat="33.870973" lon="7.8566884"><ele>70.0</ele><time>2026-04-18T12:33:34.361Z</time></trkpt><trkpt lat="33.8709761" lon="7.8569029"><ele>70.0</ele><time>2026-04-18T12:33:35.359Z</time></trkpt><trkpt lat="33.8709746" lon="7.8571182"><ele>70.0</ele><time>2026-04-18T12:33:36.364Z</time></trkpt><trkpt lat="33.8709669" lon="7.8573344"><ele>70.0</ele><time>2026-04-18T12:33:37.359Z</time></trkpt><trkpt lat="33.8709523" lon="7.857553"><ele>68.66666666666666</ele><time>2026-04-18T12:33:38.361Z</time></trkpt><trkpt lat="33.8709324" lon="7.8577708"><ele>67.33333333333333</ele><time>2026-04-18T12:33:39.357Z</time></trkpt><trkpt lat="33.8709068" lon="7.8579881"><ele>66.0</ele><time>2026-04-18T12:33:40.368Z</time></trkpt><trkpt lat="33.870875" lon="7.8582055"><ele>66.0</ele><time>2026-04-18T12:33:41.356Z</time></trkpt><trkpt lat="33.8708365" lon="7.8584228"><ele>66.0</ele><time>2026-04-18T12:33:42.363Z</time></trkpt><trkpt lat="33.8707894" lon="7.858637"><ele>66.0</ele><time>2026-04-18T12:33:43.357Z</time></trkpt><trkpt lat="33.8707348" lon="7.8588455"><ele>65.66666666666667</ele><time>2026-04-18T12:33:44.361Z</time></trkpt><trkpt lat="33.8706762" lon="7.8590466"><ele>65.33333333333334</ele><time>2026-04-18T12:33:45.359Z</time></trkpt><trkpt lat="33.8706168" lon="7.8592445"><ele>65.0</ele><time>2026-04-18T12:33:46.362Z</time></trkpt><trkpt lat="33.8705584" lon="7.8594414"><ele>64.66666666666667</ele><time>2026-04-18T12:33:47.363Z</time></trkpt><trkpt lat="33.8704994" lon="7.8596379"><ele>64.33333333333333</ele><time>2026-04-18T12:33:48.359Z</time></trkpt><trkpt lat="33.8704386" lon="7.8598353"><ele>64.0</ele><time>2026-04-18T12:33:49.363Z</time></trkpt><trkpt lat="33.870378" lon="7.8600319"><ele>64.25</ele><time>2026-04-18T12:33:50.362Z</time></trkpt><trkpt lat="33.8703256" lon="7.8602107"><ele>64.5</ele><time>2026-04-18T12:33:51.356Z</time></trkpt><trkpt lat="33.8702827" lon="7.8603563"><ele>64.75</ele><time>2026-04-18T12:33:52.364Z</time></trkpt><trkpt lat="33.870245" lon="7.8604799"><ele>65.0</ele><time>2026-04-18T12:33:53.355Z</time></trkpt><trkpt lat="33.8702097" lon="7.8605932"><ele>65.0</ele><time>2026-04-18T12:33:54.363Z</time></trkpt><trkpt lat="33.8701768" lon="7.8607037"><ele>65.0</ele><time>2026-04-18T12:33:55.359Z</time></trkpt><trkpt lat="33.8701422" lon="7.8608224"><ele>65.0</ele><time>2026-04-18T12:33:56.367Z</time></trkpt><trkpt lat="33.8701047" lon="7.8609529"><ele>65.0</ele><time>2026-04-18T12:33:57.358Z</time></trkpt><trkpt lat="33.8700664" lon="7.8610985"><ele>65.0</ele><time>2026-04-18T12:33:58.355Z</time></trkpt><trkpt lat="33.8700281" lon="7.8612567"><ele>64.75</ele><time>2026-04-18T12:33:59.37Z</time></trkpt><trkpt lat="33.8699875" lon="7.8613905"><ele>64.5</ele><time>2026-04-18T12:34:00.36Z</time></trkpt><trkpt lat="33.8699521" lon="7.8615616"><ele>64.25</ele><time>2026-04-18T12:34:01.371Z</time></trkpt><trkpt lat="33.8699291" lon="7.8617425"><ele>64.0</ele><time>2026-04-18T12:34:02.363Z</time></trkpt><trkpt lat="33.8699069" lon="7.861936"><ele>63.666666666666664</ele><time>2026-04-18T12:34:03.365Z</time></trkpt><trkpt lat="33.8698883" lon="7.8621398"><ele>63.33333333333333</ele><time>2026-04-18T12:34:04.363Z</time></trkpt><trkpt lat="33.8698762" lon="7.8623499"><ele>63.0</ele><time>2026-04-18T12:34:05.361Z</time></trkpt><trkpt lat="33.8698738" lon="7.8625562"><ele>62.66666666666667</ele><time>2026-04-18T12:34:06.357Z</time></trkpt><trkpt lat="33.8698787" lon="7.8627675"><ele>62.333333333333336</ele><time>2026-04-18T12:34:07.363Z</time></trkpt><trkpt lat="33.8698924" lon="7.8629797"><ele>62.0</ele><time>2026-04-18T12:34:08.358Z</time></trkpt><trkpt lat="33.8699141" lon="7.8631877"><ele>62.0</ele><time>2026-04-18T12:34:09.356Z</time></trkpt><trkpt lat="33.8699404" lon="7.8633923"><ele>62.0</ele><time>2026-04-18T12:34:10.359Z</time></trkpt><trkpt lat="33.8699691" lon="7.8635927"><ele>62.0</ele><time>2026-04-18T12:34:11.359Z</time></trkpt><trkpt lat="33.8700024" lon="7.863785"><ele>62.0</ele><time>2026-04-18T12:34:12.366Z</time></trkpt><trkpt lat="33.870035" lon="7.8639634"><ele>62.0</ele><time>2026-04-18T12:34:13.358Z</time></trkpt><trkpt lat="33.8700679" lon="7.8641323"><ele>62.0</ele><time>2026-04-18T12:34:14.374Z</time></trkpt><trkpt lat="33.8700976" lon="7.864294"><ele>62.0</ele><time>2026-04-18T12:34:15.364Z</time></trkpt><trkpt lat="33.8701274" lon="7.8644529"><ele>62.5</ele><time>2026-04-18T12:34:16.364Z</time></trkpt><trkpt lat="33.8701586" lon="7.8646098"><ele>63.0</ele><time>2026-04-18T12:34:17.359Z</time></trkpt><trkpt lat="33.8701886" lon="7.8647672"><ele>63.5</ele><time>2026-04-18T12:34:18.358Z</time></trkpt><trkpt lat="33.8702201" lon="7.8649252"><ele>64.0</ele><time>2026-04-18T12:34:19.362Z</time></trkpt><trkpt lat="33.8702507" lon="7.8650832"><ele>63.75</ele><time>2026-04-18T12:34:20.36Z</time></trkpt><trkpt lat="33.8702788" lon="7.8652422"><ele>63.5</ele><time>2026-04-18T12:34:21.358Z</time></trkpt><trkpt lat="33.8703073" lon="7.8654035"><ele>63.25</ele><time>2026-04-18T12:34:22.364Z</time></trkpt><trkpt lat="33.8703361" lon="7.8655679"><ele>63.0</ele><time>2026-04-18T12:34:23.361Z</time></trkpt><trkpt lat="33.8703648" lon="7.8657306"><ele>63.0</ele><time>2026-04-18T12:34:24.358Z</time></trkpt><trkpt lat="33.8703944" lon="7.8658938"><ele>63.0</ele><time>2026-04-18T12:34:25.356Z</time></trkpt><trkpt lat="33.8704186" lon="7.8660509"><ele>63.0</ele><time>2026-04-18T12:34:26.374Z</time></trkpt><trkpt lat="33.8704394" lon="7.8661948"><ele>63.0</ele><time>2026-04-18T12:34:27.365Z</time></trkpt><trkpt lat="33.8704549" lon="7.8663297"><ele>63.0</ele><time>2026-04-18T12:34:28.365Z</time></trkpt><trkpt lat="33.8704654" lon="7.86646"><ele>63.0</ele><time>2026-04-18T12:34:29.356Z</time></trkpt><trkpt lat="33.8704741" lon="7.866585"><ele>63.0</ele><time>2026-04-18T12:34:30.362Z</time></trkpt><trkpt lat="33.8704824" lon="7.8667085"><ele>63.0</ele><time>2026-04-18T12:34:31.365Z</time></trkpt><trkpt lat="33.8704906" lon="7.8668384"><ele>63.0</ele><time>2026-04-18T12:34:32.361Z</time></trkpt><trkpt lat="33.8704983" lon="7.866971"><ele>63.0</ele><time>2026-04-18T12:34:33.355Z</time></trkpt><trkpt lat="33.8705044" lon="7.8671013"><ele>63.0</ele><time>2026-04-18T12:34:34.363Z</time></trkpt><trkpt lat="33.8705076" lon="7.8672308"><ele>63.0</ele><time>2026-04-18T12:34:35.358Z</time></trkpt><trkpt lat="33.8705064" lon="7.8673592"><ele>63.0</ele><time>2026-04-18T12:34:36.355Z</time></trkpt><trkpt lat="33.870504" lon="7.867481"><ele>63.0</ele><time>2026-04-18T12:34:37.357Z</time></trkpt><trkpt lat="33.8705017" lon="7.8675943"><ele>62.599999999999994</ele><time>2026-04-18T12:34:38.359Z</time></trkpt><trkpt lat="33.8704978" lon="7.867703"><ele>62.199999999999996</ele><time>2026-04-18T12:34:39.358Z</time></trkpt><trkpt lat="33.8704927" lon="7.8678116"><ele>61.8</ele><time>2026-04-18T12:34:40.361Z</time></trkpt><trkpt lat="33.8704873" lon="7.8679199"><ele>61.4</ele><time>2026-04-18T12:34:41.355Z</time></trkpt><trkpt lat="33.8704813" lon="7.8680284"><ele>61.0</ele><time>2026-04-18T12:34:42.361Z</time></trkpt><trkpt lat="33.8704742" lon="7.8681364"><ele>60.99999999999999</ele><time>2026-04-18T12:34:43.359Z</time></trkpt><trkpt lat="33.8704693" lon="7.8682449"><ele>61.0</ele><time>2026-04-18T12:34:44.358Z</time></trkpt><trkpt lat="33.8704657" lon="7.8683464"><ele>61.0</ele><time>2026-04-18T12:34:45.359Z</time></trkpt><trkpt lat="33.8704634" lon="7.8684418"><ele>61.0</ele><time>2026-04-18T12:34:46.358Z</time></trkpt><trkpt lat="33.8704592" lon="7.8685352"><ele>60.99999999999999</ele><time>2026-04-18T12:34:47.365Z</time></trkpt><trkpt lat="33.8704505" lon="7.8686304"><ele>61.0</ele><time>2026-04-18T12:34:48.367Z</time></trkpt><trkpt lat="33.8704382" lon="7.8687181"><ele>60.99999999999999</ele><time>2026-04-18T12:34:49.361Z</time></trkpt><trkpt lat="33.8704202" lon="7.8687938"><ele>61.0</ele><time>2026-04-18T12:34:50.361Z</time></trkpt><trkpt lat="33.8703795" lon="7.8689308"><ele>61.0</ele><time>2026-04-18T12:34:52.368Z</time></trkpt><trkpt lat="33.8703607" lon="7.8690055"><ele>61.0</ele><time>2026-04-18T12:34:53.359Z</time></trkpt><trkpt lat="33.870347" lon="7.8690896"><ele>60.99999999999999</ele><time>2026-04-18T12:34:54.356Z</time></trkpt><trkpt lat="33.8703442" lon="7.8691822"><ele>61.0</ele><time>2026-04-18T12:34:55.361Z</time></trkpt><trkpt lat="33.8703531" lon="7.8692809"><ele>61.599999999999994</ele><time>2026-04-18T12:34:56.351Z</time></trkpt><trkpt lat="33.8703564" lon="7.8693922"><ele>62.199999999999996</ele><time>2026-04-18T12:34:57.355Z</time></trkpt><trkpt lat="33.8703469" lon="7.8695166"><ele>62.800000000000004</ele><time>2026-04-18T12:34:58.356Z</time></trkpt><trkpt lat="33.8703373" lon="7.8696372"><ele>63.400000000000006</ele><time>2026-04-18T12:34:59.358Z</time></trkpt><trkpt lat="33.8703283" lon="7.8697499"><ele>64.0</ele><time>2026-04-18T12:35:00.366Z</time></trkpt><trkpt lat="33.8703181" lon="7.8698591"><ele>64.0</ele><time>2026-04-18T12:35:01.365Z</time></trkpt><trkpt lat="33.8703077" lon="7.8699711"><ele>64.0</ele><time>2026-04-18T12:35:02.36Z</time></trkpt><trkpt lat="33.8702953" lon="7.8700936"><ele>64.0</ele><time>2026-04-18T12:35:03.359Z</time></trkpt><trkpt lat="33.8702834" lon="7.8702242"><ele>64.0</ele><time>2026-04-18T12:35:04.358Z</time></trkpt><trkpt lat="33.8702701" lon="7.8703587"><ele>64.0</ele><time>2026-04-18T12:35:05.359Z</time></trkpt><trkpt lat="33.8702572" lon="7.8704861"><ele>63.666666666666664</ele><time>2026-04-18T12:35:06.362Z</time></trkpt><trkpt lat="33.8702461" lon="7.8705949"><ele>63.33333333333333</ele><time>2026-04-18T12:35:07.358Z</time></trkpt><trkpt lat="33.8702363" lon="7.8706923"><ele>63.0</ele><time>2026-04-18T12:35:08.358Z</time></trkpt><trkpt lat="33.8702258" lon="7.8707879"><ele>62.66666666666667</ele><time>2026-04-18T12:35:09.358Z</time></trkpt><trkpt lat="33.8702147" lon="7.8708837"><ele>62.333333333333336</ele><time>2026-04-18T12:35:10.361Z</time></trkpt><trkpt lat="33.8702052" lon="7.8709829"><ele>62.0</ele><time>2026-04-18T12:35:11.362Z</time></trkpt><trkpt lat="33.8701972" lon="7.8710773"><ele>61.6</ele><time>2026-04-18T12:35:12.363Z</time></trkpt><trkpt lat="33.8701881" lon="7.8712028"><ele>61.2</ele><time>2026-04-18T12:35:13.37Z</time></trkpt><trkpt lat="33.8701733" lon="7.8713225"><ele>60.8</ele><time>2026-04-18T12:35:14.365Z</time></trkpt><trkpt lat="33.8701565" lon="7.8714487"><ele>60.4</ele><time>2026-04-18T12:35:15.357Z</time></trkpt><trkpt lat="33.8701464" lon="7.8715826"><ele>60.0</ele><time>2026-04-18T12:35:16.364Z</time></trkpt><trkpt lat="33.8701356" lon="7.8717039"><ele>59.6</ele><time>2026-04-18T12:35:17.366Z</time></trkpt><trkpt lat="33.8701225" lon="7.8718133"><ele>59.2</ele><time>2026-04-18T12:35:18.37Z</time></trkpt><trkpt lat="33.8701109" lon="7.8719193"><ele>58.8</ele><time>2026-04-18T12:35:19.369Z</time></trkpt><trkpt lat="33.8701008" lon="7.8720282"><ele>58.4</ele><time>2026-04-18T12:35:20.356Z</time></trkpt><trkpt lat="33.8700938" lon="7.8721433"><ele>58.0</ele><time>2026-04-18T12:35:21.371Z</time></trkpt><trkpt lat="33.870084" lon="7.8722673"><ele>57.25</ele><time>2026-04-18T12:35:22.355Z</time></trkpt><trkpt lat="33.8700707" lon="7.8723974"><ele>56.5</ele><time>2026-04-18T12:35:23.382Z</time></trkpt><trkpt lat="33.8700597" lon="7.8725363"><ele>55.75</ele><time>2026-04-18T12:35:24.371Z</time></trkpt><trkpt lat="33.8700449" lon="7.8726784"><ele>55.0</ele><time>2026-04-18T12:35:25.358Z</time></trkpt><trkpt lat="33.8700319" lon="7.8728223"><ele>55.0</ele><time>2026-04-18T12:35:26.365Z</time></trkpt><trkpt lat="33.8700204" lon="7.8729737"><ele>55.0</ele><time>2026-04-18T12:35:27.356Z</time></trkpt><trkpt lat="33.8700084" lon="7.8731235"><ele>55.0</ele><time>2026-04-18T12:35:28.362Z</time></trkpt><trkpt lat="33.8700004" lon="7.8732686"><ele>55.0</ele><time>2026-04-18T12:35:29.356Z</time></trkpt><trkpt lat="33.8699974" lon="7.8734105"><ele>55.4</ele><time>2026-04-18T12:35:30.368Z</time></trkpt><trkpt lat="33.8699985" lon="7.8735481"><ele>55.8</ele><time>2026-04-18T12:35:31.359Z</time></trkpt><trkpt lat="33.8700005" lon="7.8736819"><ele>56.2</ele><time>2026-04-18T12:35:32.367Z</time></trkpt><trkpt lat="33.8700038" lon="7.8738131"><ele>56.6</ele><time>2026-04-18T12:35:33.366Z</time></trkpt><trkpt lat="33.8700109" lon="7.8739434"><ele>57.0</ele><time>2026-04-18T12:35:34.364Z</time></trkpt><trkpt lat="33.8700192" lon="7.8740724"><ele>57.0</ele><time>2026-04-18T12:35:35.359Z</time></trkpt><trkpt lat="33.8700266" lon="7.8741999"><ele>57.0</ele><time>2026-04-18T12:35:36.355Z</time></trkpt><trkpt lat="33.8700363" lon="7.8743232"><ele>57.0</ele><time>2026-04-18T12:35:37.363Z</time></trkpt><trkpt lat="33.8700468" lon="7.8744432"><ele>57.0</ele><time>2026-04-18T12:35:38.359Z</time></trkpt><trkpt lat="33.8700539" lon="7.874558"><ele>57.0</ele><time>2026-04-18T12:35:39.373Z</time></trkpt><trkpt lat="33.8700579" lon="7.8746703"><ele>56.666666666666664</ele><time>2026-04-18T12:35:40.361Z</time></trkpt><trkpt lat="33.8700636" lon="7.8747815"><ele>56.33333333333333</ele><time>2026-04-18T12:35:41.358Z</time></trkpt><trkpt lat="33.8700704" lon="7.8748861"><ele>56.0</ele><time>2026-04-18T12:35:42.358Z</time></trkpt><trkpt lat="33.8700781" lon="7.8749869"><ele>55.666666666666664</ele><time>2026-04-18T12:35:43.362Z</time></trkpt><trkpt lat="33.8700863" lon="7.8750875"><ele>55.33333333333333</ele><time>2026-04-18T12:35:44.364Z</time></trkpt><trkpt lat="33.8700939" lon="7.8751887"><ele>55.0</ele><time>2026-04-18T12:35:45.363Z</time></trkpt><trkpt lat="33.8701007" lon="7.8752922"><ele>55.0</ele><time>2026-04-18T12:35:46.356Z</time></trkpt><trkpt lat="33.8701064" lon="7.8754016"><ele>55.0</ele><time>2026-04-18T12:35:47.368Z</time></trkpt><trkpt lat="33.8701125" lon="7.8755162"><ele>55.0</ele><time>2026-04-18T12:35:48.366Z</time></trkpt><trkpt lat="33.8701195" lon="7.8756362"><ele>55.0</ele><time>2026-04-18T12:35:49.365Z</time></trkpt><trkpt lat="33.8701263" lon="7.8757618"><ele>55.0</ele><time>2026-04-18T12:35:50.37Z</time></trkpt><trkpt lat="33.8701336" lon="7.8758924"><ele>55.25</ele><time>2026-04-18T12:35:51.37Z</time></trkpt><trkpt lat="33.8701396" lon="7.8760297"><ele>55.5</ele><time>2026-04-18T12:35:52.365Z</time></trkpt><trkpt lat="33.8701437" lon="7.8761724"><ele>55.75</ele><time>2026-04-18T12:35:53.361Z</time></trkpt><trkpt lat="33.8701472" lon="7.8763185"><ele>56.0</ele><time>2026-04-18T12:35:54.368Z</time></trkpt><trkpt lat="33.8701531" lon="7.8764645"><ele>56.0</ele><time>2026-04-18T12:35:55.37Z</time></trkpt><trkpt lat="33.8701616" lon="7.876604"><ele>55.99999999999999</ele><time>2026-04-18T12:35:56.364Z</time></trkpt><trkpt lat="33.8701695" lon="7.8767326"><ele>55.99999999999999</ele><time>2026-04-18T12:35:57.361Z</time></trkpt><trkpt lat="33.8701769" lon="7.8768536"><ele>56.0</ele><time>2026-04-18T12:35:58.362Z</time></trkpt><trkpt lat="33.8701829" lon="7.8769702"><ele>56.0</ele><time>2026-04-18T12:35:59.363Z</time></trkpt><trkpt lat="33.8701899" lon="7.8770833"><ele>56.0</ele><time>2026-04-18T12:36:00.365Z</time></trkpt><trkpt lat="33.8701994" lon="7.8771911"><ele>55.99999999999999</ele><time>2026-04-18T12:36:01.363Z</time></trkpt><trkpt lat="33.8702119" lon="7.8772973"><ele>55.99999999999999</ele><time>2026-04-18T12:36:02.362Z</time></trkpt><trkpt lat="33.8702272" lon="7.8774034"><ele>56.0</ele><time>2026-04-18T12:36:03.357Z</time></trkpt><trkpt lat="33.8702461" lon="7.8775101"><ele>56.0</ele><time>2026-04-18T12:36:04.366Z</time></trkpt><trkpt lat="33.8702643" lon="7.8776198"><ele>56.599999999999994</ele><time>2026-04-18T12:36:05.364Z</time></trkpt><trkpt lat="33.8702821" lon="7.8777326"><ele>57.199999999999996</ele><time>2026-04-18T12:36:06.358Z</time></trkpt><trkpt lat="33.8703014" lon="7.8778455"><ele>57.800000000000004</ele><time>2026-04-18T12:36:07.364Z</time></trkpt><trkpt lat="33.8703243" lon="7.8779572"><ele>58.400000000000006</ele><time>2026-04-18T12:36:08.368Z</time></trkpt><trkpt lat="33.8703519" lon="7.8780675"><ele>59.0</ele><time>2026-04-18T12:36:09.359Z</time></trkpt><trkpt lat="33.8703833" lon="7.8781758"><ele>59.00000000000001</ele><time>2026-04-18T12:36:10.365Z</time></trkpt><trkpt lat="33.8704162" lon="7.8782802"><ele>59.0</ele><time>2026-04-18T12:36:11.365Z</time></trkpt><trkpt lat="33.8704519" lon="7.878378"><ele>59.0</ele><time>2026-04-18T12:36:12.362Z</time></trkpt><trkpt lat="33.8704924" lon="7.8784713"><ele>59.0</ele><time>2026-04-18T12:36:13.361Z</time></trkpt><trkpt lat="33.8705355" lon="7.8785599"><ele>59.00000000000001</ele><time>2026-04-18T12:36:14.361Z</time></trkpt><trkpt lat="33.8705788" lon="7.8786456"><ele>59.0</ele><time>2026-04-18T12:36:15.364Z</time></trkpt><trkpt lat="33.8706208" lon="7.8787297"><ele>59.0</ele><time>2026-04-18T12:36:16.359Z</time></trkpt><trkpt lat="33.8706614" lon="7.87881"><ele>59.0</ele><time>2026-04-18T12:36:17.364Z</time></trkpt><trkpt lat="33.8706997" lon="7.8788825"><ele>59.0</ele><time>2026-04-18T12:36:18.36Z</time></trkpt><trkpt lat="33.8707344" lon="7.8789503"><ele>59.0</ele><time>2026-04-18T12:36:19.355Z</time></trkpt><trkpt lat="33.8707683" lon="7.8790166"><ele>59.0</ele><time>2026-04-18T12:36:20.359Z</time></trkpt><trkpt lat="33.8708056" lon="7.8790849"><ele>59.0</ele><time>2026-04-18T12:36:21.365Z</time></trkpt><trkpt lat="33.8708476" lon="7.8791569"><ele>59.0</ele><time>2026-04-18T12:36:22.359Z</time></trkpt><trkpt lat="33.870893" lon="7.8792317"><ele>58.50000000000001</ele><time>2026-04-18T12:36:23.386Z</time></trkpt><trkpt lat="33.8709384" lon="7.8793043"><ele>58.0</ele><time>2026-04-18T12:36:24.358Z</time></trkpt><trkpt lat="33.8709883" lon="7.8793814"><ele>57.5</ele><time>2026-04-18T12:36:25.365Z</time></trkpt><trkpt lat="33.871043" lon="7.8794638"><ele>57.0</ele><time>2026-04-18T12:36:26.354Z</time></trkpt><trkpt lat="33.8710991" lon="7.8795454"><ele>56.50000000000001</ele><time>2026-04-18T12:36:27.355Z</time></trkpt><trkpt lat="33.871154" lon="7.8796275"><ele>56.0</ele><time>2026-04-18T12:36:28.361Z</time></trkpt><trkpt lat="33.8712101" lon="7.8797106"><ele>56.00000000000001</ele><time>2026-04-18T12:36:29.366Z</time></trkpt><trkpt lat="33.8712686" lon="7.8797938"><ele>56.0</ele><time>2026-04-18T12:36:30.364Z</time></trkpt><trkpt lat="33.8713264" lon="7.8798773"><ele>56.0</ele><time>2026-04-18T12:36:31.368Z</time></trkpt><trkpt lat="33.871379" lon="7.8799549"><ele>56.0</ele><time>2026-04-18T12:36:32.368Z</time></trkpt><trkpt lat="33.8714311" lon="7.8800278"><ele>56.00000000000001</ele><time>2026-04-18T12:36:33.365Z</time></trkpt><trkpt lat="33.8714845" lon="7.8801001"><ele>56.0</ele><time>2026-04-18T12:36:34.36Z</time></trkpt><trkpt lat="33.8715369" lon="7.880175"><ele>55.66666666666667</ele><time>2026-04-18T12:36:35.365Z</time></trkpt><trkpt lat="33.871593" lon="7.8802498"><ele>55.333333333333336</ele><time>2026-04-18T12:36:36.355Z</time></trkpt><trkpt lat="33.8716492" lon="7.8803275"><ele>55.0</ele><time>2026-04-18T12:36:37.365Z</time></trkpt><trkpt lat="33.8716975" lon="7.8804042"><ele>54.66666666666667</ele><time>2026-04-18T12:36:38.367Z</time></trkpt><trkpt lat="33.8717408" lon="7.880475"><ele>54.333333333333336</ele><time>2026-04-18T12:36:39.354Z</time></trkpt><trkpt lat="33.8717814" lon="7.8805458"><ele>54.0</ele><time>2026-04-18T12:36:40.353Z</time></trkpt><trkpt lat="33.8718222" lon="7.8806177"><ele>53.857142857142854</ele><time>2026-04-18T12:36:41.365Z</time></trkpt><trkpt lat="33.8718624" lon="7.880691"><ele>53.71428571428571</ele><time>2026-04-18T12:36:42.374Z</time></trkpt><trkpt lat="33.8718991" lon="7.8807622"><ele>53.57142857142857</ele><time>2026-04-18T12:36:43.357Z</time></trkpt><trkpt lat="33.8719329" lon="7.880834"><ele>53.42857142857143</ele><time>2026-04-18T12:36:44.363Z</time></trkpt><trkpt lat="33.8719612" lon="7.8809099"><ele>53.285714285714285</ele><time>2026-04-18T12:36:45.368Z</time></trkpt><trkpt lat="33.8719863" lon="7.8809872"><ele>53.142857142857146</ele><time>2026-04-18T12:36:46.366Z</time></trkpt><trkpt lat="33.8720098" lon="7.8810694"><ele>53.0</ele><time>2026-04-18T12:36:47.358Z</time></trkpt><trkpt lat="33.8720285" lon="7.8811484"><ele>53.333333333333336</ele><time>2026-04-18T12:36:48.363Z</time></trkpt><trkpt lat="33.8720646" lon="7.8812881"><ele>53.66666666666667</ele><time>2026-04-18T12:36:50.362Z</time></trkpt><trkpt lat="33.8720785" lon="7.8813631"><ele>54.0</ele><time>2026-04-18T12:36:51.359Z</time></trkpt><trkpt lat="33.8720884" lon="7.8814456"><ele>54.33333333333333</ele><time>2026-04-18T12:36:52.363Z</time></trkpt><trkpt lat="33.8720979" lon="7.8815436"><ele>54.666666666666664</ele><time>2026-04-18T12:36:53.351Z</time></trkpt><trkpt lat="33.8721116" lon="7.8816538"><ele>55.0</ele><time>2026-04-18T12:36:54.369Z</time></trkpt><trkpt lat="33.8721254" lon="7.8817696"><ele>56.4</ele><time>2026-04-18T12:36:55.366Z</time></trkpt><trkpt lat="33.8721393" lon="7.8818826"><ele>57.8</ele><time>2026-04-18T12:36:56.362Z</time></trkpt><trkpt lat="33.8721533" lon="7.8819864"><ele>59.2</ele><time>2026-04-18T12:36:57.356Z</time></trkpt><trkpt lat="33.8721651" lon="7.8820894"><ele>60.6</ele><time>2026-04-18T12:36:58.353Z</time></trkpt><trkpt lat="33.8721761" lon="7.8821979"><ele>62.0</ele><time>2026-04-18T12:36:59.353Z</time></trkpt><trkpt lat="33.8721905" lon="7.88231"><ele>62.00000000000001</ele><time>2026-04-18T12:37:00.352Z</time></trkpt><trkpt lat="33.872208" lon="7.8824233"><ele>62.0</ele><time>2026-04-18T12:37:01.348Z</time></trkpt><trkpt lat="33.8722232" lon="7.8825347"><ele>62.0</ele><time>2026-04-18T12:37:02.357Z</time></trkpt><trkpt lat="33.8722362" lon="7.8826399"><ele>62.0</ele><time>2026-04-18T12:37:03.362Z</time></trkpt><trkpt lat="33.8722504" lon="7.8827352"><ele>62.00000000000001</ele><time>2026-04-18T12:37:04.359Z</time></trkpt><trkpt lat="33.8722655" lon="7.8828252"><ele>62.0</ele><time>2026-04-18T12:37:05.372Z</time></trkpt><trkpt lat="33.8722809" lon="7.8829122"><ele>62.142857142857146</ele><time>2026-04-18T12:37:06.357Z</time></trkpt><trkpt lat="33.8722946" lon="7.8829964"><ele>62.28571428571429</ele><time>2026-04-18T12:37:07.353Z</time></trkpt><trkpt lat="33.8723047" lon="7.8830801"><ele>62.42857142857143</ele><time>2026-04-18T12:37:08.363Z</time></trkpt><trkpt lat="33.872313" lon="7.8831667"><ele>62.57142857142857</ele><time>2026-04-18T12:37:09.36Z</time></trkpt><trkpt lat="33.872323" lon="7.8832553"><ele>62.714285714285715</ele><time>2026-04-18T12:37:10.369Z</time></trkpt><trkpt lat="33.8723355" lon="7.8833464"><ele>62.85714285714286</ele><time>2026-04-18T12:37:11.362Z</time></trkpt><trkpt lat="33.872352" lon="7.8834415"><ele>63.0</ele><time>2026-04-18T12:37:12.358Z</time></trkpt><trkpt lat="33.872366" lon="7.8835429"><ele>63.42857142857143</ele><time>2026-04-18T12:37:13.354Z</time></trkpt><trkpt lat="33.8723763" lon="7.8836368"><ele>63.85714285714286</ele><time>2026-04-18T12:37:14.356Z</time></trkpt><trkpt lat="33.8723849" lon="7.883724"><ele>64.28571428571428</ele><time>2026-04-18T12:37:15.362Z</time></trkpt><trkpt lat="33.8723928" lon="7.8838078"><ele>64.71428571428572</ele><time>2026-04-18T12:37:16.355Z</time></trkpt><trkpt lat="33.8724004" lon="7.8838879"><ele>65.14285714285714</ele><time>2026-04-18T12:37:17.393Z</time></trkpt><trkpt lat="33.8724074" lon="7.8839683"><ele>65.57142857142857</ele><time>2026-04-18T12:37:18.36Z</time></trkpt><trkpt lat="33.8724183" lon="7.8840527"><ele>66.0</ele><time>2026-04-18T12:37:19.359Z</time></trkpt><trkpt lat="33.8724311" lon="7.8841366"><ele>66.0</ele><time>2026-04-18T12:37:20.361Z</time></trkpt><trkpt lat="33.8724431" lon="7.8842202"><ele>66.0</ele><time>2026-04-18T12:37:21.358Z</time></trkpt><trkpt lat="33.8724525" lon="7.8842989"><ele>66.0</ele><time>2026-04-18T12:37:22.359Z</time></trkpt><trkpt lat="33.8724598" lon="7.8843753"><ele>66.0</ele><time>2026-04-18T12:37:23.364Z</time></trkpt><trkpt lat="33.8724697" lon="7.8845166"><ele>66.0</ele><time>2026-04-18T12:37:25.361Z</time></trkpt><trkpt lat="33.8724822" lon="7.8846559"><ele>66.0</ele><time>2026-04-18T12:37:27.365Z</time></trkpt><trkpt lat="33.872492" lon="7.8847764"><ele>66.16666666666667</ele><time>2026-04-18T12:37:29.354Z</time></trkpt><trkpt lat="33.872491" lon="7.8848704"><ele>66.33333333333333</ele><time>2026-04-18T12:37:32.364Z</time></trkpt><trkpt lat="33.8725517" lon="7.8849082"><ele>66.5</ele><time>2026-04-18T12:37:39.363Z</time></trkpt><trkpt lat="33.8725655" lon="7.884833"><ele>66.66666666666666</ele><time>2026-04-18T12:37:41.355Z</time></trkpt><trkpt lat="33.8725401" lon="7.8846631"><ele>66.83333333333333</ele><time>2026-04-18T12:37:43.359Z</time></trkpt><trkpt lat="33.8725308" lon="7.8845608"><ele>67.0</ele><time>2026-04-18T12:37:44.365Z</time></trkpt><trkpt lat="33.8725248" lon="7.8844635"><ele>67.0</ele><time>2026-04-18T12:37:45.369Z</time></trkpt><trkpt lat="33.8725172" lon="7.8843696"><ele>67.0</ele><time>2026-04-18T12:37:46.362Z</time></trkpt><trkpt lat="33.8725091" lon="7.8842767"><ele>67.0</ele><time>2026-04-18T12:37:47.357Z</time></trkpt><trkpt lat="33.8724997" lon="7.8841887"><ele>67.0</ele><time>2026-04-18T12:37:48.358Z</time></trkpt><trkpt lat="33.8724911" lon="7.8841071"><ele>67.0</ele><time>2026-04-18T12:37:49.361Z</time></trkpt><trkpt lat="33.8724858" lon="7.884026"><ele>67.0</ele><time>2026-04-18T12:37:50.354Z</time></trkpt><trkpt lat="33.8724807" lon="7.8839455"><ele>67.0</ele><time>2026-04-18T12:37:51.356Z</time></trkpt><trkpt lat="33.8724624" lon="7.883823"><ele>67.0</ele><time>2026-04-18T12:37:53.369Z</time></trkpt><trkpt lat="33.872398" lon="7.8838057"><ele>67.0</ele><time>2026-04-18T12:37:56.35Z</time></trkpt><trkpt lat="33.8724179" lon="7.8839336"><ele>67.0</ele><time>2026-04-18T12:37:59.348Z</time></trkpt><trkpt lat="33.8724323" lon="7.8840196"><ele>67.0</ele><time>2026-04-18T12:38:00.357Z</time></trkpt><trkpt lat="33.8724387" lon="7.8841275"><ele>67.0</ele><time>2026-04-18T12:38:01.35Z</time></trkpt><trkpt lat="33.8724445" lon="7.8842141"><ele>67.0</ele><time>2026-04-18T12:38:02.352Z</time></trkpt><trkpt lat="33.872453" lon="7.8843441"><ele>67.0</ele><time>2026-04-18T12:38:04.349Z</time></trkpt><trkpt lat="33.8724717" lon="7.8844531"><ele>67.0</ele><time>2026-04-18T12:59:53.363Z</time></trkpt><trkpt lat="33.872468" lon="7.8845608"><ele>67.0</ele><time>2026-04-18T12:59:55.377Z</time></trkpt><trkpt lat="33.8724722" lon="7.8846484"><ele>67.0</ele><time>2026-04-18T13:00:03.368Z</time></trkpt><trkpt lat="33.8724799" lon="7.8847257"><ele>67.0</ele><time>2026-04-18T13:00:05.367Z</time></trkpt><trkpt lat="33.8725006" lon="7.8848787"><ele>67.0</ele><time>2026-04-18T13:00:07.369Z</time></trkpt><trkpt lat="33.8725138" lon="7.884962"><ele>67.0</ele><time>2026-04-18T13:00:08.389Z</time></trkpt><trkpt lat="33.8725238" lon="7.8850529"><ele>67.0</ele><time>2026-04-18T13:00:09.384Z</time></trkpt><trkpt lat="33.8725326" lon="7.885149"><ele>67.0</ele><time>2026-04-18T13:00:10.362Z</time></trkpt><trkpt lat="33.8725418" lon="7.8852435"><ele>67.0</ele><time>2026-04-18T13:00:11.409Z</time></trkpt><trkpt lat="33.8725517" lon="7.8853327"><ele>67.0</ele><time>2026-04-18T13:00:12.36Z</time></trkpt><trkpt lat="33.8725623" lon="7.8854249"><ele>67.0</ele><time>2026-04-18T13:00:13.357Z</time></trkpt><trkpt lat="33.8725713" lon="7.8855207"><ele>67.16666666666666</ele><time>2026-04-18T13:00:14.354Z</time></trkpt><trkpt lat="33.8725789" lon="7.8856165"><ele>67.33333333333333</ele><time>2026-04-18T13:00:15.357Z</time></trkpt><trkpt lat="33.8725882" lon="7.8857164"><ele>67.5</ele><time>2026-04-18T13:00:16.363Z</time></trkpt><trkpt lat="33.8726007" lon="7.8858286"><ele>67.66666666666667</ele><time>2026-04-18T13:00:17.355Z</time></trkpt><trkpt lat="33.872612" lon="7.8859432"><ele>67.83333333333334</ele><time>2026-04-18T13:00:18.355Z</time></trkpt><trkpt lat="33.8726144" lon="7.8860505"><ele>68.0</ele><time>2026-04-18T13:00:19.361Z</time></trkpt><trkpt lat="33.8726186" lon="7.8862402"><ele>68.0</ele><time>2026-04-18T13:00:21.362Z</time></trkpt><trkpt lat="33.872619" lon="7.8863391"><ele>68.0</ele><time>2026-04-18T13:00:22.357Z</time></trkpt><trkpt lat="33.8726199" lon="7.8864404"><ele>68.0</ele><time>2026-04-18T13:00:23.362Z</time></trkpt><trkpt lat="33.8726182" lon="7.8865443"><ele>68.0</ele><time>2026-04-18T13:00:24.355Z</time></trkpt><trkpt lat="33.8726174" lon="7.8866527"><ele>68.0</ele><time>2026-04-18T13:00:25.353Z</time></trkpt><trkpt lat="33.8726168" lon="7.8867609"><ele>68.0</ele><time>2026-04-18T13:00:26.363Z</time></trkpt><trkpt lat="33.8726157" lon="7.8868695"><ele>68.0</ele><time>2026-04-18T13:00:27.354Z</time></trkpt><trkpt lat="33.8726149" lon="7.8869772"><ele>68.0</ele><time>2026-04-18T13:00:28.352Z</time></trkpt><trkpt lat="33.8726136" lon="7.8870933"><ele>68.0</ele><time>2026-04-18T13:00:29.353Z</time></trkpt><trkpt lat="33.8726095" lon="7.8872205"><ele>68.0</ele><time>2026-04-18T13:00:30.356Z</time></trkpt><trkpt lat="33.8726045" lon="7.8873501"><ele>68.0</ele><time>2026-04-18T13:00:31.354Z</time></trkpt><trkpt lat="33.8725993" lon="7.8874844"><ele>67.5</ele><time>2026-04-18T13:00:32.363Z</time></trkpt><trkpt lat="33.8725965" lon="7.8876219"><ele>67.0</ele><time>2026-04-18T13:00:33.354Z</time></trkpt><trkpt lat="33.872594" lon="7.8877622"><ele>66.5</ele><time>2026-04-18T13:00:34.347Z</time></trkpt><trkpt lat="33.8725906" lon="7.8879061"><ele>66.0</ele><time>2026-04-18T13:00:35.353Z</time></trkpt><trkpt lat="33.8725873" lon="7.8880511"><ele>66.0</ele><time>2026-04-18T13:00:36.352Z</time></trkpt><trkpt lat="33.8725832" lon="7.8881954"><ele>66.0</ele><time>2026-04-18T13:00:37.351Z</time></trkpt><trkpt lat="33.8725795" lon="7.8883399"><ele>66.0</ele><time>2026-04-18T13:00:38.356Z</time></trkpt><trkpt lat="33.8725789" lon="7.8884822"><ele>66.0</ele><time>2026-04-18T13:00:39.36Z</time></trkpt><trkpt lat="33.872581" lon="7.8886224"><ele>65.75</ele><time>2026-04-18T13:00:40.354Z</time></trkpt><trkpt lat="33.8725812" lon="7.8887593"><ele>65.5</ele><time>2026-04-18T13:00:41.349Z</time></trkpt><trkpt lat="33.8725794" lon="7.8888936"><ele>65.25</ele><time>2026-04-18T13:00:42.35Z</time></trkpt><trkpt lat="33.8725763" lon="7.8890294"><ele>65.0</ele><time>2026-04-18T13:00:43.349Z</time></trkpt><trkpt lat="33.8725747" lon="7.8891683"><ele>65.5</ele><time>2026-04-18T13:00:44.365Z</time></trkpt><trkpt lat="33.8725742" lon="7.8893096"><ele>66.0</ele><time>2026-04-18T13:00:45.359Z</time></trkpt><trkpt lat="33.8725736" lon="7.8894538"><ele>66.5</ele><time>2026-04-18T13:00:46.355Z</time></trkpt><trkpt lat="33.872573" lon="7.8896006"><ele>67.0</ele><time>2026-04-18T13:00:47.359Z</time></trkpt><trkpt lat="33.8725718" lon="7.8897493"><ele>67.0</ele><time>2026-04-18T13:00:48.354Z</time></trkpt><trkpt lat="33.8725697" lon="7.8898991"><ele>67.0</ele><time>2026-04-18T13:00:49.349Z</time></trkpt><trkpt lat="33.872569" lon="7.8900493"><ele>67.0</ele><time>2026-04-18T13:00:50.35Z</time></trkpt><trkpt lat="33.8725698" lon="7.8901991"><ele>67.0</ele><time>2026-04-18T13:00:51.352Z</time></trkpt><trkpt lat="33.8725702" lon="7.8903487"><ele>67.0</ele><time>2026-04-18T13:00:52.358Z</time></trkpt><trkpt lat="33.8725694" lon="7.890498"><ele>67.0</ele><time>2026-04-18T13:00:53.353Z</time></trkpt><trkpt lat="33.8725672" lon="7.8906479"><ele>67.0</ele><time>2026-04-18T13:00:54.356Z</time></trkpt><trkpt lat="33.872565" lon="7.8907961"><ele>67.0</ele><time>2026-04-18T13:00:55.354Z</time></trkpt><trkpt lat="33.8725642" lon="7.8909433"><ele>67.25</ele><time>2026-04-18T13:00:56.359Z</time></trkpt><trkpt lat="33.8725648" lon="7.89109"><ele>67.5</ele><time>2026-04-18T13:00:57.362Z</time></trkpt><trkpt lat="33.8725733" lon="7.8912384"><ele>67.75</ele><time>2026-04-18T13:00:58.351Z</time></trkpt><trkpt lat="33.8725914" lon="7.8913921"><ele>68.0</ele><time>2026-04-18T13:00:59.361Z</time></trkpt><trkpt lat="33.8726177" lon="7.891552"><ele>68.75</ele><time>2026-04-18T13:01:00.351Z</time></trkpt><trkpt lat="33.8726482" lon="7.8917114"><ele>69.5</ele><time>2026-04-18T13:01:01.352Z</time></trkpt><trkpt lat="33.87268" lon="7.8918651"><ele>70.25</ele><time>2026-04-18T13:01:02.349Z</time></trkpt><trkpt lat="33.8727144" lon="7.8920119"><ele>71.0</ele><time>2026-04-18T13:01:03.363Z</time></trkpt><trkpt lat="33.8727475" lon="7.892156"><ele>71.0</ele><time>2026-04-18T13:01:04.352Z</time></trkpt><trkpt lat="33.8727805" lon="7.8923014"><ele>71.0</ele><time>2026-04-18T13:01:05.357Z</time></trkpt><trkpt lat="33.8728122" lon="7.8924387"><ele>71.0</ele><time>2026-04-18T13:01:06.357Z</time></trkpt><trkpt lat="33.872841" lon="7.8925661"><ele>71.0</ele><time>2026-04-18T13:01:07.36Z</time></trkpt><trkpt lat="33.8728659" lon="7.892678"><ele>71.0</ele><time>2026-04-18T13:01:08.358Z</time></trkpt><trkpt lat="33.8728913" lon="7.8927881"><ele>71.2</ele><time>2026-04-18T13:01:09.351Z</time></trkpt><trkpt lat="33.8729188" lon="7.8929101"><ele>71.39999999999999</ele><time>2026-04-18T13:01:10.353Z</time></trkpt><trkpt lat="33.8729471" lon="7.8930347"><ele>71.6</ele><time>2026-04-18T13:01:11.35Z</time></trkpt><trkpt lat="33.8729783" lon="7.8931631"><ele>71.8</ele><time>2026-04-18T13:01:12.346Z</time></trkpt><trkpt lat="33.8730123" lon="7.8933062"><ele>72.0</ele><time>2026-04-18T13:01:13.352Z</time></trkpt><trkpt lat="33.8730481" lon="7.8934636"><ele>72.25</ele><time>2026-04-18T13:01:14.355Z</time></trkpt><trkpt lat="33.873083" lon="7.8936214"><ele>72.5</ele><time>2026-04-18T13:01:15.362Z</time></trkpt><trkpt lat="33.8731188" lon="7.8937838"><ele>72.75</ele><time>2026-04-18T13:01:16.356Z</time></trkpt><trkpt lat="33.8731531" lon="7.8939359"><ele>73.0</ele><time>2026-04-18T13:01:17.362Z</time></trkpt><trkpt lat="33.8731857" lon="7.8940852"><ele>73.0</ele><time>2026-04-18T13:01:18.359Z</time></trkpt><trkpt lat="33.8732166" lon="7.8942326"><ele>73.0</ele><time>2026-04-18T13:01:19.356Z</time></trkpt><trkpt lat="33.8732481" lon="7.894377"><ele>73.0</ele><time>2026-04-18T13:01:20.374Z</time></trkpt><trkpt lat="33.8732784" lon="7.8945138"><ele>73.0</ele><time>2026-04-18T13:01:21.357Z</time></trkpt><trkpt lat="33.8733029" lon="7.8946326"><ele>73.75</ele><time>2026-04-18T13:01:22.352Z</time></trkpt><trkpt lat="33.8733279" lon="7.8947606"><ele>74.5</ele><time>2026-04-18T13:01:23.357Z</time></trkpt><trkpt lat="33.8733603" lon="7.8949197"><ele>75.25</ele><time>2026-04-18T13:01:24.359Z</time></trkpt><trkpt lat="33.8733993" lon="7.8951141"><ele>76.0</ele><time>2026-04-18T13:01:25.364Z</time></trkpt><trkpt lat="33.8734459" lon="7.8953325"><ele>77.5</ele><time>2026-04-18T13:01:26.359Z</time></trkpt><trkpt lat="33.8734889" lon="7.895525"><ele>79.0</ele><time>2026-04-18T13:01:27.367Z</time></trkpt><trkpt lat="33.8735251" lon="7.8956943"><ele>80.5</ele><time>2026-04-18T13:01:28.355Z</time></trkpt><trkpt lat="33.8735584" lon="7.8958508"><ele>82.0</ele><time>2026-04-18T13:01:29.364Z</time></trkpt><trkpt lat="33.8735934" lon="7.8960085"><ele>82.0</ele><time>2026-04-18T13:01:30.36Z</time></trkpt><trkpt lat="33.8736306" lon="7.8961733"><ele>82.0</ele><time>2026-04-18T13:01:31.361Z</time></trkpt><trkpt lat="33.8736666" lon="7.8963325"><ele>82.0</ele><time>2026-04-18T13:01:32.371Z</time></trkpt><trkpt lat="33.8737016" lon="7.8964818"><ele>82.0</ele><time>2026-04-18T13:01:33.359Z</time></trkpt><trkpt lat="33.8737361" lon="7.8966284"><ele>81.75</ele><time>2026-04-18T13:01:34.358Z</time></trkpt><trkpt lat="33.8737708" lon="7.8967854"><ele>81.5</ele><time>2026-04-18T13:01:35.358Z</time></trkpt><trkpt lat="33.8738082" lon="7.8969546"><ele>81.25</ele><time>2026-04-18T13:01:36.354Z</time></trkpt><trkpt lat="33.8738438" lon="7.8971247"><ele>81.0</ele><time>2026-04-18T13:01:37.387Z</time></trkpt><trkpt lat="33.8738797" lon="7.8972866"><ele>81.0</ele><time>2026-04-18T13:01:38.361Z</time></trkpt><trkpt lat="33.8739176" lon="7.897449"><ele>81.0</ele><time>2026-04-18T13:01:39.351Z</time></trkpt><trkpt lat="33.8739546" lon="7.897617"><ele>81.0</ele><time>2026-04-18T13:01:40.362Z</time></trkpt><trkpt lat="33.8739909" lon="7.8977923"><ele>81.0</ele><time>2026-04-18T13:01:41.359Z</time></trkpt><trkpt lat="33.8740357" lon="7.8979706"><ele>81.0</ele><time>2026-04-18T13:01:42.363Z</time></trkpt><trkpt lat="33.8740757" lon="7.8981622"><ele>81.0</ele><time>2026-04-18T13:01:43.368Z</time></trkpt><trkpt lat="33.8741173" lon="7.8983681"><ele>81.0</ele><time>2026-04-18T13:01:44.364Z</time></trkpt><trkpt lat="33.8741682" lon="7.8985927"><ele>81.0</ele><time>2026-04-18T13:01:45.364Z</time></trkpt><trkpt lat="33.8742266" lon="7.8988482"><ele>81.0</ele><time>2026-04-18T13:01:46.365Z</time></trkpt><trkpt lat="33.8742901" lon="7.8991197"><ele>83.5</ele><time>2026-04-18T13:01:47.357Z</time></trkpt><trkpt lat="33.8743483" lon="7.8993867"><ele>86.0</ele><time>2026-04-18T13:01:48.361Z</time></trkpt><trkpt lat="33.8744079" lon="7.8996544"><ele>86.0</ele><time>2026-04-18T13:01:49.36Z</time></trkpt><trkpt lat="33.8744692" lon="7.8999146"><ele>86.0</ele><time>2026-04-18T13:01:50.36Z</time></trkpt><trkpt lat="33.8745262" lon="7.9001712"><ele>86.0</ele><time>2026-04-18T13:01:51.369Z</time></trkpt><trkpt lat="33.8745788" lon="7.9004217"><ele>85.66666666666667</ele><time>2026-04-18T13:01:52.371Z</time></trkpt><trkpt lat="33.8746306" lon="7.9006574"><ele>85.33333333333333</ele><time>2026-04-18T13:01:53.358Z</time></trkpt><trkpt lat="33.8746811" lon="7.9008855"><ele>85.0</ele><time>2026-04-18T13:01:54.361Z</time></trkpt><trkpt lat="33.8747284" lon="7.9010996"><ele>85.0</ele><time>2026-04-18T13:01:55.356Z</time></trkpt><trkpt lat="33.8747745" lon="7.9013069"><ele>85.0</ele><time>2026-04-18T13:01:56.364Z</time></trkpt><trkpt lat="33.8748198" lon="7.9015165"><ele>85.0</ele><time>2026-04-18T13:01:57.365Z</time></trkpt><trkpt lat="33.8748627" lon="7.9017284"><ele>85.0</ele><time>2026-04-18T13:01:58.362Z</time></trkpt><trkpt lat="33.8749081" lon="7.9019433"><ele>85.0</ele><time>2026-04-18T13:01:59.367Z</time></trkpt><trkpt lat="33.874956" lon="7.9021612"><ele>85.0</ele><time>2026-04-18T13:02:00.365Z</time></trkpt><trkpt lat="33.875007" lon="7.9023815"><ele>86.0</ele><time>2026-04-18T13:02:01.363Z</time></trkpt><trkpt lat="33.875055" lon="7.9026045"><ele>87.0</ele><time>2026-04-18T13:02:02.366Z</time></trkpt><trkpt lat="33.8751014" lon="7.9028306"><ele>88.0</ele><time>2026-04-18T13:02:03.36Z</time></trkpt><trkpt lat="33.8751481" lon="7.9030575"><ele>88.66666666666666</ele><time>2026-04-18T13:02:04.365Z</time></trkpt><trkpt lat="33.8751945" lon="7.9032844"><ele>89.33333333333333</ele><time>2026-04-18T13:02:05.37Z</time></trkpt><trkpt lat="33.8752413" lon="7.9035127"><ele>90.0</ele><time>2026-04-18T13:02:06.366Z</time></trkpt><trkpt lat="33.8752898" lon="7.9037439"><ele>90.0</ele><time>2026-04-18T13:02:07.368Z</time></trkpt><trkpt lat="33.8753406" lon="7.9039754"><ele>90.0</ele><time>2026-04-18T13:02:08.361Z</time></trkpt><trkpt lat="33.8753887" lon="7.9042085"><ele>90.0</ele><time>2026-04-18T13:02:09.37Z</time></trkpt><trkpt lat="33.8754391" lon="7.9044447"><ele>90.0</ele><time>2026-04-18T13:02:10.367Z</time></trkpt><trkpt lat="33.875491" lon="7.9046833"><ele>90.0</ele><time>2026-04-18T13:02:11.358Z</time></trkpt><trkpt lat="33.8755437" lon="7.9049235"><ele>90.0</ele><time>2026-04-18T13:02:12.358Z</time></trkpt><trkpt lat="33.8755956" lon="7.9051681"><ele>90.33333333333333</ele><time>2026-04-18T13:02:13.36Z</time></trkpt><trkpt lat="33.8756491" lon="7.9054159"><ele>90.66666666666666</ele><time>2026-04-18T13:02:14.363Z</time></trkpt><trkpt lat="33.8757035" lon="7.9056653"><ele>91.0</ele><time>2026-04-18T13:02:15.367Z</time></trkpt><trkpt lat="33.8757584" lon="7.9059178"><ele>91.0</ele><time>2026-04-18T13:02:16.368Z</time></trkpt><trkpt lat="33.875814" lon="7.9061736"><ele>91.0</ele><time>2026-04-18T13:02:17.363Z</time></trkpt><trkpt lat="33.8758715" lon="7.9064317"><ele>91.0</ele><time>2026-04-18T13:02:18.367Z</time></trkpt><trkpt lat="33.8759297" lon="7.9066934"><ele>91.0</ele><time>2026-04-18T13:02:19.37Z</time></trkpt><trkpt lat="33.8759869" lon="7.9069584"><ele>91.0</ele><time>2026-04-18T13:02:20.363Z</time></trkpt><trkpt lat="33.876044" lon="7.9072268"><ele>91.0</ele><time>2026-04-18T13:02:21.363Z</time></trkpt><trkpt lat="33.8760995" lon="7.9074953"><ele>91.0</ele><time>2026-04-18T13:02:22.368Z</time></trkpt><trkpt lat="33.8761544" lon="7.9077612"><ele>92.5</ele><time>2026-04-18T13:02:23.363Z</time></trkpt><trkpt lat="33.8762088" lon="7.9080255"><ele>94.0</ele><time>2026-04-18T13:02:24.366Z</time></trkpt><trkpt lat="33.8762653" lon="7.9082908"><ele>95.0</ele><time>2026-04-18T13:02:25.374Z</time></trkpt><trkpt lat="33.8763218" lon="7.9085538"><ele>96.0</ele><time>2026-04-18T13:02:26.364Z</time></trkpt><trkpt lat="33.8763791" lon="7.9088164"><ele>96.0</ele><time>2026-04-18T13:02:27.367Z</time></trkpt><trkpt lat="33.8764365" lon="7.9090784"><ele>96.0</ele><time>2026-04-18T13:02:28.366Z</time></trkpt><trkpt lat="33.8764947" lon="7.9093403"><ele>95.33333333333333</ele><time>2026-04-18T13:02:29.366Z</time></trkpt><trkpt lat="33.8765526" lon="7.9096009"><ele>94.66666666666666</ele><time>2026-04-18T13:02:30.363Z</time></trkpt><trkpt lat="33.8766073" lon="7.9098578"><ele>94.0</ele><time>2026-04-18T13:02:31.36Z</time></trkpt><trkpt lat="33.8766605" lon="7.9101132"><ele>93.66666666666666</ele><time>2026-04-18T13:02:32.371Z</time></trkpt><trkpt lat="33.8767145" lon="7.9103667"><ele>93.33333333333333</ele><time>2026-04-18T13:02:33.351Z</time></trkpt><trkpt lat="33.876769" lon="7.9106221"><ele>93.0</ele><time>2026-04-18T13:02:34.365Z</time></trkpt><trkpt lat="33.8768222" lon="7.9108746"><ele>94.33333333333334</ele><time>2026-04-18T13:02:35.359Z</time></trkpt><trkpt lat="33.8768759" lon="7.9111294"><ele>95.66666666666667</ele><time>2026-04-18T13:02:36.362Z</time></trkpt><trkpt lat="33.87693" lon="7.9113835"><ele>97.0</ele><time>2026-04-18T13:02:37.365Z</time></trkpt><trkpt lat="33.8769841" lon="7.9116357"><ele>96.33333333333334</ele><time>2026-04-18T13:02:38.362Z</time></trkpt><trkpt lat="33.8770376" lon="7.9118892"><ele>95.66666666666667</ele><time>2026-04-18T13:02:39.366Z</time></trkpt><trkpt lat="33.8770902" lon="7.9121415"><ele>95.0</ele><time>2026-04-18T13:02:40.358Z</time></trkpt><trkpt lat="33.8771443" lon="7.912394"><ele>95.66666666666667</ele><time>2026-04-18T13:02:41.365Z</time></trkpt><trkpt lat="33.8771981" lon="7.9126446"><ele>96.33333333333334</ele><time>2026-04-18T13:02:42.362Z</time></trkpt><trkpt lat="33.8772507" lon="7.9128962"><ele>97.0</ele><time>2026-04-18T13:02:43.364Z</time></trkpt><trkpt lat="33.8773036" lon="7.9131457"><ele>97.0</ele><time>2026-04-18T13:02:44.362Z</time></trkpt><trkpt lat="33.8773564" lon="7.9133942"><ele>97.0</ele><time>2026-04-18T13:02:45.372Z</time></trkpt><trkpt lat="33.8774089" lon="7.9136395"><ele>97.0</ele><time>2026-04-18T13:02:46.364Z</time></trkpt><trkpt lat="33.8774615" lon="7.913885"><ele>96.66666666666667</ele><time>2026-04-18T13:02:47.367Z</time></trkpt><trkpt lat="33.877515" lon="7.9141286"><ele>96.33333333333334</ele><time>2026-04-18T13:02:48.367Z</time></trkpt><trkpt lat="33.877568" lon="7.9143666"><ele>96.0</ele><time>2026-04-18T13:02:49.363Z</time></trkpt><trkpt lat="33.8776172" lon="7.9145895"><ele>96.0</ele><time>2026-04-18T13:02:50.364Z</time></trkpt><trkpt lat="33.8776607" lon="7.914797"><ele>96.0</ele><time>2026-04-18T13:02:51.367Z</time></trkpt><trkpt lat="33.8777021" lon="7.9149963"><ele>96.0</ele><time>2026-04-18T13:02:52.361Z</time></trkpt><trkpt lat="33.8777448" lon="7.9151982"><ele>96.33333333333334</ele><time>2026-04-18T13:02:53.363Z</time></trkpt><trkpt lat="33.8777884" lon="7.9154008"><ele>96.66666666666667</ele><time>2026-04-18T13:02:54.357Z</time></trkpt><trkpt lat="33.8778335" lon="7.9156076"><ele>97.0</ele><time>2026-04-18T13:02:55.369Z</time></trkpt><trkpt lat="33.8778796" lon="7.9158191"><ele>97.0</ele><time>2026-04-18T13:02:56.361Z</time></trkpt><trkpt lat="33.8779262" lon="7.9160349"><ele>97.0</ele><time>2026-04-18T13:02:57.361Z</time></trkpt><trkpt lat="33.8779724" lon="7.9162524"><ele>97.0</ele><time>2026-04-18T13:02:58.359Z</time></trkpt><trkpt lat="33.8780196" lon="7.9164725"><ele>97.0</ele><time>2026-04-18T13:02:59.363Z</time></trkpt><trkpt lat="33.8780674" lon="7.9166957"><ele>97.0</ele><time>2026-04-18T13:03:00.38Z</time></trkpt><trkpt lat="33.8781157" lon="7.9169229"><ele>97.0</ele><time>2026-04-18T13:03:01.365Z</time></trkpt><trkpt lat="33.8781638" lon="7.9171537"><ele>97.33333333333334</ele><time>2026-04-18T13:03:02.36Z</time></trkpt><trkpt lat="33.8782123" lon="7.9173832"><ele>97.66666666666666</ele><time>2026-04-18T13:03:03.365Z</time></trkpt><trkpt lat="33.8782623" lon="7.9176166"><ele>98.0</ele><time>2026-04-18T13:03:04.362Z</time></trkpt><trkpt lat="33.8783133" lon="7.9178546"><ele>98.33333333333333</ele><time>2026-04-18T13:03:05.355Z</time></trkpt><trkpt lat="33.8783655" lon="7.9180966"><ele>98.66666666666666</ele><time>2026-04-18T13:03:06.366Z</time></trkpt><trkpt lat="33.8784189" lon="7.9183425"><ele>99.0</ele><time>2026-04-18T13:03:07.371Z</time></trkpt><trkpt lat="33.8784729" lon="7.918592"><ele>99.66666666666666</ele><time>2026-04-18T13:03:08.359Z</time></trkpt><trkpt lat="33.8785269" lon="7.918844"><ele>100.33333333333333</ele><time>2026-04-18T13:03:09.372Z</time></trkpt><trkpt lat="33.8785808" lon="7.9190966"><ele>101.0</ele><time>2026-04-18T13:03:10.357Z</time></trkpt><trkpt lat="33.8786349" lon="7.9193491"><ele>101.33333333333333</ele><time>2026-04-18T13:03:11.358Z</time></trkpt><trkpt lat="33.8786894" lon="7.9196016"><ele>101.66666666666666</ele><time>2026-04-18T13:03:12.363Z</time></trkpt><trkpt lat="33.8787435" lon="7.9198544"><ele>102.0</ele><time>2026-04-18T13:03:13.355Z</time></trkpt><trkpt lat="33.8787974" lon="7.9201073"><ele>102.33333333333334</ele><time>2026-04-18T13:03:14.36Z</time></trkpt><trkpt lat="33.878852" lon="7.92036"><ele>102.66666666666667</ele><time>2026-04-18T13:03:15.36Z</time></trkpt><trkpt lat="33.8789074" lon="7.9206125"><ele>103.0</ele><time>2026-04-18T13:03:16.373Z</time></trkpt><trkpt lat="33.8789629" lon="7.9208649"><ele>103.66666666666667</ele><time>2026-04-18T13:03:17.368Z</time></trkpt><trkpt lat="33.8790163" lon="7.9211176"><ele>104.33333333333334</ele><time>2026-04-18T13:03:18.369Z</time></trkpt><trkpt lat="33.8790706" lon="7.9213693"><ele>105.0</ele><time>2026-04-18T13:03:19.358Z</time></trkpt><trkpt lat="33.8791261" lon="7.9216203"><ele>104.66666666666666</ele><time>2026-04-18T13:03:20.367Z</time></trkpt><trkpt lat="33.8791801" lon="7.9218633"><ele>104.33333333333333</ele><time>2026-04-18T13:03:21.357Z</time></trkpt><trkpt lat="33.879232" lon="7.9220965"><ele>104.0</ele><time>2026-04-18T13:03:22.372Z</time></trkpt><trkpt lat="33.8792823" lon="7.9223247"><ele>104.0</ele><time>2026-04-18T13:03:23.366Z</time></trkpt><trkpt lat="33.8793321" lon="7.9225542"><ele>104.0</ele><time>2026-04-18T13:03:24.365Z</time></trkpt><trkpt lat="33.8793822" lon="7.922787"><ele>104.0</ele><time>2026-04-18T13:03:25.363Z</time></trkpt><trkpt lat="33.8794336" lon="7.9230229"><ele>103.66666666666666</ele><time>2026-04-18T13:03:26.362Z</time></trkpt><trkpt lat="33.8794859" lon="7.9232628"><ele>103.33333333333334</ele><time>2026-04-18T13:03:27.363Z</time></trkpt><trkpt lat="33.8795386" lon="7.9235086"><ele>103.0</ele><time>2026-04-18T13:03:28.359Z</time></trkpt><trkpt lat="33.8795914" lon="7.9237602"><ele>103.0</ele><time>2026-04-18T13:03:29.354Z</time></trkpt><trkpt lat="33.8796464" lon="7.9240183"><ele>103.0</ele><time>2026-04-18T13:03:30.359Z</time></trkpt><trkpt lat="33.8797047" lon="7.9242824"><ele>103.0</ele><time>2026-04-18T13:03:31.359Z</time></trkpt><trkpt lat="33.8797648" lon="7.924552"><ele>103.0</ele><time>2026-04-18T13:03:32.359Z</time></trkpt><trkpt lat="33.8798257" lon="7.9248271"><ele>103.0</ele><time>2026-04-18T13:03:33.36Z</time></trkpt><trkpt lat="33.8798859" lon="7.9251027"><ele>103.5</ele><time>2026-04-18T13:03:34.358Z</time></trkpt><trkpt lat="33.8799443" lon="7.9253748"><ele>104.0</ele><time>2026-04-18T13:03:35.364Z</time></trkpt><trkpt lat="33.8800022" lon="7.9256444"><ele>104.5</ele><time>2026-04-18T13:03:36.361Z</time></trkpt><trkpt lat="33.8800597" lon="7.9259126"><ele>105.0</ele><time>2026-04-18T13:03:37.356Z</time></trkpt><trkpt lat="33.8801168" lon="7.9261779"><ele>105.66666666666666</ele><time>2026-04-18T13:03:38.366Z</time></trkpt><trkpt lat="33.8801728" lon="7.9264389"><ele>106.33333333333333</ele><time>2026-04-18T13:03:39.358Z</time></trkpt><trkpt lat="33.880229" lon="7.9266961"><ele>107.0</ele><time>2026-04-18T13:03:40.36Z</time></trkpt><trkpt lat="33.8802848" lon="7.9269506"><ele>108.0</ele><time>2026-04-18T13:03:41.365Z</time></trkpt><trkpt lat="33.8803411" lon="7.9272055"><ele>109.0</ele><time>2026-04-18T13:03:42.36Z</time></trkpt><trkpt lat="33.8803968" lon="7.9274602"><ele>110.0</ele><time>2026-04-18T13:03:43.371Z</time></trkpt><trkpt lat="33.8804521" lon="7.9277137"><ele>110.0</ele><time>2026-04-18T13:03:44.365Z</time></trkpt><trkpt lat="33.8805068" lon="7.9279673"><ele>110.0</ele><time>2026-04-18T13:03:45.358Z</time></trkpt><trkpt lat="33.880562" lon="7.9282222"><ele>110.0</ele><time>2026-04-18T13:03:46.349Z</time></trkpt><trkpt lat="33.8806176" lon="7.9284785"><ele>110.0</ele><time>2026-04-18T13:03:47.355Z</time></trkpt><trkpt lat="33.8806723" lon="7.9287359"><ele>110.0</ele><time>2026-04-18T13:03:48.354Z</time></trkpt><trkpt lat="33.8807266" lon="7.9289941"><ele>110.0</ele><time>2026-04-18T13:03:49.356Z</time></trkpt><trkpt lat="33.8807808" lon="7.9292511"><ele>109.66666666666666</ele><time>2026-04-18T13:03:50.36Z</time></trkpt><trkpt lat="33.8808345" lon="7.9295035"><ele>109.33333333333334</ele><time>2026-04-18T13:03:51.357Z</time></trkpt><trkpt lat="33.8808876" lon="7.9297537"><ele>109.0</ele><time>2026-04-18T13:03:52.352Z</time></trkpt><trkpt lat="33.8809412" lon="7.9300038"><ele>109.66666666666667</ele><time>2026-04-18T13:03:53.36Z</time></trkpt><trkpt lat="33.8809953" lon="7.9302537"><ele>110.33333333333334</ele><time>2026-04-18T13:03:54.361Z</time></trkpt><trkpt lat="33.881049" lon="7.9305033"><ele>111.0</ele><time>2026-04-18T13:03:55.375Z</time></trkpt><trkpt lat="33.8811026" lon="7.9307526"><ele>110.66666666666666</ele><time>2026-04-18T13:03:56.353Z</time></trkpt><trkpt lat="33.8811563" lon="7.9310015"><ele>110.33333333333333</ele><time>2026-04-18T13:03:57.367Z</time></trkpt><trkpt lat="33.8812105" lon="7.9312511"><ele>110.0</ele><time>2026-04-18T13:03:58.364Z</time></trkpt><trkpt lat="33.8812651" lon="7.931502"><ele>110.0</ele><time>2026-04-18T13:03:59.361Z</time></trkpt><trkpt lat="33.8813196" lon="7.9317539"><ele>110.0</ele><time>2026-04-18T13:04:00.361Z</time></trkpt><trkpt lat="33.881373" lon="7.9320067"><ele>110.0</ele><time>2026-04-18T13:04:01.365Z</time></trkpt><trkpt lat="33.8814261" lon="7.9322592"><ele>110.0</ele><time>2026-04-18T13:04:02.367Z</time></trkpt><trkpt lat="33.8814798" lon="7.9325098"><ele>110.0</ele><time>2026-04-18T13:04:03.357Z</time></trkpt><trkpt lat="33.881534" lon="7.9327587"><ele>110.0</ele><time>2026-04-18T13:04:04.358Z</time></trkpt><trkpt lat="33.8815873" lon="7.9330055"><ele>110.0</ele><time>2026-04-18T13:04:05.357Z</time></trkpt><trkpt lat="33.8816403" lon="7.9332516"><ele>110.0</ele><time>2026-04-18T13:04:06.367Z</time></trkpt><trkpt lat="33.8816936" lon="7.9334955"><ele>110.0</ele><time>2026-04-18T13:04:07.363Z</time></trkpt><trkpt lat="33.8817453" lon="7.9337352"><ele>110.0</ele><time>2026-04-18T13:04:08.364Z</time></trkpt><trkpt lat="33.8817957" lon="7.9339734"><ele>110.0</ele><time>2026-04-18T13:04:09.358Z</time></trkpt><trkpt lat="33.8818454" lon="7.9342104"><ele>110.0</ele><time>2026-04-18T13:04:10.366Z</time></trkpt><trkpt lat="33.8818949" lon="7.9344428"><ele>110.33333333333333</ele><time>2026-04-18T13:04:11.394Z</time></trkpt><trkpt lat="33.8819457" lon="7.9346751"><ele>110.66666666666666</ele><time>2026-04-18T13:04:12.359Z</time></trkpt><trkpt lat="33.8819972" lon="7.9349099"><ele>111.0</ele><time>2026-04-18T13:04:13.361Z</time></trkpt><trkpt lat="33.8820486" lon="7.9351473"><ele>111.0</ele><time>2026-04-18T13:04:14.362Z</time></trkpt><trkpt lat="33.8821004" lon="7.9353863"><ele>111.0</ele><time>2026-04-18T13:04:15.36Z</time></trkpt><trkpt lat="33.8821527" lon="7.9356242"><ele>111.0</ele><time>2026-04-18T13:04:16.359Z</time></trkpt><trkpt lat="33.8822042" lon="7.9358609"><ele>112.0</ele><time>2026-04-18T13:04:17.358Z</time></trkpt><trkpt lat="33.8822549" lon="7.9360964"><ele>113.0</ele><time>2026-04-18T13:04:18.366Z</time></trkpt><trkpt lat="33.8823053" lon="7.9363307"><ele>114.0</ele><time>2026-04-18T13:04:19.365Z</time></trkpt><trkpt lat="33.8823546" lon="7.9365626"><ele>114.33333333333334</ele><time>2026-04-18T13:04:20.354Z</time></trkpt><trkpt lat="33.8824048" lon="7.9367932"><ele>114.66666666666667</ele><time>2026-04-18T13:04:21.354Z</time></trkpt><trkpt lat="33.8824545" lon="7.937022"><ele>115.0</ele><time>2026-04-18T13:04:22.359Z</time></trkpt><trkpt lat="33.8825026" lon="7.9372515"><ele>115.0</ele><time>2026-04-18T13:04:23.365Z</time></trkpt><trkpt lat="33.882552" lon="7.9374827"><ele>115.0</ele><time>2026-04-18T13:04:24.363Z</time></trkpt><trkpt lat="33.8826018" lon="7.9377141"><ele>115.0</ele><time>2026-04-18T13:04:25.356Z</time></trkpt><trkpt lat="33.8826517" lon="7.9379455"><ele>116.33333333333334</ele><time>2026-04-18T13:04:26.364Z</time></trkpt><trkpt lat="33.882703" lon="7.9381758"><ele>117.66666666666666</ele><time>2026-04-18T13:04:27.358Z</time></trkpt><trkpt lat="33.8827538" lon="7.9384039"><ele>119.0</ele><time>2026-04-18T13:04:28.354Z</time></trkpt><trkpt lat="33.8828028" lon="7.9386347"><ele>119.0</ele><time>2026-04-18T13:04:29.359Z</time></trkpt><trkpt lat="33.8828517" lon="7.9388654"><ele>119.0</ele><time>2026-04-18T13:04:30.359Z</time></trkpt><trkpt lat="33.8829005" lon="7.9390937"><ele>119.0</ele><time>2026-04-18T13:04:31.357Z</time></trkpt><trkpt lat="33.882949" lon="7.9393213"><ele>119.33333333333333</ele><time>2026-04-18T13:04:32.355Z</time></trkpt><trkpt lat="33.8829965" lon="7.9395486"><ele>119.66666666666666</ele><time>2026-04-18T13:04:33.354Z</time></trkpt><trkpt lat="33.8830441" lon="7.9397747"><ele>120.0</ele><time>2026-04-18T13:04:34.365Z</time></trkpt><trkpt lat="33.8830924" lon="7.9399987"><ele>120.0</ele><time>2026-04-18T13:04:35.356Z</time></trkpt><trkpt lat="33.8831416" lon="7.9402214"><ele>120.0</ele><time>2026-04-18T13:04:36.355Z</time></trkpt><trkpt lat="33.8831902" lon="7.9404422"><ele>120.0</ele><time>2026-04-18T13:04:37.369Z</time></trkpt><trkpt lat="33.8832377" lon="7.9406605"><ele>120.0</ele><time>2026-04-18T13:04:38.362Z</time></trkpt><trkpt lat="33.883286" lon="7.9408794"><ele>120.0</ele><time>2026-04-18T13:04:39.362Z</time></trkpt><trkpt lat="33.8833348" lon="7.9411009"><ele>120.0</ele><time>2026-04-18T13:04:40.363Z</time></trkpt><trkpt lat="33.8833819" lon="7.9413222"><ele>120.0</ele><time>2026-04-18T13:04:41.355Z</time></trkpt><trkpt lat="33.8834271" lon="7.9415412"><ele>120.0</ele><time>2026-04-18T13:04:42.374Z</time></trkpt><trkpt lat="33.8834733" lon="7.9417609"><ele>120.0</ele><time>2026-04-18T13:04:43.357Z</time></trkpt><trkpt lat="33.8835212" lon="7.9419843"><ele>121.66666666666666</ele><time>2026-04-18T13:04:44.366Z</time></trkpt><trkpt lat="33.8835695" lon="7.942211"><ele>123.33333333333333</ele><time>2026-04-18T13:04:45.354Z</time></trkpt><trkpt lat="33.8836188" lon="7.9424407"><ele>125.0</ele><time>2026-04-18T13:04:46.352Z</time></trkpt><trkpt lat="33.8836695" lon="7.942673"><ele>125.0</ele><time>2026-04-18T13:04:47.369Z</time></trkpt><trkpt lat="33.8837202" lon="7.9429077"><ele>125.0</ele><time>2026-04-18T13:04:48.354Z</time></trkpt><trkpt lat="33.8837696" lon="7.9431439"><ele>125.0</ele><time>2026-04-18T13:04:49.371Z</time></trkpt><trkpt lat="33.8838198" lon="7.9433807"><ele>124.66666666666666</ele><time>2026-04-18T13:04:50.355Z</time></trkpt><trkpt lat="33.8838708" lon="7.9436159"><ele>124.33333333333334</ele><time>2026-04-18T13:04:51.363Z</time></trkpt><trkpt lat="33.8839215" lon="7.9438504"><ele>124.0</ele><time>2026-04-18T13:04:52.356Z</time></trkpt><trkpt lat="33.8839721" lon="7.9440865"><ele>123.66666666666667</ele><time>2026-04-18T13:04:53.356Z</time></trkpt><trkpt lat="33.884024" lon="7.9443247"><ele>123.33333333333334</ele><time>2026-04-18T13:04:54.359Z</time></trkpt><trkpt lat="33.8840759" lon="7.9445637"><ele>123.0</ele><time>2026-04-18T13:04:55.355Z</time></trkpt><trkpt lat="33.8841262" lon="7.944804"><ele>123.33333333333334</ele><time>2026-04-18T13:04:56.362Z</time></trkpt><trkpt lat="33.8841761" lon="7.9450472"><ele>123.66666666666667</ele><time>2026-04-18T13:04:57.355Z</time></trkpt><trkpt lat="33.884227" lon="7.9452931"><ele>124.0</ele><time>2026-04-18T13:04:58.361Z</time></trkpt><trkpt lat="33.88428" lon="7.9455407"><ele>125.0</ele><time>2026-04-18T13:04:59.361Z</time></trkpt><trkpt lat="33.8843335" lon="7.9457852"><ele>126.0</ele><time>2026-04-18T13:05:00.357Z</time></trkpt><trkpt lat="33.8843853" lon="7.9460261"><ele>127.0</ele><time>2026-04-18T13:05:01.36Z</time></trkpt><trkpt lat="33.8844362" lon="7.946265"><ele>127.33333333333334</ele><time>2026-04-18T13:05:02.361Z</time></trkpt><trkpt lat="33.8844863" lon="7.9464972"><ele>127.66666666666666</ele><time>2026-04-18T13:05:03.371Z</time></trkpt><trkpt lat="33.8845368" lon="7.9467254"><ele>128.0</ele><time>2026-04-18T13:05:04.356Z</time></trkpt><trkpt lat="33.8845865" lon="7.9469532"><ele>128.0</ele><time>2026-04-18T13:05:05.364Z</time></trkpt><trkpt lat="33.8846358" lon="7.9471806"><ele>128.0</ele><time>2026-04-18T13:05:06.359Z</time></trkpt><trkpt lat="33.8846854" lon="7.9474054"><ele>128.0</ele><time>2026-04-18T13:05:07.359Z</time></trkpt><trkpt lat="33.8847348" lon="7.9476286"><ele>128.0</ele><time>2026-04-18T13:05:08.353Z</time></trkpt><trkpt lat="33.8847819" lon="7.9478491"><ele>128.0</ele><time>2026-04-18T13:05:09.358Z</time></trkpt><trkpt lat="33.8848269" lon="7.9480642"><ele>128.0</ele><time>2026-04-18T13:05:10.371Z</time></trkpt><trkpt lat="33.8848716" lon="7.9482772"><ele>127.33333333333333</ele><time>2026-04-18T13:05:11.362Z</time></trkpt><trkpt lat="33.8849172" lon="7.9484938"><ele>126.66666666666666</ele><time>2026-04-18T13:05:12.362Z</time></trkpt><trkpt lat="33.884964" lon="7.948716"><ele>126.0</ele><time>2026-04-18T13:05:13.357Z</time></trkpt><trkpt lat="33.8850111" lon="7.9489439"><ele>126.0</ele><time>2026-04-18T13:05:14.355Z</time></trkpt><trkpt lat="33.8850586" lon="7.9491776"><ele>126.0</ele><time>2026-04-18T13:05:15.364Z</time></trkpt><trkpt lat="33.8851087" lon="7.9494167"><ele>126.0</ele><time>2026-04-18T13:05:16.359Z</time></trkpt><trkpt lat="33.885161" lon="7.949662"><ele>126.0</ele><time>2026-04-18T13:05:17.359Z</time></trkpt><trkpt lat="33.8852149" lon="7.9499136"><ele>126.0</ele><time>2026-04-18T13:05:18.36Z</time></trkpt><trkpt lat="33.8852706" lon="7.9501705"><ele>126.0</ele><time>2026-04-18T13:05:19.363Z</time></trkpt><trkpt lat="33.8853268" lon="7.950433"><ele>126.0</ele><time>2026-04-18T13:05:20.368Z</time></trkpt><trkpt lat="33.8853834" lon="7.9506989"><ele>126.0</ele><time>2026-04-18T13:05:21.361Z</time></trkpt><trkpt lat="33.8854403" lon="7.9509628"><ele>125.5</ele><time>2026-04-18T13:05:22.359Z</time></trkpt><trkpt lat="33.8854966" lon="7.9512278"><ele>125.0</ele><time>2026-04-18T13:05:23.361Z</time></trkpt><trkpt lat="33.8855515" lon="7.9514902"><ele>124.66666666666666</ele><time>2026-04-18T13:05:24.363Z</time></trkpt><trkpt lat="33.8856063" lon="7.9517498"><ele>124.33333333333334</ele><time>2026-04-18T13:05:25.362Z</time></trkpt><trkpt lat="33.8856603" lon="7.9520073"><ele>124.0</ele><time>2026-04-18T13:05:26.36Z</time></trkpt><trkpt lat="33.8857133" lon="7.9522628"><ele>124.0</ele><time>2026-04-18T13:05:27.369Z</time></trkpt><trkpt lat="33.885767" lon="7.9525151"><ele>124.0</ele><time>2026-04-18T13:05:28.365Z</time></trkpt><trkpt lat="33.885822" lon="7.9527643"><ele>124.0</ele><time>2026-04-18T13:05:29.364Z</time></trkpt><trkpt lat="33.8858772" lon="7.953012"><ele>126.0</ele><time>2026-04-18T13:05:30.36Z</time></trkpt><trkpt lat="33.8859308" lon="7.9532548"><ele>128.0</ele><time>2026-04-18T13:05:31.364Z</time></trkpt><trkpt lat="33.8859829" lon="7.9534908"><ele>130.0</ele><time>2026-04-18T13:05:32.355Z</time></trkpt><trkpt lat="33.8860335" lon="7.9537233"><ele>130.33333333333334</ele><time>2026-04-18T13:05:33.36Z</time></trkpt><trkpt lat="33.8860829" lon="7.9539552"><ele>130.66666666666666</ele><time>2026-04-18T13:05:34.366Z</time></trkpt><trkpt lat="33.8861308" lon="7.9541827"><ele>131.0</ele><time>2026-04-18T13:05:35.366Z</time></trkpt><trkpt lat="33.8861778" lon="7.9544052"><ele>131.0</ele><time>2026-04-18T13:05:36.364Z</time></trkpt><trkpt lat="33.8862254" lon="7.954623"><ele>131.0</ele><time>2026-04-18T13:05:37.364Z</time></trkpt><trkpt lat="33.8862728" lon="7.9548398"><ele>131.0</ele><time>2026-04-18T13:05:38.366Z</time></trkpt><trkpt lat="33.8863202" lon="7.9550572"><ele>131.0</ele><time>2026-04-18T13:05:39.367Z</time></trkpt><trkpt lat="33.886367" lon="7.9552755"><ele>131.0</ele><time>2026-04-18T13:05:40.358Z</time></trkpt><trkpt lat="33.8864133" lon="7.9554945"><ele>131.0</ele><time>2026-04-18T13:05:41.362Z</time></trkpt><trkpt lat="33.8864594" lon="7.9557131"><ele>130.66666666666666</ele><time>2026-04-18T13:05:42.366Z</time></trkpt><trkpt lat="33.8865048" lon="7.9559283"><ele>130.33333333333334</ele><time>2026-04-18T13:05:43.361Z</time></trkpt><trkpt lat="33.8865496" lon="7.9561406"><ele>130.0</ele><time>2026-04-18T13:05:44.356Z</time></trkpt><trkpt lat="33.8865941" lon="7.9563487"><ele>130.0</ele><time>2026-04-18T13:05:45.362Z</time></trkpt><trkpt lat="33.8866382" lon="7.9565564"><ele>130.0</ele><time>2026-04-18T13:05:46.362Z</time></trkpt><trkpt lat="33.8866828" lon="7.9567637"><ele>130.0</ele><time>2026-04-18T13:05:47.359Z</time></trkpt><trkpt lat="33.8867282" lon="7.9569727"><ele>130.66666666666669</ele><time>2026-04-18T13:05:48.357Z</time></trkpt><trkpt lat="33.8867737" lon="7.9571869"><ele>131.33333333333334</ele><time>2026-04-18T13:05:49.365Z</time></trkpt><trkpt lat="33.8868197" lon="7.9574065"><ele>132.0</ele><time>2026-04-18T13:05:50.358Z</time></trkpt><trkpt lat="33.8868678" lon="7.957631"><ele>132.0</ele><time>2026-04-18T13:05:51.361Z</time></trkpt><trkpt lat="33.8869174" lon="7.9578603"><ele>132.0</ele><time>2026-04-18T13:05:52.365Z</time></trkpt><trkpt lat="33.886967" lon="7.9580944"><ele>132.0</ele><time>2026-04-18T13:05:53.359Z</time></trkpt><trkpt lat="33.8870175" lon="7.9583328"><ele>132.0</ele><time>2026-04-18T13:05:54.364Z</time></trkpt><trkpt lat="33.8870692" lon="7.958574"><ele>132.0</ele><time>2026-04-18T13:05:55.362Z</time></trkpt><trkpt lat="33.8871221" lon="7.958816"><ele>132.0</ele><time>2026-04-18T13:05:56.368Z</time></trkpt><trkpt lat="33.8871747" lon="7.9590576"><ele>131.66666666666666</ele><time>2026-04-18T13:05:57.37Z</time></trkpt><trkpt lat="33.8872269" lon="7.9592966"><ele>131.33333333333331</ele><time>2026-04-18T13:05:58.363Z</time></trkpt><trkpt lat="33.8872781" lon="7.9595337"><ele>131.0</ele><time>2026-04-18T13:05:59.363Z</time></trkpt><trkpt lat="33.8873289" lon="7.9597682"><ele>131.0</ele><time>2026-04-18T13:06:00.369Z</time></trkpt><trkpt lat="33.8873803" lon="7.9599992"><ele>131.0</ele><time>2026-04-18T13:06:01.354Z</time></trkpt><trkpt lat="33.8874298" lon="7.9602246"><ele>131.0</ele><time>2026-04-18T13:06:02.36Z</time></trkpt><trkpt lat="33.8874773" lon="7.9604458"><ele>131.0</ele><time>2026-04-18T13:06:03.358Z</time></trkpt><trkpt lat="33.8875235" lon="7.960663"><ele>131.0</ele><time>2026-04-18T13:06:04.361Z</time></trkpt><trkpt lat="33.8875696" lon="7.9608781"><ele>131.0</ele><time>2026-04-18T13:06:05.364Z</time></trkpt><trkpt lat="33.8876156" lon="7.9610926"><ele>132.66666666666666</ele><time>2026-04-18T13:06:06.363Z</time></trkpt><trkpt lat="33.887662" lon="7.9613055"><ele>134.33333333333334</ele><time>2026-04-18T13:06:07.361Z</time></trkpt><trkpt lat="33.887709" lon="7.9615188"><ele>136.0</ele><time>2026-04-18T13:06:08.36Z</time></trkpt><trkpt lat="33.8877563" lon="7.9617341"><ele>136.33333333333334</ele><time>2026-04-18T13:06:09.36Z</time></trkpt><trkpt lat="33.8878031" lon="7.9619514"><ele>136.66666666666666</ele><time>2026-04-18T13:06:10.365Z</time></trkpt><trkpt lat="33.8878495" lon="7.9621707"><ele>137.0</ele><time>2026-04-18T13:06:11.372Z</time></trkpt><trkpt lat="33.8878969" lon="7.9623906"><ele>137.0</ele><time>2026-04-18T13:06:12.377Z</time></trkpt><trkpt lat="33.8879451" lon="7.962609"><ele>137.0</ele><time>2026-04-18T13:06:13.361Z</time></trkpt><trkpt lat="33.8879931" lon="7.9628263"><ele>137.0</ele><time>2026-04-18T13:06:14.359Z</time></trkpt><trkpt lat="33.88804" lon="7.963043"><ele>137.0</ele><time>2026-04-18T13:06:15.356Z</time></trkpt><trkpt lat="33.8880868" lon="7.963259"><ele>137.0</ele><time>2026-04-18T13:06:16.358Z</time></trkpt><trkpt lat="33.8881332" lon="7.9634737"><ele>137.0</ele><time>2026-04-18T13:06:17.359Z</time></trkpt><trkpt lat="33.8881783" lon="7.9636874"><ele>137.0</ele><time>2026-04-18T13:06:18.369Z</time></trkpt><trkpt lat="33.8882228" lon="7.9639001"><ele>137.0</ele><time>2026-04-18T13:06:19.358Z</time></trkpt><trkpt lat="33.8882675" lon="7.9641119"><ele>137.0</ele><time>2026-04-18T13:06:20.37Z</time></trkpt><trkpt lat="33.8883123" lon="7.9643236"><ele>137.0</ele><time>2026-04-18T13:06:21.37Z</time></trkpt><trkpt lat="33.8883566" lon="7.9645329"><ele>137.0</ele><time>2026-04-18T13:06:22.362Z</time></trkpt><trkpt lat="33.8884006" lon="7.964742"><ele>137.0</ele><time>2026-04-18T13:06:23.359Z</time></trkpt><trkpt lat="33.8884449" lon="7.9649535"><ele>138.0</ele><time>2026-04-18T13:06:24.355Z</time></trkpt><trkpt lat="33.8884898" lon="7.9651674"><ele>139.0</ele><time>2026-04-18T13:06:25.37Z</time></trkpt><trkpt lat="33.888536" lon="7.9653834"><ele>140.0</ele><time>2026-04-18T13:06:26.36Z</time></trkpt><trkpt lat="33.8885826" lon="7.9656006"><ele>140.0</ele><time>2026-04-18T13:06:27.358Z</time></trkpt><trkpt lat="33.8886292" lon="7.9658186"><ele>140.0</ele><time>2026-04-18T13:06:28.361Z</time></trkpt><trkpt lat="33.8886756" lon="7.9660363"><ele>140.0</ele><time>2026-04-18T13:06:29.368Z</time></trkpt><trkpt lat="33.8887221" lon="7.9662542"><ele>140.0</ele><time>2026-04-18T13:06:30.363Z</time></trkpt><trkpt lat="33.888768" lon="7.9664733"><ele>140.0</ele><time>2026-04-18T13:06:31.352Z</time></trkpt><trkpt lat="33.8888138" lon="7.9666945"><ele>140.0</ele><time>2026-04-18T13:06:32.362Z</time></trkpt><trkpt lat="33.8888605" lon="7.9669169"><ele>140.33333333333331</ele><time>2026-04-18T13:06:33.355Z</time></trkpt><trkpt lat="33.8889081" lon="7.9671406"><ele>140.66666666666666</ele><time>2026-04-18T13:06:34.356Z</time></trkpt><trkpt lat="33.8889556" lon="7.9673657"><ele>141.0</ele><time>2026-04-18T13:06:35.358Z</time></trkpt><trkpt lat="33.8890022" lon="7.9675927"><ele>140.33333333333334</ele><time>2026-04-18T13:06:36.359Z</time></trkpt><trkpt lat="33.8890488" lon="7.967819"><ele>139.66666666666669</ele><time>2026-04-18T13:06:37.363Z</time></trkpt><trkpt lat="33.8890974" lon="7.968047"><ele>139.0</ele><time>2026-04-18T13:06:38.357Z</time></trkpt><trkpt lat="33.8891473" lon="7.9682772"><ele>138.66666666666669</ele><time>2026-04-18T13:06:39.361Z</time></trkpt><trkpt lat="33.8891969" lon="7.9685096"><ele>138.33333333333334</ele><time>2026-04-18T13:06:40.351Z</time></trkpt><trkpt lat="33.8892459" lon="7.9687443"><ele>138.0</ele><time>2026-04-18T13:06:41.354Z</time></trkpt><trkpt lat="33.8892962" lon="7.9689816"><ele>139.0</ele><time>2026-04-18T13:06:42.374Z</time></trkpt><trkpt lat="33.8893472" lon="7.9692201"><ele>140.0</ele><time>2026-04-18T13:06:43.36Z</time></trkpt><trkpt lat="33.8893975" lon="7.9694588"><ele>141.0</ele><time>2026-04-18T13:06:44.365Z</time></trkpt><trkpt lat="33.8894471" lon="7.9696959"><ele>141.0</ele><time>2026-04-18T13:06:45.36Z</time></trkpt><trkpt lat="33.8894976" lon="7.9699326"><ele>141.0</ele><time>2026-04-18T13:06:46.364Z</time></trkpt><trkpt lat="33.8895492" lon="7.9701709"><ele>141.0</ele><time>2026-04-18T13:06:47.36Z</time></trkpt><trkpt lat="33.8895994" lon="7.9704112"><ele>140.66666666666666</ele><time>2026-04-18T13:06:48.351Z</time></trkpt><trkpt lat="33.8896486" lon="7.9706522"><ele>140.33333333333331</ele><time>2026-04-18T13:06:49.362Z</time></trkpt><trkpt lat="33.8896984" lon="7.9708924"><ele>140.0</ele><time>2026-04-18T13:06:50.356Z</time></trkpt><trkpt lat="33.8897489" lon="7.9711319"><ele>139.66666666666666</ele><time>2026-04-18T13:06:51.362Z</time></trkpt><trkpt lat="33.8897999" lon="7.9713702"><ele>139.33333333333334</ele><time>2026-04-18T13:06:52.355Z</time></trkpt><trkpt lat="33.8898508" lon="7.9716063"><ele>139.0</ele><time>2026-04-18T13:06:53.351Z</time></trkpt><trkpt lat="33.8899019" lon="7.9718399"><ele>139.0</ele><time>2026-04-18T13:06:54.36Z</time></trkpt><trkpt lat="33.8899521" lon="7.9720721"><ele>139.0</ele><time>2026-04-18T13:06:55.357Z</time></trkpt><trkpt lat="33.8900019" lon="7.9723032"><ele>139.0</ele><time>2026-04-18T13:06:56.359Z</time></trkpt><trkpt lat="33.8900519" lon="7.9725334"><ele>140.33333333333334</ele><time>2026-04-18T13:06:57.38Z</time></trkpt><trkpt lat="33.8901025" lon="7.9727657"><ele>141.66666666666666</ele><time>2026-04-18T13:06:58.356Z</time></trkpt><trkpt lat="33.8901536" lon="7.9730004"><ele>143.0</ele><time>2026-04-18T13:06:59.364Z</time></trkpt><trkpt lat="33.8902043" lon="7.9732358"><ele>142.66666666666666</ele><time>2026-04-18T13:07:00.359Z</time></trkpt><trkpt lat="33.8902532" lon="7.973471"><ele>142.33333333333334</ele><time>2026-04-18T13:07:01.361Z</time></trkpt><trkpt lat="33.8903024" lon="7.973706"><ele>142.0</ele><time>2026-04-18T13:07:02.367Z</time></trkpt><trkpt lat="33.8903528" lon="7.9739405"><ele>142.0</ele><time>2026-04-18T13:07:03.367Z</time></trkpt><trkpt lat="33.8904039" lon="7.9741752"><ele>142.0</ele><time>2026-04-18T13:07:04.367Z</time></trkpt><trkpt lat="33.8904553" lon="7.9744113"><ele>142.0</ele><time>2026-04-18T13:07:05.364Z</time></trkpt><trkpt lat="33.8905053" lon="7.9746481"><ele>142.0</ele><time>2026-04-18T13:07:06.357Z</time></trkpt><trkpt lat="33.8905553" lon="7.9748846"><ele>142.0</ele><time>2026-04-18T13:07:07.358Z</time></trkpt><trkpt lat="33.8906064" lon="7.9751197"><ele>142.0</ele><time>2026-04-18T13:07:08.368Z</time></trkpt><trkpt lat="33.890659" lon="7.9753519"><ele>141.33333333333334</ele><time>2026-04-18T13:07:09.368Z</time></trkpt><trkpt lat="33.8907106" lon="7.9755814"><ele>140.66666666666666</ele><time>2026-04-18T13:07:10.364Z</time></trkpt><trkpt lat="33.8907615" lon="7.9758115"><ele>140.0</ele><time>2026-04-18T13:07:11.363Z</time></trkpt><trkpt lat="33.8908125" lon="7.9760463"><ele>140.0</ele><time>2026-04-18T13:07:12.363Z</time></trkpt><trkpt lat="33.8908638" lon="7.9762849"><ele>140.0</ele><time>2026-04-18T13:07:13.362Z</time></trkpt><trkpt lat="33.8909157" lon="7.9765276"><ele>140.0</ele><time>2026-04-18T13:07:14.368Z</time></trkpt><trkpt lat="33.8909677" lon="7.9767743"><ele>140.66666666666666</ele><time>2026-04-18T13:07:15.366Z</time></trkpt><trkpt lat="33.8910211" lon="7.9770247"><ele>141.33333333333334</ele><time>2026-04-18T13:07:16.359Z</time></trkpt><trkpt lat="33.8910764" lon="7.9772777"><ele>142.0</ele><time>2026-04-18T13:07:17.353Z</time></trkpt><trkpt lat="33.8911316" lon="7.9775321"><ele>142.0</ele><time>2026-04-18T13:07:18.358Z</time></trkpt><trkpt lat="33.8911875" lon="7.9777875"><ele>142.0</ele><time>2026-04-18T13:07:19.36Z</time></trkpt><trkpt lat="33.8912428" lon="7.9780435"><ele>142.0</ele><time>2026-04-18T13:07:20.392Z</time></trkpt><trkpt lat="33.8912977" lon="7.9782978"><ele>142.33333333333334</ele><time>2026-04-18T13:07:21.359Z</time></trkpt><trkpt lat="33.8913516" lon="7.9785492"><ele>142.66666666666666</ele><time>2026-04-18T13:07:22.357Z</time></trkpt><trkpt lat="33.8914041" lon="7.9787974"><ele>143.0</ele><time>2026-04-18T13:07:23.359Z</time></trkpt><trkpt lat="33.8914566" lon="7.979043"><ele>143.0</ele><time>2026-04-18T13:07:24.366Z</time></trkpt><trkpt lat="33.8915101" lon="7.9792872"><ele>143.0</ele><time>2026-04-18T13:07:25.363Z</time></trkpt><trkpt lat="33.8915638" lon="7.9795309"><ele>143.0</ele><time>2026-04-18T13:07:26.353Z</time></trkpt><trkpt lat="33.8916164" lon="7.9797741"><ele>143.0</ele><time>2026-04-18T13:07:27.36Z</time></trkpt><trkpt lat="33.8916674" lon="7.9800168"><ele>143.0</ele><time>2026-04-18T13:07:28.365Z</time></trkpt><trkpt lat="33.8917186" lon="7.9802585"><ele>143.0</ele><time>2026-04-18T13:07:29.362Z</time></trkpt><trkpt lat="33.8917707" lon="7.9805008"><ele>144.0</ele><time>2026-04-18T13:07:30.361Z</time></trkpt><trkpt lat="33.8918228" lon="7.9807431"><ele>145.0</ele><time>2026-04-18T13:07:31.37Z</time></trkpt><trkpt lat="33.8918753" lon="7.9809866"><ele>146.0</ele><time>2026-04-18T13:07:32.367Z</time></trkpt><trkpt lat="33.8919277" lon="7.981231"><ele>146.0</ele><time>2026-04-18T13:07:33.357Z</time></trkpt><trkpt lat="33.8919796" lon="7.9814757"><ele>146.0</ele><time>2026-04-18T13:07:34.37Z</time></trkpt><trkpt lat="33.8920312" lon="7.9817205"><ele>146.0</ele><time>2026-04-18T13:07:35.364Z</time></trkpt><trkpt lat="33.8920823" lon="7.9819615"><ele>145.33333333333331</ele><time>2026-04-18T13:07:36.36Z</time></trkpt><trkpt lat="33.8921337" lon="7.9822"><ele>144.66666666666666</ele><time>2026-04-18T13:07:37.355Z</time></trkpt><trkpt lat="33.8921853" lon="7.9824365"><ele>144.0</ele><time>2026-04-18T13:07:38.361Z</time></trkpt><trkpt lat="33.8922357" lon="7.9826718"><ele>143.33333333333334</ele><time>2026-04-18T13:07:39.37Z</time></trkpt><trkpt lat="33.8922857" lon="7.9829077"><ele>142.66666666666669</ele><time>2026-04-18T13:07:40.355Z</time></trkpt><trkpt lat="33.8923363" lon="7.9831458"><ele>142.0</ele><time>2026-04-18T13:07:41.358Z</time></trkpt><trkpt lat="33.8923872" lon="7.9833848"><ele>142.0</ele><time>2026-04-18T13:07:42.36Z</time></trkpt><trkpt lat="33.892438" lon="7.9836251"><ele>142.0</ele><time>2026-04-18T13:07:43.353Z</time></trkpt><trkpt lat="33.8924882" lon="7.9838654"><ele>142.0</ele><time>2026-04-18T13:07:44.352Z</time></trkpt><trkpt lat="33.8925392" lon="7.9841072"><ele>142.33333333333334</ele><time>2026-04-18T13:07:45.359Z</time></trkpt><trkpt lat="33.8925917" lon="7.9843495"><ele>142.66666666666666</ele><time>2026-04-18T13:07:46.369Z</time></trkpt><trkpt lat="33.8926445" lon="7.9845906"><ele>143.0</ele><time>2026-04-18T13:07:47.366Z</time></trkpt><trkpt lat="33.8926969" lon="7.9848309"><ele>143.0</ele><time>2026-04-18T13:07:48.361Z</time></trkpt><trkpt lat="33.892749" lon="7.9850704"><ele>143.0</ele><time>2026-04-18T13:07:49.365Z</time></trkpt><trkpt lat="33.8928001" lon="7.985309"><ele>143.0</ele><time>2026-04-18T13:07:50.358Z</time></trkpt><trkpt lat="33.8928515" lon="7.9855472"><ele>143.0</ele><time>2026-04-18T13:07:51.367Z</time></trkpt><trkpt lat="33.8929021" lon="7.9857823"><ele>143.0</ele><time>2026-04-18T13:07:52.359Z</time></trkpt><trkpt lat="33.8929514" lon="7.9860135"><ele>143.0</ele><time>2026-04-18T13:07:53.36Z</time></trkpt><trkpt lat="33.8929998" lon="7.9862414"><ele>142.66666666666666</ele><time>2026-04-18T13:07:54.355Z</time></trkpt><trkpt lat="33.8930476" lon="7.9864666"><ele>142.33333333333334</ele><time>2026-04-18T13:07:55.388Z</time></trkpt><trkpt lat="33.8930952" lon="7.9866898"><ele>142.0</ele><time>2026-04-18T13:07:56.363Z</time></trkpt><trkpt lat="33.893143" lon="7.9869116"><ele>142.33333333333334</ele><time>2026-04-18T13:07:57.365Z</time></trkpt><trkpt lat="33.8931908" lon="7.9871334"><ele>142.66666666666666</ele><time>2026-04-18T13:07:58.358Z</time></trkpt><trkpt lat="33.8932389" lon="7.9873546"><ele>143.0</ele><time>2026-04-18T13:07:59.364Z</time></trkpt><trkpt lat="33.8932867" lon="7.9875756"><ele>143.0</ele><time>2026-04-18T13:08:00.373Z</time></trkpt><trkpt lat="33.8933334" lon="7.9877966"><ele>143.0</ele><time>2026-04-18T13:08:01.358Z</time></trkpt><trkpt lat="33.8933796" lon="7.9880179"><ele>143.0</ele><time>2026-04-18T13:08:02.356Z</time></trkpt><trkpt lat="33.893426" lon="7.988239"><ele>144.33333333333331</ele><time>2026-04-18T13:08:03.36Z</time></trkpt><trkpt lat="33.8934726" lon="7.9884599"><ele>145.66666666666666</ele><time>2026-04-18T13:08:04.359Z</time></trkpt><trkpt lat="33.8935194" lon="7.9886794"><ele>147.0</ele><time>2026-04-18T13:08:05.365Z</time></trkpt><trkpt lat="33.8935662" lon="7.988897"><ele>147.0</ele><time>2026-04-18T13:08:06.355Z</time></trkpt><trkpt lat="33.8936124" lon="7.989116"><ele>147.0</ele><time>2026-04-18T13:08:07.362Z</time></trkpt><trkpt lat="33.8936586" lon="7.9893368"><ele>147.0</ele><time>2026-04-18T13:08:08.355Z</time></trkpt><trkpt lat="33.8937058" lon="7.9895593"><ele>147.0</ele><time>2026-04-18T13:08:09.359Z</time></trkpt><trkpt lat="33.8937545" lon="7.9897849"><ele>147.0</ele><time>2026-04-18T13:08:10.354Z</time></trkpt><trkpt lat="33.893805" lon="7.990013"><ele>147.0</ele><time>2026-04-18T13:08:11.359Z</time></trkpt><trkpt lat="33.8938552" lon="7.9902435"><ele>147.33333333333334</ele><time>2026-04-18T13:08:12.353Z</time></trkpt><trkpt lat="33.8939047" lon="7.9904759"><ele>147.66666666666669</ele><time>2026-04-18T13:08:13.363Z</time></trkpt><trkpt lat="33.8939545" lon="7.9907066"><ele>148.0</ele><time>2026-04-18T13:08:14.361Z</time></trkpt><trkpt lat="33.8940054" lon="7.9909354"><ele>148.0</ele><time>2026-04-18T13:08:15.354Z</time></trkpt><trkpt lat="33.8940572" lon="7.9911628"><ele>148.0</ele><time>2026-04-18T13:08:16.353Z</time></trkpt><trkpt lat="33.894108" lon="7.9913876"><ele>148.0</ele><time>2026-04-18T13:08:17.361Z</time></trkpt><trkpt lat="33.8941559" lon="7.9916095"><ele>148.33333333333334</ele><time>2026-04-18T13:08:18.358Z</time></trkpt><trkpt lat="33.8942025" lon="7.991831"><ele>148.66666666666666</ele><time>2026-04-18T13:08:19.366Z</time></trkpt><trkpt lat="33.8942488" lon="7.9920527"><ele>149.0</ele><time>2026-04-18T13:08:20.356Z</time></trkpt><trkpt lat="33.8942949" lon="7.9922745"><ele>150.0</ele><time>2026-04-18T13:08:21.361Z</time></trkpt><trkpt lat="33.8943406" lon="7.9924956"><ele>151.0</ele><time>2026-04-18T13:08:22.353Z</time></trkpt><trkpt lat="33.8943872" lon="7.9927153"><ele>152.0</ele><time>2026-04-18T13:08:23.363Z</time></trkpt><trkpt lat="33.8944347" lon="7.992934"><ele>152.33333333333331</ele><time>2026-04-18T13:08:24.357Z</time></trkpt><trkpt lat="33.8944815" lon="7.993152"><ele>152.66666666666666</ele><time>2026-04-18T13:08:25.357Z</time></trkpt><trkpt lat="33.894527" lon="7.9933701"><ele>153.0</ele><time>2026-04-18T13:08:26.351Z</time></trkpt><trkpt lat="33.8945726" lon="7.9935878"><ele>153.0</ele><time>2026-04-18T13:08:27.357Z</time></trkpt><trkpt lat="33.8946194" lon="7.993805"><ele>153.0</ele><time>2026-04-18T13:08:28.354Z</time></trkpt><trkpt lat="33.894666" lon="7.9940223"><ele>153.0</ele><time>2026-04-18T13:08:29.354Z</time></trkpt><trkpt lat="33.8947124" lon="7.9942408"><ele>153.33333333333334</ele><time>2026-04-18T13:08:30.365Z</time></trkpt><trkpt lat="33.8947592" lon="7.9944605"><ele>153.66666666666669</ele><time>2026-04-18T13:08:31.359Z</time></trkpt><trkpt lat="33.8948063" lon="7.9946815"><ele>154.0</ele><time>2026-04-18T13:08:32.365Z</time></trkpt><trkpt lat="33.8948534" lon="7.9949042"><ele>153.33333333333334</ele><time>2026-04-18T13:08:33.356Z</time></trkpt><trkpt lat="33.8949001" lon="7.9951284"><ele>152.66666666666666</ele><time>2026-04-18T13:08:34.365Z</time></trkpt><trkpt lat="33.8949467" lon="7.9953539"><ele>152.0</ele><time>2026-04-18T13:08:35.353Z</time></trkpt><trkpt lat="33.8949947" lon="7.9955802"><ele>152.0</ele><time>2026-04-18T13:08:36.356Z</time></trkpt><trkpt lat="33.8950443" lon="7.9958072"><ele>152.0</ele><time>2026-04-18T13:08:37.363Z</time></trkpt><trkpt lat="33.8950936" lon="7.9960348"><ele>152.0</ele><time>2026-04-18T13:08:38.362Z</time></trkpt><trkpt lat="33.8951417" lon="7.9962626"><ele>152.33333333333331</ele><time>2026-04-18T13:08:39.369Z</time></trkpt><trkpt lat="33.8951892" lon="7.9964889"><ele>152.66666666666666</ele><time>2026-04-18T13:08:40.354Z</time></trkpt><trkpt lat="33.895237" lon="7.9967135"><ele>153.0</ele><time>2026-04-18T13:08:41.362Z</time></trkpt><trkpt lat="33.895285" lon="7.9969361"><ele>153.0</ele><time>2026-04-18T13:08:42.36Z</time></trkpt><trkpt lat="33.8953332" lon="7.9971579"><ele>153.0</ele><time>2026-04-18T13:08:43.357Z</time></trkpt><trkpt lat="33.8953809" lon="7.9973789"><ele>153.0</ele><time>2026-04-18T13:08:44.373Z</time></trkpt><trkpt lat="33.8954277" lon="7.9975968"><ele>153.0</ele><time>2026-04-18T13:08:45.363Z</time></trkpt><trkpt lat="33.8954735" lon="7.9978122"><ele>153.0</ele><time>2026-04-18T13:08:46.356Z</time></trkpt><trkpt lat="33.8955185" lon="7.9980257"><ele>153.0</ele><time>2026-04-18T13:08:47.376Z</time></trkpt><trkpt lat="33.895563" lon="7.9982374"><ele>153.66666666666666</ele><time>2026-04-18T13:08:48.375Z</time></trkpt><trkpt lat="33.8956073" lon="7.9984469"><ele>154.33333333333331</ele><time>2026-04-18T13:08:49.357Z</time></trkpt><trkpt lat="33.8956505" lon="7.9986549"><ele>155.0</ele><time>2026-04-18T13:08:50.361Z</time></trkpt><trkpt lat="33.8956931" lon="7.9988616"><ele>155.0</ele><time>2026-04-18T13:08:51.361Z</time></trkpt><trkpt lat="33.8957367" lon="7.9990684"><ele>155.0</ele><time>2026-04-18T13:08:52.364Z</time></trkpt><trkpt lat="33.8957821" lon="7.9992773"><ele>155.0</ele><time>2026-04-18T13:08:53.367Z</time></trkpt><trkpt lat="33.8958291" lon="7.9994891"><ele>154.66666666666666</ele><time>2026-04-18T13:08:54.357Z</time></trkpt><trkpt lat="33.8958756" lon="7.9997035"><ele>154.33333333333334</ele><time>2026-04-18T13:08:55.36Z</time></trkpt><trkpt lat="33.8959218" lon="7.9999205"><ele>154.0</ele><time>2026-04-18T13:08:56.363Z</time></trkpt><trkpt lat="33.895969" lon="8.0001397"><ele>154.66666666666669</ele><time>2026-04-18T13:08:57.363Z</time></trkpt><trkpt lat="33.8960173" lon="8.0003623"><ele>155.33333333333334</ele><time>2026-04-18T13:08:58.355Z</time></trkpt><trkpt lat="33.8960662" lon="8.000589"><ele>156.0</ele><time>2026-04-18T13:08:59.359Z</time></trkpt><trkpt lat="33.8961153" lon="8.0008171"><ele>155.66666666666666</ele><time>2026-04-18T13:09:00.366Z</time></trkpt><trkpt lat="33.8961646" lon="8.0010457"><ele>155.33333333333331</ele><time>2026-04-18T13:09:01.356Z</time></trkpt><trkpt lat="33.8962149" lon="8.0012747"><ele>155.0</ele><time>2026-04-18T13:09:02.355Z</time></trkpt><trkpt lat="33.8962652" lon="8.001504"><ele>154.66666666666666</ele><time>2026-04-18T13:09:03.357Z</time></trkpt><trkpt lat="33.8963144" lon="8.0017334"><ele>154.33333333333334</ele><time>2026-04-18T13:09:04.359Z</time></trkpt><trkpt lat="33.8963631" lon="8.0019603"><ele>154.0</ele><time>2026-04-18T13:09:05.364Z</time></trkpt><trkpt lat="33.8964116" lon="8.0021854"><ele>154.0</ele><time>2026-04-18T13:09:06.356Z</time></trkpt><trkpt lat="33.8964583" lon="8.0024082"><ele>154.0</ele><time>2026-04-18T13:09:07.363Z</time></trkpt><trkpt lat="33.8965054" lon="8.0026303"><ele>154.0</ele><time>2026-04-18T13:09:08.357Z</time></trkpt><trkpt lat="33.8965547" lon="8.0028524"><ele>154.33333333333334</ele><time>2026-04-18T13:09:09.355Z</time></trkpt><trkpt lat="33.8966045" lon="8.0030753"><ele>154.66666666666666</ele><time>2026-04-18T13:09:10.366Z</time></trkpt><trkpt lat="33.8966525" lon="8.0032997"><ele>155.0</ele><time>2026-04-18T13:09:11.365Z</time></trkpt><trkpt lat="33.8966997" lon="8.0035258"><ele>155.0</ele><time>2026-04-18T13:09:12.361Z</time></trkpt><trkpt lat="33.8967473" lon="8.0037529"><ele>155.0</ele><time>2026-04-18T13:09:13.37Z</time></trkpt><trkpt lat="33.8967943" lon="8.0039795"><ele>155.0</ele><time>2026-04-18T13:09:14.356Z</time></trkpt><trkpt lat="33.8968419" lon="8.0042075"><ele>155.33333333333331</ele><time>2026-04-18T13:09:15.36Z</time></trkpt><trkpt lat="33.8968903" lon="8.0044362"><ele>155.66666666666666</ele><time>2026-04-18T13:09:16.367Z</time></trkpt><trkpt lat="33.8969392" lon="8.0046649"><ele>156.0</ele><time>2026-04-18T13:09:17.363Z</time></trkpt><trkpt lat="33.8969881" lon="8.0048951"><ele>157.0</ele><time>2026-04-18T13:09:18.374Z</time></trkpt><trkpt lat="33.8970368" lon="8.0051271"><ele>158.0</ele><time>2026-04-18T13:09:19.366Z</time></trkpt><trkpt lat="33.8970856" lon="8.00536"><ele>159.0</ele><time>2026-04-18T13:09:20.363Z</time></trkpt><trkpt lat="33.8971356" lon="8.0055934"><ele>159.0</ele><time>2026-04-18T13:09:21.367Z</time></trkpt><trkpt lat="33.8971866" lon="8.0058262"><ele>159.0</ele><time>2026-04-18T13:09:22.363Z</time></trkpt><trkpt lat="33.8972383" lon="8.0060581"><ele>159.0</ele><time>2026-04-18T13:09:23.354Z</time></trkpt><trkpt lat="33.89729" lon="8.0062914"><ele>160.0</ele><time>2026-04-18T13:09:24.365Z</time></trkpt><trkpt lat="33.8973409" lon="8.006526"><ele>161.0</ele><time>2026-04-18T13:09:25.366Z</time></trkpt><trkpt lat="33.897391" lon="8.0067608"><ele>162.0</ele><time>2026-04-18T13:09:26.367Z</time></trkpt><trkpt lat="33.897441" lon="8.0069963"><ele>162.0</ele><time>2026-04-18T13:09:27.363Z</time></trkpt><trkpt lat="33.8974909" lon="8.0072322"><ele>162.0</ele><time>2026-04-18T13:09:28.361Z</time></trkpt><trkpt lat="33.8975404" lon="8.0074686"><ele>162.0</ele><time>2026-04-18T13:09:29.363Z</time></trkpt><trkpt lat="33.8975904" lon="8.0077066"><ele>162.0</ele><time>2026-04-18T13:09:30.369Z</time></trkpt><trkpt lat="33.8976404" lon="8.0079458"><ele>162.0</ele><time>2026-04-18T13:09:31.367Z</time></trkpt><trkpt lat="33.8976901" lon="8.0081854"><ele>162.0</ele><time>2026-04-18T13:09:32.36Z</time></trkpt><trkpt lat="33.8977412" lon="8.0084249"><ele>162.0</ele><time>2026-04-18T13:09:33.368Z</time></trkpt><trkpt lat="33.8977933" lon="8.0086639"><ele>162.0</ele><time>2026-04-18T13:09:34.366Z</time></trkpt><trkpt lat="33.8978446" lon="8.0089008"><ele>162.0</ele><time>2026-04-18T13:09:35.368Z</time></trkpt><trkpt lat="33.8978958" lon="8.0091347"><ele>162.0</ele><time>2026-04-18T13:09:36.357Z</time></trkpt><trkpt lat="33.897947" lon="8.0093666"><ele>162.0</ele><time>2026-04-18T13:09:37.368Z</time></trkpt><trkpt lat="33.8979976" lon="8.0095974"><ele>162.0</ele><time>2026-04-18T13:09:38.367Z</time></trkpt><trkpt lat="33.8980464" lon="8.0098251"><ele>162.0</ele><time>2026-04-18T13:09:39.369Z</time></trkpt><trkpt lat="33.898094" lon="8.0100506"><ele>162.0</ele><time>2026-04-18T13:09:40.363Z</time></trkpt><trkpt lat="33.8981419" lon="8.0102756"><ele>162.0</ele><time>2026-04-18T13:09:41.362Z</time></trkpt><trkpt lat="33.8981907" lon="8.0105007"><ele>162.0</ele><time>2026-04-18T13:09:42.362Z</time></trkpt><trkpt lat="33.8982384" lon="8.0107251"><ele>162.0</ele><time>2026-04-18T13:09:43.365Z</time></trkpt><trkpt lat="33.8982857" lon="8.0109511"><ele>162.0</ele><time>2026-04-18T13:09:44.366Z</time></trkpt><trkpt lat="33.8983333" lon="8.0111771"><ele>161.33333333333334</ele><time>2026-04-18T13:09:45.364Z</time></trkpt><trkpt lat="33.8983816" lon="8.0114032"><ele>160.66666666666669</ele><time>2026-04-18T13:09:46.36Z</time></trkpt><trkpt lat="33.8984311" lon="8.0116295"><ele>160.0</ele><time>2026-04-18T13:09:47.363Z</time></trkpt><trkpt lat="33.8984802" lon="8.011856"><ele>161.66666666666669</ele><time>2026-04-18T13:09:48.365Z</time></trkpt><trkpt lat="33.8985276" lon="8.0120815"><ele>163.33333333333334</ele><time>2026-04-18T13:09:49.364Z</time></trkpt><trkpt lat="33.8985736" lon="8.0123071"><ele>165.0</ele><time>2026-04-18T13:09:50.364Z</time></trkpt><trkpt lat="33.8986193" lon="8.0125333"><ele>165.0</ele><time>2026-04-18T13:09:51.374Z</time></trkpt><trkpt lat="33.8986664" lon="8.0127597"><ele>165.0</ele><time>2026-04-18T13:09:52.365Z</time></trkpt><trkpt lat="33.8987155" lon="8.0129857"><ele>165.0</ele><time>2026-04-18T13:09:53.371Z</time></trkpt><trkpt lat="33.8987658" lon="8.0132115"><ele>164.0</ele><time>2026-04-18T13:09:54.355Z</time></trkpt><trkpt lat="33.8988162" lon="8.0134362"><ele>163.0</ele><time>2026-04-18T13:09:55.355Z</time></trkpt><trkpt lat="33.8988644" lon="8.0136606"><ele>162.0</ele><time>2026-04-18T13:09:56.362Z</time></trkpt><trkpt lat="33.8989105" lon="8.0138864"><ele>162.0</ele><time>2026-04-18T13:09:57.357Z</time></trkpt><trkpt lat="33.8989564" lon="8.0141146"><ele>162.0</ele><time>2026-04-18T13:09:58.359Z</time></trkpt><trkpt lat="33.899004" lon="8.0143447"><ele>162.0</ele><time>2026-04-18T13:09:59.366Z</time></trkpt><trkpt lat="33.8990528" lon="8.014575"><ele>162.66666666666666</ele><time>2026-04-18T13:10:00.363Z</time></trkpt><trkpt lat="33.8991022" lon="8.014805"><ele>163.33333333333331</ele><time>2026-04-18T13:10:01.369Z</time></trkpt><trkpt lat="33.8991519" lon="8.0150345"><ele>164.0</ele><time>2026-04-18T13:10:02.361Z</time></trkpt><trkpt lat="33.8992014" lon="8.015266"><ele>164.0</ele><time>2026-04-18T13:10:03.355Z</time></trkpt><trkpt lat="33.8992504" lon="8.0154968"><ele>164.0</ele><time>2026-04-18T13:10:04.37Z</time></trkpt><trkpt lat="33.8992996" lon="8.0157252"><ele>164.0</ele><time>2026-04-18T13:10:05.359Z</time></trkpt><trkpt lat="33.8993491" lon="8.0159529"><ele>164.33333333333331</ele><time>2026-04-18T13:10:06.356Z</time></trkpt><trkpt lat="33.8993981" lon="8.0161809"><ele>164.66666666666666</ele><time>2026-04-18T13:10:07.359Z</time></trkpt><trkpt lat="33.8994458" lon="8.01641"><ele>165.0</ele><time>2026-04-18T13:10:08.365Z</time></trkpt><trkpt lat="33.8994932" lon="8.0166409"><ele>164.33333333333334</ele><time>2026-04-18T13:10:09.368Z</time></trkpt><trkpt lat="33.8995418" lon="8.0168715"><ele>163.66666666666669</ele><time>2026-04-18T13:10:10.37Z</time></trkpt><trkpt lat="33.8995923" lon="8.0171022"><ele>163.0</ele><time>2026-04-18T13:10:11.363Z</time></trkpt><trkpt lat="33.8996428" lon="8.0173337"><ele>163.0</ele><time>2026-04-18T13:10:12.36Z</time></trkpt><trkpt lat="33.8996935" lon="8.017568"><ele>163.0</ele><time>2026-04-18T13:10:13.362Z</time></trkpt><trkpt lat="33.8997448" lon="8.0178051"><ele>163.0</ele><time>2026-04-18T13:10:14.352Z</time></trkpt><trkpt lat="33.899796" lon="8.0180445"><ele>163.0</ele><time>2026-04-18T13:10:15.359Z</time></trkpt><trkpt lat="33.8998468" lon="8.0182841"><ele>163.0</ele><time>2026-04-18T13:10:16.364Z</time></trkpt><trkpt lat="33.8998981" lon="8.018524"><ele>163.0</ele><time>2026-04-18T13:10:17.354Z</time></trkpt><trkpt lat="33.8999495" lon="8.0187643"><ele>163.0</ele><time>2026-04-18T13:10:18.359Z</time></trkpt><trkpt lat="33.9000013" lon="8.0190059"><ele>163.0</ele><time>2026-04-18T13:10:19.359Z</time></trkpt><trkpt lat="33.9000526" lon="8.0192467"><ele>163.0</ele><time>2026-04-18T13:10:20.359Z</time></trkpt><trkpt lat="33.900104" lon="8.0194875"><ele>163.0</ele><time>2026-04-18T13:10:21.361Z</time></trkpt><trkpt lat="33.9001553" lon="8.0197285"><ele>163.0</ele><time>2026-04-18T13:10:22.357Z</time></trkpt><trkpt lat="33.9002062" lon="8.0199705"><ele>163.0</ele><time>2026-04-18T13:10:23.364Z</time></trkpt><trkpt lat="33.9002573" lon="8.0202138"><ele>163.66666666666669</ele><time>2026-04-18T13:10:24.366Z</time></trkpt><trkpt lat="33.9003074" lon="8.0204578"><ele>164.33333333333334</ele><time>2026-04-18T13:10:25.361Z</time></trkpt><trkpt lat="33.9003571" lon="8.0207011"><ele>165.0</ele><time>2026-04-18T13:10:26.371Z</time></trkpt><trkpt lat="33.9004067" lon="8.0209416"><ele>165.0</ele><time>2026-04-18T13:10:27.371Z</time></trkpt><trkpt lat="33.900457" lon="8.0211792"><ele>165.0</ele><time>2026-04-18T13:10:28.358Z</time></trkpt><trkpt lat="33.900508" lon="8.0214152"><ele>165.0</ele><time>2026-04-18T13:10:29.37Z</time></trkpt><trkpt lat="33.9005593" lon="8.0216517"><ele>164.0</ele><time>2026-04-18T13:10:30.364Z</time></trkpt><trkpt lat="33.9006113" lon="8.0218883"><ele>163.0</ele><time>2026-04-18T13:10:31.353Z</time></trkpt><trkpt lat="33.9006623" lon="8.0221244"><ele>162.0</ele><time>2026-04-18T13:10:32.362Z</time></trkpt><trkpt lat="33.9007129" lon="8.0223598"><ele>162.33333333333334</ele><time>2026-04-18T13:10:33.367Z</time></trkpt><trkpt lat="33.900764" lon="8.0225951"><ele>162.66666666666669</ele><time>2026-04-18T13:10:34.353Z</time></trkpt><trkpt lat="33.9008151" lon="8.0228291"><ele>163.0</ele><time>2026-04-18T13:10:35.369Z</time></trkpt><trkpt lat="33.9008661" lon="8.0230615"><ele>163.0</ele><time>2026-04-18T13:10:36.365Z</time></trkpt><trkpt lat="33.9009158" lon="8.0232934"><ele>163.0</ele><time>2026-04-18T13:10:37.375Z</time></trkpt><trkpt lat="33.9009645" lon="8.0235248"><ele>163.0</ele><time>2026-04-18T13:10:38.366Z</time></trkpt><trkpt lat="33.9010139" lon="8.0237563"><ele>163.66666666666669</ele><time>2026-04-18T13:10:39.356Z</time></trkpt><trkpt lat="33.9010645" lon="8.0239888"><ele>164.33333333333334</ele><time>2026-04-18T13:10:40.36Z</time></trkpt><trkpt lat="33.9011155" lon="8.0242222"><ele>165.0</ele><time>2026-04-18T13:10:41.368Z</time></trkpt><trkpt lat="33.9011657" lon="8.0244566"><ele>164.0</ele><time>2026-04-18T13:10:42.36Z</time></trkpt><trkpt lat="33.9012153" lon="8.0246881"><ele>163.0</ele><time>2026-04-18T13:10:43.366Z</time></trkpt><trkpt lat="33.9012657" lon="8.0249163"><ele>162.0</ele><time>2026-04-18T13:10:44.363Z</time></trkpt><trkpt lat="33.9013154" lon="8.0251422"><ele>162.0</ele><time>2026-04-18T13:10:45.368Z</time></trkpt><trkpt lat="33.9013637" lon="8.025366"><ele>162.0</ele><time>2026-04-18T13:10:46.37Z</time></trkpt><trkpt lat="33.9014117" lon="8.0255871"><ele>162.0</ele><time>2026-04-18T13:10:47.367Z</time></trkpt><trkpt lat="33.9014593" lon="8.0258069"><ele>161.66666666666666</ele><time>2026-04-18T13:10:48.365Z</time></trkpt><trkpt lat="33.9015061" lon="8.0260284"><ele>161.33333333333331</ele><time>2026-04-18T13:10:49.366Z</time></trkpt><trkpt lat="33.901552" lon="8.0262516"><ele>161.0</ele><time>2026-04-18T13:10:50.357Z</time></trkpt><trkpt lat="33.9015986" lon="8.0264748"><ele>160.0</ele><time>2026-04-18T13:10:51.36Z</time></trkpt><trkpt lat="33.9016469" lon="8.0266974"><ele>159.0</ele><time>2026-04-18T13:10:52.368Z</time></trkpt><trkpt lat="33.9016963" lon="8.026922"><ele>158.0</ele><time>2026-04-18T13:10:53.356Z</time></trkpt><trkpt lat="33.9017465" lon="8.0271492"><ele>157.66666666666666</ele><time>2026-04-18T13:10:54.368Z</time></trkpt><trkpt lat="33.9017962" lon="8.0273762"><ele>157.33333333333334</ele><time>2026-04-18T13:10:55.358Z</time></trkpt><trkpt lat="33.9018448" lon="8.0276035"><ele>157.0</ele><time>2026-04-18T13:10:56.355Z</time></trkpt><trkpt lat="33.9018932" lon="8.0278308"><ele>157.0</ele><time>2026-04-18T13:10:57.358Z</time></trkpt><trkpt lat="33.9019421" lon="8.02806"><ele>157.0</ele><time>2026-04-18T13:10:58.356Z</time></trkpt><trkpt lat="33.9019922" lon="8.0282925"><ele>157.0</ele><time>2026-04-18T13:10:59.355Z</time></trkpt><trkpt lat="33.9020433" lon="8.0285241"><ele>156.66666666666669</ele><time>2026-04-18T13:11:00.366Z</time></trkpt><trkpt lat="33.9020933" lon="8.0287451"><ele>156.33333333333334</ele><time>2026-04-18T13:11:01.362Z</time></trkpt><trkpt lat="33.9021425" lon="8.0289599"><ele>156.0</ele><time>2026-04-18T13:11:02.356Z</time></trkpt><trkpt lat="33.9021892" lon="8.0291753"><ele>156.0</ele><time>2026-04-18T13:11:03.363Z</time></trkpt><trkpt lat="33.9022361" lon="8.0293892"><ele>156.0</ele><time>2026-04-18T13:11:04.365Z</time></trkpt><trkpt lat="33.9022831" lon="8.0296079"><ele>156.0</ele><time>2026-04-18T13:11:05.39Z</time></trkpt><trkpt lat="33.9023289" lon="8.0298286"><ele>155.33333333333334</ele><time>2026-04-18T13:11:06.359Z</time></trkpt><trkpt lat="33.9023757" lon="8.0300597"><ele>154.66666666666669</ele><time>2026-04-18T13:11:07.367Z</time></trkpt><trkpt lat="33.9024238" lon="8.0302915"><ele>154.0</ele><time>2026-04-18T13:11:08.355Z</time></trkpt><trkpt lat="33.9024727" lon="8.0305266"><ele>154.0</ele><time>2026-04-18T13:11:09.362Z</time></trkpt><trkpt lat="33.9025195" lon="8.0307621"><ele>154.0</ele><time>2026-04-18T13:11:10.36Z</time></trkpt><trkpt lat="33.9025671" lon="8.0309971"><ele>154.0</ele><time>2026-04-18T13:11:11.356Z</time></trkpt><trkpt lat="33.9026166" lon="8.0312316"><ele>154.0</ele><time>2026-04-18T13:11:12.353Z</time></trkpt><trkpt lat="33.9026684" lon="8.0314674"><ele>154.0</ele><time>2026-04-18T13:11:13.365Z</time></trkpt><trkpt lat="33.9027202" lon="8.031702"><ele>154.0</ele><time>2026-04-18T13:11:14.353Z</time></trkpt><trkpt lat="33.9027719" lon="8.0319397"><ele>154.0</ele><time>2026-04-18T13:11:15.354Z</time></trkpt><trkpt lat="33.9028227" lon="8.0321783"><ele>154.0</ele><time>2026-04-18T13:11:16.353Z</time></trkpt><trkpt lat="33.9028745" lon="8.0324167"><ele>154.0</ele><time>2026-04-18T13:11:17.353Z</time></trkpt><trkpt lat="33.9029264" lon="8.0326556"><ele>153.66666666666669</ele><time>2026-04-18T13:11:18.365Z</time></trkpt><trkpt lat="33.9029771" lon="8.0328918"><ele>153.33333333333334</ele><time>2026-04-18T13:11:19.362Z</time></trkpt><trkpt lat="33.9030266" lon="8.0331257"><ele>153.0</ele><time>2026-04-18T13:11:20.349Z</time></trkpt><trkpt lat="33.9030766" lon="8.0333593"><ele>153.0</ele><time>2026-04-18T13:11:21.351Z</time></trkpt><trkpt lat="33.9031271" lon="8.03359"><ele>153.0</ele><time>2026-04-18T13:11:22.353Z</time></trkpt><trkpt lat="33.9031771" lon="8.0338178"><ele>153.0</ele><time>2026-04-18T13:11:23.362Z</time></trkpt><trkpt lat="33.9032248" lon="8.034039"><ele>153.0</ele><time>2026-04-18T13:11:24.356Z</time></trkpt><trkpt lat="33.9032709" lon="8.0342582"><ele>153.0</ele><time>2026-04-18T13:11:25.357Z</time></trkpt><trkpt lat="33.9033162" lon="8.0344743"><ele>153.0</ele><time>2026-04-18T13:11:26.355Z</time></trkpt><trkpt lat="33.9033609" lon="8.034688"><ele>153.0</ele><time>2026-04-18T13:11:27.36Z</time></trkpt><trkpt lat="33.903406" lon="8.0349028"><ele>153.0</ele><time>2026-04-18T13:11:28.352Z</time></trkpt><trkpt lat="33.9034526" lon="8.0351222"><ele>153.0</ele><time>2026-04-18T13:11:29.359Z</time></trkpt><trkpt lat="33.9035005" lon="8.0353422"><ele>153.0</ele><time>2026-04-18T13:11:30.347Z</time></trkpt><trkpt lat="33.9035493" lon="8.0355646"><ele>153.0</ele><time>2026-04-18T13:11:31.353Z</time></trkpt><trkpt lat="33.9035965" lon="8.0357862"><ele>153.0</ele><time>2026-04-18T13:11:32.359Z</time></trkpt><trkpt lat="33.9036429" lon="8.0360074"><ele>153.0</ele><time>2026-04-18T13:11:33.358Z</time></trkpt><trkpt lat="33.9036902" lon="8.0362289"><ele>153.0</ele><time>2026-04-18T13:11:34.353Z</time></trkpt><trkpt lat="33.9037377" lon="8.0364528"><ele>153.0</ele><time>2026-04-18T13:11:35.368Z</time></trkpt><trkpt lat="33.9037849" lon="8.0366753"><ele>153.33333333333334</ele><time>2026-04-18T13:11:36.36Z</time></trkpt><trkpt lat="33.9038331" lon="8.0369001"><ele>153.66666666666669</ele><time>2026-04-18T13:11:37.358Z</time></trkpt><trkpt lat="33.9038823" lon="8.0371275"><ele>154.0</ele><time>2026-04-18T13:11:38.372Z</time></trkpt><trkpt lat="33.9039316" lon="8.0373532"><ele>154.33333333333334</ele><time>2026-04-18T13:11:39.353Z</time></trkpt><trkpt lat="33.9039813" lon="8.0375766"><ele>154.66666666666666</ele><time>2026-04-18T13:11:40.359Z</time></trkpt><trkpt lat="33.9040297" lon="8.0377972"><ele>155.0</ele><time>2026-04-18T13:11:41.364Z</time></trkpt><trkpt lat="33.9040768" lon="8.0380145"><ele>155.0</ele><time>2026-04-18T13:11:42.357Z</time></trkpt><trkpt lat="33.9041229" lon="8.0382279"><ele>155.0</ele><time>2026-04-18T13:11:43.364Z</time></trkpt><trkpt lat="33.9041684" lon="8.0384384"><ele>155.0</ele><time>2026-04-18T13:11:44.355Z</time></trkpt><trkpt lat="33.904214" lon="8.0386482"><ele>156.0</ele><time>2026-04-18T13:11:45.372Z</time></trkpt><trkpt lat="33.9042589" lon="8.0388599"><ele>157.0</ele><time>2026-04-18T13:11:46.357Z</time></trkpt><trkpt lat="33.9043039" lon="8.039074"><ele>158.0</ele><time>2026-04-18T13:11:47.364Z</time></trkpt><trkpt lat="33.9043491" lon="8.0392901"><ele>158.33333333333331</ele><time>2026-04-18T13:11:48.366Z</time></trkpt><trkpt lat="33.9043931" lon="8.0395072"><ele>158.66666666666666</ele><time>2026-04-18T13:11:49.36Z</time></trkpt><trkpt lat="33.9044381" lon="8.0397247"><ele>159.0</ele><time>2026-04-18T13:11:50.354Z</time></trkpt><trkpt lat="33.9044845" lon="8.0399432"><ele>159.0</ele><time>2026-04-18T13:11:51.359Z</time></trkpt><trkpt lat="33.9045315" lon="8.0401612"><ele>159.0</ele><time>2026-04-18T13:11:52.353Z</time></trkpt><trkpt lat="33.9045781" lon="8.0403777"><ele>159.0</ele><time>2026-04-18T13:11:53.358Z</time></trkpt><trkpt lat="33.9046241" lon="8.0405917"><ele>158.66666666666666</ele><time>2026-04-18T13:11:54.362Z</time></trkpt><trkpt lat="33.9046699" lon="8.0408041"><ele>158.33333333333331</ele><time>2026-04-18T13:11:55.359Z</time></trkpt><trkpt lat="33.904715" lon="8.0410157"><ele>158.0</ele><time>2026-04-18T13:11:56.357Z</time></trkpt><trkpt lat="33.9047588" lon="8.0412275"><ele>158.0</ele><time>2026-04-18T13:11:57.358Z</time></trkpt><trkpt lat="33.9048033" lon="8.04144"><ele>158.0</ele><time>2026-04-18T13:11:58.356Z</time></trkpt><trkpt lat="33.9048487" lon="8.0416556"><ele>158.0</ele><time>2026-04-18T13:11:59.361Z</time></trkpt><trkpt lat="33.9048957" lon="8.0418744"><ele>157.66666666666666</ele><time>2026-04-18T13:12:00.369Z</time></trkpt><trkpt lat="33.9049443" lon="8.0420973"><ele>157.33333333333334</ele><time>2026-04-18T13:12:01.355Z</time></trkpt><trkpt lat="33.9049932" lon="8.0423255"><ele>157.0</ele><time>2026-04-18T13:12:02.36Z</time></trkpt><trkpt lat="33.9050415" lon="8.0425589"><ele>157.33333333333334</ele><time>2026-04-18T13:12:03.371Z</time></trkpt><trkpt lat="33.9050902" lon="8.0427968"><ele>157.66666666666666</ele><time>2026-04-18T13:12:04.385Z</time></trkpt><trkpt lat="33.9051405" lon="8.0430378"><ele>158.0</ele><time>2026-04-18T13:12:05.362Z</time></trkpt><trkpt lat="33.9051937" lon="8.0432814"><ele>158.33333333333331</ele><time>2026-04-18T13:12:06.356Z</time></trkpt><trkpt lat="33.9052497" lon="8.0435264"><ele>158.66666666666666</ele><time>2026-04-18T13:12:07.363Z</time></trkpt><trkpt lat="33.9053057" lon="8.0437746"><ele>159.0</ele><time>2026-04-18T13:12:08.359Z</time></trkpt><trkpt lat="33.9053606" lon="8.0440253"><ele>159.0</ele><time>2026-04-18T13:12:09.371Z</time></trkpt><trkpt lat="33.9054133" lon="8.0442778"><ele>159.0</ele><time>2026-04-18T13:12:10.365Z</time></trkpt><trkpt lat="33.9054647" lon="8.0445313"><ele>159.0</ele><time>2026-04-18T13:12:11.364Z</time></trkpt><trkpt lat="33.905517" lon="8.0447852"><ele>158.66666666666666</ele><time>2026-04-18T13:12:12.368Z</time></trkpt><trkpt lat="33.9055706" lon="8.045038"><ele>158.33333333333331</ele><time>2026-04-18T13:12:13.382Z</time></trkpt><trkpt lat="33.9056258" lon="8.0452902"><ele>158.0</ele><time>2026-04-18T13:12:14.368Z</time></trkpt><trkpt lat="33.9056817" lon="8.045543"><ele>157.66666666666666</ele><time>2026-04-18T13:12:15.369Z</time></trkpt><trkpt lat="33.9057372" lon="8.0457955"><ele>157.33333333333334</ele><time>2026-04-18T13:12:16.353Z</time></trkpt><trkpt lat="33.9057925" lon="8.0460471"><ele>157.0</ele><time>2026-04-18T13:12:17.37Z</time></trkpt><trkpt lat="33.9058465" lon="8.0462956"><ele>157.0</ele><time>2026-04-18T13:12:18.363Z</time></trkpt><trkpt lat="33.9058985" lon="8.0465407"><ele>157.0</ele><time>2026-04-18T13:12:19.369Z</time></trkpt><trkpt lat="33.9059488" lon="8.0467818"><ele>157.0</ele><time>2026-04-18T13:12:20.368Z</time></trkpt><trkpt lat="33.9059986" lon="8.0470182"><ele>157.33333333333334</ele><time>2026-04-18T13:12:21.373Z</time></trkpt><trkpt lat="33.906049" lon="8.0472499"><ele>157.66666666666666</ele><time>2026-04-18T13:12:22.358Z</time></trkpt><trkpt lat="33.9061005" lon="8.0474778"><ele>158.0</ele><time>2026-04-18T13:12:23.359Z</time></trkpt><trkpt lat="33.906151" lon="8.0477025"><ele>158.0</ele><time>2026-04-18T13:12:24.364Z</time></trkpt><trkpt lat="33.9061992" lon="8.0479258"><ele>158.0</ele><time>2026-04-18T13:12:25.367Z</time></trkpt><trkpt lat="33.9062473" lon="8.0481518"><ele>158.0</ele><time>2026-04-18T13:12:26.357Z</time></trkpt><trkpt lat="33.9062961" lon="8.0483732"><ele>158.33333333333331</ele><time>2026-04-18T13:12:27.361Z</time></trkpt><trkpt lat="33.9063448" lon="8.0485872"><ele>158.66666666666666</ele><time>2026-04-18T13:12:28.371Z</time></trkpt><trkpt lat="33.906393" lon="8.0487984"><ele>159.0</ele><time>2026-04-18T13:12:29.364Z</time></trkpt><trkpt lat="33.9064395" lon="8.0490075"><ele>158.66666666666666</ele><time>2026-04-18T13:12:30.361Z</time></trkpt><trkpt lat="33.9064851" lon="8.0492174"><ele>158.33333333333331</ele><time>2026-04-18T13:12:31.364Z</time></trkpt><trkpt lat="33.906531" lon="8.0494266"><ele>158.0</ele><time>2026-04-18T13:12:32.381Z</time></trkpt><trkpt lat="33.9065762" lon="8.0496312"><ele>158.0</ele><time>2026-04-18T13:12:33.35Z</time></trkpt><trkpt lat="33.9066201" lon="8.0498329"><ele>158.0</ele><time>2026-04-18T13:12:34.371Z</time></trkpt><trkpt lat="33.9066637" lon="8.0500312"><ele>158.0</ele><time>2026-04-18T13:12:35.358Z</time></trkpt><trkpt lat="33.9067068" lon="8.0502299"><ele>157.33333333333331</ele><time>2026-04-18T13:12:36.368Z</time></trkpt><trkpt lat="33.9067493" lon="8.0504313"><ele>156.66666666666666</ele><time>2026-04-18T13:12:37.369Z</time></trkpt><trkpt lat="33.906793" lon="8.0506347"><ele>156.0</ele><time>2026-04-18T13:12:38.36Z</time></trkpt><trkpt lat="33.9068376" lon="8.0508401"><ele>155.66666666666666</ele><time>2026-04-18T13:12:39.367Z</time></trkpt><trkpt lat="33.9068824" lon="8.0510498"><ele>155.33333333333331</ele><time>2026-04-18T13:12:40.365Z</time></trkpt><trkpt lat="33.906928" lon="8.0512612"><ele>155.0</ele><time>2026-04-18T13:12:41.369Z</time></trkpt><trkpt lat="33.9069747" lon="8.0514727"><ele>154.66666666666666</ele><time>2026-04-18T13:12:42.357Z</time></trkpt><trkpt lat="33.9070206" lon="8.0516859"><ele>154.33333333333334</ele><time>2026-04-18T13:12:43.367Z</time></trkpt><trkpt lat="33.9070648" lon="8.0519028"><ele>154.0</ele><time>2026-04-18T13:12:44.358Z</time></trkpt><trkpt lat="33.9071083" lon="8.0521225"><ele>154.0</ele><time>2026-04-18T13:12:45.36Z</time></trkpt><trkpt lat="33.907154" lon="8.052345"><ele>154.0</ele><time>2026-04-18T13:12:46.357Z</time></trkpt><trkpt lat="33.9072022" lon="8.0525689"><ele>154.0</ele><time>2026-04-18T13:12:47.36Z</time></trkpt><trkpt lat="33.9072512" lon="8.0527915"><ele>153.66666666666669</ele><time>2026-04-18T13:12:48.354Z</time></trkpt><trkpt lat="33.9072993" lon="8.053015"><ele>153.33333333333334</ele><time>2026-04-18T13:12:49.358Z</time></trkpt><trkpt lat="33.9073457" lon="8.0532404"><ele>153.0</ele><time>2026-04-18T13:12:50.356Z</time></trkpt><trkpt lat="33.9073919" lon="8.0534664"><ele>153.66666666666666</ele><time>2026-04-18T13:12:51.361Z</time></trkpt><trkpt lat="33.9074395" lon="8.0536947"><ele>154.33333333333331</ele><time>2026-04-18T13:12:52.359Z</time></trkpt><trkpt lat="33.9074885" lon="8.0539222"><ele>155.0</ele><time>2026-04-18T13:12:53.356Z</time></trkpt><trkpt lat="33.9075374" lon="8.0541502"><ele>154.0</ele><time>2026-04-18T13:12:54.364Z</time></trkpt><trkpt lat="33.9075863" lon="8.0543798"><ele>153.0</ele><time>2026-04-18T13:12:55.361Z</time></trkpt><trkpt lat="33.9076358" lon="8.0546081"><ele>152.0</ele><time>2026-04-18T13:12:56.353Z</time></trkpt><trkpt lat="33.9076853" lon="8.0548362"><ele>152.33333333333331</ele><time>2026-04-18T13:12:57.36Z</time></trkpt><trkpt lat="33.9077336" lon="8.0550617"><ele>152.66666666666666</ele><time>2026-04-18T13:12:58.361Z</time></trkpt><trkpt lat="33.9077815" lon="8.0552844"><ele>153.0</ele><time>2026-04-18T13:12:59.358Z</time></trkpt><trkpt lat="33.9078283" lon="8.0555045"><ele>153.0</ele><time>2026-04-18T13:13:00.357Z</time></trkpt><trkpt lat="33.9078747" lon="8.0557226"><ele>153.0</ele><time>2026-04-18T13:13:01.355Z</time></trkpt><trkpt lat="33.9079213" lon="8.055939"><ele>153.0</ele><time>2026-04-18T13:13:02.357Z</time></trkpt><trkpt lat="33.9079672" lon="8.0561547"><ele>153.66666666666666</ele><time>2026-04-18T13:13:03.356Z</time></trkpt><trkpt lat="33.9080121" lon="8.0563697"><ele>154.33333333333331</ele><time>2026-04-18T13:13:04.356Z</time></trkpt><trkpt lat="33.9080572" lon="8.0565832"><ele>155.0</ele><time>2026-04-18T13:13:05.36Z</time></trkpt><trkpt lat="33.9081031" lon="8.0567943"><ele>155.66666666666666</ele><time>2026-04-18T13:13:06.366Z</time></trkpt><trkpt lat="33.9081488" lon="8.0570029"><ele>156.33333333333334</ele><time>2026-04-18T13:13:07.359Z</time></trkpt><trkpt lat="33.9081908" lon="8.057211"><ele>157.0</ele><time>2026-04-18T13:13:08.363Z</time></trkpt><trkpt lat="33.908232" lon="8.0574201"><ele>157.0</ele><time>2026-04-18T13:13:09.359Z</time></trkpt><trkpt lat="33.9082746" lon="8.0576345"><ele>157.0</ele><time>2026-04-18T13:13:10.363Z</time></trkpt><trkpt lat="33.9083186" lon="8.0578553"><ele>157.0</ele><time>2026-04-18T13:13:11.352Z</time></trkpt><trkpt lat="33.9083655" lon="8.0580827"><ele>157.0</ele><time>2026-04-18T13:13:12.358Z</time></trkpt><trkpt lat="33.9084138" lon="8.0583143"><ele>157.0</ele><time>2026-04-18T13:13:13.355Z</time></trkpt><trkpt lat="33.9084628" lon="8.0585496"><ele>157.0</ele><time>2026-04-18T13:13:14.358Z</time></trkpt><trkpt lat="33.9085125" lon="8.058786"><ele>157.0</ele><time>2026-04-18T13:13:15.365Z</time></trkpt><trkpt lat="33.9085643" lon="8.0590234"><ele>157.0</ele><time>2026-04-18T13:13:16.356Z</time></trkpt><trkpt lat="33.9086174" lon="8.0592632"><ele>157.0</ele><time>2026-04-18T13:13:17.352Z</time></trkpt><trkpt lat="33.9086704" lon="8.0595054"><ele>156.66666666666669</ele><time>2026-04-18T13:13:18.356Z</time></trkpt><trkpt lat="33.9087233" lon="8.0597469"><ele>156.33333333333334</ele><time>2026-04-18T13:13:19.355Z</time></trkpt><trkpt lat="33.9087745" lon="8.059989"><ele>156.0</ele><time>2026-04-18T13:13:20.362Z</time></trkpt><trkpt lat="33.9088255" lon="8.060233"><ele>155.33333333333334</ele><time>2026-04-18T13:13:21.365Z</time></trkpt><trkpt lat="33.9088779" lon="8.0604775"><ele>154.66666666666669</ele><time>2026-04-18T13:13:22.356Z</time></trkpt><trkpt lat="33.9089313" lon="8.060723"><ele>154.0</ele><time>2026-04-18T13:13:23.361Z</time></trkpt><trkpt lat="33.9089847" lon="8.060969"><ele>153.66666666666669</ele><time>2026-04-18T13:13:24.361Z</time></trkpt><trkpt lat="33.909038" lon="8.0612148"><ele>153.33333333333334</ele><time>2026-04-18T13:13:25.361Z</time></trkpt><trkpt lat="33.9090908" lon="8.061461"><ele>153.0</ele><time>2026-04-18T13:13:26.36Z</time></trkpt><trkpt lat="33.9091435" lon="8.061708"><ele>152.66666666666666</ele><time>2026-04-18T13:13:27.364Z</time></trkpt><trkpt lat="33.9091965" lon="8.0619559"><ele>152.33333333333331</ele><time>2026-04-18T13:13:28.362Z</time></trkpt><trkpt lat="33.9092494" lon="8.0622067"><ele>152.0</ele><time>2026-04-18T13:13:29.359Z</time></trkpt><trkpt lat="33.9093032" lon="8.0624594"><ele>150.66666666666666</ele><time>2026-04-18T13:13:30.357Z</time></trkpt><trkpt lat="33.9093568" lon="8.0627133"><ele>149.33333333333334</ele><time>2026-04-18T13:13:31.356Z</time></trkpt><trkpt lat="33.9094105" lon="8.0629681"><ele>148.0</ele><time>2026-04-18T13:13:32.352Z</time></trkpt><trkpt lat="33.9094634" lon="8.0632206"><ele>147.66666666666669</ele><time>2026-04-18T13:13:33.351Z</time></trkpt><trkpt lat="33.9095155" lon="8.063469"><ele>147.33333333333334</ele><time>2026-04-18T13:13:34.359Z</time></trkpt><trkpt lat="33.909568" lon="8.0637155"><ele>147.0</ele><time>2026-04-18T13:13:35.357Z</time></trkpt><trkpt lat="33.9096204" lon="8.0639595"><ele>147.33333333333334</ele><time>2026-04-18T13:13:36.353Z</time></trkpt><trkpt lat="33.9096722" lon="8.064203"><ele>147.66666666666669</ele><time>2026-04-18T13:13:37.365Z</time></trkpt><trkpt lat="33.9097222" lon="8.0644462"><ele>148.0</ele><time>2026-04-18T13:13:38.356Z</time></trkpt><trkpt lat="33.909771" lon="8.064689"><ele>148.0</ele><time>2026-04-18T13:13:39.353Z</time></trkpt><trkpt lat="33.9098211" lon="8.0649314"><ele>148.0</ele><time>2026-04-18T13:13:40.35Z</time></trkpt><trkpt lat="33.9098732" lon="8.0651723"><ele>148.0</ele><time>2026-04-18T13:13:41.35Z</time></trkpt><trkpt lat="33.9099254" lon="8.0654123"><ele>147.66666666666669</ele><time>2026-04-18T13:13:42.349Z</time></trkpt><trkpt lat="33.9099765" lon="8.0656534"><ele>147.33333333333334</ele><time>2026-04-18T13:13:43.357Z</time></trkpt><trkpt lat="33.9100274" lon="8.065896"><ele>147.0</ele><time>2026-04-18T13:13:44.356Z</time></trkpt><trkpt lat="33.9100785" lon="8.0661404"><ele>147.0</ele><time>2026-04-18T13:13:45.353Z</time></trkpt><trkpt lat="33.9101304" lon="8.0663858"><ele>147.0</ele><time>2026-04-18T13:13:46.37Z</time></trkpt><trkpt lat="33.9101834" lon="8.0666315"><ele>147.0</ele><time>2026-04-18T13:13:47.35Z</time></trkpt><trkpt lat="33.9102371" lon="8.0668781"><ele>146.66666666666666</ele><time>2026-04-18T13:13:48.356Z</time></trkpt><trkpt lat="33.9102911" lon="8.0671259"><ele>146.33333333333331</ele><time>2026-04-18T13:13:49.358Z</time></trkpt><trkpt lat="33.9103453" lon="8.0673733"><ele>146.0</ele><time>2026-04-18T13:13:50.352Z</time></trkpt><trkpt lat="33.9104004" lon="8.0676212"><ele>146.0</ele><time>2026-04-18T13:13:51.353Z</time></trkpt><trkpt lat="33.9104564" lon="8.0678686"><ele>146.0</ele><time>2026-04-18T13:13:52.349Z</time></trkpt><trkpt lat="33.9105108" lon="8.0681159"><ele>146.0</ele><time>2026-04-18T13:13:53.358Z</time></trkpt><trkpt lat="33.9105633" lon="8.0683628"><ele>145.0</ele><time>2026-04-18T13:13:54.35Z</time></trkpt><trkpt lat="33.9106153" lon="8.0686087"><ele>144.0</ele><time>2026-04-18T13:13:55.354Z</time></trkpt><trkpt lat="33.9106672" lon="8.068853"><ele>143.0</ele><time>2026-04-18T13:13:56.348Z</time></trkpt><trkpt lat="33.9107191" lon="8.069094"><ele>143.0</ele><time>2026-04-18T13:13:57.353Z</time></trkpt><trkpt lat="33.9107704" lon="8.0693311"><ele>143.0</ele><time>2026-04-18T13:13:58.359Z</time></trkpt><trkpt lat="33.9108199" lon="8.0695665"><ele>143.0</ele><time>2026-04-18T13:13:59.352Z</time></trkpt><trkpt lat="33.9108682" lon="8.0698013"><ele>142.66666666666666</ele><time>2026-04-18T13:14:00.348Z</time></trkpt><trkpt lat="33.9109164" lon="8.0700337"><ele>142.33333333333334</ele><time>2026-04-18T13:14:01.355Z</time></trkpt><trkpt lat="33.9109653" lon="8.0702659"><ele>142.0</ele><time>2026-04-18T13:14:02.353Z</time></trkpt><trkpt lat="33.9110144" lon="8.0704979"><ele>142.0</ele><time>2026-04-18T13:14:03.351Z</time></trkpt><trkpt lat="33.9110636" lon="8.0707295"><ele>142.0</ele><time>2026-04-18T13:14:04.351Z</time></trkpt><trkpt lat="33.9111128" lon="8.0709634"><ele>142.0</ele><time>2026-04-18T13:14:05.351Z</time></trkpt><trkpt lat="33.9111622" lon="8.0711971"><ele>142.33333333333334</ele><time>2026-04-18T13:14:06.348Z</time></trkpt><trkpt lat="33.9112122" lon="8.0714305"><ele>142.66666666666666</ele><time>2026-04-18T13:14:07.353Z</time></trkpt><trkpt lat="33.9112613" lon="8.0716643"><ele>143.0</ele><time>2026-04-18T13:14:08.345Z</time></trkpt><trkpt lat="33.9113098" lon="8.0719014"><ele>142.33333333333331</ele><time>2026-04-18T13:14:09.346Z</time></trkpt><trkpt lat="33.911359" lon="8.0721406"><ele>141.66666666666666</ele><time>2026-04-18T13:14:10.353Z</time></trkpt><trkpt lat="33.9114097" lon="8.0723815"><ele>141.0</ele><time>2026-04-18T13:14:11.347Z</time></trkpt><trkpt lat="33.9114621" lon="8.0726239"><ele>141.0</ele><time>2026-04-18T13:14:12.36Z</time></trkpt><trkpt lat="33.9115149" lon="8.0728679"><ele>141.0</ele><time>2026-04-18T13:14:13.345Z</time></trkpt><trkpt lat="33.9115678" lon="8.0731137"><ele>141.0</ele><time>2026-04-18T13:14:14.346Z</time></trkpt><trkpt lat="33.9116206" lon="8.07336"><ele>141.0</ele><time>2026-04-18T13:14:15.349Z</time></trkpt><trkpt lat="33.911673" lon="8.0736073"><ele>141.0</ele><time>2026-04-18T13:14:16.345Z</time></trkpt><trkpt lat="33.9117252" lon="8.0738548"><ele>141.0</ele><time>2026-04-18T13:14:17.347Z</time></trkpt><trkpt lat="33.911778" lon="8.0741031"><ele>141.33333333333334</ele><time>2026-04-18T13:14:18.345Z</time></trkpt><trkpt lat="33.9118309" lon="8.0743515"><ele>141.66666666666669</ele><time>2026-04-18T13:14:19.352Z</time></trkpt><trkpt lat="33.9118837" lon="8.0746008"><ele>142.0</ele><time>2026-04-18T13:14:20.345Z</time></trkpt><trkpt lat="33.9119368" lon="8.0748503"><ele>141.66666666666669</ele><time>2026-04-18T13:14:21.344Z</time></trkpt><trkpt lat="33.91199" lon="8.0750983"><ele>141.33333333333334</ele><time>2026-04-18T13:14:22.346Z</time></trkpt><trkpt lat="33.912043" lon="8.0753446"><ele>141.0</ele><time>2026-04-18T13:14:23.349Z</time></trkpt><trkpt lat="33.9120954" lon="8.0755869"><ele>141.0</ele><time>2026-04-18T13:14:24.346Z</time></trkpt><trkpt lat="33.9121461" lon="8.0758256"><ele>141.0</ele><time>2026-04-18T13:14:25.349Z</time></trkpt><trkpt lat="33.912196" lon="8.0760617"><ele>141.0</ele><time>2026-04-18T13:14:26.348Z</time></trkpt><trkpt lat="33.9122457" lon="8.0762961"><ele>141.0</ele><time>2026-04-18T13:14:27.348Z</time></trkpt><trkpt lat="33.9122951" lon="8.0765295"><ele>141.0</ele><time>2026-04-18T13:14:28.364Z</time></trkpt><trkpt lat="33.9123448" lon="8.0767629"><ele>141.0</ele><time>2026-04-18T13:14:29.345Z</time></trkpt><trkpt lat="33.9123951" lon="8.076998"><ele>140.33333333333334</ele><time>2026-04-18T13:14:30.346Z</time></trkpt><trkpt lat="33.9124457" lon="8.0772351"><ele>139.66666666666669</ele><time>2026-04-18T13:14:31.347Z</time></trkpt><trkpt lat="33.9124959" lon="8.0774747"><ele>139.0</ele><time>2026-04-18T13:14:32.348Z</time></trkpt><trkpt lat="33.912546" lon="8.0777169"><ele>139.0</ele><time>2026-04-18T13:14:33.345Z</time></trkpt><trkpt lat="33.9125965" lon="8.0779606"><ele>139.0</ele><time>2026-04-18T13:14:34.348Z</time></trkpt><trkpt lat="33.9126465" lon="8.0782041"><ele>139.0</ele><time>2026-04-18T13:14:35.346Z</time></trkpt><trkpt lat="33.9126966" lon="8.0784474"><ele>137.66666666666669</ele><time>2026-04-18T13:14:36.345Z</time></trkpt><trkpt lat="33.9127477" lon="8.0786914"><ele>136.33333333333334</ele><time>2026-04-18T13:14:37.351Z</time></trkpt><trkpt lat="33.9127994" lon="8.0789374"><ele>135.0</ele><time>2026-04-18T13:14:38.353Z</time></trkpt><trkpt lat="33.9128516" lon="8.0791868"><ele>134.66666666666666</ele><time>2026-04-18T13:14:39.359Z</time></trkpt><trkpt lat="33.912904" lon="8.0794377"><ele>134.33333333333331</ele><time>2026-04-18T13:14:40.34Z</time></trkpt><trkpt lat="33.9129568" lon="8.0796898"><ele>134.0</ele><time>2026-04-18T13:14:41.345Z</time></trkpt><trkpt lat="33.9130096" lon="8.0799417"><ele>133.33333333333331</ele><time>2026-04-18T13:14:42.345Z</time></trkpt><trkpt lat="33.9130627" lon="8.0801923"><ele>132.66666666666666</ele><time>2026-04-18T13:14:43.345Z</time></trkpt><trkpt lat="33.9131166" lon="8.0804418"><ele>132.0</ele><time>2026-04-18T13:14:44.342Z</time></trkpt><trkpt lat="33.9131702" lon="8.0806912"><ele>131.33333333333334</ele><time>2026-04-18T13:14:45.347Z</time></trkpt><trkpt lat="33.9132224" lon="8.08094"><ele>130.66666666666669</ele><time>2026-04-18T13:14:46.352Z</time></trkpt><trkpt lat="33.9132742" lon="8.0811865"><ele>130.0</ele><time>2026-04-18T13:14:47.351Z</time></trkpt><trkpt lat="33.913326" lon="8.0814326"><ele>130.0</ele><time>2026-04-18T13:14:48.348Z</time></trkpt><trkpt lat="33.9133787" lon="8.0816791"><ele>130.0</ele><time>2026-04-18T13:14:49.349Z</time></trkpt><trkpt lat="33.9134322" lon="8.0819252"><ele>130.0</ele><time>2026-04-18T13:14:50.346Z</time></trkpt><trkpt lat="33.9134846" lon="8.0821679"><ele>130.0</ele><time>2026-04-18T13:14:51.351Z</time></trkpt><trkpt lat="33.9135357" lon="8.0824065"><ele>130.0</ele><time>2026-04-18T13:14:52.363Z</time></trkpt><trkpt lat="33.9135865" lon="8.0826424"><ele>130.0</ele><time>2026-04-18T13:14:53.346Z</time></trkpt><trkpt lat="33.9136351" lon="8.0828722"><ele>128.66666666666669</ele><time>2026-04-18T13:14:54.351Z</time></trkpt><trkpt lat="33.9136813" lon="8.083099"><ele>127.33333333333334</ele><time>2026-04-18T13:14:55.352Z</time></trkpt><trkpt lat="33.913727" lon="8.0833229"><ele>126.0</ele><time>2026-04-18T13:14:56.35Z</time></trkpt><trkpt lat="33.9137725" lon="8.0835455"><ele>125.66666666666666</ele><time>2026-04-18T13:14:57.359Z</time></trkpt><trkpt lat="33.913819" lon="8.0837673"><ele>125.33333333333333</ele><time>2026-04-18T13:14:58.35Z</time></trkpt><trkpt lat="33.9138658" lon="8.0839885"><ele>125.0</ele><time>2026-04-18T13:14:59.354Z</time></trkpt><trkpt lat="33.9139125" lon="8.0842081"><ele>123.66666666666666</ele><time>2026-04-18T13:15:00.354Z</time></trkpt><trkpt lat="33.9139584" lon="8.0844235"><ele>122.33333333333334</ele><time>2026-04-18T13:15:01.352Z</time></trkpt><trkpt lat="33.9140039" lon="8.0846333"><ele>121.0</ele><time>2026-04-18T13:15:02.352Z</time></trkpt><trkpt lat="33.9140485" lon="8.0848396"><ele>120.66666666666667</ele><time>2026-04-18T13:15:03.352Z</time></trkpt><trkpt lat="33.9140923" lon="8.0850471"><ele>120.33333333333334</ele><time>2026-04-18T13:15:04.349Z</time></trkpt><trkpt lat="33.9141356" lon="8.0852572"><ele>120.0</ele><time>2026-04-18T13:15:05.346Z</time></trkpt><trkpt lat="33.9141794" lon="8.0854668"><ele>120.0</ele><time>2026-04-18T13:15:06.346Z</time></trkpt><trkpt lat="33.9142233" lon="8.0856758"><ele>120.0</ele><time>2026-04-18T13:15:07.347Z</time></trkpt><trkpt lat="33.9142668" lon="8.085884"><ele>120.0</ele><time>2026-04-18T13:15:08.352Z</time></trkpt><trkpt lat="33.9143109" lon="8.08609"><ele>121.0</ele><time>2026-04-18T13:15:09.345Z</time></trkpt><trkpt lat="33.9143555" lon="8.0862932"><ele>122.0</ele><time>2026-04-18T13:15:10.353Z</time></trkpt><trkpt lat="33.9143983" lon="8.0864934"><ele>123.0</ele><time>2026-04-18T13:15:11.345Z</time></trkpt><trkpt lat="33.9144394" lon="8.086691"><ele>123.0</ele><time>2026-04-18T13:15:12.364Z</time></trkpt><trkpt lat="33.9144788" lon="8.0868854"><ele>123.0</ele><time>2026-04-18T13:15:13.35Z</time></trkpt><trkpt lat="33.9145159" lon="8.0870711"><ele>123.0</ele><time>2026-04-18T13:15:14.354Z</time></trkpt><trkpt lat="33.9145516" lon="8.0872461"><ele>123.0</ele><time>2026-04-18T13:15:15.35Z</time></trkpt><trkpt lat="33.9145853" lon="8.087409"><ele>123.0</ele><time>2026-04-18T13:15:16.355Z</time></trkpt><trkpt lat="33.9146167" lon="8.0875577"><ele>123.0</ele><time>2026-04-18T13:15:17.369Z</time></trkpt><trkpt lat="33.9146432" lon="8.0876936"><ele>123.0</ele><time>2026-04-18T13:15:18.346Z</time></trkpt><trkpt lat="33.9146641" lon="8.0878207"><ele>123.0</ele><time>2026-04-18T13:15:19.354Z</time></trkpt><trkpt lat="33.914677" lon="8.0879442"><ele>123.00000000000001</ele><time>2026-04-18T13:15:20.359Z</time></trkpt><trkpt lat="33.9146791" lon="8.0880673"><ele>123.00000000000001</ele><time>2026-04-18T13:15:21.355Z</time></trkpt><trkpt lat="33.914677" lon="8.0881863"><ele>123.0</ele><time>2026-04-18T13:15:22.353Z</time></trkpt><trkpt lat="33.9146841" lon="8.0882964"><ele>123.0</ele><time>2026-04-18T13:15:23.349Z</time></trkpt><trkpt lat="33.9147083" lon="8.0883997"><ele>123.0</ele><time>2026-04-18T13:15:24.346Z</time></trkpt><trkpt lat="33.9147522" lon="8.088505"><ele>123.0</ele><time>2026-04-18T13:15:25.356Z</time></trkpt><trkpt lat="33.9148049" lon="8.0886236"><ele>123.0</ele><time>2026-04-18T13:15:26.357Z</time></trkpt><trkpt lat="33.9148544" lon="8.0887614"><ele>123.0</ele><time>2026-04-18T13:15:27.359Z</time></trkpt><trkpt lat="33.9148971" lon="8.088913"><ele>123.0</ele><time>2026-04-18T13:15:28.358Z</time></trkpt><trkpt lat="33.9149355" lon="8.0890734"><ele>123.0</ele><time>2026-04-18T13:15:29.352Z</time></trkpt><trkpt lat="33.9149723" lon="8.0892425"><ele>123.0</ele><time>2026-04-18T13:15:30.362Z</time></trkpt><trkpt lat="33.915011" lon="8.0894232"><ele>123.0</ele><time>2026-04-18T13:15:31.354Z</time></trkpt><trkpt lat="33.9150484" lon="8.0895971"><ele>122.5</ele><time>2026-04-18T13:15:32.356Z</time></trkpt><trkpt lat="33.9150843" lon="8.0897624"><ele>122.0</ele><time>2026-04-18T13:15:33.349Z</time></trkpt><trkpt lat="33.9151198" lon="8.0899289"><ele>121.5</ele><time>2026-04-18T13:15:34.35Z</time></trkpt><trkpt lat="33.9151579" lon="8.0901091"><ele>121.0</ele><time>2026-04-18T13:15:35.36Z</time></trkpt><trkpt lat="33.9151991" lon="8.0903065"><ele>121.0</ele><time>2026-04-18T13:15:36.364Z</time></trkpt><trkpt lat="33.9152433" lon="8.090517"><ele>121.0</ele><time>2026-04-18T13:15:37.364Z</time></trkpt><trkpt lat="33.9152903" lon="8.0907372"><ele>121.0</ele><time>2026-04-18T13:15:38.359Z</time></trkpt><trkpt lat="33.9153347" lon="8.0909476"><ele>121.33333333333334</ele><time>2026-04-18T13:15:39.357Z</time></trkpt><trkpt lat="33.9153776" lon="8.0911501"><ele>121.66666666666666</ele><time>2026-04-18T13:15:40.356Z</time></trkpt><trkpt lat="33.9154227" lon="8.0913576"><ele>122.0</ele><time>2026-04-18T13:15:41.356Z</time></trkpt><trkpt lat="33.9154673" lon="8.09157"><ele>120.66666666666666</ele><time>2026-04-18T13:15:42.371Z</time></trkpt><trkpt lat="33.9155096" lon="8.0917827"><ele>119.33333333333334</ele><time>2026-04-18T13:15:43.354Z</time></trkpt><trkpt lat="33.9155519" lon="8.0919956"><ele>118.0</ele><time>2026-04-18T13:15:44.356Z</time></trkpt><trkpt lat="33.9155947" lon="8.0922109"><ele>117.0</ele><time>2026-04-18T13:15:45.351Z</time></trkpt><trkpt lat="33.9156392" lon="8.0924268"><ele>116.0</ele><time>2026-04-18T13:15:46.364Z</time></trkpt><trkpt lat="33.9156861" lon="8.0926453"><ele>115.0</ele><time>2026-04-18T13:15:47.352Z</time></trkpt><trkpt lat="33.9157334" lon="8.0928643"><ele>115.0</ele><time>2026-04-18T13:15:48.35Z</time></trkpt><trkpt lat="33.91578" lon="8.0930841"><ele>115.0</ele><time>2026-04-18T13:15:49.355Z</time></trkpt><trkpt lat="33.9158267" lon="8.0933046"><ele>115.0</ele><time>2026-04-18T13:15:50.368Z</time></trkpt><trkpt lat="33.9158744" lon="8.093527"><ele>114.66666666666667</ele><time>2026-04-18T13:15:51.352Z</time></trkpt><trkpt lat="33.9159237" lon="8.093753"><ele>114.33333333333334</ele><time>2026-04-18T13:15:52.352Z</time></trkpt><trkpt lat="33.9159729" lon="8.0939803"><ele>114.0</ele><time>2026-04-18T13:15:53.358Z</time></trkpt><trkpt lat="33.916021" lon="8.09421"><ele>113.0</ele><time>2026-04-18T13:15:54.356Z</time></trkpt><trkpt lat="33.9160699" lon="8.0944417"><ele>112.0</ele><time>2026-04-18T13:15:55.357Z</time></trkpt><trkpt lat="33.9161201" lon="8.0946765"><ele>111.0</ele><time>2026-04-18T13:15:56.349Z</time></trkpt><trkpt lat="33.9161699" lon="8.0949154"><ele>110.0</ele><time>2026-04-18T13:15:57.358Z</time></trkpt><trkpt lat="33.9162202" lon="8.0951583"><ele>109.0</ele><time>2026-04-18T13:15:58.349Z</time></trkpt><trkpt lat="33.9162711" lon="8.0953968"><ele>108.0</ele><time>2026-04-18T13:15:59.351Z</time></trkpt><trkpt lat="33.916323" lon="8.0956324"><ele>107.66666666666666</ele><time>2026-04-18T13:16:00.356Z</time></trkpt><trkpt lat="33.9163736" lon="8.0958663"><ele>107.33333333333333</ele><time>2026-04-18T13:16:01.347Z</time></trkpt><trkpt lat="33.916424" lon="8.0960983"><ele>107.0</ele><time>2026-04-18T13:16:02.361Z</time></trkpt><trkpt lat="33.9164745" lon="8.0963305"><ele>107.0</ele><time>2026-04-18T13:16:03.347Z</time></trkpt><trkpt lat="33.9165247" lon="8.0965646"><ele>107.0</ele><time>2026-04-18T13:16:04.355Z</time></trkpt><trkpt lat="33.9165755" lon="8.0968007"><ele>107.0</ele><time>2026-04-18T13:16:05.365Z</time></trkpt><trkpt lat="33.9166264" lon="8.0970398"><ele>106.33333333333333</ele><time>2026-04-18T13:16:06.355Z</time></trkpt><trkpt lat="33.9166782" lon="8.09728"><ele>105.66666666666666</ele><time>2026-04-18T13:16:07.354Z</time></trkpt><trkpt lat="33.9167301" lon="8.0975169"><ele>105.0</ele><time>2026-04-18T13:16:08.349Z</time></trkpt><trkpt lat="33.9167823" lon="8.0977508"><ele>105.0</ele><time>2026-04-18T13:16:09.359Z</time></trkpt><trkpt lat="33.9168333" lon="8.0979827"><ele>105.0</ele><time>2026-04-18T13:16:10.351Z</time></trkpt><trkpt lat="33.9168825" lon="8.0982134"><ele>105.0</ele><time>2026-04-18T13:16:11.353Z</time></trkpt><trkpt lat="33.9169317" lon="8.098444"><ele>104.0</ele><time>2026-04-18T13:16:12.352Z</time></trkpt><trkpt lat="33.9169815" lon="8.0986752"><ele>103.0</ele><time>2026-04-18T13:16:13.38Z</time></trkpt><trkpt lat="33.9170305" lon="8.0989076"><ele>102.0</ele><time>2026-04-18T13:16:14.355Z</time></trkpt><trkpt lat="33.9170796" lon="8.099139"><ele>101.66666666666666</ele><time>2026-04-18T13:16:15.347Z</time></trkpt><trkpt lat="33.9171297" lon="8.0993688"><ele>101.33333333333333</ele><time>2026-04-18T13:16:16.349Z</time></trkpt><trkpt lat="33.9171793" lon="8.0995969"><ele>101.0</ele><time>2026-04-18T13:16:17.352Z</time></trkpt><trkpt lat="33.9172278" lon="8.0998209"><ele>100.0</ele><time>2026-04-18T13:16:18.349Z</time></trkpt><trkpt lat="33.9172752" lon="8.1000427"><ele>99.0</ele><time>2026-04-18T13:16:19.348Z</time></trkpt><trkpt lat="33.9173221" lon="8.100263"><ele>98.0</ele><time>2026-04-18T13:16:20.35Z</time></trkpt><trkpt lat="33.9173693" lon="8.1004811"><ele>98.0</ele><time>2026-04-18T13:16:21.402Z</time></trkpt><trkpt lat="33.9174175" lon="8.1006965"><ele>98.0</ele><time>2026-04-18T13:16:22.355Z</time></trkpt><trkpt lat="33.9174653" lon="8.1009097"><ele>98.0</ele><time>2026-04-18T13:16:23.352Z</time></trkpt><trkpt lat="33.9175118" lon="8.1011224"><ele>98.0</ele><time>2026-04-18T13:16:24.353Z</time></trkpt><trkpt lat="33.9175568" lon="8.101336"><ele>98.0</ele><time>2026-04-18T13:16:25.352Z</time></trkpt><trkpt lat="33.9176006" lon="8.1015516"><ele>98.0</ele><time>2026-04-18T13:16:26.351Z</time></trkpt><trkpt lat="33.9176437" lon="8.1017716"><ele>97.33333333333333</ele><time>2026-04-18T13:16:27.35Z</time></trkpt><trkpt lat="33.9176887" lon="8.1019942"><ele>96.66666666666666</ele><time>2026-04-18T13:16:28.368Z</time></trkpt><trkpt lat="33.9177357" lon="8.1022168"><ele>96.0</ele><time>2026-04-18T13:16:29.356Z</time></trkpt><trkpt lat="33.9177839" lon="8.1024391"><ele>96.0</ele><time>2026-04-18T13:16:30.362Z</time></trkpt><trkpt lat="33.9178323" lon="8.1026614"><ele>96.0</ele><time>2026-04-18T13:16:31.358Z</time></trkpt><trkpt lat="33.9178803" lon="8.1028834"><ele>96.0</ele><time>2026-04-18T13:16:32.357Z</time></trkpt><trkpt lat="33.9179264" lon="8.1031034"><ele>95.0</ele><time>2026-04-18T13:16:33.357Z</time></trkpt><trkpt lat="33.9179718" lon="8.1033199"><ele>94.0</ele><time>2026-04-18T13:16:34.364Z</time></trkpt><trkpt lat="33.9180169" lon="8.1035329"><ele>93.0</ele><time>2026-04-18T13:16:35.357Z</time></trkpt><trkpt lat="33.9180613" lon="8.1037434"><ele>93.0</ele><time>2026-04-18T13:16:36.358Z</time></trkpt><trkpt lat="33.9181051" lon="8.1039513"><ele>93.0</ele><time>2026-04-18T13:16:37.357Z</time></trkpt><trkpt lat="33.9181489" lon="8.1041496"><ele>93.0</ele><time>2026-04-18T13:16:38.35Z</time></trkpt><trkpt lat="33.9181875" lon="8.1043245"><ele>92.75</ele><time>2026-04-18T13:16:39.37Z</time></trkpt><trkpt lat="33.9182201" lon="8.1044758"><ele>92.5</ele><time>2026-04-18T13:16:40.357Z</time></trkpt><trkpt lat="33.9182903" lon="8.104609"><ele>92.25</ele><time>2026-04-18T13:16:42.361Z</time></trkpt><trkpt lat="33.9183275" lon="8.1047365"><ele>92.0</ele><time>2026-04-18T13:16:43.347Z</time></trkpt><trkpt lat="33.9183604" lon="8.1048749"><ele>91.8</ele><time>2026-04-18T13:16:44.356Z</time></trkpt><trkpt lat="33.9183898" lon="8.1050082"><ele>91.6</ele><time>2026-04-18T13:16:45.352Z</time></trkpt><trkpt lat="33.9184203" lon="8.1051363"><ele>91.39999999999999</ele><time>2026-04-18T13:16:46.357Z</time></trkpt><trkpt lat="33.918452" lon="8.1052561"><ele>91.19999999999999</ele><time>2026-04-18T13:16:47.353Z</time></trkpt><trkpt lat="33.918483" lon="8.1053691"><ele>91.0</ele><time>2026-04-18T13:16:48.362Z</time></trkpt><trkpt lat="33.9185121" lon="8.1054817"><ele>91.4</ele><time>2026-04-18T13:16:49.349Z</time></trkpt><trkpt lat="33.9185417" lon="8.1055939"><ele>91.8</ele><time>2026-04-18T13:16:50.353Z</time></trkpt><trkpt lat="33.9185692" lon="8.1057087"><ele>92.2</ele><time>2026-04-18T13:16:51.357Z</time></trkpt><trkpt lat="33.918597" lon="8.1058303"><ele>92.60000000000001</ele><time>2026-04-18T13:16:52.355Z</time></trkpt><trkpt lat="33.9186208" lon="8.1059584"><ele>93.0</ele><time>2026-04-18T13:16:53.364Z</time></trkpt><trkpt lat="33.9186453" lon="8.1060851"><ele>93.0</ele><time>2026-04-18T13:16:54.353Z</time></trkpt><trkpt lat="33.9186698" lon="8.1062132"><ele>93.0</ele><time>2026-04-18T13:16:55.348Z</time></trkpt><trkpt lat="33.9186955" lon="8.1063453"><ele>93.0</ele><time>2026-04-18T13:16:56.349Z</time></trkpt><trkpt lat="33.9187217" lon="8.1064765"><ele>93.0</ele><time>2026-04-18T13:16:57.352Z</time></trkpt><trkpt lat="33.9187484" lon="8.1066085"><ele>93.0</ele><time>2026-04-18T13:16:58.359Z</time></trkpt><trkpt lat="33.9187749" lon="8.1067421"><ele>92.75</ele><time>2026-04-18T13:16:59.346Z</time></trkpt><trkpt lat="33.918801" lon="8.1068757"><ele>92.5</ele><time>2026-04-18T13:17:00.377Z</time></trkpt><trkpt lat="33.9188299" lon="8.1070096"><ele>92.25</ele><time>2026-04-18T13:17:01.361Z</time></trkpt><trkpt lat="33.9188559" lon="8.1071406"><ele>92.0</ele><time>2026-04-18T13:17:02.353Z</time></trkpt><trkpt lat="33.9188817" lon="8.1072715"><ele>92.0</ele><time>2026-04-18T13:17:03.357Z</time></trkpt><trkpt lat="33.9189081" lon="8.1074007"><ele>92.0</ele><time>2026-04-18T13:17:04.355Z</time></trkpt><trkpt lat="33.9189353" lon="8.1075271"><ele>92.0</ele><time>2026-04-18T13:17:05.354Z</time></trkpt><trkpt lat="33.9189631" lon="8.1076486"><ele>92.0</ele><time>2026-04-18T13:17:06.365Z</time></trkpt><trkpt lat="33.9189885" lon="8.1077694"><ele>92.0</ele><time>2026-04-18T13:17:07.355Z</time></trkpt><trkpt lat="33.9190124" lon="8.1078884"><ele>91.6</ele><time>2026-04-18T13:17:08.355Z</time></trkpt><trkpt lat="33.919036" lon="8.108006"><ele>91.19999999999999</ele><time>2026-04-18T13:17:09.352Z</time></trkpt><trkpt lat="33.91906" lon="8.1081163"><ele>90.8</ele><time>2026-04-18T13:17:10.352Z</time></trkpt><trkpt lat="33.9190806" lon="8.1082185"><ele>90.4</ele><time>2026-04-18T13:17:11.366Z</time></trkpt><trkpt lat="33.9191012" lon="8.1083205"><ele>90.0</ele><time>2026-04-18T13:17:12.351Z</time></trkpt><trkpt lat="33.9191229" lon="8.1084223"><ele>89.83333333333333</ele><time>2026-04-18T13:17:13.349Z</time></trkpt><trkpt lat="33.9191444" lon="8.1085255"><ele>89.66666666666667</ele><time>2026-04-18T13:17:14.356Z</time></trkpt><trkpt lat="33.9191621" lon="8.108625"><ele>89.5</ele><time>2026-04-18T13:17:15.346Z</time></trkpt><trkpt lat="33.9191761" lon="8.108714"><ele>89.33333333333334</ele><time>2026-04-18T13:17:16.377Z</time></trkpt><trkpt lat="33.9191887" lon="8.1087937"><ele>89.16666666666667</ele><time>2026-04-18T13:17:17.35Z</time></trkpt><trkpt lat="33.9192196" lon="8.1089389"><ele>89.0</ele><time>2026-04-18T13:17:19.35Z</time></trkpt><trkpt lat="33.9192385" lon="8.1090179"><ele>88.83333333333334</ele><time>2026-04-18T13:17:20.348Z</time></trkpt><trkpt lat="33.9192574" lon="8.1091003"><ele>88.66666666666667</ele><time>2026-04-18T13:17:21.36Z</time></trkpt><trkpt lat="33.919277" lon="8.1091953"><ele>88.5</ele><time>2026-04-18T13:17:22.349Z</time></trkpt><trkpt lat="33.9192974" lon="8.1092964"><ele>88.33333333333333</ele><time>2026-04-18T13:17:23.348Z</time></trkpt><trkpt lat="33.919317" lon="8.1094018"><ele>88.16666666666666</ele><time>2026-04-18T13:17:24.347Z</time></trkpt><trkpt lat="33.9193363" lon="8.1095075"><ele>88.0</ele><time>2026-04-18T13:17:25.354Z</time></trkpt><trkpt lat="33.9193585" lon="8.1096175"><ele>88.0</ele><time>2026-04-18T13:17:26.351Z</time></trkpt><trkpt lat="33.9193839" lon="8.1097324"><ele>88.0</ele><time>2026-04-18T13:17:27.357Z</time></trkpt><trkpt lat="33.9194085" lon="8.1098446"><ele>88.0</ele><time>2026-04-18T13:17:28.354Z</time></trkpt><trkpt lat="33.9194331" lon="8.1099526"><ele>88.0</ele><time>2026-04-18T13:17:29.347Z</time></trkpt><trkpt lat="33.9194564" lon="8.1100608"><ele>88.0</ele><time>2026-04-18T13:17:30.362Z</time></trkpt><trkpt lat="33.9194798" lon="8.1101658"><ele>88.0</ele><time>2026-04-18T13:17:31.349Z</time></trkpt><trkpt lat="33.9195021" lon="8.1102685"><ele>88.0</ele><time>2026-04-18T13:17:32.351Z</time></trkpt><trkpt lat="33.9195236" lon="8.1103681"><ele>88.0</ele><time>2026-04-18T13:17:33.351Z</time></trkpt><trkpt lat="33.9195426" lon="8.1104634"><ele>88.0</ele><time>2026-04-18T13:17:34.35Z</time></trkpt><trkpt lat="33.9195555" lon="8.1105514"><ele>88.0</ele><time>2026-04-18T13:17:35.348Z</time></trkpt><trkpt lat="33.919566" lon="8.1106278"><ele>88.0</ele><time>2026-04-18T13:17:36.354Z</time></trkpt><trkpt lat="33.9195926" lon="8.1107486"><ele>87.80000000000001</ele><time>2026-04-18T13:17:38.352Z</time></trkpt><trkpt lat="33.9196149" lon="8.1108634"><ele>87.6</ele><time>2026-04-18T13:17:40.35Z</time></trkpt><trkpt lat="33.9196146" lon="8.1109811"><ele>87.4</ele><time>2026-04-18T13:17:42.348Z</time></trkpt><trkpt lat="33.9195777" lon="8.1110773"><ele>87.19999999999999</ele><time>2026-04-18T13:17:44.364Z</time></trkpt><trkpt lat="33.9195035" lon="8.1111536"><ele>87.0</ele><time>2026-04-18T13:17:46.35Z</time></trkpt><trkpt lat="33.9193899" lon="8.1112213"><ele>87.0</ele><time>2026-04-18T13:17:48.349Z</time></trkpt><trkpt lat="33.9193209" lon="8.1112531"><ele>87.0</ele><time>2026-04-18T13:17:49.353Z</time></trkpt><trkpt lat="33.9192476" lon="8.1112862"><ele>87.0</ele><time>2026-04-18T13:17:50.355Z</time></trkpt><trkpt lat="33.9191708" lon="8.1113188"><ele>87.0</ele><time>2026-04-18T13:17:51.349Z</time></trkpt><trkpt lat="33.9190897" lon="8.1113521"><ele>87.0</ele><time>2026-04-18T13:17:52.348Z</time></trkpt><trkpt lat="33.9190038" lon="8.1113822"><ele>87.0</ele><time>2026-04-18T13:17:53.354Z</time></trkpt><trkpt lat="33.9189084" lon="8.1114068"><ele>87.19999999999999</ele><time>2026-04-18T13:17:54.355Z</time></trkpt><trkpt lat="33.918805" lon="8.111432"><ele>87.4</ele><time>2026-04-18T13:17:55.356Z</time></trkpt><trkpt lat="33.9187047" lon="8.1114566"><ele>87.6</ele><time>2026-04-18T13:17:56.372Z</time></trkpt><trkpt lat="33.9186017" lon="8.111482"><ele>87.80000000000001</ele><time>2026-04-18T13:17:57.352Z</time></trkpt><trkpt lat="33.9184963" lon="8.111509"><ele>88.0</ele><time>2026-04-18T13:17:58.349Z</time></trkpt><trkpt lat="33.918391" lon="8.1115333"><ele>88.0</ele><time>2026-04-18T13:17:59.353Z</time></trkpt><trkpt lat="33.9182854" lon="8.1115559"><ele>88.0</ele><time>2026-04-18T13:18:00.35Z</time></trkpt><trkpt lat="33.9181773" lon="8.1115746"><ele>88.0</ele><time>2026-04-18T13:18:01.366Z</time></trkpt><trkpt lat="33.9180671" lon="8.1115891"><ele>88.0</ele><time>2026-04-18T13:18:02.355Z</time></trkpt><trkpt lat="33.9179575" lon="8.1116008"><ele>88.0</ele><time>2026-04-18T13:18:03.36Z</time></trkpt><trkpt lat="33.9178496" lon="8.1116099"><ele>87.60000000000001</ele><time>2026-04-18T13:18:04.348Z</time></trkpt><trkpt lat="33.9177429" lon="8.1116192"><ele>87.2</ele><time>2026-04-18T13:18:05.372Z</time></trkpt><trkpt lat="33.9176374" lon="8.1116261"><ele>86.8</ele><time>2026-04-18T13:18:06.355Z</time></trkpt><trkpt lat="33.9175311" lon="8.1116346"><ele>86.4</ele><time>2026-04-18T13:18:07.356Z</time></trkpt><trkpt lat="33.9174232" lon="8.1116461"><ele>86.0</ele><time>2026-04-18T13:18:08.358Z</time></trkpt><trkpt lat="33.9173121" lon="8.1116577"><ele>86.0</ele><time>2026-04-18T13:18:09.357Z</time></trkpt><trkpt lat="33.9171973" lon="8.1116674"><ele>86.0</ele><time>2026-04-18T13:18:10.348Z</time></trkpt><trkpt lat="33.9170795" lon="8.111677"><ele>86.0</ele><time>2026-04-18T13:18:11.352Z</time></trkpt><trkpt lat="33.9169589" lon="8.111689"><ele>86.0</ele><time>2026-04-18T13:18:12.357Z</time></trkpt><trkpt lat="33.9168346" lon="8.111699"><ele>85.75</ele><time>2026-04-18T13:18:13.348Z</time></trkpt><trkpt lat="33.916707" lon="8.1117094"><ele>85.5</ele><time>2026-04-18T13:18:14.352Z</time></trkpt><trkpt lat="33.9165762" lon="8.1117215"><ele>85.25</ele><time>2026-04-18T13:18:15.365Z</time></trkpt><trkpt lat="33.9164374" lon="8.1117342"><ele>85.0</ele><time>2026-04-18T13:18:16.359Z</time></trkpt><trkpt lat="33.9162961" lon="8.1117455"><ele>85.0</ele><time>2026-04-18T13:18:17.35Z</time></trkpt><trkpt lat="33.9161519" lon="8.1117555"><ele>85.0</ele><time>2026-04-18T13:18:18.369Z</time></trkpt><trkpt lat="33.9160059" lon="8.1117647"><ele>85.0</ele><time>2026-04-18T13:18:19.352Z</time></trkpt><trkpt lat="33.9158587" lon="8.1117748"><ele>85.0</ele><time>2026-04-18T13:18:20.348Z</time></trkpt><trkpt lat="33.9157111" lon="8.1117862"><ele>83.75</ele><time>2026-04-18T13:18:21.355Z</time></trkpt><trkpt lat="33.9155667" lon="8.1117988"><ele>82.5</ele><time>2026-04-18T13:18:22.35Z</time></trkpt><trkpt lat="33.9154242" lon="8.1118142"><ele>81.25</ele><time>2026-04-18T13:18:23.35Z</time></trkpt><trkpt lat="33.9152808" lon="8.1118369"><ele>80.0</ele><time>2026-04-18T13:18:24.349Z</time></trkpt><trkpt lat="33.9151357" lon="8.1118701"><ele>79.33333333333334</ele><time>2026-04-18T13:18:25.349Z</time></trkpt><trkpt lat="33.9149896" lon="8.1119168"><ele>78.66666666666667</ele><time>2026-04-18T13:18:26.347Z</time></trkpt><trkpt lat="33.9148436" lon="8.1119738"><ele>78.0</ele><time>2026-04-18T13:18:27.348Z</time></trkpt><trkpt lat="33.9146978" lon="8.1120386"><ele>78.0</ele><time>2026-04-18T13:18:28.351Z</time></trkpt><trkpt lat="33.9145527" lon="8.1121011"><ele>78.0</ele><time>2026-04-18T13:18:29.35Z</time></trkpt><trkpt lat="33.9144171" lon="8.1121822"><ele>78.0</ele><time>2026-04-18T13:18:30.356Z</time></trkpt><trkpt lat="33.9142817" lon="8.1122739"><ele>78.25</ele><time>2026-04-18T13:18:31.345Z</time></trkpt><trkpt lat="33.9141606" lon="8.1123643"><ele>78.5</ele><time>2026-04-18T13:18:32.349Z</time></trkpt><trkpt lat="33.9140445" lon="8.1124535"><ele>78.75</ele><time>2026-04-18T13:18:33.344Z</time></trkpt><trkpt lat="33.9139325" lon="8.1125369"><ele>79.0</ele><time>2026-04-18T13:18:34.345Z</time></trkpt><trkpt lat="33.9138242" lon="8.1126122"><ele>79.0</ele><time>2026-04-18T13:18:35.349Z</time></trkpt><trkpt lat="33.9137219" lon="8.1126755"><ele>79.0</ele><time>2026-04-18T13:18:36.347Z</time></trkpt><trkpt lat="33.9136231" lon="8.1127304"><ele>79.0</ele><time>2026-04-18T13:18:37.349Z</time></trkpt><trkpt lat="33.9135297" lon="8.1127789"><ele>79.0</ele><time>2026-04-18T13:18:38.343Z</time></trkpt><trkpt lat="33.9134429" lon="8.1128292"><ele>79.0</ele><time>2026-04-18T13:18:39.345Z</time></trkpt><trkpt lat="33.913357" lon="8.1128818"><ele>79.2</ele><time>2026-04-18T13:18:40.344Z</time></trkpt><trkpt lat="33.9132739" lon="8.1129393"><ele>79.4</ele><time>2026-04-18T13:18:41.343Z</time></trkpt><trkpt lat="33.9131959" lon="8.113003"><ele>79.6</ele><time>2026-04-18T13:18:42.351Z</time></trkpt><trkpt lat="33.9131252" lon="8.1130748"><ele>79.8</ele><time>2026-04-18T13:18:43.349Z</time></trkpt><trkpt lat="33.9130594" lon="8.1131509"><ele>80.0</ele><time>2026-04-18T13:18:44.349Z</time></trkpt><trkpt lat="33.9130016" lon="8.1132443"><ele>80.0</ele><time>2026-04-18T13:18:45.352Z</time></trkpt><trkpt lat="33.9129508" lon="8.1133588"><ele>80.0</ele><time>2026-04-18T13:18:46.35Z</time></trkpt><trkpt lat="33.9129176" lon="8.1134798"><ele>80.0</ele><time>2026-04-18T13:18:47.351Z</time></trkpt><trkpt lat="33.9129065" lon="8.1136026"><ele>80.0</ele><time>2026-04-18T13:18:48.351Z</time></trkpt><trkpt lat="33.912917" lon="8.1137234"><ele>80.0</ele><time>2026-04-18T13:18:49.359Z</time></trkpt><trkpt lat="33.9129413" lon="8.1138378"><ele>80.0</ele><time>2026-04-18T13:18:50.369Z</time></trkpt><trkpt lat="33.9129783" lon="8.1139471"><ele>80.0</ele><time>2026-04-18T13:18:51.375Z</time></trkpt><trkpt lat="33.9130215" lon="8.1140484"><ele>80.0</ele><time>2026-04-18T13:18:52.36Z</time></trkpt><trkpt lat="33.9130796" lon="8.1141392"><ele>80.0</ele><time>2026-04-18T13:18:53.362Z</time></trkpt><trkpt lat="33.9131482" lon="8.1142168"><ele>80.0</ele><time>2026-04-18T13:18:54.353Z</time></trkpt><trkpt lat="33.9132248" lon="8.1142859"><ele>80.0</ele><time>2026-04-18T13:18:55.355Z</time></trkpt><trkpt lat="33.9133044" lon="8.1143484"><ele>80.0</ele><time>2026-04-18T13:18:56.359Z</time></trkpt><trkpt lat="33.9133915" lon="8.1144107"><ele>80.0</ele><time>2026-04-18T13:18:57.351Z</time></trkpt><trkpt lat="33.9134847" lon="8.1144732"><ele>80.0</ele><time>2026-04-18T13:18:58.354Z</time></trkpt><trkpt lat="33.9135796" lon="8.1145355"><ele>80.0</ele><time>2026-04-18T13:18:59.353Z</time></trkpt><trkpt lat="33.9136745" lon="8.114597"><ele>80.0</ele><time>2026-04-18T13:19:00.353Z</time></trkpt><trkpt lat="33.9137713" lon="8.1146574"><ele>80.0</ele><time>2026-04-18T13:19:01.349Z</time></trkpt><trkpt lat="33.9138673" lon="8.1147161"><ele>80.0</ele><time>2026-04-18T13:19:02.351Z</time></trkpt><trkpt lat="33.9139624" lon="8.1147767"><ele>80.0</ele><time>2026-04-18T13:19:03.345Z</time></trkpt><trkpt lat="33.9140553" lon="8.1148388"><ele>80.0</ele><time>2026-04-18T13:19:04.355Z</time></trkpt><trkpt lat="33.9141482" lon="8.1148988"><ele>79.8</ele><time>2026-04-18T13:19:05.355Z</time></trkpt><trkpt lat="33.9142396" lon="8.1149623"><ele>79.6</ele><time>2026-04-18T13:19:06.36Z</time></trkpt><trkpt lat="33.9143272" lon="8.115032"><ele>79.4</ele><time>2026-04-18T13:19:07.353Z</time></trkpt><trkpt lat="33.9144067" lon="8.1151127"><ele>79.2</ele><time>2026-04-18T13:19:08.349Z</time></trkpt><trkpt lat="33.9144768" lon="8.1152062"><ele>79.0</ele><time>2026-04-18T13:19:09.354Z</time></trkpt><trkpt lat="33.9145367" lon="8.1153123"><ele>79.0</ele><time>2026-04-18T13:19:10.36Z</time></trkpt><trkpt lat="33.9145837" lon="8.1154304"><ele>79.0</ele><time>2026-04-18T13:19:11.356Z</time></trkpt><trkpt lat="33.9146149" lon="8.1155641"><ele>79.0</ele><time>2026-04-18T13:19:12.369Z</time></trkpt><trkpt lat="33.9146354" lon="8.1157086"><ele>79.0</ele><time>2026-04-18T13:19:13.374Z</time></trkpt><trkpt lat="33.9146509" lon="8.1158604"><ele>77.75</ele><time>2026-04-18T13:19:14.393Z</time></trkpt><trkpt lat="33.9146663" lon="8.1160167"><ele>76.5</ele><time>2026-04-18T13:19:15.351Z</time></trkpt><trkpt lat="33.9146833" lon="8.1161776"><ele>75.25</ele><time>2026-04-18T13:19:16.351Z</time></trkpt><trkpt lat="33.9146986" lon="8.1163362"><ele>74.0</ele><time>2026-04-18T13:19:17.38Z</time></trkpt><trkpt lat="33.9147114" lon="8.116485"><ele>73.25</ele><time>2026-04-18T13:19:18.371Z</time></trkpt><trkpt lat="33.9147234" lon="8.1166307"><ele>72.5</ele><time>2026-04-18T13:19:19.372Z</time></trkpt><trkpt lat="33.9147364" lon="8.1167754"><ele>71.75</ele><time>2026-04-18T13:19:20.366Z</time></trkpt><trkpt lat="33.914751" lon="8.1169149"><ele>71.0</ele><time>2026-04-18T13:19:21.369Z</time></trkpt><trkpt lat="33.9147661" lon="8.1170455"><ele>71.0</ele><time>2026-04-18T13:19:22.38Z</time></trkpt><trkpt lat="33.91478" lon="8.1171679"><ele>71.0</ele><time>2026-04-18T13:19:23.384Z</time></trkpt><trkpt lat="33.9147941" lon="8.1172793"><ele>71.0</ele><time>2026-04-18T13:19:24.382Z</time></trkpt><trkpt lat="33.9148069" lon="8.1173808"><ele>71.0</ele><time>2026-04-18T13:19:25.368Z</time></trkpt><trkpt lat="33.9148195" lon="8.1174773"><ele>71.0</ele><time>2026-04-18T13:19:26.368Z</time></trkpt><trkpt lat="33.9148299" lon="8.117574"><ele>71.0</ele><time>2026-04-18T13:19:27.371Z</time></trkpt><trkpt lat="33.9148394" lon="8.1176789"><ele>70.2</ele><time>2026-04-18T13:19:28.366Z</time></trkpt><trkpt lat="33.9148498" lon="8.1177925"><ele>69.39999999999999</ele><time>2026-04-18T13:19:29.373Z</time></trkpt><trkpt lat="33.9148584" lon="8.1179103"><ele>68.6</ele><time>2026-04-18T13:19:30.368Z</time></trkpt><trkpt lat="33.9148661" lon="8.1180276"><ele>67.8</ele><time>2026-04-18T13:19:31.368Z</time></trkpt><trkpt lat="33.9148759" lon="8.1181342"><ele>67.0</ele><time>2026-04-18T13:19:32.385Z</time></trkpt><trkpt lat="33.9148854" lon="8.1182183"><ele>66.5</ele><time>2026-04-18T13:19:33.373Z</time></trkpt><trkpt lat="33.9148965" lon="8.1183226"><ele>66.0</ele><time>2026-04-18T13:19:35.374Z</time></trkpt><trkpt lat="33.9148367" lon="8.1185078"><ele>65.5</ele><time>2026-04-18T13:19:52.373Z</time></trkpt><trkpt lat="33.9147435" lon="8.1184905"><ele>65.0</ele><time>2026-04-18T13:19:54.366Z</time></trkpt><trkpt lat="33.9146338" lon="8.1184415"><ele>65.0</ele><time>2026-04-18T13:19:56.37Z</time></trkpt><trkpt lat="33.9145357" lon="8.1183566"><ele>65.0</ele><time>2026-04-18T13:19:58.377Z</time></trkpt><trkpt lat="33.9144608" lon="8.118237"><ele>65.0</ele><time>2026-04-18T13:20:00.358Z</time></trkpt><trkpt lat="33.9144076" lon="8.1181131"><ele>65.0</ele><time>2026-04-18T13:20:02.369Z</time></trkpt><trkpt lat="33.9143529" lon="8.1180181"><ele>65.28571428571429</ele><time>2026-04-18T13:20:04.364Z</time></trkpt><trkpt lat="33.9142934" lon="8.1179692"><ele>65.57142857142857</ele><time>2026-04-18T13:20:06.364Z</time></trkpt><trkpt lat="33.9142993" lon="8.1180614"><ele>65.85714285714286</ele><time>2026-04-18T13:26:47.339Z</time></trkpt><trkpt lat="33.9143227" lon="8.1179902"><ele>66.14285714285714</ele><time>2026-04-18T13:26:49.353Z</time></trkpt><trkpt lat="33.9143505" lon="8.1179219"><ele>66.42857142857143</ele><time>2026-04-18T13:26:51.359Z</time></trkpt><trkpt lat="33.9143333" lon="8.1179969"><ele>66.71428571428572</ele><time>2026-04-18T13:33:03.366Z</time></trkpt><trkpt lat="33.9143273" lon="8.118076"><ele>67.0</ele><time>2026-04-18T13:33:09.371Z</time></trkpt><trkpt lat="33.91428" lon="8.1181302"><ele>67.0</ele><time>2026-04-18T13:33:15.28Z</time></trkpt><trkpt lat="33.9142405" lon="8.1181902"><ele>67.0</ele><time>2026-04-18T13:33:26.351Z</time></trkpt><trkpt lat="33.9143118" lon="8.1181224"><ele>67.0</ele><time>2026-04-18T13:36:58.327Z</time></trkpt><trkpt lat="33.9146625" lon="8.1179653"><ele>67.0</ele><time>2026-04-18T13:37:01.334Z</time></trkpt><trkpt lat="33.9148118" lon="8.1179054"><ele>67.0</ele><time>2026-04-18T13:37:02.339Z</time></trkpt><trkpt lat="33.9149422" lon="8.1178582"><ele>67.0</ele><time>2026-04-18T13:37:03.328Z</time></trkpt><trkpt lat="33.9150361" lon="8.1178215"><ele>67.0</ele><time>2026-04-18T13:37:04.338Z</time></trkpt><trkpt lat="33.9151221" lon="8.1177909"><ele>71.0</ele><time>2026-04-18T13:37:05.338Z</time></trkpt><trkpt lat="33.9152969" lon="8.1177304"><ele>75.0</ele><time>2026-04-18T13:37:07.341Z</time></trkpt><trkpt lat="33.9138083" lon="8.1183982"><ele>72.71428571428571</ele><time>2026-04-18T13:43:28.323Z</time></trkpt><trkpt lat="33.9138748" lon="8.1184282"><ele>70.42857142857143</ele><time>2026-04-18T13:43:55.353Z</time></trkpt><trkpt lat="33.9139349" lon="8.1184653"><ele>68.14285714285714</ele><time>2026-04-18T13:44:02.353Z</time></trkpt><trkpt lat="33.9139973" lon="8.1184988"><ele>65.85714285714286</ele><time>2026-04-18T13:44:24.354Z</time></trkpt><trkpt lat="33.9140522" lon="8.1185361"><ele>63.57142857142857</ele><time>2026-04-18T13:44:57.353Z</time></trkpt><trkpt lat="33.9141202" lon="8.1185471"><ele>61.285714285714285</ele><time>2026-04-18T13:45:21.345Z</time></trkpt><trkpt lat="33.914193" lon="8.1186462"><ele>59.0</ele><time>2026-04-18T13:48:01.353Z</time></trkpt><trkpt lat="33.9142324" lon="8.1187286"><ele>59.0</ele><time>2026-04-18T13:49:23.439Z</time></trkpt><trkpt lat="33.9142388" lon="8.1186484"><ele>59.0</ele><time>2026-04-18T13:49:55.443Z</time></trkpt><trkpt lat="33.9141713" lon="8.118661"><ele>59.0</ele><time>2026-04-18T13:50:05.394Z</time></trkpt><trkpt lat="33.9141599" lon="8.1187413"><ele>59.0</ele><time>2026-04-18T13:50:08.35Z</time></trkpt><trkpt lat="33.9142292" lon="8.1187248"><ele>59.0</ele><time>2026-04-18T13:51:56.326Z</time></trkpt><trkpt lat="33.9142782" lon="8.1186482"><ele>59.0</ele><time>2026-04-18T14:07:01.435Z</time></trkpt><trkpt lat="33.9142203" lon="8.1186978"><ele>59.0</ele><time>2026-04-18T14:09:46.332Z</time></trkpt><trkpt lat="33.9142913" lon="8.1187009"><ele>65.0</ele><time>2026-04-18T14:11:28.359Z</time></trkpt><trkpt lat="33.9142148" lon="8.1186671"><ele>59.0</ele><time>2026-04-18T14:16:07.35Z</time></trkpt></trkseg></trk></gpx>